<?xml version='1.0' encoding='UTF-8'?><gpx version="1.1" creator="JPX - https://github.com/jenetics/jpx" xmlns="http://www.topografix.com/GPX/1/1"><trk><trkseg><trkpt lat="43.58060997099342" lon="10.301895668642432"><ele>3.0</ele><time>2026-04-07T05:40:26.999Z</time></trkpt><trkpt lat="43.58059187141108" lon="10.301765765862777"><ele>3.0</ele><time>2026-04-07T05:40:28.999Z</time></trkpt><trkpt lat="43.58057365474935" lon="10.30161849934014"><ele>3.0</ele><time>2026-04-07T05:40:30.999Z</time></trkpt><trkpt lat="43.580571135781746" lon="10.301522840101413"><ele>3.0</ele><time>2026-04-07T05:40:32.999Z</time></trkpt><trkpt lat="43.580577699431814" lon="10.3014323150997"><ele>3.0</ele><time>2026-04-07T05:40:34.999Z</time></trkpt><trkpt lat="43.58060748225156" lon="10.301330023028202"><ele>3.0</ele><time>2026-04-07T05:40:37.999Z</time></trkpt><trkpt lat="43.58064390912226" lon="10.301252141887035"><ele>2.8</ele><time>2026-04-07T05:40:40.999Z</time></trkpt><trkpt lat="43.58070216667012" lon="10.301141100095148"><ele>2.5999999999999996</ele><time>2026-04-07T05:40:43.999Z</time></trkpt><trkpt lat="43.580761847380245" lon="10.301065866968848"><ele>2.4000000000000004</ele><time>2026-04-07T05:40:45.999Z</time></trkpt><trkpt lat="43.58083606211474" lon="10.300971565661646"><ele>2.2</ele><time>2026-04-07T05:40:47.999Z</time></trkpt><trkpt lat="43.58091887698367" lon="10.300867917785068"><ele>2.0</ele><time>2026-04-07T05:40:49.999Z</time></trkpt><trkpt lat="43.58100911258886" lon="10.300789856365222"><ele>2.0</ele><time>2026-04-07T05:40:51.999Z</time></trkpt><trkpt lat="43.58111677307039" lon="10.300770675829611"><ele>2.0</ele><time>2026-04-07T05:40:53.999Z</time></trkpt><trkpt lat="43.581214179342524" lon="10.300823208379127"><ele>2.0</ele><time>2026-04-07T05:40:55.999Z</time></trkpt><trkpt lat="43.58128442390633" lon="10.300889198908935"><ele>2.0</ele><time>2026-04-07T05:40:57.999Z</time></trkpt><trkpt lat="43.58134819338558" lon="10.300951768055478"><ele>2.0</ele><time>2026-04-07T05:41:02.999Z</time></trkpt><trkpt lat="43.58142069253991" lon="10.301025000989167"><ele>2.0</ele><time>2026-04-07T05:41:05.999Z</time></trkpt><trkpt lat="43.58148798349103" lon="10.301104548886554"><ele>2.0</ele><time>2026-04-07T05:41:07.999Z</time></trkpt><trkpt lat="43.58155367059034" lon="10.301201809097524"><ele>2.0</ele><time>2026-04-07T05:41:09.999Z</time></trkpt><trkpt lat="43.58162739085396" lon="10.301305876371835"><ele>2.0</ele><time>2026-04-07T05:41:11.999Z</time></trkpt><trkpt lat="43.581692578943574" lon="10.301391484241108"><ele>2.0</ele><time>2026-04-07T05:41:13.999Z</time></trkpt><trkpt lat="43.58174492167789" lon="10.301465128660222"><ele>1.9999999999999998</ele><time>2026-04-07T05:41:15.999Z</time></trkpt><trkpt lat="43.58178995991195" lon="10.30152759379068"><ele>2.0</ele><time>2026-04-07T05:41:18.999Z</time></trkpt><trkpt lat="43.58183270628943" lon="10.30159508242693"><ele>2.0</ele><time>2026-04-07T05:41:29.999Z</time></trkpt><trkpt lat="43.5818854173894" lon="10.301673500652603"><ele>2.0</ele><time>2026-04-07T05:41:32Z</time></trkpt><trkpt lat="43.58194476646204" lon="10.301750843005795"><ele>1.9999999999999998</ele><time>2026-04-07T05:41:34Z</time></trkpt><trkpt lat="43.58199929028089" lon="10.30182125200105"><ele>2.0</ele><time>2026-04-07T05:41:37Z</time></trkpt><trkpt lat="43.58205260615173" lon="10.30191615185168"><ele>1.857142857142857</ele><time>2026-04-07T05:41:40Z</time></trkpt><trkpt lat="43.582107826650315" lon="10.301991108859273"><ele>1.714285714285714</ele><time>2026-04-07T05:41:42Z</time></trkpt><trkpt lat="43.58215955834801" lon="10.302058538534771"><ele>1.5714285714285714</ele><time>2026-04-07T05:41:44Z</time></trkpt><trkpt lat="43.58221232836783" lon="10.302130505687813"><ele>1.4285714285714284</ele><time>2026-04-07T05:41:47Z</time></trkpt><trkpt lat="43.582271032036836" lon="10.302208683355559"><ele>1.2857142857142856</ele><time>2026-04-07T05:41:50Z</time></trkpt><trkpt lat="43.58231934580964" lon="10.302270883175579"><ele>1.1428571428571428</ele><time>2026-04-07T05:41:53Z</time></trkpt><trkpt lat="43.58237183244659" lon="10.302337737856467"><ele>1.0</ele><time>2026-04-07T05:41:56Z</time></trkpt><trkpt lat="43.582426644526784" lon="10.302420258737326"><ele>0.9999999999999999</ele><time>2026-04-07T05:41:59Z</time></trkpt><trkpt lat="43.582478101911114" lon="10.302527238982297"><ele>1.0</ele><time>2026-04-07T05:42:02Z</time></trkpt><trkpt lat="43.58252317790329" lon="10.302597678627697"><ele>1.0</ele><time>2026-04-07T05:42:04Z</time></trkpt><trkpt lat="43.58257151052394" lon="10.302683653602369"><ele>1.0</ele><time>2026-04-07T05:42:06Z</time></trkpt><trkpt lat="43.58263437647986" lon="10.302770369574432"><ele>0.9999999999999999</ele><time>2026-04-07T05:42:08Z</time></trkpt><trkpt lat="43.58267923358434" lon="10.302881734727034"><ele>1.0</ele><time>2026-04-07T05:42:10Z</time></trkpt><trkpt lat="43.58272090126335" lon="10.303003665357686"><ele>1.1666666666666665</ele><time>2026-04-07T05:42:12Z</time></trkpt><trkpt lat="43.582748638276954" lon="10.303106822048832"><ele>1.3333333333333333</ele><time>2026-04-07T05:42:14Z</time></trkpt><trkpt lat="43.582772608428854" lon="10.30320686746071"><ele>1.5</ele><time>2026-04-07T05:42:16Z</time></trkpt><trkpt lat="43.58279423401561" lon="10.303307731274268"><ele>1.6666666666666665</ele><time>2026-04-07T05:42:18Z</time></trkpt><trkpt lat="43.58281256539037" lon="10.303418622875714"><ele>1.8333333333333333</ele><time>2026-04-07T05:42:20Z</time></trkpt><trkpt lat="43.58282134755986" lon="10.303513991351327"><ele>2.0</ele><time>2026-04-07T05:42:21.999Z</time></trkpt><trkpt lat="43.58282080014278" lon="10.303621921786824"><ele>1.9999999999999998</ele><time>2026-04-07T05:42:24Z</time></trkpt><trkpt lat="43.58281109612426" lon="10.303722483782623"><ele>2.0</ele><time>2026-04-07T05:42:26Z</time></trkpt><trkpt lat="43.582799526856014" lon="10.30386196583542"><ele>2.0</ele><time>2026-04-07T05:42:29Z</time></trkpt><trkpt lat="43.58279476841752" lon="10.303957108947033"><ele>2.0</ele><time>2026-04-07T05:42:31Z</time></trkpt><trkpt lat="43.58278644029192" lon="10.304061860335677"><ele>1.9999999999999998</ele><time>2026-04-07T05:42:33Z</time></trkpt><trkpt lat="43.582781563308686" lon="10.304174150939103"><ele>2.0</ele><time>2026-04-07T05:42:35Z</time></trkpt><trkpt lat="43.58277924297309" lon="10.304292359108702"><ele>1.6</ele><time>2026-04-07T05:42:37Z</time></trkpt><trkpt lat="43.58277609408342" lon="10.304418445094855"><ele>1.2000000000000002</ele><time>2026-04-07T05:42:39Z</time></trkpt><trkpt lat="43.5827796752199" lon="10.304533299535752"><ele>0.8</ele><time>2026-04-07T05:42:41Z</time></trkpt><trkpt lat="43.58278555765039" lon="10.304649964263012"><ele>0.4</ele><time>2026-04-07T05:42:43Z</time></trkpt><trkpt lat="43.58279685515936" lon="10.304786479010552"><ele>0.0</ele><time>2026-04-07T05:42:45Z</time></trkpt><trkpt lat="43.582810238829545" lon="10.304935353214926"><ele>-0.2</ele><time>2026-04-07T05:42:47Z</time></trkpt><trkpt lat="43.58282606205952" lon="10.305092408048026"><ele>-0.4</ele><time>2026-04-07T05:42:49Z</time></trkpt><trkpt lat="43.58283361849885" lon="10.30518185188353"><ele>-0.6000000000000001</ele><time>2026-04-07T05:42:50Z</time></trkpt><trkpt lat="43.58284169740538" lon="10.305275043105915"><ele>-0.8</ele><time>2026-04-07T05:42:51Z</time></trkpt><trkpt lat="43.5828536020738" lon="10.305440541795868"><ele>-1.0</ele><time>2026-04-07T05:42:53Z</time></trkpt><trkpt lat="43.58284970633532" lon="10.305584385419058"><ele>-1.6666666666666665</ele><time>2026-04-07T05:42:55Z</time></trkpt><trkpt lat="43.58281122480622" lon="10.305724716621286"><ele>-2.3333333333333335</ele><time>2026-04-07T05:42:57Z</time></trkpt><trkpt lat="43.58272108090715" lon="10.305852850070105"><ele>-3.0</ele><time>2026-04-07T05:42:59Z</time></trkpt><trkpt lat="43.58268379619542" lon="10.305931616879773"><ele>-3.666666666666667</ele><time>2026-04-07T05:43:00Z</time></trkpt><trkpt lat="43.582670786686435" lon="10.306020566760687"><ele>-4.333333333333334</ele><time>2026-04-07T05:43:01Z</time></trkpt><trkpt lat="43.582678071519396" lon="10.306114706469028"><ele>-5.0</ele><time>2026-04-07T05:43:02Z</time></trkpt><trkpt lat="43.58270537828423" lon="10.306208302545125"><ele>-5.0</ele><time>2026-04-07T05:43:03Z</time></trkpt><trkpt lat="43.5828175972444" lon="10.306407395191322"><ele>-5.0</ele><time>2026-04-07T05:43:05Z</time></trkpt><trkpt lat="43.58287361184092" lon="10.306492444925743"><ele>-5.0</ele><time>2026-04-07T05:43:06Z</time></trkpt><trkpt lat="43.582929954216155" lon="10.306571343905922"><ele>-5.0</ele><time>2026-04-07T05:43:07Z</time></trkpt><trkpt lat="43.58298457198711" lon="10.306655286170038"><ele>-5.0</ele><time>2026-04-07T05:43:08Z</time></trkpt><trkpt lat="43.58304555076338" lon="10.306746181007057"><ele>-4.2</ele><time>2026-04-07T05:43:09Z</time></trkpt><trkpt lat="43.58311230998336" lon="10.306845297413197"><ele>-3.4</ele><time>2026-04-07T05:43:10Z</time></trkpt><trkpt lat="43.58318187386768" lon="10.306948002706992"><ele>-2.6</ele><time>2026-04-07T05:43:11Z</time></trkpt><trkpt lat="43.58325563097406" lon="10.30705128315001"><ele>-1.8</ele><time>2026-04-07T05:43:12Z</time></trkpt><trkpt lat="43.583333696841294" lon="10.30715909539263"><ele>-1.0</ele><time>2026-04-07T05:43:13Z</time></trkpt><trkpt lat="43.58341529005622" lon="10.307263812908078"><ele>-0.5</ele><time>2026-04-07T05:43:14Z</time></trkpt><trkpt lat="43.58350398580283" lon="10.307363841610947"><ele>0.0</ele><time>2026-04-07T05:43:15Z</time></trkpt><trkpt lat="43.58360176115633" lon="10.307455667092885"><ele>0.5</ele><time>2026-04-07T05:43:16Z</time></trkpt><trkpt lat="43.58370847255742" lon="10.307547175280222"><ele>1.0</ele><time>2026-04-07T05:43:17Z</time></trkpt><trkpt lat="43.583806236502895" lon="10.307634338450251"><ele>1.0</ele><time>2026-04-07T05:43:18Z</time></trkpt><trkpt lat="43.58389816152596" lon="10.307742581454999"><ele>1.0</ele><time>2026-04-07T05:43:19Z</time></trkpt><trkpt lat="43.583986674304235" lon="10.307881083521362"><ele>1.0</ele><time>2026-04-07T05:43:20Z</time></trkpt><trkpt lat="43.58407184462982" lon="10.30803392434002"><ele>1.0</ele><time>2026-04-07T05:43:21Z</time></trkpt><trkpt lat="43.584156469790265" lon="10.308196750171973"><ele>0.6666666666666666</ele><time>2026-04-07T05:43:22Z</time></trkpt><trkpt lat="43.58423525288031" lon="10.30837312295793"><ele>0.3333333333333333</ele><time>2026-04-07T05:43:23Z</time></trkpt><trkpt lat="43.584307176346755" lon="10.308561963603797"><ele>0.0</ele><time>2026-04-07T05:43:24Z</time></trkpt><trkpt lat="43.58436938562571" lon="10.308747702867693"><ele>0.0</ele><time>2026-04-07T05:43:25Z</time></trkpt><trkpt lat="43.584419448349436" lon="10.308938807890607"><ele>0.0</ele><time>2026-04-07T05:43:26Z</time></trkpt><trkpt lat="43.584468131955646" lon="10.309129338103938"><ele>0.0</ele><time>2026-04-07T05:43:27Z</time></trkpt><trkpt lat="43.58450703503916" lon="10.309321022509508"><ele>0.0</ele><time>2026-04-07T05:43:28Z</time></trkpt><trkpt lat="43.58454712583188" lon="10.309522933049161"><ele>0.0</ele><time>2026-04-07T05:43:29Z</time></trkpt><trkpt lat="43.584586558301716" lon="10.30972746267682"><ele>0.0</ele><time>2026-04-07T05:43:30Z</time></trkpt><trkpt lat="43.58462607663075" lon="10.309933869903592"><ele>0.0</ele><time>2026-04-07T05:43:31Z</time></trkpt><trkpt lat="43.58466781999745" lon="10.310151172333587"><ele>0.0</ele><time>2026-04-07T05:43:32Z</time></trkpt><trkpt lat="43.58470801530778" lon="10.310364548891087"><ele>0.0</ele><time>2026-04-07T05:43:33Z</time></trkpt><trkpt lat="43.58474904822939" lon="10.310579091944854"><ele>0.0</ele><time>2026-04-07T05:43:34Z</time></trkpt><trkpt lat="43.58478971606326" lon="10.310794210704737"><ele>0.0</ele><time>2026-04-07T05:43:35Z</time></trkpt><trkpt lat="43.5848299896462" lon="10.311012136367149"><ele>0.0</ele><time>2026-04-07T05:43:36Z</time></trkpt><trkpt lat="43.584870950870105" lon="10.311233236740387"><ele>0.0</ele><time>2026-04-07T05:43:37Z</time></trkpt><trkpt lat="43.58491379836819" lon="10.311469255643422"><ele>0.0</ele><time>2026-04-07T05:43:38Z</time></trkpt><trkpt lat="43.584956439860235" lon="10.311700340752298"><ele>0.0</ele><time>2026-04-07T05:43:39Z</time></trkpt><trkpt lat="43.584998243543055" lon="10.31192599418424"><ele>0.0</ele><time>2026-04-07T05:43:40Z</time></trkpt><trkpt lat="43.585041486823876" lon="10.312156138875178"><ele>0.0</ele><time>2026-04-07T05:43:41Z</time></trkpt><trkpt lat="43.58508502678903" lon="10.312388367691309"><ele>0.0</ele><time>2026-04-07T05:43:42Z</time></trkpt><trkpt lat="43.585126915054246" lon="10.312617015693785"><ele>0.0</ele><time>2026-04-07T05:43:43Z</time></trkpt><trkpt lat="43.58516599152247" lon="10.312838771170753"><ele>0.0</ele><time>2026-04-07T05:43:44Z</time></trkpt><trkpt lat="43.58519864073401" lon="10.313064711103985"><ele>0.0</ele><time>2026-04-07T05:43:45Z</time></trkpt><trkpt lat="43.585234403048055" lon="10.313290226511942"><ele>0.0</ele><time>2026-04-07T05:43:46Z</time></trkpt><trkpt lat="43.58526738837046" lon="10.313507011973266"><ele>0.0</ele><time>2026-04-07T05:43:47Z</time></trkpt><trkpt lat="43.58535778513463" lon="10.313830406526986"><ele>0.0</ele><time>2026-04-07T05:43:48Z</time></trkpt><trkpt lat="43.58540011420726" lon="10.314074514481277"><ele>0.0</ele><time>2026-04-07T05:43:49Z</time></trkpt><trkpt lat="43.585450582859" lon="10.314309341145684"><ele>0.0</ele><time>2026-04-07T05:43:50Z</time></trkpt><trkpt lat="43.58550441753195" lon="10.314547190211487"><ele>0.0</ele><time>2026-04-07T05:43:51Z</time></trkpt><trkpt lat="43.58556194519049" lon="10.31478675372006"><ele>0.0</ele><time>2026-04-07T05:43:52Z</time></trkpt><trkpt lat="43.58561138562927" lon="10.315024665755669"><ele>-0.3333333333333333</ele><time>2026-04-07T05:43:53Z</time></trkpt><trkpt lat="43.58567449182342" lon="10.315254896677072"><ele>-0.6666666666666666</ele><time>2026-04-07T05:43:54Z</time></trkpt><trkpt lat="43.58574455312531" lon="10.315485231113765"><ele>-1.0</ele><time>2026-04-07T05:43:55Z</time></trkpt><trkpt lat="43.5858187059022" lon="10.315709176742253"><ele>-1.0</ele><time>2026-04-07T05:43:56Z</time></trkpt><trkpt lat="43.58590148769365" lon="10.315930648681453"><ele>-1.0</ele><time>2026-04-07T05:43:57Z</time></trkpt><trkpt lat="43.58597500069623" lon="10.316156173900202"><ele>-1.0</ele><time>2026-04-07T05:43:58Z</time></trkpt><trkpt lat="43.586052842549286" lon="10.316384329371482"><ele>-1.0</ele><time>2026-04-07T05:43:59Z</time></trkpt><trkpt lat="43.58613854847459" lon="10.316611508620108"><ele>-1.0</ele><time>2026-04-07T05:44:00Z</time></trkpt><trkpt lat="43.586232270428795" lon="10.316845111789306"><ele>-1.0</ele><time>2026-04-07T05:44:01Z</time></trkpt><trkpt lat="43.58632671196919" lon="10.317079347387768"><ele>-0.6666666666666666</ele><time>2026-04-07T05:44:02Z</time></trkpt><trkpt lat="43.58641978685853" lon="10.31731927151635"><ele>-0.3333333333333333</ele><time>2026-04-07T05:44:03Z</time></trkpt><trkpt lat="43.58651197839453" lon="10.317563804498363"><ele>0.0</ele><time>2026-04-07T05:44:04Z</time></trkpt><trkpt lat="43.586599961331906" lon="10.31779719546252"><ele>0.0</ele><time>2026-04-07T05:44:05Z</time></trkpt><trkpt lat="43.58668226171976" lon="10.318038559405307"><ele>0.0</ele><time>2026-04-07T05:44:06Z</time></trkpt><trkpt lat="43.586760291902415" lon="10.318257111770931"><ele>0.0</ele><time>2026-04-07T05:44:07Z</time></trkpt><trkpt lat="43.586836363331344" lon="10.318463802464017"><ele>0.0</ele><time>2026-04-07T05:44:08Z</time></trkpt><trkpt lat="43.586909412181555" lon="10.318669523951218"><ele>0.0</ele><time>2026-04-07T05:44:09Z</time></trkpt><trkpt lat="43.58696961385743" lon="10.318877392422545"><ele>0.0</ele><time>2026-04-07T05:44:10Z</time></trkpt><trkpt lat="43.587033125748" lon="10.319095715546332"><ele>0.3333333333333333</ele><time>2026-04-07T05:44:11Z</time></trkpt><trkpt lat="43.58709496009551" lon="10.319311763331237"><ele>0.6666666666666666</ele><time>2026-04-07T05:44:12Z</time></trkpt><trkpt lat="43.58715097202267" lon="10.319530150962649"><ele>1.0</ele><time>2026-04-07T05:44:13Z</time></trkpt><trkpt lat="43.58720566549611" lon="10.319754030030824"><ele>1.0</ele><time>2026-04-07T05:44:14Z</time></trkpt><trkpt lat="43.587265820392574" lon="10.319979958146066"><ele>1.0</ele><time>2026-04-07T05:44:15Z</time></trkpt><trkpt lat="43.587329244131205" lon="10.320202832130716"><ele>1.0</ele><time>2026-04-07T05:44:16Z</time></trkpt><trkpt lat="43.58739667760741" lon="10.320431404866941"><ele>1.3333333333333333</ele><time>2026-04-07T05:44:17Z</time></trkpt><trkpt lat="43.58746149173842" lon="10.320661784255497"><ele>1.6666666666666665</ele><time>2026-04-07T05:44:18Z</time></trkpt><trkpt lat="43.58752292407861" lon="10.320884407207043"><ele>2.0</ele><time>2026-04-07T05:44:19Z</time></trkpt><trkpt lat="43.58758180641317" lon="10.321099806107364"><ele>2.0</ele><time>2026-04-07T05:44:20Z</time></trkpt><trkpt lat="43.587640059987585" lon="10.32131708266296"><ele>2.0</ele><time>2026-04-07T05:44:21Z</time></trkpt><trkpt lat="43.58769855266902" lon="10.321535975780932"><ele>2.0</ele><time>2026-04-07T05:44:22Z</time></trkpt><trkpt lat="43.5877607432323" lon="10.32176413224236"><ele>1.3333333333333333</ele><time>2026-04-07T05:44:23Z</time></trkpt><trkpt lat="43.58782551415447" lon="10.322003664874838"><ele>0.6666666666666666</ele><time>2026-04-07T05:44:23.999Z</time></trkpt><trkpt lat="43.587895423662474" lon="10.322249489021976"><ele>0.0</ele><time>2026-04-07T05:44:24.999Z</time></trkpt><trkpt lat="43.58796842213236" lon="10.322502775405543"><ele>0.0</ele><time>2026-04-07T05:44:25.999Z</time></trkpt><trkpt lat="43.58804490981106" lon="10.322757150938783"><ele>0.0</ele><time>2026-04-07T05:44:26.999Z</time></trkpt><trkpt lat="43.58812081611155" lon="10.323019720293978"><ele>0.0</ele><time>2026-04-07T05:44:27.999Z</time></trkpt><trkpt lat="43.58819714364888" lon="10.323287943722345"><ele>0.0</ele><time>2026-04-07T05:44:29Z</time></trkpt><trkpt lat="43.58827507984414" lon="10.323558808861236"><ele>0.0</ele><time>2026-04-07T05:44:30Z</time></trkpt><trkpt lat="43.58835479221089" lon="10.323830030514586"><ele>0.0</ele><time>2026-04-07T05:44:31Z</time></trkpt><trkpt lat="43.58843579623858" lon="10.324104476259896"><ele>0.3333333333333333</ele><time>2026-04-07T05:44:32Z</time></trkpt><trkpt lat="43.58851615446521" lon="10.324373527649989"><ele>0.6666666666666666</ele><time>2026-04-07T05:44:33Z</time></trkpt><trkpt lat="43.588598221007516" lon="10.324647692698361"><ele>1.0</ele><time>2026-04-07T05:44:34Z</time></trkpt><trkpt lat="43.588677035425015" lon="10.32491672812557"><ele>0.6666666666666666</ele><time>2026-04-07T05:44:35Z</time></trkpt><trkpt lat="43.58875794289517" lon="10.32518730559015"><ele>0.3333333333333333</ele><time>2026-04-07T05:44:36Z</time></trkpt><trkpt lat="43.58883601787578" lon="10.325448656892037"><ele>0.0</ele><time>2026-04-07T05:44:37Z</time></trkpt><trkpt lat="43.58891335969019" lon="10.32570420680674"><ele>0.0</ele><time>2026-04-07T05:44:38Z</time></trkpt><trkpt lat="43.588986503756715" lon="10.32594761602049"><ele>0.0</ele><time>2026-04-07T05:44:39Z</time></trkpt><trkpt lat="43.58906752831293" lon="10.326199710818154"><ele>0.0</ele><time>2026-04-07T05:44:40Z</time></trkpt><trkpt lat="43.58914284847438" lon="10.326442816930042"><ele>-1.0</ele><time>2026-04-07T05:44:41Z</time></trkpt><trkpt lat="43.58921563045038" lon="10.326687878883744"><ele>-2.0</ele><time>2026-04-07T05:44:42Z</time></trkpt><trkpt lat="43.58928538346132" lon="10.32692998361713"><ele>-3.0</ele><time>2026-04-07T05:44:43Z</time></trkpt><trkpt lat="43.58935376193891" lon="10.327170881729206"><ele>-2.3333333333333335</ele><time>2026-04-07T05:44:44Z</time></trkpt><trkpt lat="43.58943009310602" lon="10.327420891549243"><ele>-1.6666666666666665</ele><time>2026-04-07T05:44:45Z</time></trkpt><trkpt lat="43.58950203240855" lon="10.327663096011973"><ele>-1.0</ele><time>2026-04-07T05:44:46Z</time></trkpt><trkpt lat="43.58958128497188" lon="10.327918476826946"><ele>-1.6666666666666665</ele><time>2026-04-07T05:44:47Z</time></trkpt><trkpt lat="43.58965724407085" lon="10.328170514781451"><ele>-2.3333333333333335</ele><time>2026-04-07T05:44:48Z</time></trkpt><trkpt lat="43.58973284090762" lon="10.3284280426276"><ele>-3.0</ele><time>2026-04-07T05:44:49Z</time></trkpt><trkpt lat="43.58980924836762" lon="10.328690276631086"><ele>-0.6666666666666667</ele><time>2026-04-07T05:44:50Z</time></trkpt><trkpt lat="43.58988240785145" lon="10.328948772207177"><ele>1.6666666666666665</ele><time>2026-04-07T05:44:51Z</time></trkpt><trkpt lat="43.58995734536375" lon="10.329207268091215"><ele>4.0</ele><time>2026-04-07T05:44:52Z</time></trkpt><trkpt lat="43.59003977233911" lon="10.329478868832238"><ele>2.0</ele><time>2026-04-07T05:44:53Z</time></trkpt><trkpt lat="43.590118469747615" lon="10.329738475924472"><ele>0.0</ele><time>2026-04-07T05:44:54Z</time></trkpt><trkpt lat="43.59019938824965" lon="10.330006835224223"><ele>-2.0</ele><time>2026-04-07T05:44:55Z</time></trkpt><trkpt lat="43.590279162085345" lon="10.330271677984863"><ele>-2.0</ele><time>2026-04-07T05:44:56Z</time></trkpt><trkpt lat="43.59035842604813" lon="10.330540196906956"><ele>-2.0</ele><time>2026-04-07T05:44:57Z</time></trkpt><trkpt lat="43.590440246644455" lon="10.330811724140379"><ele>-2.0</ele><time>2026-04-07T05:44:58Z</time></trkpt><trkpt lat="43.59052305671833" lon="10.331084381725278"><ele>-1.6666666666666665</ele><time>2026-04-07T05:44:59Z</time></trkpt><trkpt lat="43.59060336204442" lon="10.331354734133901"><ele>-1.3333333333333333</ele><time>2026-04-07T05:45:00Z</time></trkpt><trkpt lat="43.590684959810524" lon="10.331627366134981"><ele>-1.0</ele><time>2026-04-07T05:45:01Z</time></trkpt><trkpt lat="43.59076288920175" lon="10.331895830469914"><ele>-1.6666666666666665</ele><time>2026-04-07T05:45:02Z</time></trkpt><trkpt lat="43.59084376135827" lon="10.332169011251533"><ele>-2.3333333333333335</ele><time>2026-04-07T05:45:03Z</time></trkpt><trkpt lat="43.590925102080114" lon="10.332445882986162"><ele>-3.0</ele><time>2026-04-07T05:45:04Z</time></trkpt><trkpt lat="43.59100579079665" lon="10.332715962467537"><ele>-3.0</ele><time>2026-04-07T05:45:05Z</time></trkpt><trkpt lat="43.591089356179474" lon="10.33299646463532"><ele>-3.0</ele><time>2026-04-07T05:45:06Z</time></trkpt><trkpt lat="43.59117288666846" lon="10.333274836803351"><ele>-3.0</ele><time>2026-04-07T05:45:07Z</time></trkpt><trkpt lat="43.591251979731595" lon="10.333539566505223"><ele>-3.0</ele><time>2026-04-07T05:45:08Z</time></trkpt><trkpt lat="43.59133414010797" lon="10.333807856342004"><ele>-3.0</ele><time>2026-04-07T05:45:09Z</time></trkpt><trkpt lat="43.59141871377001" lon="10.334086920209343"><ele>-3.0</ele><time>2026-04-07T05:45:10Z</time></trkpt><trkpt lat="43.59150002142799" lon="10.33435975930789"><ele>-3.0</ele><time>2026-04-07T05:45:11Z</time></trkpt><trkpt lat="43.591580868884044" lon="10.334634568741693"><ele>-3.0</ele><time>2026-04-07T05:45:12Z</time></trkpt><trkpt lat="43.591659042775525" lon="10.334901267492889"><ele>-3.0</ele><time>2026-04-07T05:45:13Z</time></trkpt><trkpt lat="43.59173820763722" lon="10.335172115073565"><ele>-3.0</ele><time>2026-04-07T05:45:14Z</time></trkpt><trkpt lat="43.59181704810388" lon="10.335442486269095"><ele>-3.0</ele><time>2026-04-07T05:45:15Z</time></trkpt><trkpt lat="43.59189656782083" lon="10.33571061188935"><ele>-3.0</ele><time>2026-04-07T05:45:16Z</time></trkpt><trkpt lat="43.59197384941076" lon="10.335970627758954"><ele>-2.3333333333333335</ele><time>2026-04-07T05:45:17Z</time></trkpt><trkpt lat="43.592055423694084" lon="10.336240620987832"><ele>-1.6666666666666665</ele><time>2026-04-07T05:45:18Z</time></trkpt><trkpt lat="43.592134335913876" lon="10.336505082921887"><ele>-1.0</ele><time>2026-04-07T05:45:19Z</time></trkpt><trkpt lat="43.592213422211124" lon="10.33676952748742"><ele>-0.6666666666666666</ele><time>2026-04-07T05:45:20Z</time></trkpt><trkpt lat="43.59229248520381" lon="10.337034081334503"><ele>-0.3333333333333333</ele><time>2026-04-07T05:45:21Z</time></trkpt><trkpt lat="43.592371480203006" lon="10.337296734535895"><ele>0.0</ele><time>2026-04-07T05:45:22Z</time></trkpt><trkpt lat="43.59244832934033" lon="10.337555267307126"><ele>0.0</ele><time>2026-04-07T05:45:23Z</time></trkpt><trkpt lat="43.59252337691099" lon="10.33782073578072"><ele>0.0</ele><time>2026-04-07T05:45:24Z</time></trkpt><trkpt lat="43.59259563048756" lon="10.338082573032683"><ele>0.0</ele><time>2026-04-07T05:45:25Z</time></trkpt><trkpt lat="43.59266537769016" lon="10.338350495187962"><ele>0.3333333333333333</ele><time>2026-04-07T05:45:26Z</time></trkpt><trkpt lat="43.59273806236975" lon="10.33861649915453"><ele>0.6666666666666666</ele><time>2026-04-07T05:45:27Z</time></trkpt><trkpt lat="43.592809075338984" lon="10.33887436641168"><ele>1.0</ele><time>2026-04-07T05:45:28Z</time></trkpt><trkpt lat="43.59288810052113" lon="10.3391346959502"><ele>2.0</ele><time>2026-04-07T05:45:29Z</time></trkpt><trkpt lat="43.5929652944226" lon="10.339391374859451"><ele>3.0</ele><time>2026-04-07T05:45:30Z</time></trkpt><trkpt lat="43.59304494715112" lon="10.339652062354146"><ele>4.0</ele><time>2026-04-07T05:45:31Z</time></trkpt><trkpt lat="43.59312157095497" lon="10.339908572028657"><ele>4.0</ele><time>2026-04-07T05:45:32Z</time></trkpt><trkpt lat="43.59319854417993" lon="10.340165465150601"><ele>4.0</ele><time>2026-04-07T05:45:33Z</time></trkpt><trkpt lat="43.59327391193127" lon="10.340421517184438"><ele>4.0</ele><time>2026-04-07T05:45:34Z</time></trkpt><trkpt lat="43.593349587916116" lon="10.340675398790916"><ele>4.333333333333333</ele><time>2026-04-07T05:45:35Z</time></trkpt><trkpt lat="43.59342441399222" lon="10.340925880721944"><ele>4.666666666666667</ele><time>2026-04-07T05:45:36Z</time></trkpt><trkpt lat="43.59350325199605" lon="10.341179781402484"><ele>5.0</ele><time>2026-04-07T05:45:37Z</time></trkpt><trkpt lat="43.593575238854804" lon="10.341424985943725"><ele>5.0</ele><time>2026-04-07T05:45:38Z</time></trkpt><trkpt lat="43.59364418346814" lon="10.341662045064737"><ele>5.0</ele><time>2026-04-07T05:45:39Z</time></trkpt><trkpt lat="43.59371546833581" lon="10.34190136941483"><ele>5.0</ele><time>2026-04-07T05:45:40Z</time></trkpt><trkpt lat="43.59378351214389" lon="10.34213023370654"><ele>4.333333333333334</ele><time>2026-04-07T05:45:41Z</time></trkpt><trkpt lat="43.59384412545146" lon="10.342333766289205"><ele>3.666666666666667</ele><time>2026-04-07T05:45:42Z</time></trkpt><trkpt lat="43.59390773127493" lon="10.342533924577488"><ele>3.0</ele><time>2026-04-07T05:45:43Z</time></trkpt><trkpt lat="43.59396734440068" lon="10.342738860388355"><ele>3.0</ele><time>2026-04-07T05:45:44Z</time></trkpt><trkpt lat="43.59402762185818" lon="10.342951001826572"><ele>3.0</ele><time>2026-04-07T05:45:45Z</time></trkpt><trkpt lat="43.594100235499376" lon="10.343194841585937"><ele>3.0</ele><time>2026-04-07T05:45:46Z</time></trkpt><trkpt lat="43.59417010696021" lon="10.343423785564735"><ele>2.6666666666666665</ele><time>2026-04-07T05:45:47Z</time></trkpt><trkpt lat="43.59422924768125" lon="10.343640463647597"><ele>2.333333333333333</ele><time>2026-04-07T05:45:48Z</time></trkpt><trkpt lat="43.59430008023869" lon="10.34387434109896"><ele>2.0</ele><time>2026-04-07T05:45:49Z</time></trkpt><trkpt lat="43.594370817483686" lon="10.344108560683267"><ele>2.0</ele><time>2026-04-07T05:45:50Z</time></trkpt><trkpt lat="43.59444338665646" lon="10.344344667994104"><ele>2.0</ele><time>2026-04-07T05:45:51Z</time></trkpt><trkpt lat="43.59451418218023" lon="10.34457967059571"><ele>2.0</ele><time>2026-04-07T05:45:52Z</time></trkpt><trkpt lat="43.594586154508754" lon="10.344820325607467"><ele>2.333333333333333</ele><time>2026-04-07T05:45:53Z</time></trkpt><trkpt lat="43.59466004214221" lon="10.345066889325025"><ele>2.6666666666666665</ele><time>2026-04-07T05:45:54Z</time></trkpt><trkpt lat="43.594729263946554" lon="10.345306232623427"><ele>3.0</ele><time>2026-04-07T05:45:55Z</time></trkpt><trkpt lat="43.5948059982807" lon="10.345559447022183"><ele>3.0</ele><time>2026-04-07T05:45:56Z</time></trkpt><trkpt lat="43.594873844555465" lon="10.345794231753116"><ele>3.0</ele><time>2026-04-07T05:45:57Z</time></trkpt><trkpt lat="43.594944609993945" lon="10.346036243387514"><ele>3.0</ele><time>2026-04-07T05:45:58Z</time></trkpt><trkpt lat="43.59501858179057" lon="10.34628283086071"><ele>2.0</ele><time>2026-04-07T05:45:59Z</time></trkpt><trkpt lat="43.595090082768145" lon="10.346524185194177"><ele>1.0</ele><time>2026-04-07T05:46:00Z</time></trkpt><trkpt lat="43.5951655130237" lon="10.346771167074431"><ele>0.0</ele><time>2026-04-07T05:46:01Z</time></trkpt><trkpt lat="43.595238396838916" lon="10.34701761228111"><ele>0.0</ele><time>2026-04-07T05:46:02Z</time></trkpt><trkpt lat="43.59531350000708" lon="10.347265516363262"><ele>0.0</ele><time>2026-04-07T05:46:03Z</time></trkpt><trkpt lat="43.59538046425721" lon="10.347503110904903"><ele>0.0</ele><time>2026-04-07T05:46:04Z</time></trkpt><trkpt lat="43.595453794939985" lon="10.347751919295646"><ele>0.3333333333333333</ele><time>2026-04-07T05:46:05Z</time></trkpt><trkpt lat="43.59552527477162" lon="10.347995364794707"><ele>0.6666666666666666</ele><time>2026-04-07T05:46:06Z</time></trkpt><trkpt lat="43.59559815384466" lon="10.348240554583963"><ele>1.0</ele><time>2026-04-07T05:46:07Z</time></trkpt><trkpt lat="43.59566964909688" lon="10.348484132509595"><ele>1.0</ele><time>2026-04-07T05:46:08Z</time></trkpt><trkpt lat="43.59574493401938" lon="10.348732939653368"><ele>1.0</ele><time>2026-04-07T05:46:09Z</time></trkpt><trkpt lat="43.59582033772569" lon="10.348983331136376"><ele>1.0</ele><time>2026-04-07T05:46:10Z</time></trkpt><trkpt lat="43.59589018326469" lon="10.349231622347313"><ele>1.0</ele><time>2026-04-07T05:46:11Z</time></trkpt><trkpt lat="43.5959591853198" lon="10.349485767321797"><ele>1.0</ele><time>2026-04-07T05:46:12Z</time></trkpt><trkpt lat="43.59602356821577" lon="10.349738587951206"><ele>1.0</ele><time>2026-04-07T05:46:13Z</time></trkpt><trkpt lat="43.596086630991536" lon="10.34999741497602"><ele>2.0</ele><time>2026-04-07T05:46:14Z</time></trkpt><trkpt lat="43.596143959256345" lon="10.350262313025354"><ele>3.0</ele><time>2026-04-07T05:46:15Z</time></trkpt><trkpt lat="43.596203141858545" lon="10.350530644983317"><ele>4.0</ele><time>2026-04-07T05:46:16Z</time></trkpt><trkpt lat="43.59624896202311" lon="10.350784121889566"><ele>4.0</ele><time>2026-04-07T05:46:17Z</time></trkpt><trkpt lat="43.596291876578114" lon="10.351037908914709"><ele>4.0</ele><time>2026-04-07T05:46:18Z</time></trkpt><trkpt lat="43.59632679288522" lon="10.351269278863201"><ele>4.0</ele><time>2026-04-07T05:46:19Z</time></trkpt><trkpt lat="43.596364241045606" lon="10.351490305216904"><ele>4.0</ele><time>2026-04-07T05:46:19.999Z</time></trkpt><trkpt lat="43.59639649556777" lon="10.351714891917966"><ele>4.0</ele><time>2026-04-07T05:46:20.999Z</time></trkpt><trkpt lat="43.596427771663386" lon="10.351942314095687"><ele>4.0</ele><time>2026-04-07T05:46:21.999Z</time></trkpt><trkpt lat="43.59646057931931" lon="10.35217890637585"><ele>3.0</ele><time>2026-04-07T05:46:22.999Z</time></trkpt><trkpt lat="43.596493514459766" lon="10.352410435942772"><ele>2.0</ele><time>2026-04-07T05:46:23.999Z</time></trkpt><trkpt lat="43.596529080631726" lon="10.352642214550887"><ele>1.0</ele><time>2026-04-07T05:46:24.999Z</time></trkpt><trkpt lat="43.596565174491275" lon="10.352870219366622"><ele>0.6666666666666666</ele><time>2026-04-07T05:46:25.999Z</time></trkpt><trkpt lat="43.596610108140034" lon="10.353103220582708"><ele>0.3333333333333333</ele><time>2026-04-07T05:46:26.999Z</time></trkpt><trkpt lat="43.59666388843184" lon="10.353340629563482"><ele>0.0</ele><time>2026-04-07T05:46:27.999Z</time></trkpt><trkpt lat="43.5967186437184" lon="10.353581268432766"><ele>0.0</ele><time>2026-04-07T05:46:28.999Z</time></trkpt><trkpt lat="43.5967702607765" lon="10.353831172796408"><ele>0.0</ele><time>2026-04-07T05:46:29.999Z</time></trkpt><trkpt lat="43.59682033217277" lon="10.354093191091152"><ele>0.0</ele><time>2026-04-07T05:46:30.999Z</time></trkpt><trkpt lat="43.59686856433206" lon="10.354356435223036"><ele>0.3333333333333333</ele><time>2026-04-07T05:46:31.999Z</time></trkpt><trkpt lat="43.59691640078823" lon="10.354622063912448"><ele>0.6666666666666666</ele><time>2026-04-07T05:46:32.999Z</time></trkpt><trkpt lat="43.596964861427416" lon="10.354895300359606"><ele>1.0</ele><time>2026-04-07T05:46:33.999Z</time></trkpt><trkpt lat="43.59701062614455" lon="10.355166466869894"><ele>0.6666666666666666</ele><time>2026-04-07T05:46:35Z</time></trkpt><trkpt lat="43.597056371061186" lon="10.355432999286311"><ele>0.3333333333333333</ele><time>2026-04-07T05:46:36Z</time></trkpt><trkpt lat="43.59710331689811" lon="10.355699077626616"><ele>0.0</ele><time>2026-04-07T05:46:37Z</time></trkpt><trkpt lat="43.59714894018467" lon="10.355963045874184"><ele>0.0</ele><time>2026-04-07T05:46:38Z</time></trkpt><trkpt lat="43.59719194814392" lon="10.356223285363512"><ele>0.0</ele><time>2026-04-07T05:46:39Z</time></trkpt><trkpt lat="43.59723687644343" lon="10.356494288229854"><ele>0.0</ele><time>2026-04-07T05:46:40Z</time></trkpt><trkpt lat="43.59728009499453" lon="10.35675748053873"><ele>1.0</ele><time>2026-04-07T05:46:41Z</time></trkpt><trkpt lat="43.59732443328433" lon="10.357028139508497"><ele>2.0</ele><time>2026-04-07T05:46:42Z</time></trkpt><trkpt lat="43.597370238312756" lon="10.357300040816042"><ele>3.0</ele><time>2026-04-07T05:46:43Z</time></trkpt><trkpt lat="43.59741528741762" lon="10.357569856803051"><ele>3.0</ele><time>2026-04-07T05:46:44Z</time></trkpt><trkpt lat="43.59745787758191" lon="10.357844631156171"><ele>3.0</ele><time>2026-04-07T05:46:45Z</time></trkpt><trkpt lat="43.597493750359924" lon="10.3581371945099"><ele>3.0</ele><time>2026-04-07T05:46:46Z</time></trkpt><trkpt lat="43.59753530847347" lon="10.358405396447495"><ele>2.3333333333333335</ele><time>2026-04-07T05:46:47Z</time></trkpt><trkpt lat="43.597578142107714" lon="10.358682680260445"><ele>1.6666666666666665</ele><time>2026-04-07T05:46:48Z</time></trkpt><trkpt lat="43.59762196332469" lon="10.358951020081792"><ele>1.0</ele><time>2026-04-07T05:46:49Z</time></trkpt><trkpt lat="43.597670808132094" lon="10.359226297124737"><ele>0.6666666666666666</ele><time>2026-04-07T05:46:50Z</time></trkpt><trkpt lat="43.597715533362965" lon="10.359491226722254"><ele>0.3333333333333333</ele><time>2026-04-07T05:46:51Z</time></trkpt><trkpt lat="43.59775777604797" lon="10.359751324913969"><ele>0.0</ele><time>2026-04-07T05:46:52Z</time></trkpt><trkpt lat="43.597800982327264" lon="10.360007628152786"><ele>0.0</ele><time>2026-04-07T05:46:53Z</time></trkpt><trkpt lat="43.59784836594056" lon="10.36027896635934"><ele>0.0</ele><time>2026-04-07T05:46:54Z</time></trkpt><trkpt lat="43.597894277716854" lon="10.360537277305477"><ele>0.0</ele><time>2026-04-07T05:46:55Z</time></trkpt><trkpt lat="43.59794724508013" lon="10.360798668931542"><ele>0.0</ele><time>2026-04-07T05:46:56Z</time></trkpt><trkpt lat="43.59799756002249" lon="10.361056254982376"><ele>0.0</ele><time>2026-04-07T05:46:57Z</time></trkpt><trkpt lat="43.59804201463013" lon="10.361320565848192"><ele>0.0</ele><time>2026-04-07T05:46:58Z</time></trkpt><trkpt lat="43.598086949202525" lon="10.361583279483476"><ele>0.6666666666666666</ele><time>2026-04-07T05:46:59Z</time></trkpt><trkpt lat="43.59813088567667" lon="10.3618482218213"><ele>1.3333333333333333</ele><time>2026-04-07T05:47:00Z</time></trkpt><trkpt lat="43.59817600910709" lon="10.36211550326663"><ele>2.0</ele><time>2026-04-07T05:47:01Z</time></trkpt><trkpt lat="43.59822268946818" lon="10.36237796029995"><ele>2.0</ele><time>2026-04-07T05:47:02Z</time></trkpt><trkpt lat="43.59827233469471" lon="10.362649222422153"><ele>2.0</ele><time>2026-04-07T05:47:03Z</time></trkpt><trkpt lat="43.59831998956883" lon="10.362919804470312"><ele>2.0</ele><time>2026-04-07T05:47:04Z</time></trkpt><trkpt lat="43.59836683922447" lon="10.363190763957503"><ele>1.6666666666666665</ele><time>2026-04-07T05:47:05Z</time></trkpt><trkpt lat="43.59841245804404" lon="10.363462564580468"><ele>1.3333333333333333</ele><time>2026-04-07T05:47:06Z</time></trkpt><trkpt lat="43.598458523197515" lon="10.363736485550573"><ele>1.0</ele><time>2026-04-07T05:47:07Z</time></trkpt><trkpt lat="43.598503957917494" lon="10.364011132140044"><ele>1.0</ele><time>2026-04-07T05:47:08Z</time></trkpt><trkpt lat="43.59855025410235" lon="10.364285341112865"><ele>1.0</ele><time>2026-04-07T05:47:09Z</time></trkpt><trkpt lat="43.59859383535869" lon="10.364549926743518"><ele>1.0</ele><time>2026-04-07T05:47:10Z</time></trkpt><trkpt lat="43.59863928684156" lon="10.364815391398784"><ele>1.0</ele><time>2026-04-07T05:47:11Z</time></trkpt><trkpt lat="43.59868239889611" lon="10.36507710970008"><ele>1.0</ele><time>2026-04-07T05:47:12Z</time></trkpt><trkpt lat="43.598728139718645" lon="10.365349680137255"><ele>1.0</ele><time>2026-04-07T05:47:13Z</time></trkpt><trkpt lat="43.5987778416243" lon="10.365629621055882"><ele>1.0</ele><time>2026-04-07T05:47:14Z</time></trkpt><trkpt lat="43.59883244829981" lon="10.365918162805558"><ele>1.0</ele><time>2026-04-07T05:47:15Z</time></trkpt><trkpt lat="43.59889376641522" lon="10.366214556243602"><ele>1.0</ele><time>2026-04-07T05:47:16Z</time></trkpt><trkpt lat="43.598962823684836" lon="10.366521954211139"><ele>2.5</ele><time>2026-04-07T05:47:17Z</time></trkpt><trkpt lat="43.59903798091839" lon="10.366836047630647"><ele>4.0</ele><time>2026-04-07T05:47:18Z</time></trkpt><trkpt lat="43.59911834824015" lon="10.367145802433754"><ele>2.0</ele><time>2026-04-07T05:47:19Z</time></trkpt><trkpt lat="43.59920380599318" lon="10.367451899694732"><ele>0.0</ele><time>2026-04-07T05:47:20Z</time></trkpt><trkpt lat="43.59929174065231" lon="10.36774474920853"><ele>0.3333333333333333</ele><time>2026-04-07T05:47:21Z</time></trkpt><trkpt lat="43.59938470327586" lon="10.368029442034016"><ele>0.6666666666666666</ele><time>2026-04-07T05:47:22Z</time></trkpt><trkpt lat="43.59948159815474" lon="10.368304759147927"><ele>1.0</ele><time>2026-04-07T05:47:23Z</time></trkpt><trkpt lat="43.59958415458507" lon="10.368576934674397"><ele>1.0</ele><time>2026-04-07T05:47:24Z</time></trkpt><trkpt lat="43.599690481726434" lon="10.368841320333985"><ele>1.0</ele><time>2026-04-07T05:47:25Z</time></trkpt><trkpt lat="43.59980093119089" lon="10.369099748804329"><ele>1.0</ele><time>2026-04-07T05:47:26Z</time></trkpt><trkpt lat="43.599912369012486" lon="10.369356481892652"><ele>1.0</ele><time>2026-04-07T05:47:27Z</time></trkpt><trkpt lat="43.60002633575261" lon="10.36961584243056"><ele>1.0</ele><time>2026-04-07T05:47:28Z</time></trkpt><trkpt lat="43.6001411657716" lon="10.36986661038934"><ele>1.0</ele><time>2026-04-07T05:47:29Z</time></trkpt><trkpt lat="43.60026432070353" lon="10.370117016270372"><ele>-0.6666666666666666</ele><time>2026-04-07T05:47:30Z</time></trkpt><trkpt lat="43.60039159830043" lon="10.370370339813471"><ele>-2.333333333333333</ele><time>2026-04-07T05:47:31Z</time></trkpt><trkpt lat="43.60051451828378" lon="10.370621975371476"><ele>-4.0</ele><time>2026-04-07T05:47:32Z</time></trkpt><trkpt lat="43.60063932417661" lon="10.370879216558802"><ele>-4.666666666666666</ele><time>2026-04-07T05:47:33Z</time></trkpt><trkpt lat="43.600754387147894" lon="10.371115857486723"><ele>-5.333333333333333</ele><time>2026-04-07T05:47:34Z</time></trkpt><trkpt lat="43.600863700190615" lon="10.371341549202317"><ele>-6.0</ele><time>2026-04-07T05:47:35Z</time></trkpt><trkpt lat="43.600971993262185" lon="10.371562565450283"><ele>-4.666666666666667</ele><time>2026-04-07T05:47:36Z</time></trkpt><trkpt lat="43.60107804111903" lon="10.37177952719656"><ele>-3.333333333333333</ele><time>2026-04-07T05:47:37Z</time></trkpt><trkpt lat="43.601185848647376" lon="10.371999666186387"><ele>-2.0</ele><time>2026-04-07T05:47:38Z</time></trkpt><trkpt lat="43.60129299906156" lon="10.372220831589411"><ele>-1.0</ele><time>2026-04-07T05:47:39Z</time></trkpt><trkpt lat="43.60140070774355" lon="10.372444166705844"><ele>0.0</ele><time>2026-04-07T05:47:40Z</time></trkpt><trkpt lat="43.60151097603276" lon="10.372670300303708"><ele>1.0</ele><time>2026-04-07T05:47:41Z</time></trkpt><trkpt lat="43.6016189748282" lon="10.372892926022358"><ele>2.3333333333333335</ele><time>2026-04-07T05:47:42Z</time></trkpt><trkpt lat="43.601726190297605" lon="10.373114480318089"><ele>3.666666666666667</ele><time>2026-04-07T05:47:43Z</time></trkpt><trkpt lat="43.60183522789308" lon="10.373339689132203"><ele>5.0</ele><time>2026-04-07T05:47:44Z</time></trkpt><trkpt lat="43.6019445781931" lon="10.373564340385464"><ele>3.666666666666667</ele><time>2026-04-07T05:47:45Z</time></trkpt><trkpt lat="43.602054102794824" lon="10.373791861140528"><ele>2.3333333333333335</ele><time>2026-04-07T05:47:46Z</time></trkpt><trkpt lat="43.60216749137671" lon="10.374024546459358"><ele>1.0</ele><time>2026-04-07T05:47:47Z</time></trkpt><trkpt lat="43.60228035018035" lon="10.374259576125047"><ele>0.3333333333333333</ele><time>2026-04-07T05:47:48Z</time></trkpt><trkpt lat="43.60239424402949" lon="10.37449593116717"><ele>-0.3333333333333333</ele><time>2026-04-07T05:47:49Z</time></trkpt><trkpt lat="43.60251271914642" lon="10.37473704367656"><ele>-1.0</ele><time>2026-04-07T05:47:50Z</time></trkpt><trkpt lat="43.60262959155221" lon="10.37497771942866"><ele>-1.0</ele><time>2026-04-07T05:47:51Z</time></trkpt><trkpt lat="43.60274554110406" lon="10.375216069310056"><ele>-1.0</ele><time>2026-04-07T05:47:52Z</time></trkpt><trkpt lat="43.60286370900044" lon="10.375455404487552"><ele>-1.0</ele><time>2026-04-07T05:47:53Z</time></trkpt><trkpt lat="43.60297765281315" lon="10.375696350820238"><ele>-0.6666666666666666</ele><time>2026-04-07T05:47:54Z</time></trkpt><trkpt lat="43.60308902827724" lon="10.37593567301541"><ele>-0.3333333333333333</ele><time>2026-04-07T05:47:55Z</time></trkpt><trkpt lat="43.603197591677365" lon="10.376183094801101"><ele>0.0</ele><time>2026-04-07T05:47:56Z</time></trkpt><trkpt lat="43.603300936864066" lon="10.376433039757627"><ele>0.0</ele><time>2026-04-07T05:47:57Z</time></trkpt><trkpt lat="43.60340180262691" lon="10.376687698868965"><ele>0.0</ele><time>2026-04-07T05:47:58Z</time></trkpt><trkpt lat="43.603496977036926" lon="10.376944528599049"><ele>0.0</ele><time>2026-04-07T05:47:59Z</time></trkpt><trkpt lat="43.60358853828543" lon="10.377205552369304"><ele>0.0</ele><time>2026-04-07T05:48:00Z</time></trkpt><trkpt lat="43.60367445228807" lon="10.37746748890553"><ele>0.0</ele><time>2026-04-07T05:48:01Z</time></trkpt><trkpt lat="43.603755210800635" lon="10.377729830007635"><ele>0.0</ele><time>2026-04-07T05:48:02Z</time></trkpt><trkpt lat="43.60383378851815" lon="10.377997492939492"><ele>-0.6666666666666666</ele><time>2026-04-07T05:48:03Z</time></trkpt><trkpt lat="43.603911302102254" lon="10.378273742482422"><ele>-1.3333333333333333</ele><time>2026-04-07T05:48:04Z</time></trkpt><trkpt lat="43.603985804806754" lon="10.378552188016107"><ele>-2.0</ele><time>2026-04-07T05:48:05Z</time></trkpt><trkpt lat="43.604053021085164" lon="10.378828313838925"><ele>-2.333333333333333</ele><time>2026-04-07T05:48:06Z</time></trkpt><trkpt lat="43.60411860815387" lon="10.379109090356105"><ele>-2.6666666666666665</ele><time>2026-04-07T05:48:07Z</time></trkpt><trkpt lat="43.604182193886665" lon="10.379391093927588"><ele>-3.0</ele><time>2026-04-07T05:48:08Z</time></trkpt><trkpt lat="43.604245257581425" lon="10.379672972829027"><ele>-2.6666666666666665</ele><time>2026-04-07T05:48:09Z</time></trkpt><trkpt lat="43.604304132405744" lon="10.379947630777409"><ele>-2.333333333333333</ele><time>2026-04-07T05:48:10Z</time></trkpt><trkpt lat="43.60436605342926" lon="10.380223974589972"><ele>-2.0</ele><time>2026-04-07T05:48:11Z</time></trkpt><trkpt lat="43.60442843756889" lon="10.380496029293331"><ele>-2.333333333333333</ele><time>2026-04-07T05:48:12Z</time></trkpt><trkpt lat="43.60448960768781" lon="10.380764536276391"><ele>-2.6666666666666665</ele><time>2026-04-07T05:48:13Z</time></trkpt><trkpt lat="43.604551157264325" lon="10.381040567947803"><ele>-3.0</ele><time>2026-04-07T05:48:14Z</time></trkpt><trkpt lat="43.60461015790201" lon="10.381313443027533"><ele>-2.3333333333333335</ele><time>2026-04-07T05:48:15Z</time></trkpt><trkpt lat="43.60467075870009" lon="10.381589585919487"><ele>-1.6666666666666665</ele><time>2026-04-07T05:48:16Z</time></trkpt><trkpt lat="43.60473316409934" lon="10.381867928429195"><ele>-1.0</ele><time>2026-04-07T05:48:17Z</time></trkpt><trkpt lat="43.604794245855324" lon="10.382143420718759"><ele>-1.0</ele><time>2026-04-07T05:48:18Z</time></trkpt><trkpt lat="43.60485662632414" lon="10.382420158139638"><ele>-1.0</ele><time>2026-04-07T05:48:19Z</time></trkpt><trkpt lat="43.60492076634122" lon="10.382698134859904"><ele>-1.0</ele><time>2026-04-07T05:48:20Z</time></trkpt><trkpt lat="43.604986186724844" lon="10.382982893796976"><ele>-0.6666666666666666</ele><time>2026-04-07T05:48:21Z</time></trkpt><trkpt lat="43.6050497739675" lon="10.383262882065695"><ele>-0.3333333333333333</ele><time>2026-04-07T05:48:22Z</time></trkpt><trkpt lat="43.6051138135516" lon="10.383547473249092"><ele>0.0</ele><time>2026-04-07T05:48:23Z</time></trkpt><trkpt lat="43.60517716797942" lon="10.383832246083184"><ele>0.0</ele><time>2026-04-07T05:48:24Z</time></trkpt><trkpt lat="43.60523944536675" lon="10.384115796371981"><ele>0.0</ele><time>2026-04-07T05:48:25Z</time></trkpt><trkpt lat="43.605306512529495" lon="10.384406216233325"><ele>0.0</ele><time>2026-04-07T05:48:26Z</time></trkpt><trkpt lat="43.60537024155672" lon="10.384689257981925"><ele>0.0</ele><time>2026-04-07T05:48:27Z</time></trkpt><trkpt lat="43.60543296706187" lon="10.384972000843115"><ele>0.0</ele><time>2026-04-07T05:48:28Z</time></trkpt><trkpt lat="43.605496667328126" lon="10.385256932099793"><ele>0.0</ele><time>2026-04-07T05:48:29Z</time></trkpt><trkpt lat="43.60556136615883" lon="10.385543463110276"><ele>-0.6666666666666666</ele><time>2026-04-07T05:48:30Z</time></trkpt><trkpt lat="43.60562516379709" lon="10.385831067039295"><ele>-1.3333333333333333</ele><time>2026-04-07T05:48:31Z</time></trkpt><trkpt lat="43.605692370077556" lon="10.386126859143381"><ele>-2.0</ele><time>2026-04-07T05:48:32Z</time></trkpt><trkpt lat="43.60575684400451" lon="10.386416751057354"><ele>-2.0</ele><time>2026-04-07T05:48:33Z</time></trkpt><trkpt lat="43.60582062764385" lon="10.386704727087661"><ele>-2.0</ele><time>2026-04-07T05:48:34Z</time></trkpt><trkpt lat="43.605883461615264" lon="10.386996973359715"><ele>-2.0</ele><time>2026-04-07T05:48:35Z</time></trkpt><trkpt lat="43.60594628506337" lon="10.387289217872793"><ele>-1.6666666666666665</ele><time>2026-04-07T05:48:36Z</time></trkpt><trkpt lat="43.606009982738506" lon="10.38757822373269"><ele>-1.3333333333333333</ele><time>2026-04-07T05:48:37Z</time></trkpt><trkpt lat="43.606078479333526" lon="10.3878688066798"><ele>-1.0</ele><time>2026-04-07T05:48:37.999Z</time></trkpt><trkpt lat="43.606142191184624" lon="10.388151628637283"><ele>-1.0</ele><time>2026-04-07T05:48:38.999Z</time></trkpt><trkpt lat="43.606205248630296" lon="10.388431094858698"><ele>-1.0</ele><time>2026-04-07T05:48:39.999Z</time></trkpt><trkpt lat="43.606268907109744" lon="10.388713839945753"><ele>-1.0</ele><time>2026-04-07T05:48:41Z</time></trkpt><trkpt lat="43.60633162752453" lon="10.388994507549901"><ele>-1.0</ele><time>2026-04-07T05:48:42Z</time></trkpt><trkpt lat="43.60639351644686" lon="10.389274165771562"><ele>-1.0</ele><time>2026-04-07T05:48:43Z</time></trkpt><trkpt lat="43.60645595545676" lon="10.389552561457485"><ele>-1.0</ele><time>2026-04-07T05:48:44Z</time></trkpt><trkpt lat="43.606520535941826" lon="10.38983396845009"><ele>-1.0</ele><time>2026-04-07T05:48:45Z</time></trkpt><trkpt lat="43.60658321177599" lon="10.390112352491814"><ele>-1.0</ele><time>2026-04-07T05:48:46Z</time></trkpt><trkpt lat="43.6066472457069" lon="10.390393321629615"><ele>-1.0</ele><time>2026-04-07T05:48:47Z</time></trkpt><trkpt lat="43.60670821141731" lon="10.390672143533495"><ele>-1.0</ele><time>2026-04-07T05:48:48Z</time></trkpt><trkpt lat="43.606772678952765" lon="10.390956410659323"><ele>-1.0</ele><time>2026-04-07T05:48:49Z</time></trkpt><trkpt lat="43.606840864632204" lon="10.391244202611533"><ele>-1.0</ele><time>2026-04-07T05:48:50Z</time></trkpt><trkpt lat="43.60690380232097" lon="10.391527366519787"><ele>-1.0</ele><time>2026-04-07T05:48:51Z</time></trkpt><trkpt lat="43.60696738941949" lon="10.391814893082774"><ele>-1.0</ele><time>2026-04-07T05:48:52Z</time></trkpt><trkpt lat="43.607032191436666" lon="10.392105908159026"><ele>-1.0</ele><time>2026-04-07T05:48:53Z</time></trkpt><trkpt lat="43.6070959586789" lon="10.39239509881125"><ele>-1.0</ele><time>2026-04-07T05:48:54Z</time></trkpt><trkpt lat="43.607161612471124" lon="10.392690445643272"><ele>-1.0</ele><time>2026-04-07T05:48:55Z</time></trkpt><trkpt lat="43.6072282042699" lon="10.392987517826073"><ele>-1.0</ele><time>2026-04-07T05:48:56Z</time></trkpt><trkpt lat="43.607293140412054" lon="10.393284914914222"><ele>-1.0</ele><time>2026-04-07T05:48:57Z</time></trkpt><trkpt lat="43.60735934024078" lon="10.393585510155681"><ele>-1.0</ele><time>2026-04-07T05:48:58Z</time></trkpt><trkpt lat="43.60742402934464" lon="10.393888502889594"><ele>-1.0</ele><time>2026-04-07T05:48:59Z</time></trkpt><trkpt lat="43.60748646432398" lon="10.394188769467585"><ele>-1.0</ele><time>2026-04-07T05:49:00Z</time></trkpt><trkpt lat="43.607551724149104" lon="10.394490694720723"><ele>-1.5</ele><time>2026-04-07T05:49:01Z</time></trkpt><trkpt lat="43.60761803661247" lon="10.394792385092176"><ele>-2.0</ele><time>2026-04-07T05:49:02Z</time></trkpt><trkpt lat="43.60768718870607" lon="10.395097123368705"><ele>-2.0</ele><time>2026-04-07T05:49:03Z</time></trkpt><trkpt lat="43.60775312209433" lon="10.395393090572501"><ele>-2.0</ele><time>2026-04-07T05:49:04Z</time></trkpt><trkpt lat="43.60782016430286" lon="10.395692085096073"><ele>-1.5</ele><time>2026-04-07T05:49:05Z</time></trkpt><trkpt lat="43.60788597868048" lon="10.395991824840983"><ele>-1.0</ele><time>2026-04-07T05:49:06Z</time></trkpt><trkpt lat="43.607951906684775" lon="10.396290947537455"><ele>-1.0</ele><time>2026-04-07T05:49:07Z</time></trkpt><trkpt lat="43.60801382282319" lon="10.396587294721693"><ele>-1.0</ele><time>2026-04-07T05:49:08Z</time></trkpt><trkpt lat="43.608080149651485" lon="10.396883915063205"><ele>-1.0</ele><time>2026-04-07T05:49:09Z</time></trkpt><trkpt lat="43.608145694648094" lon="10.397175143519151"><ele>-1.0</ele><time>2026-04-07T05:49:10Z</time></trkpt><trkpt lat="43.608205902247825" lon="10.39745747662329"><ele>-1.0</ele><time>2026-04-07T05:49:11Z</time></trkpt><trkpt lat="43.60826755321602" lon="10.397739913450863"><ele>-1.0</ele><time>2026-04-07T05:49:12Z</time></trkpt><trkpt lat="43.608327786522835" lon="10.398019747641072"><ele>-1.0</ele><time>2026-04-07T05:49:13Z</time></trkpt><trkpt lat="43.60838930419557" lon="10.398300435799735"><ele>-1.0</ele><time>2026-04-07T05:49:14Z</time></trkpt><trkpt lat="43.60845035416525" lon="10.398579519632733"><ele>-1.0</ele><time>2026-04-07T05:49:15Z</time></trkpt><trkpt lat="43.60850910003817" lon="10.398854687978115"><ele>-0.6666666666666666</ele><time>2026-04-07T05:49:16Z</time></trkpt><trkpt lat="43.608572594813396" lon="10.399136604576475"><ele>-0.3333333333333333</ele><time>2026-04-07T05:49:17Z</time></trkpt><trkpt lat="43.60863224098829" lon="10.399414693551927"><ele>0.0</ele><time>2026-04-07T05:49:18Z</time></trkpt><trkpt lat="43.60869486846155" lon="10.399699127229987"><ele>0.0</ele><time>2026-04-07T05:49:19Z</time></trkpt><trkpt lat="43.60875950541699" lon="10.399988003690996"><ele>0.0</ele><time>2026-04-07T05:49:20Z</time></trkpt><trkpt lat="43.60881861482162" lon="10.400268882832128"><ele>0.0</ele><time>2026-04-07T05:49:21Z</time></trkpt><trkpt lat="43.608880080786406" lon="10.400555904140884"><ele>0.0</ele><time>2026-04-07T05:49:22Z</time></trkpt><trkpt lat="43.60894065417511" lon="10.400842590586855"><ele>0.0</ele><time>2026-04-07T05:49:23Z</time></trkpt><trkpt lat="43.608998370791795" lon="10.401124082497684"><ele>0.0</ele><time>2026-04-07T05:49:24Z</time></trkpt><trkpt lat="43.60905556824306" lon="10.401408053106216"><ele>-0.3333333333333333</ele><time>2026-04-07T05:49:25Z</time></trkpt><trkpt lat="43.60910627669799" lon="10.401682863836664"><ele>-0.6666666666666666</ele><time>2026-04-07T05:49:26Z</time></trkpt><trkpt lat="43.609153199084425" lon="10.401955042214169"><ele>-1.0</ele><time>2026-04-07T05:49:27Z</time></trkpt><trkpt lat="43.609204805617075" lon="10.402240509907548"><ele>-1.0</ele><time>2026-04-07T05:49:28Z</time></trkpt><trkpt lat="43.60925036869081" lon="10.402519769659992"><ele>-1.0</ele><time>2026-04-07T05:49:29Z</time></trkpt><trkpt lat="43.60929343785583" lon="10.40280298227288"><ele>-1.0</ele><time>2026-04-07T05:49:30Z</time></trkpt><trkpt lat="43.6093318340831" lon="10.40308773687601"><ele>-1.0</ele><time>2026-04-07T05:49:31Z</time></trkpt><trkpt lat="43.609365461606075" lon="10.403373373279088"><ele>-1.0</ele><time>2026-04-07T05:49:32Z</time></trkpt><trkpt lat="43.60939889631937" lon="10.40366216927086"><ele>-1.0</ele><time>2026-04-07T05:49:33Z</time></trkpt><trkpt lat="43.609427640021636" lon="10.403945374132586"><ele>-1.0</ele><time>2026-04-07T05:49:34Z</time></trkpt><trkpt lat="43.60945485987623" lon="10.404232939347171"><ele>-1.0</ele><time>2026-04-07T05:49:35Z</time></trkpt><trkpt lat="43.6094783101946" lon="10.40452105488165"><ele>-1.0</ele><time>2026-04-07T05:49:36Z</time></trkpt><trkpt lat="43.60949744717576" lon="10.404807636610172"><ele>-1.0</ele><time>2026-04-07T05:49:37Z</time></trkpt><trkpt lat="43.60951207862672" lon="10.405095033665194"><ele>-1.0</ele><time>2026-04-07T05:49:38Z</time></trkpt><trkpt lat="43.609524335645574" lon="10.405381382877652"><ele>-1.0</ele><time>2026-04-07T05:49:39Z</time></trkpt><trkpt lat="43.609535923816864" lon="10.405668916332155"><ele>-1.0</ele><time>2026-04-07T05:49:40Z</time></trkpt><trkpt lat="43.60954570527231" lon="10.405958063015438"><ele>-1.0</ele><time>2026-04-07T05:49:41Z</time></trkpt><trkpt lat="43.609555873608244" lon="10.406251193765188"><ele>-1.0</ele><time>2026-04-07T05:49:42Z</time></trkpt><trkpt lat="43.609563482461525" lon="10.40653628618452"><ele>-1.0</ele><time>2026-04-07T05:49:43Z</time></trkpt><trkpt lat="43.609574972067165" lon="10.406826956775502"><ele>-1.0</ele><time>2026-04-07T05:49:44Z</time></trkpt><trkpt lat="43.6095833646321" lon="10.407115353247042"><ele>-1.0</ele><time>2026-04-07T05:49:45Z</time></trkpt><trkpt lat="43.609591388915206" lon="10.407407480172642"><ele>-1.0</ele><time>2026-04-07T05:49:46Z</time></trkpt><trkpt lat="43.60959899330966" lon="10.407704554115133"><ele>-1.0</ele><time>2026-04-07T05:49:47Z</time></trkpt><trkpt lat="43.6096057112601" lon="10.408005764431609"><ele>-1.0</ele><time>2026-04-07T05:49:48Z</time></trkpt><trkpt lat="43.60961343860668" lon="10.408310322742446"><ele>-1.0</ele><time>2026-04-07T05:49:49Z</time></trkpt><trkpt lat="43.609620599837584" lon="10.408610946785965"><ele>-1.0</ele><time>2026-04-07T05:49:50Z</time></trkpt><trkpt lat="43.60962941888725" lon="10.408916802881782"><ele>-1.0</ele><time>2026-04-07T05:49:51Z</time></trkpt><trkpt lat="43.609636079301424" lon="10.409217492325999"><ele>-1.0</ele><time>2026-04-07T05:49:52Z</time></trkpt><trkpt lat="43.60964387047743" lon="10.409503002232269"><ele>-1.0</ele><time>2026-04-07T05:49:53Z</time></trkpt><trkpt lat="43.609654517101376" lon="10.409793717998896"><ele>-1.0</ele><time>2026-04-07T05:49:54Z</time></trkpt><trkpt lat="43.609669314607515" lon="10.410093421074444"><ele>-1.5</ele><time>2026-04-07T05:49:55Z</time></trkpt><trkpt lat="43.609681802178294" lon="10.410408556225944"><ele>-2.0</ele><time>2026-04-07T05:49:56Z</time></trkpt><trkpt lat="43.60970058232025" lon="10.410753540444935"><ele>-0.5</ele><time>2026-04-07T05:49:57Z</time></trkpt><trkpt lat="43.60971525689376" lon="10.411106367247847"><ele>1.0</ele><time>2026-04-07T05:49:58Z</time></trkpt><trkpt lat="43.609725388283294" lon="10.411469319886086"><ele>1.0</ele><time>2026-04-07T05:49:59Z</time></trkpt><trkpt lat="43.60973366725527" lon="10.411834784303915"><ele>1.0</ele><time>2026-04-07T05:50:00Z</time></trkpt><trkpt lat="43.60974071627448" lon="10.412194398943447"><ele>0.5</ele><time>2026-04-07T05:50:01Z</time></trkpt><trkpt lat="43.609748260492616" lon="10.412546528540407"><ele>0.0</ele><time>2026-04-07T05:50:02Z</time></trkpt><trkpt lat="43.60975259118491" lon="10.412902485162812"><ele>-1.0</ele><time>2026-04-07T05:50:03Z</time></trkpt><trkpt lat="43.60975463685797" lon="10.413249924692199"><ele>-2.0</ele><time>2026-04-07T05:50:04Z</time></trkpt><trkpt lat="43.609758770278646" lon="10.413600137621454"><ele>-1.5</ele><time>2026-04-07T05:50:05Z</time></trkpt><trkpt lat="43.609774064543096" lon="10.413953923527874"><ele>-1.0</ele><time>2026-04-07T05:50:06Z</time></trkpt><trkpt lat="43.60978960383998" lon="10.414300380932628"><ele>-1.0</ele><time>2026-04-07T05:50:07Z</time></trkpt><trkpt lat="43.60980782943127" lon="10.414645215891277"><ele>-1.0</ele><time>2026-04-07T05:50:08Z</time></trkpt><trkpt lat="43.609830067669655" lon="10.414986811058718"><ele>-1.0</ele><time>2026-04-07T05:50:09Z</time></trkpt><trkpt lat="43.60985081223241" lon="10.41530819642257"><ele>-1.0</ele><time>2026-04-07T05:50:10Z</time></trkpt><trkpt lat="43.60988250294186" lon="10.41562213163438"><ele>-2.0</ele><time>2026-04-07T05:50:11Z</time></trkpt><trkpt lat="43.609913890908125" lon="10.415937975932865"><ele>-3.0</ele><time>2026-04-07T05:50:12Z</time></trkpt><trkpt lat="43.609947775126145" lon="10.416247543134975"><ele>-2.5</ele><time>2026-04-07T05:50:13Z</time></trkpt><trkpt lat="43.60998590300154" lon="10.416557868176183"><ele>-2.0</ele><time>2026-04-07T05:50:14Z</time></trkpt><trkpt lat="43.610024221062375" lon="10.416861639858283"><ele>-1.6666666666666665</ele><time>2026-04-07T05:50:15Z</time></trkpt><trkpt lat="43.610066341587206" lon="10.417165399367656"><ele>-1.3333333333333333</ele><time>2026-04-07T05:50:16Z</time></trkpt><trkpt lat="43.61011113639665" lon="10.417460612228544"><ele>-1.0</ele><time>2026-04-07T05:50:17Z</time></trkpt><trkpt lat="43.610157603856294" lon="10.417748812554319"><ele>-1.3333333333333333</ele><time>2026-04-07T05:50:18Z</time></trkpt><trkpt lat="43.610210282753506" lon="10.418034620999137"><ele>-1.6666666666666665</ele><time>2026-04-07T05:50:19Z</time></trkpt><trkpt lat="43.6102663580374" lon="10.418326191929346"><ele>-2.0</ele><time>2026-04-07T05:50:20Z</time></trkpt><trkpt lat="43.61032408656625" lon="10.41861392415517"><ele>-2.0</ele><time>2026-04-07T05:50:21Z</time></trkpt><trkpt lat="43.61038490113535" lon="10.418915102821241"><ele>-2.0</ele><time>2026-04-07T05:50:22Z</time></trkpt><trkpt lat="43.61044098827111" lon="10.4191957042205"><ele>-2.0</ele><time>2026-04-07T05:50:23Z</time></trkpt><trkpt lat="43.61050538332659" lon="10.419486475215901"><ele>-1.6666666666666665</ele><time>2026-04-07T05:50:24Z</time></trkpt><trkpt lat="43.610572927694264" lon="10.419773246233829"><ele>-1.3333333333333333</ele><time>2026-04-07T05:50:25Z</time></trkpt><trkpt lat="43.61064172139813" lon="10.420053991920547"><ele>-1.0</ele><time>2026-04-07T05:50:26Z</time></trkpt><trkpt lat="43.610710409434986" lon="10.420321420606225"><ele>-0.6666666666666666</ele><time>2026-04-07T05:50:27Z</time></trkpt><trkpt lat="43.610783100939386" lon="10.420585378665098"><ele>-0.3333333333333333</ele><time>2026-04-07T05:50:28Z</time></trkpt><trkpt lat="43.61085640788821" lon="10.420849550200282"><ele>0.0</ele><time>2026-04-07T05:50:29Z</time></trkpt><trkpt lat="43.61093177245772" lon="10.421114498202837"><ele>0.0</ele><time>2026-04-07T05:50:30Z</time></trkpt><trkpt lat="43.61101105904254" lon="10.421379358675795"><ele>0.0</ele><time>2026-04-07T05:50:31Z</time></trkpt><trkpt lat="43.61109218578169" lon="10.421641839491205"><ele>0.0</ele><time>2026-04-07T05:50:32Z</time></trkpt><trkpt lat="43.61117561944027" lon="10.421902871529086"><ele>0.0</ele><time>2026-04-07T05:50:33Z</time></trkpt><trkpt lat="43.61126292691924" lon="10.42216575649608"><ele>0.0</ele><time>2026-04-07T05:50:34Z</time></trkpt><trkpt lat="43.61135060300346" lon="10.422420930043517"><ele>0.0</ele><time>2026-04-07T05:50:35Z</time></trkpt><trkpt lat="43.611437527897664" lon="10.422672210262537"><ele>0.0</ele><time>2026-04-07T05:50:36Z</time></trkpt><trkpt lat="43.61153061882486" lon="10.422936530014665"><ele>0.0</ele><time>2026-04-07T05:50:37Z</time></trkpt><trkpt lat="43.61162511068849" lon="10.423184380288504"><ele>0.0</ele><time>2026-04-07T05:50:38Z</time></trkpt><trkpt lat="43.611710269370754" lon="10.423412036235892"><ele>0.0</ele><time>2026-04-07T05:50:38.999Z</time></trkpt><trkpt lat="43.61179527411778" lon="10.423626249485695"><ele>0.0</ele><time>2026-04-07T05:50:39.999Z</time></trkpt><trkpt lat="43.61187641624628" lon="10.42382513170945"><ele>0.0</ele><time>2026-04-07T05:50:40.999Z</time></trkpt><trkpt lat="43.61195111401934" lon="10.424018744155607"><ele>0.0</ele><time>2026-04-07T05:50:41.999Z</time></trkpt><trkpt lat="43.612017752506" lon="10.424199166469478"><ele>0.0</ele><time>2026-04-07T05:50:42.999Z</time></trkpt><trkpt lat="43.612084719896195" lon="10.424365429355802"><ele>0.0</ele><time>2026-04-07T05:50:43.999Z</time></trkpt><trkpt lat="43.612149298247715" lon="10.42451086578812"><ele>0.0</ele><time>2026-04-07T05:50:44.999Z</time></trkpt><trkpt lat="43.61220509650237" lon="10.424635892005695"><ele>0.16666666666666666</ele><time>2026-04-07T05:50:45.999Z</time></trkpt><trkpt lat="43.61224756987675" lon="10.424751530787221"><ele>0.3333333333333333</ele><time>2026-04-07T05:50:47Z</time></trkpt><trkpt lat="43.612280948124535" lon="10.4248462958799"><ele>0.5</ele><time>2026-04-07T05:50:48Z</time></trkpt><trkpt lat="43.61226376299728" lon="10.424952937290003"><ele>0.6666666666666666</ele><time>2026-04-07T05:50:49Z</time></trkpt><trkpt lat="43.61224294668414" lon="10.425043133725652"><ele>0.8333333333333333</ele><time>2026-04-07T05:50:50Z</time></trkpt><trkpt lat="43.61218325489296" lon="10.42515888284026"><ele>1.0</ele><time>2026-04-07T05:50:52Z</time></trkpt><trkpt lat="43.612117458526974" lon="10.42517993536168"><ele>0.9999999999999999</ele><time>2026-04-07T05:50:54Z</time></trkpt><trkpt lat="43.612060694040736" lon="10.425136432085315"><ele>1.0</ele><time>2026-04-07T05:50:57Z</time></trkpt><trkpt lat="43.612072081866295" lon="10.425222080234544"><ele>1.0</ele><time>2026-04-07T05:52:41.999Z</time></trkpt><trkpt lat="43.61204745118416" lon="10.425306226580805"><ele>1.0</ele><time>2026-04-07T05:53:15Z</time></trkpt><trkpt lat="43.61204629053974" lon="10.425409792259627"><ele>0.9999999999999999</ele><time>2026-04-07T05:53:25Z</time></trkpt><trkpt lat="43.612134384697185" lon="10.425429900170435"><ele>1.0</ele><time>2026-04-07T06:05:28.846Z</time></trkpt><trkpt lat="43.61204293531142" lon="10.425440954054954"><ele>1.0</ele><time>2026-04-07T06:07:13.017Z</time></trkpt><trkpt lat="43.612111905352656" lon="10.425379627170416"><ele>0.9999999999999999</ele><time>2026-04-07T06:07:15.993Z</time></trkpt><trkpt lat="43.612086090666864" lon="10.425296833675313"><ele>1.0</ele><time>2026-04-07T06:07:19.993Z</time></trkpt><trkpt lat="43.61206121566023" lon="10.42520993985164"><ele>1.0</ele><time>2026-04-07T06:07:26Z</time></trkpt><trkpt lat="43.61205495773467" lon="10.42530103326624"><ele>0.9999999999999999</ele><time>2026-04-07T06:08:21.999Z</time></trkpt><trkpt lat="43.61206211039509" lon="10.425390017368972"><ele>1.0</ele><time>2026-04-07T06:08:27.999Z</time></trkpt><trkpt lat="43.61204980987816" lon="10.42530275528472"><ele>1.0</ele><time>2026-04-07T06:09:01.075Z</time></trkpt><trkpt lat="43.61206879240868" lon="10.425207213231204"><ele>1.0</ele><time>2026-04-07T06:09:02.078Z</time></trkpt><trkpt lat="43.61180048192744" lon="10.425584571221457"><ele>1.0</ele><time>2026-04-07T06:09:20.999Z</time></trkpt><trkpt lat="43.612093799956796" lon="10.425591638317826"><ele>1.0</ele><time>2026-04-07T06:09:27.046Z</time></trkpt><trkpt lat="43.612022285804" lon="10.42560584884386"><ele>1.0</ele><time>2026-04-07T06:11:15.013Z</time></trkpt><trkpt lat="43.61211276302353" lon="10.425505588025512"><ele>1.0</ele><time>2026-04-07T06:13:57.426Z</time></trkpt><trkpt lat="43.612174137585356" lon="10.425419075993817"><ele>1.0</ele><time>2026-04-07T06:14:03.423Z</time></trkpt><trkpt lat="43.61196184423564" lon="10.42546537226892"><ele>0.9999999999999999</ele><time>2026-04-07T06:15:41.996Z</time></trkpt><trkpt lat="43.61205589604516" lon="10.425395789259396"><ele>1.0</ele><time>2026-04-07T06:15:47Z</time></trkpt><trkpt lat="43.61206074114866" lon="10.425303164256102"><ele>1.0</ele><time>2026-04-07T06:16:03Z</time></trkpt><trkpt lat="43.6120822740513" lon="10.425218077398288"><ele>1.0</ele><time>2026-04-07T06:16:10Z</time></trkpt><trkpt lat="43.612122748479905" lon="10.425336678771195"><ele>0.9999999999999999</ele><time>2026-04-07T06:19:29.999Z</time></trkpt><trkpt lat="43.612154274661535" lon="10.425419378632043"><ele>1.0</ele><time>2026-04-07T06:19:31.999Z</time></trkpt><trkpt lat="43.612211655465025" lon="10.425512338948861"><ele>1.0</ele><time>2026-04-07T06:19:33.999Z</time></trkpt><trkpt lat="43.6123260417445" lon="10.425514422353249"><ele>1.0</ele><time>2026-04-07T06:19:35.999Z</time></trkpt><trkpt lat="43.612436170756816" lon="10.425495467826876"><ele>1.0</ele><time>2026-04-07T06:19:37.999Z</time></trkpt><trkpt lat="43.61250049992358" lon="10.425460666880648"><ele>1.0</ele><time>2026-04-07T06:19:38.999Z</time></trkpt><trkpt lat="43.61259598632356" lon="10.425547883470518"><ele>1.0</ele><time>2026-04-07T06:19:40.999Z</time></trkpt><trkpt lat="43.61265088635528" lon="10.425615333257761"><ele>1.0</ele><time>2026-04-07T06:19:41.999Z</time></trkpt><trkpt lat="43.612732004518655" lon="10.425779099346734"><ele>1.0</ele><time>2026-04-07T06:19:43.999Z</time></trkpt><trkpt lat="43.612784617961694" lon="10.425880110680916"><ele>1.0</ele><time>2026-04-07T06:19:44.999Z</time></trkpt><trkpt lat="43.61284863297289" lon="10.425991011919102"><ele>1.0</ele><time>2026-04-07T06:19:45.999Z</time></trkpt><trkpt lat="43.61292127368453" lon="10.426118385609355"><ele>0.75</ele><time>2026-04-07T06:19:46.999Z</time></trkpt><trkpt lat="43.61299070782102" lon="10.42624839137378"><ele>0.5</ele><time>2026-04-07T06:19:47.999Z</time></trkpt><trkpt lat="43.61306702835109" lon="10.42640591927909"><ele>0.25</ele><time>2026-04-07T06:19:48.999Z</time></trkpt><trkpt lat="43.613146415425334" lon="10.426570060169688"><ele>0.0</ele><time>2026-04-07T06:19:49.999Z</time></trkpt><trkpt lat="43.6132300388968" lon="10.426741505772245"><ele>0.0</ele><time>2026-04-07T06:19:50.999Z</time></trkpt><trkpt lat="43.61331789510545" lon="10.426923479628122"><ele>0.0</ele><time>2026-04-07T06:19:51.999Z</time></trkpt><trkpt lat="43.613402157394376" lon="10.427103431971606"><ele>0.0</ele><time>2026-04-07T06:19:52.999Z</time></trkpt><trkpt lat="43.613531883928644" lon="10.427362401755794"><ele>0.0</ele><time>2026-04-07T06:19:53.999Z</time></trkpt><trkpt lat="43.613638326762896" lon="10.427581567051616"><ele>0.0</ele><time>2026-04-07T06:19:54.999Z</time></trkpt><trkpt lat="43.61374776401699" lon="10.427809517060973"><ele>0.0</ele><time>2026-04-07T06:19:55.999Z</time></trkpt><trkpt lat="43.61385927332409" lon="10.428044727976816"><ele>0.0</ele><time>2026-04-07T06:19:56.999Z</time></trkpt><trkpt lat="43.61397222432971" lon="10.428288419454667"><ele>0.0</ele><time>2026-04-07T06:19:58Z</time></trkpt><trkpt lat="43.61406202652" lon="10.42847484874459"><ele>0.0</ele><time>2026-04-07T06:19:59Z</time></trkpt><trkpt lat="43.61416146399997" lon="10.42870359394544"><ele>-0.6666666666666666</ele><time>2026-04-07T06:20:00Z</time></trkpt><trkpt lat="43.614258044082" lon="10.428930863654145"><ele>-1.3333333333333333</ele><time>2026-04-07T06:20:01Z</time></trkpt><trkpt lat="43.61435242128555" lon="10.429171913563314"><ele>-2.0</ele><time>2026-04-07T06:20:02Z</time></trkpt><trkpt lat="43.61444717294239" lon="10.429417629625815"><ele>-1.3333333333333333</ele><time>2026-04-07T06:20:03Z</time></trkpt><trkpt lat="43.614538520041314" lon="10.429674345690735"><ele>-0.6666666666666666</ele><time>2026-04-07T06:20:04Z</time></trkpt><trkpt lat="43.614634291571384" lon="10.429931953874226"><ele>0.0</ele><time>2026-04-07T06:20:05Z</time></trkpt><trkpt lat="43.614724449698166" lon="10.430192847687785"><ele>0.0</ele><time>2026-04-07T06:20:06Z</time></trkpt><trkpt lat="43.61480485873213" lon="10.430435550710927"><ele>0.0</ele><time>2026-04-07T06:20:07Z</time></trkpt><trkpt lat="43.614885020260246" lon="10.430682552975572"><ele>0.0</ele><time>2026-04-07T06:20:08Z</time></trkpt><trkpt lat="43.614963525591506" lon="10.430932069708234"><ele>0.0</ele><time>2026-04-07T06:20:09Z</time></trkpt><trkpt lat="43.61504259082978" lon="10.4311877597305"><ele>0.0</ele><time>2026-04-07T06:20:10Z</time></trkpt><trkpt lat="43.61511939579656" lon="10.431453657955386"><ele>0.0</ele><time>2026-04-07T06:20:11Z</time></trkpt><trkpt lat="43.61519107283914" lon="10.431721522545182"><ele>-0.3333333333333333</ele><time>2026-04-07T06:20:12Z</time></trkpt><trkpt lat="43.61526089519247" lon="10.431994920951729"><ele>-0.6666666666666666</ele><time>2026-04-07T06:20:13Z</time></trkpt><trkpt lat="43.615330189581314" lon="10.43227370221989"><ele>-1.0</ele><time>2026-04-07T06:20:14Z</time></trkpt><trkpt lat="43.61539949903927" lon="10.43255170647502"><ele>-1.0</ele><time>2026-04-07T06:20:15Z</time></trkpt><trkpt lat="43.615461005758895" lon="10.432832037002422"><ele>-1.0</ele><time>2026-04-07T06:20:16Z</time></trkpt><trkpt lat="43.61551899797541" lon="10.433110048808473"><ele>-1.0</ele><time>2026-04-07T06:20:17Z</time></trkpt><trkpt lat="43.61557759455759" lon="10.433389178061008"><ele>-1.0</ele><time>2026-04-07T06:20:18Z</time></trkpt><trkpt lat="43.61562713113086" lon="10.433669659355651"><ele>-1.0</ele><time>2026-04-07T06:20:19Z</time></trkpt><trkpt lat="43.61567115214519" lon="10.433950524316735"><ele>-1.0</ele><time>2026-04-07T06:20:20Z</time></trkpt><trkpt lat="43.615715241082526" lon="10.434230488682667"><ele>-0.3333333333333333</ele><time>2026-04-07T06:20:21Z</time></trkpt><trkpt lat="43.615759071546115" lon="10.434516409829119"><ele>0.3333333333333333</ele><time>2026-04-07T06:20:22Z</time></trkpt><trkpt lat="43.61580122993196" lon="10.434796199954672"><ele>1.0</ele><time>2026-04-07T06:20:23Z</time></trkpt><trkpt lat="43.615843459943" lon="10.435082460358103"><ele>2.0</ele><time>2026-04-07T06:20:23.999Z</time></trkpt><trkpt lat="43.61588594922236" lon="10.435360370987187"><ele>3.0</ele><time>2026-04-07T06:20:24.999Z</time></trkpt><trkpt lat="43.61592838069878" lon="10.43564980380615"><ele>4.0</ele><time>2026-04-07T06:20:25.999Z</time></trkpt><trkpt lat="43.61597397293493" lon="10.435937050396328"><ele>4.333333333333333</ele><time>2026-04-07T06:20:26.999Z</time></trkpt><trkpt lat="43.61602172972016" lon="10.436203826126285"><ele>4.666666666666667</ele><time>2026-04-07T06:20:27.999Z</time></trkpt><trkpt lat="43.616073295827704" lon="10.43649378949787"><ele>5.0</ele><time>2026-04-07T06:20:28.999Z</time></trkpt><trkpt lat="43.616117735754486" lon="10.436763311304317"><ele>4.0</ele><time>2026-04-07T06:20:29.999Z</time></trkpt><trkpt lat="43.616154788784115" lon="10.43703375643099"><ele>3.0</ele><time>2026-04-07T06:20:30.999Z</time></trkpt><trkpt lat="43.616190990637264" lon="10.437302287908064"><ele>2.0</ele><time>2026-04-07T06:20:31.999Z</time></trkpt><trkpt lat="43.61623228948334" lon="10.437574429551143"><ele>1.6666666666666665</ele><time>2026-04-07T06:20:32.999Z</time></trkpt><trkpt lat="43.61627407639944" lon="10.43783898755381"><ele>1.3333333333333333</ele><time>2026-04-07T06:20:33.999Z</time></trkpt><trkpt lat="43.61631292693233" lon="10.4381016016508"><ele>1.0</ele><time>2026-04-07T06:20:34.999Z</time></trkpt><trkpt lat="43.61635213794275" lon="10.438360704207303"><ele>1.3333333333333333</ele><time>2026-04-07T06:20:35.999Z</time></trkpt><trkpt lat="43.616389742430115" lon="10.438620189281623"><ele>1.6666666666666665</ele><time>2026-04-07T06:20:36.999Z</time></trkpt><trkpt lat="43.61642700640686" lon="10.438876543243822"><ele>2.0</ele><time>2026-04-07T06:20:37.999Z</time></trkpt><trkpt lat="43.61646538071986" lon="10.439132608955887"><ele>2.0</ele><time>2026-04-07T06:20:38.999Z</time></trkpt><trkpt lat="43.61650442334749" lon="10.439397086649075"><ele>2.0</ele><time>2026-04-07T06:20:39.999Z</time></trkpt><trkpt lat="43.616543014733054" lon="10.439661276085276"><ele>2.0</ele><time>2026-04-07T06:20:40.999Z</time></trkpt><trkpt lat="43.616582399351444" lon="10.439926931773792"><ele>1.6666666666666665</ele><time>2026-04-07T06:20:41.999Z</time></trkpt><trkpt lat="43.61661930557808" lon="10.44020038861402"><ele>1.3333333333333333</ele><time>2026-04-07T06:20:42.999Z</time></trkpt><trkpt lat="43.61666263673315" lon="10.440476002676737"><ele>1.0</ele><time>2026-04-07T06:20:43.999Z</time></trkpt><trkpt lat="43.616706399887654" lon="10.440765680466054"><ele>0.6666666666666666</ele><time>2026-04-07T06:20:44.999Z</time></trkpt><trkpt lat="43.61675250502586" lon="10.44106695332625"><ele>0.3333333333333333</ele><time>2026-04-07T06:20:45.999Z</time></trkpt><trkpt lat="43.616805112648606" lon="10.441367686506773"><ele>0.0</ele><time>2026-04-07T06:20:46.999Z</time></trkpt><trkpt lat="43.616863989844575" lon="10.441675862797034"><ele>-0.5</ele><time>2026-04-07T06:20:47.999Z</time></trkpt><trkpt lat="43.61692864418719" lon="10.441988931054064"><ele>-1.0</ele><time>2026-04-07T06:20:48.999Z</time></trkpt><trkpt lat="43.61700192153403" lon="10.442304905436083"><ele>0.5</ele><time>2026-04-07T06:20:49.999Z</time></trkpt><trkpt lat="43.617082764296164" lon="10.442616477791576"><ele>2.0</ele><time>2026-04-07T06:20:50.999Z</time></trkpt><trkpt lat="43.61716848248942" lon="10.442928571238546"><ele>1.0</ele><time>2026-04-07T06:20:51.999Z</time></trkpt><trkpt lat="43.617259994953834" lon="10.443240052437467"><ele>0.0</ele><time>2026-04-07T06:20:52.999Z</time></trkpt><trkpt lat="43.6173576486436" lon="10.443550019239483"><ele>0.5</ele><time>2026-04-07T06:20:53.999Z</time></trkpt><trkpt lat="43.61746092098933" lon="10.44385979859863"><ele>1.0</ele><time>2026-04-07T06:20:54.999Z</time></trkpt><trkpt lat="43.6175697052195" lon="10.444164753941088"><ele>1.0</ele><time>2026-04-07T06:20:55.999Z</time></trkpt><trkpt lat="43.61768506400884" lon="10.444460767210812"><ele>1.0</ele><time>2026-04-07T06:20:56.999Z</time></trkpt><trkpt lat="43.61780700284009" lon="10.444756130343505"><ele>0.5</ele><time>2026-04-07T06:20:57.999Z</time></trkpt><trkpt lat="43.617934392436815" lon="10.445046977278052"><ele>0.0</ele><time>2026-04-07T06:20:58.999Z</time></trkpt><trkpt lat="43.61806452718457" lon="10.445330366654787"><ele>0.5</ele><time>2026-04-07T06:20:59.999Z</time></trkpt><trkpt lat="43.618202195421766" lon="10.44560693689922"><ele>1.0</ele><time>2026-04-07T06:21:00.999Z</time></trkpt><trkpt lat="43.618345516729725" lon="10.445874638963707"><ele>1.0</ele><time>2026-04-07T06:21:01.999Z</time></trkpt><trkpt lat="43.618492902461995" lon="10.44614061829633"><ele>1.0</ele><time>2026-04-07T06:21:02.999Z</time></trkpt><trkpt lat="43.61864743411774" lon="10.446402830373772"><ele>1.5</ele><time>2026-04-07T06:21:03.999Z</time></trkpt><trkpt lat="43.61880779530784" lon="10.446663726426081"><ele>2.0</ele><time>2026-04-07T06:21:04.999Z</time></trkpt><trkpt lat="43.618968844174226" lon="10.44691199537443"><ele>3.5</ele><time>2026-04-07T06:21:05.999Z</time></trkpt><trkpt lat="43.61913809682603" lon="10.44716789171997"><ele>5.0</ele><time>2026-04-07T06:21:06.999Z</time></trkpt><trkpt lat="43.61930552411629" lon="10.447419434398327"><ele>5.0</ele><time>2026-04-07T06:21:07.999Z</time></trkpt><trkpt lat="43.61947627153897" lon="10.447672812146896"><ele>5.0</ele><time>2026-04-07T06:21:08.999Z</time></trkpt><trkpt lat="43.61964315894359" lon="10.447926869102313"><ele>3.5</ele><time>2026-04-07T06:21:09.999Z</time></trkpt><trkpt lat="43.61981373937083" lon="10.44818341372087"><ele>2.0</ele><time>2026-04-07T06:21:10.999Z</time></trkpt><trkpt lat="43.6199794776862" lon="10.448439795191861"><ele>2.0</ele><time>2026-04-07T06:21:11.999Z</time></trkpt><trkpt lat="43.62014465307919" lon="10.448699713867585"><ele>2.0</ele><time>2026-04-07T06:21:12.999Z</time></trkpt><trkpt lat="43.62030880990065" lon="10.448966628163912"><ele>3.0</ele><time>2026-04-07T06:21:13.999Z</time></trkpt><trkpt lat="43.62047086460309" lon="10.449237102874584"><ele>4.0</ele><time>2026-04-07T06:21:14.999Z</time></trkpt><trkpt lat="43.62062726727639" lon="10.449517892631832"><ele>3.5</ele><time>2026-04-07T06:21:15.999Z</time></trkpt><trkpt lat="43.62077402577355" lon="10.449810402014261"><ele>3.0</ele><time>2026-04-07T06:21:16.999Z</time></trkpt><trkpt lat="43.62090679772929" lon="10.45011164460509"><ele>3.0</ele><time>2026-04-07T06:21:17.999Z</time></trkpt><trkpt lat="43.62102384598336" lon="10.450431704717348"><ele>3.0</ele><time>2026-04-07T06:21:18.999Z</time></trkpt><trkpt lat="43.62113164180498" lon="10.450752574458958"><ele>3.0</ele><time>2026-04-07T06:21:19.999Z</time></trkpt><trkpt lat="43.62123308670994" lon="10.45107866057947"><ele>3.0</ele><time>2026-04-07T06:21:20.999Z</time></trkpt><trkpt lat="43.621330636259515" lon="10.451406929510968"><ele>4.0</ele><time>2026-04-07T06:21:21.999Z</time></trkpt><trkpt lat="43.62141567423843" lon="10.451727790746084"><ele>5.0</ele><time>2026-04-07T06:21:22.999Z</time></trkpt><trkpt lat="43.621490835252196" lon="10.452048037902475"><ele>5.0</ele><time>2026-04-07T06:21:23.999Z</time></trkpt><trkpt lat="43.62156171809946" lon="10.452371187203413"><ele>5.0</ele><time>2026-04-07T06:21:24.999Z</time></trkpt><trkpt lat="43.62163342979438" lon="10.45269669882115"><ele>5.0</ele><time>2026-04-07T06:21:25.999Z</time></trkpt><trkpt lat="43.62170748376883" lon="10.453017666904948"><ele>5.0</ele><time>2026-04-07T06:21:26.999Z</time></trkpt><trkpt lat="43.621784259118094" lon="10.453337648436449"><ele>5.0</ele><time>2026-04-07T06:21:27.999Z</time></trkpt><trkpt lat="43.621859850677836" lon="10.453657910722827"><ele>5.0</ele><time>2026-04-07T06:21:28.999Z</time></trkpt><trkpt lat="43.62193692467043" lon="10.453978138898691"><ele>5.0</ele><time>2026-04-07T06:21:29.999Z</time></trkpt><trkpt lat="43.62201406592479" lon="10.454298971464967"><ele>5.0</ele><time>2026-04-07T06:21:30.999Z</time></trkpt><trkpt lat="43.62209213822701" lon="10.454619157677175"><ele>4.5</ele><time>2026-04-07T06:21:31.999Z</time></trkpt><trkpt lat="43.62216647190676" lon="10.454933089813204"><ele>4.0</ele><time>2026-04-07T06:21:32.999Z</time></trkpt><trkpt lat="43.62224160839887" lon="10.455261931385241"><ele>3.0</ele><time>2026-04-07T06:21:33.999Z</time></trkpt><trkpt lat="43.62231377313537" lon="10.455586220170584"><ele>2.0</ele><time>2026-04-07T06:21:34.999Z</time></trkpt><trkpt lat="43.622383818294516" lon="10.455903366132844"><ele>2.0</ele><time>2026-04-07T06:21:35.999Z</time></trkpt><trkpt lat="43.62245451587783" lon="10.456224942144717"><ele>2.0</ele><time>2026-04-07T06:21:36.999Z</time></trkpt><trkpt lat="43.62252312014502" lon="10.456545937385402"><ele>2.5</ele><time>2026-04-07T06:21:37.999Z</time></trkpt><trkpt lat="43.62258797587157" lon="10.456867241311604"><ele>3.0</ele><time>2026-04-07T06:21:38.999Z</time></trkpt><trkpt lat="43.62264961506309" lon="10.457192487084393"><ele>3.0</ele><time>2026-04-07T06:21:39.999Z</time></trkpt><trkpt lat="43.62270753391735" lon="10.45752155891448"><ele>3.0</ele><time>2026-04-07T06:21:40.999Z</time></trkpt><trkpt lat="43.622759190716586" lon="10.457854208350543"><ele>3.0</ele><time>2026-04-07T06:21:41.999Z</time></trkpt><trkpt lat="43.622805310934375" lon="10.458195629131291"><ele>3.0</ele><time>2026-04-07T06:21:42.999Z</time></trkpt><trkpt lat="43.62284365566366" lon="10.45853686286415"><ele>4.5</ele><time>2026-04-07T06:21:43.999Z</time></trkpt><trkpt lat="43.62287356270715" lon="10.458877899306572"><ele>6.0</ele><time>2026-04-07T06:21:44.999Z</time></trkpt><trkpt lat="43.62289816493997" lon="10.459218007771188"><ele>6.0</ele><time>2026-04-07T06:21:45.999Z</time></trkpt><trkpt lat="43.6229144376067" lon="10.459559395681351"><ele>6.0</ele><time>2026-04-07T06:21:46.999Z</time></trkpt><trkpt lat="43.62292733850883" lon="10.45990601012369"><ele>6.0</ele><time>2026-04-07T06:21:47.999Z</time></trkpt><trkpt lat="43.62293678104836" lon="10.460249761061853"><ele>6.0</ele><time>2026-04-07T06:21:48.999Z</time></trkpt><trkpt lat="43.62294547427756" lon="10.46059931239033"><ele>5.5</ele><time>2026-04-07T06:21:49.999Z</time></trkpt><trkpt lat="43.62295349852625" lon="10.460942820644894"><ele>5.0</ele><time>2026-04-07T06:21:50.998Z</time></trkpt><trkpt lat="43.62296102282558" lon="10.461287837672808"><ele>4.5</ele><time>2026-04-07T06:21:51.998Z</time></trkpt><trkpt lat="43.62296745468673" lon="10.461632785737068"><ele>4.0</ele><time>2026-04-07T06:21:52.998Z</time></trkpt><trkpt lat="43.62297380171284" lon="10.46197380401412"><ele>5.0</ele><time>2026-04-07T06:21:53.998Z</time></trkpt><trkpt lat="43.622982917967924" lon="10.462314929131487"><ele>6.0</ele><time>2026-04-07T06:21:54.998Z</time></trkpt><trkpt lat="43.62299207033397" lon="10.462653992310962"><ele>5.5</ele><time>2026-04-07T06:21:55.998Z</time></trkpt><trkpt lat="43.62299822462386" lon="10.462986414709142"><ele>5.0</ele><time>2026-04-07T06:21:56.999Z</time></trkpt><trkpt lat="43.62300394518142" lon="10.463327107319511"><ele>5.0</ele><time>2026-04-07T06:21:57.998Z</time></trkpt><trkpt lat="43.62300940716242" lon="10.463657669139593"><ele>5.0</ele><time>2026-04-07T06:21:58.998Z</time></trkpt><trkpt lat="43.62301714486352" lon="10.46399353996388"><ele>4.5</ele><time>2026-04-07T06:21:59.998Z</time></trkpt><trkpt lat="43.62302446585801" lon="10.46432247485454"><ele>4.0</ele><time>2026-04-07T06:22:00.998Z</time></trkpt><trkpt lat="43.6230300635711" lon="10.464655875827882"><ele>3.5</ele><time>2026-04-07T06:22:01.998Z</time></trkpt><trkpt lat="43.62303587095269" lon="10.46499168502788"><ele>3.0</ele><time>2026-04-07T06:22:02.998Z</time></trkpt><trkpt lat="43.623042420039845" lon="10.465329820416065"><ele>4.0</ele><time>2026-04-07T06:22:03.999Z</time></trkpt><trkpt lat="43.623049597192995" lon="10.465661382701983"><ele>5.0</ele><time>2026-04-07T06:22:04.999Z</time></trkpt><trkpt lat="43.62305590538839" lon="10.465997428354846"><ele>5.5</ele><time>2026-04-07T06:22:05.999Z</time></trkpt><trkpt lat="43.62306398161471" lon="10.466332088439614"><ele>6.0</ele><time>2026-04-07T06:22:06.999Z</time></trkpt><trkpt lat="43.62307401620768" lon="10.466663531196284"><ele>6.0</ele><time>2026-04-07T06:22:07.999Z</time></trkpt><trkpt lat="43.62308279492222" lon="10.467000076281346"><ele>6.0</ele><time>2026-04-07T06:22:08.999Z</time></trkpt><trkpt lat="43.623090172939605" lon="10.46733557641875"><ele>6.0</ele><time>2026-04-07T06:22:09.999Z</time></trkpt><trkpt lat="43.62309621800774" lon="10.467669155122072"><ele>6.0</ele><time>2026-04-07T06:22:10.999Z</time></trkpt><trkpt lat="43.623102578424295" lon="10.468000966951083"><ele>6.0</ele><time>2026-04-07T06:22:11.999Z</time></trkpt><trkpt lat="43.62311041196172" lon="10.468328141985571"><ele>6.0</ele><time>2026-04-07T06:22:12.999Z</time></trkpt><trkpt lat="43.6231202685709" lon="10.46865594744338"><ele>5.5</ele><time>2026-04-07T06:22:13.999Z</time></trkpt><trkpt lat="43.623130955172336" lon="10.468981197592695"><ele>5.0</ele><time>2026-04-07T06:22:14.999Z</time></trkpt><trkpt lat="43.623141609738994" lon="10.469312554334257"><ele>5.0</ele><time>2026-04-07T06:22:16Z</time></trkpt><trkpt lat="43.623157302975144" lon="10.469647598556469"><ele>5.0</ele><time>2026-04-07T06:22:17Z</time></trkpt><trkpt lat="43.623171812505795" lon="10.470005262441841"><ele>5.0</ele><time>2026-04-07T06:22:18Z</time></trkpt><trkpt lat="43.6231801911167" lon="10.47037584781961"><ele>5.0</ele><time>2026-04-07T06:22:19Z</time></trkpt><trkpt lat="43.6231871985446" lon="10.470755678815607"><ele>5.0</ele><time>2026-04-07T06:22:20Z</time></trkpt><trkpt lat="43.623189618412376" lon="10.471122211350712"><ele>5.0</ele><time>2026-04-07T06:22:21Z</time></trkpt><trkpt lat="43.62318808361428" lon="10.471487021797696"><ele>5.0</ele><time>2026-04-07T06:22:22Z</time></trkpt><trkpt lat="43.62318583806401" lon="10.471847477680326"><ele>5.0</ele><time>2026-04-07T06:22:23Z</time></trkpt><trkpt lat="43.62318850849976" lon="10.47220940193126"><ele>6.0</ele><time>2026-04-07T06:22:24Z</time></trkpt><trkpt lat="43.62319443034035" lon="10.472553785423422"><ele>7.0</ele><time>2026-04-07T06:22:25Z</time></trkpt><trkpt lat="43.62320354055592" lon="10.472883035193485"><ele>6.666666666666667</ele><time>2026-04-07T06:22:26Z</time></trkpt><trkpt lat="43.623209761157796" lon="10.473193175399713"><ele>6.333333333333334</ele><time>2026-04-07T06:22:27Z</time></trkpt><trkpt lat="43.62321605535672" lon="10.473486570263956"><ele>6.0</ele><time>2026-04-07T06:22:28Z</time></trkpt><trkpt lat="43.623221792484216" lon="10.473778175404606"><ele>5.333333333333333</ele><time>2026-04-07T06:22:29Z</time></trkpt><trkpt lat="43.62322788457404" lon="10.474071610543266"><ele>4.666666666666666</ele><time>2026-04-07T06:22:30Z</time></trkpt><trkpt lat="43.62323537640867" lon="10.474363416233757"><ele>4.0</ele><time>2026-04-07T06:22:31Z</time></trkpt><trkpt lat="43.623246190880856" lon="10.47466886696689"><ele>4.0</ele><time>2026-04-07T06:22:32Z</time></trkpt><trkpt lat="43.623257936742455" lon="10.474973537523637"><ele>4.0</ele><time>2026-04-07T06:22:33Z</time></trkpt><trkpt lat="43.62327196029836" lon="10.475281218668613"><ele>4.0</ele><time>2026-04-07T06:22:34Z</time></trkpt><trkpt lat="43.6232833006349" lon="10.475595690831716"><ele>4.0</ele><time>2026-04-07T06:22:35Z</time></trkpt><trkpt lat="43.623291390908285" lon="10.475914435575266"><ele>4.0</ele><time>2026-04-07T06:22:36Z</time></trkpt><trkpt lat="43.62329907088956" lon="10.476239856330698"><ele>4.0</ele><time>2026-04-07T06:22:37Z</time></trkpt><trkpt lat="43.62330632345389" lon="10.47657107368935"><ele>4.0</ele><time>2026-04-07T06:22:38Z</time></trkpt><trkpt lat="43.62331376092404" lon="10.476905468488573"><ele>3.0</ele><time>2026-04-07T06:22:39Z</time></trkpt><trkpt lat="43.623320644875214" lon="10.477244893702805"><ele>2.0</ele><time>2026-04-07T06:22:40Z</time></trkpt><trkpt lat="43.62332886461201" lon="10.477591373511029"><ele>2.0</ele><time>2026-04-07T06:22:41Z</time></trkpt><trkpt lat="43.62333817690583" lon="10.47793390184655"><ele>2.0</ele><time>2026-04-07T06:22:42Z</time></trkpt><trkpt lat="43.623346188676045" lon="10.478274767272312"><ele>2.0</ele><time>2026-04-07T06:22:43Z</time></trkpt><trkpt lat="43.62335373389722" lon="10.478616912197868"><ele>2.0</ele><time>2026-04-07T06:22:44Z</time></trkpt><trkpt lat="43.623360948786164" lon="10.478967334285564"><ele>2.0</ele><time>2026-04-07T06:22:45Z</time></trkpt><trkpt lat="43.62336715220268" lon="10.47932172659332"><ele>2.0</ele><time>2026-04-07T06:22:46Z</time></trkpt><trkpt lat="43.62337515960044" lon="10.479678962270272"><ele>2.0</ele><time>2026-04-07T06:22:47Z</time></trkpt><trkpt lat="43.62338155161036" lon="10.480034066820172"><ele>2.0</ele><time>2026-04-07T06:22:48Z</time></trkpt><trkpt lat="43.623386020177534" lon="10.480394811571234"><ele>2.5</ele><time>2026-04-07T06:22:49Z</time></trkpt><trkpt lat="43.62339113433517" lon="10.480752252708191"><ele>3.0</ele><time>2026-04-07T06:22:50Z</time></trkpt><trkpt lat="43.62339991132208" lon="10.481122171752242"><ele>3.0</ele><time>2026-04-07T06:22:51Z</time></trkpt><trkpt lat="43.623412115851" lon="10.481505035695193"><ele>3.0</ele><time>2026-04-07T06:22:52Z</time></trkpt><trkpt lat="43.62342093822028" lon="10.481897045449974"><ele>3.0</ele><time>2026-04-07T06:22:53Z</time></trkpt><trkpt lat="43.623428453978754" lon="10.482290932987532"><ele>3.0</ele><time>2026-04-07T06:22:54Z</time></trkpt><trkpt lat="43.6234346719927" lon="10.482690321430267"><ele>3.5</ele><time>2026-04-07T06:22:55Z</time></trkpt><trkpt lat="43.62343957799389" lon="10.4830741480005"><ele>4.0</ele><time>2026-04-07T06:22:56Z</time></trkpt><trkpt lat="43.623439609532795" lon="10.483430000512636"><ele>4.5</ele><time>2026-04-07T06:22:57Z</time></trkpt><trkpt lat="43.623437780356355" lon="10.483785707950881"><ele>5.0</ele><time>2026-04-07T06:22:58Z</time></trkpt><trkpt lat="43.62343304129187" lon="10.484137088323092"><ele>5.0</ele><time>2026-04-07T06:22:59Z</time></trkpt><trkpt lat="43.62342543058717" lon="10.484485172300134"><ele>5.0</ele><time>2026-04-07T06:23:00Z</time></trkpt><trkpt lat="43.623411965246355" lon="10.484831306602453"><ele>4.5</ele><time>2026-04-07T06:23:01Z</time></trkpt><trkpt lat="43.62339878725579" lon="10.485176901682658"><ele>4.0</ele><time>2026-04-07T06:23:02Z</time></trkpt><trkpt lat="43.623382422419645" lon="10.48552215604677"><ele>4.0</ele><time>2026-04-07T06:23:03Z</time></trkpt><trkpt lat="43.62336322495108" lon="10.485860313063009"><ele>4.0</ele><time>2026-04-07T06:23:03.999Z</time></trkpt><trkpt lat="43.62334125376149" lon="10.486210398767472"><ele>4.0</ele><time>2026-04-07T06:23:04.999Z</time></trkpt><trkpt lat="43.62331647599736" lon="10.486553581302621"><ele>4.0</ele><time>2026-04-07T06:23:05.999Z</time></trkpt><trkpt lat="43.62328940084386" lon="10.486882189484035"><ele>4.0</ele><time>2026-04-07T06:23:06.999Z</time></trkpt><trkpt lat="43.62326167563812" lon="10.487206763763487"><ele>4.0</ele><time>2026-04-07T06:23:07.999Z</time></trkpt><trkpt lat="43.62323274083316" lon="10.487527347653323"><ele>4.0</ele><time>2026-04-07T06:23:08.999Z</time></trkpt><trkpt lat="43.62320096928392" lon="10.487853959890353"><ele>4.0</ele><time>2026-04-07T06:23:09.999Z</time></trkpt><trkpt lat="43.62316628823709" lon="10.488178737109035"><ele>4.0</ele><time>2026-04-07T06:23:10.999Z</time></trkpt><trkpt lat="43.62312884001334" lon="10.488500274102199"><ele>4.0</ele><time>2026-04-07T06:23:11.999Z</time></trkpt><trkpt lat="43.62308565422892" lon="10.488825805678129"><ele>4.0</ele><time>2026-04-07T06:23:12.999Z</time></trkpt><trkpt lat="43.62304040939611" lon="10.48915251265208"><ele>4.0</ele><time>2026-04-07T06:23:13.999Z</time></trkpt><trkpt lat="43.622992988282576" lon="10.489469102042285"><ele>4.0</ele><time>2026-04-07T06:23:14.999Z</time></trkpt><trkpt lat="43.62294256106816" lon="10.489801814814314"><ele>4.0</ele><time>2026-04-07T06:23:15.999Z</time></trkpt><trkpt lat="43.62288905789058" lon="10.490129224603827"><ele>3.5</ele><time>2026-04-07T06:23:16.999Z</time></trkpt><trkpt lat="43.62283348269147" lon="10.490460560239661"><ele>3.0</ele><time>2026-04-07T06:23:17.999Z</time></trkpt><trkpt lat="43.62277377484647" lon="10.490794846588877"><ele>3.0</ele><time>2026-04-07T06:23:18.999Z</time></trkpt><trkpt lat="43.62271311635349" lon="10.49112873018453"><ele>3.0</ele><time>2026-04-07T06:23:19.999Z</time></trkpt><trkpt lat="43.622648596254805" lon="10.491463745800992"><ele>3.0</ele><time>2026-04-07T06:23:20.999Z</time></trkpt><trkpt lat="43.62258042318304" lon="10.491795806536945"><ele>3.0</ele><time>2026-04-07T06:23:21.999Z</time></trkpt><trkpt lat="43.62250839826911" lon="10.492128369953667"><ele>3.0</ele><time>2026-04-07T06:23:22.999Z</time></trkpt><trkpt lat="43.62243859069554" lon="10.492460761863354"><ele>3.0</ele><time>2026-04-07T06:23:23.999Z</time></trkpt><trkpt lat="43.6223687887988" lon="10.492792218736685"><ele>3.5</ele><time>2026-04-07T06:23:24.999Z</time></trkpt><trkpt lat="43.622292823748516" lon="10.493147981316266"><ele>4.0</ele><time>2026-04-07T06:23:25.999Z</time></trkpt><trkpt lat="43.622215198077164" lon="10.493511719628003"><ele>4.0</ele><time>2026-04-07T06:23:26.999Z</time></trkpt><trkpt lat="43.62214136883338" lon="10.493863113379948"><ele>4.0</ele><time>2026-04-07T06:23:27.999Z</time></trkpt><trkpt lat="43.6220740408174" lon="10.494187588245923"><ele>4.0</ele><time>2026-04-07T06:23:28.999Z</time></trkpt><trkpt lat="43.62200726402335" lon="10.494501898391775"><ele>4.0</ele><time>2026-04-07T06:23:29.999Z</time></trkpt><trkpt lat="43.6219399207722" lon="10.494814531533473"><ele>4.0</ele><time>2026-04-07T06:23:30.999Z</time></trkpt><trkpt lat="43.62187242687134" lon="10.495129454081097"><ele>4.0</ele><time>2026-04-07T06:23:31.999Z</time></trkpt><trkpt lat="43.621803557802366" lon="10.495443067925137"><ele>4.0</ele><time>2026-04-07T06:23:32.999Z</time></trkpt><trkpt lat="43.621734538638" lon="10.495761276367782"><ele>4.0</ele><time>2026-04-07T06:23:33.999Z</time></trkpt><trkpt lat="43.621668343314965" lon="10.496065758857092"><ele>5.5</ele><time>2026-04-07T06:23:34.999Z</time></trkpt><trkpt lat="43.621603529742636" lon="10.496371361685428"><ele>7.0</ele><time>2026-04-07T06:23:35.999Z</time></trkpt><trkpt lat="43.621538091291356" lon="10.496677423861874"><ele>7.0</ele><time>2026-04-07T06:23:36.999Z</time></trkpt><trkpt lat="43.62147120675226" lon="10.496985258563626"><ele>7.0</ele><time>2026-04-07T06:23:37.999Z</time></trkpt><trkpt lat="43.62140313821254" lon="10.497292285881176"><ele>6.5</ele><time>2026-04-07T06:23:38.999Z</time></trkpt><trkpt lat="43.62133682207728" lon="10.497600823567977"><ele>6.0</ele><time>2026-04-07T06:23:39.999Z</time></trkpt><trkpt lat="43.621270100106926" lon="10.497911836551324"><ele>6.0</ele><time>2026-04-07T06:23:40.999Z</time></trkpt><trkpt lat="43.621203412723204" lon="10.498221735859044"><ele>6.0</ele><time>2026-04-07T06:23:41.999Z</time></trkpt><trkpt lat="43.62113448669686" lon="10.498529313467971"><ele>5.5</ele><time>2026-04-07T06:23:42.999Z</time></trkpt><trkpt lat="43.621065264868776" lon="10.498843631879291"><ele>5.0</ele><time>2026-04-07T06:23:43.999Z</time></trkpt><trkpt lat="43.62099829727467" lon="10.499165620972613"><ele>5.0</ele><time>2026-04-07T06:23:44.999Z</time></trkpt><trkpt lat="43.620929845503795" lon="10.499498329353292"><ele>5.0</ele><time>2026-04-07T06:23:45.999Z</time></trkpt><trkpt lat="43.620854916578764" lon="10.499839405943096"><ele>4.5</ele><time>2026-04-07T06:23:46.999Z</time></trkpt><trkpt lat="43.620778084530826" lon="10.50019724387445"><ele>4.0</ele><time>2026-04-07T06:23:47.999Z</time></trkpt><trkpt lat="43.62069971917908" lon="10.500559561397944"><ele>4.0</ele><time>2026-04-07T06:23:48.999Z</time></trkpt><trkpt lat="43.62062235829213" lon="10.50093428302299"><ele>4.0</ele><time>2026-04-07T06:23:49.999Z</time></trkpt><trkpt lat="43.62054548500512" lon="10.501319233476158"><ele>4.5</ele><time>2026-04-07T06:23:50.999Z</time></trkpt><trkpt lat="43.62047283415108" lon="10.501695425850201"><ele>5.0</ele><time>2026-04-07T06:23:51.999Z</time></trkpt><trkpt lat="43.620409172090014" lon="10.502067521824324"><ele>4.5</ele><time>2026-04-07T06:23:52.999Z</time></trkpt><trkpt lat="43.62035279551131" lon="10.502440364241368"><ele>4.0</ele><time>2026-04-07T06:23:53.999Z</time></trkpt><trkpt lat="43.620297364769435" lon="10.50281573008201"><ele>5.0</ele><time>2026-04-07T06:23:54.999Z</time></trkpt><trkpt lat="43.620243940674065" lon="10.503208311411178"><ele>6.0</ele><time>2026-04-07T06:23:55.999Z</time></trkpt><trkpt lat="43.62019797077451" lon="10.503612365485294"><ele>6.5</ele><time>2026-04-07T06:23:56.999Z</time></trkpt><trkpt lat="43.620158045196106" lon="10.504025035739208"><ele>7.0</ele><time>2026-04-07T06:23:57.999Z</time></trkpt><trkpt lat="43.620126505683594" lon="10.50444036548203"><ele>7.5</ele><time>2026-04-07T06:23:58.999Z</time></trkpt><trkpt lat="43.62009952951326" lon="10.504848906675317"><ele>8.0</ele><time>2026-04-07T06:23:59.999Z</time></trkpt><trkpt lat="43.620075061816515" lon="10.505231687530904"><ele>8.0</ele><time>2026-04-07T06:24:00.999Z</time></trkpt><trkpt lat="43.62005335524522" lon="10.505581150238378"><ele>8.0</ele><time>2026-04-07T06:24:01.999Z</time></trkpt><trkpt lat="43.62004052826601" lon="10.50592376447393"><ele>7.5</ele><time>2026-04-07T06:24:02.999Z</time></trkpt><trkpt lat="43.62003731362997" lon="10.506252742618635"><ele>7.0</ele><time>2026-04-07T06:24:03.999Z</time></trkpt><trkpt lat="43.620041128982315" lon="10.506574705066596"><ele>7.0</ele><time>2026-04-07T06:24:04.999Z</time></trkpt><trkpt lat="43.620048730350916" lon="10.506892822984982"><ele>7.0</ele><time>2026-04-07T06:24:05.999Z</time></trkpt><trkpt lat="43.620056902487555" lon="10.507208849104002"><ele>7.0</ele><time>2026-04-07T06:24:06.999Z</time></trkpt><trkpt lat="43.62006957098214" lon="10.507523817024254"><ele>7.0</ele><time>2026-04-07T06:24:07.999Z</time></trkpt><trkpt lat="43.620088727024445" lon="10.507833184695189"><ele>6.5</ele><time>2026-04-07T06:24:09Z</time></trkpt><trkpt lat="43.62011419735349" lon="10.508150148122985"><ele>6.0</ele><time>2026-04-07T06:24:10Z</time></trkpt><trkpt lat="43.62014270624259" lon="10.508458242824934"><ele>5.5</ele><time>2026-04-07T06:24:11Z</time></trkpt><trkpt lat="43.6201716261112" lon="10.508769267966176"><ele>5.0</ele><time>2026-04-07T06:24:12Z</time></trkpt><trkpt lat="43.62020290599326" lon="10.509078739735697"><ele>5.0</ele><time>2026-04-07T06:24:13Z</time></trkpt><trkpt lat="43.620236370500564" lon="10.509372560109203"><ele>5.0</ele><time>2026-04-07T06:24:14Z</time></trkpt><trkpt lat="43.62027726359106" lon="10.509666792588918"><ele>5.0</ele><time>2026-04-07T06:24:15Z</time></trkpt><trkpt lat="43.62032090481943" lon="10.509957965710782"><ele>5.333333333333334</ele><time>2026-04-07T06:24:16Z</time></trkpt><trkpt lat="43.62036768760987" lon="10.510255686827556"><ele>5.666666666666667</ele><time>2026-04-07T06:24:17Z</time></trkpt><trkpt lat="43.62041769729594" lon="10.510556316468964"><ele>6.0</ele><time>2026-04-07T06:24:18Z</time></trkpt><trkpt lat="43.620471549039635" lon="10.510859995319768"><ele>6.0</ele><time>2026-04-07T06:24:19Z</time></trkpt><trkpt lat="43.62053107440399" lon="10.511146867453945"><ele>6.0</ele><time>2026-04-07T06:24:20Z</time></trkpt><trkpt lat="43.62059898335056" lon="10.511458543379856"><ele>6.5</ele><time>2026-04-07T06:24:21Z</time></trkpt><trkpt lat="43.620673928927864" lon="10.511759152190042"><ele>7.0</ele><time>2026-04-07T06:24:22Z</time></trkpt><trkpt lat="43.62075407611866" lon="10.512071586019852"><ele>7.0</ele><time>2026-04-07T06:24:23Z</time></trkpt><trkpt lat="43.62083126084074" lon="10.51238264157054"><ele>7.0</ele><time>2026-04-07T06:24:24Z</time></trkpt><trkpt lat="43.62091082122186" lon="10.512693606561387"><ele>7.0</ele><time>2026-04-07T06:24:25Z</time></trkpt><trkpt lat="43.62099554809881" lon="10.512999857304468"><ele>7.0</ele><time>2026-04-07T06:24:26Z</time></trkpt><trkpt lat="43.621085446378615" lon="10.513303181969114"><ele>6.5</ele><time>2026-04-07T06:24:27Z</time></trkpt><trkpt lat="43.62117428680442" lon="10.513598612767693"><ele>6.0</ele><time>2026-04-07T06:24:28Z</time></trkpt><trkpt lat="43.621263980495776" lon="10.513893901545167"><ele>6.0</ele><time>2026-04-07T06:24:29Z</time></trkpt><trkpt lat="43.6213500345648" lon="10.514185156332074"><ele>6.0</ele><time>2026-04-07T06:24:30Z</time></trkpt><trkpt lat="43.621438351853435" lon="10.514480890826245"><ele>6.5</ele><time>2026-04-07T06:24:31Z</time></trkpt><trkpt lat="43.62152722380529" lon="10.514774698717494"><ele>7.0</ele><time>2026-04-07T06:24:32Z</time></trkpt><trkpt lat="43.62161942074012" lon="10.515073923491752"><ele>7.0</ele><time>2026-04-07T06:24:33Z</time></trkpt><trkpt lat="43.62171389027457" lon="10.515375391501529"><ele>7.0</ele><time>2026-04-07T06:24:34Z</time></trkpt><trkpt lat="43.62180799027494" lon="10.515674394133933"><ele>6.5</ele><time>2026-04-07T06:24:35Z</time></trkpt><trkpt lat="43.6219003520211" lon="10.51597190758908"><ele>6.0</ele><time>2026-04-07T06:24:36Z</time></trkpt><trkpt lat="43.62198637436511" lon="10.516264967671606"><ele>5.5</ele><time>2026-04-07T06:24:37Z</time></trkpt><trkpt lat="43.62207383258617" lon="10.516558624207073"><ele>5.0</ele><time>2026-04-07T06:24:38Z</time></trkpt><trkpt lat="43.622161015146546" lon="10.516849384979427"><ele>5.5</ele><time>2026-04-07T06:24:39Z</time></trkpt><trkpt lat="43.622249846941344" lon="10.517138553069747"><ele>6.0</ele><time>2026-04-07T06:24:40Z</time></trkpt><trkpt lat="43.62233937863078" lon="10.517430281678086"><ele>6.0</ele><time>2026-04-07T06:24:41Z</time></trkpt><trkpt lat="43.622429443293" lon="10.517726422051373"><ele>6.0</ele><time>2026-04-07T06:24:42Z</time></trkpt><trkpt lat="43.622517598948114" lon="10.518020697920955"><ele>6.5</ele><time>2026-04-07T06:24:43Z</time></trkpt><trkpt lat="43.62260966145234" lon="10.518319303298838"><ele>7.0</ele><time>2026-04-07T06:24:44Z</time></trkpt><trkpt lat="43.622699448477015" lon="10.518609687997637"><ele>6.666666666666667</ele><time>2026-04-07T06:24:45Z</time></trkpt><trkpt lat="43.622787041802944" lon="10.5188882840462"><ele>6.333333333333334</ele><time>2026-04-07T06:24:46Z</time></trkpt><trkpt lat="43.62287085151838" lon="10.519167492666515"><ele>6.0</ele><time>2026-04-07T06:24:47Z</time></trkpt><trkpt lat="43.62295757192498" lon="10.519458465990368"><ele>6.5</ele><time>2026-04-07T06:24:48Z</time></trkpt><trkpt lat="43.62304277403492" lon="10.519740910189975"><ele>7.0</ele><time>2026-04-07T06:24:49Z</time></trkpt><trkpt lat="43.62313329938093" lon="10.520035372620269"><ele>7.0</ele><time>2026-04-07T06:24:50Z</time></trkpt><trkpt lat="43.62322256611441" lon="10.520329773308593"><ele>7.0</ele><time>2026-04-07T06:24:51Z</time></trkpt><trkpt lat="43.623313558585984" lon="10.520629777326842"><ele>7.5</ele><time>2026-04-07T06:24:52Z</time></trkpt><trkpt lat="43.623403219438316" lon="10.52093210005618"><ele>8.0</ele><time>2026-04-07T06:24:53Z</time></trkpt><trkpt lat="43.62349532145486" lon="10.521239533703787"><ele>8.0</ele><time>2026-04-07T06:24:54Z</time></trkpt><trkpt lat="43.62359109599311" lon="10.52154820072763"><ele>8.0</ele><time>2026-04-07T06:24:55Z</time></trkpt><trkpt lat="43.62368659655693" lon="10.521858430421236"><ele>6.5</ele><time>2026-04-07T06:24:56Z</time></trkpt><trkpt lat="43.62378030417117" lon="10.522170198162575"><ele>5.0</ele><time>2026-04-07T06:24:57Z</time></trkpt><trkpt lat="43.62387120621155" lon="10.522474898640434"><ele>5.0</ele><time>2026-04-07T06:24:58Z</time></trkpt><trkpt lat="43.623960110301724" lon="10.522770650652683"><ele>5.0</ele><time>2026-04-07T06:24:59Z</time></trkpt><trkpt lat="43.624050084495806" lon="10.523068622860938"><ele>6.0</ele><time>2026-04-07T06:25:00Z</time></trkpt><trkpt lat="43.624141077085696" lon="10.523367258271387"><ele>7.0</ele><time>2026-04-07T06:25:01Z</time></trkpt><trkpt lat="43.6242357329447" lon="10.523665644203826"><ele>6.0</ele><time>2026-04-07T06:25:02Z</time></trkpt><trkpt lat="43.624329571703726" lon="10.52396487370635"><ele>5.0</ele><time>2026-04-07T06:25:03Z</time></trkpt><trkpt lat="43.624420949018834" lon="10.524262321779224"><ele>5.0</ele><time>2026-04-07T06:25:04Z</time></trkpt><trkpt lat="43.62451285239474" lon="10.524561179602365"><ele>5.0</ele><time>2026-04-07T06:25:05Z</time></trkpt><trkpt lat="43.62460405165792" lon="10.524860469276266"><ele>6.5</ele><time>2026-04-07T06:25:06Z</time></trkpt><trkpt lat="43.62469473338408" lon="10.525156521803789"><ele>8.0</ele><time>2026-04-07T06:25:07Z</time></trkpt><trkpt lat="43.624785649792145" lon="10.52545546248484"><ele>9.0</ele><time>2026-04-07T06:25:08Z</time></trkpt><trkpt lat="43.624876340889465" lon="10.525753958541408"><ele>10.0</ele><time>2026-04-07T06:25:09Z</time></trkpt><trkpt lat="43.62496583070556" lon="10.52605352426015"><ele>9.0</ele><time>2026-04-07T06:25:10Z</time></trkpt><trkpt lat="43.625055738840054" lon="10.526358133530449"><ele>8.0</ele><time>2026-04-07T06:25:10.999Z</time></trkpt><trkpt lat="43.62514750266868" lon="10.526662265879173"><ele>8.0</ele><time>2026-04-07T06:25:11.999Z</time></trkpt><trkpt lat="43.62524093429569" lon="10.526962264847551"><ele>8.0</ele><time>2026-04-07T06:25:12.999Z</time></trkpt><trkpt lat="43.62533352602069" lon="10.527261632859572"><ele>7.0</ele><time>2026-04-07T06:25:13.999Z</time></trkpt><trkpt lat="43.62542939412052" lon="10.527561182102307"><ele>6.0</ele><time>2026-04-07T06:25:14.999Z</time></trkpt><trkpt lat="43.62552066931984" lon="10.527858133237867"><ele>6.5</ele><time>2026-04-07T06:25:15.999Z</time></trkpt><trkpt lat="43.62561083476083" lon="10.528159269320968"><ele>7.0</ele><time>2026-04-07T06:25:16.999Z</time></trkpt><trkpt lat="43.62570135637538" lon="10.528456758101067"><ele>8.0</ele><time>2026-04-07T06:25:17.999Z</time></trkpt><trkpt lat="43.62579089582198" lon="10.528755576635408"><ele>9.0</ele><time>2026-04-07T06:25:18.999Z</time></trkpt><trkpt lat="43.62588086063495" lon="10.52905246825861"><ele>9.0</ele><time>2026-04-07T06:25:19.999Z</time></trkpt><trkpt lat="43.625972500773045" lon="10.529351705718922"><ele>9.0</ele><time>2026-04-07T06:25:20.999Z</time></trkpt><trkpt lat="43.62606088682541" lon="10.529652872219971"><ele>8.5</ele><time>2026-04-07T06:25:21.999Z</time></trkpt><trkpt lat="43.62614617223384" lon="10.529947394073123"><ele>8.0</ele><time>2026-04-07T06:25:22.999Z</time></trkpt><trkpt lat="43.62622454827427" lon="10.53023837310365"><ele>7.666666666666666</ele><time>2026-04-07T06:25:23.999Z</time></trkpt><trkpt lat="43.62630388874078" lon="10.530530511364319"><ele>7.333333333333334</ele><time>2026-04-07T06:25:24.999Z</time></trkpt><trkpt lat="43.62638481972557" lon="10.530818025510404"><ele>7.0</ele><time>2026-04-07T06:25:25.999Z</time></trkpt><trkpt lat="43.62647050727042" lon="10.531104862343271"><ele>6.5</ele><time>2026-04-07T06:25:26.999Z</time></trkpt><trkpt lat="43.6265560066215" lon="10.531393597950958"><ele>6.0</ele><time>2026-04-07T06:25:27.999Z</time></trkpt><trkpt lat="43.62663788492691" lon="10.531687619131816"><ele>6.0</ele><time>2026-04-07T06:25:28.999Z</time></trkpt><trkpt lat="43.626714734728324" lon="10.531977480934582"><ele>6.0</ele><time>2026-04-07T06:25:29.999Z</time></trkpt><trkpt lat="43.62679418696798" lon="10.532279975970864"><ele>5.0</ele><time>2026-04-07T06:25:30.999Z</time></trkpt><trkpt lat="43.62687475914719" lon="10.532580082397137"><ele>4.0</ele><time>2026-04-07T06:25:31.999Z</time></trkpt><trkpt lat="43.626955528244565" lon="10.532879994683803"><ele>5.0</ele><time>2026-04-07T06:25:32.999Z</time></trkpt><trkpt lat="43.62703498322145" lon="10.533181535049822"><ele>6.0</ele><time>2026-04-07T06:25:33.999Z</time></trkpt><trkpt lat="43.62711236655113" lon="10.533482277237153"><ele>7.0</ele><time>2026-04-07T06:25:34.999Z</time></trkpt><trkpt lat="43.62718883269942" lon="10.533789087673103"><ele>8.0</ele><time>2026-04-07T06:25:35.999Z</time></trkpt><trkpt lat="43.62726407254459" lon="10.534097167865305"><ele>8.0</ele><time>2026-04-07T06:25:36.999Z</time></trkpt><trkpt lat="43.627337845181195" lon="10.534409061667594"><ele>8.0</ele><time>2026-04-07T06:25:37.999Z</time></trkpt><trkpt lat="43.62741180897061" lon="10.53471936272777"><ele>7.5</ele><time>2026-04-07T06:25:38.999Z</time></trkpt><trkpt lat="43.627483516648425" lon="10.535031027660375"><ele>7.0</ele><time>2026-04-07T06:25:39.999Z</time></trkpt><trkpt lat="43.627552611137226" lon="10.535339190155593"><ele>7.5</ele><time>2026-04-07T06:25:40.999Z</time></trkpt><trkpt lat="43.62762019937014" lon="10.535646670914968"><ele>8.0</ele><time>2026-04-07T06:25:41.999Z</time></trkpt><trkpt lat="43.6276843056527" lon="10.535951882894443"><ele>7.5</ele><time>2026-04-07T06:25:42.999Z</time></trkpt><trkpt lat="43.62774805854944" lon="10.536252647904465"><ele>7.0</ele><time>2026-04-07T06:25:43.999Z</time></trkpt><trkpt lat="43.62781039883079" lon="10.536556535477722"><ele>7.0</ele><time>2026-04-07T06:25:44.999Z</time></trkpt><trkpt lat="43.62787266574108" lon="10.53686397180758"><ele>7.0</ele><time>2026-04-07T06:25:45.999Z</time></trkpt><trkpt lat="43.627937699958224" lon="10.537178001951409"><ele>7.5</ele><time>2026-04-07T06:25:46.999Z</time></trkpt><trkpt lat="43.62800317401726" lon="10.537495241469397"><ele>8.0</ele><time>2026-04-07T06:25:47.999Z</time></trkpt><trkpt lat="43.628067014635356" lon="10.537819344429689"><ele>8.0</ele><time>2026-04-07T06:25:48.999Z</time></trkpt><trkpt lat="43.628125999738664" lon="10.538147175782994"><ele>8.0</ele><time>2026-04-07T06:25:49.999Z</time></trkpt><trkpt lat="43.6281827371663" lon="10.538480269442474"><ele>8.0</ele><time>2026-04-07T06:25:50.999Z</time></trkpt><trkpt lat="43.628239062460786" lon="10.538816737364"><ele>8.0</ele><time>2026-04-07T06:25:51.999Z</time></trkpt><trkpt lat="43.628295053209875" lon="10.539154665021822"><ele>8.0</ele><time>2026-04-07T06:25:52.999Z</time></trkpt><trkpt lat="43.62834823331336" lon="10.539485457216056"><ele>8.0</ele><time>2026-04-07T06:25:53.999Z</time></trkpt><trkpt lat="43.62840347163803" lon="10.5398171829"><ele>8.0</ele><time>2026-04-07T06:25:54.999Z</time></trkpt><trkpt lat="43.62845666161684" lon="10.540146493769388"><ele>8.0</ele><time>2026-04-07T06:25:55.999Z</time></trkpt><trkpt lat="43.62851014447241" lon="10.540475615103412"><ele>7.5</ele><time>2026-04-07T06:25:56.999Z</time></trkpt><trkpt lat="43.62856345499846" lon="10.54079944898516"><ele>7.0</ele><time>2026-04-07T06:25:57.999Z</time></trkpt><trkpt lat="43.62861722516313" lon="10.541127008763773"><ele>7.0</ele><time>2026-04-07T06:25:58.999Z</time></trkpt><trkpt lat="43.62867063786264" lon="10.541451460470217"><ele>7.0</ele><time>2026-04-07T06:25:59.999Z</time></trkpt><trkpt lat="43.62872784468153" lon="10.54178653572022"><ele>7.0</ele><time>2026-04-07T06:26:00.999Z</time></trkpt><trkpt lat="43.628784896550656" lon="10.54213188482199"><ele>7.0</ele><time>2026-04-07T06:26:01.999Z</time></trkpt><trkpt lat="43.628840649930595" lon="10.542474375130755"><ele>7.0</ele><time>2026-04-07T06:26:02.999Z</time></trkpt><trkpt lat="43.628899912420756" lon="10.542840260921436"><ele>7.0</ele><time>2026-04-07T06:26:03.999Z</time></trkpt><trkpt lat="43.62896073065478" lon="10.543213663861662"><ele>7.0</ele><time>2026-04-07T06:26:04.999Z</time></trkpt><trkpt lat="43.62902423068812" lon="10.543592624597252"><ele>7.0</ele><time>2026-04-07T06:26:05.999Z</time></trkpt><trkpt lat="43.629089919664445" lon="10.543979304815075"><ele>7.0</ele><time>2026-04-07T06:26:06.999Z</time></trkpt><trkpt lat="43.629155046748465" lon="10.54437261250102"><ele>7.0</ele><time>2026-04-07T06:26:07.999Z</time></trkpt><trkpt lat="43.62922052557112" lon="10.544775466446628"><ele>7.5</ele><time>2026-04-07T06:26:08.999Z</time></trkpt><trkpt lat="43.6292860284331" lon="10.545181489867801"><ele>8.0</ele><time>2026-04-07T06:26:09.999Z</time></trkpt><trkpt lat="43.62935649152413" lon="10.54560243947863"><ele>8.0</ele><time>2026-04-07T06:26:10.999Z</time></trkpt><trkpt lat="43.62942184209439" lon="10.546008853845503"><ele>8.0</ele><time>2026-04-07T06:26:11.999Z</time></trkpt><trkpt lat="43.629493788144984" lon="10.546434448675349"><ele>8.0</ele><time>2026-04-07T06:26:12.999Z</time></trkpt><trkpt lat="43.62955861304646" lon="10.546853238830202"><ele>8.0</ele><time>2026-04-07T06:26:13.999Z</time></trkpt><trkpt lat="43.629622901770944" lon="10.547252472231195"><ele>8.0</ele><time>2026-04-07T06:26:15Z</time></trkpt><trkpt lat="43.629687649275965" lon="10.547648151781496"><ele>8.0</ele><time>2026-04-07T06:26:16Z</time></trkpt><trkpt lat="43.629748811945426" lon="10.54801625144552"><ele>8.0</ele><time>2026-04-07T06:26:17Z</time></trkpt><trkpt lat="43.62980585637999" lon="10.548373054541086"><ele>8.0</ele><time>2026-04-07T06:26:18Z</time></trkpt><trkpt lat="43.62986363185585" lon="10.548728657161716"><ele>8.0</ele><time>2026-04-07T06:26:19Z</time></trkpt><trkpt lat="43.629922703201196" lon="10.549085538355753"><ele>8.0</ele><time>2026-04-07T06:26:20Z</time></trkpt><trkpt lat="43.62998191797523" lon="10.549441047980727"><ele>7.5</ele><time>2026-04-07T06:26:21Z</time></trkpt><trkpt lat="43.63004139077513" lon="10.549794006496182"><ele>7.0</ele><time>2026-04-07T06:26:22Z</time></trkpt><trkpt lat="43.630098966227145" lon="10.55013230434138"><ele>7.0</ele><time>2026-04-07T06:26:23Z</time></trkpt><trkpt lat="43.630211712747574" lon="10.550807925865861"><ele>7.0</ele><time>2026-04-07T06:26:25Z</time></trkpt><trkpt lat="43.63026853491825" lon="10.551148794477031"><ele>7.0</ele><time>2026-04-07T06:26:26Z</time></trkpt><trkpt lat="43.63032356839959" lon="10.551488102667717"><ele>7.0</ele><time>2026-04-07T06:26:27Z</time></trkpt><trkpt lat="43.63038217513102" lon="10.551829060563637"><ele>7.0</ele><time>2026-04-07T06:26:28Z</time></trkpt><trkpt lat="43.63044535417548" lon="10.552177739045753"><ele>7.0</ele><time>2026-04-07T06:26:29Z</time></trkpt><trkpt lat="43.63050977261303" lon="10.552533945967767"><ele>7.0</ele><time>2026-04-07T06:26:30Z</time></trkpt><trkpt lat="43.63057583982591" lon="10.552899758677674"><ele>7.0</ele><time>2026-04-07T06:26:31Z</time></trkpt><trkpt lat="43.63064234329014" lon="10.553281917074372"><ele>7.0</ele><time>2026-04-07T06:26:32Z</time></trkpt><trkpt lat="43.630710723838405" lon="10.553671307007193"><ele>6.0</ele><time>2026-04-07T06:26:33Z</time></trkpt><trkpt lat="43.63078041095682" lon="10.554065180442402"><ele>5.0</ele><time>2026-04-07T06:26:34Z</time></trkpt><trkpt lat="43.63085173993823" lon="10.554465355150043"><ele>5.5</ele><time>2026-04-07T06:26:35Z</time></trkpt><trkpt lat="43.63092523472292" lon="10.554875633663801"><ele>6.0</ele><time>2026-04-07T06:26:36Z</time></trkpt><trkpt lat="43.631000749633685" lon="10.555288905440266"><ele>7.0</ele><time>2026-04-07T06:26:37Z</time></trkpt><trkpt lat="43.631074893485085" lon="10.555701256255972"><ele>8.0</ele><time>2026-04-07T06:26:38Z</time></trkpt><trkpt lat="43.63114860626069" lon="10.556112234770383"><ele>8.0</ele><time>2026-04-07T06:26:39Z</time></trkpt><trkpt lat="43.63122342043847" lon="10.556524964285261"><ele>8.0</ele><time>2026-04-07T06:26:40Z</time></trkpt><trkpt lat="43.63129610188241" lon="10.556926859101122"><ele>8.0</ele><time>2026-04-07T06:26:41Z</time></trkpt><trkpt lat="43.63136426260574" lon="10.55730414809365"><ele>8.0</ele><time>2026-04-07T06:26:42Z</time></trkpt><trkpt lat="43.63142645958365" lon="10.55765796681614"><ele>7.5</ele><time>2026-04-07T06:26:43Z</time></trkpt><trkpt lat="43.63148729121697" lon="10.558009727875323"><ele>7.0</ele><time>2026-04-07T06:26:44Z</time></trkpt><trkpt lat="43.63154992764001" lon="10.558365531817255"><ele>7.0</ele><time>2026-04-07T06:26:45Z</time></trkpt><trkpt lat="43.631614095243975" lon="10.558723620106637"><ele>7.0</ele><time>2026-04-07T06:26:46Z</time></trkpt><trkpt lat="43.63167936104033" lon="10.559081582534732"><ele>7.0</ele><time>2026-04-07T06:26:47Z</time></trkpt><trkpt lat="43.63174326325231" lon="10.559433819890799"><ele>7.0</ele><time>2026-04-07T06:26:48Z</time></trkpt><trkpt lat="43.63180632721599" lon="10.559784717105055"><ele>7.5</ele><time>2026-04-07T06:26:49Z</time></trkpt><trkpt lat="43.631865268040094" lon="10.560127881451534"><ele>8.0</ele><time>2026-04-07T06:26:50Z</time></trkpt><trkpt lat="43.631919813077445" lon="10.560471760834051"><ele>8.0</ele><time>2026-04-07T06:26:51Z</time></trkpt><trkpt lat="43.631972194784304" lon="10.56081454265773"><ele>8.0</ele><time>2026-04-07T06:26:52Z</time></trkpt><trkpt lat="43.63202596069628" lon="10.561162765339853"><ele>8.0</ele><time>2026-04-07T06:26:53Z</time></trkpt><trkpt lat="43.63208110395419" lon="10.561500123246606"><ele>8.0</ele><time>2026-04-07T06:26:54Z</time></trkpt><trkpt lat="43.63213791586439" lon="10.561835490151122"><ele>8.0</ele><time>2026-04-07T06:26:55Z</time></trkpt><trkpt lat="43.63219818104073" lon="10.562149407529459"><ele>8.0</ele><time>2026-04-07T06:26:56Z</time></trkpt><trkpt lat="43.63225925329292" lon="10.562462491900519"><ele>8.0</ele><time>2026-04-07T06:26:57Z</time></trkpt><trkpt lat="43.6323170274247" lon="10.56277875670406"><ele>8.0</ele><time>2026-04-07T06:26:58Z</time></trkpt><trkpt lat="43.632373662984584" lon="10.56310057150448"><ele>8.0</ele><time>2026-04-07T06:26:59Z</time></trkpt><trkpt lat="43.632429689750616" lon="10.563417188396167"><ele>8.0</ele><time>2026-04-07T06:27:00Z</time></trkpt><trkpt lat="43.63248616104108" lon="10.56373665988041"><ele>8.0</ele><time>2026-04-07T06:27:01Z</time></trkpt><trkpt lat="43.632543922596824" lon="10.564058020417404"><ele>8.0</ele><time>2026-04-07T06:27:02Z</time></trkpt><trkpt lat="43.63260292799772" lon="10.56437671057998"><ele>7.5</ele><time>2026-04-07T06:27:03Z</time></trkpt><trkpt lat="43.63266214796162" lon="10.564701611225457"><ele>7.0</ele><time>2026-04-07T06:27:04Z</time></trkpt><trkpt lat="43.63271992220104" lon="10.565028052890701"><ele>7.0</ele><time>2026-04-07T06:27:05Z</time></trkpt><trkpt lat="43.63277899415389" lon="10.565357018397135"><ele>7.0</ele><time>2026-04-07T06:27:06Z</time></trkpt><trkpt lat="43.632837607857816" lon="10.565683241865973"><ele>8.0</ele><time>2026-04-07T06:27:07Z</time></trkpt><trkpt lat="43.632896354659145" lon="10.566008865151147"><ele>9.0</ele><time>2026-04-07T06:27:08Z</time></trkpt><trkpt lat="43.632952509036656" lon="10.566325466920222"><ele>10.0</ele><time>2026-04-07T06:27:09Z</time></trkpt><trkpt lat="43.6330104043132" lon="10.566645392408454"><ele>11.0</ele><time>2026-04-07T06:27:10Z</time></trkpt><trkpt lat="43.63306712283845" lon="10.566961174317319"><ele>10.0</ele><time>2026-04-07T06:27:11Z</time></trkpt><trkpt lat="43.63312522396098" lon="10.567280195457728"><ele>9.0</ele><time>2026-04-07T06:27:11.999Z</time></trkpt><trkpt lat="43.63318337470706" lon="10.567603680440845"><ele>8.5</ele><time>2026-04-07T06:27:12.999Z</time></trkpt><trkpt lat="43.63324183691771" lon="10.567928864468193"><ele>8.0</ele><time>2026-04-07T06:27:13.999Z</time></trkpt><trkpt lat="43.63330466155619" lon="10.568254550518299"><ele>8.0</ele><time>2026-04-07T06:27:14.999Z</time></trkpt><trkpt lat="43.63336152452614" lon="10.568572594495874"><ele>8.0</ele><time>2026-04-07T06:27:15.999Z</time></trkpt><trkpt lat="43.63341840869537" lon="10.568887080440303"><ele>8.5</ele><time>2026-04-07T06:27:16.999Z</time></trkpt><trkpt lat="43.63347135547604" lon="10.569201991408727"><ele>9.0</ele><time>2026-04-07T06:27:17.999Z</time></trkpt><trkpt lat="43.633526491158314" lon="10.569515959157268"><ele>9.0</ele><time>2026-04-07T06:27:18.999Z</time></trkpt><trkpt lat="43.63358225074827" lon="10.56982940612786"><ele>9.0</ele><time>2026-04-07T06:27:19.999Z</time></trkpt><trkpt lat="43.63363631539525" lon="10.570136921091974"><ele>9.0</ele><time>2026-04-07T06:27:20.999Z</time></trkpt><trkpt lat="43.633688935707504" lon="10.570458029055894"><ele>9.0</ele><time>2026-04-07T06:27:21.999Z</time></trkpt><trkpt lat="43.63374097989432" lon="10.570767848879001"><ele>9.0</ele><time>2026-04-07T06:27:22.999Z</time></trkpt><trkpt lat="43.63379193228928" lon="10.571079367928041"><ele>9.0</ele><time>2026-04-07T06:27:23.999Z</time></trkpt><trkpt lat="43.63384088459453" lon="10.5713947423177"><ele>8.5</ele><time>2026-04-07T06:27:24.999Z</time></trkpt><trkpt lat="43.63388667078193" lon="10.571708993694637"><ele>8.0</ele><time>2026-04-07T06:27:25.999Z</time></trkpt><trkpt lat="43.6339276332565" lon="10.57202413722874"><ele>7.5</ele><time>2026-04-07T06:27:26.999Z</time></trkpt><trkpt lat="43.633965976994446" lon="10.57233748271772"><ele>7.0</ele><time>2026-04-07T06:27:27.999Z</time></trkpt><trkpt lat="43.63399798424059" lon="10.572646820389643"><ele>7.5</ele><time>2026-04-07T06:27:28.999Z</time></trkpt><trkpt lat="43.63402722180984" lon="10.572965806392645"><ele>8.0</ele><time>2026-04-07T06:27:29.999Z</time></trkpt><trkpt lat="43.6340527167067" lon="10.573271836802926"><ele>8.0</ele><time>2026-04-07T06:27:30.999Z</time></trkpt><trkpt lat="43.63407371954881" lon="10.573586692022088"><ele>8.0</ele><time>2026-04-07T06:27:31.999Z</time></trkpt><trkpt lat="43.634093164953576" lon="10.573894612281897"><ele>9.0</ele><time>2026-04-07T06:27:32.999Z</time></trkpt><trkpt lat="43.63411003083501" lon="10.574207234350276"><ele>10.0</ele><time>2026-04-07T06:27:33.999Z</time></trkpt><trkpt lat="43.634124312821825" lon="10.57452428311998"><ele>10.0</ele><time>2026-04-07T06:27:34.999Z</time></trkpt><trkpt lat="43.63413462396202" lon="10.574842179092105"><ele>10.0</ele><time>2026-04-07T06:27:35.999Z</time></trkpt><trkpt lat="43.63414354280887" lon="10.575157065735091"><ele>9.0</ele><time>2026-04-07T06:27:36.999Z</time></trkpt><trkpt lat="43.634150658728984" lon="10.575478721129604"><ele>8.0</ele><time>2026-04-07T06:27:37.999Z</time></trkpt><trkpt lat="43.63415798872294" lon="10.575804683822074"><ele>8.0</ele><time>2026-04-07T06:27:38.999Z</time></trkpt><trkpt lat="43.63416409624036" lon="10.576132337635068"><ele>8.0</ele><time>2026-04-07T06:27:39.999Z</time></trkpt><trkpt lat="43.634169350300404" lon="10.576457276883653"><ele>8.0</ele><time>2026-04-07T06:27:40.999Z</time></trkpt><trkpt lat="43.63417285564769" lon="10.576783162376218"><ele>8.0</ele><time>2026-04-07T06:27:41.999Z</time></trkpt><trkpt lat="43.63417512464974" lon="10.57710365070172"><ele>8.5</ele><time>2026-04-07T06:27:42.999Z</time></trkpt><trkpt lat="43.63417823044284" lon="10.577416341437539"><ele>9.0</ele><time>2026-04-07T06:27:43.999Z</time></trkpt><trkpt lat="43.63418127624219" lon="10.577738889412776"><ele>9.5</ele><time>2026-04-07T06:27:44.999Z</time></trkpt><trkpt lat="43.63418395082028" lon="10.578063756393801"><ele>10.0</ele><time>2026-04-07T06:27:45.999Z</time></trkpt><trkpt lat="43.63418567019731" lon="10.578395073156862"><ele>9.5</ele><time>2026-04-07T06:27:46.999Z</time></trkpt><trkpt lat="43.63418767462373" lon="10.57871870861064"><ele>9.0</ele><time>2026-04-07T06:27:47.999Z</time></trkpt><trkpt lat="43.634192673230054" lon="10.579053221724447"><ele>9.0</ele><time>2026-04-07T06:27:48.999Z</time></trkpt><trkpt lat="43.63419766477125" lon="10.579391277664955"><ele>9.0</ele><time>2026-04-07T06:27:49.999Z</time></trkpt><trkpt lat="43.63420626007743" lon="10.57973340066995"><ele>9.0</ele><time>2026-04-07T06:27:50.999Z</time></trkpt><trkpt lat="43.634215637453046" lon="10.580073430861408"><ele>9.0</ele><time>2026-04-07T06:27:51.999Z</time></trkpt><trkpt lat="43.634221692374226" lon="10.580416333965813"><ele>10.0</ele><time>2026-04-07T06:27:52.999Z</time></trkpt><trkpt lat="43.63422639439589" lon="10.580764931624962"><ele>11.0</ele><time>2026-04-07T06:27:53.999Z</time></trkpt><trkpt lat="43.63422829053466" lon="10.58110473439324"><ele>11.0</ele><time>2026-04-07T06:27:54.999Z</time></trkpt><trkpt lat="43.634231198380036" lon="10.581442702048399"><ele>11.0</ele><time>2026-04-07T06:27:55.999Z</time></trkpt><trkpt lat="43.63423486308002" lon="10.581758587359472"><ele>11.5</ele><time>2026-04-07T06:27:56.999Z</time></trkpt><trkpt lat="43.634236448622886" lon="10.58207091409924"><ele>12.0</ele><time>2026-04-07T06:27:57.999Z</time></trkpt><trkpt lat="43.634240517905006" lon="10.582383542229545"><ele>12.0</ele><time>2026-04-07T06:27:58.999Z</time></trkpt><trkpt lat="43.634246881882" lon="10.582701431581501"><ele>12.0</ele><time>2026-04-07T06:27:59.999Z</time></trkpt><trkpt lat="43.63425562363125" lon="10.583015508503024"><ele>11.0</ele><time>2026-04-07T06:28:00.999Z</time></trkpt><trkpt lat="43.63426274623894" lon="10.583340515170075"><ele>10.0</ele><time>2026-04-07T06:28:01.999Z</time></trkpt><trkpt lat="43.634268436269664" lon="10.583673901343992"><ele>9.5</ele><time>2026-04-07T06:28:02.999Z</time></trkpt><trkpt lat="43.63427322777543" lon="10.58400666003337"><ele>9.0</ele><time>2026-04-07T06:28:03.999Z</time></trkpt><trkpt lat="43.63427787117168" lon="10.584343846902684"><ele>11.0</ele><time>2026-04-07T06:28:04.999Z</time></trkpt><trkpt lat="43.63428308230827" lon="10.58468390889075"><ele>13.0</ele><time>2026-04-07T06:28:05.999Z</time></trkpt><trkpt lat="43.634285385345954" lon="10.585007878618587"><ele>13.0</ele><time>2026-04-07T06:28:06.999Z</time></trkpt><trkpt lat="43.63428454717427" lon="10.585341758623365"><ele>13.0</ele><time>2026-04-07T06:28:07.999Z</time></trkpt><trkpt lat="43.63427944753367" lon="10.585677715496661"><ele>13.0</ele><time>2026-04-07T06:28:08.999Z</time></trkpt><trkpt lat="43.63426844410162" lon="10.586009269267795"><ele>13.0</ele><time>2026-04-07T06:28:09.999Z</time></trkpt><trkpt lat="43.63424845308217" lon="10.586346343760573"><ele>12.0</ele><time>2026-04-07T06:28:10.999Z</time></trkpt><trkpt lat="43.63422297910874" lon="10.586686026809547"><ele>11.0</ele><time>2026-04-07T06:28:11.999Z</time></trkpt><trkpt lat="43.634193959829375" lon="10.58702148580202"><ele>9.5</ele><time>2026-04-07T06:28:12.999Z</time></trkpt><trkpt lat="43.63416100393274" lon="10.587361161828868"><ele>8.0</ele><time>2026-04-07T06:28:13.999Z</time></trkpt><trkpt lat="43.63412360586419" lon="10.587697550732264"><ele>9.5</ele><time>2026-04-07T06:28:14.999Z</time></trkpt><trkpt lat="43.63408370697682" lon="10.58803478066768"><ele>11.0</ele><time>2026-04-07T06:28:15.999Z</time></trkpt><trkpt lat="43.63404305865568" lon="10.588364938436204"><ele>13.0</ele><time>2026-04-07T06:28:16.999Z</time></trkpt><trkpt lat="43.634001547611696" lon="10.588694843586994"><ele>15.0</ele><time>2026-04-07T06:28:17.999Z</time></trkpt><trkpt lat="43.633957239348" lon="10.589023308372967"><ele>15.0</ele><time>2026-04-07T06:28:18.999Z</time></trkpt><trkpt lat="43.633914156158205" lon="10.58935064851008"><ele>15.0</ele><time>2026-04-07T06:28:19.999Z</time></trkpt><trkpt lat="43.63387186944042" lon="10.58967133215008"><ele>14.5</ele><time>2026-04-07T06:28:21Z</time></trkpt><trkpt lat="43.63382738357692" lon="10.589999130554288"><ele>14.0</ele><time>2026-04-07T06:28:22Z</time></trkpt><trkpt lat="43.63378431419033" lon="10.59031411239891"><ele>13.5</ele><time>2026-04-07T06:28:23Z</time></trkpt><trkpt lat="43.63373942934458" lon="10.590636898635662"><ele>13.0</ele><time>2026-04-07T06:28:24Z</time></trkpt><trkpt lat="43.633694357563364" lon="10.590963702094122"><ele>12.5</ele><time>2026-04-07T06:28:25Z</time></trkpt><trkpt lat="43.63365369366094" lon="10.591294016909629"><ele>12.0</ele><time>2026-04-07T06:28:26Z</time></trkpt><trkpt lat="43.6336134509717" lon="10.591622212981074"><ele>11.5</ele><time>2026-04-07T06:28:27Z</time></trkpt><trkpt lat="43.63357140180797" lon="10.591957001522989"><ele>11.0</ele><time>2026-04-07T06:28:28Z</time></trkpt><trkpt lat="43.633531473015665" lon="10.592289072939407"><ele>12.0</ele><time>2026-04-07T06:28:29Z</time></trkpt><trkpt lat="43.633492783739285" lon="10.592615931774285"><ele>13.0</ele><time>2026-04-07T06:28:30Z</time></trkpt><trkpt lat="43.63345471387448" lon="10.5929338391266"><ele>13.333333333333332</ele><time>2026-04-07T06:28:31Z</time></trkpt><trkpt lat="43.6334162808617" lon="10.593229765464352"><ele>13.666666666666668</ele><time>2026-04-07T06:28:32Z</time></trkpt><trkpt lat="43.63337661955889" lon="10.593512857527838"><ele>14.0</ele><time>2026-04-07T06:28:33Z</time></trkpt><trkpt lat="43.633340031407386" lon="10.593782984753236"><ele>14.333333333333334</ele><time>2026-04-07T06:28:34Z</time></trkpt><trkpt lat="43.63330557374471" lon="10.594056448544658"><ele>14.666666666666668</ele><time>2026-04-07T06:28:35Z</time></trkpt><trkpt lat="43.63326846373682" lon="10.594333255120691"><ele>15.0</ele><time>2026-04-07T06:28:36Z</time></trkpt><trkpt lat="43.633232544005736" lon="10.594614451544745"><ele>14.333333333333332</ele><time>2026-04-07T06:28:37Z</time></trkpt><trkpt lat="43.6331959409236" lon="10.594900603550641"><ele>13.666666666666666</ele><time>2026-04-07T06:28:38Z</time></trkpt><trkpt lat="43.633160071822516" lon="10.59518412484069"><ele>13.0</ele><time>2026-04-07T06:28:39Z</time></trkpt><trkpt lat="43.633125799274396" lon="10.59546530080884"><ele>12.666666666666666</ele><time>2026-04-07T06:28:40Z</time></trkpt><trkpt lat="43.63309453993907" lon="10.59574058384634"><ele>12.333333333333332</ele><time>2026-04-07T06:28:41Z</time></trkpt><trkpt lat="43.6330601766363" lon="10.596019055107949"><ele>12.0</ele><time>2026-04-07T06:28:42Z</time></trkpt><trkpt lat="43.63302370742895" lon="10.59629960497388"><ele>12.0</ele><time>2026-04-07T06:28:43Z</time></trkpt><trkpt lat="43.63298677532316" lon="10.596587246812401"><ele>12.0</ele><time>2026-04-07T06:28:44Z</time></trkpt><trkpt lat="43.632951461030466" lon="10.59687225166043"><ele>12.0</ele><time>2026-04-07T06:28:45Z</time></trkpt><trkpt lat="43.6329172512317" lon="10.59715940238125"><ele>12.0</ele><time>2026-04-07T06:28:46Z</time></trkpt><trkpt lat="43.632886190640804" lon="10.597455873518333"><ele>12.0</ele><time>2026-04-07T06:28:47Z</time></trkpt><trkpt lat="43.632861299237035" lon="10.597771074159231"><ele>12.0</ele><time>2026-04-07T06:28:48Z</time></trkpt><trkpt lat="43.63284228834329" lon="10.598110545040276"><ele>12.5</ele><time>2026-04-07T06:28:49Z</time></trkpt><trkpt lat="43.63282350817891" lon="10.598449190331245"><ele>13.0</ele><time>2026-04-07T06:28:50Z</time></trkpt><trkpt lat="43.63280005449504" lon="10.598791040274314"><ele>13.0</ele><time>2026-04-07T06:28:51Z</time></trkpt><trkpt lat="43.63277446538407" lon="10.599144600056501"><ele>13.0</ele><time>2026-04-07T06:28:52Z</time></trkpt><trkpt lat="43.63275031926333" lon="10.599496256811047"><ele>13.0</ele><time>2026-04-07T06:28:53Z</time></trkpt><trkpt lat="43.63273471428469" lon="10.59984210164582"><ele>13.0</ele><time>2026-04-07T06:28:54Z</time></trkpt><trkpt lat="43.63273258937666" lon="10.600185939393404"><ele>13.5</ele><time>2026-04-07T06:28:55Z</time></trkpt><trkpt lat="43.63273851436916" lon="10.600525285678192"><ele>14.0</ele><time>2026-04-07T06:28:56Z</time></trkpt><trkpt lat="43.63275199426857" lon="10.600858718013141"><ele>14.5</ele><time>2026-04-07T06:28:57Z</time></trkpt><trkpt lat="43.63276734440759" lon="10.601185548742665"><ele>15.0</ele><time>2026-04-07T06:28:58Z</time></trkpt><trkpt lat="43.632790073221535" lon="10.601504971820944"><ele>15.5</ele><time>2026-04-07T06:28:59Z</time></trkpt><trkpt lat="43.63282264910874" lon="10.601816681569776"><ele>16.0</ele><time>2026-04-07T06:29:00Z</time></trkpt><trkpt lat="43.63286022410988" lon="10.602121827303232"><ele>16.0</ele><time>2026-04-07T06:29:01Z</time></trkpt><trkpt lat="43.63290156560128" lon="10.602428803736593"><ele>16.0</ele><time>2026-04-07T06:29:02Z</time></trkpt><trkpt lat="43.63294594426798" lon="10.602732267761008"><ele>15.5</ele><time>2026-04-07T06:29:03Z</time></trkpt><trkpt lat="43.632999438094856" lon="10.60304260002631"><ele>15.0</ele><time>2026-04-07T06:29:04Z</time></trkpt><trkpt lat="43.633059091416705" lon="10.603349775518394"><ele>15.0</ele><time>2026-04-07T06:29:05Z</time></trkpt><trkpt lat="43.63312286181543" lon="10.603654716848492"><ele>15.0</ele><time>2026-04-07T06:29:06Z</time></trkpt><trkpt lat="43.63319393744343" lon="10.603961881316353"><ele>16.0</ele><time>2026-04-07T06:29:07Z</time></trkpt><trkpt lat="43.63326889960846" lon="10.604263353844388"><ele>17.0</ele><time>2026-04-07T06:29:08Z</time></trkpt><trkpt lat="43.63335233805265" lon="10.6045597338155"><ele>17.0</ele><time>2026-04-07T06:29:09Z</time></trkpt><trkpt lat="43.63344427730204" lon="10.604865006720294"><ele>17.0</ele><time>2026-04-07T06:29:10Z</time></trkpt><trkpt lat="43.633531904562965" lon="10.605149934246763"><ele>16.0</ele><time>2026-04-07T06:29:11Z</time></trkpt><trkpt lat="43.633628969263924" lon="10.605438508500376"><ele>15.0</ele><time>2026-04-07T06:29:12Z</time></trkpt><trkpt lat="43.63373179458752" lon="10.605724632014235"><ele>14.5</ele><time>2026-04-07T06:29:13Z</time></trkpt><trkpt lat="43.633836535370115" lon="10.60600578990039"><ele>14.0</ele><time>2026-04-07T06:29:14Z</time></trkpt><trkpt lat="43.63394416163271" lon="10.606278933130694"><ele>15.0</ele><time>2026-04-07T06:29:15Z</time></trkpt><trkpt lat="43.63406427445479" lon="10.606557327097354"><ele>16.0</ele><time>2026-04-07T06:29:16Z</time></trkpt><trkpt lat="43.63418949944925" lon="10.606830868016033"><ele>15.5</ele><time>2026-04-07T06:29:17Z</time></trkpt><trkpt lat="43.63431864493853" lon="10.607100645903813"><ele>15.0</ele><time>2026-04-07T06:29:18Z</time></trkpt><trkpt lat="43.63444984178828" lon="10.60735618879697"><ele>15.0</ele><time>2026-04-07T06:29:19Z</time></trkpt><trkpt lat="43.63458399034176" lon="10.607603701529682"><ele>15.0</ele><time>2026-04-07T06:29:19.999Z</time></trkpt><trkpt lat="43.63473021624943" lon="10.607857250065903"><ele>14.5</ele><time>2026-04-07T06:29:20.999Z</time></trkpt><trkpt lat="43.63487889613621" lon="10.608105516674739"><ele>14.0</ele><time>2026-04-07T06:29:21.999Z</time></trkpt><trkpt lat="43.63502929901957" lon="10.608348215379246"><ele>14.0</ele><time>2026-04-07T06:29:22.999Z</time></trkpt><trkpt lat="43.63518253549704" lon="10.608598968141875"><ele>14.0</ele><time>2026-04-07T06:29:23.999Z</time></trkpt><trkpt lat="43.63533625218171" lon="10.608836536781894"><ele>14.5</ele><time>2026-04-07T06:29:24.999Z</time></trkpt><trkpt lat="43.63549453284237" lon="10.609071365270756"><ele>15.0</ele><time>2026-04-07T06:29:25.999Z</time></trkpt><trkpt lat="43.63565435655943" lon="10.609308208156188"><ele>16.0</ele><time>2026-04-07T06:29:26.999Z</time></trkpt><trkpt lat="43.63581324177131" lon="10.609533640425765"><ele>17.0</ele><time>2026-04-07T06:29:27.999Z</time></trkpt><trkpt lat="43.6359750746768" lon="10.609754899120622"><ele>15.5</ele><time>2026-04-07T06:29:28.999Z</time></trkpt><trkpt lat="43.636139031263994" lon="10.609971820261391"><ele>14.0</ele><time>2026-04-07T06:29:29.999Z</time></trkpt><trkpt lat="43.63630256850409" lon="10.610184632569066"><ele>14.5</ele><time>2026-04-07T06:29:30.999Z</time></trkpt><trkpt lat="43.63646730069161" lon="10.610400524804609"><ele>15.0</ele><time>2026-04-07T06:29:31.999Z</time></trkpt><trkpt lat="43.636631738842084" lon="10.610615216804563"><ele>15.0</ele><time>2026-04-07T06:29:32.999Z</time></trkpt><trkpt lat="43.6367986858717" lon="10.610835448691839"><ele>15.0</ele><time>2026-04-07T06:29:33.999Z</time></trkpt><trkpt lat="43.63696067217508" lon="10.611050560489414"><ele>15.5</ele><time>2026-04-07T06:29:34.999Z</time></trkpt><trkpt lat="43.63712347064623" lon="10.611268505322634"><ele>16.0</ele><time>2026-04-07T06:29:35.999Z</time></trkpt><trkpt lat="43.637288234655216" lon="10.61148876225362"><ele>16.0</ele><time>2026-04-07T06:29:36.999Z</time></trkpt><trkpt lat="43.637452980108314" lon="10.6117035148241"><ele>16.0</ele><time>2026-04-07T06:29:37.999Z</time></trkpt><trkpt lat="43.63762092099207" lon="10.611923042453371"><ele>16.0</ele><time>2026-04-07T06:29:38.999Z</time></trkpt><trkpt lat="43.63778904345768" lon="10.612138603268507"><ele>16.0</ele><time>2026-04-07T06:29:39.999Z</time></trkpt><trkpt lat="43.6379595268657" lon="10.612356778975299"><ele>16.0</ele><time>2026-04-07T06:29:40.999Z</time></trkpt><trkpt lat="43.63813248059349" lon="10.61258234312662"><ele>16.0</ele><time>2026-04-07T06:29:41.999Z</time></trkpt><trkpt lat="43.63830133149712" lon="10.612807309281672"><ele>16.0</ele><time>2026-04-07T06:29:42.999Z</time></trkpt><trkpt lat="43.63847140247106" lon="10.613033687855072"><ele>16.0</ele><time>2026-04-07T06:29:43.999Z</time></trkpt><trkpt lat="43.63864277710596" lon="10.613259771371101"><ele>15.5</ele><time>2026-04-07T06:29:44.999Z</time></trkpt><trkpt lat="43.63881369957299" lon="10.613484017560548"><ele>15.0</ele><time>2026-04-07T06:29:45.999Z</time></trkpt><trkpt lat="43.63898494415757" lon="10.613713977722862"><ele>15.0</ele><time>2026-04-07T06:29:46.999Z</time></trkpt><trkpt lat="43.63915627297108" lon="10.61393834597132"><ele>15.0</ele><time>2026-04-07T06:29:47.999Z</time></trkpt><trkpt lat="43.63932604410765" lon="10.614161149230359"><ele>15.5</ele><time>2026-04-07T06:29:48.999Z</time></trkpt><trkpt lat="43.639493629316995" lon="10.614377866912461"><ele>16.0</ele><time>2026-04-07T06:29:49.999Z</time></trkpt><trkpt lat="43.63966196686099" lon="10.614592533923636"><ele>16.0</ele><time>2026-04-07T06:29:50.999Z</time></trkpt><trkpt lat="43.63983050016022" lon="10.614809448448778"><ele>16.0</ele><time>2026-04-07T06:29:51.999Z</time></trkpt><trkpt lat="43.640013487386575" lon="10.615038029204666"><ele>16.0</ele><time>2026-04-07T06:29:52.999Z</time></trkpt><trkpt lat="43.640207874449914" lon="10.615267889294337"><ele>16.0</ele><time>2026-04-07T06:29:53.999Z</time></trkpt><trkpt lat="43.640406116083604" lon="10.615515478080596"><ele>16.0</ele><time>2026-04-07T06:29:54.999Z</time></trkpt><trkpt lat="43.64059511261152" lon="10.615759585314686"><ele>16.0</ele><time>2026-04-07T06:29:55.999Z</time></trkpt><trkpt lat="43.640771363308076" lon="10.61598910818419"><ele>16.0</ele><time>2026-04-07T06:29:56.999Z</time></trkpt><trkpt lat="43.64093663086987" lon="10.61621037898578"><ele>16.0</ele><time>2026-04-07T06:29:57.999Z</time></trkpt><trkpt lat="43.64110423252159" lon="10.616433364782386"><ele>15.5</ele><time>2026-04-07T06:29:58.999Z</time></trkpt><trkpt lat="43.64127122696347" lon="10.616654194011401"><ele>15.0</ele><time>2026-04-07T06:29:59.999Z</time></trkpt><trkpt lat="43.64144105875692" lon="10.61687743226734"><ele>15.0</ele><time>2026-04-07T06:30:00.999Z</time></trkpt><trkpt lat="43.641609746416115" lon="10.617097953746379"><ele>15.0</ele><time>2026-04-07T06:30:01.999Z</time></trkpt><trkpt lat="43.641775002219404" lon="10.617316360449319"><ele>15.0</ele><time>2026-04-07T06:30:02.999Z</time></trkpt><trkpt lat="43.64194172751228" lon="10.617536396468248"><ele>15.0</ele><time>2026-04-07T06:30:03.999Z</time></trkpt><trkpt lat="43.64211408214283" lon="10.617762144161638"><ele>15.0</ele><time>2026-04-07T06:30:04.999Z</time></trkpt><trkpt lat="43.64229270105286" lon="10.617994519500284"><ele>15.0</ele><time>2026-04-07T06:30:05.999Z</time></trkpt><trkpt lat="43.64247529764973" lon="10.61823204490134"><ele>15.0</ele><time>2026-04-07T06:30:06.999Z</time></trkpt><trkpt lat="43.642657894151704" lon="10.618468128368598"><ele>15.0</ele><time>2026-04-07T06:30:07.999Z</time></trkpt><trkpt lat="43.64284076195273" lon="10.618709785075353"><ele>14.5</ele><time>2026-04-07T06:30:08.999Z</time></trkpt><trkpt lat="43.64302351023723" lon="10.618950272513207"><ele>14.0</ele><time>2026-04-07T06:30:09.999Z</time></trkpt><trkpt lat="43.64320788683679" lon="10.619195312137638"><ele>14.0</ele><time>2026-04-07T06:30:10.999Z</time></trkpt><trkpt lat="43.6433920570206" lon="10.61943932188087"><ele>14.0</ele><time>2026-04-07T06:30:11.999Z</time></trkpt><trkpt lat="43.643578225940225" lon="10.619684666275857"><ele>15.0</ele><time>2026-04-07T06:30:12.999Z</time></trkpt><trkpt lat="43.64376985050255" lon="10.619932582859398"><ele>16.0</ele><time>2026-04-07T06:30:13.999Z</time></trkpt><trkpt lat="43.64397036730772" lon="10.620194688411138"><ele>15.5</ele><time>2026-04-07T06:30:14.999Z</time></trkpt><trkpt lat="43.64417986395135" lon="10.620469534528583"><ele>15.0</ele><time>2026-04-07T06:30:15.999Z</time></trkpt><trkpt lat="43.64439536634865" lon="10.620751971776405"><ele>14.5</ele><time>2026-04-07T06:30:16.999Z</time></trkpt><trkpt lat="43.64461058895799" lon="10.62103745158459"><ele>14.0</ele><time>2026-04-07T06:30:17.999Z</time></trkpt><trkpt lat="43.644826757340155" lon="10.621328877793312"><ele>15.0</ele><time>2026-04-07T06:30:18.999Z</time></trkpt><trkpt lat="43.645034714821236" lon="10.621615514511289"><ele>16.0</ele><time>2026-04-07T06:30:19.999Z</time></trkpt><trkpt lat="43.64523653799631" lon="10.621900745719916"><ele>16.5</ele><time>2026-04-07T06:30:20.999Z</time></trkpt><trkpt lat="43.6454243554639" lon="10.622185792306349"><ele>17.0</ele><time>2026-04-07T06:30:21.999Z</time></trkpt><trkpt lat="43.6456054232778" lon="10.622479503632738"><ele>17.0</ele><time>2026-04-07T06:30:22.999Z</time></trkpt><trkpt lat="43.645775806540996" lon="10.622779344183089"><ele>17.0</ele><time>2026-04-07T06:30:23.999Z</time></trkpt><trkpt lat="43.64593977843464" lon="10.623087837693861"><ele>17.0</ele><time>2026-04-07T06:30:24.999Z</time></trkpt><trkpt lat="43.646089004119865" lon="10.623405101373804"><ele>17.0</ele><time>2026-04-07T06:30:25.999Z</time></trkpt><trkpt lat="43.646231225835535" lon="10.623728844777585"><ele>17.0</ele><time>2026-04-07T06:30:27Z</time></trkpt><trkpt lat="43.64636232164154" lon="10.62405935739335"><ele>17.0</ele><time>2026-04-07T06:30:28Z</time></trkpt><trkpt lat="43.6464796817657" lon="10.62439960044368"><ele>16.0</ele><time>2026-04-07T06:30:29Z</time></trkpt><trkpt lat="43.646582704908205" lon="10.624748727269544"><ele>15.0</ele><time>2026-04-07T06:30:30Z</time></trkpt><trkpt lat="43.64667899379678" lon="10.625109365802716"><ele>15.0</ele><time>2026-04-07T06:30:31Z</time></trkpt><trkpt lat="43.646768172742775" lon="10.62547935262429"><ele>15.0</ele><time>2026-04-07T06:30:32Z</time></trkpt><trkpt lat="43.646848787764945" lon="10.6258580577669"><ele>16.0</ele><time>2026-04-07T06:30:33Z</time></trkpt><trkpt lat="43.646916325980314" lon="10.626244714184033"><ele>17.0</ele><time>2026-04-07T06:30:34Z</time></trkpt><trkpt lat="43.64696535054165" lon="10.626624097380583"><ele>16.5</ele><time>2026-04-07T06:30:35Z</time></trkpt><trkpt lat="43.64700130962821" lon="10.626996185211004"><ele>16.0</ele><time>2026-04-07T06:30:36Z</time></trkpt><trkpt lat="43.64702665177838" lon="10.627363447059365"><ele>16.0</ele><time>2026-04-07T06:30:37Z</time></trkpt><trkpt lat="43.64704205169738" lon="10.627730603747766"><ele>16.0</ele><time>2026-04-07T06:30:38Z</time></trkpt><trkpt lat="43.64705221454614" lon="10.628108642221772"><ele>16.0</ele><time>2026-04-07T06:30:39Z</time></trkpt><trkpt lat="43.64705754328614" lon="10.628484902502533"><ele>16.0</ele><time>2026-04-07T06:30:40Z</time></trkpt><trkpt lat="43.6470581423627" lon="10.628863857509392"><ele>16.5</ele><time>2026-04-07T06:30:41Z</time></trkpt><trkpt lat="43.64705310890413" lon="10.629247259976687"><ele>17.0</ele><time>2026-04-07T06:30:42Z</time></trkpt><trkpt lat="43.64704528629526" lon="10.629632243051473"><ele>17.0</ele><time>2026-04-07T06:30:43Z</time></trkpt><trkpt lat="43.64703764217464" lon="10.63001295389291"><ele>17.0</ele><time>2026-04-07T06:30:44Z</time></trkpt><trkpt lat="43.64703127664958" lon="10.630393128919206"><ele>17.5</ele><time>2026-04-07T06:30:45Z</time></trkpt><trkpt lat="43.64702623920513" lon="10.630783678710571"><ele>18.0</ele><time>2026-04-07T06:30:46Z</time></trkpt><trkpt lat="43.64701597818912" lon="10.631191422391275"><ele>18.0</ele><time>2026-04-07T06:30:47Z</time></trkpt><trkpt lat="43.64700073514111" lon="10.631604109695626"><ele>18.0</ele><time>2026-04-07T06:30:48Z</time></trkpt><trkpt lat="43.64698126690267" lon="10.632012145812919"><ele>16.5</ele><time>2026-04-07T06:30:49Z</time></trkpt><trkpt lat="43.64696332028527" lon="10.632428002635203"><ele>15.0</ele><time>2026-04-07T06:30:50Z</time></trkpt><trkpt lat="43.64695182105873" lon="10.63283010814283"><ele>14.5</ele><time>2026-04-07T06:30:51Z</time></trkpt><trkpt lat="43.64694417392003" lon="10.633213238479255"><ele>14.0</ele><time>2026-04-07T06:30:52Z</time></trkpt><trkpt lat="43.646939386682206" lon="10.633582070580637"><ele>16.0</ele><time>2026-04-07T06:30:53Z</time></trkpt><trkpt lat="43.64693448950735" lon="10.633932379408433"><ele>18.0</ele><time>2026-04-07T06:30:54Z</time></trkpt><trkpt lat="43.64693061640197" lon="10.63426960793344"><ele>18.0</ele><time>2026-04-07T06:30:55Z</time></trkpt><trkpt lat="43.646926597145175" lon="10.634604818355147"><ele>18.0</ele><time>2026-04-07T06:30:56Z</time></trkpt><trkpt lat="43.646924816250504" lon="10.634938401407783"><ele>18.0</ele><time>2026-04-07T06:30:57Z</time></trkpt><trkpt lat="43.6469189388132" lon="10.635279621065365"><ele>18.0</ele><time>2026-04-07T06:30:58Z</time></trkpt><trkpt lat="43.64691257004358" lon="10.635641830006506"><ele>17.0</ele><time>2026-04-07T06:30:59Z</time></trkpt><trkpt lat="43.64691472217727" lon="10.636027251424878"><ele>16.0</ele><time>2026-04-07T06:31:00Z</time></trkpt><trkpt lat="43.64691098521662" lon="10.636436222039293"><ele>16.0</ele><time>2026-04-07T06:31:01Z</time></trkpt><trkpt lat="43.64691044543131" lon="10.636861669988981"><ele>16.0</ele><time>2026-04-07T06:31:02Z</time></trkpt><trkpt lat="43.64690655497389" lon="10.637298150844211"><ele>15.5</ele><time>2026-04-07T06:31:03Z</time></trkpt><trkpt lat="43.6468984803721" lon="10.637716746669314"><ele>15.0</ele><time>2026-04-07T06:31:04Z</time></trkpt><trkpt lat="43.64688269998879" lon="10.638102638887196"><ele>16.0</ele><time>2026-04-07T06:31:05Z</time></trkpt><trkpt lat="43.646866326997504" lon="10.638476269482602"><ele>17.0</ele><time>2026-04-07T06:31:06Z</time></trkpt><trkpt lat="43.64685385167283" lon="10.638844254063338"><ele>17.0</ele><time>2026-04-07T06:31:07Z</time></trkpt><trkpt lat="43.64684444835176" lon="10.639206876228762"><ele>17.0</ele><time>2026-04-07T06:31:07.999Z</time></trkpt><trkpt lat="43.646837593614194" lon="10.639569647831376"><ele>16.5</ele><time>2026-04-07T06:31:08.999Z</time></trkpt><trkpt lat="43.64683304147556" lon="10.63993820226373"><ele>16.0</ele><time>2026-04-07T06:31:09.999Z</time></trkpt><trkpt lat="43.646834629409405" lon="10.640330864371357"><ele>16.0</ele><time>2026-04-07T06:31:10.999Z</time></trkpt><trkpt lat="43.64683977279096" lon="10.640752815003593"><ele>16.0</ele><time>2026-04-07T06:31:11.999Z</time></trkpt><trkpt lat="43.64684154175347" lon="10.641171835026912"><ele>17.0</ele><time>2026-04-07T06:31:12.999Z</time></trkpt><trkpt lat="43.64683543018175" lon="10.641568583020067"><ele>18.0</ele><time>2026-04-07T06:31:13.999Z</time></trkpt><trkpt lat="43.64682627908341" lon="10.641937509870845"><ele>18.5</ele><time>2026-04-07T06:31:14.999Z</time></trkpt><trkpt lat="43.64681605950246" lon="10.642288487683988"><ele>19.0</ele><time>2026-04-07T06:31:15.999Z</time></trkpt><trkpt lat="43.64680729975216" lon="10.642620702733312"><ele>19.5</ele><time>2026-04-07T06:31:16.999Z</time></trkpt><trkpt lat="43.646799043993326" lon="10.64294464423306"><ele>20.0</ele><time>2026-04-07T06:31:17.999Z</time></trkpt><trkpt lat="43.64678991455662" lon="10.643270765407108"><ele>20.0</ele><time>2026-04-07T06:31:18.999Z</time></trkpt><trkpt lat="43.64678264893946" lon="10.643595591636705"><ele>20.0</ele><time>2026-04-07T06:31:19.999Z</time></trkpt><trkpt lat="43.64677456721281" lon="10.643921997850903"><ele>21.0</ele><time>2026-04-07T06:31:20.999Z</time></trkpt><trkpt lat="43.64676825592482" lon="10.644256955201172"><ele>22.0</ele><time>2026-04-07T06:31:21.999Z</time></trkpt><trkpt lat="43.64676515643385" lon="10.64457897905009"><ele>22.0</ele><time>2026-04-07T06:31:22.999Z</time></trkpt><trkpt lat="43.64676136372977" lon="10.644893584128358"><ele>22.0</ele><time>2026-04-07T06:31:23.999Z</time></trkpt><trkpt lat="43.6467635553814" lon="10.645197848597794"><ele>22.0</ele><time>2026-04-07T06:31:24.999Z</time></trkpt><trkpt lat="43.646770223039454" lon="10.645508065371585"><ele>22.0</ele><time>2026-04-07T06:31:25.999Z</time></trkpt><trkpt lat="43.64677999004525" lon="10.64580418351707"><ele>22.0</ele><time>2026-04-07T06:31:26.999Z</time></trkpt><trkpt lat="43.64677334308388" lon="10.646078783643059"><ele>22.0</ele><time>2026-04-07T06:31:27.999Z</time></trkpt><trkpt lat="43.64677288327966" lon="10.646358319001177"><ele>22.0</ele><time>2026-04-07T06:31:28.999Z</time></trkpt><trkpt lat="43.6467804282276" lon="10.646670051054365"><ele>22.0</ele><time>2026-04-07T06:31:30.074Z</time></trkpt><trkpt lat="43.64678540728367" lon="10.646960306064992"><ele>22.0</ele><time>2026-04-07T06:31:31.072Z</time></trkpt><trkpt lat="43.646780308479144" lon="10.647419396666962"><ele>21.5</ele><time>2026-04-07T06:31:32.073Z</time></trkpt><trkpt lat="43.64679002557628" lon="10.647737081485088"><ele>21.0</ele><time>2026-04-07T06:31:32.999Z</time></trkpt><trkpt lat="43.647074510952635" lon="10.64809841554631"><ele>19.0</ele><time>2026-04-07T06:31:33.999Z</time></trkpt><trkpt lat="43.647224129932525" lon="10.648450344376945"><ele>17.0</ele><time>2026-04-07T06:31:34.999Z</time></trkpt><trkpt lat="43.64732821852735" lon="10.648825371214121"><ele>15.5</ele><time>2026-04-07T06:31:35.999Z</time></trkpt><trkpt lat="43.64745956006882" lon="10.64918491615985"><ele>14.0</ele><time>2026-04-07T06:31:36.999Z</time></trkpt><trkpt lat="43.64759617430963" lon="10.64954078865533"><ele>14.0</ele><time>2026-04-07T06:31:37.999Z</time></trkpt><trkpt lat="43.64774590239388" lon="10.649882554865773"><ele>14.0</ele><time>2026-04-07T06:31:38.999Z</time></trkpt><trkpt lat="43.647904871368276" lon="10.6502153546851"><ele>14.5</ele><time>2026-04-07T06:31:39.999Z</time></trkpt><trkpt lat="43.64807739811385" lon="10.650534188740208"><ele>15.0</ele><time>2026-04-07T06:31:40.999Z</time></trkpt><trkpt lat="43.64825621875686" lon="10.650848973641308"><ele>15.5</ele><time>2026-04-07T06:31:41.999Z</time></trkpt><trkpt lat="43.648448357156994" lon="10.65116939953061"><ele>16.0</ele><time>2026-04-07T06:31:42.999Z</time></trkpt><trkpt lat="43.64864062423484" lon="10.651495445640382"><ele>16.5</ele><time>2026-04-07T06:31:43.999Z</time></trkpt><trkpt lat="43.648832936012596" lon="10.651823829003469"><ele>17.0</ele><time>2026-04-07T06:31:44.999Z</time></trkpt><trkpt lat="43.64902129660183" lon="10.652153793195877"><ele>18.0</ele><time>2026-04-07T06:31:45.999Z</time></trkpt><trkpt lat="43.649210800258146" lon="10.652484700376581"><ele>19.0</ele><time>2026-04-07T06:31:46.999Z</time></trkpt><trkpt lat="43.64939922503852" lon="10.652815720997046"><ele>20.0</ele><time>2026-04-07T06:31:47.999Z</time></trkpt><trkpt lat="43.64958745446442" lon="10.65314766242775"><ele>21.0</ele><time>2026-04-07T06:31:48.999Z</time></trkpt><trkpt lat="43.649767182962016" lon="10.65346095822027"><ele>21.5</ele><time>2026-04-07T06:31:49.999Z</time></trkpt><trkpt lat="43.649930778667866" lon="10.653743524702595"><ele>22.0</ele><time>2026-04-07T06:31:50.999Z</time></trkpt><trkpt lat="43.65008813127764" lon="10.654007930708183"><ele>22.0</ele><time>2026-04-07T06:31:51.999Z</time></trkpt><trkpt lat="43.65023403244567" lon="10.65425866105542"><ele>22.0</ele><time>2026-04-07T06:31:52.999Z</time></trkpt><trkpt lat="43.65037348233219" lon="10.654507617535845"><ele>23.0</ele><time>2026-04-07T06:31:53.999Z</time></trkpt><trkpt lat="43.65051381643285" lon="10.654765250679475"><ele>24.0</ele><time>2026-04-07T06:31:54.999Z</time></trkpt><trkpt lat="43.65065243053882" lon="10.655027325841871"><ele>26.0</ele><time>2026-04-07T06:31:55.999Z</time></trkpt><trkpt lat="43.650794763091845" lon="10.655290370617545"><ele>28.0</ele><time>2026-04-07T06:31:56.999Z</time></trkpt><trkpt lat="43.65093897616175" lon="10.655550574492944"><ele>28.0</ele><time>2026-04-07T06:31:57.999Z</time></trkpt><trkpt lat="43.65109117582607" lon="10.655815578009006"><ele>28.0</ele><time>2026-04-07T06:31:58.999Z</time></trkpt><trkpt lat="43.65124297340856" lon="10.656079687801036"><ele>26.0</ele><time>2026-04-07T06:31:59.999Z</time></trkpt><trkpt lat="43.65139910835365" lon="10.656356063037968"><ele>24.0</ele><time>2026-04-07T06:32:00.999Z</time></trkpt><trkpt lat="43.6515494904817" lon="10.656617893434044"><ele>24.0</ele><time>2026-04-07T06:32:01.999Z</time></trkpt><trkpt lat="43.65169855147351" lon="10.656878114291873"><ele>24.0</ele><time>2026-04-07T06:32:02.999Z</time></trkpt><trkpt lat="43.6518490628103" lon="10.6571383600003"><ele>24.5</ele><time>2026-04-07T06:32:03.999Z</time></trkpt><trkpt lat="43.65199586916338" lon="10.657395769981322"><ele>25.0</ele><time>2026-04-07T06:32:04.999Z</time></trkpt><trkpt lat="43.652146790473346" lon="10.657654157670557"><ele>24.0</ele><time>2026-04-07T06:32:05.999Z</time></trkpt><trkpt lat="43.652297959980764" lon="10.657921298519051"><ele>23.0</ele><time>2026-04-07T06:32:06.999Z</time></trkpt><trkpt lat="43.65244945678676" lon="10.658188510605026"><ele>23.0</ele><time>2026-04-07T06:32:07.999Z</time></trkpt><trkpt lat="43.6525962378356" lon="10.658455527029757"><ele>23.0</ele><time>2026-04-07T06:32:08.999Z</time></trkpt><trkpt lat="43.65274808691129" lon="10.658721195036998"><ele>22.0</ele><time>2026-04-07T06:32:09.999Z</time></trkpt><trkpt lat="43.65289779231414" lon="10.658985225475423"><ele>21.0</ele><time>2026-04-07T06:32:10.999Z</time></trkpt><trkpt lat="43.65304160722946" lon="10.6592358244064"><ele>19.0</ele><time>2026-04-07T06:32:11.999Z</time></trkpt><trkpt lat="43.65318225061181" lon="10.659482908557479"><ele>17.0</ele><time>2026-04-07T06:32:12.999Z</time></trkpt><trkpt lat="43.653325320175064" lon="10.659740671001687"><ele>17.0</ele><time>2026-04-07T06:32:13.999Z</time></trkpt><trkpt lat="43.653459004828335" lon="10.659990192480114"><ele>17.0</ele><time>2026-04-07T06:32:14.999Z</time></trkpt><trkpt lat="43.65359135236162" lon="10.660241905050636"><ele>17.0</ele><time>2026-04-07T06:32:15.999Z</time></trkpt><trkpt lat="43.65372189572626" lon="10.6604961169122"><ele>17.0</ele><time>2026-04-07T06:32:16.999Z</time></trkpt><trkpt lat="43.65385118266856" lon="10.66075303166017"><ele>17.0</ele><time>2026-04-07T06:32:17.999Z</time></trkpt><trkpt lat="43.65397514703209" lon="10.661011109034215"><ele>17.0</ele><time>2026-04-07T06:32:18.999Z</time></trkpt><trkpt lat="43.654094395371594" lon="10.66128045595938"><ele>18.0</ele><time>2026-04-07T06:32:19.999Z</time></trkpt><trkpt lat="43.65421074756351" lon="10.661557943193639"><ele>19.0</ele><time>2026-04-07T06:32:20.999Z</time></trkpt><trkpt lat="43.65431495955275" lon="10.6618452882964"><ele>19.0</ele><time>2026-04-07T06:32:21.999Z</time></trkpt><trkpt lat="43.65443155166035" lon="10.662121735656816"><ele>19.0</ele><time>2026-04-07T06:32:22.999Z</time></trkpt><trkpt lat="43.65453703092109" lon="10.662407181680601"><ele>17.0</ele><time>2026-04-07T06:32:23.999Z</time></trkpt><trkpt lat="43.654631815083384" lon="10.66269722954299"><ele>15.0</ele><time>2026-04-07T06:32:24.999Z</time></trkpt><trkpt lat="43.65471806184713" lon="10.662991052543696"><ele>14.5</ele><time>2026-04-07T06:32:25.999Z</time></trkpt><trkpt lat="43.65479581905318" lon="10.663284503686421"><ele>14.0</ele><time>2026-04-07T06:32:26.999Z</time></trkpt><trkpt lat="43.654871347569326" lon="10.663578060384463"><ele>13.666666666666668</ele><time>2026-04-07T06:32:27.999Z</time></trkpt><trkpt lat="43.654940170890974" lon="10.663864049433935"><ele>13.333333333333332</ele><time>2026-04-07T06:32:28.999Z</time></trkpt><trkpt lat="43.65500098898276" lon="10.664145165731792"><ele>13.0</ele><time>2026-04-07T06:32:29.999Z</time></trkpt><trkpt lat="43.65505673328207" lon="10.664435747578725"><ele>13.0</ele><time>2026-04-07T06:32:30.999Z</time></trkpt><trkpt lat="43.65510550951457" lon="10.66472996989421"><ele>13.0</ele><time>2026-04-07T06:32:31.999Z</time></trkpt><trkpt lat="43.65514984224267" lon="10.665022368692602"><ele>13.0</ele><time>2026-04-07T06:32:33Z</time></trkpt><trkpt lat="43.65518360262798" lon="10.665304106290053"><ele>13.666666666666666</ele><time>2026-04-07T06:32:34Z</time></trkpt><trkpt lat="43.655211205827285" lon="10.665594409760894"><ele>14.333333333333332</ele><time>2026-04-07T06:32:35Z</time></trkpt><trkpt lat="43.65523528807182" lon="10.665882840654955"><ele>15.0</ele><time>2026-04-07T06:32:36Z</time></trkpt><trkpt lat="43.65525665692793" lon="10.66616685093437"><ele>15.0</ele><time>2026-04-07T06:32:37Z</time></trkpt><trkpt lat="43.65528061178826" lon="10.666461115275196"><ele>15.0</ele><time>2026-04-07T06:32:38Z</time></trkpt><trkpt lat="43.655300393438225" lon="10.666757568950526"><ele>15.0</ele><time>2026-04-07T06:32:39Z</time></trkpt><trkpt lat="43.65531321780366" lon="10.667063039712664"><ele>15.333333333333332</ele><time>2026-04-07T06:32:40Z</time></trkpt><trkpt lat="43.65531456608016" lon="10.667370209482234"><ele>15.666666666666666</ele><time>2026-04-07T06:32:41Z</time></trkpt><trkpt lat="43.655306558376594" lon="10.667676906965852"><ele>16.0</ele><time>2026-04-07T06:32:42Z</time></trkpt><trkpt lat="43.6552912149204" lon="10.667983285711847"><ele>17.0</ele><time>2026-04-07T06:32:43Z</time></trkpt><trkpt lat="43.65526796107655" lon="10.668294658747007"><ele>18.0</ele><time>2026-04-07T06:32:44Z</time></trkpt><trkpt lat="43.65524118209761" lon="10.668602957808941"><ele>18.0</ele><time>2026-04-07T06:32:45Z</time></trkpt><trkpt lat="43.65521061184362" lon="10.668912602003077"><ele>18.0</ele><time>2026-04-07T06:32:46Z</time></trkpt><trkpt lat="43.655176823854376" lon="10.669214174220086"><ele>18.0</ele><time>2026-04-07T06:32:47Z</time></trkpt><trkpt lat="43.655136543449224" lon="10.669512750127858"><ele>18.0</ele><time>2026-04-07T06:32:48Z</time></trkpt><trkpt lat="43.65509013147172" lon="10.669810109829818"><ele>18.0</ele><time>2026-04-07T06:32:49Z</time></trkpt><trkpt lat="43.65503660304109" lon="10.670109085789816"><ele>18.0</ele><time>2026-04-07T06:32:50Z</time></trkpt><trkpt lat="43.65498102475516" lon="10.670409019217905"><ele>19.0</ele><time>2026-04-07T06:32:51Z</time></trkpt><trkpt lat="43.654919655391225" lon="10.670715908469763"><ele>20.0</ele><time>2026-04-07T06:32:52Z</time></trkpt><trkpt lat="43.654854086339014" lon="10.671029841837807"><ele>19.5</ele><time>2026-04-07T06:32:53Z</time></trkpt><trkpt lat="43.6547867351067" lon="10.67134987445482"><ele>19.0</ele><time>2026-04-07T06:32:54Z</time></trkpt><trkpt lat="43.65471280732585" lon="10.67166907992201"><ele>18.0</ele><time>2026-04-07T06:32:55Z</time></trkpt><trkpt lat="43.654628697549704" lon="10.671983923628042"><ele>17.0</ele><time>2026-04-07T06:32:56Z</time></trkpt><trkpt lat="43.65453797455006" lon="10.672289754983622"><ele>17.0</ele><time>2026-04-07T06:32:57Z</time></trkpt><trkpt lat="43.65444567907873" lon="10.672601676149494"><ele>17.0</ele><time>2026-04-07T06:32:58Z</time></trkpt><trkpt lat="43.65435676399082" lon="10.672912199628911"><ele>17.0</ele><time>2026-04-07T06:32:59Z</time></trkpt><trkpt lat="43.65427643874409" lon="10.673222111221623"><ele>17.0</ele><time>2026-04-07T06:33:00Z</time></trkpt><trkpt lat="43.65420359551718" lon="10.673535393468732"><ele>18.0</ele><time>2026-04-07T06:33:01Z</time></trkpt><trkpt lat="43.65413535479886" lon="10.673846742807163"><ele>19.0</ele><time>2026-04-07T06:33:02Z</time></trkpt><trkpt lat="43.654071211119074" lon="10.674163353089353"><ele>19.5</ele><time>2026-04-07T06:33:03Z</time></trkpt><trkpt lat="43.65401113919419" lon="10.674479177965887"><ele>20.0</ele><time>2026-04-07T06:33:04Z</time></trkpt><trkpt lat="43.65395445875939" lon="10.674796236446529"><ele>20.0</ele><time>2026-04-07T06:33:05Z</time></trkpt><trkpt lat="43.65390553026444" lon="10.675122805342387"><ele>20.0</ele><time>2026-04-07T06:33:06Z</time></trkpt><trkpt lat="43.65386348059699" lon="10.675440588909732"><ele>20.0</ele><time>2026-04-07T06:33:07Z</time></trkpt><trkpt lat="43.65382839912852" lon="10.675765819280564"><ele>20.0</ele><time>2026-04-07T06:33:08Z</time></trkpt><trkpt lat="43.653802286454265" lon="10.676097027051345"><ele>20.0</ele><time>2026-04-07T06:33:09Z</time></trkpt><trkpt lat="43.6537821618572" lon="10.676427471758576"><ele>20.0</ele><time>2026-04-07T06:33:10Z</time></trkpt><trkpt lat="43.65376697834685" lon="10.676761411251265"><ele>20.0</ele><time>2026-04-07T06:33:11Z</time></trkpt><trkpt lat="43.65376216365513" lon="10.67708833088668"><ele>20.0</ele><time>2026-04-07T06:33:12Z</time></trkpt><trkpt lat="43.653765675636805" lon="10.677413123290469"><ele>20.0</ele><time>2026-04-07T06:33:13Z</time></trkpt><trkpt lat="43.65377602599338" lon="10.677732118863586"><ele>20.0</ele><time>2026-04-07T06:33:14Z</time></trkpt><trkpt lat="43.65379963070404" lon="10.678052678074842"><ele>21.0</ele><time>2026-04-07T06:33:15Z</time></trkpt><trkpt lat="43.65383348868263" lon="10.678365369574667"><ele>22.0</ele><time>2026-04-07T06:33:15.999Z</time></trkpt><trkpt lat="43.65387141633105" lon="10.678673980055304"><ele>22.0</ele><time>2026-04-07T06:33:16.999Z</time></trkpt><trkpt lat="43.65391586130912" lon="10.678982935430348"><ele>22.0</ele><time>2026-04-07T06:33:17.999Z</time></trkpt><trkpt lat="43.653972394570395" lon="10.679293186032696"><ele>23.0</ele><time>2026-04-07T06:33:18.999Z</time></trkpt><trkpt lat="43.65403765481324" lon="10.679597075817284"><ele>24.0</ele><time>2026-04-07T06:33:19.999Z</time></trkpt><trkpt lat="43.65411120714379" lon="10.679897788976533"><ele>24.0</ele><time>2026-04-07T06:33:20.999Z</time></trkpt><trkpt lat="43.65419239038839" lon="10.680200471005849"><ele>24.0</ele><time>2026-04-07T06:33:21.999Z</time></trkpt><trkpt lat="43.65428188018372" lon="10.68050326051152"><ele>25.0</ele><time>2026-04-07T06:33:22.999Z</time></trkpt><trkpt lat="43.65437604820933" lon="10.680805384716123"><ele>26.0</ele><time>2026-04-07T06:33:23.999Z</time></trkpt><trkpt lat="43.65447881971804" lon="10.68110107731285"><ele>34.0</ele><time>2026-04-07T06:33:24.999Z</time></trkpt><trkpt lat="43.6545906327995" lon="10.681402228000723"><ele>42.0</ele><time>2026-04-07T06:33:25.999Z</time></trkpt><trkpt lat="43.65470863101511" lon="10.681701386757206"><ele>41.5</ele><time>2026-04-07T06:33:26.999Z</time></trkpt><trkpt lat="43.65483379791587" lon="10.681994091145434"><ele>41.0</ele><time>2026-04-07T06:33:27.999Z</time></trkpt><trkpt lat="43.65496442364011" lon="10.682258696805874"><ele>41.0</ele><time>2026-04-07T06:33:28.999Z</time></trkpt><trkpt lat="43.65511403700355" lon="10.682517869049931"><ele>41.0</ele><time>2026-04-07T06:33:29.999Z</time></trkpt><trkpt lat="43.655266697003846" lon="10.682758520283826"><ele>40.666666666666664</ele><time>2026-04-07T06:33:30.999Z</time></trkpt><trkpt lat="43.65542079969849" lon="10.682989553238949"><ele>40.333333333333336</ele><time>2026-04-07T06:33:31.999Z</time></trkpt><trkpt lat="43.65556732067254" lon="10.68321238259464"><ele>40.0</ele><time>2026-04-07T06:33:32.999Z</time></trkpt><trkpt lat="43.65571354799422" lon="10.683434823592627"><ele>38.66666666666667</ele><time>2026-04-07T06:33:33.999Z</time></trkpt><trkpt lat="43.65586585078205" lon="10.683662677564032"><ele>37.333333333333336</ele><time>2026-04-07T06:33:34.999Z</time></trkpt><trkpt lat="43.65601829529679" lon="10.683890647361567"><ele>36.0</ele><time>2026-04-07T06:33:35.999Z</time></trkpt><trkpt lat="43.65617012757776" lon="10.684120413594002"><ele>36.0</ele><time>2026-04-07T06:33:36.999Z</time></trkpt><trkpt lat="43.65632463104191" lon="10.684355373732293"><ele>36.0</ele><time>2026-04-07T06:33:37.999Z</time></trkpt><trkpt lat="43.65647732621815" lon="10.684586238307748"><ele>36.666666666666664</ele><time>2026-04-07T06:33:38.999Z</time></trkpt><trkpt lat="43.65662711950673" lon="10.684813481597352"><ele>37.33333333333333</ele><time>2026-04-07T06:33:39.999Z</time></trkpt><trkpt lat="43.656767663402114" lon="10.685031976032755"><ele>38.0</ele><time>2026-04-07T06:33:40.999Z</time></trkpt><trkpt lat="43.65690663600849" lon="10.685260669795412"><ele>34.33333333333333</ele><time>2026-04-07T06:33:41.999Z</time></trkpt><trkpt lat="43.657042045561894" lon="10.685497816793907"><ele>30.666666666666664</ele><time>2026-04-07T06:33:42.999Z</time></trkpt><trkpt lat="43.65716821557229" lon="10.685737526279457"><ele>27.0</ele><time>2026-04-07T06:33:43.999Z</time></trkpt><trkpt lat="43.65729057352905" lon="10.685989076396998"><ele>28.0</ele><time>2026-04-07T06:33:44.999Z</time></trkpt><trkpt lat="43.65739963093681" lon="10.68625179461223"><ele>29.0</ele><time>2026-04-07T06:33:45.999Z</time></trkpt><trkpt lat="43.65749965262354" lon="10.68652382274056"><ele>30.0</ele><time>2026-04-07T06:33:46.999Z</time></trkpt><trkpt lat="43.657578665446835" lon="10.686810726632157"><ele>27.333333333333332</ele><time>2026-04-07T06:33:47.999Z</time></trkpt><trkpt lat="43.65764230105568" lon="10.68710434608369"><ele>24.666666666666664</ele><time>2026-04-07T06:33:48.999Z</time></trkpt><trkpt lat="43.65770603772258" lon="10.68740366722981"><ele>22.0</ele><time>2026-04-07T06:33:49.999Z</time></trkpt><trkpt lat="43.657768401714" lon="10.687690431895344"><ele>20.333333333333332</ele><time>2026-04-07T06:33:50.999Z</time></trkpt><trkpt lat="43.65783254420572" lon="10.687967961235039"><ele>18.666666666666668</ele><time>2026-04-07T06:33:51.999Z</time></trkpt><trkpt lat="43.65789811260345" lon="10.688252023322628"><ele>17.0</ele><time>2026-04-07T06:33:52.999Z</time></trkpt><trkpt lat="43.65795989382778" lon="10.688528284017604"><ele>17.666666666666668</ele><time>2026-04-07T06:33:53.999Z</time></trkpt><trkpt lat="43.65802345010499" lon="10.688806393577455"><ele>18.333333333333332</ele><time>2026-04-07T06:33:54.999Z</time></trkpt><trkpt lat="43.6580895415194" lon="10.68908208098579"><ele>19.0</ele><time>2026-04-07T06:33:55.999Z</time></trkpt><trkpt lat="43.65815354550122" lon="10.689355869285627"><ele>18.666666666666664</ele><time>2026-04-07T06:33:56.999Z</time></trkpt><trkpt lat="43.658218146228535" lon="10.689627974764049"><ele>18.333333333333332</ele><time>2026-04-07T06:33:57.999Z</time></trkpt><trkpt lat="43.658282290676624" lon="10.689902600968598"><ele>18.0</ele><time>2026-04-07T06:33:58.999Z</time></trkpt><trkpt lat="43.65834665398277" lon="10.690178315553352"><ele>19.0</ele><time>2026-04-07T06:33:59.999Z</time></trkpt><trkpt lat="43.65841223763721" lon="10.690455310094588"><ele>20.0</ele><time>2026-04-07T06:34:00.999Z</time></trkpt><trkpt lat="43.658478679891516" lon="10.6907421882329"><ele>21.0</ele><time>2026-04-07T06:34:01.999Z</time></trkpt><trkpt lat="43.65854526382797" lon="10.691024266471967"><ele>22.333333333333336</ele><time>2026-04-07T06:34:02.999Z</time></trkpt><trkpt lat="43.65861049480013" lon="10.691302313301863"><ele>23.666666666666668</ele><time>2026-04-07T06:34:03.999Z</time></trkpt><trkpt lat="43.65867328722397" lon="10.69157357359734"><ele>25.0</ele><time>2026-04-07T06:34:04.999Z</time></trkpt><trkpt lat="43.65873389073034" lon="10.69184212134181"><ele>28.0</ele><time>2026-04-07T06:34:05.999Z</time></trkpt><trkpt lat="43.65878748302967" lon="10.692082123891684"><ele>31.0</ele><time>2026-04-07T06:34:06.999Z</time></trkpt><trkpt lat="43.6588474890762" lon="10.692337462052858"><ele>34.0</ele><time>2026-04-07T06:34:07.999Z</time></trkpt><trkpt lat="43.658909187798095" lon="10.692588332346716"><ele>34.66666666666667</ele><time>2026-04-07T06:34:08.999Z</time></trkpt><trkpt lat="43.6589744534656" lon="10.692857125605627"><ele>35.333333333333336</ele><time>2026-04-07T06:34:09.999Z</time></trkpt><trkpt lat="43.65903550982453" lon="10.693130801704303"><ele>36.0</ele><time>2026-04-07T06:34:10.999Z</time></trkpt><trkpt lat="43.65909690380256" lon="10.69339861066425"><ele>37.333333333333336</ele><time>2026-04-07T06:34:11.999Z</time></trkpt><trkpt lat="43.65915931658291" lon="10.693669984750677"><ele>38.66666666666667</ele><time>2026-04-07T06:34:12.999Z</time></trkpt><trkpt lat="43.65921847020284" lon="10.693926294366038"><ele>40.0</ele><time>2026-04-07T06:34:13.999Z</time></trkpt><trkpt lat="43.65927790825829" lon="10.694177606048605"><ele>40.0</ele><time>2026-04-07T06:34:14.999Z</time></trkpt><trkpt lat="43.65933048586893" lon="10.694415408944588"><ele>40.0</ele><time>2026-04-07T06:34:15.999Z</time></trkpt><trkpt lat="43.65938510592044" lon="10.694660525036813"><ele>40.0</ele><time>2026-04-07T06:34:16.999Z</time></trkpt><trkpt lat="43.65944125855812" lon="10.694910888513675"><ele>41.0</ele><time>2026-04-07T06:34:17.999Z</time></trkpt><trkpt lat="43.659497293535246" lon="10.695161644520557"><ele>42.0</ele><time>2026-04-07T06:34:18.999Z</time></trkpt><trkpt lat="43.65956188042829" lon="10.695431277851869"><ele>43.0</ele><time>2026-04-07T06:34:19.999Z</time></trkpt><trkpt lat="43.65962597171348" lon="10.695703090687308"><ele>43.0</ele><time>2026-04-07T06:34:20.999Z</time></trkpt><trkpt lat="43.659694663441755" lon="10.695990992788886"><ele>43.0</ele><time>2026-04-07T06:34:21.999Z</time></trkpt><trkpt lat="43.65975160243139" lon="10.696248993258939"><ele>43.0</ele><time>2026-04-07T06:34:22.999Z</time></trkpt><trkpt lat="43.65981335714874" lon="10.696507940751344"><ele>44.333333333333336</ele><time>2026-04-07T06:34:23.999Z</time></trkpt><trkpt lat="43.65987661234327" lon="10.696755643551926"><ele>45.666666666666664</ele><time>2026-04-07T06:34:24.999Z</time></trkpt><trkpt lat="43.65994889857731" lon="10.697030524548449"><ele>47.0</ele><time>2026-04-07T06:34:25.999Z</time></trkpt><trkpt lat="43.66002167357967" lon="10.697311845906588"><ele>48.666666666666664</ele><time>2026-04-07T06:34:26.999Z</time></trkpt><trkpt lat="43.66009004263016" lon="10.697592537045823"><ele>50.33333333333333</ele><time>2026-04-07T06:34:27.999Z</time></trkpt><trkpt lat="43.66015513015705" lon="10.69787712666191"><ele>52.0</ele><time>2026-04-07T06:34:28.999Z</time></trkpt><trkpt lat="43.66021878378843" lon="10.698159783018296"><ele>52.0</ele><time>2026-04-07T06:34:29.999Z</time></trkpt><trkpt lat="43.660283278529995" lon="10.698440937152503"><ele>52.0</ele><time>2026-04-07T06:34:30.999Z</time></trkpt><trkpt lat="43.66033656406983" lon="10.698726608124659"><ele>52.0</ele><time>2026-04-07T06:34:31.999Z</time></trkpt><trkpt lat="43.66040206134312" lon="10.699005567457451"><ele>47.5</ele><time>2026-04-07T06:34:32.999Z</time></trkpt><trkpt lat="43.6604835063165" lon="10.699291979779051"><ele>43.0</ele><time>2026-04-07T06:34:33.999Z</time></trkpt><trkpt lat="43.66056020309469" lon="10.69959068675646"><ele>41.0</ele><time>2026-04-07T06:34:34.999Z</time></trkpt><trkpt lat="43.660633024958365" lon="10.699887421938195"><ele>39.0</ele><time>2026-04-07T06:34:35.999Z</time></trkpt><trkpt lat="43.66071023114821" lon="10.700181376966702"><ele>41.0</ele><time>2026-04-07T06:34:36.999Z</time></trkpt><trkpt lat="43.660796047153106" lon="10.700471410697554"><ele>43.0</ele><time>2026-04-07T06:34:37.999Z</time></trkpt><trkpt lat="43.660892881594535" lon="10.700753100759744"><ele>43.0</ele><time>2026-04-07T06:34:39Z</time></trkpt><trkpt lat="43.66100084396815" lon="10.70104554101659"><ele>43.0</ele><time>2026-04-07T06:34:40Z</time></trkpt><trkpt lat="43.6611113648691" lon="10.701326222937704"><ele>43.0</ele><time>2026-04-07T06:34:41Z</time></trkpt><trkpt lat="43.66123456340015" lon="10.701594441906208"><ele>43.0</ele><time>2026-04-07T06:34:42Z</time></trkpt><trkpt lat="43.66136051524662" lon="10.701856680040182"><ele>40.5</ele><time>2026-04-07T06:34:43Z</time></trkpt><trkpt lat="43.661490794759146" lon="10.702123082873396"><ele>38.0</ele><time>2026-04-07T06:34:44Z</time></trkpt><trkpt lat="43.66159834560454" lon="10.702433303276633"><ele>38.0</ele><time>2026-04-07T06:34:45Z</time></trkpt><trkpt lat="43.66173872381698" lon="10.702712430538817"><ele>38.0</ele><time>2026-04-07T06:34:46Z</time></trkpt><trkpt lat="43.66187855928305" lon="10.702977500643602"><ele>34.5</ele><time>2026-04-07T06:34:47Z</time></trkpt><trkpt lat="43.66201776968838" lon="10.70325367724508"><ele>31.0</ele><time>2026-04-07T06:34:48Z</time></trkpt><trkpt lat="43.662130347853406" lon="10.703543854537266"><ele>30.0</ele><time>2026-04-07T06:34:49Z</time></trkpt><trkpt lat="43.662261959359" lon="10.70382549935447"><ele>29.0</ele><time>2026-04-07T06:34:50Z</time></trkpt><trkpt lat="43.662398113046414" lon="10.70411964557912"><ele>31.0</ele><time>2026-04-07T06:34:51Z</time></trkpt><trkpt lat="43.66253758741457" lon="10.704422172784467"><ele>33.0</ele><time>2026-04-07T06:34:52Z</time></trkpt><trkpt lat="43.66266945358722" lon="10.70472484400724"><ele>31.5</ele><time>2026-04-07T06:34:53Z</time></trkpt><trkpt lat="43.66279614479616" lon="10.705033804784772"><ele>30.0</ele><time>2026-04-07T06:34:54Z</time></trkpt><trkpt lat="43.66291824207733" lon="10.705349160169115"><ele>28.0</ele><time>2026-04-07T06:34:55Z</time></trkpt><trkpt lat="43.66303788538398" lon="10.705674651986813"><ele>26.0</ele><time>2026-04-07T06:34:56Z</time></trkpt><trkpt lat="43.66315655413371" lon="10.706006879088553"><ele>25.5</ele><time>2026-04-07T06:34:57Z</time></trkpt><trkpt lat="43.663270533703674" lon="10.706334054195125"><ele>25.0</ele><time>2026-04-07T06:34:58Z</time></trkpt><trkpt lat="43.66337655728663" lon="10.706630652468556"><ele>25.0</ele><time>2026-04-07T06:34:59Z</time></trkpt><trkpt lat="43.663488104183294" lon="10.706921383850704"><ele>25.0</ele><time>2026-04-07T06:35:00Z</time></trkpt><trkpt lat="43.6635996599909" lon="10.707202022772814"><ele>25.0</ele><time>2026-04-07T06:35:01Z</time></trkpt><trkpt lat="43.66371600984142" lon="10.707478751886853"><ele>25.0</ele><time>2026-04-07T06:35:02Z</time></trkpt><trkpt lat="43.663837489833064" lon="10.707751016885606"><ele>25.0</ele><time>2026-04-07T06:35:03Z</time></trkpt><trkpt lat="43.66396676785104" lon="10.708022747895582"><ele>25.0</ele><time>2026-04-07T06:35:04Z</time></trkpt><trkpt lat="43.66410588788412" lon="10.708285496015238"><ele>25.0</ele><time>2026-04-07T06:35:05Z</time></trkpt><trkpt lat="43.664252246717" lon="10.708536054116479"><ele>25.0</ele><time>2026-04-07T06:35:06Z</time></trkpt><trkpt lat="43.66441663084428" lon="10.708787319150403"><ele>24.5</ele><time>2026-04-07T06:35:07Z</time></trkpt><trkpt lat="43.66457826886484" lon="10.709018837340212"><ele>24.0</ele><time>2026-04-07T06:35:07.999Z</time></trkpt><trkpt lat="43.6647510236885" lon="10.709243704878519"><ele>24.5</ele><time>2026-04-07T06:35:08.999Z</time></trkpt><trkpt lat="43.66492830399092" lon="10.709460299843611"><ele>25.0</ele><time>2026-04-07T06:35:09.999Z</time></trkpt><trkpt lat="43.665109418369916" lon="10.709663961829644"><ele>23.0</ele><time>2026-04-07T06:35:10.999Z</time></trkpt><trkpt lat="43.665296801937565" lon="10.70985778370842"><ele>21.0</ele><time>2026-04-07T06:35:11.999Z</time></trkpt><trkpt lat="43.66549530125486" lon="10.710039584969161"><ele>21.0</ele><time>2026-04-07T06:35:12.999Z</time></trkpt><trkpt lat="43.66569555495782" lon="10.71021244446094"><ele>21.0</ele><time>2026-04-07T06:35:13.999Z</time></trkpt><trkpt lat="43.66589482053573" lon="10.710378689759535"><ele>21.0</ele><time>2026-04-07T06:35:14.999Z</time></trkpt><trkpt lat="43.66609157124537" lon="10.71054250361161"><ele>21.0</ele><time>2026-04-07T06:35:15.999Z</time></trkpt><trkpt lat="43.666290801983806" lon="10.710702277932402"><ele>21.0</ele><time>2026-04-07T06:35:16.999Z</time></trkpt><trkpt lat="43.66649333841715" lon="10.710864967597827"><ele>21.0</ele><time>2026-04-07T06:35:17.999Z</time></trkpt><trkpt lat="43.666691562003976" lon="10.711030968092842"><ele>20.5</ele><time>2026-04-07T06:35:18.999Z</time></trkpt><trkpt lat="43.66688811617912" lon="10.711197768285684"><ele>20.0</ele><time>2026-04-07T06:35:19.999Z</time></trkpt><trkpt lat="43.66708844254758" lon="10.711372869797469"><ele>19.5</ele><time>2026-04-07T06:35:20.999Z</time></trkpt><trkpt lat="43.66728153440731" lon="10.711556625266489"><ele>19.0</ele><time>2026-04-07T06:35:21.999Z</time></trkpt><trkpt lat="43.66747596393677" lon="10.711739882140288"><ele>18.5</ele><time>2026-04-07T06:35:22.999Z</time></trkpt><trkpt lat="43.66766624069016" lon="10.711942344493059"><ele>18.0</ele><time>2026-04-07T06:35:23.999Z</time></trkpt><trkpt lat="43.66784734884528" lon="10.712150130540524"><ele>19.5</ele><time>2026-04-07T06:35:24.999Z</time></trkpt><trkpt lat="43.668026192563914" lon="10.712372126602256"><ele>21.0</ele><time>2026-04-07T06:35:25.999Z</time></trkpt><trkpt lat="43.66819362599189" lon="10.712599748540805"><ele>20.5</ele><time>2026-04-07T06:35:26.999Z</time></trkpt><trkpt lat="43.668354873467656" lon="10.712835375850847"><ele>20.0</ele><time>2026-04-07T06:35:27.999Z</time></trkpt><trkpt lat="43.66850864078412" lon="10.713076826062416"><ele>19.5</ele><time>2026-04-07T06:35:28.999Z</time></trkpt><trkpt lat="43.66865309308658" lon="10.713321349128355"><ele>19.0</ele><time>2026-04-07T06:35:29.999Z</time></trkpt><trkpt lat="43.668794359844064" lon="10.713570967662182"><ele>19.0</ele><time>2026-04-07T06:35:30.999Z</time></trkpt><trkpt lat="43.668925191194056" lon="10.713818276686629"><ele>19.0</ele><time>2026-04-07T06:35:31.999Z</time></trkpt><trkpt lat="43.6690523080189" lon="10.714077702730645"><ele>19.0</ele><time>2026-04-07T06:35:32.999Z</time></trkpt><trkpt lat="43.66917043443407" lon="10.71433797136098"><ele>19.0</ele><time>2026-04-07T06:35:33.999Z</time></trkpt><trkpt lat="43.66927493788288" lon="10.714599135192657"><ele>19.0</ele><time>2026-04-07T06:35:34.999Z</time></trkpt><trkpt lat="43.66937168854599" lon="10.714858352795417"><ele>19.0</ele><time>2026-04-07T06:35:35.999Z</time></trkpt><trkpt lat="43.669460437200264" lon="10.715117246084837"><ele>19.333333333333332</ele><time>2026-04-07T06:35:36.999Z</time></trkpt><trkpt lat="43.66954724061914" lon="10.715385748236992"><ele>19.666666666666668</ele><time>2026-04-07T06:35:37.999Z</time></trkpt><trkpt lat="43.6696353812217" lon="10.715658284338792"><ele>20.0</ele><time>2026-04-07T06:35:38.999Z</time></trkpt><trkpt lat="43.66971848876454" lon="10.715922406084895"><ele>20.0</ele><time>2026-04-07T06:35:39.999Z</time></trkpt><trkpt lat="43.669789954931275" lon="10.71617520368631"><ele>20.0</ele><time>2026-04-07T06:35:40.999Z</time></trkpt><trkpt lat="43.6698531191225" lon="10.716414169009653"><ele>20.0</ele><time>2026-04-07T06:35:41.999Z</time></trkpt><trkpt lat="43.66990893826608" lon="10.716643439938592"><ele>20.0</ele><time>2026-04-07T06:35:42.999Z</time></trkpt><trkpt lat="43.669965145181564" lon="10.716877708847912"><ele>20.0</ele><time>2026-04-07T06:35:43.999Z</time></trkpt><trkpt lat="43.67002021737844" lon="10.717109897956782"><ele>20.0</ele><time>2026-04-07T06:35:44.999Z</time></trkpt><trkpt lat="43.67007840915817" lon="10.717341563089544"><ele>20.0</ele><time>2026-04-07T06:35:45.999Z</time></trkpt><trkpt lat="43.67013509306882" lon="10.717576329984098"><ele>20.0</ele><time>2026-04-07T06:35:46.999Z</time></trkpt><trkpt lat="43.67018945742547" lon="10.717809071491322"><ele>20.0</ele><time>2026-04-07T06:35:47.999Z</time></trkpt><trkpt lat="43.67024580528586" lon="10.718045341138733"><ele>20.0</ele><time>2026-04-07T06:35:48.999Z</time></trkpt><trkpt lat="43.670302711607505" lon="10.718286391473272"><ele>20.0</ele><time>2026-04-07T06:35:49.999Z</time></trkpt><trkpt lat="43.67036485745264" lon="10.718529562943166"><ele>20.0</ele><time>2026-04-07T06:35:50.999Z</time></trkpt><trkpt lat="43.670426346865625" lon="10.718777872622196"><ele>20.0</ele><time>2026-04-07T06:35:51.999Z</time></trkpt><trkpt lat="43.67048820546088" lon="10.719031456247258"><ele>20.0</ele><time>2026-04-07T06:35:52.999Z</time></trkpt><trkpt lat="43.67055390887304" lon="10.719292072683169"><ele>20.0</ele><time>2026-04-07T06:35:53.999Z</time></trkpt><trkpt lat="43.67062312276421" lon="10.719560625785851"><ele>20.666666666666668</ele><time>2026-04-07T06:35:54.999Z</time></trkpt><trkpt lat="43.67069143189579" lon="10.719837667566079"><ele>21.333333333333332</ele><time>2026-04-07T06:35:55.999Z</time></trkpt><trkpt lat="43.670757754092655" lon="10.720115927605514"><ele>22.0</ele><time>2026-04-07T06:35:56.999Z</time></trkpt><trkpt lat="43.67082531410533" lon="10.720398209164044"><ele>22.0</ele><time>2026-04-07T06:35:57.999Z</time></trkpt><trkpt lat="43.67089553209724" lon="10.720685550051211"><ele>22.0</ele><time>2026-04-07T06:35:58.999Z</time></trkpt><trkpt lat="43.67096844867438" lon="10.72097876161151"><ele>22.0</ele><time>2026-04-07T06:35:59.999Z</time></trkpt><trkpt lat="43.67104398462554" lon="10.721274526055723"><ele>21.5</ele><time>2026-04-07T06:36:00.999Z</time></trkpt><trkpt lat="43.67112006996945" lon="10.721576745593499"><ele>21.0</ele><time>2026-04-07T06:36:01.999Z</time></trkpt><trkpt lat="43.671193798625794" lon="10.721880575882864"><ele>21.0</ele><time>2026-04-07T06:36:02.999Z</time></trkpt><trkpt lat="43.67126879301151" lon="10.722186124119695"><ele>21.0</ele><time>2026-04-07T06:36:03.999Z</time></trkpt><trkpt lat="43.67134231475413" lon="10.722494383795764"><ele>21.0</ele><time>2026-04-07T06:36:04.999Z</time></trkpt><trkpt lat="43.67141646957614" lon="10.722798577154443"><ele>21.0</ele><time>2026-04-07T06:36:05.999Z</time></trkpt><trkpt lat="43.67149222281877" lon="10.72310256437451"><ele>21.0</ele><time>2026-04-07T06:36:06.999Z</time></trkpt><trkpt lat="43.67156648145995" lon="10.723414559022665"><ele>21.0</ele><time>2026-04-07T06:36:07.999Z</time></trkpt><trkpt lat="43.67163032596897" lon="10.723722140655376"><ele>21.5</ele><time>2026-04-07T06:36:08.999Z</time></trkpt><trkpt lat="43.67168370883328" lon="10.724044502611338"><ele>22.0</ele><time>2026-04-07T06:36:09.999Z</time></trkpt><trkpt lat="43.671726200336366" lon="10.724361172505118"><ele>22.5</ele><time>2026-04-07T06:36:10.999Z</time></trkpt><trkpt lat="43.671760892170475" lon="10.724684500379198"><ele>23.0</ele><time>2026-04-07T06:36:11.999Z</time></trkpt><trkpt lat="43.671787638830004" lon="10.725012041141555"><ele>22.0</ele><time>2026-04-07T06:36:12.999Z</time></trkpt><trkpt lat="43.67180923181746" lon="10.725344564458254"><ele>21.0</ele><time>2026-04-07T06:36:13.999Z</time></trkpt><trkpt lat="43.671824194563726" lon="10.725678302247328"><ele>21.0</ele><time>2026-04-07T06:36:14.999Z</time></trkpt><trkpt lat="43.67182685500432" lon="10.72601239049809"><ele>21.0</ele><time>2026-04-07T06:36:15.999Z</time></trkpt><trkpt lat="43.67182331330023" lon="10.726341677567138"><ele>21.0</ele><time>2026-04-07T06:36:16.999Z</time></trkpt><trkpt lat="43.671811747848025" lon="10.726661643257604"><ele>21.0</ele><time>2026-04-07T06:36:17.999Z</time></trkpt><trkpt lat="43.671791150789154" lon="10.726961485055345"><ele>22.666666666666664</ele><time>2026-04-07T06:36:18.999Z</time></trkpt><trkpt lat="43.671766142551355" lon="10.72725523765291"><ele>24.333333333333332</ele><time>2026-04-07T06:36:19.999Z</time></trkpt><trkpt lat="43.671739723899954" lon="10.727543090768568"><ele>26.0</ele><time>2026-04-07T06:36:20.999Z</time></trkpt><trkpt lat="43.671710566347556" lon="10.72783660339113"><ele>26.333333333333332</ele><time>2026-04-07T06:36:21.999Z</time></trkpt><trkpt lat="43.67168531549481" lon="10.728134277784992"><ele>26.666666666666664</ele><time>2026-04-07T06:36:22.999Z</time></trkpt><trkpt lat="43.671655214957326" lon="10.728435271788674"><ele>27.0</ele><time>2026-04-07T06:36:23.999Z</time></trkpt><trkpt lat="43.671628074822436" lon="10.728736310719485"><ele>26.0</ele><time>2026-04-07T06:36:24.999Z</time></trkpt><trkpt lat="43.671601063133814" lon="10.72904642267688"><ele>25.0</ele><time>2026-04-07T06:36:25.999Z</time></trkpt><trkpt lat="43.671573794455654" lon="10.729356634295147"><ele>25.0</ele><time>2026-04-07T06:36:26.999Z</time></trkpt><trkpt lat="43.67154703176116" lon="10.72967012049882"><ele>25.0</ele><time>2026-04-07T06:36:27.999Z</time></trkpt><trkpt lat="43.67151773106705" lon="10.729983800180802"><ele>24.5</ele><time>2026-04-07T06:36:28.999Z</time></trkpt><trkpt lat="43.67149218676369" lon="10.730300619190503"><ele>24.0</ele><time>2026-04-07T06:36:29.999Z</time></trkpt><trkpt lat="43.6714688491454" lon="10.73061234105235"><ele>24.0</ele><time>2026-04-07T06:36:30.999Z</time></trkpt><trkpt lat="43.67144222394606" lon="10.73092582848768"><ele>24.0</ele><time>2026-04-07T06:36:31.999Z</time></trkpt><trkpt lat="43.671414948417414" lon="10.731239613977495"><ele>24.0</ele><time>2026-04-07T06:36:32.999Z</time></trkpt><trkpt lat="43.67138728224634" lon="10.731550020614302"><ele>24.0</ele><time>2026-04-07T06:36:33.999Z</time></trkpt><trkpt lat="43.67136093221867" lon="10.731855453486736"><ele>24.0</ele><time>2026-04-07T06:36:34.999Z</time></trkpt><trkpt lat="43.67133425764399" lon="10.732167387312833"><ele>24.0</ele><time>2026-04-07T06:36:35.999Z</time></trkpt><trkpt lat="43.67130490083452" lon="10.732474226350256"><ele>24.0</ele><time>2026-04-07T06:36:36.999Z</time></trkpt><trkpt lat="43.67127445375363" lon="10.73278689033323"><ele>24.5</ele><time>2026-04-07T06:36:37.999Z</time></trkpt><trkpt lat="43.67124557370933" lon="10.733101616320964"><ele>25.0</ele><time>2026-04-07T06:36:38.999Z</time></trkpt><trkpt lat="43.67121858878827" lon="10.733417891098313"><ele>25.0</ele><time>2026-04-07T06:36:39.999Z</time></trkpt><trkpt lat="43.67119359942681" lon="10.733738235378324"><ele>25.0</ele><time>2026-04-07T06:36:40.999Z</time></trkpt><trkpt lat="43.67116913163998" lon="10.734060801160075"><ele>25.0</ele><time>2026-04-07T06:36:41.999Z</time></trkpt><trkpt lat="43.67114240274426" lon="10.734382604404885"><ele>25.0</ele><time>2026-04-07T06:36:42.999Z</time></trkpt><trkpt lat="43.671115222188554" lon="10.734709667269804"><ele>25.0</ele><time>2026-04-07T06:36:43.999Z</time></trkpt><trkpt lat="43.671089278324146" lon="10.73503586909353"><ele>25.0</ele><time>2026-04-07T06:36:45Z</time></trkpt><trkpt lat="43.67106325841096" lon="10.735365352947788"><ele>25.0</ele><time>2026-04-07T06:36:46Z</time></trkpt><trkpt lat="43.67104142501678" lon="10.73569567400186"><ele>25.0</ele><time>2026-04-07T06:36:47Z</time></trkpt><trkpt lat="43.671024343443136" lon="10.736019296155206"><ele>25.0</ele><time>2026-04-07T06:36:48Z</time></trkpt><trkpt lat="43.67101766974313" lon="10.736348168922062"><ele>25.0</ele><time>2026-04-07T06:36:49Z</time></trkpt><trkpt lat="43.67101833691337" lon="10.73667906825275"><ele>25.5</ele><time>2026-04-07T06:36:50Z</time></trkpt><trkpt lat="43.67102560296958" lon="10.737009768706727"><ele>26.0</ele><time>2026-04-07T06:36:51Z</time></trkpt><trkpt lat="43.67103986055568" lon="10.737336803042004"><ele>26.0</ele><time>2026-04-07T06:36:51.999Z</time></trkpt><trkpt lat="43.67106600763704" lon="10.737661201729441"><ele>26.0</ele><time>2026-04-07T06:36:52.999Z</time></trkpt><trkpt lat="43.6711000439714" lon="10.737977787592202"><ele>28.0</ele><time>2026-04-07T06:36:53.999Z</time></trkpt><trkpt lat="43.671149106622835" lon="10.738283531518052"><ele>30.0</ele><time>2026-04-07T06:36:54.999Z</time></trkpt><trkpt lat="43.67120659791962" lon="10.738592830429486"><ele>30.0</ele><time>2026-04-07T06:36:55.999Z</time></trkpt><trkpt lat="43.671271026377845" lon="10.738898587101684"><ele>30.0</ele><time>2026-04-07T06:36:57Z</time></trkpt><trkpt lat="43.6713475077905" lon="10.739204118817947"><ele>30.0</ele><time>2026-04-07T06:36:58Z</time></trkpt><trkpt lat="43.671427163809916" lon="10.73950377439271"><ele>30.0</ele><time>2026-04-07T06:36:59Z</time></trkpt><trkpt lat="43.67151714161913" lon="10.739811913094067"><ele>30.0</ele><time>2026-04-07T06:37:00Z</time></trkpt><trkpt lat="43.67161292517188" lon="10.740095122499424"><ele>30.0</ele><time>2026-04-07T06:37:00.999Z</time></trkpt><trkpt lat="43.67172069930353" lon="10.74038903400473"><ele>30.5</ele><time>2026-04-07T06:37:01.999Z</time></trkpt><trkpt lat="43.671843295650994" lon="10.74066834693699"><ele>31.0</ele><time>2026-04-07T06:37:02.999Z</time></trkpt><trkpt lat="43.67197727599939" lon="10.740935012074011"><ele>31.0</ele><time>2026-04-07T06:37:03.999Z</time></trkpt><trkpt lat="43.67211925051003" lon="10.741198964922644"><ele>31.0</ele><time>2026-04-07T06:37:04.999Z</time></trkpt><trkpt lat="43.67226746231657" lon="10.741453495162224"><ele>31.0</ele><time>2026-04-07T06:37:05.999Z</time></trkpt><trkpt lat="43.67242166425932" lon="10.741699320546473"><ele>31.0</ele><time>2026-04-07T06:37:06.999Z</time></trkpt><trkpt lat="43.67258596266045" lon="10.74193776145081"><ele>31.0</ele><time>2026-04-07T06:37:07.999Z</time></trkpt><trkpt lat="43.67275491019224" lon="10.742167786324407"><ele>31.0</ele><time>2026-04-07T06:37:08.999Z</time></trkpt><trkpt lat="43.67293067896265" lon="10.742393841220407"><ele>32.0</ele><time>2026-04-07T06:37:09.999Z</time></trkpt><trkpt lat="43.67311107501904" lon="10.742615575687939"><ele>33.0</ele><time>2026-04-07T06:37:10.999Z</time></trkpt><trkpt lat="43.67329579900738" lon="10.742837620228986"><ele>33.0</ele><time>2026-04-07T06:37:11.999Z</time></trkpt><trkpt lat="43.67348116398577" lon="10.743055130625642"><ele>33.0</ele><time>2026-04-07T06:37:12.999Z</time></trkpt><trkpt lat="43.67366582648977" lon="10.743266343383125"><ele>37.5</ele><time>2026-04-07T06:37:14Z</time></trkpt><trkpt lat="43.67385572293889" lon="10.74348627489178"><ele>42.0</ele><time>2026-04-07T06:37:15Z</time></trkpt><trkpt lat="43.674043280633406" lon="10.743702390471515"><ele>42.5</ele><time>2026-04-07T06:37:16Z</time></trkpt><trkpt lat="43.6742320778597" lon="10.743917444557129"><ele>43.0</ele><time>2026-04-07T06:37:17Z</time></trkpt><trkpt lat="43.674420694484" lon="10.744131799852846"><ele>44.5</ele><time>2026-04-07T06:37:18Z</time></trkpt><trkpt lat="43.67460806846498" lon="10.744346165676982"><ele>46.0</ele><time>2026-04-07T06:37:19Z</time></trkpt><trkpt lat="43.67479363022891" lon="10.744558852635945"><ele>46.0</ele><time>2026-04-07T06:37:20Z</time></trkpt><trkpt lat="43.67497700753762" lon="10.74477391550775"><ele>46.0</ele><time>2026-04-07T06:37:21Z</time></trkpt><trkpt lat="43.67516311132635" lon="10.744984746715826"><ele>47.0</ele><time>2026-04-07T06:37:22Z</time></trkpt><trkpt lat="43.67534732130149" lon="10.745190160902307"><ele>48.0</ele><time>2026-04-07T06:37:23Z</time></trkpt><trkpt lat="43.675529903152466" lon="10.745394224539698"><ele>48.0</ele><time>2026-04-07T06:37:24Z</time></trkpt><trkpt lat="43.675705478680094" lon="10.745594284883618"><ele>48.0</ele><time>2026-04-07T06:37:25Z</time></trkpt><trkpt lat="43.67587666444355" lon="10.745788078350525"><ele>48.0</ele><time>2026-04-07T06:37:26Z</time></trkpt><trkpt lat="43.67605099308709" lon="10.745986283295448"><ele>45.0</ele><time>2026-04-07T06:37:27Z</time></trkpt><trkpt lat="43.67622381414508" lon="10.746179748630581"><ele>42.0</ele><time>2026-04-07T06:37:28Z</time></trkpt><trkpt lat="43.676393980870905" lon="10.746374623194928"><ele>39.0</ele><time>2026-04-07T06:37:29Z</time></trkpt><trkpt lat="43.67656615154795" lon="10.746570107328122"><ele>39.0</ele><time>2026-04-07T06:37:30Z</time></trkpt><trkpt lat="43.67673560478032" lon="10.746766456204213"><ele>39.0</ele><time>2026-04-07T06:37:31Z</time></trkpt><trkpt lat="43.67690526075545" lon="10.746963417640972"><ele>39.0</ele><time>2026-04-07T06:37:32Z</time></trkpt><trkpt lat="43.67707083288729" lon="10.747160412546124"><ele>42.0</ele><time>2026-04-07T06:37:33Z</time></trkpt><trkpt lat="43.677242614872355" lon="10.74737539651541"><ele>45.0</ele><time>2026-04-07T06:37:34Z</time></trkpt><trkpt lat="43.677408220680285" lon="10.74759821626066"><ele>48.0</ele><time>2026-04-07T06:37:35Z</time></trkpt><trkpt lat="43.67757096400327" lon="10.747828406121625"><ele>51.0</ele><time>2026-04-07T06:37:36Z</time></trkpt><trkpt lat="43.677728901919586" lon="10.748063478404765"><ele>51.0</ele><time>2026-04-07T06:37:37Z</time></trkpt><trkpt lat="43.677879715410874" lon="10.74830310899579"><ele>51.0</ele><time>2026-04-07T06:37:38Z</time></trkpt><trkpt lat="43.67802561008174" lon="10.748540791615422"><ele>48.666666666666664</ele><time>2026-04-07T06:37:39Z</time></trkpt><trkpt lat="43.67816215110287" lon="10.748778937253515"><ele>46.33333333333333</ele><time>2026-04-07T06:37:40Z</time></trkpt><trkpt lat="43.6782978416737" lon="10.749021506629985"><ele>44.0</ele><time>2026-04-07T06:37:41Z</time></trkpt><trkpt lat="43.678423238037986" lon="10.749266245212336"><ele>39.5</ele><time>2026-04-07T06:37:42Z</time></trkpt><trkpt lat="43.67855673938106" lon="10.74952141036769"><ele>35.0</ele><time>2026-04-07T06:37:43Z</time></trkpt><trkpt lat="43.678686365450154" lon="10.749771864441664"><ele>34.0</ele><time>2026-04-07T06:37:44Z</time></trkpt><trkpt lat="43.67881567576192" lon="10.750033063599396"><ele>33.0</ele><time>2026-04-07T06:37:45Z</time></trkpt><trkpt lat="43.67894826820953" lon="10.750295430733042"><ele>34.333333333333336</ele><time>2026-04-07T06:37:46Z</time></trkpt><trkpt lat="43.679072653232886" lon="10.750542383015638"><ele>35.66666666666667</ele><time>2026-04-07T06:37:47Z</time></trkpt><trkpt lat="43.679196405019916" lon="10.750784596899083"><ele>37.0</ele><time>2026-04-07T06:37:48Z</time></trkpt><trkpt lat="43.67932061524302" lon="10.751033165206978"><ele>39.0</ele><time>2026-04-07T06:37:49Z</time></trkpt><trkpt lat="43.6794469118615" lon="10.75127941265357"><ele>41.0</ele><time>2026-04-07T06:37:50Z</time></trkpt><trkpt lat="43.679576238638155" lon="10.751538753009255"><ele>43.0</ele><time>2026-04-07T06:37:51Z</time></trkpt><trkpt lat="43.679699293686774" lon="10.751781237470384"><ele>41.333333333333336</ele><time>2026-04-07T06:37:52Z</time></trkpt><trkpt lat="43.67982601955811" lon="10.752032916641554"><ele>39.666666666666664</ele><time>2026-04-07T06:37:53Z</time></trkpt><trkpt lat="43.679955238913166" lon="10.752278190465551"><ele>38.0</ele><time>2026-04-07T06:37:54Z</time></trkpt><trkpt lat="43.68008325064004" lon="10.752531424362708"><ele>36.33333333333333</ele><time>2026-04-07T06:37:55Z</time></trkpt><trkpt lat="43.68021176182104" lon="10.752782580112669"><ele>34.666666666666664</ele><time>2026-04-07T06:37:56Z</time></trkpt><trkpt lat="43.680339633703454" lon="10.753029328928495"><ele>33.0</ele><time>2026-04-07T06:37:57Z</time></trkpt><trkpt lat="43.6804729831421" lon="10.75328173503648"><ele>33.0</ele><time>2026-04-07T06:37:58Z</time></trkpt><trkpt lat="43.680595857221164" lon="10.753527359496642"><ele>33.0</ele><time>2026-04-07T06:37:59Z</time></trkpt><trkpt lat="43.6807308883511" lon="10.753787649627512"><ele>33.0</ele><time>2026-04-07T06:38:00Z</time></trkpt><trkpt lat="43.680857167262666" lon="10.75403903718385"><ele>33.0</ele><time>2026-04-07T06:38:01Z</time></trkpt><trkpt lat="43.680987933689586" lon="10.754296747390688"><ele>33.0</ele><time>2026-04-07T06:38:02Z</time></trkpt><trkpt lat="43.68111913680621" lon="10.75455554004831"><ele>32.5</ele><time>2026-04-07T06:38:03Z</time></trkpt><trkpt lat="43.681252236017954" lon="10.754818838467463"><ele>32.0</ele><time>2026-04-07T06:38:04Z</time></trkpt><trkpt lat="43.681386808396475" lon="10.755080664463678"><ele>31.5</ele><time>2026-04-07T06:38:05Z</time></trkpt><trkpt lat="43.68152141088072" lon="10.75533613638613"><ele>31.0</ele><time>2026-04-07T06:38:06Z</time></trkpt><trkpt lat="43.68164804526536" lon="10.755591531729346"><ele>31.0</ele><time>2026-04-07T06:38:07Z</time></trkpt><trkpt lat="43.68177773058184" lon="10.755848386435071"><ele>31.0</ele><time>2026-04-07T06:38:08Z</time></trkpt><trkpt lat="43.68190743133614" lon="10.756104590760472"><ele>30.0</ele><time>2026-04-07T06:38:09Z</time></trkpt><trkpt lat="43.682031267916464" lon="10.756354561919533"><ele>29.0</ele><time>2026-04-07T06:38:10Z</time></trkpt><trkpt lat="43.682161948958786" lon="10.75661730924324"><ele>30.0</ele><time>2026-04-07T06:38:11Z</time></trkpt><trkpt lat="43.6822797310426" lon="10.756878014697566"><ele>31.0</ele><time>2026-04-07T06:38:12Z</time></trkpt><trkpt lat="43.68239643487512" lon="10.757149922289347"><ele>31.0</ele><time>2026-04-07T06:38:13Z</time></trkpt><trkpt lat="43.68250898446928" lon="10.757428855744154"><ele>31.0</ele><time>2026-04-07T06:38:14Z</time></trkpt><trkpt lat="43.68261797286376" lon="10.757716967193366"><ele>30.5</ele><time>2026-04-07T06:38:15Z</time></trkpt><trkpt lat="43.682718418046264" lon="10.758011949433566"><ele>30.0</ele><time>2026-04-07T06:38:16Z</time></trkpt><trkpt lat="43.68280530011551" lon="10.758309769347761"><ele>31.0</ele><time>2026-04-07T06:38:17Z</time></trkpt><trkpt lat="43.682887010985034" lon="10.758597674035327"><ele>32.0</ele><time>2026-04-07T06:38:18Z</time></trkpt><trkpt lat="43.68296330226442" lon="10.75888312016889"><ele>33.0</ele><time>2026-04-07T06:38:19Z</time></trkpt><trkpt lat="43.68303309623253" lon="10.759162853565126"><ele>33.666666666666664</ele><time>2026-04-07T06:38:20Z</time></trkpt><trkpt lat="43.683093816985874" lon="10.759432211497158"><ele>34.33333333333333</ele><time>2026-04-07T06:38:21Z</time></trkpt><trkpt lat="43.683148620273755" lon="10.759698028570758"><ele>35.0</ele><time>2026-04-07T06:38:22Z</time></trkpt><trkpt lat="43.683203392027806" lon="10.759970907958813"><ele>35.33333333333333</ele><time>2026-04-07T06:38:23Z</time></trkpt><trkpt lat="43.68326157061938" lon="10.760251222498221"><ele>35.666666666666664</ele><time>2026-04-07T06:38:24Z</time></trkpt><trkpt lat="43.68331844337823" lon="10.760540729457611"><ele>36.0</ele><time>2026-04-07T06:38:25Z</time></trkpt><trkpt lat="43.68337651074018" lon="10.760832158977893"><ele>34.666666666666664</ele><time>2026-04-07T06:38:26Z</time></trkpt><trkpt lat="43.68343685522287" lon="10.761128530648742"><ele>33.33333333333333</ele><time>2026-04-07T06:38:27Z</time></trkpt><trkpt lat="43.68349540339854" lon="10.76143111346621"><ele>32.0</ele><time>2026-04-07T06:38:28Z</time></trkpt><trkpt lat="43.68355400227823" lon="10.761731793311183"><ele>31.5</ele><time>2026-04-07T06:38:29Z</time></trkpt><trkpt lat="43.683610197680935" lon="10.762033570202329"><ele>31.0</ele><time>2026-04-07T06:38:30Z</time></trkpt><trkpt lat="43.683664211694776" lon="10.762339836632702"><ele>31.0</ele><time>2026-04-07T06:38:31Z</time></trkpt><trkpt lat="43.6837125291931" lon="10.762639108340117"><ele>31.0</ele><time>2026-04-07T06:38:32Z</time></trkpt><trkpt lat="43.68375442402616" lon="10.762940059240734"><ele>31.0</ele><time>2026-04-07T06:38:33Z</time></trkpt><trkpt lat="43.683792148014476" lon="10.763242564591119"><ele>31.333333333333336</ele><time>2026-04-07T06:38:34Z</time></trkpt><trkpt lat="43.683824205824884" lon="10.763544120119812"><ele>31.666666666666664</ele><time>2026-04-07T06:38:35Z</time></trkpt><trkpt lat="43.68384911668918" lon="10.763851130296384"><ele>32.0</ele><time>2026-04-07T06:38:36Z</time></trkpt><trkpt lat="43.683869310328916" lon="10.764153082260407"><ele>32.33333333333333</ele><time>2026-04-07T06:38:37Z</time></trkpt><trkpt lat="43.68388785827871" lon="10.764453601945823"><ele>32.666666666666664</ele><time>2026-04-07T06:38:38Z</time></trkpt><trkpt lat="43.68390620325218" lon="10.764756237342922"><ele>33.0</ele><time>2026-04-07T06:38:39Z</time></trkpt><trkpt lat="43.683923201113075" lon="10.765058453887368"><ele>33.0</ele><time>2026-04-07T06:38:40Z</time></trkpt><trkpt lat="43.683938379374865" lon="10.765361972180685"><ele>33.0</ele><time>2026-04-07T06:38:41Z</time></trkpt><trkpt lat="43.68395382829096" lon="10.76565282227918"><ele>33.0</ele><time>2026-04-07T06:38:42Z</time></trkpt><trkpt lat="43.68396888115432" lon="10.765947807503974"><ele>33.333333333333336</ele><time>2026-04-07T06:38:43Z</time></trkpt><trkpt lat="43.683984706356235" lon="10.766244151776728"><ele>33.66666666666667</ele><time>2026-04-07T06:38:44Z</time></trkpt><trkpt lat="43.68400173214041" lon="10.766542267570578"><ele>34.0</ele><time>2026-04-07T06:38:45Z</time></trkpt><trkpt lat="43.684017253162466" lon="10.766843738129932"><ele>34.66666666666667</ele><time>2026-04-07T06:38:46Z</time></trkpt><trkpt lat="43.684034220320264" lon="10.767143946952157"><ele>35.333333333333336</ele><time>2026-04-07T06:38:47Z</time></trkpt><trkpt lat="43.68405722744178" lon="10.767446110995358"><ele>36.0</ele><time>2026-04-07T06:38:48Z</time></trkpt><trkpt lat="43.684083816285614" lon="10.767741881477228"><ele>36.0</ele><time>2026-04-07T06:38:49Z</time></trkpt><trkpt lat="43.68411626376859" lon="10.768034820043"><ele>36.0</ele><time>2026-04-07T06:38:50Z</time></trkpt><trkpt lat="43.684152912868505" lon="10.768304904729884"><ele>36.0</ele><time>2026-04-07T06:38:51.001Z</time></trkpt><trkpt lat="43.68419441302692" lon="10.768567265928425"><ele>35.666666666666664</ele><time>2026-04-07T06:38:52.001Z</time></trkpt><trkpt lat="43.68424669476837" lon="10.768826688129913"><ele>35.33333333333333</ele><time>2026-04-07T06:38:53.001Z</time></trkpt><trkpt lat="43.68430629660398" lon="10.769082143795934"><ele>35.0</ele><time>2026-04-07T06:38:54.001Z</time></trkpt><trkpt lat="43.684370451050064" lon="10.769340163001129"><ele>36.33333333333333</ele><time>2026-04-07T06:38:55.001Z</time></trkpt><trkpt lat="43.68443460017446" lon="10.76959471508282"><ele>37.666666666666664</ele><time>2026-04-07T06:38:56.001Z</time></trkpt><trkpt lat="43.684499915471314" lon="10.769849121170678"><ele>39.0</ele><time>2026-04-07T06:38:57.001Z</time></trkpt><trkpt lat="43.68456455117943" lon="10.770087058199412"><ele>39.0</ele><time>2026-04-07T06:38:58.001Z</time></trkpt><trkpt lat="43.684633508281884" lon="10.77031450965742"><ele>39.0</ele><time>2026-04-07T06:38:59Z</time></trkpt><trkpt lat="43.68470947308633" lon="10.770547852495442"><ele>39.0</ele><time>2026-04-07T06:39:00Z</time></trkpt><trkpt lat="43.68478943801548" lon="10.770778046356781"><ele>39.0</ele><time>2026-04-07T06:39:01.001Z</time></trkpt><trkpt lat="43.68487128014384" lon="10.7709987295316"><ele>39.0</ele><time>2026-04-07T06:39:02Z</time></trkpt><trkpt lat="43.684951139692906" lon="10.77121479365968"><ele>39.0</ele><time>2026-04-07T06:39:03Z</time></trkpt><trkpt lat="43.68503150787087" lon="10.771427089034898"><ele>39.333333333333336</ele><time>2026-04-07T06:39:04Z</time></trkpt><trkpt lat="43.685110033159084" lon="10.771629924448332"><ele>39.66666666666667</ele><time>2026-04-07T06:39:05Z</time></trkpt><trkpt lat="43.685187807806976" lon="10.771830043289725"><ele>40.0</ele><time>2026-04-07T06:39:06Z</time></trkpt><trkpt lat="43.685263345444966" lon="10.772026228326187"><ele>42.0</ele><time>2026-04-07T06:39:07Z</time></trkpt><trkpt lat="43.685344512967404" lon="10.772233562272726"><ele>44.0</ele><time>2026-04-07T06:39:08Z</time></trkpt><trkpt lat="43.685430960074804" lon="10.772458834277147"><ele>46.0</ele><time>2026-04-07T06:39:09Z</time></trkpt><trkpt lat="43.68552330676486" lon="10.772704515903541"><ele>46.333333333333336</ele><time>2026-04-07T06:39:10Z</time></trkpt><trkpt lat="43.68561473079156" lon="10.772949180912578"><ele>46.666666666666664</ele><time>2026-04-07T06:39:11Z</time></trkpt><trkpt lat="43.68571028355552" lon="10.773196888552674"><ele>47.0</ele><time>2026-04-07T06:39:12Z</time></trkpt><trkpt lat="43.685805545323916" lon="10.77344941495554"><ele>48.0</ele><time>2026-04-07T06:39:13Z</time></trkpt><trkpt lat="43.68589460591696" lon="10.773700305630983"><ele>49.0</ele><time>2026-04-07T06:39:14Z</time></trkpt><trkpt lat="43.685976093238644" lon="10.773954553682252"><ele>50.0</ele><time>2026-04-07T06:39:15Z</time></trkpt><trkpt lat="43.68605145724776" lon="10.774215012720074"><ele>51.333333333333336</ele><time>2026-04-07T06:39:16Z</time></trkpt><trkpt lat="43.68611888360623" lon="10.774473898901016"><ele>52.66666666666667</ele><time>2026-04-07T06:39:17Z</time></trkpt><trkpt lat="43.68618857321872" lon="10.774738490636265"><ele>54.0</ele><time>2026-04-07T06:39:18Z</time></trkpt><trkpt lat="43.68625789615204" lon="10.775004217947593"><ele>54.33333333333333</ele><time>2026-04-07T06:39:19Z</time></trkpt><trkpt lat="43.6863290745153" lon="10.775259362140556"><ele>54.666666666666664</ele><time>2026-04-07T06:39:20Z</time></trkpt><trkpt lat="43.68640841780165" lon="10.77551443724134"><ele>55.0</ele><time>2026-04-07T06:39:21Z</time></trkpt><trkpt lat="43.686494268679006" lon="10.77574958755043"><ele>55.0</ele><time>2026-04-07T06:39:22Z</time></trkpt><trkpt lat="43.68658689679522" lon="10.7759793809377"><ele>55.0</ele><time>2026-04-07T06:39:23Z</time></trkpt><trkpt lat="43.68668696099368" lon="10.776209309605923"><ele>55.0</ele><time>2026-04-07T06:39:24Z</time></trkpt><trkpt lat="43.686779401385074" lon="10.776452891953937"><ele>50.0</ele><time>2026-04-07T06:39:25Z</time></trkpt><trkpt lat="43.68690139437812" lon="10.776730310763574"><ele>45.0</ele><time>2026-04-07T06:39:26Z</time></trkpt><trkpt lat="43.68702978992171" lon="10.776982144477762"><ele>43.333333333333336</ele><time>2026-04-07T06:39:27Z</time></trkpt><trkpt lat="43.687165496665784" lon="10.777221701169287"><ele>41.66666666666667</ele><time>2026-04-07T06:39:28Z</time></trkpt><trkpt lat="43.68729834970689" lon="10.777463730609856"><ele>40.0</ele><time>2026-04-07T06:39:29Z</time></trkpt><trkpt lat="43.687429212796836" lon="10.7776962036037"><ele>40.0</ele><time>2026-04-07T06:39:30Z</time></trkpt><trkpt lat="43.687563244204924" lon="10.777925258992873"><ele>40.0</ele><time>2026-04-07T06:39:31Z</time></trkpt><trkpt lat="43.68769700736961" lon="10.77815221458168"><ele>40.0</ele><time>2026-04-07T06:39:32Z</time></trkpt><trkpt lat="43.68783018204007" lon="10.7783843225179"><ele>37.0</ele><time>2026-04-07T06:39:33Z</time></trkpt><trkpt lat="43.68796692742901" lon="10.778620414610405"><ele>34.0</ele><time>2026-04-07T06:39:34Z</time></trkpt><trkpt lat="43.688108336276166" lon="10.778864978266018"><ele>31.0</ele><time>2026-04-07T06:39:35Z</time></trkpt><trkpt lat="43.68825015715627" lon="10.779106921356933"><ele>30.5</ele><time>2026-04-07T06:39:36Z</time></trkpt><trkpt lat="43.68839443115632" lon="10.779355764146155"><ele>30.0</ele><time>2026-04-07T06:39:37Z</time></trkpt><trkpt lat="43.68853758280647" lon="10.779603473903622"><ele>27.0</ele><time>2026-04-07T06:39:38Z</time></trkpt><trkpt lat="43.68868260162065" lon="10.77985235117865"><ele>24.0</ele><time>2026-04-07T06:39:39Z</time></trkpt><trkpt lat="43.68883334845288" lon="10.78010771422239"><ele>24.5</ele><time>2026-04-07T06:39:40Z</time></trkpt><trkpt lat="43.6889890021824" lon="10.780368702906577"><ele>25.0</ele><time>2026-04-07T06:39:41Z</time></trkpt><trkpt lat="43.68914435666014" lon="10.780631251786309"><ele>25.0</ele><time>2026-04-07T06:39:42Z</time></trkpt><trkpt lat="43.68929188404433" lon="10.780885367944677"><ele>25.0</ele><time>2026-04-07T06:39:43Z</time></trkpt><trkpt lat="43.68943594527468" lon="10.78113652469788"><ele>23.5</ele><time>2026-04-07T06:39:44Z</time></trkpt><trkpt lat="43.68958280993679" lon="10.781390028402614"><ele>22.0</ele><time>2026-04-07T06:39:45Z</time></trkpt><trkpt lat="43.68973121683734" lon="10.781644014983659"><ele>22.0</ele><time>2026-04-07T06:39:46Z</time></trkpt><trkpt lat="43.68987622006439" lon="10.781890083333087"><ele>22.0</ele><time>2026-04-07T06:39:47Z</time></trkpt><trkpt lat="43.69001678519821" lon="10.782129711930455"><ele>22.0</ele><time>2026-04-07T06:39:48Z</time></trkpt><trkpt lat="43.69015882772239" lon="10.782373031689351"><ele>22.0</ele><time>2026-04-07T06:39:49Z</time></trkpt><trkpt lat="43.69030399172037" lon="10.78262147270485"><ele>22.5</ele><time>2026-04-07T06:39:50Z</time></trkpt><trkpt lat="43.69045081920488" lon="10.78287047524485"><ele>23.0</ele><time>2026-04-07T06:39:51Z</time></trkpt><trkpt lat="43.69059568861691" lon="10.783120947848854"><ele>23.0</ele><time>2026-04-07T06:39:52Z</time></trkpt><trkpt lat="43.6907408541071" lon="10.783373919779928"><ele>23.0</ele><time>2026-04-07T06:39:53Z</time></trkpt><trkpt lat="43.69088537804292" lon="10.783620929083526"><ele>23.0</ele><time>2026-04-07T06:39:54Z</time></trkpt><trkpt lat="43.69103274632551" lon="10.783872543017226"><ele>23.0</ele><time>2026-04-07T06:39:55Z</time></trkpt><trkpt lat="43.691180972548096" lon="10.784126209994884"><ele>22.5</ele><time>2026-04-07T06:39:56Z</time></trkpt><trkpt lat="43.69133205367378" lon="10.784382019351295"><ele>22.0</ele><time>2026-04-07T06:39:57Z</time></trkpt><trkpt lat="43.69148204172395" lon="10.784638008250733"><ele>22.0</ele><time>2026-04-07T06:39:58Z</time></trkpt><trkpt lat="43.69163131497257" lon="10.784894554655358"><ele>22.0</ele><time>2026-04-07T06:39:59Z</time></trkpt><trkpt lat="43.69178546992487" lon="10.785157322096007"><ele>22.5</ele><time>2026-04-07T06:40:00Z</time></trkpt><trkpt lat="43.69193711709851" lon="10.785418044380831"><ele>23.0</ele><time>2026-04-07T06:40:01Z</time></trkpt><trkpt lat="43.69208865489363" lon="10.785674541504354"><ele>23.0</ele><time>2026-04-07T06:40:02Z</time></trkpt><trkpt lat="43.69223222737801" lon="10.78591827695875"><ele>23.0</ele><time>2026-04-07T06:40:03Z</time></trkpt><trkpt lat="43.69238644522184" lon="10.786182211515383"><ele>22.0</ele><time>2026-04-07T06:40:04Z</time></trkpt><trkpt lat="43.69253082901091" lon="10.786426119204556"><ele>21.0</ele><time>2026-04-07T06:40:05Z</time></trkpt><trkpt lat="43.69267634368749" lon="10.78667484595462"><ele>22.0</ele><time>2026-04-07T06:40:06Z</time></trkpt><trkpt lat="43.692823706423795" lon="10.786926150712773"><ele>23.0</ele><time>2026-04-07T06:40:07Z</time></trkpt><trkpt lat="43.6929720519847" lon="10.787177178505408"><ele>23.0</ele><time>2026-04-07T06:40:08Z</time></trkpt><trkpt lat="43.69312010604793" lon="10.787430093606897"><ele>23.0</ele><time>2026-04-07T06:40:09Z</time></trkpt><trkpt lat="43.693271086028304" lon="10.787684684103755"><ele>22.5</ele><time>2026-04-07T06:40:10Z</time></trkpt><trkpt lat="43.69341973762062" lon="10.787940838702102"><ele>22.0</ele><time>2026-04-07T06:40:11Z</time></trkpt><trkpt lat="43.69356767605964" lon="10.788198369095273"><ele>22.5</ele><time>2026-04-07T06:40:12Z</time></trkpt><trkpt lat="43.69371475435071" lon="10.788463933139324"><ele>23.0</ele><time>2026-04-07T06:40:13Z</time></trkpt><trkpt lat="43.69385996280564" lon="10.788730759268825"><ele>23.0</ele><time>2026-04-07T06:40:14Z</time></trkpt><trkpt lat="43.69400463923897" lon="10.788999244905982"><ele>23.0</ele><time>2026-04-07T06:40:15Z</time></trkpt><trkpt lat="43.694144004442244" lon="10.789253492663583"><ele>22.333333333333336</ele><time>2026-04-07T06:40:16Z</time></trkpt><trkpt lat="43.694283231794984" lon="10.789496626706969"><ele>21.666666666666668</ele><time>2026-04-07T06:40:17Z</time></trkpt><trkpt lat="43.69442545852256" lon="10.789733388139721"><ele>21.0</ele><time>2026-04-07T06:40:18Z</time></trkpt><trkpt lat="43.69457479533556" lon="10.78997193113202"><ele>20.5</ele><time>2026-04-07T06:40:19Z</time></trkpt><trkpt lat="43.694718151648125" lon="10.790218967940213"><ele>20.0</ele><time>2026-04-07T06:40:20Z</time></trkpt><trkpt lat="43.69485833103358" lon="10.790468223110151"><ele>20.0</ele><time>2026-04-07T06:40:21Z</time></trkpt><trkpt lat="43.694995300540185" lon="10.790720483379562"><ele>20.0</ele><time>2026-04-07T06:40:22Z</time></trkpt><trkpt lat="43.69513298146942" lon="10.790982312342074"><ele>20.0</ele><time>2026-04-07T06:40:23Z</time></trkpt><trkpt lat="43.695262829961024" lon="10.791241670190166"><ele>20.0</ele><time>2026-04-07T06:40:24Z</time></trkpt><trkpt lat="43.69538946808418" lon="10.79150564791047"><ele>20.0</ele><time>2026-04-07T06:40:25Z</time></trkpt><trkpt lat="43.69551223071725" lon="10.791770156886173"><ele>20.0</ele><time>2026-04-07T06:40:26Z</time></trkpt><trkpt lat="43.69563605463479" lon="10.792034687445755"><ele>21.0</ele><time>2026-04-07T06:40:27Z</time></trkpt><trkpt lat="43.69576295898787" lon="10.792311534602378"><ele>22.0</ele><time>2026-04-07T06:40:28Z</time></trkpt><trkpt lat="43.69588035055996" lon="10.79259661899312"><ele>22.5</ele><time>2026-04-07T06:40:29Z</time></trkpt><trkpt lat="43.695987895576344" lon="10.792885930737734"><ele>23.0</ele><time>2026-04-07T06:40:30Z</time></trkpt><trkpt lat="43.69608586453746" lon="10.793174087631208"><ele>21.5</ele><time>2026-04-07T06:40:31Z</time></trkpt><trkpt lat="43.696180427204006" lon="10.793464050675976"><ele>20.0</ele><time>2026-04-07T06:40:32Z</time></trkpt><trkpt lat="43.69626076672722" lon="10.793755078463647"><ele>20.0</ele><time>2026-04-07T06:40:33Z</time></trkpt><trkpt lat="43.69633200711012" lon="10.79405194837861"><ele>20.0</ele><time>2026-04-07T06:40:34Z</time></trkpt><trkpt lat="43.69639400327547" lon="10.79435701907004"><ele>20.5</ele><time>2026-04-07T06:40:35Z</time></trkpt><trkpt lat="43.69644872169037" lon="10.794669927401534"><ele>21.0</ele><time>2026-04-07T06:40:36Z</time></trkpt><trkpt lat="43.69650112579225" lon="10.794976501366957"><ele>22.0</ele><time>2026-04-07T06:40:37Z</time></trkpt><trkpt lat="43.69655578540771" lon="10.795287353611718"><ele>23.0</ele><time>2026-04-07T06:40:38Z</time></trkpt><trkpt lat="43.69661203555259" lon="10.795598666593593"><ele>23.0</ele><time>2026-04-07T06:40:39Z</time></trkpt><trkpt lat="43.696661089521115" lon="10.795910371044728"><ele>23.0</ele><time>2026-04-07T06:40:40Z</time></trkpt><trkpt lat="43.696707303000096" lon="10.796218056162108"><ele>22.5</ele><time>2026-04-07T06:40:41Z</time></trkpt><trkpt lat="43.696748776439975" lon="10.796527298710384"><ele>22.0</ele><time>2026-04-07T06:40:42Z</time></trkpt><trkpt lat="43.69678944265102" lon="10.796837192835737"><ele>21.5</ele><time>2026-04-07T06:40:43Z</time></trkpt><trkpt lat="43.69683047498493" lon="10.797150376962904"><ele>21.0</ele><time>2026-04-07T06:40:44Z</time></trkpt><trkpt lat="43.6968696359112" lon="10.797462436451182"><ele>21.0</ele><time>2026-04-07T06:40:45Z</time></trkpt><trkpt lat="43.69690887309297" lon="10.797779993238413"><ele>21.0</ele><time>2026-04-07T06:40:46Z</time></trkpt><trkpt lat="43.696946689782706" lon="10.798100100471247"><ele>21.0</ele><time>2026-04-07T06:40:47Z</time></trkpt><trkpt lat="43.69698454865933" lon="10.79841969789783"><ele>21.0</ele><time>2026-04-07T06:40:48Z</time></trkpt><trkpt lat="43.697022922307845" lon="10.798741765499262"><ele>21.0</ele><time>2026-04-07T06:40:49Z</time></trkpt><trkpt lat="43.697061303088546" lon="10.799064096895387"><ele>21.0</ele><time>2026-04-07T06:40:50Z</time></trkpt><trkpt lat="43.69710050740141" lon="10.799385801140886"><ele>21.0</ele><time>2026-04-07T06:40:51Z</time></trkpt><trkpt lat="43.697139394702894" lon="10.799701817989728"><ele>21.0</ele><time>2026-04-07T06:40:52Z</time></trkpt><trkpt lat="43.69717752716795" lon="10.800017706281501"><ele>22.0</ele><time>2026-04-07T06:40:53Z</time></trkpt><trkpt lat="43.697215880471184" lon="10.80033449146801"><ele>23.0</ele><time>2026-04-07T06:40:54Z</time></trkpt><trkpt lat="43.69725307476247" lon="10.800644111078917"><ele>23.0</ele><time>2026-04-07T06:40:54.999Z</time></trkpt><trkpt lat="43.69729235986618" lon="10.80095634772484"><ele>23.0</ele><time>2026-04-07T06:40:55.999Z</time></trkpt><trkpt lat="43.69732704704049" lon="10.80126781978434"><ele>23.0</ele><time>2026-04-07T06:40:57Z</time></trkpt><trkpt lat="43.69736420037139" lon="10.801576703365459"><ele>23.0</ele><time>2026-04-07T06:40:58Z</time></trkpt><trkpt lat="43.69740159926483" lon="10.801882984071883"><ele>22.5</ele><time>2026-04-07T06:40:59Z</time></trkpt><trkpt lat="43.69743859043749" lon="10.80219224374445"><ele>22.0</ele><time>2026-04-07T06:41:00Z</time></trkpt><trkpt lat="43.69747688795985" lon="10.802499853596563"><ele>21.5</ele><time>2026-04-07T06:41:01Z</time></trkpt><trkpt lat="43.697516631356194" lon="10.8028124023142"><ele>21.0</ele><time>2026-04-07T06:41:02Z</time></trkpt><trkpt lat="43.697554600682864" lon="10.803124304432451"><ele>21.0</ele><time>2026-04-07T06:41:03Z</time></trkpt><trkpt lat="43.69759315090688" lon="10.80343792757071"><ele>21.0</ele><time>2026-04-07T06:41:04Z</time></trkpt><trkpt lat="43.69762932782189" lon="10.803748768231172"><ele>21.0</ele><time>2026-04-07T06:41:05Z</time></trkpt><trkpt lat="43.69766811816807" lon="10.804059824925433"><ele>21.0</ele><time>2026-04-07T06:41:06Z</time></trkpt><trkpt lat="43.69770597496465" lon="10.804368239197043"><ele>21.0</ele><time>2026-04-07T06:41:07Z</time></trkpt><trkpt lat="43.69774208150976" lon="10.804673717073872"><ele>21.0</ele><time>2026-04-07T06:41:08Z</time></trkpt><trkpt lat="43.69778064352356" lon="10.804983562826584"><ele>21.0</ele><time>2026-04-07T06:41:09Z</time></trkpt><trkpt lat="43.697818064439794" lon="10.80529278437952"><ele>21.0</ele><time>2026-04-07T06:41:10Z</time></trkpt><trkpt lat="43.69785492711728" lon="10.805599643203754"><ele>21.0</ele><time>2026-04-07T06:41:11Z</time></trkpt><trkpt lat="43.69789448583307" lon="10.805914809344769"><ele>21.0</ele><time>2026-04-07T06:41:12Z</time></trkpt><trkpt lat="43.697931825600705" lon="10.806228713187265"><ele>21.0</ele><time>2026-04-07T06:41:13Z</time></trkpt><trkpt lat="43.697967301331715" lon="10.80654096754153"><ele>21.0</ele><time>2026-04-07T06:41:14Z</time></trkpt><trkpt lat="43.69800510527014" lon="10.806857325604001"><ele>21.0</ele><time>2026-04-07T06:41:15Z</time></trkpt><trkpt lat="43.698040529030656" lon="10.807169144214802"><ele>21.0</ele><time>2026-04-07T06:41:16Z</time></trkpt><trkpt lat="43.69807858605723" lon="10.807485219397504"><ele>21.0</ele><time>2026-04-07T06:41:17Z</time></trkpt><trkpt lat="43.69811685129599" lon="10.807804740375925"><ele>21.0</ele><time>2026-04-07T06:41:18Z</time></trkpt><trkpt lat="43.698154591744824" lon="10.808122436900048"><ele>21.0</ele><time>2026-04-07T06:41:19Z</time></trkpt><trkpt lat="43.698193342006256" lon="10.808439646500279"><ele>21.0</ele><time>2026-04-07T06:41:20Z</time></trkpt><trkpt lat="43.698228592450306" lon="10.808756347103326"><ele>21.333333333333332</ele><time>2026-04-07T06:41:21Z</time></trkpt><trkpt lat="43.69826856791953" lon="10.809073116692462"><ele>21.666666666666664</ele><time>2026-04-07T06:41:22Z</time></trkpt><trkpt lat="43.69830212911998" lon="10.809368779057063"><ele>22.0</ele><time>2026-04-07T06:41:23Z</time></trkpt><trkpt lat="43.69833917018322" lon="10.80966069856605"><ele>22.333333333333332</ele><time>2026-04-07T06:41:24Z</time></trkpt><trkpt lat="43.69837647071226" lon="10.809961233214503"><ele>22.666666666666668</ele><time>2026-04-07T06:41:25Z</time></trkpt><trkpt lat="43.69841312625275" lon="10.810266376164943"><ele>23.0</ele><time>2026-04-07T06:41:26Z</time></trkpt><trkpt lat="43.69845111413497" lon="10.810575815874492"><ele>23.5</ele><time>2026-04-07T06:41:27Z</time></trkpt><trkpt lat="43.69848845198132" lon="10.810880509544479"><ele>24.0</ele><time>2026-04-07T06:41:28Z</time></trkpt><trkpt lat="43.69852521161345" lon="10.811190504516333"><ele>23.0</ele><time>2026-04-07T06:41:29Z</time></trkpt><trkpt lat="43.69856224569447" lon="10.811501973747927"><ele>22.0</ele><time>2026-04-07T06:41:30Z</time></trkpt><trkpt lat="43.69859846776229" lon="10.8118078086175"><ele>22.0</ele><time>2026-04-07T06:41:31Z</time></trkpt><trkpt lat="43.698634287718136" lon="10.812113159771652"><ele>22.0</ele><time>2026-04-07T06:41:32Z</time></trkpt><trkpt lat="43.69866819137086" lon="10.812420615099793"><ele>22.0</ele><time>2026-04-07T06:41:33Z</time></trkpt><trkpt lat="43.6986935076946" lon="10.812721392028958"><ele>21.666666666666664</ele><time>2026-04-07T06:41:34Z</time></trkpt><trkpt lat="43.69871664442036" lon="10.813025910310119"><ele>21.333333333333332</ele><time>2026-04-07T06:41:35Z</time></trkpt><trkpt lat="43.69873500445578" lon="10.81333820471865"><ele>21.0</ele><time>2026-04-07T06:41:36Z</time></trkpt><trkpt lat="43.698753639638014" lon="10.813659663624733"><ele>20.5</ele><time>2026-04-07T06:41:37Z</time></trkpt><trkpt lat="43.6987723494554" lon="10.81398900021408"><ele>20.0</ele><time>2026-04-07T06:41:38Z</time></trkpt><trkpt lat="43.69878800858887" lon="10.814339888240378"><ele>20.0</ele><time>2026-04-07T06:41:39Z</time></trkpt><trkpt lat="43.69879369574086" lon="10.814695140696609"><ele>20.0</ele><time>2026-04-07T06:41:40Z</time></trkpt><trkpt lat="43.698793965689" lon="10.815048451705414"><ele>20.5</ele><time>2026-04-07T06:41:41Z</time></trkpt><trkpt lat="43.69878583385718" lon="10.815401268154595"><ele>21.0</ele><time>2026-04-07T06:41:42Z</time></trkpt><trkpt lat="43.69877473927461" lon="10.815747740705993"><ele>21.5</ele><time>2026-04-07T06:41:43Z</time></trkpt><trkpt lat="43.69875936338029" lon="10.816092620953624"><ele>22.0</ele><time>2026-04-07T06:41:44Z</time></trkpt><trkpt lat="43.69873924743208" lon="10.816436971336259"><ele>22.0</ele><time>2026-04-07T06:41:45Z</time></trkpt><trkpt lat="43.69871584969751" lon="10.816778346521149"><ele>22.0</ele><time>2026-04-07T06:41:46Z</time></trkpt><trkpt lat="43.69868631742538" lon="10.817116437614057"><ele>22.0</ele><time>2026-04-07T06:41:47Z</time></trkpt><trkpt lat="43.698652277453895" lon="10.817456121516562"><ele>22.0</ele><time>2026-04-07T06:41:48Z</time></trkpt><trkpt lat="43.69861431658592" lon="10.817794462250536"><ele>21.5</ele><time>2026-04-07T06:41:49Z</time></trkpt><trkpt lat="43.69856931348616" lon="10.818126209852084"><ele>21.0</ele><time>2026-04-07T06:41:50Z</time></trkpt><trkpt lat="43.698520781887055" lon="10.818460575545986"><ele>20.5</ele><time>2026-04-07T06:41:51Z</time></trkpt><trkpt lat="43.69846970316399" lon="10.818804793262895"><ele>20.0</ele><time>2026-04-07T06:41:52Z</time></trkpt><trkpt lat="43.69840958979606" lon="10.819150322972774"><ele>20.0</ele><time>2026-04-07T06:41:53Z</time></trkpt><trkpt lat="43.698348525737956" lon="10.81949068464404"><ele>20.0</ele><time>2026-04-07T06:41:54Z</time></trkpt><trkpt lat="43.69828716201721" lon="10.81981800163907"><ele>20.0</ele><time>2026-04-07T06:41:55Z</time></trkpt><trkpt lat="43.698227058788966" lon="10.820135161094234"><ele>20.0</ele><time>2026-04-07T06:41:56Z</time></trkpt><trkpt lat="43.698164583008165" lon="10.82044853097845"><ele>20.0</ele><time>2026-04-07T06:41:57Z</time></trkpt><trkpt lat="43.69810520583109" lon="10.82075766185728"><ele>20.0</ele><time>2026-04-07T06:41:58Z</time></trkpt><trkpt lat="43.69804403138513" lon="10.821075331441387"><ele>20.0</ele><time>2026-04-07T06:41:59Z</time></trkpt><trkpt lat="43.697982812309796" lon="10.821386571337333"><ele>20.0</ele><time>2026-04-07T06:42:00Z</time></trkpt><trkpt lat="43.69792069349222" lon="10.821709353570897"><ele>20.0</ele><time>2026-04-07T06:42:01Z</time></trkpt><trkpt lat="43.697854299070656" lon="10.82203097986021"><ele>20.0</ele><time>2026-04-07T06:42:02Z</time></trkpt><trkpt lat="43.69778966065691" lon="10.822352559251849"><ele>19.5</ele><time>2026-04-07T06:42:03Z</time></trkpt><trkpt lat="43.697727119447535" lon="10.822661700985126"><ele>19.0</ele><time>2026-04-07T06:42:04Z</time></trkpt><trkpt lat="43.697664747675454" lon="10.822967534859835"><ele>19.0</ele><time>2026-04-07T06:42:05Z</time></trkpt><trkpt lat="43.697599189181794" lon="10.823277322082955"><ele>19.0</ele><time>2026-04-07T06:42:06Z</time></trkpt><trkpt lat="43.69753026702523" lon="10.823585992372333"><ele>19.0</ele><time>2026-04-07T06:42:07Z</time></trkpt><trkpt lat="43.69746189198237" lon="10.823905344508363"><ele>19.0</ele><time>2026-04-07T06:42:08Z</time></trkpt><trkpt lat="43.697397142943146" lon="10.824218296958811"><ele>18.5</ele><time>2026-04-07T06:42:09Z</time></trkpt><trkpt lat="43.69733673979301" lon="10.824527410994609"><ele>18.0</ele><time>2026-04-07T06:42:10Z</time></trkpt><trkpt lat="43.69727669829275" lon="10.824846460726178"><ele>19.0</ele><time>2026-04-07T06:42:11Z</time></trkpt><trkpt lat="43.69721443887032" lon="10.82516225945083"><ele>20.0</ele><time>2026-04-07T06:42:12Z</time></trkpt><trkpt lat="43.697153266711844" lon="10.825474599382638"><ele>20.0</ele><time>2026-04-07T06:42:13Z</time></trkpt><trkpt lat="43.69709121746013" lon="10.825785017314407"><ele>20.0</ele><time>2026-04-07T06:42:14Z</time></trkpt><trkpt lat="43.69702750003675" lon="10.826099788485495"><ele>20.5</ele><time>2026-04-07T06:42:15Z</time></trkpt><trkpt lat="43.696963539907124" lon="10.82640593794762"><ele>21.0</ele><time>2026-04-07T06:42:16Z</time></trkpt><trkpt lat="43.696901721740026" lon="10.826717928983813"><ele>21.5</ele><time>2026-04-07T06:42:17Z</time></trkpt><trkpt lat="43.6968418827367" lon="10.82702800536975"><ele>22.0</ele><time>2026-04-07T06:42:18Z</time></trkpt><trkpt lat="43.69678709295998" lon="10.827339308142028"><ele>22.5</ele><time>2026-04-07T06:42:19Z</time></trkpt><trkpt lat="43.69673823215007" lon="10.82765147105034"><ele>23.0</ele><time>2026-04-07T06:42:20Z</time></trkpt><trkpt lat="43.696696487909996" lon="10.82795853248896"><ele>23.0</ele><time>2026-04-07T06:42:21Z</time></trkpt><trkpt lat="43.69666234915209" lon="10.828263259190948"><ele>23.0</ele><time>2026-04-07T06:42:22Z</time></trkpt><trkpt lat="43.69663342590126" lon="10.82856886240788"><ele>23.0</ele><time>2026-04-07T06:42:23Z</time></trkpt><trkpt lat="43.69661216987187" lon="10.828871602790784"><ele>23.0</ele><time>2026-04-07T06:42:24Z</time></trkpt><trkpt lat="43.69660450089309" lon="10.829181104332308"><ele>23.0</ele><time>2026-04-07T06:42:25Z</time></trkpt><trkpt lat="43.69660638912446" lon="10.82948932173115"><ele>23.0</ele><time>2026-04-07T06:42:26Z</time></trkpt><trkpt lat="43.696619142340545" lon="10.82979638351166"><ele>22.666666666666668</ele><time>2026-04-07T06:42:27Z</time></trkpt><trkpt lat="43.696640737686394" lon="10.830100436864292"><ele>22.333333333333332</ele><time>2026-04-07T06:42:28Z</time></trkpt><trkpt lat="43.69666825730127" lon="10.83040546796565"><ele>22.0</ele><time>2026-04-07T06:42:29Z</time></trkpt><trkpt lat="43.69669724539525" lon="10.830708632447237"><ele>21.5</ele><time>2026-04-07T06:42:30Z</time></trkpt><trkpt lat="43.69673491446919" lon="10.831013498781005"><ele>21.0</ele><time>2026-04-07T06:42:31Z</time></trkpt><trkpt lat="43.696782400728495" lon="10.831326631639753"><ele>21.0</ele><time>2026-04-07T06:42:32Z</time></trkpt><trkpt lat="43.69683708122833" lon="10.83162914858653"><ele>21.0</ele><time>2026-04-07T06:42:33Z</time></trkpt><trkpt lat="43.69690569049108" lon="10.83192913308591"><ele>21.666666666666668</ele><time>2026-04-07T06:42:34Z</time></trkpt><trkpt lat="43.696977861171554" lon="10.83222173670451"><ele>22.333333333333336</ele><time>2026-04-07T06:42:35Z</time></trkpt><trkpt lat="43.69705138698871" lon="10.832509048663683"><ele>23.0</ele><time>2026-04-07T06:42:36Z</time></trkpt><trkpt lat="43.69713300869797" lon="10.832792642643557"><ele>23.0</ele><time>2026-04-07T06:42:37Z</time></trkpt><trkpt lat="43.69722274428127" lon="10.833072201269635"><ele>23.0</ele><time>2026-04-07T06:42:38Z</time></trkpt><trkpt lat="43.69732088639035" lon="10.833347440661829"><ele>23.0</ele><time>2026-04-07T06:42:39Z</time></trkpt><trkpt lat="43.697426676958706" lon="10.833623084289675"><ele>23.0</ele><time>2026-04-07T06:42:40Z</time></trkpt><trkpt lat="43.697542601425546" lon="10.833901980095538"><ele>23.0</ele><time>2026-04-07T06:42:41Z</time></trkpt><trkpt lat="43.697660309807105" lon="10.83417234573258"><ele>24.0</ele><time>2026-04-07T06:42:42Z</time></trkpt><trkpt lat="43.697786134540706" lon="10.834442524715321"><ele>25.0</ele><time>2026-04-07T06:42:43Z</time></trkpt><trkpt lat="43.69791609530333" lon="10.8347140181044"><ele>25.0</ele><time>2026-04-07T06:42:44Z</time></trkpt><trkpt lat="43.698051839159376" lon="10.834986833685823"><ele>25.0</ele><time>2026-04-07T06:42:45Z</time></trkpt><trkpt lat="43.698186376542125" lon="10.835252658487132"><ele>23.5</ele><time>2026-04-07T06:42:46Z</time></trkpt><trkpt lat="43.69832358288367" lon="10.835522984392068"><ele>22.0</ele><time>2026-04-07T06:42:47Z</time></trkpt><trkpt lat="43.69845509822872" lon="10.835792424297473"><ele>22.0</ele><time>2026-04-07T06:42:48Z</time></trkpt><trkpt lat="43.698583190023975" lon="10.836058291117114"><ele>22.0</ele><time>2026-04-07T06:42:49Z</time></trkpt><trkpt lat="43.69871550948246" lon="10.836329438502364"><ele>22.0</ele><time>2026-04-07T06:42:50Z</time></trkpt><trkpt lat="43.698844282400465" lon="10.83659441821067"><ele>22.0</ele><time>2026-04-07T06:42:51Z</time></trkpt><trkpt lat="43.69897663405263" lon="10.83685941313384"><ele>21.0</ele><time>2026-04-07T06:42:51.999Z</time></trkpt><trkpt lat="43.69910902027999" lon="10.837124206868596"><ele>20.0</ele><time>2026-04-07T06:42:52.999Z</time></trkpt><trkpt lat="43.69924045207142" lon="10.837386897489521"><ele>20.5</ele><time>2026-04-07T06:42:53.999Z</time></trkpt><trkpt lat="43.69936971373376" lon="10.837647312436582"><ele>21.0</ele><time>2026-04-07T06:42:54.999Z</time></trkpt><trkpt lat="43.699498795485646" lon="10.83790909206742"><ele>21.333333333333332</ele><time>2026-04-07T06:42:55.999Z</time></trkpt><trkpt lat="43.699625527044745" lon="10.83816370628188"><ele>21.666666666666664</ele><time>2026-04-07T06:42:56.999Z</time></trkpt><trkpt lat="43.699752639589164" lon="10.83841894434505"><ele>22.0</ele><time>2026-04-07T06:42:57.999Z</time></trkpt><trkpt lat="43.69987743880706" lon="10.838675873198836"><ele>22.0</ele><time>2026-04-07T06:42:58.999Z</time></trkpt><trkpt lat="43.70000451710329" lon="10.838938850537467"><ele>22.0</ele><time>2026-04-07T06:42:59.999Z</time></trkpt><trkpt lat="43.70013571980679" lon="10.839206369744348"><ele>21.0</ele><time>2026-04-07T06:43:00.999Z</time></trkpt><trkpt lat="43.70026291111663" lon="10.839476381708701"><ele>20.0</ele><time>2026-04-07T06:43:01.999Z</time></trkpt><trkpt lat="43.70038762312118" lon="10.83974439270413"><ele>20.0</ele><time>2026-04-07T06:43:03Z</time></trkpt><trkpt lat="43.700514862589145" lon="10.84001654068841"><ele>20.0</ele><time>2026-04-07T06:43:04Z</time></trkpt><trkpt lat="43.70064525929895" lon="10.84028811532635"><ele>20.5</ele><time>2026-04-07T06:43:05Z</time></trkpt><trkpt lat="43.70077182865626" lon="10.840545895832312"><ele>21.0</ele><time>2026-04-07T06:43:06Z</time></trkpt><trkpt lat="43.70090234627259" lon="10.840810436279414"><ele>21.5</ele><time>2026-04-07T06:43:07Z</time></trkpt><trkpt lat="43.70103151644779" lon="10.841068828607124"><ele>22.0</ele><time>2026-04-07T06:43:08Z</time></trkpt><trkpt lat="43.70116462506682" lon="10.841341349100892"><ele>22.0</ele><time>2026-04-07T06:43:09Z</time></trkpt><trkpt lat="43.701286177476916" lon="10.841604743106611"><ele>22.0</ele><time>2026-04-07T06:43:10Z</time></trkpt><trkpt lat="43.70140576425929" lon="10.841879291787167"><ele>22.0</ele><time>2026-04-07T06:43:11Z</time></trkpt><trkpt lat="43.7015229238905" lon="10.842164641398432"><ele>22.0</ele><time>2026-04-07T06:43:12Z</time></trkpt><trkpt lat="43.70162591681517" lon="10.842443316003955"><ele>21.5</ele><time>2026-04-07T06:43:13Z</time></trkpt><trkpt lat="43.70172736965907" lon="10.842741404584364"><ele>21.0</ele><time>2026-04-07T06:43:14Z</time></trkpt><trkpt lat="43.701815833002165" lon="10.843035622657151"><ele>21.0</ele><time>2026-04-07T06:43:15Z</time></trkpt><trkpt lat="43.70190182933179" lon="10.84334647856853"><ele>21.0</ele><time>2026-04-07T06:43:16Z</time></trkpt><trkpt lat="43.70197699679866" lon="10.843639781764914"><ele>20.5</ele><time>2026-04-07T06:43:17Z</time></trkpt><trkpt lat="43.702046277818646" lon="10.843947643710546"><ele>20.0</ele><time>2026-04-07T06:43:18Z</time></trkpt><trkpt lat="43.702108396567276" lon="10.844265445414987"><ele>21.0</ele><time>2026-04-07T06:43:19Z</time></trkpt><trkpt lat="43.7021606941454" lon="10.844575535315904"><ele>22.0</ele><time>2026-04-07T06:43:20Z</time></trkpt><trkpt lat="43.7022063156137" lon="10.844881157521144"><ele>22.0</ele><time>2026-04-07T06:43:21Z</time></trkpt><trkpt lat="43.70224922077948" lon="10.845183633326501"><ele>22.0</ele><time>2026-04-07T06:43:22Z</time></trkpt><trkpt lat="43.70229233481319" lon="10.845490160035071"><ele>22.0</ele><time>2026-04-07T06:43:23Z</time></trkpt><trkpt lat="43.70233199583399" lon="10.845791992585319"><ele>22.0</ele><time>2026-04-07T06:43:24Z</time></trkpt><trkpt lat="43.70237279758903" lon="10.846102297284782"><ele>22.0</ele><time>2026-04-07T06:43:25Z</time></trkpt><trkpt lat="43.702410311614216" lon="10.846410233605383"><ele>22.0</ele><time>2026-04-07T06:43:26Z</time></trkpt><trkpt lat="43.70244884611296" lon="10.846714837692799"><ele>22.0</ele><time>2026-04-07T06:43:27Z</time></trkpt><trkpt lat="43.70248663325481" lon="10.847008564441248"><ele>22.0</ele><time>2026-04-07T06:43:28Z</time></trkpt><trkpt lat="43.70252354874133" lon="10.847292761547513"><ele>22.333333333333332</ele><time>2026-04-07T06:43:29Z</time></trkpt><trkpt lat="43.70255809590662" lon="10.847577637713993"><ele>22.666666666666668</ele><time>2026-04-07T06:43:30Z</time></trkpt><trkpt lat="43.70259331550476" lon="10.847864211154066"><ele>23.0</ele><time>2026-04-07T06:43:31Z</time></trkpt><trkpt lat="43.70263065032598" lon="10.848155422020934"><ele>22.0</ele><time>2026-04-07T06:43:32Z</time></trkpt><trkpt lat="43.70266983310802" lon="10.848454849196044"><ele>21.0</ele><time>2026-04-07T06:43:33Z</time></trkpt><trkpt lat="43.70270503655701" lon="10.848735900892382"><ele>20.0</ele><time>2026-04-07T06:43:34Z</time></trkpt><trkpt lat="43.70274112029865" lon="10.849023683434623"><ele>20.666666666666668</ele><time>2026-04-07T06:43:35Z</time></trkpt><trkpt lat="43.70277672942186" lon="10.849305591729866"><ele>21.333333333333332</ele><time>2026-04-07T06:43:36Z</time></trkpt><trkpt lat="43.702810675928276" lon="10.84957916557392"><ele>22.0</ele><time>2026-04-07T06:43:37Z</time></trkpt><trkpt lat="43.7028463197937" lon="10.849860758143715"><ele>21.666666666666664</ele><time>2026-04-07T06:43:38Z</time></trkpt><trkpt lat="43.702880897792404" lon="10.85013504399645"><ele>21.333333333333332</ele><time>2026-04-07T06:43:39Z</time></trkpt><trkpt lat="43.70291458501119" lon="10.850402596405825"><ele>21.0</ele><time>2026-04-07T06:43:40Z</time></trkpt><trkpt lat="43.70294886662498" lon="10.85066684930071"><ele>21.0</ele><time>2026-04-07T06:43:41Z</time></trkpt><trkpt lat="43.7029842827356" lon="10.850940871946662"><ele>21.0</ele><time>2026-04-07T06:43:42Z</time></trkpt><trkpt lat="43.703017351654246" lon="10.851203723049904"><ele>21.0</ele><time>2026-04-07T06:43:43Z</time></trkpt><trkpt lat="43.70305183113626" lon="10.85146707567854"><ele>21.333333333333332</ele><time>2026-04-07T06:43:44Z</time></trkpt><trkpt lat="43.70308613543193" lon="10.85173009150624"><ele>21.666666666666664</ele><time>2026-04-07T06:43:45Z</time></trkpt><trkpt lat="43.70312106929356" lon="10.851997975618474"><ele>22.0</ele><time>2026-04-07T06:43:46Z</time></trkpt><trkpt lat="43.703157284446505" lon="10.852271255857142"><ele>22.0</ele><time>2026-04-07T06:43:47Z</time></trkpt><trkpt lat="43.70319814204239" lon="10.852554303312385"><ele>22.0</ele><time>2026-04-07T06:43:48Z</time></trkpt><trkpt lat="43.70324145867427" lon="10.852842237704682"><ele>22.0</ele><time>2026-04-07T06:43:49Z</time></trkpt><trkpt lat="43.703281084322526" lon="10.853121348512207"><ele>22.0</ele><time>2026-04-07T06:43:50Z</time></trkpt><trkpt lat="43.7033188424131" lon="10.853401269952867"><ele>22.0</ele><time>2026-04-07T06:43:51Z</time></trkpt><trkpt lat="43.70335834234981" lon="10.853697811518723"><ele>22.0</ele><time>2026-04-07T06:43:52Z</time></trkpt><trkpt lat="43.70339679672617" lon="10.854001423919824"><ele>22.0</ele><time>2026-04-07T06:43:53Z</time></trkpt><trkpt lat="43.703436177178034" lon="10.854304274881558"><ele>22.0</ele><time>2026-04-07T06:43:54Z</time></trkpt><trkpt lat="43.703474051521" lon="10.854609587466362"><ele>22.0</ele><time>2026-04-07T06:43:55Z</time></trkpt><trkpt lat="43.70351236452804" lon="10.854913173786722"><ele>22.0</ele><time>2026-04-07T06:43:56Z</time></trkpt><trkpt lat="43.70355212016471" lon="10.855224538130372"><ele>22.0</ele><time>2026-04-07T06:43:57Z</time></trkpt><trkpt lat="43.70359187274901" lon="10.855541528690015"><ele>22.0</ele><time>2026-04-07T06:43:58Z</time></trkpt><trkpt lat="43.703630777669474" lon="10.855851115372403"><ele>22.0</ele><time>2026-04-07T06:43:59Z</time></trkpt><trkpt lat="43.70367122807923" lon="10.856151046840116"><ele>22.0</ele><time>2026-04-07T06:44:00Z</time></trkpt><trkpt lat="43.70370854120372" lon="10.856456259498655"><ele>22.0</ele><time>2026-04-07T06:44:01Z</time></trkpt><trkpt lat="43.703746601669955" lon="10.856761236123747"><ele>22.0</ele><time>2026-04-07T06:44:02Z</time></trkpt><trkpt lat="43.70378794230635" lon="10.857075939508164"><ele>22.0</ele><time>2026-04-07T06:44:03Z</time></trkpt><trkpt lat="43.70382664416138" lon="10.857403014107621"><ele>22.0</ele><time>2026-04-07T06:44:04Z</time></trkpt><trkpt lat="43.703863405465604" lon="10.857752572977065"><ele>22.0</ele><time>2026-04-07T06:44:05Z</time></trkpt><trkpt lat="43.7038975726519" lon="10.858083122993804"><ele>22.0</ele><time>2026-04-07T06:44:06Z</time></trkpt><trkpt lat="43.70393128881508" lon="10.858390300809969"><ele>22.0</ele><time>2026-04-07T06:44:07Z</time></trkpt><trkpt lat="43.70396480937112" lon="10.85867782611472"><ele>22.0</ele><time>2026-04-07T06:44:08Z</time></trkpt><trkpt lat="43.70399891341963" lon="10.858952559770753"><ele>22.0</ele><time>2026-04-07T06:44:09Z</time></trkpt><trkpt lat="43.70403310468488" lon="10.859216698798065"><ele>21.666666666666664</ele><time>2026-04-07T06:44:10Z</time></trkpt><trkpt lat="43.704066188439484" lon="10.859472245796645"><ele>21.333333333333332</ele><time>2026-04-07T06:44:11Z</time></trkpt><trkpt lat="43.70409566112819" lon="10.859726183191832"><ele>21.0</ele><time>2026-04-07T06:44:12Z</time></trkpt><trkpt lat="43.70412247897944" lon="10.859979236755594"><ele>21.333333333333332</ele><time>2026-04-07T06:44:13Z</time></trkpt><trkpt lat="43.704147140227285" lon="10.860230499948736"><ele>21.666666666666664</ele><time>2026-04-07T06:44:14Z</time></trkpt><trkpt lat="43.704169294533685" lon="10.860479790626135"><ele>22.0</ele><time>2026-04-07T06:44:15Z</time></trkpt><trkpt lat="43.704188554940785" lon="10.86072489551033"><ele>22.0</ele><time>2026-04-07T06:44:16Z</time></trkpt><trkpt lat="43.70420360751702" lon="10.860961014186012"><ele>22.0</ele><time>2026-04-07T06:44:17Z</time></trkpt><trkpt lat="43.70421390353767" lon="10.861191282098895"><ele>22.0</ele><time>2026-04-07T06:44:18Z</time></trkpt><trkpt lat="43.70422046926009" lon="10.86142486827895"><ele>22.0</ele><time>2026-04-07T06:44:19Z</time></trkpt><trkpt lat="43.70422385141224" lon="10.86166257400135"><ele>22.0</ele><time>2026-04-07T06:44:20Z</time></trkpt><trkpt lat="43.70422493173188" lon="10.86190152670285"><ele>22.0</ele><time>2026-04-07T06:44:21Z</time></trkpt><trkpt lat="43.70422364594036" lon="10.862149489413547"><ele>22.333333333333332</ele><time>2026-04-07T06:44:22Z</time></trkpt><trkpt lat="43.70422203189141" lon="10.862404414243857"><ele>22.666666666666668</ele><time>2026-04-07T06:44:23Z</time></trkpt><trkpt lat="43.70421695295434" lon="10.862652153674441"><ele>23.0</ele><time>2026-04-07T06:44:24Z</time></trkpt><trkpt lat="43.704206018188245" lon="10.862895936245177"><ele>22.666666666666668</ele><time>2026-04-07T06:44:25Z</time></trkpt><trkpt lat="43.7041896078582" lon="10.863149080673207"><ele>22.333333333333332</ele><time>2026-04-07T06:44:26Z</time></trkpt><trkpt lat="43.704165499535726" lon="10.863398708005512"><ele>22.0</ele><time>2026-04-07T06:44:27Z</time></trkpt><trkpt lat="43.704137830285525" lon="10.863655197147335"><ele>22.0</ele><time>2026-04-07T06:44:28Z</time></trkpt><trkpt lat="43.70410800887219" lon="10.86392090656206"><ele>22.0</ele><time>2026-04-07T06:44:29Z</time></trkpt><trkpt lat="43.7040771142198" lon="10.864200743474163"><ele>22.0</ele><time>2026-04-07T06:44:30Z</time></trkpt><trkpt lat="43.70404249678234" lon="10.864486396046404"><ele>22.0</ele><time>2026-04-07T06:44:31Z</time></trkpt><trkpt lat="43.70400565902213" lon="10.864773456223363"><ele>22.0</ele><time>2026-04-07T06:44:32Z</time></trkpt><trkpt lat="43.70396592332995" lon="10.86507269955698"><ele>22.0</ele><time>2026-04-07T06:44:33Z</time></trkpt><trkpt lat="43.70392466574958" lon="10.86537357842602"><ele>22.666666666666664</ele><time>2026-04-07T06:44:34Z</time></trkpt><trkpt lat="43.70388011936584" lon="10.865676098872932"><ele>23.333333333333332</ele><time>2026-04-07T06:44:35Z</time></trkpt><trkpt lat="43.70383559448349" lon="10.865982801402449"><ele>24.0</ele><time>2026-04-07T06:44:36Z</time></trkpt><trkpt lat="43.703787735178146" lon="10.86628421156529"><ele>24.0</ele><time>2026-04-07T06:44:37Z</time></trkpt><trkpt lat="43.70374117999605" lon="10.866579619976516"><ele>24.0</ele><time>2026-04-07T06:44:38Z</time></trkpt><trkpt lat="43.70369490357126" lon="10.866874389699962"><ele>24.0</ele><time>2026-04-07T06:44:39Z</time></trkpt><trkpt lat="43.70365066787414" lon="10.867157714671551"><ele>24.333333333333336</ele><time>2026-04-07T06:44:40Z</time></trkpt><trkpt lat="43.70360923227292" lon="10.867429401445253"><ele>24.666666666666668</ele><time>2026-04-07T06:44:41Z</time></trkpt><trkpt lat="43.7035695419262" lon="10.867706023727571"><ele>25.0</ele><time>2026-04-07T06:44:42Z</time></trkpt><trkpt lat="43.70353432601394" lon="10.867979890544829"><ele>24.666666666666668</ele><time>2026-04-07T06:44:43Z</time></trkpt><trkpt lat="43.70349921654385" lon="10.86826016964612"><ele>24.333333333333336</ele><time>2026-04-07T06:44:44Z</time></trkpt><trkpt lat="43.70346651804423" lon="10.868545419996684"><ele>24.0</ele><time>2026-04-07T06:44:45Z</time></trkpt><trkpt lat="43.70344247173765" lon="10.868829301537122"><ele>24.0</ele><time>2026-04-07T06:44:46Z</time></trkpt><trkpt lat="43.703427133511305" lon="10.869117784001201"><ele>24.0</ele><time>2026-04-07T06:44:47Z</time></trkpt><trkpt lat="43.70341830012727" lon="10.869414220132704"><ele>24.0</ele><time>2026-04-07T06:44:47.999Z</time></trkpt><trkpt lat="43.703417994209346" lon="10.869711826866384"><ele>24.333333333333336</ele><time>2026-04-07T06:44:48.999Z</time></trkpt><trkpt lat="43.703424412167536" lon="10.870005003867458"><ele>24.666666666666668</ele><time>2026-04-07T06:44:49.999Z</time></trkpt><trkpt lat="43.70343882274649" lon="10.870300242493943"><ele>25.0</ele><time>2026-04-07T06:44:50.999Z</time></trkpt><trkpt lat="43.703460952087454" lon="10.870590400173866"><ele>25.333333333333336</ele><time>2026-04-07T06:44:51.999Z</time></trkpt><trkpt lat="43.70348796282779" lon="10.87086729994252"><ele>25.666666666666664</ele><time>2026-04-07T06:44:52.999Z</time></trkpt><trkpt lat="43.70352271492865" lon="10.87114461093361"><ele>26.0</ele><time>2026-04-07T06:44:53.999Z</time></trkpt><trkpt lat="43.70355946532568" lon="10.87142538376951"><ele>25.666666666666664</ele><time>2026-04-07T06:44:54.999Z</time></trkpt><trkpt lat="43.70359739959457" lon="10.871705607430105"><ele>25.333333333333336</ele><time>2026-04-07T06:44:55.999Z</time></trkpt><trkpt lat="43.70363728398481" lon="10.871989212781298"><ele>25.0</ele><time>2026-04-07T06:44:56.999Z</time></trkpt><trkpt lat="43.70367687176716" lon="10.872279377690331"><ele>25.0</ele><time>2026-04-07T06:44:57.999Z</time></trkpt><trkpt lat="43.70371367768436" lon="10.87256784797773"><ele>25.0</ele><time>2026-04-07T06:44:58.999Z</time></trkpt><trkpt lat="43.703749783513565" lon="10.87284869047412"><ele>25.0</ele><time>2026-04-07T06:44:59.999Z</time></trkpt><trkpt lat="43.703782779538855" lon="10.873114712610388"><ele>25.0</ele><time>2026-04-07T06:45:00.999Z</time></trkpt><trkpt lat="43.70381579119354" lon="10.87336834302162"><ele>25.0</ele><time>2026-04-07T06:45:01.999Z</time></trkpt><trkpt lat="43.70384722363224" lon="10.873612477102185"><ele>25.0</ele><time>2026-04-07T06:45:02.999Z</time></trkpt><trkpt lat="43.70388015459032" lon="10.873861729897431"><ele>24.333333333333336</ele><time>2026-04-07T06:45:03.999Z</time></trkpt><trkpt lat="43.70391172648211" lon="10.874113211946662"><ele>23.666666666666668</ele><time>2026-04-07T06:45:04.999Z</time></trkpt><trkpt lat="43.70394679825208" lon="10.87436950468108"><ele>23.0</ele><time>2026-04-07T06:45:05.999Z</time></trkpt><trkpt lat="43.7039801897187" lon="10.874625379178857"><ele>22.666666666666668</ele><time>2026-04-07T06:45:06.999Z</time></trkpt><trkpt lat="43.704015584375206" lon="10.874887515565035"><ele>22.333333333333332</ele><time>2026-04-07T06:45:07.999Z</time></trkpt><trkpt lat="43.70405075156799" lon="10.875152378759104"><ele>22.0</ele><time>2026-04-07T06:45:09Z</time></trkpt><trkpt lat="43.70408720916496" lon="10.87542105127433"><ele>22.333333333333332</ele><time>2026-04-07T06:45:10Z</time></trkpt><trkpt lat="43.70412253383364" lon="10.875697419885764"><ele>22.666666666666668</ele><time>2026-04-07T06:45:11Z</time></trkpt><trkpt lat="43.70415807781787" lon="10.875975143426297"><ele>23.0</ele><time>2026-04-07T06:45:12Z</time></trkpt><trkpt lat="43.704193630249705" lon="10.87625952903334"><ele>23.0</ele><time>2026-04-07T06:45:13Z</time></trkpt><trkpt lat="43.704229737757494" lon="10.876550930395602"><ele>23.0</ele><time>2026-04-07T06:45:14Z</time></trkpt><trkpt lat="43.704266072215304" lon="10.876841759299273"><ele>23.0</ele><time>2026-04-07T06:45:15Z</time></trkpt><trkpt lat="43.70430389031233" lon="10.87714054793901"><ele>23.333333333333336</ele><time>2026-04-07T06:45:16Z</time></trkpt><trkpt lat="43.70433860866185" lon="10.877440747114195"><ele>23.666666666666668</ele><time>2026-04-07T06:45:17Z</time></trkpt><trkpt lat="43.704371361952866" lon="10.877749581632042"><ele>24.0</ele><time>2026-04-07T06:45:18Z</time></trkpt><trkpt lat="43.704404558734886" lon="10.87805834575137"><ele>24.0</ele><time>2026-04-07T06:45:19Z</time></trkpt><trkpt lat="43.70444080804742" lon="10.878357576460012"><ele>24.0</ele><time>2026-04-07T06:45:20Z</time></trkpt><trkpt lat="43.704481105306435" lon="10.878654194929302"><ele>24.0</ele><time>2026-04-07T06:45:21Z</time></trkpt><trkpt lat="43.70451957691038" lon="10.878948818506581"><ele>24.0</ele><time>2026-04-07T06:45:22Z</time></trkpt><trkpt lat="43.70455705640794" lon="10.87923828272038"><ele>24.0</ele><time>2026-04-07T06:45:23Z</time></trkpt><trkpt lat="43.70459479261981" lon="10.879528814017661"><ele>24.0</ele><time>2026-04-07T06:45:24Z</time></trkpt><trkpt lat="43.704635834996495" lon="10.879825824323557"><ele>24.333333333333336</ele><time>2026-04-07T06:45:25Z</time></trkpt><trkpt lat="43.70467424464864" lon="10.880118423695075"><ele>24.666666666666668</ele><time>2026-04-07T06:45:26Z</time></trkpt><trkpt lat="43.70471343963509" lon="10.880415642964088"><ele>25.0</ele><time>2026-04-07T06:45:27Z</time></trkpt><trkpt lat="43.704751596682584" lon="10.880710658003087"><ele>24.333333333333336</ele><time>2026-04-07T06:45:28Z</time></trkpt><trkpt lat="43.70478818910611" lon="10.881008745828197"><ele>23.666666666666668</ele><time>2026-04-07T06:45:29Z</time></trkpt><trkpt lat="43.704826006943485" lon="10.881305401809897"><ele>23.0</ele><time>2026-04-07T06:45:30Z</time></trkpt><trkpt lat="43.70486433634062" lon="10.881606433772342"><ele>23.333333333333336</ele><time>2026-04-07T06:45:31Z</time></trkpt><trkpt lat="43.7049021100257" lon="10.881899969328613"><ele>23.666666666666668</ele><time>2026-04-07T06:45:32Z</time></trkpt><trkpt lat="43.704941917934846" lon="10.882198505871406"><ele>24.0</ele><time>2026-04-07T06:45:33Z</time></trkpt><trkpt lat="43.70498275731458" lon="10.882496802117258"><ele>24.333333333333336</ele><time>2026-04-07T06:45:34Z</time></trkpt><trkpt lat="43.705022097554036" lon="10.88279365740895"><ele>24.666666666666668</ele><time>2026-04-07T06:45:35Z</time></trkpt><trkpt lat="43.705062098549355" lon="10.883090120874698"><ele>25.0</ele><time>2026-04-07T06:45:36Z</time></trkpt><trkpt lat="43.70510040571924" lon="10.883387901154233"><ele>25.0</ele><time>2026-04-07T06:45:37Z</time></trkpt><trkpt lat="43.70513821733044" lon="10.883682088005388"><ele>25.0</ele><time>2026-04-07T06:45:38Z</time></trkpt><trkpt lat="43.7051776790311" lon="10.883977965663563"><ele>25.0</ele><time>2026-04-07T06:45:39Z</time></trkpt><trkpt lat="43.705218915911836" lon="10.884282534767939"><ele>25.0</ele><time>2026-04-07T06:45:40Z</time></trkpt><trkpt lat="43.705256494864315" lon="10.884579394980774"><ele>25.0</ele><time>2026-04-07T06:45:41Z</time></trkpt><trkpt lat="43.70529924229304" lon="10.884886118837812"><ele>25.0</ele><time>2026-04-07T06:45:42Z</time></trkpt><trkpt lat="43.705339895573836" lon="10.885189931894423"><ele>25.5</ele><time>2026-04-07T06:45:43Z</time></trkpt><trkpt lat="43.705379402930625" lon="10.885491638309981"><ele>26.0</ele><time>2026-04-07T06:45:44Z</time></trkpt><trkpt lat="43.70542463604832" lon="10.885800907472582"><ele>27.0</ele><time>2026-04-07T06:45:45Z</time></trkpt><trkpt lat="43.705472754663546" lon="10.88610941553159"><ele>28.0</ele><time>2026-04-07T06:45:46Z</time></trkpt><trkpt lat="43.70552397525347" lon="10.886412118148112"><ele>28.0</ele><time>2026-04-07T06:45:47Z</time></trkpt><trkpt lat="43.705582975378235" lon="10.886721811617765"><ele>28.0</ele><time>2026-04-07T06:45:48Z</time></trkpt><trkpt lat="43.705642449027316" lon="10.887025187675368"><ele>28.0</ele><time>2026-04-07T06:45:49Z</time></trkpt><trkpt lat="43.70570249067003" lon="10.887327463874762"><ele>28.0</ele><time>2026-04-07T06:45:50Z</time></trkpt><trkpt lat="43.70576440929839" lon="10.88762949658382"><ele>27.5</ele><time>2026-04-07T06:45:51Z</time></trkpt><trkpt lat="43.7058282617029" lon="10.887932384738566"><ele>27.0</ele><time>2026-04-07T06:45:52Z</time></trkpt><trkpt lat="43.705889703049635" lon="10.888231013629095"><ele>26.5</ele><time>2026-04-07T06:45:53Z</time></trkpt><trkpt lat="43.70595817337392" lon="10.8885353341521"><ele>26.0</ele><time>2026-04-07T06:45:54Z</time></trkpt><trkpt lat="43.70602137809442" lon="10.888828168508047"><ele>25.0</ele><time>2026-04-07T06:45:55Z</time></trkpt><trkpt lat="43.70609082072186" lon="10.889133240754711"><ele>24.0</ele><time>2026-04-07T06:45:56Z</time></trkpt><trkpt lat="43.70615634566872" lon="10.889428530094056"><ele>23.333333333333332</ele><time>2026-04-07T06:45:57Z</time></trkpt><trkpt lat="43.7062239399043" lon="10.889728843391355"><ele>22.666666666666664</ele><time>2026-04-07T06:45:58Z</time></trkpt><trkpt lat="43.706288578848635" lon="10.890022467862043"><ele>22.0</ele><time>2026-04-07T06:45:59Z</time></trkpt><trkpt lat="43.70635540344381" lon="10.890320270024917"><ele>22.0</ele><time>2026-04-07T06:46:00Z</time></trkpt><trkpt lat="43.706419583735254" lon="10.890614565340453"><ele>22.0</ele><time>2026-04-07T06:46:01Z</time></trkpt><trkpt lat="43.7064871633223" lon="10.890914615924274"><ele>22.0</ele><time>2026-04-07T06:46:02Z</time></trkpt><trkpt lat="43.70655562551397" lon="10.89121628349788"><ele>23.5</ele><time>2026-04-07T06:46:03Z</time></trkpt><trkpt lat="43.70662339282107" lon="10.891514669958438"><ele>25.0</ele><time>2026-04-07T06:46:04Z</time></trkpt><trkpt lat="43.70669082817384" lon="10.891813096065652"><ele>25.5</ele><time>2026-04-07T06:46:05Z</time></trkpt><trkpt lat="43.70676031190513" lon="10.89211504985229"><ele>26.0</ele><time>2026-04-07T06:46:06Z</time></trkpt><trkpt lat="43.706825619618655" lon="10.89241219928961"><ele>26.0</ele><time>2026-04-07T06:46:07Z</time></trkpt><trkpt lat="43.706892613037084" lon="10.89271476044713"><ele>26.0</ele><time>2026-04-07T06:46:08Z</time></trkpt><trkpt lat="43.70695664169443" lon="10.893012820002657"><ele>26.0</ele><time>2026-04-07T06:46:09Z</time></trkpt><trkpt lat="43.70702111318369" lon="10.893310208855814"><ele>26.0</ele><time>2026-04-07T06:46:10Z</time></trkpt><trkpt lat="43.70708916771601" lon="10.893613423881883"><ele>26.0</ele><time>2026-04-07T06:46:11Z</time></trkpt><trkpt lat="43.70715694567079" lon="10.893917463898203"><ele>26.0</ele><time>2026-04-07T06:46:12Z</time></trkpt><trkpt lat="43.70722530812389" lon="10.894223902482212"><ele>26.0</ele><time>2026-04-07T06:46:13Z</time></trkpt><trkpt lat="43.70729046200672" lon="10.894527843212392"><ele>26.0</ele><time>2026-04-07T06:46:14Z</time></trkpt><trkpt lat="43.70735840618547" lon="10.89483985756666"><ele>25.0</ele><time>2026-04-07T06:46:15Z</time></trkpt><trkpt lat="43.707427279250155" lon="10.895147985394082"><ele>24.0</ele><time>2026-04-07T06:46:16Z</time></trkpt><trkpt lat="43.707497826595635" lon="10.895454180334037"><ele>24.0</ele><time>2026-04-07T06:46:17Z</time></trkpt><trkpt lat="43.707569450096244" lon="10.895760997277094"><ele>24.0</ele><time>2026-04-07T06:46:18Z</time></trkpt><trkpt lat="43.70763898350554" lon="10.896068253333679"><ele>24.0</ele><time>2026-04-07T06:46:19Z</time></trkpt><trkpt lat="43.70770894093178" lon="10.896374259816778"><ele>24.0</ele><time>2026-04-07T06:46:20Z</time></trkpt><trkpt lat="43.70777977615298" lon="10.896680374124431"><ele>23.666666666666668</ele><time>2026-04-07T06:46:21Z</time></trkpt><trkpt lat="43.70784738655991" lon="10.896984624977891"><ele>23.333333333333336</ele><time>2026-04-07T06:46:22Z</time></trkpt><trkpt lat="43.70791022449242" lon="10.897273934213498"><ele>23.0</ele><time>2026-04-07T06:46:23Z</time></trkpt><trkpt lat="43.70797368819851" lon="10.89756532267503"><ele>23.0</ele><time>2026-04-07T06:46:24Z</time></trkpt><trkpt lat="43.70803529238172" lon="10.897853120107488"><ele>23.0</ele><time>2026-04-07T06:46:25Z</time></trkpt><trkpt lat="43.70809773840328" lon="10.898140146719104"><ele>23.0</ele><time>2026-04-07T06:46:26Z</time></trkpt><trkpt lat="43.70816242702368" lon="10.89843323877664"><ele>23.0</ele><time>2026-04-07T06:46:27Z</time></trkpt><trkpt lat="43.708227324979376" lon="10.898724124990531"><ele>23.0</ele><time>2026-04-07T06:46:28Z</time></trkpt><trkpt lat="43.708295583399455" lon="10.89902947773619"><ele>23.5</ele><time>2026-04-07T06:46:29Z</time></trkpt><trkpt lat="43.70836124744283" lon="10.899327511875681"><ele>24.0</ele><time>2026-04-07T06:46:30Z</time></trkpt><trkpt lat="43.708431206484995" lon="10.899637492105132"><ele>24.0</ele><time>2026-04-07T06:46:31Z</time></trkpt><trkpt lat="43.70849916338098" lon="10.89994501337814"><ele>24.0</ele><time>2026-04-07T06:46:32Z</time></trkpt><trkpt lat="43.708567456024646" lon="10.900255605356888"><ele>23.5</ele><time>2026-04-07T06:46:33Z</time></trkpt><trkpt lat="43.708634547701486" lon="10.900563421243163"><ele>23.0</ele><time>2026-04-07T06:46:34Z</time></trkpt><trkpt lat="43.708701003541236" lon="10.900859409180722"><ele>23.5</ele><time>2026-04-07T06:46:35Z</time></trkpt><trkpt lat="43.70876919111703" lon="10.90115740190885"><ele>24.0</ele><time>2026-04-07T06:46:36Z</time></trkpt><trkpt lat="43.70883734088382" lon="10.901457792908658"><ele>23.5</ele><time>2026-04-07T06:46:37Z</time></trkpt><trkpt lat="43.708902872528554" lon="10.90175374816059"><ele>23.0</ele><time>2026-04-07T06:46:38Z</time></trkpt><trkpt lat="43.708969960717205" lon="10.902057307674411"><ele>23.0</ele><time>2026-04-07T06:46:39Z</time></trkpt><trkpt lat="43.70903454978485" lon="10.902357811566185"><ele>23.0</ele><time>2026-04-07T06:46:40Z</time></trkpt><trkpt lat="43.70910049064514" lon="10.902661107063917"><ele>23.5</ele><time>2026-04-07T06:46:41Z</time></trkpt><trkpt lat="43.70917041586017" lon="10.90297227405953"><ele>24.0</ele><time>2026-04-07T06:46:42Z</time></trkpt><trkpt lat="43.709236980387146" lon="10.90327685210511"><ele>23.5</ele><time>2026-04-07T06:46:43Z</time></trkpt><trkpt lat="43.709305307466366" lon="10.903584136759807"><ele>23.0</ele><time>2026-04-07T06:46:44Z</time></trkpt><trkpt lat="43.70937471331277" lon="10.903888539100686"><ele>23.0</ele><time>2026-04-07T06:46:44.999Z</time></trkpt><trkpt lat="43.709444904412265" lon="10.90420202409774"><ele>23.0</ele><time>2026-04-07T06:46:45.999Z</time></trkpt><trkpt lat="43.70951532012979" lon="10.904513185278857"><ele>23.0</ele><time>2026-04-07T06:46:46.999Z</time></trkpt><trkpt lat="43.70958495110775" lon="10.904821721849306"><ele>23.0</ele><time>2026-04-07T06:46:47.999Z</time></trkpt><trkpt lat="43.70965296154847" lon="10.905129314343178"><ele>24.0</ele><time>2026-04-07T06:46:48.999Z</time></trkpt><trkpt lat="43.70972066298455" lon="10.905434096832279"><ele>25.0</ele><time>2026-04-07T06:46:49.999Z</time></trkpt><trkpt lat="43.709786546467356" lon="10.905737886463617"><ele>25.0</ele><time>2026-04-07T06:46:50.999Z</time></trkpt><trkpt lat="43.70985103623232" lon="10.906037263545416"><ele>25.0</ele><time>2026-04-07T06:46:51.999Z</time></trkpt><trkpt lat="43.70991709615061" lon="10.906340849497326"><ele>25.0</ele><time>2026-04-07T06:46:52.999Z</time></trkpt><trkpt lat="43.70998320772004" lon="10.90663826945513"><ele>25.0</ele><time>2026-04-07T06:46:53.999Z</time></trkpt><trkpt lat="43.71004842256525" lon="10.906939750856209"><ele>24.5</ele><time>2026-04-07T06:46:54.999Z</time></trkpt><trkpt lat="43.71011401062249" lon="10.907242442960053"><ele>24.0</ele><time>2026-04-07T06:46:55.999Z</time></trkpt><trkpt lat="43.710181496592" lon="10.907546551034178"><ele>23.0</ele><time>2026-04-07T06:46:56.999Z</time></trkpt><trkpt lat="43.71025011316734" lon="10.90784646906908"><ele>22.0</ele><time>2026-04-07T06:46:57.999Z</time></trkpt><trkpt lat="43.710314700716374" lon="10.90816159916745"><ele>22.5</ele><time>2026-04-07T06:46:58.999Z</time></trkpt><trkpt lat="43.71037003371782" lon="10.908475198397708"><ele>23.0</ele><time>2026-04-07T06:46:59.999Z</time></trkpt><trkpt lat="43.71041287242997" lon="10.908793846728965"><ele>23.0</ele><time>2026-04-07T06:47:00.999Z</time></trkpt><trkpt lat="43.710441951060716" lon="10.909118448098994"><ele>23.0</ele><time>2026-04-07T06:47:01.999Z</time></trkpt><trkpt lat="43.7104602684312" lon="10.90944223354965"><ele>24.0</ele><time>2026-04-07T06:47:02.999Z</time></trkpt><trkpt lat="43.710469396982205" lon="10.909770448113612"><ele>25.0</ele><time>2026-04-07T06:47:03.999Z</time></trkpt><trkpt lat="43.71046846535922" lon="10.910087215310154"><ele>25.5</ele><time>2026-04-07T06:47:04.999Z</time></trkpt><trkpt lat="43.71045922722667" lon="10.91040275381631"><ele>26.0</ele><time>2026-04-07T06:47:05.999Z</time></trkpt><trkpt lat="43.71044055975117" lon="10.910717263433202"><ele>25.666666666666664</ele><time>2026-04-07T06:47:06.999Z</time></trkpt><trkpt lat="43.71041148621863" lon="10.911021064857223"><ele>25.333333333333336</ele><time>2026-04-07T06:47:07.999Z</time></trkpt><trkpt lat="43.71036908974561" lon="10.911326666843614"><ele>25.0</ele><time>2026-04-07T06:47:08.999Z</time></trkpt><trkpt lat="43.71032131486881" lon="10.91162076449251"><ele>24.666666666666668</ele><time>2026-04-07T06:47:09.999Z</time></trkpt><trkpt lat="43.710265827442974" lon="10.911909090068844"><ele>24.333333333333336</ele><time>2026-04-07T06:47:10.999Z</time></trkpt><trkpt lat="43.710205797460986" lon="10.912200913454768"><ele>24.0</ele><time>2026-04-07T06:47:11.999Z</time></trkpt><trkpt lat="43.710137604934815" lon="10.912494041125942"><ele>24.666666666666664</ele><time>2026-04-07T06:47:12.999Z</time></trkpt><trkpt lat="43.710063797797794" lon="10.91278475038093"><ele>25.333333333333332</ele><time>2026-04-07T06:47:13.999Z</time></trkpt><trkpt lat="43.709976915805754" lon="10.913073507798096"><ele>26.0</ele><time>2026-04-07T06:47:15Z</time></trkpt><trkpt lat="43.70987759526179" lon="10.913339761481158"><ele>25.0</ele><time>2026-04-07T06:47:16Z</time></trkpt><trkpt lat="43.709763634903474" lon="10.913609796887956"><ele>24.0</ele><time>2026-04-07T06:47:17Z</time></trkpt><trkpt lat="43.70964261501894" lon="10.913878397850116"><ele>24.0</ele><time>2026-04-07T06:47:18Z</time></trkpt><trkpt lat="43.70952096980842" lon="10.914146055086592"><ele>24.0</ele><time>2026-04-07T06:47:19Z</time></trkpt><trkpt lat="43.709404014095256" lon="10.914412931985375"><ele>25.0</ele><time>2026-04-07T06:47:20Z</time></trkpt><trkpt lat="43.70928480520213" lon="10.914685407041631"><ele>26.0</ele><time>2026-04-07T06:47:21Z</time></trkpt><trkpt lat="43.709167038452705" lon="10.914955841083174"><ele>25.5</ele><time>2026-04-07T06:47:22Z</time></trkpt><trkpt lat="43.709047684796545" lon="10.915228012344949"><ele>25.0</ele><time>2026-04-07T06:47:23Z</time></trkpt><trkpt lat="43.70892673682575" lon="10.915499119384261"><ele>25.0</ele><time>2026-04-07T06:47:24Z</time></trkpt><trkpt lat="43.708810222168935" lon="10.915763729540357"><ele>25.0</ele><time>2026-04-07T06:47:25Z</time></trkpt><trkpt lat="43.708701077111705" lon="10.916013208954222"><ele>25.0</ele><time>2026-04-07T06:47:26Z</time></trkpt><trkpt lat="43.70859374500168" lon="10.916269129748146"><ele>25.0</ele><time>2026-04-07T06:47:27Z</time></trkpt><trkpt lat="43.70849053764964" lon="10.916523870670185"><ele>25.0</ele><time>2026-04-07T06:47:28Z</time></trkpt><trkpt lat="43.70840852509403" lon="10.916759615766187"><ele>25.0</ele><time>2026-04-07T06:47:29Z</time></trkpt><trkpt lat="43.70833904634139" lon="10.916996348909118"><ele>25.0</ele><time>2026-04-07T06:47:30Z</time></trkpt><trkpt lat="43.708273409649614" lon="10.917243862233658"><ele>25.0</ele><time>2026-04-07T06:47:31Z</time></trkpt><trkpt lat="43.708216321010866" lon="10.917492060514949"><ele>25.0</ele><time>2026-04-07T06:47:32Z</time></trkpt><trkpt lat="43.70816449294915" lon="10.917743426095354"><ele>24.666666666666668</ele><time>2026-04-07T06:47:33Z</time></trkpt><trkpt lat="43.70812020790034" lon="10.91800336744345"><ele>24.333333333333336</ele><time>2026-04-07T06:47:34Z</time></trkpt><trkpt lat="43.70808410089264" lon="10.918274017954609"><ele>24.0</ele><time>2026-04-07T06:47:35Z</time></trkpt><trkpt lat="43.70805619606728" lon="10.918552618476564"><ele>24.0</ele><time>2026-04-07T06:47:36Z</time></trkpt><trkpt lat="43.70803493641297" lon="10.918832479455647"><ele>24.0</ele><time>2026-04-07T06:47:37Z</time></trkpt><trkpt lat="43.7080243677699" lon="10.919119383414804"><ele>24.0</ele><time>2026-04-07T06:47:38Z</time></trkpt><trkpt lat="43.708025935117455" lon="10.919409146899993"><ele>23.666666666666668</ele><time>2026-04-07T06:47:39Z</time></trkpt><trkpt lat="43.70803928552312" lon="10.91970258895121"><ele>23.333333333333336</ele><time>2026-04-07T06:47:40Z</time></trkpt><trkpt lat="43.708059093775965" lon="10.919991324627413"><ele>23.0</ele><time>2026-04-07T06:47:41Z</time></trkpt><trkpt lat="43.708085550754525" lon="10.920281540946032"><ele>23.0</ele><time>2026-04-07T06:47:42Z</time></trkpt><trkpt lat="43.70811521991443" lon="10.92056864999642"><ele>23.0</ele><time>2026-04-07T06:47:43Z</time></trkpt><trkpt lat="43.7081455562911" lon="10.920861495617826"><ele>23.0</ele><time>2026-04-07T06:47:44Z</time></trkpt><trkpt lat="43.708174944055095" lon="10.921156462040205"><ele>23.333333333333336</ele><time>2026-04-07T06:47:45Z</time></trkpt><trkpt lat="43.7082012569556" lon="10.921440850136982"><ele>23.666666666666668</ele><time>2026-04-07T06:47:46Z</time></trkpt><trkpt lat="43.708229939352904" lon="10.921722576330572"><ele>24.0</ele><time>2026-04-07T06:47:47Z</time></trkpt><trkpt lat="43.70826113792247" lon="10.922003667981915"><ele>24.0</ele><time>2026-04-07T06:47:48Z</time></trkpt><trkpt lat="43.70829426350184" lon="10.92228729555997"><ele>24.0</ele><time>2026-04-07T06:47:49Z</time></trkpt><trkpt lat="43.7083270597206" lon="10.922573072042988"><ele>24.0</ele><time>2026-04-07T06:47:50Z</time></trkpt><trkpt lat="43.70835692121394" lon="10.922860925348816"><ele>24.333333333333336</ele><time>2026-04-07T06:47:51Z</time></trkpt><trkpt lat="43.7083850869473" lon="10.923151615247974"><ele>24.666666666666668</ele><time>2026-04-07T06:47:52Z</time></trkpt><trkpt lat="43.7084101233312" lon="10.92344242290678"><ele>25.0</ele><time>2026-04-07T06:47:53Z</time></trkpt><trkpt lat="43.708432727254625" lon="10.923738969413238"><ele>25.0</ele><time>2026-04-07T06:47:54Z</time></trkpt><trkpt lat="43.708451719679694" lon="10.924030325710781"><ele>25.0</ele><time>2026-04-07T06:47:55Z</time></trkpt><trkpt lat="43.70847136535365" lon="10.924327370788601"><ele>25.0</ele><time>2026-04-07T06:47:56Z</time></trkpt><trkpt lat="43.7084869037498" lon="10.924627312422537"><ele>25.0</ele><time>2026-04-07T06:47:57Z</time></trkpt><trkpt lat="43.708499025785834" lon="10.924934762581856"><ele>25.0</ele><time>2026-04-07T06:47:58Z</time></trkpt><trkpt lat="43.70850674505564" lon="10.925249742855954"><ele>25.0</ele><time>2026-04-07T06:47:59Z</time></trkpt><trkpt lat="43.708513363788306" lon="10.925570685750237"><ele>25.0</ele><time>2026-04-07T06:48:00Z</time></trkpt><trkpt lat="43.708517067747216" lon="10.92589636217831"><ele>25.0</ele><time>2026-04-07T06:48:01Z</time></trkpt><trkpt lat="43.708518645424476" lon="10.926222608015248"><ele>25.0</ele><time>2026-04-07T06:48:02Z</time></trkpt><trkpt lat="43.708522031135814" lon="10.926551568989744"><ele>24.5</ele><time>2026-04-07T06:48:03Z</time></trkpt><trkpt lat="43.70852942175389" lon="10.926881322532271"><ele>24.0</ele><time>2026-04-07T06:48:04Z</time></trkpt><trkpt lat="43.70853844972036" lon="10.927209661521655"><ele>24.0</ele><time>2026-04-07T06:48:05Z</time></trkpt><trkpt lat="43.708548973039036" lon="10.927534868843512"><ele>24.0</ele><time>2026-04-07T06:48:06Z</time></trkpt><trkpt lat="43.708562022659905" lon="10.927855936743667"><ele>24.333333333333336</ele><time>2026-04-07T06:48:07Z</time></trkpt><trkpt lat="43.70857408042598" lon="10.928169190154398"><ele>24.666666666666668</ele><time>2026-04-07T06:48:08Z</time></trkpt><trkpt lat="43.70858383430118" lon="10.92847454802123"><ele>25.0</ele><time>2026-04-07T06:48:09Z</time></trkpt><trkpt lat="43.70859499159928" lon="10.928784177343276"><ele>25.0</ele><time>2026-04-07T06:48:10Z</time></trkpt><trkpt lat="43.708603746169594" lon="10.929090952808846"><ele>25.0</ele><time>2026-04-07T06:48:11Z</time></trkpt><trkpt lat="43.7086119134134" lon="10.929393615211689"><ele>25.0</ele><time>2026-04-07T06:48:12Z</time></trkpt><trkpt lat="43.70862096078457" lon="10.929701506697524"><ele>24.5</ele><time>2026-04-07T06:48:13Z</time></trkpt><trkpt lat="43.70863096352442" lon="10.930013656487276"><ele>24.0</ele><time>2026-04-07T06:48:14Z</time></trkpt><trkpt lat="43.70864155847943" lon="10.930327993513075"><ele>24.0</ele><time>2026-04-07T06:48:15Z</time></trkpt><trkpt lat="43.70865208745788" lon="10.930645852817939"><ele>24.0</ele><time>2026-04-07T06:48:16Z</time></trkpt><trkpt lat="43.708662444641476" lon="10.930972690152771"><ele>24.0</ele><time>2026-04-07T06:48:17Z</time></trkpt><trkpt lat="43.70867327608646" lon="10.931289714766558"><ele>24.0</ele><time>2026-04-07T06:48:18Z</time></trkpt><trkpt lat="43.70868400231354" lon="10.931618182875846"><ele>24.5</ele><time>2026-04-07T06:48:19Z</time></trkpt><trkpt lat="43.708694733781236" lon="10.931939344392585"><ele>25.0</ele><time>2026-04-07T06:48:20Z</time></trkpt><trkpt lat="43.708705594989716" lon="10.932273979382403"><ele>25.0</ele><time>2026-04-07T06:48:21Z</time></trkpt><trkpt lat="43.70871661711021" lon="10.932589822170517"><ele>25.0</ele><time>2026-04-07T06:48:22Z</time></trkpt><trkpt lat="43.70872709683396" lon="10.932905367416462"><ele>25.0</ele><time>2026-04-07T06:48:23Z</time></trkpt><trkpt lat="43.70873626772517" lon="10.93319817406913"><ele>25.0</ele><time>2026-04-07T06:48:24Z</time></trkpt><trkpt lat="43.70874519240521" lon="10.933475917625675"><ele>25.0</ele><time>2026-04-07T06:48:25Z</time></trkpt><trkpt lat="43.708754482690836" lon="10.933745862577428"><ele>24.666666666666668</ele><time>2026-04-07T06:48:26Z</time></trkpt><trkpt lat="43.70876272729409" lon="10.93400086093871"><ele>24.333333333333336</ele><time>2026-04-07T06:48:27Z</time></trkpt><trkpt lat="43.7087709694978" lon="10.934261107565353"><ele>24.0</ele><time>2026-04-07T06:48:28Z</time></trkpt><trkpt lat="43.70877983892232" lon="10.934526221461423"><ele>24.0</ele><time>2026-04-07T06:48:29Z</time></trkpt><trkpt lat="43.70878771228106" lon="10.93479465898084"><ele>24.0</ele><time>2026-04-07T06:48:30Z</time></trkpt><trkpt lat="43.708795743077005" lon="10.935063485819116"><ele>24.0</ele><time>2026-04-07T06:48:31Z</time></trkpt><trkpt lat="43.70880437190219" lon="10.93532339471641"><ele>24.333333333333336</ele><time>2026-04-07T06:48:32Z</time></trkpt><trkpt lat="43.70881450689247" lon="10.935577780088304"><ele>24.666666666666668</ele><time>2026-04-07T06:48:33Z</time></trkpt><trkpt lat="43.708822245057995" lon="10.935817434445086"><ele>25.0</ele><time>2026-04-07T06:48:34Z</time></trkpt><trkpt lat="43.70883033688778" lon="10.936052468900158"><ele>25.0</ele><time>2026-04-07T06:48:35Z</time></trkpt><trkpt lat="43.70883746565316" lon="10.936289396075022"><ele>25.0</ele><time>2026-04-07T06:48:36Z</time></trkpt><trkpt lat="43.70884577093648" lon="10.936535554191739"><ele>25.0</ele><time>2026-04-07T06:48:37Z</time></trkpt><trkpt lat="43.70885560227271" lon="10.936775487479537"><ele>25.0</ele><time>2026-04-07T06:48:38Z</time></trkpt><trkpt lat="43.70886718033377" lon="10.937018500504282"><ele>25.0</ele><time>2026-04-07T06:48:38.999Z</time></trkpt><trkpt lat="43.708880917981986" lon="10.937265928307216"><ele>25.0</ele><time>2026-04-07T06:48:39.999Z</time></trkpt><trkpt lat="43.70889638124224" lon="10.937521760169453"><ele>25.0</ele><time>2026-04-07T06:48:40.999Z</time></trkpt><trkpt lat="43.70890725447795" lon="10.937781951470633"><ele>25.0</ele><time>2026-04-07T06:48:41.999Z</time></trkpt><trkpt lat="43.70891631637512" lon="10.938047788018556"><ele>25.0</ele><time>2026-04-07T06:48:42.999Z</time></trkpt><trkpt lat="43.70892316327479" lon="10.938316605015487"><ele>25.0</ele><time>2026-04-07T06:48:43.999Z</time></trkpt><trkpt lat="43.70893306297617" lon="10.938590137631413"><ele>25.0</ele><time>2026-04-07T06:48:44.999Z</time></trkpt><trkpt lat="43.70894368501474" lon="10.938860602020487"><ele>25.0</ele><time>2026-04-07T06:48:45.999Z</time></trkpt><trkpt lat="43.70895361488786" lon="10.93913546016335"><ele>25.0</ele><time>2026-04-07T06:48:46.999Z</time></trkpt><trkpt lat="43.70896329919986" lon="10.939418963949857"><ele>25.0</ele><time>2026-04-07T06:48:47.999Z</time></trkpt><trkpt lat="43.708973729459494" lon="10.93969995534113"><ele>25.0</ele><time>2026-04-07T06:48:48.999Z</time></trkpt><trkpt lat="43.70898544328467" lon="10.939984861586884"><ele>24.333333333333336</ele><time>2026-04-07T06:48:49.999Z</time></trkpt><trkpt lat="43.70899453437901" lon="10.940273611551785"><ele>23.666666666666668</ele><time>2026-04-07T06:48:50.999Z</time></trkpt><trkpt lat="43.70900443426065" lon="10.940559001997842"><ele>23.0</ele><time>2026-04-07T06:48:51.999Z</time></trkpt><trkpt lat="43.70901706441572" lon="10.940850496880573"><ele>23.333333333333336</ele><time>2026-04-07T06:48:52.999Z</time></trkpt><trkpt lat="43.709026303831806" lon="10.941133302903081"><ele>23.666666666666668</ele><time>2026-04-07T06:48:53.999Z</time></trkpt><trkpt lat="43.709038803176526" lon="10.941412728055814"><ele>24.0</ele><time>2026-04-07T06:48:54.999Z</time></trkpt><trkpt lat="43.709046349574756" lon="10.941680160781427"><ele>24.0</ele><time>2026-04-07T06:48:55.999Z</time></trkpt><trkpt lat="43.70905455741938" lon="10.941940330578742"><ele>24.0</ele><time>2026-04-07T06:48:56.999Z</time></trkpt><trkpt lat="43.7090635046326" lon="10.942201088552613"><ele>24.0</ele><time>2026-04-07T06:48:57.999Z</time></trkpt><trkpt lat="43.7090704222282" lon="10.942460977544322"><ele>24.333333333333336</ele><time>2026-04-07T06:48:58.999Z</time></trkpt><trkpt lat="43.70908038524989" lon="10.942717124916994"><ele>24.666666666666668</ele><time>2026-04-07T06:48:59.999Z</time></trkpt><trkpt lat="43.70908893662265" lon="10.94297642930337"><ele>25.0</ele><time>2026-04-07T06:49:00.999Z</time></trkpt><trkpt lat="43.709097127138506" lon="10.94323663013383"><ele>25.666666666666668</ele><time>2026-04-07T06:49:01.999Z</time></trkpt><trkpt lat="43.709106166848294" lon="10.943498450908146"><ele>26.333333333333336</ele><time>2026-04-07T06:49:02.999Z</time></trkpt><trkpt lat="43.70911423175876" lon="10.943763344662344"><ele>27.0</ele><time>2026-04-07T06:49:03.999Z</time></trkpt><trkpt lat="43.70912538716065" lon="10.944028455423052"><ele>27.0</ele><time>2026-04-07T06:49:04.999Z</time></trkpt><trkpt lat="43.70913752779167" lon="10.944295823521207"><ele>27.0</ele><time>2026-04-07T06:49:05.999Z</time></trkpt><trkpt lat="43.70914968326573" lon="10.944566141938758"><ele>27.0</ele><time>2026-04-07T06:49:06.999Z</time></trkpt><trkpt lat="43.709163366092135" lon="10.944837108367594"><ele>27.0</ele><time>2026-04-07T06:49:07.999Z</time></trkpt><trkpt lat="43.70917785143404" lon="10.945110260816866"><ele>27.0</ele><time>2026-04-07T06:49:08.999Z</time></trkpt><trkpt lat="43.70919343729744" lon="10.945387229104963"><ele>27.0</ele><time>2026-04-07T06:49:09.999Z</time></trkpt><trkpt lat="43.70920979148038" lon="10.94566980728058"><ele>27.333333333333336</ele><time>2026-04-07T06:49:10.999Z</time></trkpt><trkpt lat="43.70922574217148" lon="10.945957405114891"><ele>27.666666666666668</ele><time>2026-04-07T06:49:11.999Z</time></trkpt><trkpt lat="43.70924139855953" lon="10.946249764077356"><ele>28.0</ele><time>2026-04-07T06:49:12.999Z</time></trkpt><trkpt lat="43.70925877122293" lon="10.946546612239851"><ele>28.333333333333336</ele><time>2026-04-07T06:49:13.999Z</time></trkpt><trkpt lat="43.70927478429761" lon="10.946845352785587"><ele>28.666666666666664</ele><time>2026-04-07T06:49:14.999Z</time></trkpt><trkpt lat="43.70929127049471" lon="10.947144510174605"><ele>29.0</ele><time>2026-04-07T06:49:15.999Z</time></trkpt><trkpt lat="43.709307112659765" lon="10.947439226888578"><ele>28.333333333333332</ele><time>2026-04-07T06:49:16.999Z</time></trkpt><trkpt lat="43.70932541421322" lon="10.947728377179851"><ele>27.666666666666664</ele><time>2026-04-07T06:49:17.999Z</time></trkpt><trkpt lat="43.70934548622812" lon="10.94802494158599"><ele>27.0</ele><time>2026-04-07T06:49:18.999Z</time></trkpt><trkpt lat="43.70936534379543" lon="10.948327060270213"><ele>27.0</ele><time>2026-04-07T06:49:19.999Z</time></trkpt><trkpt lat="43.70938200323179" lon="10.948627768923492"><ele>27.0</ele><time>2026-04-07T06:49:21Z</time></trkpt><trkpt lat="43.70939859881073" lon="10.948928373421198"><ele>27.0</ele><time>2026-04-07T06:49:22Z</time></trkpt><trkpt lat="43.70941438005774" lon="10.949223054194837"><ele>27.0</ele><time>2026-04-07T06:49:23Z</time></trkpt><trkpt lat="43.709430799420794" lon="10.949512704523112"><ele>27.0</ele><time>2026-04-07T06:49:24Z</time></trkpt><trkpt lat="43.709446504618576" lon="10.949800355192107"><ele>27.0</ele><time>2026-04-07T06:49:25Z</time></trkpt><trkpt lat="43.70946213778171" lon="10.950083105699788"><ele>27.0</ele><time>2026-04-07T06:49:26Z</time></trkpt><trkpt lat="43.70947772757269" lon="10.95036963289291"><ele>27.0</ele><time>2026-04-07T06:49:27Z</time></trkpt><trkpt lat="43.709494903330196" lon="10.950653974306165"><ele>27.0</ele><time>2026-04-07T06:49:28Z</time></trkpt><trkpt lat="43.7095124506646" lon="10.950942486763054"><ele>27.0</ele><time>2026-04-07T06:49:29Z</time></trkpt><trkpt lat="43.70953030643075" lon="10.95124128590382"><ele>27.0</ele><time>2026-04-07T06:49:30Z</time></trkpt><trkpt lat="43.70954852611695" lon="10.951535956067197"><ele>27.0</ele><time>2026-04-07T06:49:31Z</time></trkpt><trkpt lat="43.70956611080405" lon="10.951832340636667"><ele>27.0</ele><time>2026-04-07T06:49:32Z</time></trkpt><trkpt lat="43.70958308967786" lon="10.952129425590723"><ele>27.0</ele><time>2026-04-07T06:49:33Z</time></trkpt><trkpt lat="43.70960032626211" lon="10.952431525738884"><ele>27.0</ele><time>2026-04-07T06:49:34Z</time></trkpt><trkpt lat="43.70961457639928" lon="10.952731185407055"><ele>27.0</ele><time>2026-04-07T06:49:35Z</time></trkpt><trkpt lat="43.70962322373584" lon="10.953031784098231"><ele>27.0</ele><time>2026-04-07T06:49:36Z</time></trkpt><trkpt lat="43.70962106501724" lon="10.953330464492575"><ele>27.0</ele><time>2026-04-07T06:49:37Z</time></trkpt><trkpt lat="43.70961203054116" lon="10.953628830722733"><ele>26.666666666666664</ele><time>2026-04-07T06:49:38Z</time></trkpt><trkpt lat="43.70959518285255" lon="10.953925269075862"><ele>26.333333333333332</ele><time>2026-04-07T06:49:39Z</time></trkpt><trkpt lat="43.70957732868036" lon="10.95421900983398"><ele>26.0</ele><time>2026-04-07T06:49:40Z</time></trkpt><trkpt lat="43.709552966931255" lon="10.954505558305142"><ele>26.666666666666664</ele><time>2026-04-07T06:49:41Z</time></trkpt><trkpt lat="43.709529525134826" lon="10.954784791846864"><ele>27.333333333333336</ele><time>2026-04-07T06:49:42Z</time></trkpt><trkpt lat="43.709502552441016" lon="10.955070577875825"><ele>28.0</ele><time>2026-04-07T06:49:43Z</time></trkpt><trkpt lat="43.70948045250886" lon="10.95535707599861"><ele>28.0</ele><time>2026-04-07T06:49:44Z</time></trkpt><trkpt lat="43.709456699810474" lon="10.955646243459897"><ele>28.0</ele><time>2026-04-07T06:49:45Z</time></trkpt><trkpt lat="43.70943258282123" lon="10.955934781998483"><ele>28.0</ele><time>2026-04-07T06:49:46Z</time></trkpt><trkpt lat="43.70940674739145" lon="10.956232033454729"><ele>27.666666666666668</ele><time>2026-04-07T06:49:47Z</time></trkpt><trkpt lat="43.709382458798096" lon="10.956525065568767"><ele>27.333333333333336</ele><time>2026-04-07T06:49:48Z</time></trkpt><trkpt lat="43.70935729089713" lon="10.956819915930405"><ele>27.0</ele><time>2026-04-07T06:49:49Z</time></trkpt><trkpt lat="43.709332142273176" lon="10.95711003534672"><ele>27.666666666666664</ele><time>2026-04-07T06:49:50Z</time></trkpt><trkpt lat="43.709306275341035" lon="10.957402320788844"><ele>28.333333333333332</ele><time>2026-04-07T06:49:51Z</time></trkpt><trkpt lat="43.70928061230598" lon="10.957692341376847"><ele>29.0</ele><time>2026-04-07T06:49:52Z</time></trkpt><trkpt lat="43.709255545972304" lon="10.957988038249995"><ele>29.666666666666664</ele><time>2026-04-07T06:49:53Z</time></trkpt><trkpt lat="43.70923147894151" lon="10.958280895707217"><ele>30.333333333333336</ele><time>2026-04-07T06:49:54Z</time></trkpt><trkpt lat="43.70920612463095" lon="10.95858159692534"><ele>31.0</ele><time>2026-04-07T06:49:55Z</time></trkpt><trkpt lat="43.70918091230063" lon="10.958879798204537"><ele>31.0</ele><time>2026-04-07T06:49:56Z</time></trkpt><trkpt lat="43.70915578390731" lon="10.959182601926134"><ele>31.0</ele><time>2026-04-07T06:49:57Z</time></trkpt><trkpt lat="43.709131392885105" lon="10.959486127932657"><ele>31.0</ele><time>2026-04-07T06:49:58Z</time></trkpt><trkpt lat="43.709106309301724" lon="10.959781642597529"><ele>30.333333333333336</ele><time>2026-04-07T06:49:59Z</time></trkpt><trkpt lat="43.70908125485994" lon="10.960073130043423"><ele>29.666666666666664</ele><time>2026-04-07T06:50:00Z</time></trkpt><trkpt lat="43.70905926693086" lon="10.96036161469676"><ele>29.0</ele><time>2026-04-07T06:50:01Z</time></trkpt><trkpt lat="43.709036181533634" lon="10.960645938464294"><ele>29.0</ele><time>2026-04-07T06:50:02Z</time></trkpt><trkpt lat="43.70901219464241" lon="10.960931126978556"><ele>29.0</ele><time>2026-04-07T06:50:03Z</time></trkpt><trkpt lat="43.7089903566467" lon="10.961217255256082"><ele>29.0</ele><time>2026-04-07T06:50:04Z</time></trkpt><trkpt lat="43.708969711344345" lon="10.961505010597438"><ele>29.0</ele><time>2026-04-07T06:50:05Z</time></trkpt><trkpt lat="43.70895502030471" lon="10.961795984700382"><ele>29.0</ele><time>2026-04-07T06:50:06Z</time></trkpt><trkpt lat="43.70895423589585" lon="10.962088446470231"><ele>29.0</ele><time>2026-04-07T06:50:07Z</time></trkpt><trkpt lat="43.70897152880991" lon="10.962380412717332"><ele>28.666666666666664</ele><time>2026-04-07T06:50:08Z</time></trkpt><trkpt lat="43.708995985230395" lon="10.962676403989082"><ele>28.333333333333336</ele><time>2026-04-07T06:50:09Z</time></trkpt><trkpt lat="43.709032975077264" lon="10.962967099724702"><ele>28.0</ele><time>2026-04-07T06:50:10Z</time></trkpt><trkpt lat="43.70907804850052" lon="10.963258724493622"><ele>27.666666666666668</ele><time>2026-04-07T06:50:11Z</time></trkpt><trkpt lat="43.70911602194469" lon="10.963551744860176"><ele>27.333333333333336</ele><time>2026-04-07T06:50:12Z</time></trkpt><trkpt lat="43.70919807686829" lon="10.963830153139394"><ele>27.0</ele><time>2026-04-07T06:50:13Z</time></trkpt><trkpt lat="43.70927339691638" lon="10.964109081902645"><ele>27.0</ele><time>2026-04-07T06:50:14Z</time></trkpt><trkpt lat="43.70935866756624" lon="10.964381641845815"><ele>27.0</ele><time>2026-04-07T06:50:15Z</time></trkpt><trkpt lat="43.709455512084524" lon="10.964642736606857"><ele>27.0</ele><time>2026-04-07T06:50:16Z</time></trkpt><trkpt lat="43.70955513164726" lon="10.96488481014308"><ele>27.333333333333336</ele><time>2026-04-07T06:50:17Z</time></trkpt><trkpt lat="43.70965959700975" lon="10.96511447286765"><ele>27.666666666666668</ele><time>2026-04-07T06:50:18Z</time></trkpt><trkpt lat="43.709765774671766" lon="10.965326783291975"><ele>28.0</ele><time>2026-04-07T06:50:19Z</time></trkpt><trkpt lat="43.70987751404701" lon="10.965523899660802"><ele>28.0</ele><time>2026-04-07T06:50:20Z</time></trkpt><trkpt lat="43.70999551098058" lon="10.96571911049291"><ele>28.0</ele><time>2026-04-07T06:50:21Z</time></trkpt><trkpt lat="43.71011845884627" lon="10.965906334714283"><ele>28.0</ele><time>2026-04-07T06:50:22Z</time></trkpt><trkpt lat="43.71024803220032" lon="10.966095102816627"><ele>28.333333333333336</ele><time>2026-04-07T06:50:23Z</time></trkpt><trkpt lat="43.7103836793948" lon="10.966278529160016"><ele>28.666666666666664</ele><time>2026-04-07T06:50:24Z</time></trkpt><trkpt lat="43.7105176782827" lon="10.966458336626504"><ele>29.0</ele><time>2026-04-07T06:50:25Z</time></trkpt><trkpt lat="43.71065233456699" lon="10.96664225971056"><ele>29.0</ele><time>2026-04-07T06:50:26Z</time></trkpt><trkpt lat="43.710783314067214" lon="10.966829539909922"><ele>29.0</ele><time>2026-04-07T06:50:27Z</time></trkpt><trkpt lat="43.7109172232177" lon="10.967017416799205"><ele>29.0</ele><time>2026-04-07T06:50:28Z</time></trkpt><trkpt lat="43.71104912918604" lon="10.967200779313991"><ele>28.666666666666664</ele><time>2026-04-07T06:50:29Z</time></trkpt><trkpt lat="43.711180267346144" lon="10.967384196578678"><ele>28.333333333333336</ele><time>2026-04-07T06:50:30Z</time></trkpt><trkpt lat="43.711311855289544" lon="10.967569180486587"><ele>28.0</ele><time>2026-04-07T06:50:31Z</time></trkpt><trkpt lat="43.71144494592586" lon="10.967756662583033"><ele>28.0</ele><time>2026-04-07T06:50:32Z</time></trkpt><trkpt lat="43.7115771792519" lon="10.967939778095028"><ele>28.0</ele><time>2026-04-07T06:50:32.999Z</time></trkpt><trkpt lat="43.71171464778503" lon="10.96813025190204"><ele>28.0</ele><time>2026-04-07T06:50:33.999Z</time></trkpt><trkpt lat="43.71185065008944" lon="10.968322329887334"><ele>28.666666666666668</ele><time>2026-04-07T06:50:34.999Z</time></trkpt><trkpt lat="43.711991613620945" lon="10.968519435757884"><ele>29.333333333333336</ele><time>2026-04-07T06:50:35.999Z</time></trkpt><trkpt lat="43.71213274981676" lon="10.968713005693548"><ele>30.0</ele><time>2026-04-07T06:50:36.999Z</time></trkpt><trkpt lat="43.71227719368954" lon="10.968911795377085"><ele>30.0</ele><time>2026-04-07T06:50:37.999Z</time></trkpt><trkpt lat="43.71242092195728" lon="10.969112549521702"><ele>30.0</ele><time>2026-04-07T06:50:38.999Z</time></trkpt><trkpt lat="43.71256875624717" lon="10.969320928903807"><ele>30.0</ele><time>2026-04-07T06:50:39.999Z</time></trkpt><trkpt lat="43.712716867319706" lon="10.969529205825014"><ele>29.666666666666664</ele><time>2026-04-07T06:50:40.999Z</time></trkpt><trkpt lat="43.712857415368966" lon="10.969737437384598"><ele>29.333333333333332</ele><time>2026-04-07T06:50:41.999Z</time></trkpt><trkpt lat="43.71300706714187" lon="10.969950651598017"><ele>29.0</ele><time>2026-04-07T06:50:42.999Z</time></trkpt><trkpt lat="43.71315590427399" lon="10.970166502808906"><ele>28.666666666666664</ele><time>2026-04-07T06:50:43.999Z</time></trkpt><trkpt lat="43.71330530981531" lon="10.970384440331074"><ele>28.333333333333336</ele><time>2026-04-07T06:50:44.999Z</time></trkpt><trkpt lat="43.71345624607889" lon="10.970592103978012"><ele>28.0</ele><time>2026-04-07T06:50:45.999Z</time></trkpt><trkpt lat="43.71361010800128" lon="10.970797491706405"><ele>28.333333333333336</ele><time>2026-04-07T06:50:46.999Z</time></trkpt><trkpt lat="43.713759725891656" lon="10.971003259165778"><ele>28.666666666666664</ele><time>2026-04-07T06:50:47.999Z</time></trkpt><trkpt lat="43.71390871979885" lon="10.971217857125431"><ele>29.0</ele><time>2026-04-07T06:50:48.999Z</time></trkpt><trkpt lat="43.71406008485035" lon="10.97143506114506"><ele>29.0</ele><time>2026-04-07T06:50:49.999Z</time></trkpt><trkpt lat="43.71420810090536" lon="10.971653781395709"><ele>29.0</ele><time>2026-04-07T06:50:50.999Z</time></trkpt><trkpt lat="43.71435315825094" lon="10.97187466103689"><ele>29.0</ele><time>2026-04-07T06:50:51.999Z</time></trkpt><trkpt lat="43.714504262632104" lon="10.972093353473955"><ele>28.333333333333332</ele><time>2026-04-07T06:50:52.999Z</time></trkpt><trkpt lat="43.71465795659911" lon="10.972312713845303"><ele>27.666666666666664</ele><time>2026-04-07T06:50:53.999Z</time></trkpt><trkpt lat="43.71481179540244" lon="10.97252582255096"><ele>27.0</ele><time>2026-04-07T06:50:54.999Z</time></trkpt><trkpt lat="43.71496815815829" lon="10.972741004634827"><ele>27.0</ele><time>2026-04-07T06:50:55.999Z</time></trkpt><trkpt lat="43.71512145102127" lon="10.972955579190325"><ele>27.0</ele><time>2026-04-07T06:50:56.999Z</time></trkpt><trkpt lat="43.71527274823121" lon="10.973176271232523"><ele>27.0</ele><time>2026-04-07T06:50:57.999Z</time></trkpt><trkpt lat="43.71542634805462" lon="10.97339538833827"><ele>27.0</ele><time>2026-04-07T06:50:58.999Z</time></trkpt><trkpt lat="43.715580775115505" lon="10.973613229824661"><ele>27.0</ele><time>2026-04-07T06:50:59.999Z</time></trkpt><trkpt lat="43.71573794985424" lon="10.973830722458052"><ele>27.0</ele><time>2026-04-07T06:51:00.999Z</time></trkpt><trkpt lat="43.715893527511945" lon="10.974049721444054"><ele>27.333333333333336</ele><time>2026-04-07T06:51:01.999Z</time></trkpt><trkpt lat="43.71605237840002" lon="10.974260724194863"><ele>27.666666666666668</ele><time>2026-04-07T06:51:02.999Z</time></trkpt><trkpt lat="43.716206254500385" lon="10.974482060040819"><ele>28.0</ele><time>2026-04-07T06:51:03.999Z</time></trkpt><trkpt lat="43.716353267046664" lon="10.974707812888251"><ele>27.5</ele><time>2026-04-07T06:51:04.999Z</time></trkpt><trkpt lat="43.716501278923154" lon="10.974943801271948"><ele>27.0</ele><time>2026-04-07T06:51:05.999Z</time></trkpt><trkpt lat="43.71664101307775" lon="10.975191965994032"><ele>27.0</ele><time>2026-04-07T06:51:06.999Z</time></trkpt><trkpt lat="43.716774791477945" lon="10.975443510300153"><ele>27.0</ele><time>2026-04-07T06:51:07.999Z</time></trkpt><trkpt lat="43.71690217758515" lon="10.975703776833258"><ele>26.0</ele><time>2026-04-07T06:51:08.999Z</time></trkpt><trkpt lat="43.717022673379006" lon="10.975974298721377"><ele>25.0</ele><time>2026-04-07T06:51:09.999Z</time></trkpt><trkpt lat="43.717138105722356" lon="10.9762507228874"><ele>25.0</ele><time>2026-04-07T06:51:10.999Z</time></trkpt><trkpt lat="43.717248021209855" lon="10.976536289826873"><ele>25.0</ele><time>2026-04-07T06:51:11.999Z</time></trkpt><trkpt lat="43.7173473314919" lon="10.976823812837553"><ele>25.0</ele><time>2026-04-07T06:51:12.999Z</time></trkpt><trkpt lat="43.717436387576385" lon="10.977115198687022"><ele>25.0</ele><time>2026-04-07T06:51:13.999Z</time></trkpt><trkpt lat="43.7175213735811" lon="10.977414428251501"><ele>25.5</ele><time>2026-04-07T06:51:14.999Z</time></trkpt><trkpt lat="43.71759538391495" lon="10.977717225569224"><ele>26.0</ele><time>2026-04-07T06:51:15.999Z</time></trkpt><trkpt lat="43.71766375602232" lon="10.978022037853219"><ele>26.0</ele><time>2026-04-07T06:51:16.999Z</time></trkpt><trkpt lat="43.71772552929345" lon="10.97832776267343"><ele>26.0</ele><time>2026-04-07T06:51:17.999Z</time></trkpt><trkpt lat="43.71778751627237" lon="10.978633317839737"><ele>25.5</ele><time>2026-04-07T06:51:18.999Z</time></trkpt><trkpt lat="43.71784788744995" lon="10.978937839628472"><ele>25.0</ele><time>2026-04-07T06:51:19.999Z</time></trkpt><trkpt lat="43.71790702906654" lon="10.979240713733565"><ele>25.0</ele><time>2026-04-07T06:51:20.999Z</time></trkpt><trkpt lat="43.71797034806711" lon="10.979540962964345"><ele>25.0</ele><time>2026-04-07T06:51:21.999Z</time></trkpt><trkpt lat="43.71803031178721" lon="10.979840932425695"><ele>25.5</ele><time>2026-04-07T06:51:22.999Z</time></trkpt><trkpt lat="43.718096496211274" lon="10.980140366619011"><ele>26.0</ele><time>2026-04-07T06:51:23.999Z</time></trkpt><trkpt lat="43.71815483229438" lon="10.980444196905001"><ele>26.0</ele><time>2026-04-07T06:51:24.999Z</time></trkpt><trkpt lat="43.718212793788744" lon="10.980748136918281"><ele>26.0</ele><time>2026-04-07T06:51:26Z</time></trkpt><trkpt lat="43.71827538332816" lon="10.981056209521093"><ele>26.0</ele><time>2026-04-07T06:51:27Z</time></trkpt><trkpt lat="43.71833781698896" lon="10.981361727180294"><ele>26.0</ele><time>2026-04-07T06:51:28Z</time></trkpt><trkpt lat="43.71839870028367" lon="10.981669761008371"><ele>25.5</ele><time>2026-04-07T06:51:29Z</time></trkpt><trkpt lat="43.71845519217923" lon="10.98197758334208"><ele>25.0</ele><time>2026-04-07T06:51:30Z</time></trkpt><trkpt lat="43.718518232441916" lon="10.98228216312521"><ele>26.0</ele><time>2026-04-07T06:51:31Z</time></trkpt><trkpt lat="43.71857995312059" lon="10.982587378425722"><ele>27.0</ele><time>2026-04-07T06:51:32Z</time></trkpt><trkpt lat="43.71864346226975" lon="10.98289249145696"><ele>27.0</ele><time>2026-04-07T06:51:33Z</time></trkpt><trkpt lat="43.71870627912434" lon="10.983198256585307"><ele>27.0</ele><time>2026-04-07T06:51:34Z</time></trkpt><trkpt lat="43.718768237308296" lon="10.983503829765167"><ele>27.0</ele><time>2026-04-07T06:51:35Z</time></trkpt><trkpt lat="43.718840599242306" lon="10.983811136096211"><ele>27.0</ele><time>2026-04-07T06:51:36Z</time></trkpt><trkpt lat="43.718886269242255" lon="10.984108238936741"><ele>26.666666666666664</ele><time>2026-04-07T06:51:37Z</time></trkpt><trkpt lat="43.71894812746538" lon="10.984403575735612"><ele>26.333333333333332</ele><time>2026-04-07T06:51:38Z</time></trkpt><trkpt lat="43.71901538927966" lon="10.984700117741284"><ele>26.0</ele><time>2026-04-07T06:51:39Z</time></trkpt><trkpt lat="43.719070737599296" lon="10.9849941769082"><ele>26.0</ele><time>2026-04-07T06:51:40Z</time></trkpt><trkpt lat="43.719133153867084" lon="10.985286569770734"><ele>26.0</ele><time>2026-04-07T06:51:41Z</time></trkpt><trkpt lat="43.719203400876765" lon="10.985585548032455"><ele>26.0</ele><time>2026-04-07T06:51:42Z</time></trkpt><trkpt lat="43.71927185934878" lon="10.985887206815383"><ele>26.0</ele><time>2026-04-07T06:51:43Z</time></trkpt><trkpt lat="43.7193327364928" lon="10.986188355274587"><ele>26.0</ele><time>2026-04-07T06:51:44Z</time></trkpt><trkpt lat="43.71939244178715" lon="10.986488364009933"><ele>27.0</ele><time>2026-04-07T06:51:45Z</time></trkpt><trkpt lat="43.719450833962696" lon="10.986791217505633"><ele>28.0</ele><time>2026-04-07T06:51:46Z</time></trkpt><trkpt lat="43.71951070101783" lon="10.987090686306061"><ele>28.0</ele><time>2026-04-07T06:51:47Z</time></trkpt><trkpt lat="43.71957322103768" lon="10.987389463429949"><ele>28.0</ele><time>2026-04-07T06:51:48Z</time></trkpt><trkpt lat="43.71963331635595" lon="10.987687950051374"><ele>28.0</ele><time>2026-04-07T06:51:49Z</time></trkpt><trkpt lat="43.71969050128335" lon="10.98798473831294"><ele>28.0</ele><time>2026-04-07T06:51:50Z</time></trkpt><trkpt lat="43.719746780141556" lon="10.988287872840347"><ele>28.0</ele><time>2026-04-07T06:51:51Z</time></trkpt><trkpt lat="43.71980278456183" lon="10.988595987320558"><ele>27.5</ele><time>2026-04-07T06:51:52Z</time></trkpt><trkpt lat="43.71985095471659" lon="10.988903203374948"><ele>27.0</ele><time>2026-04-07T06:51:53Z</time></trkpt><trkpt lat="43.719898472563294" lon="10.98921237680932"><ele>27.0</ele><time>2026-04-07T06:51:54Z</time></trkpt><trkpt lat="43.719943718313864" lon="10.989520123270683"><ele>27.0</ele><time>2026-04-07T06:51:55Z</time></trkpt><trkpt lat="43.719988952668245" lon="10.98982691514705"><ele>27.333333333333336</ele><time>2026-04-07T06:51:56Z</time></trkpt><trkpt lat="43.72003503149489" lon="10.990132644289906"><ele>27.666666666666668</ele><time>2026-04-07T06:51:57Z</time></trkpt><trkpt lat="43.72007641044443" lon="10.990432266102324"><ele>28.0</ele><time>2026-04-07T06:51:58Z</time></trkpt><trkpt lat="43.72011770017827" lon="10.990733367513938"><ele>28.0</ele><time>2026-04-07T06:51:59Z</time></trkpt><trkpt lat="43.72015233782525" lon="10.991033220374003"><ele>28.0</ele><time>2026-04-07T06:52:00Z</time></trkpt><trkpt lat="43.720188645176854" lon="10.991335778135767"><ele>28.0</ele><time>2026-04-07T06:52:01Z</time></trkpt><trkpt lat="43.72022459179607" lon="10.991644084097118"><ele>28.666666666666668</ele><time>2026-04-07T06:52:02Z</time></trkpt><trkpt lat="43.72025661122949" lon="10.991949273800698"><ele>29.333333333333336</ele><time>2026-04-07T06:52:03Z</time></trkpt><trkpt lat="43.72029030632343" lon="10.99225710961828"><ele>30.0</ele><time>2026-04-07T06:52:04Z</time></trkpt><trkpt lat="43.72032476464843" lon="10.992566124609096"><ele>30.0</ele><time>2026-04-07T06:52:05Z</time></trkpt><trkpt lat="43.72035865257832" lon="10.9928741433354"><ele>30.0</ele><time>2026-04-07T06:52:06Z</time></trkpt><trkpt lat="43.72039269626541" lon="10.99318760895383"><ele>29.0</ele><time>2026-04-07T06:52:07Z</time></trkpt><trkpt lat="43.72042509060729" lon="10.993500328113614"><ele>28.0</ele><time>2026-04-07T06:52:08Z</time></trkpt><trkpt lat="43.72046023324156" lon="10.993816556790316"><ele>28.0</ele><time>2026-04-07T06:52:09Z</time></trkpt><trkpt lat="43.72049370987573" lon="10.99412913032526"><ele>28.0</ele><time>2026-04-07T06:52:10Z</time></trkpt><trkpt lat="43.72053034820056" lon="10.994446489996188"><ele>28.0</ele><time>2026-04-07T06:52:11Z</time></trkpt><trkpt lat="43.72056773738" lon="10.994764251874393"><ele>28.0</ele><time>2026-04-07T06:52:12Z</time></trkpt><trkpt lat="43.720601418472384" lon="10.995079080985928"><ele>28.5</ele><time>2026-04-07T06:52:13Z</time></trkpt><trkpt lat="43.720637396753176" lon="10.99540195158925"><ele>29.0</ele><time>2026-04-07T06:52:14Z</time></trkpt><trkpt lat="43.72067292579727" lon="10.995726562490509"><ele>29.0</ele><time>2026-04-07T06:52:15Z</time></trkpt><trkpt lat="43.7207095515253" lon="10.996059875604173"><ele>29.0</ele><time>2026-04-07T06:52:16Z</time></trkpt><trkpt lat="43.72074650091651" lon="10.996395212909519"><ele>28.5</ele><time>2026-04-07T06:52:17Z</time></trkpt><trkpt lat="43.72078261809811" lon="10.99672597225739"><ele>28.0</ele><time>2026-04-07T06:52:18Z</time></trkpt><trkpt lat="43.720815393457364" lon="10.99703276430513"><ele>28.0</ele><time>2026-04-07T06:52:19Z</time></trkpt><trkpt lat="43.72084834673528" lon="10.997337890983149"><ele>28.0</ele><time>2026-04-07T06:52:20Z</time></trkpt><trkpt lat="43.72088104734215" lon="10.99764824972942"><ele>28.666666666666668</ele><time>2026-04-07T06:52:21Z</time></trkpt><trkpt lat="43.720915335349936" lon="10.997954367422068"><ele>29.333333333333336</ele><time>2026-04-07T06:52:22Z</time></trkpt><trkpt lat="43.720950383652" lon="10.998260866222052"><ele>30.0</ele><time>2026-04-07T06:52:23Z</time></trkpt><trkpt lat="43.72098367742653" lon="10.99855747880814"><ele>30.0</ele><time>2026-04-07T06:52:24Z</time></trkpt><trkpt lat="43.72101655198894" lon="10.998850392192795"><ele>30.0</ele><time>2026-04-07T06:52:25Z</time></trkpt><trkpt lat="43.721048408265375" lon="10.999142294490294"><ele>30.0</ele><time>2026-04-07T06:52:26Z</time></trkpt><trkpt lat="43.721080261685785" lon="10.999432565416427"><ele>29.666666666666664</ele><time>2026-04-07T06:52:27Z</time></trkpt><trkpt lat="43.72111185219931" lon="10.99973036538156"><ele>29.333333333333332</ele><time>2026-04-07T06:52:28Z</time></trkpt><trkpt lat="43.721143915163125" lon="11.00003009987417"><ele>29.0</ele><time>2026-04-07T06:52:29Z</time></trkpt><trkpt lat="43.72117812259698" lon="11.000331533667595"><ele>29.0</ele><time>2026-04-07T06:52:30Z</time></trkpt><trkpt lat="43.72121211820845" lon="11.000641689715216"><ele>29.0</ele><time>2026-04-07T06:52:31Z</time></trkpt><trkpt lat="43.721246306923476" lon="11.000947783520905"><ele>29.333333333333332</ele><time>2026-04-07T06:52:32Z</time></trkpt><trkpt lat="43.72127916733893" lon="11.001255223355232"><ele>29.666666666666664</ele><time>2026-04-07T06:52:32.999Z</time></trkpt><trkpt lat="43.72131380944058" lon="11.001562140223648"><ele>30.0</ele><time>2026-04-07T06:52:33.999Z</time></trkpt><trkpt lat="43.72134782176574" lon="11.001866954112382"><ele>30.333333333333336</ele><time>2026-04-07T06:52:34.999Z</time></trkpt><trkpt lat="43.72138489866268" lon="11.002172382571196"><ele>30.666666666666668</ele><time>2026-04-07T06:52:35.999Z</time></trkpt><trkpt lat="43.721416224873025" lon="11.002473773325155"><ele>31.0</ele><time>2026-04-07T06:52:36.999Z</time></trkpt><trkpt lat="43.72144744563589" lon="11.002777476286049"><ele>31.0</ele><time>2026-04-07T06:52:37.999Z</time></trkpt><trkpt lat="43.721480050055185" lon="11.003081923341668"><ele>31.0</ele><time>2026-04-07T06:52:38.999Z</time></trkpt><trkpt lat="43.72151136544746" lon="11.003386550793767"><ele>31.0</ele><time>2026-04-07T06:52:39.999Z</time></trkpt><trkpt lat="43.721542279542014" lon="11.00368429055919"><ele>31.0</ele><time>2026-04-07T06:52:40.999Z</time></trkpt><trkpt lat="43.72157539730034" lon="11.003989795443125"><ele>31.0</ele><time>2026-04-07T06:52:41.999Z</time></trkpt><trkpt lat="43.72161272921699" lon="11.004297904264861"><ele>31.0</ele><time>2026-04-07T06:52:42.999Z</time></trkpt><trkpt lat="43.72164799590971" lon="11.004603374117384"><ele>30.0</ele><time>2026-04-07T06:52:43.999Z</time></trkpt><trkpt lat="43.72168574076915" lon="11.00491762356846"><ele>29.0</ele><time>2026-04-07T06:52:44.999Z</time></trkpt><trkpt lat="43.72172064107354" lon="11.005225933158666"><ele>29.0</ele><time>2026-04-07T06:52:45.999Z</time></trkpt><trkpt lat="43.72175492741337" lon="11.005535183844675"><ele>29.0</ele><time>2026-04-07T06:52:46.999Z</time></trkpt><trkpt lat="43.7217888626229" lon="11.005839714010845"><ele>29.0</ele><time>2026-04-07T06:52:47.999Z</time></trkpt><trkpt lat="43.721821174548516" lon="11.006141997534396"><ele>29.0</ele><time>2026-04-07T06:52:48.999Z</time></trkpt><trkpt lat="43.7218509790723" lon="11.006441592917373"><ele>29.0</ele><time>2026-04-07T06:52:49.999Z</time></trkpt><trkpt lat="43.721881959832075" lon="11.006738383235295"><ele>29.0</ele><time>2026-04-07T06:52:50.999Z</time></trkpt><trkpt lat="43.72191401179271" lon="11.007032792352108"><ele>28.666666666666664</ele><time>2026-04-07T06:52:51.999Z</time></trkpt><trkpt lat="43.72194525292625" lon="11.007325397696265"><ele>28.333333333333336</ele><time>2026-04-07T06:52:52.999Z</time></trkpt><trkpt lat="43.721976482344374" lon="11.007619469075102"><ele>28.0</ele><time>2026-04-07T06:52:53.999Z</time></trkpt><trkpt lat="43.722010395218966" lon="11.007918763174862"><ele>28.0</ele><time>2026-04-07T06:52:54.999Z</time></trkpt><trkpt lat="43.722046429751245" lon="11.008223307034351"><ele>28.0</ele><time>2026-04-07T06:52:55.999Z</time></trkpt><trkpt lat="43.72208918695673" lon="11.008528853368274"><ele>28.0</ele><time>2026-04-07T06:52:56.999Z</time></trkpt><trkpt lat="43.72214670224948" lon="11.008837185526083"><ele>28.5</ele><time>2026-04-07T06:52:57.999Z</time></trkpt><trkpt lat="43.72221026138043" lon="11.009137958422842"><ele>29.0</ele><time>2026-04-07T06:52:58.999Z</time></trkpt><trkpt lat="43.722279357602496" lon="11.009434465972118"><ele>30.0</ele><time>2026-04-07T06:52:59.999Z</time></trkpt><trkpt lat="43.72236041961759" lon="11.009726333163352"><ele>31.0</ele><time>2026-04-07T06:53:00.999Z</time></trkpt><trkpt lat="43.722447231434835" lon="11.010014697465603"><ele>32.333333333333336</ele><time>2026-04-07T06:53:01.999Z</time></trkpt><trkpt lat="43.72254401437226" lon="11.010293854710737"><ele>33.666666666666664</ele><time>2026-04-07T06:53:02.999Z</time></trkpt><trkpt lat="43.72265115567149" lon="11.010565142978418"><ele>35.0</ele><time>2026-04-07T06:53:03.999Z</time></trkpt><trkpt lat="43.72276502640082" lon="11.0108281623713"><ele>37.666666666666664</ele><time>2026-04-07T06:53:04.999Z</time></trkpt><trkpt lat="43.72288510892281" lon="11.011087641471224"><ele>40.333333333333336</ele><time>2026-04-07T06:53:05.999Z</time></trkpt><trkpt lat="43.723008774834376" lon="11.011341355585843"><ele>43.0</ele><time>2026-04-07T06:53:06.999Z</time></trkpt><trkpt lat="43.723133359007186" lon="11.0115936258543"><ele>46.333333333333336</ele><time>2026-04-07T06:53:07.999Z</time></trkpt><trkpt lat="43.72325948928441" lon="11.011847119173593"><ele>49.66666666666667</ele><time>2026-04-07T06:53:08.999Z</time></trkpt><trkpt lat="43.72338035312429" lon="11.012101771839353"><ele>53.0</ele><time>2026-04-07T06:53:09.999Z</time></trkpt><trkpt lat="43.72350058846191" lon="11.012356138981561"><ele>52.66666666666667</ele><time>2026-04-07T06:53:10.999Z</time></trkpt><trkpt lat="43.72362251738144" lon="11.012610943535973"><ele>52.33333333333333</ele><time>2026-04-07T06:53:11.999Z</time></trkpt><trkpt lat="43.72374816963485" lon="11.012868085372103"><ele>52.0</ele><time>2026-04-07T06:53:12.999Z</time></trkpt><trkpt lat="43.723865017655115" lon="11.013109919270185"><ele>53.33333333333333</ele><time>2026-04-07T06:53:13.999Z</time></trkpt><trkpt lat="43.72398718416085" lon="11.013354012295327"><ele>54.66666666666667</ele><time>2026-04-07T06:53:14.999Z</time></trkpt><trkpt lat="43.72410856150389" lon="11.013601489090114"><ele>56.0</ele><time>2026-04-07T06:53:15.999Z</time></trkpt><trkpt lat="43.72423008434375" lon="11.013853818108085"><ele>56.0</ele><time>2026-04-07T06:53:16.999Z</time></trkpt><trkpt lat="43.72435039407373" lon="11.014108156010595"><ele>56.0</ele><time>2026-04-07T06:53:17.999Z</time></trkpt><trkpt lat="43.72447050064388" lon="11.014367110325718"><ele>56.0</ele><time>2026-04-07T06:53:18.999Z</time></trkpt><trkpt lat="43.724588768671914" lon="11.014640018159886"><ele>55.5</ele><time>2026-04-07T06:53:19.999Z</time></trkpt><trkpt lat="43.72470377675343" lon="11.014916707311821"><ele>55.0</ele><time>2026-04-07T06:53:20.999Z</time></trkpt><trkpt lat="43.72480813905855" lon="11.015200260516337"><ele>57.0</ele><time>2026-04-07T06:53:21.999Z</time></trkpt><trkpt lat="43.72490000200716" lon="11.015491950851928"><ele>59.0</ele><time>2026-04-07T06:53:22.999Z</time></trkpt><trkpt lat="43.724976522944466" lon="11.015797137361844"><ele>61.5</ele><time>2026-04-07T06:53:23.999Z</time></trkpt><trkpt lat="43.72504238990241" lon="11.016125361710467"><ele>64.0</ele><time>2026-04-07T06:53:24.999Z</time></trkpt><trkpt lat="43.725095069707244" lon="11.016467745155301"><ele>68.5</ele><time>2026-04-07T06:53:25.999Z</time></trkpt><trkpt lat="43.72514085473687" lon="11.016807772251942"><ele>73.0</ele><time>2026-04-07T06:53:26.999Z</time></trkpt><trkpt lat="43.72516706598574" lon="11.017131097978817"><ele>73.0</ele><time>2026-04-07T06:53:27.999Z</time></trkpt><trkpt lat="43.72517566131819" lon="11.017439850210685"><ele>73.0</ele><time>2026-04-07T06:53:28.999Z</time></trkpt><trkpt lat="43.725174805282535" lon="11.017742575450088"><ele>73.0</ele><time>2026-04-07T06:53:29.999Z</time></trkpt><trkpt lat="43.72516595818139" lon="11.018038021029696"><ele>77.33333333333333</ele><time>2026-04-07T06:53:30.999Z</time></trkpt><trkpt lat="43.72514963903275" lon="11.018333646708582"><ele>81.66666666666667</ele><time>2026-04-07T06:53:32Z</time></trkpt><trkpt lat="43.72512388315276" lon="11.018625028297768"><ele>86.0</ele><time>2026-04-07T06:53:33Z</time></trkpt><trkpt lat="43.725084674336564" lon="11.018908760347674"><ele>83.33333333333334</ele><time>2026-04-07T06:53:34Z</time></trkpt><trkpt lat="43.72503272341559" lon="11.019196291337511"><ele>80.66666666666667</ele><time>2026-04-07T06:53:35Z</time></trkpt><trkpt lat="43.72497204046255" lon="11.01948224350644"><ele>78.0</ele><time>2026-04-07T06:53:36Z</time></trkpt><trkpt lat="43.724905514094594" lon="11.019762647071582"><ele>75.33333333333333</ele><time>2026-04-07T06:53:37Z</time></trkpt><trkpt lat="43.724827662719996" lon="11.020039433412768"><ele>72.66666666666666</ele><time>2026-04-07T06:53:38Z</time></trkpt><trkpt lat="43.72473958866624" lon="11.020315583376803"><ele>70.0</ele><time>2026-04-07T06:53:39Z</time></trkpt><trkpt lat="43.724640605026735" lon="11.020584593545554"><ele>70.66666666666666</ele><time>2026-04-07T06:53:40Z</time></trkpt><trkpt lat="43.724531810808465" lon="11.020843878241411"><ele>71.33333333333333</ele><time>2026-04-07T06:53:41Z</time></trkpt><trkpt lat="43.7244088206639" lon="11.021100433951899"><ele>72.0</ele><time>2026-04-07T06:53:42Z</time></trkpt><trkpt lat="43.72427976596251" lon="11.02134986573443"><ele>72.0</ele><time>2026-04-07T06:53:43Z</time></trkpt><trkpt lat="43.7241414260026" lon="11.02159159108925"><ele>72.0</ele><time>2026-04-07T06:53:44Z</time></trkpt><trkpt lat="43.72399480706755" lon="11.021830169824995"><ele>72.0</ele><time>2026-04-07T06:53:45Z</time></trkpt><trkpt lat="43.72383455768582" lon="11.022061825426"><ele>71.5</ele><time>2026-04-07T06:53:46Z</time></trkpt><trkpt lat="43.72366810119161" lon="11.02227869214244"><ele>71.0</ele><time>2026-04-07T06:53:47Z</time></trkpt><trkpt lat="43.72349926147372" lon="11.022496144465853"><ele>71.0</ele><time>2026-04-07T06:53:48Z</time></trkpt><trkpt lat="43.7233335239513" lon="11.02271084561103"><ele>71.0</ele><time>2026-04-07T06:53:49Z</time></trkpt><trkpt lat="43.723176321260375" lon="11.02292057675897"><ele>71.0</ele><time>2026-04-07T06:53:50Z</time></trkpt><trkpt lat="43.723020379507986" lon="11.023132721565329"><ele>69.66666666666667</ele><time>2026-04-07T06:53:51Z</time></trkpt><trkpt lat="43.72286477083254" lon="11.0233485698971"><ele>68.33333333333333</ele><time>2026-04-07T06:53:52Z</time></trkpt><trkpt lat="43.72270834393473" lon="11.023567303585269"><ele>67.0</ele><time>2026-04-07T06:53:53Z</time></trkpt><trkpt lat="43.722555261211966" lon="11.023788683223122"><ele>67.0</ele><time>2026-04-07T06:53:54Z</time></trkpt><trkpt lat="43.72240599831268" lon="11.024012647943485"><ele>67.0</ele><time>2026-04-07T06:53:55Z</time></trkpt><trkpt lat="43.72225884966712" lon="11.024241223526545"><ele>67.0</ele><time>2026-04-07T06:53:56Z</time></trkpt><trkpt lat="43.72211588842876" lon="11.024472502276861"><ele>66.66666666666666</ele><time>2026-04-07T06:53:57Z</time></trkpt><trkpt lat="43.72197539536452" lon="11.024710829191445"><ele>66.33333333333333</ele><time>2026-04-07T06:53:58Z</time></trkpt><trkpt lat="43.72183971591026" lon="11.02494896510557"><ele>66.0</ele><time>2026-04-07T06:53:59Z</time></trkpt><trkpt lat="43.721706940673286" lon="11.02519497984796"><ele>66.0</ele><time>2026-04-07T06:54:00Z</time></trkpt><trkpt lat="43.72157427031403" lon="11.025456373616013"><ele>66.0</ele><time>2026-04-07T06:54:01Z</time></trkpt><trkpt lat="43.721442633922564" lon="11.025728269383753"><ele>62.5</ele><time>2026-04-07T06:54:02Z</time></trkpt><trkpt lat="43.7213089832676" lon="11.026010003585004"><ele>59.0</ele><time>2026-04-07T06:54:03Z</time></trkpt><trkpt lat="43.72117398914038" lon="11.026294026350978"><ele>65.5</ele><time>2026-04-07T06:54:04Z</time></trkpt><trkpt lat="43.72103099253519" lon="11.026581285760171"><ele>72.0</ele><time>2026-04-07T06:54:05Z</time></trkpt><trkpt lat="43.72088911475455" lon="11.026862424199697"><ele>72.0</ele><time>2026-04-07T06:54:06Z</time></trkpt><trkpt lat="43.72074545710312" lon="11.027144174648424"><ele>72.0</ele><time>2026-04-07T06:54:07Z</time></trkpt><trkpt lat="43.72059700171454" lon="11.02742900114164"><ele>70.0</ele><time>2026-04-07T06:54:08Z</time></trkpt><trkpt lat="43.72044107740814" lon="11.027726356427273"><ele>68.0</ele><time>2026-04-07T06:54:09Z</time></trkpt><trkpt lat="43.72028389679304" lon="11.028020549057727"><ele>70.5</ele><time>2026-04-07T06:54:10Z</time></trkpt><trkpt lat="43.720132596610426" lon="11.028311396892464"><ele>73.0</ele><time>2026-04-07T06:54:11Z</time></trkpt><trkpt lat="43.71998808019969" lon="11.028588856989915"><ele>73.0</ele><time>2026-04-07T06:54:12Z</time></trkpt><trkpt lat="43.71984905764367" lon="11.028872824487975"><ele>73.0</ele><time>2026-04-07T06:54:13Z</time></trkpt><trkpt lat="43.71970840328944" lon="11.02915796320614"><ele>68.5</ele><time>2026-04-07T06:54:14Z</time></trkpt><trkpt lat="43.71956228919691" lon="11.029447599241138"><ele>64.0</ele><time>2026-04-07T06:54:15Z</time></trkpt><trkpt lat="43.71941830409321" lon="11.029732519341012"><ele>65.5</ele><time>2026-04-07T06:54:16Z</time></trkpt><trkpt lat="43.719274888673205" lon="11.030019367651567"><ele>67.0</ele><time>2026-04-07T06:54:17Z</time></trkpt><trkpt lat="43.71913292973176" lon="11.030302825741137"><ele>67.0</ele><time>2026-04-07T06:54:18Z</time></trkpt><trkpt lat="43.718992603664056" lon="11.030582283914667"><ele>67.0</ele><time>2026-04-07T06:54:19Z</time></trkpt><trkpt lat="43.718851259446005" lon="11.030859377856398"><ele>65.0</ele><time>2026-04-07T06:54:20Z</time></trkpt><trkpt lat="43.71871457397298" lon="11.031130997371406"><ele>63.0</ele><time>2026-04-07T06:54:21Z</time></trkpt><trkpt lat="43.71857382655031" lon="11.031404055091471"><ele>65.0</ele><time>2026-04-07T06:54:22Z</time></trkpt><trkpt lat="43.718437950665525" lon="11.031671937526058"><ele>67.0</ele><time>2026-04-07T06:54:23Z</time></trkpt><trkpt lat="43.71830333470827" lon="11.031943132999878"><ele>67.0</ele><time>2026-04-07T06:54:24Z</time></trkpt><trkpt lat="43.71816896151594" lon="11.032217976834104"><ele>67.0</ele><time>2026-04-07T06:54:25Z</time></trkpt><trkpt lat="43.718035685402235" lon="11.032487436663478"><ele>63.0</ele><time>2026-04-07T06:54:25.999Z</time></trkpt><trkpt lat="43.717901688722066" lon="11.03275720771697"><ele>59.0</ele><time>2026-04-07T06:54:26.999Z</time></trkpt><trkpt lat="43.71776081198124" lon="11.033031353947429"><ele>55.5</ele><time>2026-04-07T06:54:27.999Z</time></trkpt><trkpt lat="43.71762214314941" lon="11.03330344917893"><ele>52.0</ele><time>2026-04-07T06:54:28.999Z</time></trkpt><trkpt lat="43.71748721065305" lon="11.033567686414164"><ele>48.5</ele><time>2026-04-07T06:54:29.999Z</time></trkpt><trkpt lat="43.71734782683068" lon="11.033840648983523"><ele>45.0</ele><time>2026-04-07T06:54:30.999Z</time></trkpt><trkpt lat="43.71721449541971" lon="11.034106161861121"><ele>45.0</ele><time>2026-04-07T06:54:31.999Z</time></trkpt><trkpt lat="43.71707951940005" lon="11.034372452761515"><ele>45.0</ele><time>2026-04-07T06:54:32.999Z</time></trkpt><trkpt lat="43.716946182476995" lon="11.034643692082634"><ele>47.5</ele><time>2026-04-07T06:54:33.999Z</time></trkpt><trkpt lat="43.71681362434937" lon="11.03492152953732"><ele>50.0</ele><time>2026-04-07T06:54:34.999Z</time></trkpt><trkpt lat="43.71670199831807" lon="11.035192519501189"><ele>55.5</ele><time>2026-04-07T06:54:35.999Z</time></trkpt><trkpt lat="43.71659975657878" lon="11.035479630133763"><ele>61.0</ele><time>2026-04-07T06:54:36.999Z</time></trkpt><trkpt lat="43.716509437518695" lon="11.035773065623045"><ele>61.0</ele><time>2026-04-07T06:54:37.999Z</time></trkpt><trkpt lat="43.71642947333062" lon="11.036076698629776"><ele>61.0</ele><time>2026-04-07T06:54:38.999Z</time></trkpt><trkpt lat="43.716365096258734" lon="11.036378477743522"><ele>58.0</ele><time>2026-04-07T06:54:39.999Z</time></trkpt><trkpt lat="43.716315600677405" lon="11.036675777674663"><ele>55.0</ele><time>2026-04-07T06:54:40.999Z</time></trkpt><trkpt lat="43.716267325351" lon="11.036991616982862"><ele>55.0</ele><time>2026-04-07T06:54:41.999Z</time></trkpt><trkpt lat="43.71622215773587" lon="11.037303522127413"><ele>55.0</ele><time>2026-04-07T06:54:42.999Z</time></trkpt><trkpt lat="43.71617660519215" lon="11.03761619957273"><ele>51.0</ele><time>2026-04-07T06:54:43.999Z</time></trkpt><trkpt lat="43.71612486119793" lon="11.037928453108716"><ele>47.0</ele><time>2026-04-07T06:54:44.999Z</time></trkpt><trkpt lat="43.71606310560204" lon="11.038238115091211"><ele>55.5</ele><time>2026-04-07T06:54:45.999Z</time></trkpt><trkpt lat="43.71598736804954" lon="11.03854424710785"><ele>64.0</ele><time>2026-04-07T06:54:46.999Z</time></trkpt><trkpt lat="43.71589774625568" lon="11.038843676971755"><ele>58.5</ele><time>2026-04-07T06:54:47.999Z</time></trkpt><trkpt lat="43.71579425161831" lon="11.039134686677796"><ele>53.0</ele><time>2026-04-07T06:54:48.999Z</time></trkpt><trkpt lat="43.71568009712414" lon="11.039419911758577"><ele>53.0</ele><time>2026-04-07T06:54:49.999Z</time></trkpt><trkpt lat="43.71555829655468" lon="11.039700937944122"><ele>53.0</ele><time>2026-04-07T06:54:50.999Z</time></trkpt><trkpt lat="43.71543411326623" lon="11.039971334627447"><ele>56.0</ele><time>2026-04-07T06:54:51.999Z</time></trkpt><trkpt lat="43.71530902311845" lon="11.040232619036741"><ele>59.0</ele><time>2026-04-07T06:54:52.999Z</time></trkpt><trkpt lat="43.715178809251604" lon="11.040499330105598"><ele>59.0</ele><time>2026-04-07T06:54:53.999Z</time></trkpt><trkpt lat="43.715047758364825" lon="11.040766693141755"><ele>59.0</ele><time>2026-04-07T06:54:54.999Z</time></trkpt><trkpt lat="43.71491729704215" lon="11.04103770967069"><ele>55.5</ele><time>2026-04-07T06:54:55.999Z</time></trkpt><trkpt lat="43.71478876397523" lon="11.04130483514191"><ele>52.0</ele><time>2026-04-07T06:54:56.999Z</time></trkpt><trkpt lat="43.71465653801047" lon="11.04157626701199"><ele>51.0</ele><time>2026-04-07T06:54:57.999Z</time></trkpt><trkpt lat="43.714526538127785" lon="11.041840183488976"><ele>50.0</ele><time>2026-04-07T06:54:58.999Z</time></trkpt><trkpt lat="43.714397349027514" lon="11.042101562123255"><ele>50.0</ele><time>2026-04-07T06:54:59.999Z</time></trkpt><trkpt lat="43.71426720700506" lon="11.042364348837179"><ele>50.0</ele><time>2026-04-07T06:55:00.999Z</time></trkpt><trkpt lat="43.714140741581865" lon="11.042622348090392"><ele>49.66666666666667</ele><time>2026-04-07T06:55:01.999Z</time></trkpt><trkpt lat="43.71401490703091" lon="11.042876501647727"><ele>49.33333333333333</ele><time>2026-04-07T06:55:02.999Z</time></trkpt><trkpt lat="43.71389126945624" lon="11.04312663137789"><ele>49.0</ele><time>2026-04-07T06:55:03.999Z</time></trkpt><trkpt lat="43.713765703139764" lon="11.043382185201686"><ele>48.0</ele><time>2026-04-07T06:55:04.999Z</time></trkpt><trkpt lat="43.71363936057699" lon="11.043639352137347"><ele>47.0</ele><time>2026-04-07T06:55:05.999Z</time></trkpt><trkpt lat="43.71351094776163" lon="11.043901806268895"><ele>48.5</ele><time>2026-04-07T06:55:06.999Z</time></trkpt><trkpt lat="43.71338527133337" lon="11.044163866367722"><ele>50.0</ele><time>2026-04-07T06:55:07.999Z</time></trkpt><trkpt lat="43.713258305800174" lon="11.044430359766803"><ele>50.0</ele><time>2026-04-07T06:55:08.999Z</time></trkpt><trkpt lat="43.713131703882866" lon="11.044695516893912"><ele>50.0</ele><time>2026-04-07T06:55:09.999Z</time></trkpt><trkpt lat="43.71300385439153" lon="11.04496096692782"><ele>47.5</ele><time>2026-04-07T06:55:10.999Z</time></trkpt><trkpt lat="43.71287338665467" lon="11.045225395720466"><ele>45.0</ele><time>2026-04-07T06:55:11.999Z</time></trkpt><trkpt lat="43.71274130589623" lon="11.045492434195477"><ele>50.0</ele><time>2026-04-07T06:55:12.999Z</time></trkpt><trkpt lat="43.71260963415192" lon="11.045759496985617"><ele>55.0</ele><time>2026-04-07T06:55:13.999Z</time></trkpt><trkpt lat="43.71247765894214" lon="11.046028588707939"><ele>55.0</ele><time>2026-04-07T06:55:14.999Z</time></trkpt><trkpt lat="43.71235136504883" lon="11.046305020066777"><ele>55.0</ele><time>2026-04-07T06:55:15.999Z</time></trkpt><trkpt lat="43.71223748495381" lon="11.046589302801609"><ele>51.5</ele><time>2026-04-07T06:55:16.999Z</time></trkpt><trkpt lat="43.71213425563834" lon="11.046884861236355"><ele>48.0</ele><time>2026-04-07T06:55:17.999Z</time></trkpt><trkpt lat="43.71204677143188" lon="11.047189641822499"><ele>45.5</ele><time>2026-04-07T06:55:18.999Z</time></trkpt><trkpt lat="43.71197085948491" lon="11.047496069646144"><ele>43.0</ele><time>2026-04-07T06:55:19.999Z</time></trkpt><trkpt lat="43.71190380939923" lon="11.04780516722908"><ele>47.5</ele><time>2026-04-07T06:55:20.999Z</time></trkpt><trkpt lat="43.71184474917447" lon="11.048116729886441"><ele>52.0</ele><time>2026-04-07T06:55:21.999Z</time></trkpt><trkpt lat="43.71179753253711" lon="11.04842851021137"><ele>52.0</ele><time>2026-04-07T06:55:22.999Z</time></trkpt><trkpt lat="43.711754267045364" lon="11.0487448395719"><ele>52.0</ele><time>2026-04-07T06:55:23.999Z</time></trkpt><trkpt lat="43.711711791549725" lon="11.049053134848853"><ele>51.5</ele><time>2026-04-07T06:55:24.999Z</time></trkpt><trkpt lat="43.711667914900175" lon="11.049370066625777"><ele>51.0</ele><time>2026-04-07T06:55:25.999Z</time></trkpt><trkpt lat="43.71162327883422" lon="11.049679333802064"><ele>49.0</ele><time>2026-04-07T06:55:26.999Z</time></trkpt><trkpt lat="43.71157732818773" lon="11.049991293573122"><ele>47.0</ele><time>2026-04-07T06:55:27.999Z</time></trkpt><trkpt lat="43.711532940167984" lon="11.050298161899697"><ele>47.0</ele><time>2026-04-07T06:55:28.999Z</time></trkpt><trkpt lat="43.71149042929524" lon="11.050608841809241"><ele>47.0</ele><time>2026-04-07T06:55:29.999Z</time></trkpt><trkpt lat="43.71145090722146" lon="11.050924447143567"><ele>48.0</ele><time>2026-04-07T06:55:30.999Z</time></trkpt><trkpt lat="43.711418375278285" lon="11.051239664704354"><ele>49.0</ele><time>2026-04-07T06:55:31.999Z</time></trkpt><trkpt lat="43.711393543768054" lon="11.051557598898134"><ele>48.5</ele><time>2026-04-07T06:55:32.999Z</time></trkpt><trkpt lat="43.71137836128921" lon="11.051880420067434"><ele>48.0</ele><time>2026-04-07T06:55:33.999Z</time></trkpt><trkpt lat="43.71137083132874" lon="11.052203872896484"><ele>47.5</ele><time>2026-04-07T06:55:34.999Z</time></trkpt><trkpt lat="43.711373640782135" lon="11.05253055898661"><ele>47.0</ele><time>2026-04-07T06:55:35.999Z</time></trkpt><trkpt lat="43.711387444956095" lon="11.052855624836084"><ele>47.0</ele><time>2026-04-07T06:55:36.999Z</time></trkpt><trkpt lat="43.71140908815463" lon="11.053181478277969"><ele>47.0</ele><time>2026-04-07T06:55:38Z</time></trkpt><trkpt lat="43.711438353093705" lon="11.053502609851707"><ele>47.0</ele><time>2026-04-07T06:55:39Z</time></trkpt><trkpt lat="43.71147463896399" lon="11.053826693411377"><ele>47.0</ele><time>2026-04-07T06:55:40Z</time></trkpt><trkpt lat="43.71152095418643" lon="11.05415113967209"><ele>47.0</ele><time>2026-04-07T06:55:41Z</time></trkpt><trkpt lat="43.711573809305854" lon="11.05447285035814"><ele>47.0</ele><time>2026-04-07T06:55:42Z</time></trkpt><trkpt lat="43.71162823389119" lon="11.054795740846394"><ele>47.5</ele><time>2026-04-07T06:55:43Z</time></trkpt><trkpt lat="43.71168094538068" lon="11.055115707818974"><ele>48.0</ele><time>2026-04-07T06:55:44Z</time></trkpt><trkpt lat="43.711733439072596" lon="11.055444717651282"><ele>48.0</ele><time>2026-04-07T06:55:45Z</time></trkpt><trkpt lat="43.71178393753901" lon="11.055767065538381"><ele>48.0</ele><time>2026-04-07T06:55:46Z</time></trkpt><trkpt lat="43.71183605519299" lon="11.05609016380005"><ele>47.5</ele><time>2026-04-07T06:55:47Z</time></trkpt><trkpt lat="43.71188802058337" lon="11.05641052433112"><ele>47.0</ele><time>2026-04-07T06:55:48Z</time></trkpt><trkpt lat="43.71194227597518" lon="11.056733266928148"><ele>48.0</ele><time>2026-04-07T06:55:49Z</time></trkpt><trkpt lat="43.71199972561574" lon="11.057050986913628"><ele>49.0</ele><time>2026-04-07T06:55:50Z</time></trkpt><trkpt lat="43.71206093755381" lon="11.057363453232712"><ele>50.0</ele><time>2026-04-07T06:55:51Z</time></trkpt><trkpt lat="43.71211998730588" lon="11.057675837188636"><ele>51.0</ele><time>2026-04-07T06:55:52Z</time></trkpt><trkpt lat="43.712172072683" lon="11.057989205488745"><ele>51.0</ele><time>2026-04-07T06:55:53Z</time></trkpt><trkpt lat="43.71221704496133" lon="11.058299881873623"><ele>51.0</ele><time>2026-04-07T06:55:54Z</time></trkpt><trkpt lat="43.71225632406525" lon="11.058610822470069"><ele>51.0</ele><time>2026-04-07T06:55:55Z</time></trkpt><trkpt lat="43.712287819398895" lon="11.058919492162016"><ele>51.0</ele><time>2026-04-07T06:55:56Z</time></trkpt><trkpt lat="43.71231482505988" lon="11.059233329408286"><ele>50.0</ele><time>2026-04-07T06:55:57Z</time></trkpt><trkpt lat="43.71233566531274" lon="11.059546678688767"><ele>49.0</ele><time>2026-04-07T06:55:58Z</time></trkpt><trkpt lat="43.71234901950968" lon="11.059860858133018"><ele>49.5</ele><time>2026-04-07T06:55:59Z</time></trkpt><trkpt lat="43.71235528578683" lon="11.06017566235816"><ele>50.0</ele><time>2026-04-07T06:56:00Z</time></trkpt><trkpt lat="43.712348327340635" lon="11.060496065767776"><ele>50.5</ele><time>2026-04-07T06:56:01Z</time></trkpt><trkpt lat="43.71234109398726" lon="11.060826744932553"><ele>51.0</ele><time>2026-04-07T06:56:02Z</time></trkpt><trkpt lat="43.71232622350519" lon="11.061163704775119"><ele>51.0</ele><time>2026-04-07T06:56:03Z</time></trkpt><trkpt lat="43.712307923196505" lon="11.061505959802947"><ele>51.0</ele><time>2026-04-07T06:56:04Z</time></trkpt><trkpt lat="43.71228343704877" lon="11.061851625017006"><ele>53.0</ele><time>2026-04-07T06:56:05Z</time></trkpt><trkpt lat="43.71225484871286" lon="11.062198933069741"><ele>55.0</ele><time>2026-04-07T06:56:06Z</time></trkpt><trkpt lat="43.712217432505334" lon="11.062548374029031"><ele>60.5</ele><time>2026-04-07T06:56:07Z</time></trkpt><trkpt lat="43.71217425307929" lon="11.06289582989226"><ele>66.0</ele><time>2026-04-07T06:56:08Z</time></trkpt><trkpt lat="43.712122835869636" lon="11.063241038011016"><ele>71.0</ele><time>2026-04-07T06:56:09Z</time></trkpt><trkpt lat="43.7120672368822" lon="11.063579294821253"><ele>76.0</ele><time>2026-04-07T06:56:10Z</time></trkpt><trkpt lat="43.71200868513113" lon="11.063913833989881"><ele>79.0</ele><time>2026-04-07T06:56:11Z</time></trkpt><trkpt lat="43.711952809489" lon="11.064247326391278"><ele>82.0</ele><time>2026-04-07T06:56:12Z</time></trkpt><trkpt lat="43.7118982301584" lon="11.06458296189416"><ele>71.5</ele><time>2026-04-07T06:56:13Z</time></trkpt><trkpt lat="43.71184921775218" lon="11.064903643104767"><ele>61.0</ele><time>2026-04-07T06:56:14Z</time></trkpt><trkpt lat="43.71180640579144" lon="11.065225286907625"><ele>61.0</ele><time>2026-04-07T06:56:15Z</time></trkpt><trkpt lat="43.711769472662134" lon="11.065546252223685"><ele>61.0</ele><time>2026-04-07T06:56:16Z</time></trkpt><trkpt lat="43.711743377650194" lon="11.065868121783934"><ele>63.0</ele><time>2026-04-07T06:56:17Z</time></trkpt><trkpt lat="43.71172793084903" lon="11.066192683189907"><ele>65.0</ele><time>2026-04-07T06:56:18Z</time></trkpt><trkpt lat="43.71172868117165" lon="11.066516596491743"><ele>66.5</ele><time>2026-04-07T06:56:19Z</time></trkpt><trkpt lat="43.71174564867277" lon="11.066840072044535"><ele>68.0</ele><time>2026-04-07T06:56:20Z</time></trkpt><trkpt lat="43.711780109526686" lon="11.067165968813732"><ele>69.0</ele><time>2026-04-07T06:56:21Z</time></trkpt><trkpt lat="43.711826303798674" lon="11.067485264569608"><ele>70.0</ele><time>2026-04-07T06:56:22Z</time></trkpt><trkpt lat="43.71188491227374" lon="11.06780947456839"><ele>72.0</ele><time>2026-04-07T06:56:23Z</time></trkpt><trkpt lat="43.71195810930794" lon="11.068124610182895"><ele>74.0</ele><time>2026-04-07T06:56:24Z</time></trkpt><trkpt lat="43.71204727683633" lon="11.068437330691385"><ele>74.0</ele><time>2026-04-07T06:56:25Z</time></trkpt><trkpt lat="43.712151113072835" lon="11.068745347495549"><ele>74.0</ele><time>2026-04-07T06:56:26Z</time></trkpt><trkpt lat="43.71226698070113" lon="11.069047296200074"><ele>68.0</ele><time>2026-04-07T06:56:27Z</time></trkpt><trkpt lat="43.712393836944756" lon="11.069340987854385"><ele>62.0</ele><time>2026-04-07T06:56:27.999Z</time></trkpt><trkpt lat="43.71253015966551" lon="11.069623476686482"><ele>62.0</ele><time>2026-04-07T06:56:28.999Z</time></trkpt><trkpt lat="43.71268579193223" lon="11.069901284776549"><ele>62.0</ele><time>2026-04-07T06:56:29.999Z</time></trkpt><trkpt lat="43.712853605932885" lon="11.070164406033522"><ele>63.0</ele><time>2026-04-07T06:56:30.999Z</time></trkpt><trkpt lat="43.71303748614738" lon="11.070415863707304"><ele>64.0</ele><time>2026-04-07T06:56:31.999Z</time></trkpt><trkpt lat="43.7132305497242" lon="11.07065154290995"><ele>66.5</ele><time>2026-04-07T06:56:32.999Z</time></trkpt><trkpt lat="43.71343242872001" lon="11.07087367422451"><ele>69.0</ele><time>2026-04-07T06:56:33.999Z</time></trkpt><trkpt lat="43.713643532746815" lon="11.071083384559286"><ele>69.0</ele><time>2026-04-07T06:56:34.999Z</time></trkpt><trkpt lat="43.71385965683195" lon="11.071292353302972"><ele>69.0</ele><time>2026-04-07T06:56:35.999Z</time></trkpt><trkpt lat="43.71408500251248" lon="11.071515533652837"><ele>70.5</ele><time>2026-04-07T06:56:36.999Z</time></trkpt><trkpt lat="43.71431422526515" lon="11.071740836127223"><ele>72.0</ele><time>2026-04-07T06:56:37.999Z</time></trkpt><trkpt lat="43.71454036352376" lon="11.071968312374361"><ele>72.0</ele><time>2026-04-07T06:56:38.999Z</time></trkpt><trkpt lat="43.714761544956524" lon="11.072188697414271"><ele>72.0</ele><time>2026-04-07T06:56:39.999Z</time></trkpt><trkpt lat="43.71497748812785" lon="11.072408472837056"><ele>73.0</ele><time>2026-04-07T06:56:40.999Z</time></trkpt><trkpt lat="43.715188035088026" lon="11.07262382813062"><ele>74.0</ele><time>2026-04-07T06:56:41.999Z</time></trkpt><trkpt lat="43.715394534104014" lon="11.072824617598258"><ele>74.0</ele><time>2026-04-07T06:56:42.999Z</time></trkpt><trkpt lat="43.71559751162076" lon="11.073023338840907"><ele>74.0</ele><time>2026-04-07T06:56:43.999Z</time></trkpt><trkpt lat="43.715799180120015" lon="11.07321864959649"><ele>72.5</ele><time>2026-04-07T06:56:44.999Z</time></trkpt><trkpt lat="43.7159998031104" lon="11.073414243415241"><ele>71.0</ele><time>2026-04-07T06:56:45.999Z</time></trkpt><trkpt lat="43.7162007097162" lon="11.07360877525563"><ele>71.0</ele><time>2026-04-07T06:56:46.999Z</time></trkpt><trkpt lat="43.716403108626224" lon="11.07380226446956"><ele>71.0</ele><time>2026-04-07T06:56:47.999Z</time></trkpt><trkpt lat="43.71660188801107" lon="11.073997272468523"><ele>73.0</ele><time>2026-04-07T06:56:48.999Z</time></trkpt><trkpt lat="43.716804357624156" lon="11.074193118896014"><ele>75.0</ele><time>2026-04-07T06:56:49.999Z</time></trkpt><trkpt lat="43.7170067212378" lon="11.074387895406025"><ele>75.0</ele><time>2026-04-07T06:56:50.999Z</time></trkpt><trkpt lat="43.71720860643842" lon="11.074579597975335"><ele>75.0</ele><time>2026-04-07T06:56:51.999Z</time></trkpt><trkpt lat="43.71740790372165" lon="11.074768887368021"><ele>76.5</ele><time>2026-04-07T06:56:52.999Z</time></trkpt><trkpt lat="43.71759881274303" lon="11.074951692599845"><ele>78.0</ele><time>2026-04-07T06:56:53.999Z</time></trkpt><trkpt lat="43.71778261087147" lon="11.07513061853054"><ele>78.5</ele><time>2026-04-07T06:56:54.999Z</time></trkpt><trkpt lat="43.71797177793031" lon="11.075312439248178"><ele>79.0</ele><time>2026-04-07T06:56:55.999Z</time></trkpt><trkpt lat="43.718158892265535" lon="11.07549387751548"><ele>79.0</ele><time>2026-04-07T06:56:56.999Z</time></trkpt><trkpt lat="43.718344402195605" lon="11.075674009125079"><ele>79.0</ele><time>2026-04-07T06:56:57.999Z</time></trkpt><trkpt lat="43.718531953217905" lon="11.075853014072733"><ele>79.5</ele><time>2026-04-07T06:56:58.999Z</time></trkpt><trkpt lat="43.71872028216791" lon="11.07602708535442"><ele>80.0</ele><time>2026-04-07T06:56:59.999Z</time></trkpt><trkpt lat="43.718913202638475" lon="11.076202573682465"><ele>80.0</ele><time>2026-04-07T06:57:00.999Z</time></trkpt><trkpt lat="43.71910711073582" lon="11.076377033116003"><ele>80.0</ele><time>2026-04-07T06:57:01.999Z</time></trkpt><trkpt lat="43.71930065897128" lon="11.076562607509173"><ele>81.5</ele><time>2026-04-07T06:57:02.999Z</time></trkpt><trkpt lat="43.71949051049035" lon="11.0767580569019"><ele>83.0</ele><time>2026-04-07T06:57:03.999Z</time></trkpt><trkpt lat="43.7196752766559" lon="11.076962060922412"><ele>83.0</ele><time>2026-04-07T06:57:04.999Z</time></trkpt><trkpt lat="43.71985194861273" lon="11.077182552258101"><ele>83.0</ele><time>2026-04-07T06:57:05.999Z</time></trkpt><trkpt lat="43.72002380627774" lon="11.077408875179298"><ele>84.5</ele><time>2026-04-07T06:57:06.999Z</time></trkpt><trkpt lat="43.72018541311328" lon="11.077648800400777"><ele>86.0</ele><time>2026-04-07T06:57:07.999Z</time></trkpt><trkpt lat="43.72033903034458" lon="11.077903153810691"><ele>86.0</ele><time>2026-04-07T06:57:08.999Z</time></trkpt><trkpt lat="43.720484922912846" lon="11.078169937955945"><ele>86.0</ele><time>2026-04-07T06:57:09.999Z</time></trkpt><trkpt lat="43.72062354613482" lon="11.078442527537085"><ele>87.5</ele><time>2026-04-07T06:57:10.999Z</time></trkpt><trkpt lat="43.72075650680302" lon="11.078723553850509"><ele>89.0</ele><time>2026-04-07T06:57:11.999Z</time></trkpt><trkpt lat="43.72088349122059" lon="11.07900732702169"><ele>89.0</ele><time>2026-04-07T06:57:12.999Z</time></trkpt><trkpt lat="43.72100920433747" lon="11.079292644876698"><ele>89.0</ele><time>2026-04-07T06:57:13.999Z</time></trkpt><trkpt lat="43.72113466809905" lon="11.079574812673863"><ele>89.0</ele><time>2026-04-07T06:57:14.999Z</time></trkpt><trkpt lat="43.72126080798001" lon="11.07985634420055"><ele>89.0</ele><time>2026-04-07T06:57:15.999Z</time></trkpt><trkpt lat="43.721388854128165" lon="11.08013811761393"><ele>91.0</ele><time>2026-04-07T06:57:16.999Z</time></trkpt><trkpt lat="43.72151514554163" lon="11.080420326775831"><ele>93.0</ele><time>2026-04-07T06:57:17.999Z</time></trkpt><trkpt lat="43.721638102743825" lon="11.080700681878437"><ele>98.0</ele><time>2026-04-07T06:57:18.999Z</time></trkpt><trkpt lat="43.72176099104305" lon="11.080980397104437"><ele>103.0</ele><time>2026-04-07T06:57:19.999Z</time></trkpt><trkpt lat="43.7218842239039" lon="11.081262156869677"><ele>99.0</ele><time>2026-04-07T06:57:20.999Z</time></trkpt><trkpt lat="43.722007588180254" lon="11.081537542701051"><ele>95.0</ele><time>2026-04-07T06:57:21.999Z</time></trkpt><trkpt lat="43.722131286241826" lon="11.081811031630274"><ele>95.0</ele><time>2026-04-07T06:57:22.999Z</time></trkpt><trkpt lat="43.72225393603239" lon="11.08208109599846"><ele>95.0</ele><time>2026-04-07T06:57:23.999Z</time></trkpt><trkpt lat="43.72237607594847" lon="11.08235230770191"><ele>99.0</ele><time>2026-04-07T06:57:24.999Z</time></trkpt><trkpt lat="43.72249294871207" lon="11.082619764209399"><ele>103.0</ele><time>2026-04-07T06:57:25.999Z</time></trkpt><trkpt lat="43.72261114657181" lon="11.082887966236672"><ele>103.0</ele><time>2026-04-07T06:57:26.999Z</time></trkpt><trkpt lat="43.72272577169206" lon="11.083150584868346"><ele>103.0</ele><time>2026-04-07T06:57:27.999Z</time></trkpt><trkpt lat="43.72284371776839" lon="11.08341671965383"><ele>103.0</ele><time>2026-04-07T06:57:28.999Z</time></trkpt><trkpt lat="43.722958605627255" lon="11.083679759085403"><ele>102.66666666666667</ele><time>2026-04-07T06:57:29.999Z</time></trkpt><trkpt lat="43.723076714109574" lon="11.083949020931644"><ele>102.33333333333334</ele><time>2026-04-07T06:57:30.999Z</time></trkpt><trkpt lat="43.723190872717026" lon="11.084210091267842"><ele>102.0</ele><time>2026-04-07T06:57:31.999Z</time></trkpt><trkpt lat="43.723307792456744" lon="11.084483421539858"><ele>102.0</ele><time>2026-04-07T06:57:32.999Z</time></trkpt><trkpt lat="43.72342131666693" lon="11.084757589347175"><ele>102.0</ele><time>2026-04-07T06:57:33.999Z</time></trkpt><trkpt lat="43.723533381517235" lon="11.085030896300834"><ele>100.0</ele><time>2026-04-07T06:57:34.999Z</time></trkpt><trkpt lat="43.72364748371065" lon="11.085295903342752"><ele>98.0</ele><time>2026-04-07T06:57:35.999Z</time></trkpt><trkpt lat="43.723763775207374" lon="11.085558507893182"><ele>96.0</ele><time>2026-04-07T06:57:36.999Z</time></trkpt><trkpt lat="43.72388146853437" lon="11.085819751310924"><ele>100.33333333333334</ele><time>2026-04-07T06:57:37.999Z</time></trkpt><trkpt lat="43.72399719386574" lon="11.08607344368133"><ele>104.66666666666667</ele><time>2026-04-07T06:57:38.999Z</time></trkpt><trkpt lat="43.724112062056285" lon="11.086332846119307"><ele>109.0</ele><time>2026-04-07T06:57:39.999Z</time></trkpt><trkpt lat="43.72422454607072" lon="11.086587953277503"><ele>108.33333333333334</ele><time>2026-04-07T06:57:40.999Z</time></trkpt><trkpt lat="43.72433622937446" lon="11.08684792296777"><ele>107.66666666666666</ele><time>2026-04-07T06:57:41.999Z</time></trkpt><trkpt lat="43.72444815184809" lon="11.087104364514895"><ele>107.0</ele><time>2026-04-07T06:57:42.999Z</time></trkpt><trkpt lat="43.72456220333503" lon="11.087359163781908"><ele>106.66666666666666</ele><time>2026-04-07T06:57:44Z</time></trkpt><trkpt lat="43.724675458975916" lon="11.087607624892275"><ele>106.33333333333334</ele><time>2026-04-07T06:57:45Z</time></trkpt><trkpt lat="43.72478632409299" lon="11.087857077909598"><ele>106.0</ele><time>2026-04-07T06:57:46Z</time></trkpt><trkpt lat="43.72489675477823" lon="11.088107204432113"><ele>105.66666666666667</ele><time>2026-04-07T06:57:47Z</time></trkpt><trkpt lat="43.72500966815256" lon="11.088363891188513"><ele>105.33333333333334</ele><time>2026-04-07T06:57:48Z</time></trkpt><trkpt lat="43.72512086249585" lon="11.08861136479281"><ele>105.0</ele><time>2026-04-07T06:57:49Z</time></trkpt><trkpt lat="43.72523376830938" lon="11.08886071129645"><ele>107.0</ele><time>2026-04-07T06:57:50Z</time></trkpt><trkpt lat="43.725347473122945" lon="11.089111720992939"><ele>109.0</ele><time>2026-04-07T06:57:51Z</time></trkpt><trkpt lat="43.72546177902503" lon="11.089366561118295"><ele>111.0</ele><time>2026-04-07T06:57:52Z</time></trkpt><trkpt lat="43.725575305584506" lon="11.089624814792035"><ele>111.0</ele><time>2026-04-07T06:57:53Z</time></trkpt><trkpt lat="43.72569031888448" lon="11.089888936114992"><ele>111.0</ele><time>2026-04-07T06:57:54Z</time></trkpt><trkpt lat="43.72580678275091" lon="11.090150010097007"><ele>111.0</ele><time>2026-04-07T06:57:55Z</time></trkpt><trkpt lat="43.72592402404727" lon="11.09041511547003"><ele>112.0</ele><time>2026-04-07T06:57:56Z</time></trkpt><trkpt lat="43.7260405359851" lon="11.090677408026735"><ele>113.0</ele><time>2026-04-07T06:57:57Z</time></trkpt><trkpt lat="43.72616100756019" lon="11.09094577338366"><ele>113.0</ele><time>2026-04-07T06:57:58Z</time></trkpt><trkpt lat="43.72628151468031" lon="11.091212721190676"><ele>113.0</ele><time>2026-04-07T06:57:59Z</time></trkpt><trkpt lat="43.72640010288222" lon="11.091478937659673"><ele>114.5</ele><time>2026-04-07T06:58:00Z</time></trkpt><trkpt lat="43.72651996170435" lon="11.091746844177727"><ele>116.0</ele><time>2026-04-07T06:58:01Z</time></trkpt><trkpt lat="43.72664022871343" lon="11.092017746933866"><ele>116.0</ele><time>2026-04-07T06:58:02Z</time></trkpt><trkpt lat="43.72676254585545" lon="11.092290659109002"><ele>116.0</ele><time>2026-04-07T06:58:03Z</time></trkpt><trkpt lat="43.72688186215079" lon="11.092561031580725"><ele>119.0</ele><time>2026-04-07T06:58:04Z</time></trkpt><trkpt lat="43.72700418821089" lon="11.09283199805836"><ele>122.0</ele><time>2026-04-07T06:58:05Z</time></trkpt><trkpt lat="43.7271278886263" lon="11.093107224926802"><ele>125.5</ele><time>2026-04-07T06:58:06Z</time></trkpt><trkpt lat="43.72725293856071" lon="11.093386177573898"><ele>129.0</ele><time>2026-04-07T06:58:07Z</time></trkpt><trkpt lat="43.727378946055495" lon="11.093666689565923"><ele>129.0</ele><time>2026-04-07T06:58:08Z</time></trkpt><trkpt lat="43.72750372129572" lon="11.093949082405588"><ele>129.0</ele><time>2026-04-07T06:58:09Z</time></trkpt><trkpt lat="43.727630188430894" lon="11.094232658076951"><ele>127.0</ele><time>2026-04-07T06:58:10Z</time></trkpt><trkpt lat="43.72775745142395" lon="11.094517354893144"><ele>125.0</ele><time>2026-04-07T06:58:11Z</time></trkpt><trkpt lat="43.72788522131786" lon="11.094805030047725"><ele>129.0</ele><time>2026-04-07T06:58:12Z</time></trkpt><trkpt lat="43.72801289085643" lon="11.095090698405604"><ele>133.0</ele><time>2026-04-07T06:58:13Z</time></trkpt><trkpt lat="43.728140648879446" lon="11.095374307855826"><ele>133.0</ele><time>2026-04-07T06:58:14Z</time></trkpt><trkpt lat="43.7282679878254" lon="11.095656980195058"><ele>133.0</ele><time>2026-04-07T06:58:15Z</time></trkpt><trkpt lat="43.72839487654816" lon="11.095938520632567"><ele>132.5</ele><time>2026-04-07T06:58:16Z</time></trkpt><trkpt lat="43.72851780952377" lon="11.096220965387728"><ele>132.0</ele><time>2026-04-07T06:58:17Z</time></trkpt><trkpt lat="43.72864068969726" lon="11.09650151951153"><ele>136.0</ele><time>2026-04-07T06:58:18Z</time></trkpt><trkpt lat="43.72876632230021" lon="11.096776090350911"><ele>140.0</ele><time>2026-04-07T06:58:19Z</time></trkpt><trkpt lat="43.728897826484314" lon="11.097053836438517"><ele>140.0</ele><time>2026-04-07T06:58:20Z</time></trkpt><trkpt lat="43.72903220386343" lon="11.097326110667627"><ele>140.0</ele><time>2026-04-07T06:58:21Z</time></trkpt><trkpt lat="43.72917462384984" lon="11.097596215295512"><ele>138.0</ele><time>2026-04-07T06:58:22Z</time></trkpt><trkpt lat="43.7293202973612" lon="11.097854987987862"><ele>136.0</ele><time>2026-04-07T06:58:23Z</time></trkpt><trkpt lat="43.729475366113206" lon="11.098115031454805"><ele>140.0</ele><time>2026-04-07T06:58:24Z</time></trkpt><trkpt lat="43.729632500534244" lon="11.098366694781035"><ele>144.0</ele><time>2026-04-07T06:58:25Z</time></trkpt><trkpt lat="43.72979066367679" lon="11.098612094268798"><ele>144.0</ele><time>2026-04-07T06:58:26Z</time></trkpt><trkpt lat="43.72995435742695" lon="11.09885542520679"><ele>144.0</ele><time>2026-04-07T06:58:27Z</time></trkpt><trkpt lat="43.730116929384394" lon="11.099102385398668"><ele>140.5</ele><time>2026-04-07T06:58:28Z</time></trkpt><trkpt lat="43.730274351605765" lon="11.099354620599065"><ele>137.0</ele><time>2026-04-07T06:58:28.999Z</time></trkpt><trkpt lat="43.73043575097537" lon="11.099611965916097"><ele>137.0</ele><time>2026-04-07T06:58:29.999Z</time></trkpt><trkpt lat="43.7305997940641" lon="11.099867855809931"><ele>137.0</ele><time>2026-04-07T06:58:30.999Z</time></trkpt><trkpt lat="43.73075956089829" lon="11.100119660347879"><ele>142.0</ele><time>2026-04-07T06:58:31.999Z</time></trkpt><trkpt lat="43.73092158247774" lon="11.100370399818965"><ele>147.0</ele><time>2026-04-07T06:58:32.999Z</time></trkpt><trkpt lat="43.731079213114796" lon="11.100620657753344"><ele>150.0</ele><time>2026-04-07T06:58:33.999Z</time></trkpt><trkpt lat="43.73123823487307" lon="11.100872977200293"><ele>153.0</ele><time>2026-04-07T06:58:34.999Z</time></trkpt><trkpt lat="43.731391977975846" lon="11.101127633348884"><ele>153.0</ele><time>2026-04-07T06:58:35.999Z</time></trkpt><trkpt lat="43.73154145333376" lon="11.101381497123887"><ele>153.0</ele><time>2026-04-07T06:58:36.999Z</time></trkpt><trkpt lat="43.73169206991116" lon="11.101646598880093"><ele>153.0</ele><time>2026-04-07T06:58:37.999Z</time></trkpt><trkpt lat="43.73183896500886" lon="11.10191827688576"><ele>153.0</ele><time>2026-04-07T06:58:38.999Z</time></trkpt><trkpt lat="43.73198479458086" lon="11.102187110522712"><ele>157.5</ele><time>2026-04-07T06:58:39.999Z</time></trkpt><trkpt lat="43.73212940243671" lon="11.102463341666438"><ele>162.0</ele><time>2026-04-07T06:58:40.999Z</time></trkpt><trkpt lat="43.73227470065428" lon="11.10273931647243"><ele>162.0</ele><time>2026-04-07T06:58:41.999Z</time></trkpt><trkpt lat="43.732421466232196" lon="11.103018709169824"><ele>162.0</ele><time>2026-04-07T06:58:42.999Z</time></trkpt><trkpt lat="43.732566343961594" lon="11.10329510292248"><ele>161.0</ele><time>2026-04-07T06:58:43.999Z</time></trkpt><trkpt lat="43.73271011008082" lon="11.103575112657074"><ele>160.0</ele><time>2026-04-07T06:58:44.999Z</time></trkpt><trkpt lat="43.73285523659024" lon="11.103851998134674"><ele>162.5</ele><time>2026-04-07T06:58:45.999Z</time></trkpt><trkpt lat="43.733003947836934" lon="11.104125423821975"><ele>165.0</ele><time>2026-04-07T06:58:46.999Z</time></trkpt><trkpt lat="43.733161100515524" lon="11.10438594163118"><ele>165.0</ele><time>2026-04-07T06:58:47.999Z</time></trkpt><trkpt lat="43.733327545956115" lon="11.10464459878923"><ele>165.0</ele><time>2026-04-07T06:58:48.999Z</time></trkpt><trkpt lat="43.733504589687655" lon="11.104888945687009"><ele>166.0</ele><time>2026-04-07T06:58:49.999Z</time></trkpt><trkpt lat="43.73369473190866" lon="11.10511544592475"><ele>167.0</ele><time>2026-04-07T06:58:50.999Z</time></trkpt><trkpt lat="43.73389659052292" lon="11.105333234756268"><ele>167.0</ele><time>2026-04-07T06:58:51.999Z</time></trkpt><trkpt lat="43.73409391042667" lon="11.105526299792958"><ele>167.0</ele><time>2026-04-07T06:58:52.999Z</time></trkpt><trkpt lat="43.73428644544362" lon="11.105704289599407"><ele>162.0</ele><time>2026-04-07T06:58:53.999Z</time></trkpt><trkpt lat="43.73448228486668" lon="11.105874187900168"><ele>157.0</ele><time>2026-04-07T06:58:54.999Z</time></trkpt><trkpt lat="43.73468576158823" lon="11.10603445729649"><ele>157.0</ele><time>2026-04-07T06:58:55.999Z</time></trkpt><trkpt lat="43.73489182154524" lon="11.106195718572865"><ele>157.0</ele><time>2026-04-07T06:58:56.999Z</time></trkpt><trkpt lat="43.73509897604556" lon="11.106362191487468"><ele>157.0</ele><time>2026-04-07T06:58:57.999Z</time></trkpt><trkpt lat="43.73530188868906" lon="11.106531995745168"><ele>157.0</ele><time>2026-04-07T06:58:58.999Z</time></trkpt><trkpt lat="43.7355052143682" lon="11.106707151409408"><ele>155.0</ele><time>2026-04-07T06:58:59.999Z</time></trkpt><trkpt lat="43.73569845904681" lon="11.10687794811208"><ele>153.0</ele><time>2026-04-07T06:59:00.999Z</time></trkpt><trkpt lat="43.73588458483553" lon="11.10704362799336"><ele>153.0</ele><time>2026-04-07T06:59:01.999Z</time></trkpt><trkpt lat="43.73606731240486" lon="11.10721302655425"><ele>153.0</ele><time>2026-04-07T06:59:02.999Z</time></trkpt><trkpt lat="43.73624112744011" lon="11.107390813946761"><ele>153.0</ele><time>2026-04-07T06:59:03.999Z</time></trkpt><trkpt lat="43.73640858181699" lon="11.107593861476825"><ele>153.0</ele><time>2026-04-07T06:59:04.999Z</time></trkpt><trkpt lat="43.73656339668016" lon="11.107812644698406"><ele>153.0</ele><time>2026-04-07T06:59:05.999Z</time></trkpt><trkpt lat="43.73671148373788" lon="11.108036314319767"><ele>153.0</ele><time>2026-04-07T06:59:06.999Z</time></trkpt><trkpt lat="43.73685921235777" lon="11.108270475506883"><ele>151.0</ele><time>2026-04-07T06:59:07.999Z</time></trkpt><trkpt lat="43.73700548765192" lon="11.108514933655512"><ele>149.0</ele><time>2026-04-07T06:59:08.999Z</time></trkpt><trkpt lat="43.73714731778349" lon="11.10876575332135"><ele>149.0</ele><time>2026-04-07T06:59:09.999Z</time></trkpt><trkpt lat="43.73728930156818" lon="11.109017592153567"><ele>149.0</ele><time>2026-04-07T06:59:10.999Z</time></trkpt><trkpt lat="43.737432024837034" lon="11.109271837965297"><ele>149.0</ele><time>2026-04-07T06:59:11.999Z</time></trkpt><trkpt lat="43.73757594391851" lon="11.109526653573333"><ele>149.0</ele><time>2026-04-07T06:59:12.999Z</time></trkpt><trkpt lat="43.737719633435134" lon="11.109780798118122"><ele>147.0</ele><time>2026-04-07T06:59:13.999Z</time></trkpt><trkpt lat="43.737867283603954" lon="11.110036927095491"><ele>145.0</ele><time>2026-04-07T06:59:14.999Z</time></trkpt><trkpt lat="43.73801471559314" lon="11.110292936576364"><ele>145.0</ele><time>2026-04-07T06:59:15.999Z</time></trkpt><trkpt lat="43.7381593577127" lon="11.110548533281142"><ele>145.0</ele><time>2026-04-07T06:59:16.999Z</time></trkpt><trkpt lat="43.7383034933189" lon="11.110803867108569"><ele>145.5</ele><time>2026-04-07T06:59:17.999Z</time></trkpt><trkpt lat="43.73844825972674" lon="11.111061014498773"><ele>146.0</ele><time>2026-04-07T06:59:18.999Z</time></trkpt><trkpt lat="43.73859136420889" lon="11.111316382792902"><ele>150.0</ele><time>2026-04-07T06:59:19.999Z</time></trkpt><trkpt lat="43.7387351795646" lon="11.111575241522806"><ele>154.0</ele><time>2026-04-07T06:59:20.999Z</time></trkpt><trkpt lat="43.7388782550969" lon="11.11183147240046"><ele>154.0</ele><time>2026-04-07T06:59:21.999Z</time></trkpt><trkpt lat="43.739021051913916" lon="11.112084549705028"><ele>154.0</ele><time>2026-04-07T06:59:22.999Z</time></trkpt><trkpt lat="43.73916029474431" lon="11.11232835952514"><ele>155.66666666666669</ele><time>2026-04-07T06:59:23.999Z</time></trkpt><trkpt lat="43.739297723874316" lon="11.1125668252513"><ele>157.33333333333334</ele><time>2026-04-07T06:59:24.999Z</time></trkpt><trkpt lat="43.73943851808791" lon="11.112809891476235"><ele>159.0</ele><time>2026-04-07T06:59:25.999Z</time></trkpt><trkpt lat="43.739579205313774" lon="11.113055722192886"><ele>157.5</ele><time>2026-04-07T06:59:26.999Z</time></trkpt><trkpt lat="43.739720305517345" lon="11.113303781138528"><ele>156.0</ele><time>2026-04-07T06:59:27.999Z</time></trkpt><trkpt lat="43.73986243234657" lon="11.113551038186305"><ele>156.0</ele><time>2026-04-07T06:59:28.999Z</time></trkpt><trkpt lat="43.7400038121256" lon="11.113800918796104"><ele>156.0</ele><time>2026-04-07T06:59:29.999Z</time></trkpt><trkpt lat="43.74014470383443" lon="11.114047036342798"><ele>157.66666666666666</ele><time>2026-04-07T06:59:30.999Z</time></trkpt><trkpt lat="43.74028165912621" lon="11.114282393919327"><ele>159.33333333333331</ele><time>2026-04-07T06:59:31.999Z</time></trkpt><trkpt lat="43.74041434406284" lon="11.114510919559926"><ele>161.0</ele><time>2026-04-07T06:59:32.999Z</time></trkpt><trkpt lat="43.74054658898" lon="11.114742458890436"><ele>159.0</ele><time>2026-04-07T06:59:33.999Z</time></trkpt><trkpt lat="43.74068102810953" lon="11.114976389770607"><ele>157.0</ele><time>2026-04-07T06:59:34.999Z</time></trkpt><trkpt lat="43.74081877931658" lon="11.115208203062243"><ele>155.0</ele><time>2026-04-07T06:59:35.999Z</time></trkpt><trkpt lat="43.740959886279335" lon="11.115432482913684"><ele>155.0</ele><time>2026-04-07T06:59:36.999Z</time></trkpt><trkpt lat="43.74109728195547" lon="11.115650488638208"><ele>155.0</ele><time>2026-04-07T06:59:37.999Z</time></trkpt><trkpt lat="43.741238395352035" lon="11.115854693473304"><ele>155.0</ele><time>2026-04-07T06:59:38.999Z</time></trkpt><trkpt lat="43.74138448259989" lon="11.116063732739391"><ele>155.0</ele><time>2026-04-07T06:59:39.999Z</time></trkpt><trkpt lat="43.74153603620044" lon="11.116257616098085"><ele>155.0</ele><time>2026-04-07T06:59:40.999Z</time></trkpt><trkpt lat="43.74168402591037" lon="11.11644905153556"><ele>155.0</ele><time>2026-04-07T06:59:41.999Z</time></trkpt><trkpt lat="43.74183886883184" lon="11.116641588405491"><ele>155.0</ele><time>2026-04-07T06:59:42.999Z</time></trkpt><trkpt lat="43.741993226263254" lon="11.116836584674362"><ele>155.0</ele><time>2026-04-07T06:59:43.999Z</time></trkpt><trkpt lat="43.7421483559268" lon="11.117037975446621"><ele>155.0</ele><time>2026-04-07T06:59:44.999Z</time></trkpt><trkpt lat="43.74230140079239" lon="11.11723767187775"><ele>154.33333333333331</ele><time>2026-04-07T06:59:45.999Z</time></trkpt><trkpt lat="43.7424519011883" lon="11.117434960676608"><ele>153.66666666666666</ele><time>2026-04-07T06:59:46.999Z</time></trkpt><trkpt lat="43.742601864987265" lon="11.117635123196923"><ele>153.0</ele><time>2026-04-07T06:59:47.999Z</time></trkpt><trkpt lat="43.74275100882408" lon="11.117827372916988"><ele>153.0</ele><time>2026-04-07T06:59:49Z</time></trkpt><trkpt lat="43.74289714167522" lon="11.118016050118015"><ele>153.0</ele><time>2026-04-07T06:59:50Z</time></trkpt><trkpt lat="43.74304314689876" lon="11.118205070596439"><ele>153.0</ele><time>2026-04-07T06:59:51Z</time></trkpt><trkpt lat="43.743190850035916" lon="11.118391368516058"><ele>152.33333333333334</ele><time>2026-04-07T06:59:52Z</time></trkpt><trkpt lat="43.74333807583893" lon="11.118574895434968"><ele>151.66666666666669</ele><time>2026-04-07T06:59:53Z</time></trkpt><trkpt lat="43.74347540470075" lon="11.11874605368357"><ele>151.0</ele><time>2026-04-07T06:59:54Z</time></trkpt><trkpt lat="43.74362663501764" lon="11.118913854430295"><ele>151.0</ele><time>2026-04-07T06:59:55Z</time></trkpt><trkpt lat="43.74377443211272" lon="11.119064733914655"><ele>151.0</ele><time>2026-04-07T06:59:56Z</time></trkpt><trkpt lat="43.74392512360668" lon="11.119208329139445"><ele>151.0</ele><time>2026-04-07T06:59:57Z</time></trkpt><trkpt lat="43.74407803054717" lon="11.119350062821004"><ele>148.66666666666669</ele><time>2026-04-07T06:59:58Z</time></trkpt><trkpt lat="43.74423692410279" lon="11.119491115598782"><ele>146.33333333333334</ele><time>2026-04-07T06:59:59Z</time></trkpt><trkpt lat="43.74440790740619" lon="11.119632727698887"><ele>144.0</ele><time>2026-04-07T07:00:00Z</time></trkpt><trkpt lat="43.74458181833588" lon="11.119767239338541"><ele>144.0</ele><time>2026-04-07T07:00:01Z</time></trkpt><trkpt lat="43.74475419030081" lon="11.119890882565125"><ele>144.0</ele><time>2026-04-07T07:00:02Z</time></trkpt><trkpt lat="43.744931516428736" lon="11.120008283533194"><ele>144.0</ele><time>2026-04-07T07:00:03Z</time></trkpt><trkpt lat="43.74509968134219" lon="11.120112199247489"><ele>136.66666666666666</ele><time>2026-04-07T07:00:04Z</time></trkpt><trkpt lat="43.74526090121278" lon="11.120205690803843"><ele>129.33333333333331</ele><time>2026-04-07T07:00:05Z</time></trkpt><trkpt lat="43.7454370254081" lon="11.120298853995147"><ele>122.0</ele><time>2026-04-07T07:00:06Z</time></trkpt><trkpt lat="43.7456061465928" lon="11.120380629380977"><ele>122.0</ele><time>2026-04-07T07:00:07Z</time></trkpt><trkpt lat="43.7457759132176" lon="11.120453712752687"><ele>122.0</ele><time>2026-04-07T07:00:08Z</time></trkpt><trkpt lat="43.74593988307071" lon="11.120525067202559"><ele>122.0</ele><time>2026-04-07T07:00:09Z</time></trkpt><trkpt lat="43.746098868956516" lon="11.120583996739448"><ele>122.33333333333333</ele><time>2026-04-07T07:00:10Z</time></trkpt><trkpt lat="43.74626501748442" lon="11.120642704850386"><ele>122.66666666666666</ele><time>2026-04-07T07:00:11Z</time></trkpt><trkpt lat="43.74642978453628" lon="11.120703100077618"><ele>123.0</ele><time>2026-04-07T07:00:12Z</time></trkpt><trkpt lat="43.7465953928007" lon="11.120762759762101"><ele>125.0</ele><time>2026-04-07T07:00:13Z</time></trkpt><trkpt lat="43.74675292816686" lon="11.120824132751059"><ele>127.0</ele><time>2026-04-07T07:00:14Z</time></trkpt><trkpt lat="43.746901149928675" lon="11.120884844933649"><ele>129.0</ele><time>2026-04-07T07:00:15Z</time></trkpt><trkpt lat="43.747068244853466" lon="11.120957734088835"><ele>129.0</ele><time>2026-04-07T07:00:16Z</time></trkpt><trkpt lat="43.74723924882186" lon="11.121035569542647"><ele>129.0</ele><time>2026-04-07T07:00:17Z</time></trkpt><trkpt lat="43.74740373764599" lon="11.121128956013738"><ele>129.0</ele><time>2026-04-07T07:00:18Z</time></trkpt><trkpt lat="43.74757915887471" lon="11.121226333217894"><ele>132.0</ele><time>2026-04-07T07:00:19Z</time></trkpt><trkpt lat="43.74773397516095" lon="11.121328561654066"><ele>135.0</ele><time>2026-04-07T07:00:20Z</time></trkpt><trkpt lat="43.74788489770476" lon="11.121439836429513"><ele>138.0</ele><time>2026-04-07T07:00:21Z</time></trkpt><trkpt lat="43.74802946064756" lon="11.121558242144866"><ele>132.66666666666666</ele><time>2026-04-07T07:00:22Z</time></trkpt><trkpt lat="43.74817409250775" lon="11.121684186453644"><ele>127.33333333333333</ele><time>2026-04-07T07:00:23Z</time></trkpt><trkpt lat="43.74832871884581" lon="11.121816865615914"><ele>122.0</ele><time>2026-04-07T07:00:24Z</time></trkpt><trkpt lat="43.74847963557508" lon="11.121948450674715"><ele>122.33333333333333</ele><time>2026-04-07T07:00:25Z</time></trkpt><trkpt lat="43.74863372940045" lon="11.122085786096148"><ele>122.66666666666666</ele><time>2026-04-07T07:00:26Z</time></trkpt><trkpt lat="43.748785615815194" lon="11.122223291606238"><ele>123.0</ele><time>2026-04-07T07:00:26.999Z</time></trkpt><trkpt lat="43.74894076479976" lon="11.122359143292398"><ele>119.66666666666666</ele><time>2026-04-07T07:00:27.999Z</time></trkpt><trkpt lat="43.74909493251201" lon="11.122492241883641"><ele>116.33333333333333</ele><time>2026-04-07T07:00:28.999Z</time></trkpt><trkpt lat="43.74924949144381" lon="11.12262741839363"><ele>113.0</ele><time>2026-04-07T07:00:29.999Z</time></trkpt><trkpt lat="43.74940795074139" lon="11.122769852277779"><ele>113.0</ele><time>2026-04-07T07:00:30.999Z</time></trkpt><trkpt lat="43.74957534062338" lon="11.122917769869415"><ele>113.0</ele><time>2026-04-07T07:00:31.999Z</time></trkpt><trkpt lat="43.749745209764164" lon="11.123066803255405"><ele>113.0</ele><time>2026-04-07T07:00:32.999Z</time></trkpt><trkpt lat="43.74992118481071" lon="11.12322104574043"><ele>112.0</ele><time>2026-04-07T07:00:33.999Z</time></trkpt><trkpt lat="43.75009955038517" lon="11.123375867475898"><ele>111.0</ele><time>2026-04-07T07:00:34.999Z</time></trkpt><trkpt lat="43.750275312229334" lon="11.123532491825324"><ele>110.0</ele><time>2026-04-07T07:00:35.999Z</time></trkpt><trkpt lat="43.75045358196007" lon="11.123689729496487"><ele>110.0</ele><time>2026-04-07T07:00:36.999Z</time></trkpt><trkpt lat="43.75064625053889" lon="11.123852284143663"><ele>110.0</ele><time>2026-04-07T07:00:37.999Z</time></trkpt><trkpt lat="43.750855231868975" lon="11.124024146946466"><ele>110.0</ele><time>2026-04-07T07:00:38.999Z</time></trkpt><trkpt lat="43.75107259235889" lon="11.124207429121276"><ele>110.0</ele><time>2026-04-07T07:00:39.999Z</time></trkpt><trkpt lat="43.751288895478915" lon="11.124395771731011"><ele>110.0</ele><time>2026-04-07T07:00:40.999Z</time></trkpt><trkpt lat="43.75149995024574" lon="11.124586533222892"><ele>110.0</ele><time>2026-04-07T07:00:41.999Z</time></trkpt><trkpt lat="43.751717276731654" lon="11.124780384419967"><ele>105.0</ele><time>2026-04-07T07:00:42.999Z</time></trkpt><trkpt lat="43.75193566105509" lon="11.124970598404449"><ele>100.0</ele><time>2026-04-07T07:00:43.999Z</time></trkpt><trkpt lat="43.752153013921436" lon="11.12516543406359"><ele>100.0</ele><time>2026-04-07T07:00:44.999Z</time></trkpt><trkpt lat="43.752365066445705" lon="11.125362707963093"><ele>100.0</ele><time>2026-04-07T07:00:45.999Z</time></trkpt><trkpt lat="43.75257753137429" lon="11.125560780004198"><ele>96.0</ele><time>2026-04-07T07:00:46.999Z</time></trkpt><trkpt lat="43.752795698314344" lon="11.125745461918287"><ele>92.0</ele><time>2026-04-07T07:00:47.999Z</time></trkpt><trkpt lat="43.753023284224774" lon="11.12591153073923"><ele>92.0</ele><time>2026-04-07T07:00:48.999Z</time></trkpt><trkpt lat="43.75325361178282" lon="11.126056128504642"><ele>92.0</ele><time>2026-04-07T07:00:49.999Z</time></trkpt><trkpt lat="43.753487195511546" lon="11.126177287831"><ele>93.0</ele><time>2026-04-07T07:00:50.999Z</time></trkpt><trkpt lat="43.75372472060757" lon="11.12627518362027"><ele>94.0</ele><time>2026-04-07T07:00:51.999Z</time></trkpt><trkpt lat="43.753962874161054" lon="11.12635713669579"><ele>94.0</ele><time>2026-04-07T07:00:52.999Z</time></trkpt><trkpt lat="43.754208686268534" lon="11.126418154361902"><ele>94.0</ele><time>2026-04-07T07:00:53.999Z</time></trkpt><trkpt lat="43.75445538092847" lon="11.12646159996975"><ele>92.5</ele><time>2026-04-07T07:00:54.999Z</time></trkpt><trkpt lat="43.754702434288994" lon="11.126491314178429"><ele>91.0</ele><time>2026-04-07T07:00:55.999Z</time></trkpt><trkpt lat="43.754947822356876" lon="11.126515002252157"><ele>91.0</ele><time>2026-04-07T07:00:56.999Z</time></trkpt><trkpt lat="43.75519504065303" lon="11.126542336201407"><ele>91.0</ele><time>2026-04-07T07:00:57.999Z</time></trkpt><trkpt lat="43.75544139787517" lon="11.126573257951064"><ele>82.0</ele><time>2026-04-07T07:00:58.999Z</time></trkpt><trkpt lat="43.755686061171424" lon="11.126606410114345"><ele>73.0</ele><time>2026-04-07T07:00:59.999Z</time></trkpt><trkpt lat="43.75593684721736" lon="11.126637457731896"><ele>72.5</ele><time>2026-04-07T07:01:00.999Z</time></trkpt><trkpt lat="43.75618606253533" lon="11.126666043070594"><ele>72.0</ele><time>2026-04-07T07:01:01.999Z</time></trkpt><trkpt lat="43.7564361501362" lon="11.126695205526765"><ele>72.0</ele><time>2026-04-07T07:01:02.999Z</time></trkpt><trkpt lat="43.75667925065904" lon="11.12672313326296"><ele>72.0</ele><time>2026-04-07T07:01:03.999Z</time></trkpt><trkpt lat="43.75692299118135" lon="11.126751914480073"><ele>74.0</ele><time>2026-04-07T07:01:04.999Z</time></trkpt><trkpt lat="43.75716673583213" lon="11.126786338398976"><ele>76.0</ele><time>2026-04-07T07:01:05.999Z</time></trkpt><trkpt lat="43.75741119491116" lon="11.126834548775337"><ele>76.0</ele><time>2026-04-07T07:01:06.999Z</time></trkpt><trkpt lat="43.757652110790865" lon="11.126902174668848"><ele>76.0</ele><time>2026-04-07T07:01:07.999Z</time></trkpt><trkpt lat="43.7578899093476" lon="11.126992659056764"><ele>77.0</ele><time>2026-04-07T07:01:08.999Z</time></trkpt><trkpt lat="43.758111777955506" lon="11.127095172826984"><ele>78.0</ele><time>2026-04-07T07:01:09.999Z</time></trkpt><trkpt lat="43.758323480234125" lon="11.127201384925536"><ele>78.0</ele><time>2026-04-07T07:01:10.999Z</time></trkpt><trkpt lat="43.75853093749615" lon="11.127305150868114"><ele>78.0</ele><time>2026-04-07T07:01:11.999Z</time></trkpt><trkpt lat="43.75874111462067" lon="11.127408046990737"><ele>78.0</ele><time>2026-04-07T07:01:12.999Z</time></trkpt><trkpt lat="43.758950508301254" lon="11.127501441836852"><ele>72.0</ele><time>2026-04-07T07:01:13.999Z</time></trkpt><trkpt lat="43.759176290162706" lon="11.127586829842514"><ele>66.0</ele><time>2026-04-07T07:01:14.999Z</time></trkpt><trkpt lat="43.75939938825374" lon="11.12766056459547"><ele>65.0</ele><time>2026-04-07T07:01:15.999Z</time></trkpt><trkpt lat="43.75962338439347" lon="11.127728462802056"><ele>64.0</ele><time>2026-04-07T07:01:16.999Z</time></trkpt><trkpt lat="43.75984839805023" lon="11.127786600095149"><ele>64.0</ele><time>2026-04-07T07:01:17.999Z</time></trkpt><trkpt lat="43.76007618705378" lon="11.127829014174583"><ele>64.0</ele><time>2026-04-07T07:01:18.999Z</time></trkpt><trkpt lat="43.76030331977705" lon="11.127852280958653"><ele>61.0</ele><time>2026-04-07T07:01:19.999Z</time></trkpt><trkpt lat="43.76053181381416" lon="11.127854057558158"><ele>58.0</ele><time>2026-04-07T07:01:20.999Z</time></trkpt><trkpt lat="43.76076453314767" lon="11.127842416743064"><ele>58.0</ele><time>2026-04-07T07:01:21.999Z</time></trkpt><trkpt lat="43.76099785493667" lon="11.127816836922332"><ele>58.0</ele><time>2026-04-07T07:01:22.999Z</time></trkpt><trkpt lat="43.76122681342443" lon="11.127776650393313"><ele>55.5</ele><time>2026-04-07T07:01:23.999Z</time></trkpt><trkpt lat="43.76145445914171" lon="11.127714967679275"><ele>53.0</ele><time>2026-04-07T07:01:24.999Z</time></trkpt><trkpt lat="43.76167540738279" lon="11.12763164191118"><ele>50.5</ele><time>2026-04-07T07:01:25.999Z</time></trkpt><trkpt lat="43.76189600696554" lon="11.127534307948455"><ele>48.0</ele><time>2026-04-07T07:01:26.999Z</time></trkpt><trkpt lat="43.76211538812485" lon="11.127425812858323"><ele>51.5</ele><time>2026-04-07T07:01:27.999Z</time></trkpt><trkpt lat="43.762334839072444" lon="11.127308592281043"><ele>55.0</ele><time>2026-04-07T07:01:28.999Z</time></trkpt><trkpt lat="43.762552960231986" lon="11.127183995872048"><ele>52.0</ele><time>2026-04-07T07:01:29.999Z</time></trkpt><trkpt lat="43.762770828274654" lon="11.127053271227796"><ele>49.0</ele><time>2026-04-07T07:01:30.999Z</time></trkpt><trkpt lat="43.76298517518995" lon="11.126925237859101"><ele>49.0</ele><time>2026-04-07T07:01:31.999Z</time></trkpt><trkpt lat="43.76319958717236" lon="11.12679934183207"><ele>49.0</ele><time>2026-04-07T07:01:32.999Z</time></trkpt><trkpt lat="43.76341756898078" lon="11.126670624863783"><ele>47.0</ele><time>2026-04-07T07:01:33.999Z</time></trkpt><trkpt lat="43.763641702301655" lon="11.126537647747272"><ele>45.0</ele><time>2026-04-07T07:01:34.999Z</time></trkpt><trkpt lat="43.76386995912786" lon="11.126396959570407"><ele>45.0</ele><time>2026-04-07T07:01:35.999Z</time></trkpt><trkpt lat="43.76410501621947" lon="11.126256992955906"><ele>45.0</ele><time>2026-04-07T07:01:36.999Z</time></trkpt><trkpt lat="43.76433814420476" lon="11.12612366629155"><ele>43.0</ele><time>2026-04-07T07:01:37.999Z</time></trkpt><trkpt lat="43.76457610133695" lon="11.126003585066993"><ele>41.0</ele><time>2026-04-07T07:01:38.999Z</time></trkpt><trkpt lat="43.76481709269649" lon="11.125902212624384"><ele>41.0</ele><time>2026-04-07T07:01:39.999Z</time></trkpt><trkpt lat="43.765060686445864" lon="11.125823636220192"><ele>41.0</ele><time>2026-04-07T07:01:40.999Z</time></trkpt><trkpt lat="43.76530418828383" lon="11.12576647451834"><ele>40.5</ele><time>2026-04-07T07:01:41.999Z</time></trkpt><trkpt lat="43.7655464746526" lon="11.125729668214987"><ele>40.0</ele><time>2026-04-07T07:01:42.999Z</time></trkpt><trkpt lat="43.76579154850386" lon="11.125710525298764"><ele>40.0</ele><time>2026-04-07T07:01:43.999Z</time></trkpt><trkpt lat="43.76603408608086" lon="11.125708194358282"><ele>40.0</ele><time>2026-04-07T07:01:44.999Z</time></trkpt><trkpt lat="43.76627624791402" lon="11.125724703975408"><ele>40.0</ele><time>2026-04-07T07:01:45.999Z</time></trkpt><trkpt lat="43.76651307758532" lon="11.125754652542335"><ele>40.0</ele><time>2026-04-07T07:01:46.999Z</time></trkpt><trkpt lat="43.76674142334793" lon="11.125796451397502"><ele>38.5</ele><time>2026-04-07T07:01:47.999Z</time></trkpt><trkpt lat="43.76696637924731" lon="11.12584814693214"><ele>37.0</ele><time>2026-04-07T07:01:48.999Z</time></trkpt><trkpt lat="43.76718721450104" lon="11.125908077863453"><ele>37.0</ele><time>2026-04-07T07:01:49.999Z</time></trkpt><trkpt lat="43.76740638646139" lon="11.125976135133726"><ele>37.0</ele><time>2026-04-07T07:01:50.999Z</time></trkpt><trkpt lat="43.76762840790942" lon="11.126039713599718"><ele>36.66666666666667</ele><time>2026-04-07T07:01:51.999Z</time></trkpt><trkpt lat="43.76785022670555" lon="11.126101904302816"><ele>36.333333333333336</ele><time>2026-04-07T07:01:52.999Z</time></trkpt><trkpt lat="43.76806093144049" lon="11.126162404916926"><ele>36.0</ele><time>2026-04-07T07:01:53.999Z</time></trkpt><trkpt lat="43.76826620362212" lon="11.126223960910712"><ele>36.0</ele><time>2026-04-07T07:01:55Z</time></trkpt><trkpt lat="43.76846299336079" lon="11.126284165921348"><ele>36.0</ele><time>2026-04-07T07:01:56Z</time></trkpt><trkpt lat="43.76867123188987" lon="11.126349240097579"><ele>36.0</ele><time>2026-04-07T07:01:57Z</time></trkpt><trkpt lat="43.76887490145327" lon="11.126412281607557"><ele>35.666666666666664</ele><time>2026-04-07T07:01:58Z</time></trkpt><trkpt lat="43.76908431498206" lon="11.126477170492597"><ele>35.33333333333333</ele><time>2026-04-07T07:01:59Z</time></trkpt><trkpt lat="43.76929718070952" lon="11.126541385812452"><ele>35.0</ele><time>2026-04-07T07:01:59.999Z</time></trkpt><trkpt lat="43.76951191975412" lon="11.126609053129384"><ele>36.0</ele><time>2026-04-07T07:02:00.999Z</time></trkpt><trkpt lat="43.76972530662868" lon="11.126681482235973"><ele>37.0</ele><time>2026-04-07T07:02:01.999Z</time></trkpt><trkpt lat="43.769931375488895" lon="11.126760649042469"><ele>38.0</ele><time>2026-04-07T07:02:02.999Z</time></trkpt><trkpt lat="43.770129787692085" lon="11.12684540025232"><ele>38.33333333333333</ele><time>2026-04-07T07:02:03.999Z</time></trkpt><trkpt lat="43.770330920410984" lon="11.1269433561532"><ele>38.666666666666664</ele><time>2026-04-07T07:02:04.999Z</time></trkpt><trkpt lat="43.77053488118333" lon="11.127055572453463"><ele>39.0</ele><time>2026-04-07T07:02:05.999Z</time></trkpt><trkpt lat="43.770744884801275" lon="11.127186405575653"><ele>39.0</ele><time>2026-04-07T07:02:07Z</time></trkpt><trkpt lat="43.77094974626653" lon="11.127341075764761"><ele>39.0</ele><time>2026-04-07T07:02:08Z</time></trkpt><trkpt lat="43.77114649391765" lon="11.12751189738636"><ele>37.5</ele><time>2026-04-07T07:02:09Z</time></trkpt><trkpt lat="43.77133549867001" lon="11.12768814636992"><ele>36.0</ele><time>2026-04-07T07:02:09.999Z</time></trkpt><trkpt lat="43.771521938944694" lon="11.127872435267099"><ele>36.0</ele><time>2026-04-07T07:02:10.999Z</time></trkpt><trkpt lat="43.77169909496042" lon="11.128075286061296"><ele>36.0</ele><time>2026-04-07T07:02:11.999Z</time></trkpt><trkpt lat="43.77187036090088" lon="11.12828867904109"><ele>36.0</ele><time>2026-04-07T07:02:12.999Z</time></trkpt><trkpt lat="43.77202633493598" lon="11.128516130416019"><ele>36.0</ele><time>2026-04-07T07:02:13.999Z</time></trkpt><trkpt lat="43.77216751746066" lon="11.128747655457781"><ele>36.0</ele><time>2026-04-07T07:02:14.999Z</time></trkpt><trkpt lat="43.77229966123629" lon="11.12898215188922"><ele>36.0</ele><time>2026-04-07T07:02:15.999Z</time></trkpt><trkpt lat="43.77242491413197" lon="11.129224377714294"><ele>36.0</ele><time>2026-04-07T07:02:16.999Z</time></trkpt><trkpt lat="43.77254098030642" lon="11.129474073259251"><ele>36.0</ele><time>2026-04-07T07:02:17.999Z</time></trkpt><trkpt lat="43.77265059718902" lon="11.129735254598044"><ele>35.333333333333336</ele><time>2026-04-07T07:02:18.999Z</time></trkpt><trkpt lat="43.77274803694137" lon="11.13000556359041"><ele>34.66666666666667</ele><time>2026-04-07T07:02:19.999Z</time></trkpt><trkpt lat="43.77283648545483" lon="11.130283401079579"><ele>34.0</ele><time>2026-04-07T07:02:20.999Z</time></trkpt><trkpt lat="43.77291717974996" lon="11.13056470239484"><ele>34.0</ele><time>2026-04-07T07:02:21.999Z</time></trkpt><trkpt lat="43.77299157693946" lon="11.130853485466359"><ele>34.0</ele><time>2026-04-07T07:02:22.999Z</time></trkpt><trkpt lat="43.77305081846118" lon="11.131145853466904"><ele>34.0</ele><time>2026-04-07T07:02:23.999Z</time></trkpt><trkpt lat="43.77309636413119" lon="11.13143440651651"><ele>34.333333333333336</ele><time>2026-04-07T07:02:24.999Z</time></trkpt><trkpt lat="43.773133048508214" lon="11.13172589545159"><ele>34.666666666666664</ele><time>2026-04-07T07:02:25.999Z</time></trkpt><trkpt lat="43.7731625689678" lon="11.132017151379621"><ele>35.0</ele><time>2026-04-07T07:02:26.999Z</time></trkpt><trkpt lat="43.773188061650835" lon="11.132310035651322"><ele>35.33333333333333</ele><time>2026-04-07T07:02:27.999Z</time></trkpt><trkpt lat="43.77321112843311" lon="11.132603534666474"><ele>35.666666666666664</ele><time>2026-04-07T07:02:28.999Z</time></trkpt><trkpt lat="43.77323315867459" lon="11.132896596250442"><ele>36.0</ele><time>2026-04-07T07:02:29.999Z</time></trkpt><trkpt lat="43.77325552843044" lon="11.133187206088328"><ele>36.333333333333336</ele><time>2026-04-07T07:02:30.999Z</time></trkpt><trkpt lat="43.773277624698025" lon="11.133484372183872"><ele>36.66666666666667</ele><time>2026-04-07T07:02:31.999Z</time></trkpt><trkpt lat="43.77329895378812" lon="11.133776255558635"><ele>37.0</ele><time>2026-04-07T07:02:32.999Z</time></trkpt><trkpt lat="43.77332017923838" lon="11.13407351690826"><ele>37.0</ele><time>2026-04-07T07:02:33.999Z</time></trkpt><trkpt lat="43.77334102061763" lon="11.134371608358979"><ele>37.0</ele><time>2026-04-07T07:02:34.999Z</time></trkpt><trkpt lat="43.77336142277699" lon="11.134668108256704"><ele>37.0</ele><time>2026-04-07T07:02:35.999Z</time></trkpt><trkpt lat="43.77338317497834" lon="11.134965547177375"><ele>36.333333333333336</ele><time>2026-04-07T07:02:36.999Z</time></trkpt><trkpt lat="43.77340407031122" lon="11.13525030767459"><ele>35.666666666666664</ele><time>2026-04-07T07:02:37.999Z</time></trkpt><trkpt lat="43.7734246023354" lon="11.135531342577288"><ele>35.0</ele><time>2026-04-07T07:02:38.999Z</time></trkpt><trkpt lat="43.77344544319643" lon="11.135811668422647"><ele>35.0</ele><time>2026-04-07T07:02:39.999Z</time></trkpt><trkpt lat="43.77346505373369" lon="11.136091739380184"><ele>35.0</ele><time>2026-04-07T07:02:40.999Z</time></trkpt><trkpt lat="43.77348769211749" lon="11.136375123387833"><ele>35.0</ele><time>2026-04-07T07:02:41.999Z</time></trkpt><trkpt lat="43.77351017740106" lon="11.136655237195868"><ele>35.0</ele><time>2026-04-07T07:02:42.999Z</time></trkpt><trkpt lat="43.77353257673413" lon="11.136935593691744"><ele>35.0</ele><time>2026-04-07T07:02:43.999Z</time></trkpt><trkpt lat="43.77355250947409" lon="11.137211060981656"><ele>35.0</ele><time>2026-04-07T07:02:44.999Z</time></trkpt><trkpt lat="43.773571891707256" lon="11.137492174042627"><ele>35.0</ele><time>2026-04-07T07:02:45.999Z</time></trkpt><trkpt lat="43.773591846217705" lon="11.13777508971794"><ele>35.0</ele><time>2026-04-07T07:02:46.999Z</time></trkpt><trkpt lat="43.773613911413946" lon="11.138055654197176"><ele>35.0</ele><time>2026-04-07T07:02:47.999Z</time></trkpt><trkpt lat="43.77363410965005" lon="11.138341722675172"><ele>34.666666666666664</ele><time>2026-04-07T07:02:48.999Z</time></trkpt><trkpt lat="43.7736544330205" lon="11.138625485961464"><ele>34.333333333333336</ele><time>2026-04-07T07:02:49.998Z</time></trkpt><trkpt lat="43.77367350594393" lon="11.138910066991745"><ele>34.0</ele><time>2026-04-07T07:02:50.998Z</time></trkpt><trkpt lat="43.77369564306476" lon="11.139191964713829"><ele>34.66666666666667</ele><time>2026-04-07T07:02:51.998Z</time></trkpt><trkpt lat="43.7737165608806" lon="11.139479853900959"><ele>35.333333333333336</ele><time>2026-04-07T07:02:52.998Z</time></trkpt><trkpt lat="43.7737387488512" lon="11.139764893868222"><ele>36.0</ele><time>2026-04-07T07:02:53.998Z</time></trkpt><trkpt lat="43.77375957494942" lon="11.14005416174756"><ele>36.333333333333336</ele><time>2026-04-07T07:02:54.998Z</time></trkpt><trkpt lat="43.77378016059986" lon="11.140337595467658"><ele>36.66666666666667</ele><time>2026-04-07T07:02:55.998Z</time></trkpt><trkpt lat="43.773799729042" lon="11.140623303577192"><ele>37.0</ele><time>2026-04-07T07:02:56.998Z</time></trkpt><trkpt lat="43.77382110861825" lon="11.140901064360875"><ele>37.0</ele><time>2026-04-07T07:02:57.998Z</time></trkpt><trkpt lat="43.77384133051892" lon="11.14117946261833"><ele>37.0</ele><time>2026-04-07T07:02:58.998Z</time></trkpt><trkpt lat="43.77385955805163" lon="11.14145303665967"><ele>37.0</ele><time>2026-04-07T07:02:59.998Z</time></trkpt><trkpt lat="43.77387955780359" lon="11.141727625081323"><ele>36.66666666666667</ele><time>2026-04-07T07:03:00.998Z</time></trkpt><trkpt lat="43.77389925240492" lon="11.142006354047012"><ele>36.333333333333336</ele><time>2026-04-07T07:03:01.998Z</time></trkpt><trkpt lat="43.77391430304942" lon="11.142283329341355"><ele>36.0</ele><time>2026-04-07T07:03:02.998Z</time></trkpt><trkpt lat="43.77392664941459" lon="11.142564138825685"><ele>36.0</ele><time>2026-04-07T07:03:03.998Z</time></trkpt><trkpt lat="43.77393519290477" lon="11.1428471730539"><ele>36.0</ele><time>2026-04-07T07:03:04.998Z</time></trkpt><trkpt lat="43.7739415993954" lon="11.14313847340894"><ele>36.0</ele><time>2026-04-07T07:03:05.998Z</time></trkpt><trkpt lat="43.77394759044035" lon="11.143438958081965"><ele>36.0</ele><time>2026-04-07T07:03:06.998Z</time></trkpt><trkpt lat="43.773951662259286" lon="11.1437535906334"><ele>36.0</ele><time>2026-04-07T07:03:07.998Z</time></trkpt><trkpt lat="43.77395635471457" lon="11.144086619237898"><ele>35.5</ele><time>2026-04-07T07:03:08.998Z</time></trkpt><trkpt lat="43.77396234248688" lon="11.144417981125285"><ele>35.0</ele><time>2026-04-07T07:03:09.998Z</time></trkpt><trkpt lat="43.77396965677679" lon="11.144766571255264"><ele>35.5</ele><time>2026-04-07T07:03:10.998Z</time></trkpt><trkpt lat="43.77397771744099" lon="11.145115393936937"><ele>36.0</ele><time>2026-04-07T07:03:11.998Z</time></trkpt><trkpt lat="43.773985884248" lon="11.145455043578544"><ele>34.5</ele><time>2026-04-07T07:03:12.998Z</time></trkpt><trkpt lat="43.773989240699564" lon="11.145794792127568"><ele>33.0</ele><time>2026-04-07T07:03:13.998Z</time></trkpt><trkpt lat="43.773992346287535" lon="11.146129918315832"><ele>33.0</ele><time>2026-04-07T07:03:14.998Z</time></trkpt><trkpt lat="43.77399663367068" lon="11.146470414808908"><ele>33.0</ele><time>2026-04-07T07:03:15.998Z</time></trkpt><trkpt lat="43.77400210921205" lon="11.14680731672207"><ele>33.0</ele><time>2026-04-07T07:03:16.998Z</time></trkpt><trkpt lat="43.77400983339202" lon="11.147146885944101"><ele>33.0</ele><time>2026-04-07T07:03:17.998Z</time></trkpt><trkpt lat="43.774017662486855" lon="11.14748312535846"><ele>33.0</ele><time>2026-04-07T07:03:18.998Z</time></trkpt><trkpt lat="43.77402579185435" lon="11.14782132553519"><ele>33.0</ele><time>2026-04-07T07:03:19.998Z</time></trkpt><trkpt lat="43.774030600422236" lon="11.148153983334698"><ele>34.0</ele><time>2026-04-07T07:03:20.998Z</time></trkpt><trkpt lat="43.77403618729345" lon="11.14848468325809"><ele>35.0</ele><time>2026-04-07T07:03:21.998Z</time></trkpt><trkpt lat="43.77404200035158" lon="11.148812128926904"><ele>35.0</ele><time>2026-04-07T07:03:22.998Z</time></trkpt><trkpt lat="43.77404827177953" lon="11.149141658732034"><ele>35.0</ele><time>2026-04-07T07:03:23.998Z</time></trkpt><trkpt lat="43.774054016303054" lon="11.14946703429983"><ele>35.0</ele><time>2026-04-07T07:03:24.998Z</time></trkpt><trkpt lat="43.77405987837336" lon="11.149792384578957"><ele>35.0</ele><time>2026-04-07T07:03:25.998Z</time></trkpt><trkpt lat="43.77406562705844" lon="11.15011247426092"><ele>34.5</ele><time>2026-04-07T07:03:26.998Z</time></trkpt><trkpt lat="43.774069679620716" lon="11.150439372972432"><ele>34.0</ele><time>2026-04-07T07:03:27.998Z</time></trkpt><trkpt lat="43.774074079376796" lon="11.150766665301324"><ele>35.5</ele><time>2026-04-07T07:03:28.998Z</time></trkpt><trkpt lat="43.77407832005865" lon="11.151095117830376"><ele>37.0</ele><time>2026-04-07T07:03:29.998Z</time></trkpt><trkpt lat="43.77407985068694" lon="11.15143411847339"><ele>36.5</ele><time>2026-04-07T07:03:30.998Z</time></trkpt><trkpt lat="43.7740785937101" lon="11.151777819648322"><ele>36.0</ele><time>2026-04-07T07:03:31.998Z</time></trkpt><trkpt lat="43.774080628607535" lon="11.152116979302791"><ele>35.5</ele><time>2026-04-07T07:03:32.998Z</time></trkpt><trkpt lat="43.774084411296585" lon="11.15245904452547"><ele>35.0</ele><time>2026-04-07T07:03:33.998Z</time></trkpt><trkpt lat="43.77409091079519" lon="11.152798445934275"><ele>35.0</ele><time>2026-04-07T07:03:34.998Z</time></trkpt><trkpt lat="43.77409906656233" lon="11.153141070095018"><ele>35.0</ele><time>2026-04-07T07:03:35.998Z</time></trkpt><trkpt lat="43.77410488677944" lon="11.153484154894752"><ele>35.5</ele><time>2026-04-07T07:03:36.998Z</time></trkpt><trkpt lat="43.77410699780945" lon="11.153826944079501"><ele>36.0</ele><time>2026-04-07T07:03:37.998Z</time></trkpt><trkpt lat="43.77410874808073" lon="11.154170208211548"><ele>36.0</ele><time>2026-04-07T07:03:38.998Z</time></trkpt><trkpt lat="43.77410214137173" lon="11.154516166479622"><ele>36.0</ele><time>2026-04-07T07:03:39.998Z</time></trkpt><trkpt lat="43.77409590906462" lon="11.154857909149978"><ele>35.5</ele><time>2026-04-07T07:03:40.998Z</time></trkpt><trkpt lat="43.77407840564726" lon="11.155201983915665"><ele>35.0</ele><time>2026-04-07T07:03:41.998Z</time></trkpt><trkpt lat="43.774052948837685" lon="11.15553806191287"><ele>35.5</ele><time>2026-04-07T07:03:42.998Z</time></trkpt><trkpt lat="43.774019694279" lon="11.155883711134523"><ele>36.0</ele><time>2026-04-07T07:03:43.998Z</time></trkpt><trkpt lat="43.773985704389624" lon="11.156218820674688"><ele>36.5</ele><time>2026-04-07T07:03:44.998Z</time></trkpt><trkpt lat="43.773944079561275" lon="11.15655332833069"><ele>37.0</ele><time>2026-04-07T07:03:45.998Z</time></trkpt><trkpt lat="43.77389775382977" lon="11.1568816767218"><ele>37.0</ele><time>2026-04-07T07:03:46.998Z</time></trkpt><trkpt lat="43.773850362772684" lon="11.157201321488966"><ele>37.0</ele><time>2026-04-07T07:03:47.998Z</time></trkpt><trkpt lat="43.773799359158744" lon="11.157520935545966"><ele>36.0</ele><time>2026-04-07T07:03:48.998Z</time></trkpt><trkpt lat="43.77375009051665" lon="11.1578308310507"><ele>35.0</ele><time>2026-04-07T07:03:49.998Z</time></trkpt><trkpt lat="43.7736873063365" lon="11.158132768491258"><ele>35.0</ele><time>2026-04-07T07:03:50.998Z</time></trkpt><trkpt lat="43.77363185877407" lon="11.158432592800308"><ele>35.0</ele><time>2026-04-07T07:03:51.998Z</time></trkpt><trkpt lat="43.77357883941709" lon="11.158730265248552"><ele>35.0</ele><time>2026-04-07T07:03:52.998Z</time></trkpt><trkpt lat="43.77352622950994" lon="11.159019931428158"><ele>35.0</ele><time>2026-04-07T07:03:53.998Z</time></trkpt><trkpt lat="43.7734741087337" lon="11.159305096648255"><ele>35.0</ele><time>2026-04-07T07:03:54.998Z</time></trkpt><trkpt lat="43.773424461444314" lon="11.15959375072381"><ele>35.0</ele><time>2026-04-07T07:03:55.998Z</time></trkpt><trkpt lat="43.77337791492029" lon="11.159886187202522"><ele>35.33333333333333</ele><time>2026-04-07T07:03:56.998Z</time></trkpt><trkpt lat="43.77332593181474" lon="11.160183348429335"><ele>35.666666666666664</ele><time>2026-04-07T07:03:57.998Z</time></trkpt><trkpt lat="43.77327233514879" lon="11.160489562825969"><ele>36.0</ele><time>2026-04-07T07:03:58.998Z</time></trkpt><trkpt lat="43.7732215650871" lon="11.16079441398766"><ele>36.0</ele><time>2026-04-07T07:03:59.998Z</time></trkpt><trkpt lat="43.77316798780603" lon="11.161097670813048"><ele>36.0</ele><time>2026-04-07T07:04:00.999Z</time></trkpt><trkpt lat="43.77311158802221" lon="11.161393863617352"><ele>36.0</ele><time>2026-04-07T07:04:01.999Z</time></trkpt><trkpt lat="43.77305359633837" lon="11.161686183038258"><ele>35.666666666666664</ele><time>2026-04-07T07:04:02.999Z</time></trkpt><trkpt lat="43.772996767688866" lon="11.161969756111883"><ele>35.33333333333333</ele><time>2026-04-07T07:04:03.999Z</time></trkpt><trkpt lat="43.77294109758126" lon="11.162227697898363"><ele>35.0</ele><time>2026-04-07T07:04:04.999Z</time></trkpt><trkpt lat="43.77288590214942" lon="11.16247401848769"><ele>35.0</ele><time>2026-04-07T07:04:05.999Z</time></trkpt><trkpt lat="43.772837552667134" lon="11.162701120821762"><ele>35.0</ele><time>2026-04-07T07:04:06.999Z</time></trkpt><trkpt lat="43.77279450867105" lon="11.162930784248625"><ele>35.0</ele><time>2026-04-07T07:04:07.999Z</time></trkpt><trkpt lat="43.77275358799006" lon="11.163167864462988"><ele>35.0</ele><time>2026-04-07T07:04:08.999Z</time></trkpt><trkpt lat="43.77271137736177" lon="11.163404413689427"><ele>35.0</ele><time>2026-04-07T07:04:09.999Z</time></trkpt><trkpt lat="43.7726677870647" lon="11.163643684818384"><ele>35.0</ele><time>2026-04-07T07:04:10.999Z</time></trkpt><trkpt lat="43.772624404370816" lon="11.16388888837118"><ele>34.666666666666664</ele><time>2026-04-07T07:04:11.999Z</time></trkpt><trkpt lat="43.77257823958872" lon="11.164149609329995"><ele>34.333333333333336</ele><time>2026-04-07T07:04:12.999Z</time></trkpt><trkpt lat="43.77252700397823" lon="11.164429465726213"><ele>34.0</ele><time>2026-04-07T07:04:13.999Z</time></trkpt><trkpt lat="43.772470865839246" lon="11.164715526858934"><ele>34.0</ele><time>2026-04-07T07:04:14.999Z</time></trkpt><trkpt lat="43.77241569731854" lon="11.165001535103231"><ele>34.0</ele><time>2026-04-07T07:04:15.999Z</time></trkpt><trkpt lat="43.7723614578726" lon="11.165292842626862"><ele>34.0</ele><time>2026-04-07T07:04:16.999Z</time></trkpt><trkpt lat="43.77231079572866" lon="11.16557228161969"><ele>35.333333333333336</ele><time>2026-04-07T07:04:17.999Z</time></trkpt><trkpt lat="43.77226114423932" lon="11.165852410499964"><ele>36.666666666666664</ele><time>2026-04-07T07:04:18.999Z</time></trkpt><trkpt lat="43.772206588874376" lon="11.16613509195574"><ele>38.0</ele><time>2026-04-07T07:04:19.999Z</time></trkpt><trkpt lat="43.77215091576253" lon="11.166425147832955"><ele>38.0</ele><time>2026-04-07T07:04:20.999Z</time></trkpt><trkpt lat="43.77209293989839" lon="11.166720476972355"><ele>38.0</ele><time>2026-04-07T07:04:21.999Z</time></trkpt><trkpt lat="43.772037131148366" lon="11.167015323982218"><ele>38.0</ele><time>2026-04-07T07:04:22.999Z</time></trkpt><trkpt lat="43.771981832104" lon="11.16730642638808"><ele>36.666666666666664</ele><time>2026-04-07T07:04:23.999Z</time></trkpt><trkpt lat="43.771928757158015" lon="11.167598061317923"><ele>35.333333333333336</ele><time>2026-04-07T07:04:24.999Z</time></trkpt><trkpt lat="43.77187559556053" lon="11.167894774987758"><ele>34.0</ele><time>2026-04-07T07:04:25.999Z</time></trkpt><trkpt lat="43.771821315120064" lon="11.168189893087995"><ele>35.0</ele><time>2026-04-07T07:04:26.999Z</time></trkpt><trkpt lat="43.771764413013265" lon="11.168492621312557"><ele>36.0</ele><time>2026-04-07T07:04:27.999Z</time></trkpt><trkpt lat="43.771708995903786" lon="11.168794803207776"><ele>36.0</ele><time>2026-04-07T07:04:28.999Z</time></trkpt><trkpt lat="43.771650685066746" lon="11.169101747260267"><ele>36.0</ele><time>2026-04-07T07:04:29.999Z</time></trkpt><trkpt lat="43.771592726487604" lon="11.169410445402946"><ele>36.0</ele><time>2026-04-07T07:04:30.999Z</time></trkpt><trkpt lat="43.77153597378804" lon="11.169721011192484"><ele>36.0</ele><time>2026-04-07T07:04:31.999Z</time></trkpt><trkpt lat="43.771478687648674" lon="11.170033088321308"><ele>36.0</ele><time>2026-04-07T07:04:32.999Z</time></trkpt><trkpt lat="43.77142261333061" lon="11.17034355944302"><ele>36.0</ele><time>2026-04-07T07:04:33.999Z</time></trkpt><trkpt lat="43.7713660457373" lon="11.17065608851401"><ele>35.0</ele><time>2026-04-07T07:04:34.999Z</time></trkpt><trkpt lat="43.771310368705876" lon="11.170969100810797"><ele>34.0</ele><time>2026-04-07T07:04:35.999Z</time></trkpt><trkpt lat="43.77125276590852" lon="11.171282316156573"><ele>35.0</ele><time>2026-04-07T07:04:36.999Z</time></trkpt><trkpt lat="43.77119699774264" lon="11.171595663702627"><ele>36.0</ele><time>2026-04-07T07:04:37.999Z</time></trkpt><trkpt lat="43.77104336285104" lon="11.17253034199357"><ele>36.5</ele><time>2026-04-07T07:04:40.999Z</time></trkpt><trkpt lat="43.770989310949524" lon="11.172840846491653"><ele>37.0</ele><time>2026-04-07T07:04:41.999Z</time></trkpt><trkpt lat="43.7709335244493" lon="11.173150756343778"><ele>36.0</ele><time>2026-04-07T07:04:42.999Z</time></trkpt><trkpt lat="43.77087790011105" lon="11.17345788549486"><ele>35.0</ele><time>2026-04-07T07:04:43.999Z</time></trkpt><trkpt lat="43.77082497011417" lon="11.173765151910949"><ele>36.0</ele><time>2026-04-07T07:04:44.999Z</time></trkpt><trkpt lat="43.77077449961731" lon="11.17407387074309"><ele>37.0</ele><time>2026-04-07T07:04:45.999Z</time></trkpt><trkpt lat="43.77072553473985" lon="11.174384043633282"><ele>37.0</ele><time>2026-04-07T07:04:46.999Z</time></trkpt><trkpt lat="43.77067490788995" lon="11.174695286189973"><ele>37.0</ele><time>2026-04-07T07:04:47.999Z</time></trkpt><trkpt lat="43.77062443665795" lon="11.175007346293413"><ele>37.5</ele><time>2026-04-07T07:04:48.999Z</time></trkpt><trkpt lat="43.770574742658106" lon="11.175318640332438"><ele>38.0</ele><time>2026-04-07T07:04:49.999Z</time></trkpt><trkpt lat="43.770527217997184" lon="11.175632396503044"><ele>37.5</ele><time>2026-04-07T07:04:50.999Z</time></trkpt><trkpt lat="43.770482137613655" lon="11.175947012415456"><ele>37.0</ele><time>2026-04-07T07:04:51.999Z</time></trkpt><trkpt lat="43.77044130863605" lon="11.176263377993768"><ele>36.0</ele><time>2026-04-07T07:04:52.999Z</time></trkpt><trkpt lat="43.77040383036981" lon="11.176581895335248"><ele>35.0</ele><time>2026-04-07T07:04:53.999Z</time></trkpt><trkpt lat="43.77037084419703" lon="11.176903856251093"><ele>35.0</ele><time>2026-04-07T07:04:54.999Z</time></trkpt><trkpt lat="43.77034263315929" lon="11.177227955164069"><ele>35.0</ele><time>2026-04-07T07:04:55.999Z</time></trkpt><trkpt lat="43.77031719815164" lon="11.17755425682669"><ele>37.0</ele><time>2026-04-07T07:04:56.999Z</time></trkpt><trkpt lat="43.77029413358423" lon="11.177882757031727"><ele>39.0</ele><time>2026-04-07T07:04:57.999Z</time></trkpt><trkpt lat="43.770272909768366" lon="11.178214994431878"><ele>39.0</ele><time>2026-04-07T07:04:58.999Z</time></trkpt><trkpt lat="43.7702540337543" lon="11.178546975537714"><ele>39.0</ele><time>2026-04-07T07:04:59.999Z</time></trkpt><trkpt lat="43.77023675082928" lon="11.178878027983812"><ele>37.0</ele><time>2026-04-07T07:05:00.999Z</time></trkpt><trkpt lat="43.77022122133368" lon="11.179210985259369"><ele>35.0</ele><time>2026-04-07T07:05:01.999Z</time></trkpt><trkpt lat="43.77020937196445" lon="11.17954126212461"><ele>35.0</ele><time>2026-04-07T07:05:02.999Z</time></trkpt><trkpt lat="43.77019778041961" lon="11.179872360205794"><ele>35.0</ele><time>2026-04-07T07:05:03.999Z</time></trkpt><trkpt lat="43.77018687908209" lon="11.180200587325578"><ele>35.0</ele><time>2026-04-07T07:05:04.999Z</time></trkpt><trkpt lat="43.77017919555364" lon="11.180525150728306"><ele>35.0</ele><time>2026-04-07T07:05:05.999Z</time></trkpt><trkpt lat="43.77017940701664" lon="11.180843636113236"><ele>35.666666666666664</ele><time>2026-04-07T07:05:06.999Z</time></trkpt><trkpt lat="43.770185642026846" lon="11.18114388190419"><ele>36.333333333333336</ele><time>2026-04-07T07:05:07.999Z</time></trkpt><trkpt lat="43.77019490844675" lon="11.181438335572581"><ele>37.0</ele><time>2026-04-07T07:05:08.999Z</time></trkpt><trkpt lat="43.77020562346173" lon="11.18173812311813"><ele>37.333333333333336</ele><time>2026-04-07T07:05:09.999Z</time></trkpt><trkpt lat="43.770217388488625" lon="11.18202143315052"><ele>37.666666666666664</ele><time>2026-04-07T07:05:10.999Z</time></trkpt><trkpt lat="43.77022793185838" lon="11.18228540438015"><ele>38.0</ele><time>2026-04-07T07:05:11.999Z</time></trkpt><trkpt lat="43.77023700234998" lon="11.18253070022149"><ele>38.33333333333333</ele><time>2026-04-07T07:05:12.999Z</time></trkpt><trkpt lat="43.770243417625124" lon="11.182763026112756"><ele>38.666666666666664</ele><time>2026-04-07T07:05:13.999Z</time></trkpt><trkpt lat="43.77025189963765" lon="11.182984797071748"><ele>39.0</ele><time>2026-04-07T07:05:14.999Z</time></trkpt><trkpt lat="43.770276186129216" lon="11.183393260170181"><ele>39.0</ele><time>2026-04-07T07:05:17Z</time></trkpt><trkpt lat="43.77028854044707" lon="11.183581500276217"><ele>39.0</ele><time>2026-04-07T07:05:18Z</time></trkpt><trkpt lat="43.77030016470602" lon="11.18376436379349"><ele>39.0</ele><time>2026-04-07T07:05:19Z</time></trkpt><trkpt lat="43.77031206645361" lon="11.183948113886194"><ele>39.0</ele><time>2026-04-07T07:05:20Z</time></trkpt><trkpt lat="43.77032478084651" lon="11.184131612473669"><ele>39.0</ele><time>2026-04-07T07:05:21Z</time></trkpt><trkpt lat="43.77034025173502" lon="11.184308683249723"><ele>39.0</ele><time>2026-04-07T07:05:22Z</time></trkpt><trkpt lat="43.77037379471013" lon="11.184470030991825"><ele>39.0</ele><time>2026-04-07T07:05:23Z</time></trkpt><trkpt lat="43.77037249112667" lon="11.18463471484299"><ele>39.0</ele><time>2026-04-07T07:05:24Z</time></trkpt><trkpt lat="43.77038806694917" lon="11.184794120588188"><ele>38.75</ele><time>2026-04-07T07:05:25Z</time></trkpt><trkpt lat="43.77040526168858" lon="11.18496523644234"><ele>38.5</ele><time>2026-04-07T07:05:26Z</time></trkpt><trkpt lat="43.77042878909075" lon="11.185148894805483"><ele>38.25</ele><time>2026-04-07T07:05:27Z</time></trkpt><trkpt lat="43.770456757744725" lon="11.185337003059434"><ele>38.0</ele><time>2026-04-07T07:05:28Z</time></trkpt><trkpt lat="43.77048354443333" lon="11.185519034489278"><ele>38.25</ele><time>2026-04-07T07:05:29Z</time></trkpt><trkpt lat="43.770505660253505" lon="11.185686184678291"><ele>38.5</ele><time>2026-04-07T07:05:30Z</time></trkpt><trkpt lat="43.77052718824941" lon="11.18584272261714"><ele>38.75</ele><time>2026-04-07T07:05:31Z</time></trkpt><trkpt lat="43.770546837708046" lon="11.185992782574763"><ele>39.0</ele><time>2026-04-07T07:05:32Z</time></trkpt><trkpt lat="43.770568223722215" lon="11.186153583942268"><ele>39.0</ele><time>2026-04-07T07:05:33Z</time></trkpt><trkpt lat="43.77059213329744" lon="11.186308752924804"><ele>39.0</ele><time>2026-04-07T07:05:34Z</time></trkpt><trkpt lat="43.770616500321" lon="11.186459532875029"><ele>39.0</ele><time>2026-04-07T07:05:35Z</time></trkpt><trkpt lat="43.770638046661624" lon="11.18660996383153"><ele>39.0</ele><time>2026-04-07T07:05:36Z</time></trkpt><trkpt lat="43.77065012578659" lon="11.186760963551452"><ele>39.0</ele><time>2026-04-07T07:05:37Z</time></trkpt><trkpt lat="43.770637767316046" lon="11.186909144124563"><ele>39.2</ele><time>2026-04-07T07:05:38Z</time></trkpt><trkpt lat="43.770602742289796" lon="11.18705381202034"><ele>39.4</ele><time>2026-04-07T07:05:39Z</time></trkpt><trkpt lat="43.770547885356976" lon="11.187182935048627"><ele>39.6</ele><time>2026-04-07T07:05:40Z</time></trkpt><trkpt lat="43.770485060055" lon="11.187296215073776"><ele>39.8</ele><time>2026-04-07T07:05:41Z</time></trkpt><trkpt lat="43.770412168590966" lon="11.187404367475834"><ele>40.0</ele><time>2026-04-07T07:05:42Z</time></trkpt><trkpt lat="43.770333326399" lon="11.187498770518133"><ele>39.6</ele><time>2026-04-07T07:05:43Z</time></trkpt><trkpt lat="43.77025434549963" lon="11.18757168513597"><ele>39.2</ele><time>2026-04-07T07:05:44Z</time></trkpt><trkpt lat="43.770177886379045" lon="11.187626199529975"><ele>38.8</ele><time>2026-04-07T07:05:45Z</time></trkpt><trkpt lat="43.770091421923304" lon="11.187685926347385"><ele>38.4</ele><time>2026-04-07T07:05:46Z</time></trkpt><trkpt lat="43.76999673120662" lon="11.18775133014674"><ele>38.0</ele><time>2026-04-07T07:05:47Z</time></trkpt><trkpt lat="43.76988859366338" lon="11.187820494713494"><ele>37.75</ele><time>2026-04-07T07:05:48Z</time></trkpt><trkpt lat="43.76977169184915" lon="11.18789673730402"><ele>37.5</ele><time>2026-04-07T07:05:49Z</time></trkpt><trkpt lat="43.769648700025975" lon="11.187980748970178"><ele>37.25</ele><time>2026-04-07T07:05:50Z</time></trkpt><trkpt lat="43.76952018512934" lon="11.188069282781571"><ele>37.0</ele><time>2026-04-07T07:05:51Z</time></trkpt><trkpt lat="43.7693870342471" lon="11.188159001747922"><ele>37.5</ele><time>2026-04-07T07:05:52Z</time></trkpt><trkpt lat="43.76926356835966" lon="11.188237521460325"><ele>38.0</ele><time>2026-04-07T07:05:53Z</time></trkpt><trkpt lat="43.76914276532741" lon="11.188306668765678"><ele>38.5</ele><time>2026-04-07T07:05:54Z</time></trkpt><trkpt lat="43.76902783135901" lon="11.188376384972846"><ele>39.0</ele><time>2026-04-07T07:05:55Z</time></trkpt><trkpt lat="43.76892701071717" lon="11.188444488981629"><ele>39.0</ele><time>2026-04-07T07:05:56Z</time></trkpt><trkpt lat="43.768830769652546" lon="11.18849204352866"><ele>39.0</ele><time>2026-04-07T07:05:57Z</time></trkpt><trkpt lat="43.76876129360344" lon="11.188587553786567"><ele>39.0</ele><time>2026-04-07T07:05:58Z</time></trkpt><trkpt lat="43.76868995201287" lon="11.188685226065642"><ele>39.0</ele><time>2026-04-07T07:05:59Z</time></trkpt><trkpt lat="43.76862061615843" lon="11.188809194935482"><ele>39.0</ele><time>2026-04-07T07:06:00Z</time></trkpt><trkpt lat="43.76859701620612" lon="11.188957191663793"><ele>39.2</ele><time>2026-04-07T07:06:01Z</time></trkpt><trkpt lat="43.7685937478612" lon="11.189092424219721"><ele>39.4</ele><time>2026-04-07T07:06:02Z</time></trkpt><trkpt lat="43.768629085047536" lon="11.189239745068708"><ele>39.6</ele><time>2026-04-07T07:06:03Z</time></trkpt><trkpt lat="43.768696532970296" lon="11.189370045735009"><ele>39.8</ele><time>2026-04-07T07:06:04Z</time></trkpt><trkpt lat="43.76877895698524" lon="11.189472796604182"><ele>40.0</ele><time>2026-04-07T07:06:05Z</time></trkpt><trkpt lat="43.768887507766074" lon="11.189513400120047"><ele>40.0</ele><time>2026-04-07T07:06:06Z</time></trkpt><trkpt lat="43.76897359765457" lon="11.189558594270826"><ele>40.0</ele><time>2026-04-07T07:06:07Z</time></trkpt><trkpt lat="43.76909906489152" lon="11.189494584284033"><ele>40.0</ele><time>2026-04-07T07:06:08Z</time></trkpt><trkpt lat="43.769210190869366" lon="11.189410583844415"><ele>40.0</ele><time>2026-04-07T07:06:09Z</time></trkpt><trkpt lat="43.769306360195195" lon="11.18932683716478"><ele>40.0</ele><time>2026-04-07T07:06:10Z</time></trkpt><trkpt lat="43.76932673677023" lon="11.189139157338818"><ele>40.0</ele><time>2026-04-07T07:06:11Z</time></trkpt><trkpt lat="43.76938782553345" lon="11.189019107835668"><ele>40.0</ele><time>2026-04-07T07:06:12Z</time></trkpt><trkpt lat="43.7694404572337" lon="11.188875455746155"><ele>40.0</ele><time>2026-04-07T07:06:13Z</time></trkpt><trkpt lat="43.76950779553649" lon="11.188737591800086"><ele>39.25</ele><time>2026-04-07T07:06:14Z</time></trkpt><trkpt lat="43.76960076047164" lon="11.188625019014188"><ele>38.5</ele><time>2026-04-07T07:06:15Z</time></trkpt><trkpt lat="43.769713720878435" lon="11.188517693633667"><ele>37.75</ele><time>2026-04-07T07:06:16Z</time></trkpt><trkpt lat="43.769839419230635" lon="11.18842509467567"><ele>37.0</ele><time>2026-04-07T07:06:17Z</time></trkpt><trkpt lat="43.769970573791014" lon="11.18833331531172"><ele>37.0</ele><time>2026-04-07T07:06:18Z</time></trkpt><trkpt lat="43.77010585104268" lon="11.188247046133906"><ele>37.0</ele><time>2026-04-07T07:06:19Z</time></trkpt><trkpt lat="43.770236486377414" lon="11.188150739037258"><ele>37.0</ele><time>2026-04-07T07:06:20Z</time></trkpt><trkpt lat="43.77037635881273" lon="11.18807558596044"><ele>37.0</ele><time>2026-04-07T07:06:21Z</time></trkpt><trkpt lat="43.7705092369789" lon="11.188003779713222"><ele>37.333333333333336</ele><time>2026-04-07T07:06:22Z</time></trkpt><trkpt lat="43.77076363269396" lon="11.187867897615408"><ele>37.666666666666664</ele><time>2026-04-07T07:06:24Z</time></trkpt><trkpt lat="43.77088733292702" lon="11.187800954188424"><ele>38.0</ele><time>2026-04-07T07:06:25Z</time></trkpt><trkpt lat="43.77100984907791" lon="11.187735426253314"><ele>37.75</ele><time>2026-04-07T07:06:26Z</time></trkpt><trkpt lat="43.771132741779894" lon="11.187685835351497"><ele>37.5</ele><time>2026-04-07T07:06:27Z</time></trkpt><trkpt lat="43.77125740741755" lon="11.18760108481319"><ele>37.25</ele><time>2026-04-07T07:06:28Z</time></trkpt><trkpt lat="43.77137966145502" lon="11.187526191361796"><ele>37.0</ele><time>2026-04-07T07:06:29Z</time></trkpt><trkpt lat="43.77150516784411" lon="11.187456993828784"><ele>37.0</ele><time>2026-04-07T07:06:30Z</time></trkpt><trkpt lat="43.77161690985778" lon="11.18738945459368"><ele>37.0</ele><time>2026-04-07T07:06:31Z</time></trkpt><trkpt lat="43.77173134977016" lon="11.187327674603626"><ele>37.0</ele><time>2026-04-07T07:06:32Z</time></trkpt><trkpt lat="43.77184721040538" lon="11.187259846154175"><ele>37.0</ele><time>2026-04-07T07:06:33Z</time></trkpt><trkpt lat="43.77196298352483" lon="11.187185484337672"><ele>37.2</ele><time>2026-04-07T07:06:34Z</time></trkpt><trkpt lat="43.772071551580474" lon="11.187118099177951"><ele>37.400000000000006</ele><time>2026-04-07T07:06:35Z</time></trkpt><trkpt lat="43.772171482457004" lon="11.187059372818757"><ele>37.599999999999994</ele><time>2026-04-07T07:06:36Z</time></trkpt><trkpt lat="43.77226590215009" lon="11.18700616007197"><ele>37.8</ele><time>2026-04-07T07:06:37Z</time></trkpt><trkpt lat="43.7723566158687" lon="11.186951846540774"><ele>38.0</ele><time>2026-04-07T07:06:38Z</time></trkpt><trkpt lat="43.77245520989519" lon="11.186888762849827"><ele>38.0</ele><time>2026-04-07T07:06:39Z</time></trkpt><trkpt lat="43.77255748064587" lon="11.186825992821268"><ele>38.0</ele><time>2026-04-07T07:06:40Z</time></trkpt><trkpt lat="43.772669269820426" lon="11.186765072230587"><ele>38.0</ele><time>2026-04-07T07:06:41Z</time></trkpt><trkpt lat="43.77278867548526" lon="11.186714305711604"><ele>38.0</ele><time>2026-04-07T07:06:42Z</time></trkpt><trkpt lat="43.77292261616872" lon="11.186683086784058"><ele>37.75</ele><time>2026-04-07T07:06:43Z</time></trkpt><trkpt lat="43.77305656513173" lon="11.186672198421213"><ele>37.5</ele><time>2026-04-07T07:06:44Z</time></trkpt><trkpt lat="43.77318938788948" lon="11.186666977598104"><ele>37.25</ele><time>2026-04-07T07:06:45Z</time></trkpt><trkpt lat="43.773330385938614" lon="11.186669333834859"><ele>37.0</ele><time>2026-04-07T07:06:46Z</time></trkpt><trkpt lat="43.773475304855616" lon="11.186675073542878"><ele>37.0</ele><time>2026-04-07T07:06:47Z</time></trkpt><trkpt lat="43.77360362107301" lon="11.186670500108622"><ele>37.0</ele><time>2026-04-07T07:06:48Z</time></trkpt><trkpt lat="43.77374432388991" lon="11.186673183459694"><ele>37.0</ele><time>2026-04-07T07:06:49Z</time></trkpt><trkpt lat="43.77389057907183" lon="11.186680911912136"><ele>37.0</ele><time>2026-04-07T07:06:50Z</time></trkpt><trkpt lat="43.774051318823936" lon="11.186693088034898"><ele>37.0</ele><time>2026-04-07T07:06:51Z</time></trkpt><trkpt lat="43.77422284319606" lon="11.186698504368218"><ele>37.0</ele><time>2026-04-07T07:06:52Z</time></trkpt><trkpt lat="43.77440296861184" lon="11.186711607226162"><ele>37.0</ele><time>2026-04-07T07:06:53Z</time></trkpt><trkpt lat="43.77457537946613" lon="11.186729621271326"><ele>37.0</ele><time>2026-04-07T07:06:54Z</time></trkpt><trkpt lat="43.7747462510892" lon="11.186745618600131"><ele>37.0</ele><time>2026-04-07T07:06:55Z</time></trkpt><trkpt lat="43.77491966889707" lon="11.186763694257893"><ele>37.0</ele><time>2026-04-07T07:06:56Z</time></trkpt><trkpt lat="43.77510256728901" lon="11.186782956575266"><ele>37.0</ele><time>2026-04-07T07:06:57Z</time></trkpt><trkpt lat="43.775286348276545" lon="11.18680157380461"><ele>37.0</ele><time>2026-04-07T07:06:58Z</time></trkpt><trkpt lat="43.775471663356164" lon="11.186815188079972"><ele>37.0</ele><time>2026-04-07T07:06:59Z</time></trkpt><trkpt lat="43.775663522581915" lon="11.186824977467575"><ele>37.0</ele><time>2026-04-07T07:07:00Z</time></trkpt><trkpt lat="43.77584957425188" lon="11.186838322945876"><ele>37.0</ele><time>2026-04-07T07:07:01Z</time></trkpt><trkpt lat="43.7760160827443" lon="11.186853835045692"><ele>37.0</ele><time>2026-04-07T07:07:02Z</time></trkpt><trkpt lat="43.77618021335299" lon="11.18687316444428"><ele>36.333333333333336</ele><time>2026-04-07T07:07:03Z</time></trkpt><trkpt lat="43.776338676584615" lon="11.186888644147071"><ele>35.666666666666664</ele><time>2026-04-07T07:07:04Z</time></trkpt><trkpt lat="43.776503648101055" lon="11.186901590957609"><ele>35.0</ele><time>2026-04-07T07:07:05Z</time></trkpt><trkpt lat="43.77666979392335" lon="11.186900989966972"><ele>35.0</ele><time>2026-04-07T07:07:06Z</time></trkpt><trkpt lat="43.776837954656614" lon="11.186849831931928"><ele>35.0</ele><time>2026-04-07T07:07:07Z</time></trkpt><trkpt lat="43.7770210274717" lon="11.186807715234172"><ele>35.0</ele><time>2026-04-07T07:07:08Z</time></trkpt><trkpt lat="43.77720189614692" lon="11.18675392119179"><ele>35.33333333333333</ele><time>2026-04-07T07:07:09Z</time></trkpt><trkpt lat="43.77738537150502" lon="11.186700399536539"><ele>35.666666666666664</ele><time>2026-04-07T07:07:10Z</time></trkpt><trkpt lat="43.77756955670993" lon="11.186605517870357"><ele>36.0</ele><time>2026-04-07T07:07:11Z</time></trkpt><trkpt lat="43.77774427306197" lon="11.186514567502135"><ele>36.0</ele><time>2026-04-07T07:07:12Z</time></trkpt><trkpt lat="43.77790255684145" lon="11.186423422096713"><ele>36.0</ele><time>2026-04-07T07:07:13Z</time></trkpt><trkpt lat="43.778049804709305" lon="11.186332484325312"><ele>36.0</ele><time>2026-04-07T07:07:14Z</time></trkpt><trkpt lat="43.77818614062245" lon="11.18624771966524"><ele>36.0</ele><time>2026-04-07T07:07:15Z</time></trkpt><trkpt lat="43.778327942867655" lon="11.186160651570573"><ele>36.0</ele><time>2026-04-07T07:07:16Z</time></trkpt><trkpt lat="43.77847475534388" lon="11.186072879428297"><ele>36.0</ele><time>2026-04-07T07:07:17Z</time></trkpt><trkpt lat="43.778624783566684" lon="11.185987517995219"><ele>36.333333333333336</ele><time>2026-04-07T07:07:18Z</time></trkpt><trkpt lat="43.77878155769716" lon="11.18591395091985"><ele>36.66666666666667</ele><time>2026-04-07T07:07:19Z</time></trkpt><trkpt lat="43.77895284530676" lon="11.185850589893404"><ele>37.0</ele><time>2026-04-07T07:07:20Z</time></trkpt><trkpt lat="43.77912947138108" lon="11.185809413747288"><ele>37.0</ele><time>2026-04-07T07:07:21Z</time></trkpt><trkpt lat="43.77930242678802" lon="11.185786214003192"><ele>37.0</ele><time>2026-04-07T07:07:22Z</time></trkpt><trkpt lat="43.77947675219925" lon="11.185778001734924"><ele>37.0</ele><time>2026-04-07T07:07:23Z</time></trkpt><trkpt lat="43.77964797942708" lon="11.18578980470785"><ele>38.0</ele><time>2026-04-07T07:07:24Z</time></trkpt><trkpt lat="43.77982715902674" lon="11.185818157839611"><ele>39.0</ele><time>2026-04-07T07:07:25Z</time></trkpt><trkpt lat="43.77999197663288" lon="11.185843664405251"><ele>40.0</ele><time>2026-04-07T07:07:26Z</time></trkpt><trkpt lat="43.78016370220457" lon="11.18590976235998"><ele>39.333333333333336</ele><time>2026-04-07T07:07:27Z</time></trkpt><trkpt lat="43.7803252911607" lon="11.185987693086652"><ele>38.666666666666664</ele><time>2026-04-07T07:07:28Z</time></trkpt><trkpt lat="43.78047629767741" lon="11.186088017111201"><ele>38.0</ele><time>2026-04-07T07:07:29Z</time></trkpt><trkpt lat="43.780630834848374" lon="11.186196541657214"><ele>38.0</ele><time>2026-04-07T07:07:30Z</time></trkpt><trkpt lat="43.78077488449315" lon="11.18630991456773"><ele>38.0</ele><time>2026-04-07T07:07:31Z</time></trkpt><trkpt lat="43.780926195782556" lon="11.186431762728834"><ele>38.0</ele><time>2026-04-07T07:07:32Z</time></trkpt><trkpt lat="43.78105774990209" lon="11.18656695113704"><ele>38.33333333333333</ele><time>2026-04-07T07:07:33Z</time></trkpt><trkpt lat="43.781200352107895" lon="11.18668238084627"><ele>38.666666666666664</ele><time>2026-04-07T07:07:34Z</time></trkpt><trkpt lat="43.781345106774275" lon="11.18679635947065"><ele>39.0</ele><time>2026-04-07T07:07:35Z</time></trkpt><trkpt lat="43.78149127449918" lon="11.18691556060921"><ele>39.0</ele><time>2026-04-07T07:07:36Z</time></trkpt><trkpt lat="43.78164112768689" lon="11.187039157857699"><ele>39.0</ele><time>2026-04-07T07:07:37Z</time></trkpt><trkpt lat="43.78179341025799" lon="11.187160388043292"><ele>39.0</ele><time>2026-04-07T07:07:38Z</time></trkpt><trkpt lat="43.78195934322804" lon="11.1872832427885"><ele>39.333333333333336</ele><time>2026-04-07T07:07:39Z</time></trkpt><trkpt lat="43.782125946175945" lon="11.187410665831752"><ele>39.66666666666667</ele><time>2026-04-07T07:07:40Z</time></trkpt><trkpt lat="43.782286744596334" lon="11.187556544504371"><ele>40.0</ele><time>2026-04-07T07:07:41Z</time></trkpt><trkpt lat="43.78243940431051" lon="11.187703625188703"><ele>40.0</ele><time>2026-04-07T07:07:42Z</time></trkpt><trkpt lat="43.78259408516937" lon="11.187843630053763"><ele>40.0</ele><time>2026-04-07T07:07:43Z</time></trkpt><trkpt lat="43.782744220815296" lon="11.187974084408747"><ele>40.0</ele><time>2026-04-07T07:07:44Z</time></trkpt><trkpt lat="43.78288234313148" lon="11.188088655968501"><ele>40.66666666666667</ele><time>2026-04-07T07:07:45Z</time></trkpt><trkpt lat="43.78302283513354" lon="11.188205780008559"><ele>41.333333333333336</ele><time>2026-04-07T07:07:46Z</time></trkpt><trkpt lat="43.78315858325426" lon="11.188318891271878"><ele>42.0</ele><time>2026-04-07T07:07:47Z</time></trkpt><trkpt lat="43.78329652046566" lon="11.188435243128096"><ele>42.0</ele><time>2026-04-07T07:07:48Z</time></trkpt><trkpt lat="43.78342975954432" lon="11.18855089512326"><ele>42.0</ele><time>2026-04-07T07:07:49Z</time></trkpt><trkpt lat="43.783561360762896" lon="11.188665511535426"><ele>42.0</ele><time>2026-04-07T07:07:50Z</time></trkpt><trkpt lat="43.783695940668274" lon="11.188792163686562"><ele>42.0</ele><time>2026-04-07T07:07:51Z</time></trkpt><trkpt lat="43.78382777111179" lon="11.188923815403468"><ele>42.0</ele><time>2026-04-07T07:07:52Z</time></trkpt><trkpt lat="43.78395068977261" lon="11.18906326021273"><ele>42.0</ele><time>2026-04-07T07:07:53Z</time></trkpt><trkpt lat="43.78406930792341" lon="11.189219177354742"><ele>41.666666666666664</ele><time>2026-04-07T07:07:54Z</time></trkpt><trkpt lat="43.78417539316259" lon="11.189387546238903"><ele>41.33333333333333</ele><time>2026-04-07T07:07:55Z</time></trkpt><trkpt lat="43.78427167710866" lon="11.189564717006412"><ele>41.0</ele><time>2026-04-07T07:07:56Z</time></trkpt><trkpt lat="43.78435782830053" lon="11.189738333118811"><ele>40.0</ele><time>2026-04-07T07:07:57Z</time></trkpt><trkpt lat="43.784435125502206" lon="11.189914981212025"><ele>39.0</ele><time>2026-04-07T07:07:58Z</time></trkpt><trkpt lat="43.784522950233146" lon="11.190111714922926"><ele>38.0</ele><time>2026-04-07T07:07:59Z</time></trkpt><trkpt lat="43.784601198830565" lon="11.190310030912329"><ele>38.0</ele><time>2026-04-07T07:08:00Z</time></trkpt><trkpt lat="43.78467854747076" lon="11.190502480302928"><ele>38.0</ele><time>2026-04-07T07:08:01Z</time></trkpt><trkpt lat="43.78476543895594" lon="11.190718538305308"><ele>38.0</ele><time>2026-04-07T07:08:02Z</time></trkpt><trkpt lat="43.78484737853138" lon="11.190915670075453"><ele>38.33333333333333</ele><time>2026-04-07T07:08:03Z</time></trkpt><trkpt lat="43.78493751517522" lon="11.191121281219461"><ele>38.666666666666664</ele><time>2026-04-07T07:08:04Z</time></trkpt><trkpt lat="43.785024940611066" lon="11.191323944050946"><ele>39.0</ele><time>2026-04-07T07:08:05Z</time></trkpt><trkpt lat="43.785111812972545" lon="11.191530772359211"><ele>39.0</ele><time>2026-04-07T07:08:05.999Z</time></trkpt><trkpt lat="43.785207595218914" lon="11.191747313641939"><ele>39.0</ele><time>2026-04-07T07:08:06.999Z</time></trkpt><trkpt lat="43.78531323716816" lon="11.191961330351825"><ele>39.0</ele><time>2026-04-07T07:08:07.999Z</time></trkpt><trkpt lat="43.78542599339756" lon="11.19216760591929"><ele>39.0</ele><time>2026-04-07T07:08:08.999Z</time></trkpt><trkpt lat="43.78553686060637" lon="11.192360607840374"><ele>39.0</ele><time>2026-04-07T07:08:09.999Z</time></trkpt><trkpt lat="43.78564861255653" lon="11.192542052023333"><ele>39.0</ele><time>2026-04-07T07:08:10.999Z</time></trkpt><trkpt lat="43.78575864560829" lon="11.192712612509956"><ele>39.0</ele><time>2026-04-07T07:08:12Z</time></trkpt><trkpt lat="43.785876656231544" lon="11.192880913871758"><ele>39.0</ele><time>2026-04-07T07:08:13Z</time></trkpt><trkpt lat="43.78599866838617" lon="11.193042597801245"><ele>39.0</ele><time>2026-04-07T07:08:14Z</time></trkpt><trkpt lat="43.7861263807706" lon="11.193200525156398"><ele>38.666666666666664</ele><time>2026-04-07T07:08:15Z</time></trkpt><trkpt lat="43.78625494726929" lon="11.193351938843254"><ele>38.33333333333333</ele><time>2026-04-07T07:08:16Z</time></trkpt><trkpt lat="43.78639294435226" lon="11.193498099960683"><ele>38.0</ele><time>2026-04-07T07:08:17Z</time></trkpt><trkpt lat="43.78652847031735" lon="11.193629596667547"><ele>38.0</ele><time>2026-04-07T07:08:18Z</time></trkpt><trkpt lat="43.786679457236836" lon="11.193758784452129"><ele>38.0</ele><time>2026-04-07T07:08:19Z</time></trkpt><trkpt lat="43.786825039093976" lon="11.193874752473493"><ele>38.0</ele><time>2026-04-07T07:08:20Z</time></trkpt><trkpt lat="43.78697411470429" lon="11.193988420138973"><ele>38.0</ele><time>2026-04-07T07:08:21Z</time></trkpt><trkpt lat="43.78713542956472" lon="11.19410654074551"><ele>38.0</ele><time>2026-04-07T07:08:22Z</time></trkpt><trkpt lat="43.78730936054825" lon="11.194232437325368"><ele>38.0</ele><time>2026-04-07T07:08:23Z</time></trkpt><trkpt lat="43.78749267772844" lon="11.194368511261246"><ele>38.0</ele><time>2026-04-07T07:08:24Z</time></trkpt><trkpt lat="43.78767226798674" lon="11.19450472588324"><ele>38.0</ele><time>2026-04-07T07:08:25Z</time></trkpt><trkpt lat="43.787838434335434" lon="11.194629147653249"><ele>38.0</ele><time>2026-04-07T07:08:26Z</time></trkpt><trkpt lat="43.788003733106265" lon="11.194752755162904"><ele>39.0</ele><time>2026-04-07T07:08:27Z</time></trkpt><trkpt lat="43.78816333267291" lon="11.194870696830142"><ele>40.0</ele><time>2026-04-07T07:08:28Z</time></trkpt><trkpt lat="43.78832091582403" lon="11.194985887275845"><ele>41.0</ele><time>2026-04-07T07:08:29Z</time></trkpt><trkpt lat="43.78848455773651" lon="11.195107443512356"><ele>41.0</ele><time>2026-04-07T07:08:30Z</time></trkpt><trkpt lat="43.78864361533982" lon="11.195226716670238"><ele>41.0</ele><time>2026-04-07T07:08:31Z</time></trkpt><trkpt lat="43.78879909265909" lon="11.195343204282121"><ele>41.0</ele><time>2026-04-07T07:08:32Z</time></trkpt><trkpt lat="43.788948101311554" lon="11.195453545081152"><ele>41.0</ele><time>2026-04-07T07:08:33Z</time></trkpt><trkpt lat="43.789087154284054" lon="11.195553357471814"><ele>41.0</ele><time>2026-04-07T07:08:34Z</time></trkpt><trkpt lat="43.78922629398679" lon="11.195651728360783"><ele>41.0</ele><time>2026-04-07T07:08:35Z</time></trkpt><trkpt lat="43.78936555172785" lon="11.195753208972427"><ele>37.75</ele><time>2026-04-07T07:08:36Z</time></trkpt><trkpt lat="43.789502811886486" lon="11.195853213266332"><ele>34.5</ele><time>2026-04-07T07:08:37Z</time></trkpt><trkpt lat="43.78963392035261" lon="11.195950967531061"><ele>31.25</ele><time>2026-04-07T07:08:38Z</time></trkpt><trkpt lat="43.789753854748504" lon="11.196040904939055"><ele>28.0</ele><time>2026-04-07T07:08:39Z</time></trkpt><trkpt lat="43.78987142941368" lon="11.196126362893635"><ele>28.0</ele><time>2026-04-07T07:08:40Z</time></trkpt><trkpt lat="43.789978633733206" lon="11.196204957512318"><ele>28.0</ele><time>2026-04-07T07:08:41Z</time></trkpt><trkpt lat="43.79008193134017" lon="11.196280256566704"><ele>28.0</ele><time>2026-04-07T07:08:42Z</time></trkpt><trkpt lat="43.79018202443118" lon="11.196353374389446"><ele>28.0</ele><time>2026-04-07T07:08:43Z</time></trkpt><trkpt lat="43.7902814977318" lon="11.196424590223238"><ele>28.599999999999998</ele><time>2026-04-07T07:08:44Z</time></trkpt><trkpt lat="43.79037701486718" lon="11.196496837149517"><ele>29.199999999999996</ele><time>2026-04-07T07:08:45Z</time></trkpt><trkpt lat="43.79046586880992" lon="11.19656278805084"><ele>29.8</ele><time>2026-04-07T07:08:46Z</time></trkpt><trkpt lat="43.79055121877758" lon="11.196626469761794"><ele>30.4</ele><time>2026-04-07T07:08:47Z</time></trkpt><trkpt lat="43.79063289772189" lon="11.196686845551346"><ele>31.0</ele><time>2026-04-07T07:08:48Z</time></trkpt><trkpt lat="43.790706653937484" lon="11.196741752887501"><ele>31.000000000000004</ele><time>2026-04-07T07:08:49Z</time></trkpt><trkpt lat="43.79077706640766" lon="11.19679242311728"><ele>31.0</ele><time>2026-04-07T07:08:50Z</time></trkpt><trkpt lat="43.79083969956812" lon="11.196839335907049"><ele>31.0</ele><time>2026-04-07T07:08:51Z</time></trkpt><trkpt lat="43.790919454204435" lon="11.196898597470625"><ele>31.0</ele><time>2026-04-07T07:08:53Z</time></trkpt><trkpt lat="43.791008788805854" lon="11.196967277387632"><ele>31.000000000000004</ele><time>2026-04-07T07:08:55Z</time></trkpt><trkpt lat="43.79106330009659" lon="11.197011734106795"><ele>31.0</ele><time>2026-04-07T07:08:56Z</time></trkpt><trkpt lat="43.791123686906424" lon="11.197066604881488"><ele>32.333333333333336</ele><time>2026-04-07T07:08:57Z</time></trkpt><trkpt lat="43.79119041567816" lon="11.197127446015374"><ele>33.66666666666667</ele><time>2026-04-07T07:08:58Z</time></trkpt><trkpt lat="43.79126279681348" lon="11.197186110548394"><ele>35.0</ele><time>2026-04-07T07:08:59Z</time></trkpt><trkpt lat="43.79132503407937" lon="11.197233586639511"><ele>36.333333333333336</ele><time>2026-04-07T07:09:00Z</time></trkpt><trkpt lat="43.79138677538408" lon="11.197278529436817"><ele>37.666666666666664</ele><time>2026-04-07T07:09:01Z</time></trkpt><trkpt lat="43.79145995810259" lon="11.197329274339088"><ele>39.0</ele><time>2026-04-07T07:09:02Z</time></trkpt><trkpt lat="43.79153454093685" lon="11.197380012597751"><ele>39.0</ele><time>2026-04-07T07:09:03Z</time></trkpt><trkpt lat="43.791600051060215" lon="11.197430588944874"><ele>39.0</ele><time>2026-04-07T07:09:04Z</time></trkpt><trkpt lat="43.791658117110124" lon="11.197476415824777"><ele>39.0</ele><time>2026-04-07T07:09:05Z</time></trkpt><trkpt lat="43.79173388590964" lon="11.19752768857689"><ele>39.0</ele><time>2026-04-07T07:09:06Z</time></trkpt><trkpt lat="43.79179826035042" lon="11.197571803202251"><ele>39.0</ele><time>2026-04-07T07:09:07Z</time></trkpt><trkpt lat="43.791855427660266" lon="11.197618321174293"><ele>39.0</ele><time>2026-04-07T07:09:08Z</time></trkpt><trkpt lat="43.791917530656384" lon="11.197665536922598"><ele>39.0</ele><time>2026-04-07T07:09:09Z</time></trkpt><trkpt lat="43.79197579329636" lon="11.1977121107504"><ele>39.6</ele><time>2026-04-07T07:09:10Z</time></trkpt><trkpt lat="43.792084966124776" lon="11.197791768924498"><ele>40.2</ele><time>2026-04-07T07:09:12Z</time></trkpt><trkpt lat="43.7921422931629" lon="11.197832944158021"><ele>40.800000000000004</ele><time>2026-04-07T07:09:13Z</time></trkpt><trkpt lat="43.79224074262472" lon="11.1979066052152"><ele>41.4</ele><time>2026-04-07T07:09:15Z</time></trkpt><trkpt lat="43.792348852605635" lon="11.197990479436582"><ele>42.0</ele><time>2026-04-07T07:09:17Z</time></trkpt><trkpt lat="43.79241632511137" lon="11.19803441943969"><ele>42.0</ele><time>2026-04-07T07:09:18Z</time></trkpt><trkpt lat="43.79248483042903" lon="11.198079189409281"><ele>42.0</ele><time>2026-04-07T07:09:19Z</time></trkpt><trkpt lat="43.79254469450283" lon="11.198117012692684"><ele>42.0</ele><time>2026-04-07T07:09:20Z</time></trkpt><trkpt lat="43.792607133243635" lon="11.198160079199116"><ele>42.0</ele><time>2026-04-07T07:09:21Z</time></trkpt><trkpt lat="43.79271334976483" lon="11.19823327108131"><ele>42.0</ele><time>2026-04-07T07:09:23Z</time></trkpt><trkpt lat="43.7928082966243" lon="11.198303873639224"><ele>42.0</ele><time>2026-04-07T07:09:25Z</time></trkpt><trkpt lat="43.792888037792444" lon="11.198360894630422"><ele>41.666666666666664</ele><time>2026-04-07T07:09:27Z</time></trkpt><trkpt lat="43.7929645088307" lon="11.198415306826796"><ele>41.333333333333336</ele><time>2026-04-07T07:09:29Z</time></trkpt><trkpt lat="43.793037337133036" lon="11.198473101002012"><ele>41.0</ele><time>2026-04-07T07:09:31Z</time></trkpt><trkpt lat="43.79311257825547" lon="11.198521054570278"><ele>40.66666666666667</ele><time>2026-04-07T07:09:33Z</time></trkpt><trkpt lat="43.79318467476544" lon="11.198570465486132"><ele>40.333333333333336</ele><time>2026-04-07T07:09:35Z</time></trkpt><trkpt lat="43.79326396367298" lon="11.198632956453707"><ele>40.0</ele><time>2026-04-07T07:09:37Z</time></trkpt><trkpt lat="43.79332591187601" lon="11.198680309255263"><ele>40.0</ele><time>2026-04-07T07:09:39Z</time></trkpt><trkpt lat="43.793389995959394" lon="11.198728102406474"><ele>40.0</ele><time>2026-04-07T07:09:41Z</time></trkpt><trkpt lat="43.793456156491395" lon="11.19878444864187"><ele>40.0</ele><time>2026-04-07T07:09:43Z</time></trkpt><trkpt lat="43.79353294325627" lon="11.198847254848758"><ele>40.0</ele><time>2026-04-07T07:09:45Z</time></trkpt><trkpt lat="43.79361962008247" lon="11.198917677508742"><ele>40.0</ele><time>2026-04-07T07:09:47Z</time></trkpt><trkpt lat="43.79369331853987" lon="11.198984632150117"><ele>40.0</ele><time>2026-04-07T07:09:49Z</time></trkpt><trkpt lat="43.79375970158978" lon="11.199052787922241"><ele>39.833333333333336</ele><time>2026-04-07T07:09:51Z</time></trkpt><trkpt lat="43.7938373140436" lon="11.19914142611166"><ele>39.66666666666667</ele><time>2026-04-07T07:09:53Z</time></trkpt><trkpt lat="43.79393278891091" lon="11.199247865113463"><ele>39.5</ele><time>2026-04-07T07:09:55Z</time></trkpt><trkpt lat="43.79398958888645" lon="11.199310481201803"><ele>39.333333333333336</ele><time>2026-04-07T07:09:56Z</time></trkpt><trkpt lat="43.79404723460746" lon="11.199379869931139"><ele>39.166666666666664</ele><time>2026-04-07T07:09:57Z</time></trkpt><trkpt lat="43.79409752291737" lon="11.199446926634671"><ele>39.0</ele><time>2026-04-07T07:09:58Z</time></trkpt><trkpt lat="43.79415177173027" lon="11.199519926470234"><ele>39.0</ele><time>2026-04-07T07:09:59Z</time></trkpt><trkpt lat="43.79420964317604" lon="11.199601632404235"><ele>39.0</ele><time>2026-04-07T07:10:00Z</time></trkpt><trkpt lat="43.79426801671131" lon="11.199689059602745"><ele>39.0</ele><time>2026-04-07T07:10:01Z</time></trkpt><trkpt lat="43.79432527795273" lon="11.19977913944583"><ele>39.0</ele><time>2026-04-07T07:10:02Z</time></trkpt><trkpt lat="43.794383786678225" lon="11.199874427275757"><ele>39.0</ele><time>2026-04-07T07:10:02.999Z</time></trkpt><trkpt lat="43.79444064651285" lon="11.19997096284025"><ele>39.0</ele><time>2026-04-07T07:10:03.999Z</time></trkpt><trkpt lat="43.7944995417138" lon="11.20007825638797"><ele>39.666666666666664</ele><time>2026-04-07T07:10:04.999Z</time></trkpt><trkpt lat="43.794548777052505" lon="11.200174252158094"><ele>40.333333333333336</ele><time>2026-04-07T07:10:05.999Z</time></trkpt><trkpt lat="43.79459243177954" lon="11.200262397712821"><ele>41.0</ele><time>2026-04-07T07:10:06.999Z</time></trkpt><trkpt lat="43.79463374496611" lon="11.200344921951265"><ele>41.66666666666667</ele><time>2026-04-07T07:10:07.999Z</time></trkpt><trkpt lat="43.79467597939804" lon="11.200424229923856"><ele>42.333333333333336</ele><time>2026-04-07T07:10:08.999Z</time></trkpt><trkpt lat="43.79472357547739" lon="11.200505144702003"><ele>43.0</ele><time>2026-04-07T07:10:09.999Z</time></trkpt><trkpt lat="43.79477086882967" lon="11.200589034909159"><ele>43.0</ele><time>2026-04-07T07:10:10.999Z</time></trkpt><trkpt lat="43.794808482073755" lon="11.20066353382622"><ele>43.0</ele><time>2026-04-07T07:10:11.999Z</time></trkpt><trkpt lat="43.794845165485455" lon="11.200736463469324"><ele>43.0</ele><time>2026-04-07T07:10:12.999Z</time></trkpt><trkpt lat="43.794912142333835" lon="11.200866164558258"><ele>43.0</ele><time>2026-04-07T07:10:14.999Z</time></trkpt><trkpt lat="43.79496984815803" lon="11.200978681876705"><ele>43.0</ele><time>2026-04-07T07:10:16.999Z</time></trkpt><trkpt lat="43.79501528381958" lon="11.20106630141139"><ele>43.0</ele><time>2026-04-07T07:10:19Z</time></trkpt><trkpt lat="43.795063496148245" lon="11.20115636262143"><ele>43.00000000000001</ele><time>2026-04-07T07:10:49Z</time></trkpt><trkpt lat="43.79510889801888" lon="11.201239980507768"><ele>43.0</ele><time>2026-04-07T07:10:51Z</time></trkpt><trkpt lat="43.795155874834954" lon="11.201321533345439"><ele>43.0</ele><time>2026-04-07T07:10:54Z</time></trkpt><trkpt lat="43.79519869911047" lon="11.201409340115331"><ele>43.0</ele><time>2026-04-07T07:11:02Z</time></trkpt><trkpt lat="43.79523701583999" lon="11.201492879949411"><ele>43.0</ele><time>2026-04-07T07:11:05Z</time></trkpt><trkpt lat="43.7952905700762" lon="11.20158173277806"><ele>43.00000000000001</ele><time>2026-04-07T07:11:07Z</time></trkpt><trkpt lat="43.79533311167672" lon="11.201649082546398"><ele>43.0</ele><time>2026-04-07T07:11:09Z</time></trkpt><trkpt lat="43.795400784442585" lon="11.201782871234782"><ele>42.5</ele><time>2026-04-07T07:11:11Z</time></trkpt><trkpt lat="43.79544675480106" lon="11.201867123586446"><ele>42.0</ele><time>2026-04-07T07:11:13Z</time></trkpt><trkpt lat="43.7954905850903" lon="11.201946332427305"><ele>41.5</ele><time>2026-04-07T07:11:17Z</time></trkpt><trkpt lat="43.79554125556498" lon="11.202054633753287"><ele>41.0</ele><time>2026-04-07T07:11:24Z</time></trkpt><trkpt lat="43.79558798251379" lon="11.202146042263779"><ele>40.5</ele><time>2026-04-07T07:11:27Z</time></trkpt><trkpt lat="43.7956289573155" lon="11.20221264589658"><ele>40.0</ele><time>2026-04-07T07:11:32Z</time></trkpt><trkpt lat="43.79566285132495" lon="11.202288836921422"><ele>40.14285714285714</ele><time>2026-04-07T07:11:36Z</time></trkpt><trkpt lat="43.7956951335135" lon="11.202365342660297"><ele>40.285714285714285</ele><time>2026-04-07T07:11:39Z</time></trkpt><trkpt lat="43.79573397985144" lon="11.202435461049738"><ele>40.42857142857143</ele><time>2026-04-07T07:11:41Z</time></trkpt><trkpt lat="43.79578024765502" lon="11.202519893201993"><ele>40.57142857142857</ele><time>2026-04-07T07:11:52Z</time></trkpt><trkpt lat="43.79582633918542" lon="11.202610945399005"><ele>40.714285714285715</ele><time>2026-04-07T07:11:55Z</time></trkpt><trkpt lat="43.79587258513425" lon="11.202696836105035"><ele>40.857142857142854</ele><time>2026-04-07T07:11:57Z</time></trkpt><trkpt lat="43.79591541856413" lon="11.202777024845654"><ele>41.0</ele><time>2026-04-07T07:11:59Z</time></trkpt><trkpt lat="43.79596581855724" lon="11.202849128529747"><ele>41.0</ele><time>2026-04-07T07:12:01Z</time></trkpt><trkpt lat="43.796030340535665" lon="11.202933278260184"><ele>41.0</ele><time>2026-04-07T07:12:04Z</time></trkpt><trkpt lat="43.796119864177626" lon="11.203036030175571"><ele>41.0</ele><time>2026-04-07T07:12:06Z</time></trkpt><trkpt lat="43.796197605811464" lon="11.203125514321027"><ele>41.0</ele><time>2026-04-07T07:12:07.999Z</time></trkpt><trkpt lat="43.79626059925408" lon="11.203179541897178"><ele>41.0</ele><time>2026-04-07T07:12:09.999Z</time></trkpt><trkpt lat="43.7963566800014" lon="11.203235847866216"><ele>41.0</ele><time>2026-04-07T07:12:12.999Z</time></trkpt><trkpt lat="43.796456302966575" lon="11.203281073118209"><ele>41.0</ele><time>2026-04-07T07:12:14.999Z</time></trkpt><trkpt lat="43.796526748469674" lon="11.203303288840882"><ele>41.0</ele><time>2026-04-07T07:12:15.999Z</time></trkpt><trkpt lat="43.79660294860452" lon="11.203334694362633"><ele>41.0</ele><time>2026-04-07T07:12:17.999Z</time></trkpt><trkpt lat="43.79666354210844" lon="11.203370839312454"><ele>41.0</ele><time>2026-04-07T07:12:19.999Z</time></trkpt><trkpt lat="43.796745478929346" lon="11.203408592572078"><ele>41.0</ele><time>2026-04-07T07:12:21.999Z</time></trkpt><trkpt lat="43.796832191643794" lon="11.203445948118162"><ele>40.666666666666664</ele><time>2026-04-07T07:12:24Z</time></trkpt><trkpt lat="43.796920644315286" lon="11.203483308236807"><ele>40.33333333333333</ele><time>2026-04-07T07:12:27Z</time></trkpt><trkpt lat="43.79698099373733" lon="11.203508276402836"><ele>40.0</ele><time>2026-04-07T07:12:29Z</time></trkpt><trkpt lat="43.797053234299916" lon="11.203536273293649"><ele>39.666666666666664</ele><time>2026-04-07T07:12:31Z</time></trkpt><trkpt lat="43.79713632340753" lon="11.203581712977693"><ele>39.333333333333336</ele><time>2026-04-07T07:12:33Z</time></trkpt><trkpt lat="43.79720364249005" lon="11.203605490625572"><ele>39.0</ele><time>2026-04-07T07:12:35Z</time></trkpt><trkpt lat="43.79726584054503" lon="11.2036288925557"><ele>39.0</ele><time>2026-04-07T07:12:38Z</time></trkpt><trkpt lat="43.797351321055935" lon="11.20366983765377"><ele>39.0</ele><time>2026-04-07T07:12:41Z</time></trkpt><trkpt lat="43.79742139322144" lon="11.203719110067945"><ele>39.0</ele><time>2026-04-07T07:12:43Z</time></trkpt><trkpt lat="43.79747522160204" lon="11.203768598221208"><ele>39.0</ele><time>2026-04-07T07:12:47Z</time></trkpt><trkpt lat="43.79753388960036" lon="11.2038201714382"><ele>39.0</ele><time>2026-04-07T07:12:49Z</time></trkpt><trkpt lat="43.79760784726998" lon="11.203877408024674"><ele>39.0</ele><time>2026-04-07T07:12:52Z</time></trkpt><trkpt lat="43.797668500863026" lon="11.203923402452231"><ele>39.0</ele><time>2026-04-07T07:12:55Z</time></trkpt><trkpt lat="43.797721760920226" lon="11.203978619891119"><ele>39.0</ele><time>2026-04-07T07:13:05Z</time></trkpt><trkpt lat="43.79779991672832" lon="11.204042539201744"><ele>39.0</ele><time>2026-04-07T07:13:08Z</time></trkpt><trkpt lat="43.79787166837721" lon="11.204107849714195"><ele>39.0</ele><time>2026-04-07T07:13:11Z</time></trkpt><trkpt lat="43.79794331203984" lon="11.204178064994382"><ele>39.0</ele><time>2026-04-07T07:13:13Z</time></trkpt><trkpt lat="43.7980142591362" lon="11.204240833182574"><ele>39.0</ele><time>2026-04-07T07:13:16Z</time></trkpt><trkpt lat="43.7980733589214" lon="11.204291036006568"><ele>39.142857142857146</ele><time>2026-04-07T07:13:24Z</time></trkpt><trkpt lat="43.79812674002912" lon="11.204363103913824"><ele>39.285714285714285</ele><time>2026-04-07T07:13:32Z</time></trkpt><trkpt lat="43.798191814244724" lon="11.204389389599669"><ele>39.42857142857143</ele><time>2026-04-07T07:13:34Z</time></trkpt><trkpt lat="43.79825332177813" lon="11.204418484950837"><ele>39.57142857142857</ele><time>2026-04-07T07:13:36Z</time></trkpt><trkpt lat="43.79831393179282" lon="11.20444220125054"><ele>39.714285714285715</ele><time>2026-04-07T07:13:39Z</time></trkpt><trkpt lat="43.79839772969282" lon="11.204445722513835"><ele>39.857142857142854</ele><time>2026-04-07T07:13:42Z</time></trkpt><trkpt lat="43.79846337989551" lon="11.204442277505201"><ele>40.0</ele><time>2026-04-07T07:13:46Z</time></trkpt><trkpt lat="43.79853280095057" lon="11.204429609769072"><ele>40.0</ele><time>2026-04-07T07:13:52Z</time></trkpt><trkpt lat="43.79859472191144" lon="11.204395494376604"><ele>40.0</ele><time>2026-04-07T07:14:04.999Z</time></trkpt><trkpt lat="43.79865854173616" lon="11.204343680157782"><ele>40.0</ele><time>2026-04-07T07:14:20.999Z</time></trkpt><trkpt lat="43.79872517923575" lon="11.204351008869589"><ele>40.0</ele><time>2026-04-07T07:14:24.999Z</time></trkpt><trkpt lat="43.798789631144025" lon="11.204318258438002"><ele>40.0</ele><time>2026-04-07T07:14:32Z</time></trkpt><trkpt lat="43.79886425176001" lon="11.204293302440131"><ele>40.0</ele><time>2026-04-07T07:15:09Z</time></trkpt><trkpt lat="43.798932749836545" lon="11.2043159793072"><ele>40.0</ele><time>2026-04-07T07:15:14Z</time></trkpt><trkpt lat="43.79902397785128" lon="11.204299086639551"><ele>40.0</ele><time>2026-04-07T07:15:17Z</time></trkpt><trkpt lat="43.79909298413692" lon="11.204290350130032"><ele>40.0</ele><time>2026-04-07T07:15:19Z</time></trkpt><trkpt lat="43.79917574135191" lon="11.20423752624077"><ele>40.0</ele><time>2026-04-07T07:15:22Z</time></trkpt><trkpt lat="43.799240699501674" lon="11.204186665677348"><ele>40.0</ele><time>2026-04-07T07:15:27Z</time></trkpt><trkpt lat="43.79930366774284" lon="11.204124611369055"><ele>40.0</ele><time>2026-04-07T07:15:38Z</time></trkpt><trkpt lat="43.79936499170188" lon="11.204102986341264"><ele>40.0</ele><time>2026-04-07T07:15:42Z</time></trkpt><trkpt lat="43.799420774851356" lon="11.204052199221007"><ele>40.0</ele><time>2026-04-07T07:15:51.999Z</time></trkpt><trkpt lat="43.79948630143672" lon="11.203982333380505"><ele>39.714285714285715</ele><time>2026-04-07T07:15:53.999Z</time></trkpt><trkpt lat="43.79954676602462" lon="11.203937623474669"><ele>39.42857142857143</ele><time>2026-04-07T07:15:54.999Z</time></trkpt><trkpt lat="43.79961632075409" lon="11.203890111457575"><ele>39.14285714285714</ele><time>2026-04-07T07:15:56.999Z</time></trkpt><trkpt lat="43.799685174456386" lon="11.203846009504502"><ele>38.85714285714286</ele><time>2026-04-07T07:15:59.999Z</time></trkpt><trkpt lat="43.79974359411081" lon="11.203807870132511"><ele>38.57142857142858</ele><time>2026-04-07T07:16:06.999Z</time></trkpt><trkpt lat="43.79980460684053" lon="11.203778835121605"><ele>38.285714285714285</ele><time>2026-04-07T07:16:14.999Z</time></trkpt><trkpt lat="43.79987377850463" lon="11.203760116133937"><ele>38.0</ele><time>2026-04-07T07:16:19.999Z</time></trkpt><trkpt lat="43.79993871969492" lon="11.203765715110164"><ele>38.0</ele><time>2026-04-07T07:16:28.999Z</time></trkpt><trkpt lat="43.80000048065956" lon="11.20380872817476"><ele>38.0</ele><time>2026-04-07T07:16:31.999Z</time></trkpt><trkpt lat="43.800062555015835" lon="11.203831490682685"><ele>38.0</ele><time>2026-04-07T07:16:37Z</time></trkpt><trkpt lat="43.80010365894963" lon="11.203932074036286"><ele>38.0</ele><time>2026-04-07T07:16:53Z</time></trkpt><trkpt lat="43.8001477955933" lon="11.204013004038838"><ele>38.0</ele><time>2026-04-07T07:17:09Z</time></trkpt><trkpt lat="43.80016138988419" lon="11.204124600276494"><ele>38.0</ele><time>2026-04-07T07:17:12Z</time></trkpt><trkpt lat="43.80020344599548" lon="11.204216305291924"><ele>38.285714285714285</ele><time>2026-04-07T07:17:19Z</time></trkpt><trkpt lat="43.800168556279125" lon="11.204294566704693"><ele>38.57142857142858</ele><time>2026-04-07T07:17:23Z</time></trkpt><trkpt lat="43.8001730383973" lon="11.204390198774007"><ele>38.85714285714286</ele><time>2026-04-07T07:17:29Z</time></trkpt><trkpt lat="43.80017105169798" lon="11.20448412671851"><ele>39.14285714285714</ele><time>2026-04-07T07:17:35Z</time></trkpt><trkpt lat="43.80017102989901" lon="11.204595809302047"><ele>39.42857142857143</ele><time>2026-04-07T07:17:40Z</time></trkpt><trkpt lat="43.800172673178736" lon="11.204692346453239"><ele>39.714285714285715</ele><time>2026-04-07T07:17:41.999Z</time></trkpt><trkpt lat="43.80017519951236" lon="11.20480484274751"><ele>40.0</ele><time>2026-04-07T07:17:43.999Z</time></trkpt><trkpt lat="43.800178815268445" lon="11.20492580362752"><ele>40.0</ele><time>2026-04-07T07:17:45.999Z</time></trkpt><trkpt lat="43.80018344213715" lon="11.20505025745422"><ele>40.0</ele><time>2026-04-07T07:17:47.999Z</time></trkpt><trkpt lat="43.80019173384048" lon="11.205164345960187"><ele>40.0</ele><time>2026-04-07T07:17:49.999Z</time></trkpt><trkpt lat="43.80020645831423" lon="11.205312632715799"><ele>40.0</ele><time>2026-04-07T07:17:53.999Z</time></trkpt><trkpt lat="43.80021928800429" lon="11.205400278537187"><ele>40.0</ele><time>2026-04-07T07:17:55.999Z</time></trkpt><trkpt lat="43.800230144708095" lon="11.205493626865787"><ele>40.0</ele><time>2026-04-07T07:17:57.999Z</time></trkpt><trkpt lat="43.80022887969997" lon="11.205592417773762"><ele>40.0</ele><time>2026-04-07T07:17:59.999Z</time></trkpt><trkpt lat="43.80021530605247" lon="11.205703760533519"><ele>40.0</ele><time>2026-04-07T07:18:01.999Z</time></trkpt><trkpt lat="43.8001966414536" lon="11.205837717022229"><ele>40.0</ele><time>2026-04-07T07:18:03.999Z</time></trkpt><trkpt lat="43.8001890928347" lon="11.205930919411026"><ele>40.0</ele><time>2026-04-07T07:18:04.999Z</time></trkpt><trkpt lat="43.80018243603705" lon="11.206021790538545"><ele>40.0</ele><time>2026-04-07T07:18:05.999Z</time></trkpt><trkpt lat="43.800170654015105" lon="11.206123196047713"><ele>40.0</ele><time>2026-04-07T07:18:06.999Z</time></trkpt><trkpt lat="43.80016081224214" lon="11.206214792249913"><ele>40.0</ele><time>2026-04-07T07:18:07.999Z</time></trkpt><trkpt lat="43.80014404061548" lon="11.206326881662628"><ele>40.0</ele><time>2026-04-07T07:18:08.999Z</time></trkpt><trkpt lat="43.80012156969681" lon="11.20644083747948"><ele>40.0</ele><time>2026-04-07T07:18:09.999Z</time></trkpt><trkpt lat="43.80009029466538" lon="11.206572931873223"><ele>40.0</ele><time>2026-04-07T07:18:10.999Z</time></trkpt><trkpt lat="43.80007502236152" lon="11.20668938457609"><ele>40.0</ele><time>2026-04-07T07:18:11.999Z</time></trkpt><trkpt lat="43.80001746626304" lon="11.20681048864732"><ele>39.66666666666667</ele><time>2026-04-07T07:18:12.999Z</time></trkpt><trkpt lat="43.79998339359666" lon="11.206931827460386"><ele>39.333333333333336</ele><time>2026-04-07T07:18:13.999Z</time></trkpt><trkpt lat="43.799954680480205" lon="11.207028549637995"><ele>39.0</ele><time>2026-04-07T07:18:14.999Z</time></trkpt><trkpt lat="43.799915158418415" lon="11.207129988607756"><ele>38.666666666666664</ele><time>2026-04-07T07:18:15.999Z</time></trkpt><trkpt lat="43.79988127581943" lon="11.20722856085313"><ele>38.33333333333333</ele><time>2026-04-07T07:18:16.999Z</time></trkpt><trkpt lat="43.799840137858546" lon="11.20734451042238"><ele>38.0</ele><time>2026-04-07T07:18:17.999Z</time></trkpt><trkpt lat="43.799799407776426" lon="11.20745825462027"><ele>38.0</ele><time>2026-04-07T07:18:18.999Z</time></trkpt><trkpt lat="43.79975432108984" lon="11.207585373672643"><ele>38.0</ele><time>2026-04-07T07:18:19.999Z</time></trkpt><trkpt lat="43.79971152930442" lon="11.207706709053076"><ele>38.0</ele><time>2026-04-07T07:18:20.999Z</time></trkpt><trkpt lat="43.79966428449731" lon="11.207840116027363"><ele>38.0</ele><time>2026-04-07T07:18:21.999Z</time></trkpt><trkpt lat="43.79961544516017" lon="11.207973766751435"><ele>38.0</ele><time>2026-04-07T07:18:22.999Z</time></trkpt><trkpt lat="43.79956974993123" lon="11.208103040898434"><ele>38.0</ele><time>2026-04-07T07:18:23.999Z</time></trkpt><trkpt lat="43.79952324077495" lon="11.208240741153947"><ele>38.0</ele><time>2026-04-07T07:18:24.999Z</time></trkpt><trkpt lat="43.7994789272104" lon="11.20837553590811"><ele>38.0</ele><time>2026-04-07T07:18:25.999Z</time></trkpt><trkpt lat="43.7994343291534" lon="11.208512954606292"><ele>38.0</ele><time>2026-04-07T07:18:26.999Z</time></trkpt><trkpt lat="43.799387993137984" lon="11.20865398786273"><ele>38.0</ele><time>2026-04-07T07:18:27.999Z</time></trkpt><trkpt lat="43.79933745682695" lon="11.208798067761528"><ele>38.0</ele><time>2026-04-07T07:18:28.999Z</time></trkpt><trkpt lat="43.7992886526287" lon="11.208944454657406"><ele>38.0</ele><time>2026-04-07T07:18:29.999Z</time></trkpt><trkpt lat="43.79923933660729" lon="11.209089228673065"><ele>38.0</ele><time>2026-04-07T07:18:30.999Z</time></trkpt><trkpt lat="43.79919671176671" lon="11.20921922498054"><ele>38.0</ele><time>2026-04-07T07:18:31.999Z</time></trkpt><trkpt lat="43.79915620433916" lon="11.209342129556184"><ele>38.0</ele><time>2026-04-07T07:18:32.999Z</time></trkpt><trkpt lat="43.79912030411976" lon="11.209461128776605"><ele>38.0</ele><time>2026-04-07T07:18:33.999Z</time></trkpt><trkpt lat="43.79909467194177" lon="11.209579806512854"><ele>38.0</ele><time>2026-04-07T07:18:34.999Z</time></trkpt><trkpt lat="43.79908832023816" lon="11.209689350231661"><ele>38.0</ele><time>2026-04-07T07:18:35.999Z</time></trkpt><trkpt lat="43.799095274449684" lon="11.209793345040103"><ele>38.0</ele><time>2026-04-07T07:18:36.999Z</time></trkpt><trkpt lat="43.79911894538445" lon="11.209886913336524"><ele>38.0</ele><time>2026-04-07T07:18:37.999Z</time></trkpt><trkpt lat="43.799160313497005" lon="11.209997966744366"><ele>38.0</ele><time>2026-04-07T07:18:38.999Z</time></trkpt><trkpt lat="43.79921824255206" lon="11.210101446931592"><ele>38.0</ele><time>2026-04-07T07:18:39.999Z</time></trkpt><trkpt lat="43.7992895795359" lon="11.210195288926942"><ele>38.0</ele><time>2026-04-07T07:18:40.999Z</time></trkpt><trkpt lat="43.799374411592616" lon="11.210281205572942"><ele>38.0</ele><time>2026-04-07T07:18:41.999Z</time></trkpt><trkpt lat="43.799471831552104" lon="11.210367237704688"><ele>38.0</ele><time>2026-04-07T07:18:42.999Z</time></trkpt><trkpt lat="43.7995700011788" lon="11.210457737868234"><ele>38.0</ele><time>2026-04-07T07:18:43.999Z</time></trkpt><trkpt lat="43.79966355356818" lon="11.210547443507739"><ele>37.75</ele><time>2026-04-07T07:18:44.999Z</time></trkpt><trkpt lat="43.79975844221264" lon="11.210641444947695"><ele>37.5</ele><time>2026-04-07T07:18:45.999Z</time></trkpt><trkpt lat="43.79985431698858" lon="11.210733574133851"><ele>37.25</ele><time>2026-04-07T07:18:46.999Z</time></trkpt><trkpt lat="43.799953469279565" lon="11.21082463725501"><ele>37.0</ele><time>2026-04-07T07:18:47.999Z</time></trkpt><trkpt lat="43.80005206157533" lon="11.210915469078623"><ele>37.0</ele><time>2026-04-07T07:18:48.999Z</time></trkpt><trkpt lat="43.80015120424526" lon="11.211008344258595"><ele>37.0</ele><time>2026-04-07T07:18:49.999Z</time></trkpt><trkpt lat="43.800247645454526" lon="11.211097844951501"><ele>37.0</ele><time>2026-04-07T07:18:50.999Z</time></trkpt><trkpt lat="43.800338230338234" lon="11.211180853044779"><ele>37.0</ele><time>2026-04-07T07:18:51.999Z</time></trkpt><trkpt lat="43.8004274971508" lon="11.211260370820458"><ele>37.2</ele><time>2026-04-07T07:18:52.999Z</time></trkpt><trkpt lat="43.800519247194224" lon="11.211345615801617"><ele>37.400000000000006</ele><time>2026-04-07T07:18:53.999Z</time></trkpt><trkpt lat="43.80059211129632" lon="11.211450993089645"><ele>37.599999999999994</ele><time>2026-04-07T07:18:54.999Z</time></trkpt><trkpt lat="43.80066408589071" lon="11.211531791073401"><ele>37.8</ele><time>2026-04-07T07:18:55.999Z</time></trkpt><trkpt lat="43.80076035976488" lon="11.21154274577515"><ele>38.0</ele><time>2026-04-07T07:18:56.999Z</time></trkpt><trkpt lat="43.800844363275075" lon="11.211581641067307"><ele>38.0</ele><time>2026-04-07T07:18:57.999Z</time></trkpt><trkpt lat="43.800921100676746" lon="11.211604895194696"><ele>38.0</ele><time>2026-04-07T07:18:58.999Z</time></trkpt><trkpt lat="43.80099879916639" lon="11.211624892176346"><ele>38.0</ele><time>2026-04-07T07:18:59.999Z</time></trkpt><trkpt lat="43.801087887459644" lon="11.211630409104298"><ele>38.0</ele><time>2026-04-07T07:19:00.999Z</time></trkpt><trkpt lat="43.80118476917908" lon="11.211605581138611"><ele>38.0</ele><time>2026-04-07T07:19:01.999Z</time></trkpt><trkpt lat="43.80127255057801" lon="11.211541433977048"><ele>38.0</ele><time>2026-04-07T07:19:02.999Z</time></trkpt><trkpt lat="43.80134295412406" lon="11.211441683012465"><ele>37.8</ele><time>2026-04-07T07:19:03.999Z</time></trkpt><trkpt lat="43.801389305939885" lon="11.211319964217978"><ele>37.599999999999994</ele><time>2026-04-07T07:19:04.999Z</time></trkpt><trkpt lat="43.80141464660137" lon="11.211182371849166"><ele>37.400000000000006</ele><time>2026-04-07T07:19:05.999Z</time></trkpt><trkpt lat="43.80140704465531" lon="11.211032821395978"><ele>37.2</ele><time>2026-04-07T07:19:06.999Z</time></trkpt><trkpt lat="43.80137654650068" lon="11.210873542733745"><ele>37.0</ele><time>2026-04-07T07:19:07.999Z</time></trkpt><trkpt lat="43.80136231767966" lon="11.210704205019274"><ele>37.75</ele><time>2026-04-07T07:19:08.999Z</time></trkpt><trkpt lat="43.80131698295589" lon="11.210545794890566"><ele>38.5</ele><time>2026-04-07T07:19:09.999Z</time></trkpt><trkpt lat="43.80127649034026" lon="11.21038484642482"><ele>39.25</ele><time>2026-04-07T07:19:10.999Z</time></trkpt><trkpt lat="43.801241334579586" lon="11.210225932027907"><ele>40.0</ele><time>2026-04-07T07:19:11.999Z</time></trkpt><trkpt lat="43.801209822740866" lon="11.2100677819157"><ele>40.0</ele><time>2026-04-07T07:19:12.999Z</time></trkpt><trkpt lat="43.80118077704371" lon="11.209910391322866"><ele>40.0</ele><time>2026-04-07T07:19:13.999Z</time></trkpt><trkpt lat="43.801158383050584" lon="11.2097523985216"><ele>40.0</ele><time>2026-04-07T07:19:14.999Z</time></trkpt><trkpt lat="43.8011279982467" lon="11.209602251251923"><ele>40.0</ele><time>2026-04-07T07:19:15.999Z</time></trkpt><trkpt lat="43.80111752162009" lon="11.209460839401448"><ele>40.0</ele><time>2026-04-07T07:19:16.999Z</time></trkpt><trkpt lat="43.801107320127315" lon="11.209333780863119"><ele>40.0</ele><time>2026-04-07T07:19:17.999Z</time></trkpt><trkpt lat="43.801098370432015" lon="11.209219194508321"><ele>40.0</ele><time>2026-04-07T07:19:18.999Z</time></trkpt><trkpt lat="43.80109033802525" lon="11.209119614534153"><ele>40.0</ele><time>2026-04-07T07:19:19.999Z</time></trkpt><trkpt lat="43.801084813604525" lon="11.20902736932976"><ele>40.0</ele><time>2026-04-07T07:19:20.999Z</time></trkpt><trkpt lat="43.80107727700051" lon="11.208884051556577"><ele>40.0</ele><time>2026-04-07T07:19:22.999Z</time></trkpt><trkpt lat="43.80107017088578" lon="11.208779150185784"><ele>40.0</ele><time>2026-04-07T07:19:25.999Z</time></trkpt><trkpt lat="43.801058147718116" lon="11.208679541050275"><ele>40.16666666666667</ele><time>2026-04-07T07:19:30.999Z</time></trkpt><trkpt lat="43.80104817116178" lon="11.20856811402059"><ele>40.333333333333336</ele><time>2026-04-07T07:19:34.999Z</time></trkpt><trkpt lat="43.80104747462032" lon="11.208469145914496"><ele>40.5</ele><time>2026-04-07T07:19:37.999Z</time></trkpt><trkpt lat="43.8010402245641" lon="11.208370263478493"><ele>40.666666666666664</ele><time>2026-04-07T07:19:45.999Z</time></trkpt><trkpt lat="43.801033660727576" lon="11.20827774508813"><ele>40.83333333333333</ele><time>2026-04-07T07:19:47.999Z</time></trkpt><trkpt lat="43.8010271321343" lon="11.208179923438628"><ele>41.0</ele><time>2026-04-07T07:19:49.999Z</time></trkpt><trkpt lat="43.80102994223156" lon="11.208040067351977"><ele>40.99999999999999</ele><time>2026-04-07T07:19:51.999Z</time></trkpt><trkpt lat="43.801031011487666" lon="11.207945746011344"><ele>41.0</ele><time>2026-04-07T07:19:52.999Z</time></trkpt><trkpt lat="43.801026701781154" lon="11.207844994372019"><ele>41.0</ele><time>2026-04-07T07:19:53.999Z</time></trkpt><trkpt lat="43.80102085949854" lon="11.207755177722667"><ele>41.0</ele><time>2026-04-07T07:19:54.999Z</time></trkpt><trkpt lat="43.80101492214011" lon="11.207654547924978"><ele>41.0</ele><time>2026-04-07T07:19:55.999Z</time></trkpt><trkpt lat="43.80100987228324" lon="11.207545255676981"><ele>40.99999999999999</ele><time>2026-04-07T07:19:56.999Z</time></trkpt><trkpt lat="43.80100523207072" lon="11.207422501723553"><ele>41.0</ele><time>2026-04-07T07:19:57.999Z</time></trkpt><trkpt lat="43.801000094213315" lon="11.207287097414492"><ele>39.75</ele><time>2026-04-07T07:19:58.999Z</time></trkpt><trkpt lat="43.80099172556225" lon="11.207136358595907"><ele>38.5</ele><time>2026-04-07T07:19:59.999Z</time></trkpt><trkpt lat="43.80098333006018" lon="11.206975742965454"><ele>37.25</ele><time>2026-04-07T07:20:00.999Z</time></trkpt><trkpt lat="43.800975307292454" lon="11.2068102780738"><ele>36.0</ele><time>2026-04-07T07:20:01.999Z</time></trkpt><trkpt lat="43.800967120188716" lon="11.206647068182312"><ele>36.0</ele><time>2026-04-07T07:20:02.999Z</time></trkpt><trkpt lat="43.800952860725204" lon="11.206527357758523"><ele>36.0</ele><time>2026-04-07T07:20:04.999Z</time></trkpt><trkpt lat="43.80094333450157" lon="11.206437141670055"><ele>36.0</ele><time>2026-04-07T07:20:05.999Z</time></trkpt><trkpt lat="43.80093827908174" lon="11.20631321701788"><ele>36.0</ele><time>2026-04-07T07:20:06.999Z</time></trkpt><trkpt lat="43.80093682462337" lon="11.206185124673048"><ele>36.0</ele><time>2026-04-07T07:20:07.999Z</time></trkpt><trkpt lat="43.80093596761977" lon="11.206045741466168"><ele>36.0</ele><time>2026-04-07T07:20:08.999Z</time></trkpt><trkpt lat="43.800941160215075" lon="11.20590470102354"><ele>36.0</ele><time>2026-04-07T07:20:09.999Z</time></trkpt><trkpt lat="43.8009443290554" lon="11.20577337328589"><ele>36.0</ele><time>2026-04-07T07:20:10.999Z</time></trkpt><trkpt lat="43.80094943911962" lon="11.205656357781411"><ele>36.0</ele><time>2026-04-07T07:20:11.999Z</time></trkpt><trkpt lat="43.800961999645374" lon="11.205529578736142"><ele>36.0</ele><time>2026-04-07T07:20:12.999Z</time></trkpt><trkpt lat="43.80097702800061" lon="11.20539694716502"><ele>36.0</ele><time>2026-04-07T07:20:13.999Z</time></trkpt><trkpt lat="43.80099028524728" lon="11.205258972413716"><ele>36.6</ele><time>2026-04-07T07:20:14.999Z</time></trkpt><trkpt lat="43.80100037686093" lon="11.205124183625365"><ele>37.2</ele><time>2026-04-07T07:20:15.999Z</time></trkpt><trkpt lat="43.80100616099253" lon="11.204986773018161"><ele>37.8</ele><time>2026-04-07T07:20:16.999Z</time></trkpt><trkpt lat="43.8010117674604" lon="11.204842784031323"><ele>38.4</ele><time>2026-04-07T07:20:17.999Z</time></trkpt><trkpt lat="43.801012797379336" lon="11.204687611670021"><ele>39.0</ele><time>2026-04-07T07:20:18.999Z</time></trkpt><trkpt lat="43.8010151371732" lon="11.204527092268373"><ele>39.0</ele><time>2026-04-07T07:20:19.999Z</time></trkpt><trkpt lat="43.801017946607935" lon="11.20439647962449"><ele>39.0</ele><time>2026-04-07T07:20:20.999Z</time></trkpt><trkpt lat="43.80101670351926" lon="11.204282246390614"><ele>39.0</ele><time>2026-04-07T07:20:21.999Z</time></trkpt><trkpt lat="43.80101661767402" lon="11.204188970445768"><ele>39.0</ele><time>2026-04-07T07:20:22.999Z</time></trkpt><trkpt lat="43.80101615587666" lon="11.20402938424755"><ele>39.0</ele><time>2026-04-07T07:20:24.999Z</time></trkpt><trkpt lat="43.801016951393706" lon="11.203941225950805"><ele>39.0</ele><time>2026-04-07T07:20:25.999Z</time></trkpt><trkpt lat="43.801016160027075" lon="11.203849598786611"><ele>38.833333333333336</ele><time>2026-04-07T07:20:26.999Z</time></trkpt><trkpt lat="43.80101502431623" lon="11.203754686473788"><ele>38.666666666666664</ele><time>2026-04-07T07:20:27.999Z</time></trkpt><trkpt lat="43.80101279762432" lon="11.203651185328045"><ele>38.5</ele><time>2026-04-07T07:20:28.999Z</time></trkpt><trkpt lat="43.80100887912357" lon="11.203540101284295"><ele>38.33333333333333</ele><time>2026-04-07T07:20:29.999Z</time></trkpt><trkpt lat="43.80100391951801" lon="11.20341915373409"><ele>38.166666666666664</ele><time>2026-04-07T07:20:30.999Z</time></trkpt><trkpt lat="43.800997637357646" lon="11.203284473970996"><ele>38.0</ele><time>2026-04-07T07:20:31.999Z</time></trkpt><trkpt lat="43.80099352754726" lon="11.203157577204632"><ele>38.0</ele><time>2026-04-07T07:20:32.999Z</time></trkpt><trkpt lat="43.800991631704285" lon="11.20304135204558"><ele>38.0</ele><time>2026-04-07T07:20:33.999Z</time></trkpt><trkpt lat="43.80099223217545" lon="11.20293219835616"><ele>38.0</ele><time>2026-04-07T07:20:34.999Z</time></trkpt><trkpt lat="43.80098886818946" lon="11.202825682947964"><ele>38.0</ele><time>2026-04-07T07:20:35.999Z</time></trkpt><trkpt lat="43.80098443438776" lon="11.202720356690797"><ele>38.0</ele><time>2026-04-07T07:20:36.999Z</time></trkpt><trkpt lat="43.80098321991646" lon="11.202614161897218"><ele>38.0</ele><time>2026-04-07T07:20:37.999Z</time></trkpt><trkpt lat="43.80097754159914" lon="11.20250499113025"><ele>38.0</ele><time>2026-04-07T07:20:38.999Z</time></trkpt><trkpt lat="43.80097061162401" lon="11.202387974452934"><ele>38.0</ele><time>2026-04-07T07:20:39.999Z</time></trkpt><trkpt lat="43.80096289057221" lon="11.202269242550937"><ele>38.0</ele><time>2026-04-07T07:20:40.999Z</time></trkpt><trkpt lat="43.80095836638557" lon="11.20214511909269"><ele>38.0</ele><time>2026-04-07T07:20:41.999Z</time></trkpt><trkpt lat="43.800951846762764" lon="11.202023229826672"><ele>38.0</ele><time>2026-04-07T07:20:42.999Z</time></trkpt><trkpt lat="43.80094571788778" lon="11.201884847135178"><ele>38.0</ele><time>2026-04-07T07:20:43.999Z</time></trkpt><trkpt lat="43.80094118763061" lon="11.201744125067306"><ele>38.0</ele><time>2026-04-07T07:20:44.999Z</time></trkpt><trkpt lat="43.80094128215672" lon="11.201596993126506"><ele>38.0</ele><time>2026-04-07T07:20:45.999Z</time></trkpt><trkpt lat="43.80095110728035" lon="11.201445095993998"><ele>38.0</ele><time>2026-04-07T07:20:46.999Z</time></trkpt><trkpt lat="43.80097431161381" lon="11.201298868462949"><ele>38.0</ele><time>2026-04-07T07:20:47.999Z</time></trkpt><trkpt lat="43.801014301765754" lon="11.201162038133631"><ele>38.0</ele><time>2026-04-07T07:20:48.999Z</time></trkpt><trkpt lat="43.801069966959275" lon="11.20104078038601"><ele>38.0</ele><time>2026-04-07T07:20:49.999Z</time></trkpt><trkpt lat="43.80113595156784" lon="11.200924413133343"><ele>38.0</ele><time>2026-04-07T07:20:50.999Z</time></trkpt><trkpt lat="43.801198067729885" lon="11.200817622417008"><ele>38.0</ele><time>2026-04-07T07:20:51.999Z</time></trkpt><trkpt lat="43.80125715138152" lon="11.200720668846005"><ele>38.0</ele><time>2026-04-07T07:20:52.999Z</time></trkpt><trkpt lat="43.8013189955171" lon="11.200616264429888"><ele>38.0</ele><time>2026-04-07T07:20:53.999Z</time></trkpt><trkpt lat="43.801380925098144" lon="11.200510644765158"><ele>38.0</ele><time>2026-04-07T07:20:54.999Z</time></trkpt><trkpt lat="43.80143947417422" lon="11.200404648749235"><ele>38.0</ele><time>2026-04-07T07:20:55.999Z</time></trkpt><trkpt lat="43.801503463618126" lon="11.200296691150326"><ele>38.0</ele><time>2026-04-07T07:20:56.999Z</time></trkpt><trkpt lat="43.80156512882207" lon="11.200186679596248"><ele>38.0</ele><time>2026-04-07T07:20:57.999Z</time></trkpt><trkpt lat="43.8016304292112" lon="11.20007635389117"><ele>38.0</ele><time>2026-04-07T07:20:58.999Z</time></trkpt><trkpt lat="43.801700125127724" lon="11.199963864190769"><ele>38.0</ele><time>2026-04-07T07:20:59.999Z</time></trkpt><trkpt lat="43.80177272428766" lon="11.199839585473477"><ele>38.0</ele><time>2026-04-07T07:21:00.999Z</time></trkpt><trkpt lat="43.80185131895933" lon="11.199711191733563"><ele>38.0</ele><time>2026-04-07T07:21:01.999Z</time></trkpt><trkpt lat="43.80193306394292" lon="11.199581033974214"><ele>38.0</ele><time>2026-04-07T07:21:02.999Z</time></trkpt><trkpt lat="43.802018680845826" lon="11.199443027425252"><ele>38.25</ele><time>2026-04-07T07:21:03.999Z</time></trkpt><trkpt lat="43.80210978096496" lon="11.199303056363002"><ele>38.5</ele><time>2026-04-07T07:21:04.999Z</time></trkpt><trkpt lat="43.802197204417034" lon="11.199162683764753"><ele>38.75</ele><time>2026-04-07T07:21:05.999Z</time></trkpt><trkpt lat="43.80228542279672" lon="11.199027125266502"><ele>39.0</ele><time>2026-04-07T07:21:06.999Z</time></trkpt><trkpt lat="43.80236634992723" lon="11.198899837065355"><ele>38.75</ele><time>2026-04-07T07:21:07.999Z</time></trkpt><trkpt lat="43.802447507573724" lon="11.19877018289796"><ele>38.5</ele><time>2026-04-07T07:21:08.999Z</time></trkpt><trkpt lat="43.80252860669121" lon="11.198642590861217"><ele>38.25</ele><time>2026-04-07T07:21:09.999Z</time></trkpt><trkpt lat="43.80261339029953" lon="11.198512409636617"><ele>38.0</ele><time>2026-04-07T07:21:10.999Z</time></trkpt><trkpt lat="43.80269834166558" lon="11.198383937175047"><ele>38.0</ele><time>2026-04-07T07:21:11.999Z</time></trkpt><trkpt lat="43.80278715168863" lon="11.198247485856927"><ele>38.0</ele><time>2026-04-07T07:21:12.999Z</time></trkpt><trkpt lat="43.80287465618582" lon="11.19811127324655"><ele>38.0</ele><time>2026-04-07T07:21:13.999Z</time></trkpt><trkpt lat="43.80296387971378" lon="11.197971245945167"><ele>38.0</ele><time>2026-04-07T07:21:14.999Z</time></trkpt><trkpt lat="43.80305273303438" lon="11.197830029029308"><ele>37.75</ele><time>2026-04-07T07:21:15.999Z</time></trkpt><trkpt lat="43.803145942320754" lon="11.197685265653877"><ele>37.5</ele><time>2026-04-07T07:21:16.999Z</time></trkpt><trkpt lat="43.80323775846663" lon="11.197544415585003"><ele>37.25</ele><time>2026-04-07T07:21:17.999Z</time></trkpt><trkpt lat="43.803326262970316" lon="11.197409430995204"><ele>37.0</ele><time>2026-04-07T07:21:18.999Z</time></trkpt><trkpt lat="43.803418058561846" lon="11.197266467676414"><ele>37.25</ele><time>2026-04-07T07:21:19.999Z</time></trkpt><trkpt lat="43.803512903311365" lon="11.197122560660482"><ele>37.5</ele><time>2026-04-07T07:21:20.999Z</time></trkpt><trkpt lat="43.803606332400406" lon="11.196980862507134"><ele>37.75</ele><time>2026-04-07T07:21:21.999Z</time></trkpt><trkpt lat="43.803699183673295" lon="11.196836978360245"><ele>38.0</ele><time>2026-04-07T07:21:22.999Z</time></trkpt><trkpt lat="43.80379901181105" lon="11.196681333891497"><ele>38.0</ele><time>2026-04-07T07:21:23.999Z</time></trkpt><trkpt lat="43.80389830711997" lon="11.196525119281935"><ele>38.0</ele><time>2026-04-07T07:21:24.999Z</time></trkpt><trkpt lat="43.80400311869873" lon="11.19636292937565"><ele>38.0</ele><time>2026-04-07T07:21:25.999Z</time></trkpt><trkpt lat="43.80411021354164" lon="11.196197558321149"><ele>38.0</ele><time>2026-04-07T07:21:26.999Z</time></trkpt><trkpt lat="43.8042201878866" lon="11.196026943493798"><ele>38.0</ele><time>2026-04-07T07:21:27.999Z</time></trkpt><trkpt lat="43.80433307928342" lon="11.19585348672182"><ele>38.0</ele><time>2026-04-07T07:21:28.999Z</time></trkpt><trkpt lat="43.80444883190109" lon="11.195672596387059"><ele>37.0</ele><time>2026-04-07T07:21:29.999Z</time></trkpt><trkpt lat="43.80456721774746" lon="11.19549115217738"><ele>36.0</ele><time>2026-04-07T07:21:30.999Z</time></trkpt><trkpt lat="43.80468510493726" lon="11.195306954513503"><ele>35.0</ele><time>2026-04-07T07:21:31.999Z</time></trkpt><trkpt lat="43.80480713557783" lon="11.195116674127767"><ele>35.0</ele><time>2026-04-07T07:21:32.999Z</time></trkpt><trkpt lat="43.804931332030996" lon="11.194926066305383"><ele>35.0</ele><time>2026-04-07T07:21:33.999Z</time></trkpt><trkpt lat="43.80505660380545" lon="11.194731954607361"><ele>35.0</ele><time>2026-04-07T07:21:34.999Z</time></trkpt><trkpt lat="43.80518499752832" lon="11.194532002806092"><ele>35.33333333333333</ele><time>2026-04-07T07:21:35.999Z</time></trkpt><trkpt lat="43.80531443685102" lon="11.194330540020657"><ele>35.666666666666664</ele><time>2026-04-07T07:21:36.999Z</time></trkpt><trkpt lat="43.80543812883844" lon="11.194138426374355"><ele>36.0</ele><time>2026-04-07T07:21:37.999Z</time></trkpt><trkpt lat="43.8055676472834" lon="11.193937444585094"><ele>36.0</ele><time>2026-04-07T07:21:38.999Z</time></trkpt><trkpt lat="43.80569683434095" lon="11.193738811485247"><ele>36.0</ele><time>2026-04-07T07:21:39.999Z</time></trkpt><trkpt lat="43.805822358394494" lon="11.193543875841941"><ele>36.0</ele><time>2026-04-07T07:21:40.999Z</time></trkpt><trkpt lat="43.80595129388651" lon="11.193344136850506"><ele>36.0</ele><time>2026-04-07T07:21:41.999Z</time></trkpt><trkpt lat="43.80608236895741" lon="11.193140066572768"><ele>36.0</ele><time>2026-04-07T07:21:42.999Z</time></trkpt><trkpt lat="43.806208232747004" lon="11.19294433522256"><ele>36.0</ele><time>2026-04-07T07:21:43.999Z</time></trkpt><trkpt lat="43.806337020210805" lon="11.192743005202072"><ele>36.0</ele><time>2026-04-07T07:21:44.999Z</time></trkpt><trkpt lat="43.80646638279227" lon="11.192545436944929"><ele>36.0</ele><time>2026-04-07T07:21:45.999Z</time></trkpt><trkpt lat="43.80659657818529" lon="11.192344533586988"><ele>36.0</ele><time>2026-04-07T07:21:46.999Z</time></trkpt><trkpt lat="43.80672412474533" lon="11.19214637067767"><ele>36.0</ele><time>2026-04-07T07:21:47.999Z</time></trkpt><trkpt lat="43.806854914223145" lon="11.191943365996181"><ele>36.0</ele><time>2026-04-07T07:21:48.999Z</time></trkpt><trkpt lat="43.806986582434675" lon="11.191742226251389"><ele>36.0</ele><time>2026-04-07T07:21:49.999Z</time></trkpt><trkpt lat="43.80711090472301" lon="11.191552937195393"><ele>36.666666666666664</ele><time>2026-04-07T07:21:50.999Z</time></trkpt><trkpt lat="43.80724066596873" lon="11.191356609347746"><ele>37.33333333333333</ele><time>2026-04-07T07:21:51.999Z</time></trkpt><trkpt lat="43.80737503668381" lon="11.191149905719248"><ele>38.0</ele><time>2026-04-07T07:21:52.999Z</time></trkpt><trkpt lat="43.807513440929974" lon="11.190935898082573"><ele>38.0</ele><time>2026-04-07T07:21:53.999Z</time></trkpt><trkpt lat="43.8076432666898" lon="11.19073479970545"><ele>38.0</ele><time>2026-04-07T07:21:54.999Z</time></trkpt><trkpt lat="43.807774819746484" lon="11.190531388859112"><ele>38.0</ele><time>2026-04-07T07:21:55.999Z</time></trkpt><trkpt lat="43.807909096443524" lon="11.190321872978421"><ele>38.0</ele><time>2026-04-07T07:21:56.999Z</time></trkpt><trkpt lat="43.808041524109825" lon="11.190116434149198"><ele>38.0</ele><time>2026-04-07T07:21:57.999Z</time></trkpt><trkpt lat="43.80817945796716" lon="11.189903243330786"><ele>38.0</ele><time>2026-04-07T07:21:58.999Z</time></trkpt><trkpt lat="43.8083213287101" lon="11.189686425000898"><ele>37.33333333333333</ele><time>2026-04-07T07:21:59.999Z</time></trkpt><trkpt lat="43.808461568219336" lon="11.18946756955851"><ele>36.666666666666664</ele><time>2026-04-07T07:22:00.999Z</time></trkpt><trkpt lat="43.80860427455663" lon="11.18924700795572"><ele>36.0</ele><time>2026-04-07T07:22:01.999Z</time></trkpt><trkpt lat="43.808747183087945" lon="11.18902564075998"><ele>36.666666666666664</ele><time>2026-04-07T07:22:02.999Z</time></trkpt><trkpt lat="43.80888780478908" lon="11.18880808691985"><ele>37.33333333333333</ele><time>2026-04-07T07:22:03.999Z</time></trkpt><trkpt lat="43.80902590122603" lon="11.188593802863167"><ele>38.0</ele><time>2026-04-07T07:22:04.999Z</time></trkpt><trkpt lat="43.809164354845706" lon="11.188384740064697"><ele>38.0</ele><time>2026-04-07T07:22:05.999Z</time></trkpt><trkpt lat="43.80930703738911" lon="11.188180636670074"><ele>38.0</ele><time>2026-04-07T07:22:06.999Z</time></trkpt><trkpt lat="43.80944786619145" lon="11.187987007115398"><ele>38.0</ele><time>2026-04-07T07:22:07.999Z</time></trkpt><trkpt lat="43.80957969875111" lon="11.187800186774531"><ele>37.666666666666664</ele><time>2026-04-07T07:22:08.999Z</time></trkpt><trkpt lat="43.80970346717778" lon="11.187620458136863"><ele>37.333333333333336</ele><time>2026-04-07T07:22:09.999Z</time></trkpt><trkpt lat="43.80982602579266" lon="11.187443965218508"><ele>37.0</ele><time>2026-04-07T07:22:10.999Z</time></trkpt><trkpt lat="43.80994910636931" lon="11.187265688575092"><ele>37.0</ele><time>2026-04-07T07:22:11.999Z</time></trkpt><trkpt lat="43.810064208957805" lon="11.187095687690425"><ele>37.0</ele><time>2026-04-07T07:22:12.999Z</time></trkpt><trkpt lat="43.81018268705903" lon="11.186917644499912"><ele>37.0</ele><time>2026-04-07T07:22:13.999Z</time></trkpt><trkpt lat="43.81030923639001" lon="11.186730429708101"><ele>36.66666666666667</ele><time>2026-04-07T07:22:14.999Z</time></trkpt><trkpt lat="43.81043341957217" lon="11.186549717416783"><ele>36.333333333333336</ele><time>2026-04-07T07:22:15.999Z</time></trkpt><trkpt lat="43.81054171117096" lon="11.186348218946089"><ele>36.0</ele><time>2026-04-07T07:22:16.999Z</time></trkpt><trkpt lat="43.810682456370465" lon="11.186207391174865"><ele>36.0</ele><time>2026-04-07T07:22:17.999Z</time></trkpt><trkpt lat="43.81080049777258" lon="11.186067687183783"><ele>36.0</ele><time>2026-04-07T07:22:18.999Z</time></trkpt><trkpt lat="43.81092314428838" lon="11.18595005662847"><ele>36.0</ele><time>2026-04-07T07:22:19.999Z</time></trkpt><trkpt lat="43.81104561775143" lon="11.185858621295697"><ele>36.0</ele><time>2026-04-07T07:22:20.999Z</time></trkpt><trkpt lat="43.81117155173013" lon="11.185787819785144"><ele>35.75</ele><time>2026-04-07T07:22:21.999Z</time></trkpt><trkpt lat="43.81130206500125" lon="11.185733046155605"><ele>35.5</ele><time>2026-04-07T07:22:22.999Z</time></trkpt><trkpt lat="43.81144505525298" lon="11.18568741286336"><ele>35.25</ele><time>2026-04-07T07:22:23.999Z</time></trkpt><trkpt lat="43.81159019868556" lon="11.185664708062173"><ele>35.0</ele><time>2026-04-07T07:22:24.999Z</time></trkpt><trkpt lat="43.81174631457846" lon="11.18566614205824"><ele>34.666666666666664</ele><time>2026-04-07T07:22:25.999Z</time></trkpt><trkpt lat="43.81190309229644" lon="11.1856872650887"><ele>34.333333333333336</ele><time>2026-04-07T07:22:26.999Z</time></trkpt><trkpt lat="43.812061565885564" lon="11.185720541352676"><ele>34.0</ele><time>2026-04-07T07:22:27.999Z</time></trkpt><trkpt lat="43.812218567903635" lon="11.185764887029698"><ele>34.0</ele><time>2026-04-07T07:22:28.999Z</time></trkpt><trkpt lat="43.81237906570445" lon="11.185818304278403"><ele>34.0</ele><time>2026-04-07T07:22:29.999Z</time></trkpt><trkpt lat="43.81254076020658" lon="11.185873967046883"><ele>34.0</ele><time>2026-04-07T07:22:30.999Z</time></trkpt><trkpt lat="43.812702930649756" lon="11.185924288072487"><ele>35.333333333333336</ele><time>2026-04-07T07:22:31.999Z</time></trkpt><trkpt lat="43.81286725233424" lon="11.185970468108472"><ele>36.666666666666664</ele><time>2026-04-07T07:22:32.999Z</time></trkpt><trkpt lat="43.813028376812056" lon="11.18602561584227"><ele>38.0</ele><time>2026-04-07T07:22:33.999Z</time></trkpt><trkpt lat="43.81318180290844" lon="11.186087404250713"><ele>38.0</ele><time>2026-04-07T07:22:34.999Z</time></trkpt><trkpt lat="43.813324159890726" lon="11.186158928014311"><ele>38.0</ele><time>2026-04-07T07:22:35.999Z</time></trkpt><trkpt lat="43.81346034561717" lon="11.186236331585896"><ele>38.0</ele><time>2026-04-07T07:22:36.999Z</time></trkpt><trkpt lat="43.81359332740849" lon="11.18632177204809"><ele>38.0</ele><time>2026-04-07T07:22:37.999Z</time></trkpt><trkpt lat="43.813716304130324" lon="11.18641185711192"><ele>38.5</ele><time>2026-04-07T07:22:38.999Z</time></trkpt><trkpt lat="43.8138248563441" lon="11.18649716591419"><ele>39.0</ele><time>2026-04-07T07:22:39.999Z</time></trkpt><trkpt lat="43.8139329102779" lon="11.186578758964453"><ele>39.5</ele><time>2026-04-07T07:22:40.999Z</time></trkpt><trkpt lat="43.814024286041565" lon="11.18665219534592"><ele>40.0</ele><time>2026-04-07T07:22:41.999Z</time></trkpt><trkpt lat="43.814114613875915" lon="11.186721058967008"><ele>40.0</ele><time>2026-04-07T07:22:42.999Z</time></trkpt><trkpt lat="43.81419671327281" lon="11.18678621108648"><ele>40.0</ele><time>2026-04-07T07:22:43.999Z</time></trkpt><trkpt lat="43.814271199574506" lon="11.186842424379616"><ele>40.0</ele><time>2026-04-07T07:22:44.999Z</time></trkpt><trkpt lat="43.814343565752715" lon="11.186895388795822"><ele>40.0</ele><time>2026-04-07T07:22:45.999Z</time></trkpt><trkpt lat="43.81441182492546" lon="11.186944520562339"><ele>40.0</ele><time>2026-04-07T07:22:46.999Z</time></trkpt><trkpt lat="43.81449346215519" lon="11.186997122156294"><ele>40.0</ele><time>2026-04-07T07:22:48.999Z</time></trkpt><trkpt lat="43.814564537872705" lon="11.187006288966055"><ele>39.333333333333336</ele><time>2026-04-07T07:23:11.999Z</time></trkpt><trkpt lat="43.814645690254345" lon="11.187050326915298"><ele>38.66666666666667</ele><time>2026-04-07T07:23:40.999Z</time></trkpt><trkpt lat="43.81472654793509" lon="11.187092882135213"><ele>38.0</ele><time>2026-04-07T07:23:42.999Z</time></trkpt><trkpt lat="43.81483428459723" lon="11.187157712072716"><ele>37.333333333333336</ele><time>2026-04-07T07:23:44.999Z</time></trkpt><trkpt lat="43.81489661122195" lon="11.187173447190741"><ele>36.666666666666664</ele><time>2026-04-07T07:23:45.999Z</time></trkpt><trkpt lat="43.8149664696894" lon="11.187183998332948"><ele>36.0</ele><time>2026-04-07T07:23:46.999Z</time></trkpt><trkpt lat="43.815044418796404" lon="11.18719056907913"><ele>36.0</ele><time>2026-04-07T07:23:47.999Z</time></trkpt><trkpt lat="43.81512577198137" lon="11.18718587022587"><ele>36.0</ele><time>2026-04-07T07:23:48.999Z</time></trkpt><trkpt lat="43.815215025233805" lon="11.187172938745887"><ele>36.0</ele><time>2026-04-07T07:23:49.999Z</time></trkpt><trkpt lat="43.815307334274756" lon="11.187149187582982"><ele>36.0</ele><time>2026-04-07T07:23:50.999Z</time></trkpt><trkpt lat="43.81540053367189" lon="11.187117462724506"><ele>36.0</ele><time>2026-04-07T07:23:51.999Z</time></trkpt><trkpt lat="43.815487140694884" lon="11.187084023743758"><ele>36.8</ele><time>2026-04-07T07:23:52.999Z</time></trkpt><trkpt lat="43.81558449311035" lon="11.187054025170147"><ele>37.6</ele><time>2026-04-07T07:23:53.999Z</time></trkpt><trkpt lat="43.815682065126495" lon="11.187021099909659"><ele>38.4</ele><time>2026-04-07T07:23:54.999Z</time></trkpt><trkpt lat="43.815784412083055" lon="11.186989532331845"><ele>39.2</ele><time>2026-04-07T07:23:55.999Z</time></trkpt><trkpt lat="43.815882495999844" lon="11.18695882938587"><ele>40.0</ele><time>2026-04-07T07:23:56.999Z</time></trkpt><trkpt lat="43.81598573026579" lon="11.186929535251751"><ele>39.5</ele><time>2026-04-07T07:23:57.999Z</time></trkpt><trkpt lat="43.816094281335566" lon="11.186902173797147"><ele>39.0</ele><time>2026-04-07T07:23:58.999Z</time></trkpt><trkpt lat="43.816206589667246" lon="11.186886439969157"><ele>38.5</ele><time>2026-04-07T07:23:59.999Z</time></trkpt><trkpt lat="43.816324311748424" lon="11.186887854096012"><ele>38.0</ele><time>2026-04-07T07:24:00.999Z</time></trkpt><trkpt lat="43.81644297616172" lon="11.186899534261354"><ele>38.0</ele><time>2026-04-07T07:24:01.999Z</time></trkpt><trkpt lat="43.816558862602044" lon="11.186928082151265"><ele>38.0</ele><time>2026-04-07T07:24:02.999Z</time></trkpt><trkpt lat="43.81667094546862" lon="11.186963810354536"><ele>38.0</ele><time>2026-04-07T07:24:03.999Z</time></trkpt><trkpt lat="43.81678236222398" lon="11.187007980254238"><ele>38.0</ele><time>2026-04-07T07:24:04.999Z</time></trkpt><trkpt lat="43.81689945297731" lon="11.187072138163638"><ele>37.8</ele><time>2026-04-07T07:24:05.999Z</time></trkpt><trkpt lat="43.81701256094564" lon="11.187145458711019"><ele>37.599999999999994</ele><time>2026-04-07T07:24:06.999Z</time></trkpt><trkpt lat="43.817106507538405" lon="11.18722065339477"><ele>37.400000000000006</ele><time>2026-04-07T07:24:07.999Z</time></trkpt><trkpt lat="43.81718835764527" lon="11.187294845420132"><ele>37.2</ele><time>2026-04-07T07:24:08.999Z</time></trkpt><trkpt lat="43.817277538760415" lon="11.187377401645593"><ele>37.0</ele><time>2026-04-07T07:24:09.999Z</time></trkpt><trkpt lat="43.81737781495855" lon="11.187469871976372"><ele>36.75</ele><time>2026-04-07T07:24:10.999Z</time></trkpt><trkpt lat="43.81748488763477" lon="11.18756070867483"><ele>36.5</ele><time>2026-04-07T07:24:11.999Z</time></trkpt><trkpt lat="43.81760324319459" lon="11.187649810712626"><ele>36.25</ele><time>2026-04-07T07:24:12.999Z</time></trkpt><trkpt lat="43.81771671062754" lon="11.187756158326845"><ele>36.0</ele><time>2026-04-07T07:24:13.999Z</time></trkpt><trkpt lat="43.817822087935475" lon="11.18784793429164"><ele>36.0</ele><time>2026-04-07T07:24:14.999Z</time></trkpt><trkpt lat="43.81792094232144" lon="11.187932306300462"><ele>36.0</ele><time>2026-04-07T07:24:15.999Z</time></trkpt><trkpt lat="43.81801949381143" lon="11.188015348452241"><ele>36.0</ele><time>2026-04-07T07:24:16.999Z</time></trkpt><trkpt lat="43.81812147473" lon="11.188101372625551"><ele>36.0</ele><time>2026-04-07T07:24:17.999Z</time></trkpt><trkpt lat="43.81820675523097" lon="11.188178108810014"><ele>36.333333333333336</ele><time>2026-04-07T07:24:18.999Z</time></trkpt><trkpt lat="43.818283462863434" lon="11.188248379130394"><ele>36.666666666666664</ele><time>2026-04-07T07:24:19.999Z</time></trkpt><trkpt lat="43.818354254139415" lon="11.188311904592656"><ele>37.0</ele><time>2026-04-07T07:24:20.999Z</time></trkpt><trkpt lat="43.81842401632355" lon="11.188371505313379"><ele>37.33333333333333</ele><time>2026-04-07T07:24:21.999Z</time></trkpt><trkpt lat="43.818500576347844" lon="11.188438253890572"><ele>37.666666666666664</ele><time>2026-04-07T07:24:22.999Z</time></trkpt><trkpt lat="43.81858333040407" lon="11.188508835598396"><ele>38.0</ele><time>2026-04-07T07:24:23.999Z</time></trkpt><trkpt lat="43.818662114572255" lon="11.188577500555613"><ele>38.0</ele><time>2026-04-07T07:24:24.999Z</time></trkpt><trkpt lat="43.818739920833345" lon="11.188644793876131"><ele>38.0</ele><time>2026-04-07T07:24:25.999Z</time></trkpt><trkpt lat="43.818820891321764" lon="11.18871579223578"><ele>38.0</ele><time>2026-04-07T07:24:26.999Z</time></trkpt><trkpt lat="43.818904950266216" lon="11.188790400146404"><ele>38.0</ele><time>2026-04-07T07:24:27.999Z</time></trkpt><trkpt lat="43.81899385177338" lon="11.188869928663024"><ele>38.0</ele><time>2026-04-07T07:24:28.999Z</time></trkpt><trkpt lat="43.819085297089245" lon="11.188950020451303"><ele>38.25</ele><time>2026-04-07T07:24:29.999Z</time></trkpt><trkpt lat="43.819181692425374" lon="11.189034446235697"><ele>38.5</ele><time>2026-04-07T07:24:30.999Z</time></trkpt><trkpt lat="43.81928486402323" lon="11.189123337078124"><ele>38.75</ele><time>2026-04-07T07:24:31.999Z</time></trkpt><trkpt lat="43.81939317690785" lon="11.189218394110375"><ele>39.0</ele><time>2026-04-07T07:24:32.999Z</time></trkpt><trkpt lat="43.81950268018773" lon="11.189316123184277"><ele>39.0</ele><time>2026-04-07T07:24:33.999Z</time></trkpt><trkpt lat="43.8196102242086" lon="11.189410909932853"><ele>39.0</ele><time>2026-04-07T07:24:34.999Z</time></trkpt><trkpt lat="43.81970591335018" lon="11.18949211014196"><ele>39.0</ele><time>2026-04-07T07:24:35.999Z</time></trkpt><trkpt lat="43.81980129844101" lon="11.189573364354327"><ele>39.0</ele><time>2026-04-07T07:24:36.999Z</time></trkpt><trkpt lat="43.8198996526454" lon="11.189657003941463"><ele>39.0</ele><time>2026-04-07T07:24:37.999Z</time></trkpt><trkpt lat="43.82000231722709" lon="11.18974685326037"><ele>39.0</ele><time>2026-04-07T07:24:38.999Z</time></trkpt><trkpt lat="43.82010841472299" lon="11.189841014801079"><ele>39.0</ele><time>2026-04-07T07:24:39.999Z</time></trkpt><trkpt lat="43.8202162905575" lon="11.189932004060646"><ele>39.0</ele><time>2026-04-07T07:24:40.999Z</time></trkpt><trkpt lat="43.82033229571304" lon="11.190030881407099"><ele>39.666666666666664</ele><time>2026-04-07T07:24:41.999Z</time></trkpt><trkpt lat="43.82056193196421" lon="11.19023546618638"><ele>40.33333333333333</ele><time>2026-04-07T07:24:43.999Z</time></trkpt><trkpt lat="43.82067578581531" lon="11.190335690952383"><ele>41.0</ele><time>2026-04-07T07:24:44.999Z</time></trkpt><trkpt lat="43.820773497421186" lon="11.19042174882433"><ele>41.0</ele><time>2026-04-07T07:24:45.999Z</time></trkpt><trkpt lat="43.820865817174045" lon="11.190503365281913"><ele>41.0</ele><time>2026-04-07T07:24:46.999Z</time></trkpt><trkpt lat="43.820949124794865" lon="11.190575394589999"><ele>41.0</ele><time>2026-04-07T07:24:47.999Z</time></trkpt><trkpt lat="43.82103646256436" lon="11.190650734476094"><ele>41.0</ele><time>2026-04-07T07:24:48.999Z</time></trkpt><trkpt lat="43.8211285393188" lon="11.19073093893859"><ele>41.0</ele><time>2026-04-07T07:24:49.999Z</time></trkpt><trkpt lat="43.821227372212974" lon="11.190813959667924"><ele>40.4</ele><time>2026-04-07T07:24:50.999Z</time></trkpt><trkpt lat="43.82132619434214" lon="11.190895357931014"><ele>39.8</ele><time>2026-04-07T07:24:51.999Z</time></trkpt><trkpt lat="43.82141859493283" lon="11.190973526487"><ele>39.199999999999996</ele><time>2026-04-07T07:24:52.999Z</time></trkpt><trkpt lat="43.821510988759066" lon="11.191050972836498"><ele>38.599999999999994</ele><time>2026-04-07T07:24:53.999Z</time></trkpt><trkpt lat="43.821605052350385" lon="11.191128391911832"><ele>38.0</ele><time>2026-04-07T07:24:54.999Z</time></trkpt><trkpt lat="43.82170435700052" lon="11.191210342279607"><ele>38.0</ele><time>2026-04-07T07:24:55.999Z</time></trkpt><trkpt lat="43.8218029518179" lon="11.19129226327337"><ele>38.0</ele><time>2026-04-07T07:24:56.999Z</time></trkpt><trkpt lat="43.82190060282673" lon="11.191375283468233"><ele>38.0</ele><time>2026-04-07T07:24:57.999Z</time></trkpt><trkpt lat="43.82198866948341" lon="11.191449457587051"><ele>38.0</ele><time>2026-04-07T07:24:58.999Z</time></trkpt><trkpt lat="43.82207716656109" lon="11.19152454474923"><ele>38.0</ele><time>2026-04-07T07:24:59.999Z</time></trkpt><trkpt lat="43.82216851503415" lon="11.191600855308149"><ele>38.75</ele><time>2026-04-07T07:25:00.999Z</time></trkpt><trkpt lat="43.82226525919444" lon="11.191681065461816"><ele>39.5</ele><time>2026-04-07T07:25:01.999Z</time></trkpt><trkpt lat="43.82236668246644" lon="11.191764697072992"><ele>40.25</ele><time>2026-04-07T07:25:02.999Z</time></trkpt><trkpt lat="43.82247453780957" lon="11.191852859991998"><ele>41.0</ele><time>2026-04-07T07:25:03.999Z</time></trkpt><trkpt lat="43.822583739024424" lon="11.191944424607444"><ele>40.0</ele><time>2026-04-07T07:25:04.999Z</time></trkpt><trkpt lat="43.82269053211298" lon="11.192035205177875"><ele>39.0</ele><time>2026-04-07T07:25:05.999Z</time></trkpt><trkpt lat="43.822792009585044" lon="11.192121965631573"><ele>38.0</ele><time>2026-04-07T07:25:06.999Z</time></trkpt><trkpt lat="43.82289379846173" lon="11.192205986711446"><ele>37.0</ele><time>2026-04-07T07:25:07.999Z</time></trkpt><trkpt lat="43.82299671337837" lon="11.192283563309058"><ele>37.5</ele><time>2026-04-07T07:25:08.999Z</time></trkpt><trkpt lat="43.823100929507056" lon="11.192349103599495"><ele>38.0</ele><time>2026-04-07T07:25:09.999Z</time></trkpt><trkpt lat="43.82321008517875" lon="11.192400992260195"><ele>38.5</ele><time>2026-04-07T07:25:10.999Z</time></trkpt><trkpt lat="43.82331666129116" lon="11.192436334257573"><ele>39.0</ele><time>2026-04-07T07:25:11.999Z</time></trkpt><trkpt lat="43.82352725272744" lon="11.192508513650907"><ele>39.0</ele><time>2026-04-07T07:25:13.999Z</time></trkpt><trkpt lat="43.82361640026715" lon="11.192544782573398"><ele>39.0</ele><time>2026-04-07T07:25:14.999Z</time></trkpt><trkpt lat="43.82369697894921" lon="11.192588830053852"><ele>39.0</ele><time>2026-04-07T07:25:15.999Z</time></trkpt><trkpt lat="43.823765238184045" lon="11.192638188199977"><ele>39.0</ele><time>2026-04-07T07:25:16.999Z</time></trkpt><trkpt lat="43.82382485949896" lon="11.192702703246356"><ele>39.0</ele><time>2026-04-07T07:25:17.999Z</time></trkpt><trkpt lat="43.8238748202889" lon="11.19277160293461"><ele>39.0</ele><time>2026-04-07T07:25:18.999Z</time></trkpt><trkpt lat="43.82393694694869" lon="11.192852540242692"><ele>39.0</ele><time>2026-04-07T07:25:19.999Z</time></trkpt><trkpt lat="43.824005653750554" lon="11.192919070457442"><ele>39.0</ele><time>2026-04-07T07:25:20.999Z</time></trkpt><trkpt lat="43.82414243176134" lon="11.192950540485919"><ele>39.0</ele><time>2026-04-07T07:25:22.999Z</time></trkpt><trkpt lat="43.82420726647206" lon="11.192917111501377"><ele>39.0</ele><time>2026-04-07T07:25:23.999Z</time></trkpt><trkpt lat="43.82426577914729" lon="11.192854647976615"><ele>39.0</ele><time>2026-04-07T07:25:24.999Z</time></trkpt><trkpt lat="43.824310679318515" lon="11.192767014150071"><ele>39.0</ele><time>2026-04-07T07:25:25.999Z</time></trkpt><trkpt lat="43.82433844524704" lon="11.192660424233589"><ele>39.0</ele><time>2026-04-07T07:25:26.999Z</time></trkpt><trkpt lat="43.82434700448468" lon="11.192534065349133"><ele>39.0</ele><time>2026-04-07T07:25:27.999Z</time></trkpt><trkpt lat="43.82434518879141" lon="11.192404596307522"><ele>39.0</ele><time>2026-04-07T07:25:28.999Z</time></trkpt><trkpt lat="43.82435531958935" lon="11.192270899222262"><ele>39.0</ele><time>2026-04-07T07:25:29.999Z</time></trkpt><trkpt lat="43.8243856240972" lon="11.192131069401619"><ele>39.0</ele><time>2026-04-07T07:25:30.999Z</time></trkpt><trkpt lat="43.8244313827407" lon="11.191996824650426"><ele>39.0</ele><time>2026-04-07T07:25:31.999Z</time></trkpt><trkpt lat="43.82449101106064" lon="11.191867184792331"><ele>39.0</ele><time>2026-04-07T07:25:32.999Z</time></trkpt><trkpt lat="43.8245637317565" lon="11.191732677942477"><ele>39.0</ele><time>2026-04-07T07:25:33.999Z</time></trkpt><trkpt lat="43.824642827913046" lon="11.191599286056316"><ele>39.0</ele><time>2026-04-07T07:25:34.999Z</time></trkpt><trkpt lat="43.82471872003717" lon="11.19147026713702"><ele>38.75</ele><time>2026-04-07T07:25:35.999Z</time></trkpt><trkpt lat="43.82479387488356" lon="11.191333180449119"><ele>38.5</ele><time>2026-04-07T07:25:36.999Z</time></trkpt><trkpt lat="43.824872180259895" lon="11.191181936730056"><ele>38.25</ele><time>2026-04-07T07:25:37.999Z</time></trkpt><trkpt lat="43.82494928455709" lon="11.191026931951807"><ele>38.0</ele><time>2026-04-07T07:25:38.999Z</time></trkpt><trkpt lat="43.825027375245575" lon="11.190866189960376"><ele>38.0</ele><time>2026-04-07T07:25:39.999Z</time></trkpt><trkpt lat="43.825103018590724" lon="11.190702511372917"><ele>38.0</ele><time>2026-04-07T07:25:40.999Z</time></trkpt><trkpt lat="43.825178312430616" lon="11.190531590317601"><ele>38.0</ele><time>2026-04-07T07:25:41.999Z</time></trkpt><trkpt lat="43.82525458053429" lon="11.190353723888348"><ele>38.0</ele><time>2026-04-07T07:25:42.999Z</time></trkpt><trkpt lat="43.825331709741704" lon="11.190168689005212"><ele>38.0</ele><time>2026-04-07T07:25:43.999Z</time></trkpt><trkpt lat="43.82541014062615" lon="11.189983053857604"><ele>38.0</ele><time>2026-04-07T07:25:44.999Z</time></trkpt><trkpt lat="43.82548911520064" lon="11.189792031555374"><ele>38.0</ele><time>2026-04-07T07:25:45.999Z</time></trkpt><trkpt lat="43.82556374128837" lon="11.189612364358094"><ele>38.0</ele><time>2026-04-07T07:25:46.999Z</time></trkpt><trkpt lat="43.825641459874866" lon="11.189428080224134"><ele>38.0</ele><time>2026-04-07T07:25:47.999Z</time></trkpt><trkpt lat="43.82572259230969" lon="11.189238955496297"><ele>38.0</ele><time>2026-04-07T07:25:48.999Z</time></trkpt><trkpt lat="43.825807256834686" lon="11.18904017473754"><ele>38.0</ele><time>2026-04-07T07:25:49.999Z</time></trkpt><trkpt lat="43.825890313888465" lon="11.18883997550368"><ele>38.0</ele><time>2026-04-07T07:25:50.999Z</time></trkpt><trkpt lat="43.82597797813766" lon="11.188632953014775"><ele>38.0</ele><time>2026-04-07T07:25:51.999Z</time></trkpt><trkpt lat="43.82606633905155" lon="11.188425185304515"><ele>38.0</ele><time>2026-04-07T07:25:52.999Z</time></trkpt><trkpt lat="43.82615244651334" lon="11.18822066192371"><ele>38.0</ele><time>2026-04-07T07:25:53.999Z</time></trkpt><trkpt lat="43.826235888019326" lon="11.188021008347283"><ele>38.0</ele><time>2026-04-07T07:25:54.999Z</time></trkpt><trkpt lat="43.826318142536394" lon="11.187825142443259"><ele>38.0</ele><time>2026-04-07T07:25:55.999Z</time></trkpt><trkpt lat="43.826394405924695" lon="11.187645835007654"><ele>38.0</ele><time>2026-04-07T07:25:56.999Z</time></trkpt><trkpt lat="43.82646798001972" lon="11.187474745344849"><ele>38.0</ele><time>2026-04-07T07:25:57.999Z</time></trkpt><trkpt lat="43.826540459137185" lon="11.187304565260622"><ele>38.0</ele><time>2026-04-07T07:25:58.999Z</time></trkpt><trkpt lat="43.82661433118808" lon="11.187128627380963"><ele>38.0</ele><time>2026-04-07T07:25:59.999Z</time></trkpt><trkpt lat="43.82668953117102" lon="11.186949107105779"><ele>38.0</ele><time>2026-04-07T07:26:00.999Z</time></trkpt><trkpt lat="43.826765996286085" lon="11.186770977551749"><ele>38.0</ele><time>2026-04-07T07:26:01.999Z</time></trkpt><trkpt lat="43.82684113125796" lon="11.186592594274472"><ele>38.0</ele><time>2026-04-07T07:26:02.999Z</time></trkpt><trkpt lat="43.82691380314296" lon="11.186422347607662"><ele>37.75</ele><time>2026-04-07T07:26:03.999Z</time></trkpt><trkpt lat="43.826988160117075" lon="11.186247624944425"><ele>37.5</ele><time>2026-04-07T07:26:04.999Z</time></trkpt><trkpt lat="43.82706186363002" lon="11.186075474831293"><ele>37.25</ele><time>2026-04-07T07:26:05.999Z</time></trkpt><trkpt lat="43.82713787050112" lon="11.185896861583881"><ele>37.0</ele><time>2026-04-07T07:26:06.999Z</time></trkpt><trkpt lat="43.827213413369215" lon="11.185717454896924"><ele>37.5</ele><time>2026-04-07T07:26:07.999Z</time></trkpt><trkpt lat="43.82728693249799" lon="11.185540135388226"><ele>38.0</ele><time>2026-04-07T07:26:08.999Z</time></trkpt><trkpt lat="43.82736275906601" lon="11.18535991884367"><ele>38.5</ele><time>2026-04-07T07:26:09.999Z</time></trkpt><trkpt lat="43.82743149066303" lon="11.18519652045085"><ele>39.0</ele><time>2026-04-07T07:26:10.999Z</time></trkpt><trkpt lat="43.827499715728" lon="11.185033319431632"><ele>39.0</ele><time>2026-04-07T07:26:11.999Z</time></trkpt><trkpt lat="43.827569592105554" lon="11.184864522005082"><ele>39.0</ele><time>2026-04-07T07:26:12.999Z</time></trkpt><trkpt lat="43.82764135649866" lon="11.184695555568924"><ele>39.0</ele><time>2026-04-07T07:26:13.999Z</time></trkpt><trkpt lat="43.827712273277506" lon="11.184523903777768"><ele>39.0</ele><time>2026-04-07T07:26:14.999Z</time></trkpt><trkpt lat="43.827786630901166" lon="11.184346130414493"><ele>38.75</ele><time>2026-04-07T07:26:15.999Z</time></trkpt><trkpt lat="43.82785988083791" lon="11.184173183701871"><ele>38.5</ele><time>2026-04-07T07:26:16.999Z</time></trkpt><trkpt lat="43.82792873858143" lon="11.184008695427599"><ele>38.25</ele><time>2026-04-07T07:26:17.999Z</time></trkpt><trkpt lat="43.82799116935733" lon="11.183862865580505"><ele>38.0</ele><time>2026-04-07T07:26:18.999Z</time></trkpt><trkpt lat="43.82805684672116" lon="11.183712334326811"><ele>38.0</ele><time>2026-04-07T07:26:19.999Z</time></trkpt><trkpt lat="43.8281193453865" lon="11.183573844664112"><ele>38.0</ele><time>2026-04-07T07:26:20.999Z</time></trkpt><trkpt lat="43.82817870161334" lon="11.183447969133573"><ele>38.0</ele><time>2026-04-07T07:26:21.999Z</time></trkpt><trkpt lat="43.82824019814046" lon="11.183331004733416"><ele>38.0</ele><time>2026-04-07T07:26:22.999Z</time></trkpt><trkpt lat="43.82829757863498" lon="11.18322830631986"><ele>38.0</ele><time>2026-04-07T07:26:23.999Z</time></trkpt><trkpt lat="43.828349820299714" lon="11.183146283175722"><ele>38.0</ele><time>2026-04-07T07:26:24.999Z</time></trkpt><trkpt lat="43.82840732783662" lon="11.183077404168463"><ele>38.0</ele><time>2026-04-07T07:26:25.999Z</time></trkpt><trkpt lat="43.82846396505863" lon="11.183023054093258"><ele>38.0</ele><time>2026-04-07T07:26:26.999Z</time></trkpt><trkpt lat="43.82852958739667" lon="11.182989063221079"><ele>38.0</ele><time>2026-04-07T07:26:27.999Z</time></trkpt><trkpt lat="43.82860060639999" lon="11.18295347427092"><ele>38.0</ele><time>2026-04-07T07:26:28.999Z</time></trkpt><trkpt lat="43.8286635414634" lon="11.18289313826539"><ele>38.0</ele><time>2026-04-07T07:26:29.999Z</time></trkpt><trkpt lat="43.82870794146903" lon="11.182817556645158"><ele>38.0</ele><time>2026-04-07T07:26:30.999Z</time></trkpt><trkpt lat="43.82873968856149" lon="11.182719428217764"><ele>38.199999999999996</ele><time>2026-04-07T07:26:31.999Z</time></trkpt><trkpt lat="43.828758087014194" lon="11.182610363079016"><ele>38.4</ele><time>2026-04-07T07:26:32.999Z</time></trkpt><trkpt lat="43.82878665161682" lon="11.182496114452679"><ele>38.599999999999994</ele><time>2026-04-07T07:26:33.999Z</time></trkpt><trkpt lat="43.82881458799593" lon="11.182368677643748"><ele>38.8</ele><time>2026-04-07T07:26:34.999Z</time></trkpt><trkpt lat="43.82891265080455" lon="11.182253877373297"><ele>39.0</ele><time>2026-04-07T07:26:35.999Z</time></trkpt><trkpt lat="43.82900376513813" lon="11.182136841555414"><ele>39.0</ele><time>2026-04-07T07:26:36.999Z</time></trkpt><trkpt lat="43.82908791391119" lon="11.182031338671598"><ele>39.0</ele><time>2026-04-07T07:26:37.999Z</time></trkpt><trkpt lat="43.82917082449042" lon="11.18192123907036"><ele>39.0</ele><time>2026-04-07T07:26:38.999Z</time></trkpt><trkpt lat="43.82925351394035" lon="11.181810710735505"><ele>39.0</ele><time>2026-04-07T07:26:39.999Z</time></trkpt><trkpt lat="43.8293400493375" lon="11.181696774100912"><ele>38.75</ele><time>2026-04-07T07:26:40.999Z</time></trkpt><trkpt lat="43.82943168825595" lon="11.181580903227733"><ele>38.5</ele><time>2026-04-07T07:26:41.999Z</time></trkpt><trkpt lat="43.829527344976704" lon="11.181462196122288"><ele>38.25</ele><time>2026-04-07T07:26:42.999Z</time></trkpt><trkpt lat="43.82962450046114" lon="11.181339775011129"><ele>38.0</ele><time>2026-04-07T07:26:43.999Z</time></trkpt><trkpt lat="43.829723023837325" lon="11.181213182104967"><ele>38.0</ele><time>2026-04-07T07:26:44.999Z</time></trkpt><trkpt lat="43.8298219235072" lon="11.181085081013372"><ele>38.0</ele><time>2026-04-07T07:26:45.999Z</time></trkpt><trkpt lat="43.82992073257316" lon="11.18095806070753"><ele>38.0</ele><time>2026-04-07T07:26:46.999Z</time></trkpt><trkpt lat="43.830016441980966" lon="11.180838520753447"><ele>38.0</ele><time>2026-04-07T07:26:47.999Z</time></trkpt><trkpt lat="43.83011053361068" lon="11.180723607689336"><ele>37.666666666666664</ele><time>2026-04-07T07:26:48.999Z</time></trkpt><trkpt lat="43.830202935587316" lon="11.180615278631501"><ele>37.333333333333336</ele><time>2026-04-07T07:26:49.999Z</time></trkpt><trkpt lat="43.830345588263405" lon="11.180411025964183"><ele>37.0</ele><time>2026-04-07T07:26:50.999Z</time></trkpt><trkpt lat="43.83044523892669" lon="11.180281968287265"><ele>37.0</ele><time>2026-04-07T07:26:51.999Z</time></trkpt><trkpt lat="43.830562260798075" lon="11.180133142158851"><ele>37.0</ele><time>2026-04-07T07:26:52.999Z</time></trkpt><trkpt lat="43.83068202240483" lon="11.179972339759482"><ele>37.0</ele><time>2026-04-07T07:26:53.999Z</time></trkpt><trkpt lat="43.83080576968296" lon="11.179814573482115"><ele>37.0</ele><time>2026-04-07T07:26:54.999Z</time></trkpt><trkpt lat="43.830929247560505" lon="11.179668817262417"><ele>37.0</ele><time>2026-04-07T07:26:55.999Z</time></trkpt><trkpt lat="43.831041140470774" lon="11.179529614824792"><ele>37.0</ele><time>2026-04-07T07:26:56.999Z</time></trkpt><trkpt lat="43.83114665503983" lon="11.1793904811555"><ele>37.333333333333336</ele><time>2026-04-07T07:26:57.999Z</time></trkpt><trkpt lat="43.83125459378188" lon="11.179242047180926"><ele>37.666666666666664</ele><time>2026-04-07T07:26:58.999Z</time></trkpt><trkpt lat="43.83136808476953" lon="11.179095533998579"><ele>38.0</ele><time>2026-04-07T07:26:59.999Z</time></trkpt><trkpt lat="43.83148328129574" lon="11.17893639582392"><ele>38.0</ele><time>2026-04-07T07:27:00.999Z</time></trkpt><trkpt lat="43.831601520153455" lon="11.178787874641873"><ele>38.0</ele><time>2026-04-07T07:27:01.999Z</time></trkpt><trkpt lat="43.83170838365626" lon="11.178652721372734"><ele>38.0</ele><time>2026-04-07T07:27:02.999Z</time></trkpt><trkpt lat="43.83181380381721" lon="11.178523854658785"><ele>38.0</ele><time>2026-04-07T07:27:03.999Z</time></trkpt><trkpt lat="43.83192221410689" lon="11.178377663240452"><ele>38.0</ele><time>2026-04-07T07:27:05Z</time></trkpt><trkpt lat="43.832036342759494" lon="11.178229030046348"><ele>38.0</ele><time>2026-04-07T07:27:06Z</time></trkpt><trkpt lat="43.83215495994238" lon="11.178086464580286"><ele>38.0</ele><time>2026-04-07T07:27:07Z</time></trkpt><trkpt lat="43.83226791621415" lon="11.177934900663173"><ele>38.0</ele><time>2026-04-07T07:27:08Z</time></trkpt><trkpt lat="43.83239004732218" lon="11.177787479901083"><ele>38.0</ele><time>2026-04-07T07:27:09Z</time></trkpt><trkpt lat="43.83250844881982" lon="11.177630845098495"><ele>38.0</ele><time>2026-04-07T07:27:10Z</time></trkpt><trkpt lat="43.832631506318535" lon="11.177464015980973"><ele>38.0</ele><time>2026-04-07T07:27:11Z</time></trkpt><trkpt lat="43.83275394186057" lon="11.177303905491655"><ele>38.0</ele><time>2026-04-07T07:27:12Z</time></trkpt><trkpt lat="43.83288742863597" lon="11.177132419950736"><ele>38.0</ele><time>2026-04-07T07:27:13Z</time></trkpt><trkpt lat="43.833022515963755" lon="11.176959856888818"><ele>38.0</ele><time>2026-04-07T07:27:14Z</time></trkpt><trkpt lat="43.83315157469046" lon="11.176797407433652"><ele>38.0</ele><time>2026-04-07T07:27:15Z</time></trkpt><trkpt lat="43.83328248506587" lon="11.176630646995855"><ele>38.0</ele><time>2026-04-07T07:27:16Z</time></trkpt><trkpt lat="43.83341953126177" lon="11.176455402346468"><ele>37.666666666666664</ele><time>2026-04-07T07:27:17Z</time></trkpt><trkpt lat="43.83355540514081" lon="11.176281938785234"><ele>37.333333333333336</ele><time>2026-04-07T07:27:18Z</time></trkpt><trkpt lat="43.83368113741526" lon="11.17612044518497"><ele>37.0</ele><time>2026-04-07T07:27:19Z</time></trkpt><trkpt lat="43.83380862597542" lon="11.175955165808777"><ele>37.0</ele><time>2026-04-07T07:27:20Z</time></trkpt><trkpt lat="43.83392962236582" lon="11.175800397915468"><ele>37.0</ele><time>2026-04-07T07:27:21Z</time></trkpt><trkpt lat="43.83405256766818" lon="11.175647198925274"><ele>37.0</ele><time>2026-04-07T07:27:22Z</time></trkpt><trkpt lat="43.834307371342184" lon="11.175334167851679"><ele>37.66666666666667</ele><time>2026-04-07T07:27:24Z</time></trkpt><trkpt lat="43.834427742379376" lon="11.175187379308152"><ele>38.333333333333336</ele><time>2026-04-07T07:27:25Z</time></trkpt><trkpt lat="43.83455296213711" lon="11.175038419624608"><ele>39.0</ele><time>2026-04-07T07:27:26Z</time></trkpt><trkpt lat="43.83467941566775" lon="11.174889305137622"><ele>39.666666666666664</ele><time>2026-04-07T07:27:27Z</time></trkpt><trkpt lat="43.834805330667784" lon="11.1747425182643"><ele>40.33333333333333</ele><time>2026-04-07T07:27:28Z</time></trkpt><trkpt lat="43.83492812837544" lon="11.174597476459779"><ele>41.0</ele><time>2026-04-07T07:27:29Z</time></trkpt><trkpt lat="43.83505236403481" lon="11.174452688697132"><ele>40.75</ele><time>2026-04-07T07:27:30Z</time></trkpt><trkpt lat="43.83517021136786" lon="11.174313363316632"><ele>40.5</ele><time>2026-04-07T07:27:31Z</time></trkpt><trkpt lat="43.83527950513389" lon="11.174187661102106"><ele>40.25</ele><time>2026-04-07T07:27:32Z</time></trkpt><trkpt lat="43.83538815299238" lon="11.174060650145062"><ele>40.0</ele><time>2026-04-07T07:27:33Z</time></trkpt><trkpt lat="43.835478797215984" lon="11.173956694264366"><ele>39.8</ele><time>2026-04-07T07:27:34Z</time></trkpt><trkpt lat="43.83556782645288" lon="11.173848634272746"><ele>39.6</ele><time>2026-04-07T07:27:35Z</time></trkpt><trkpt lat="43.835651801996335" lon="11.17374492315192"><ele>39.4</ele><time>2026-04-07T07:27:36Z</time></trkpt><trkpt lat="43.835723622217245" lon="11.173642118573008"><ele>39.2</ele><time>2026-04-07T07:27:37Z</time></trkpt><trkpt lat="43.835791406558286" lon="11.173531959998051"><ele>39.0</ele><time>2026-04-07T07:27:38Z</time></trkpt><trkpt lat="43.835854142358826" lon="11.173413780672295"><ele>39.0</ele><time>2026-04-07T07:27:39Z</time></trkpt><trkpt lat="43.83591661666005" lon="11.173296392428718"><ele>39.0</ele><time>2026-04-07T07:27:40Z</time></trkpt><trkpt lat="43.83597851525862" lon="11.173186552872297"><ele>39.0</ele><time>2026-04-07T07:27:41Z</time></trkpt><trkpt lat="43.83603290039316" lon="11.173066097594981"><ele>39.0</ele><time>2026-04-07T07:27:42Z</time></trkpt><trkpt lat="43.83610793092234" lon="11.17300515116154"><ele>39.0</ele><time>2026-04-07T07:27:43Z</time></trkpt><trkpt lat="43.836185591597385" lon="11.172941973508237"><ele>39.0</ele><time>2026-04-07T07:27:44Z</time></trkpt><trkpt lat="43.83627839488552" lon="11.172908074469186"><ele>39.0</ele><time>2026-04-07T07:27:45Z</time></trkpt><trkpt lat="43.83636209236283" lon="11.172858853777884"><ele>39.0</ele><time>2026-04-07T07:27:46Z</time></trkpt><trkpt lat="43.83646685488716" lon="11.172886318117898"><ele>39.0</ele><time>2026-04-07T07:27:47Z</time></trkpt><trkpt lat="43.83656515160077" lon="11.172913353201581"><ele>39.0</ele><time>2026-04-07T07:27:48Z</time></trkpt><trkpt lat="43.83666739342396" lon="11.172962676030387"><ele>39.0</ele><time>2026-04-07T07:27:49Z</time></trkpt><trkpt lat="43.836774542671414" lon="11.173024916068345"><ele>39.0</ele><time>2026-04-07T07:27:50Z</time></trkpt><trkpt lat="43.836886366056945" lon="11.17309883244635"><ele>39.0</ele><time>2026-04-07T07:27:51Z</time></trkpt><trkpt lat="43.83699668542294" lon="11.173183282009338"><ele>39.0</ele><time>2026-04-07T07:27:52Z</time></trkpt><trkpt lat="43.83709810252082" lon="11.173267916677313"><ele>39.5</ele><time>2026-04-07T07:27:53Z</time></trkpt><trkpt lat="43.83719425091685" lon="11.173346632733542"><ele>40.0</ele><time>2026-04-07T07:27:54Z</time></trkpt><trkpt lat="43.83729804767542" lon="11.173425131231568"><ele>40.5</ele><time>2026-04-07T07:27:55Z</time></trkpt><trkpt lat="43.83739490692752" lon="11.173500398234362"><ele>41.0</ele><time>2026-04-07T07:27:56Z</time></trkpt><trkpt lat="43.83749011870397" lon="11.173574659216253"><ele>41.0</ele><time>2026-04-07T07:27:57Z</time></trkpt><trkpt lat="43.83758991263219" lon="11.173651817663735"><ele>41.0</ele><time>2026-04-07T07:27:58Z</time></trkpt><trkpt lat="43.8376932385967" lon="11.173736937645366"><ele>41.0</ele><time>2026-04-07T07:27:59Z</time></trkpt><trkpt lat="43.83780313065108" lon="11.173828379348073"><ele>41.0</ele><time>2026-04-07T07:28:00Z</time></trkpt><trkpt lat="43.83791561672973" lon="11.173921824246053"><ele>41.25</ele><time>2026-04-07T07:28:01Z</time></trkpt><trkpt lat="43.83803067106174" lon="11.174020314836723"><ele>41.5</ele><time>2026-04-07T07:28:02Z</time></trkpt><trkpt lat="43.83814346397742" lon="11.174122873043967"><ele>41.75</ele><time>2026-04-07T07:28:03Z</time></trkpt><trkpt lat="43.838252669295684" lon="11.17422121501991"><ele>42.0</ele><time>2026-04-07T07:28:04Z</time></trkpt><trkpt lat="43.83836002031009" lon="11.17431921498813"><ele>42.25</ele><time>2026-04-07T07:28:05Z</time></trkpt><trkpt lat="43.838465632399135" lon="11.17440954534238"><ele>42.5</ele><time>2026-04-07T07:28:06Z</time></trkpt><trkpt lat="43.83856866166976" lon="11.17449583815155"><ele>42.75</ele><time>2026-04-07T07:28:07Z</time></trkpt><trkpt lat="43.83866845591599" lon="11.17457864739413"><ele>43.0</ele><time>2026-04-07T07:28:08Z</time></trkpt><trkpt lat="43.83876605222186" lon="11.174666106071056"><ele>43.2</ele><time>2026-04-07T07:28:09Z</time></trkpt><trkpt lat="43.83885027267357" lon="11.174740376875356"><ele>43.4</ele><time>2026-04-07T07:28:10Z</time></trkpt><trkpt lat="43.83892940629586" lon="11.174805068615768"><ele>43.6</ele><time>2026-04-07T07:28:11Z</time></trkpt><trkpt lat="43.83901019725287" lon="11.174884145583162"><ele>43.800000000000004</ele><time>2026-04-07T07:28:12Z</time></trkpt><trkpt lat="43.839087707681635" lon="11.174971567523524"><ele>44.0</ele><time>2026-04-07T07:28:12.999Z</time></trkpt><trkpt lat="43.83915403686116" lon="11.175059130444408"><ele>44.0</ele><time>2026-04-07T07:28:13.999Z</time></trkpt><trkpt lat="43.839210606767665" lon="11.175140709932226"><ele>44.0</ele><time>2026-04-07T07:28:14.999Z</time></trkpt><trkpt lat="43.8392619169081" lon="11.175216527277406"><ele>44.0</ele><time>2026-04-07T07:28:15.999Z</time></trkpt><trkpt lat="43.839311020952486" lon="11.175291758230593"><ele>44.0</ele><time>2026-04-07T07:28:16.999Z</time></trkpt><trkpt lat="43.8393668834718" lon="11.175357227016708"><ele>44.0</ele><time>2026-04-07T07:28:17.999Z</time></trkpt><trkpt lat="43.83942119881195" lon="11.175432478292318"><ele>44.0</ele><time>2026-04-07T07:28:18.999Z</time></trkpt><trkpt lat="43.83947523124418" lon="11.175534522608489"><ele>44.0</ele><time>2026-04-07T07:28:19.999Z</time></trkpt><trkpt lat="43.83956587830807" lon="11.175572958766958"><ele>44.0</ele><time>2026-04-07T07:28:20.999Z</time></trkpt><trkpt lat="43.83977156553899" lon="11.175619938654636"><ele>44.0</ele><time>2026-04-07T07:28:22.999Z</time></trkpt><trkpt lat="43.83986092429302" lon="11.175667292182693"><ele>44.0</ele><time>2026-04-07T07:28:23.999Z</time></trkpt><trkpt lat="43.83994919387573" lon="11.175725875459618"><ele>44.0</ele><time>2026-04-07T07:28:24.999Z</time></trkpt><trkpt lat="43.84004013594825" lon="11.175787539716529"><ele>44.0</ele><time>2026-04-07T07:28:25.999Z</time></trkpt><trkpt lat="43.840137679031194" lon="11.17585579463152"><ele>44.0</ele><time>2026-04-07T07:28:26.999Z</time></trkpt><trkpt lat="43.84022753579929" lon="11.175929100296184"><ele>44.0</ele><time>2026-04-07T07:28:27.999Z</time></trkpt><trkpt lat="43.840306951767424" lon="11.176005161851739"><ele>44.0</ele><time>2026-04-07T07:28:28.999Z</time></trkpt><trkpt lat="43.840384823092286" lon="11.176080435252143"><ele>44.0</ele><time>2026-04-07T07:28:29.999Z</time></trkpt><trkpt lat="43.840469298729374" lon="11.176161989098064"><ele>44.0</ele><time>2026-04-07T07:28:30.999Z</time></trkpt><trkpt lat="43.84056557299568" lon="11.176252169899996"><ele>44.0</ele><time>2026-04-07T07:28:31.999Z</time></trkpt><trkpt lat="43.840672697973645" lon="11.176343059404592"><ele>44.0</ele><time>2026-04-07T07:28:32.999Z</time></trkpt><trkpt lat="43.84078328771495" lon="11.176423756931479"><ele>44.0</ele><time>2026-04-07T07:28:33.999Z</time></trkpt><trkpt lat="43.84088499984876" lon="11.176513771488954"><ele>44.0</ele><time>2026-04-07T07:28:34.999Z</time></trkpt><trkpt lat="43.84097116885553" lon="11.176597539757132"><ele>44.0</ele><time>2026-04-07T07:28:35.999Z</time></trkpt><trkpt lat="43.8410512168368" lon="11.176682576769021"><ele>44.0</ele><time>2026-04-07T07:28:36.999Z</time></trkpt><trkpt lat="43.84112009663165" lon="11.176763587471696"><ele>44.0</ele><time>2026-04-07T07:28:37.999Z</time></trkpt><trkpt lat="43.841179377498676" lon="11.176856157077"><ele>44.2</ele><time>2026-04-07T07:28:38.999Z</time></trkpt><trkpt lat="43.84122860340234" lon="11.17697145270797"><ele>44.400000000000006</ele><time>2026-04-07T07:28:39.999Z</time></trkpt><trkpt lat="43.84127023662002" lon="11.177102096896244"><ele>44.6</ele><time>2026-04-07T07:28:40.999Z</time></trkpt><trkpt lat="43.84130043154876" lon="11.177248578158302"><ele>44.8</ele><time>2026-04-07T07:28:41.999Z</time></trkpt><trkpt lat="43.841314622383074" lon="11.177411027562686"><ele>45.0</ele><time>2026-04-07T07:28:42.999Z</time></trkpt><trkpt lat="43.84131600481168" lon="11.177577561644815"><ele>45.0</ele><time>2026-04-07T07:28:43.999Z</time></trkpt><trkpt lat="43.841317612207455" lon="11.177726500272025"><ele>45.0</ele><time>2026-04-07T07:28:44.999Z</time></trkpt><trkpt lat="43.84133745443525" lon="11.177862493850329"><ele>45.0</ele><time>2026-04-07T07:28:45.999Z</time></trkpt><trkpt lat="43.84137646289249" lon="11.177997392040702"><ele>45.0</ele><time>2026-04-07T07:28:46.999Z</time></trkpt><trkpt lat="43.84143323985675" lon="11.178135700098276"><ele>45.0</ele><time>2026-04-07T07:28:47.999Z</time></trkpt><trkpt lat="43.84149463513671" lon="11.178257014553163"><ele>45.75</ele><time>2026-04-07T07:28:48.999Z</time></trkpt><trkpt lat="43.84156953614725" lon="11.178358189243424"><ele>46.5</ele><time>2026-04-07T07:28:49.999Z</time></trkpt><trkpt lat="43.84175101343506" lon="11.178535143422295"><ele>47.25</ele><time>2026-04-07T07:28:51.999Z</time></trkpt><trkpt lat="43.841853705054376" lon="11.178625617147611"><ele>48.0</ele><time>2026-04-07T07:28:52.999Z</time></trkpt><trkpt lat="43.84196135010965" lon="11.17871296279513"><ele>48.0</ele><time>2026-04-07T07:28:53.999Z</time></trkpt><trkpt lat="43.842067482189506" lon="11.178795278550355"><ele>48.0</ele><time>2026-04-07T07:28:54.999Z</time></trkpt><trkpt lat="43.84218849566751" lon="11.178904578842378"><ele>48.0</ele><time>2026-04-07T07:28:55.999Z</time></trkpt><trkpt lat="43.84231426719769" lon="11.179007384186088"><ele>48.0</ele><time>2026-04-07T07:28:56.999Z</time></trkpt><trkpt lat="43.84243671539997" lon="11.179112721903529"><ele>48.0</ele><time>2026-04-07T07:28:57.999Z</time></trkpt><trkpt lat="43.842550906853155" lon="11.179209031869494"><ele>48.0</ele><time>2026-04-07T07:28:58.999Z</time></trkpt><trkpt lat="43.84264977297859" lon="11.179296782095747"><ele>48.0</ele><time>2026-04-07T07:28:59.999Z</time></trkpt><trkpt lat="43.84273972856193" lon="11.179373469377879"><ele>48.0</ele><time>2026-04-07T07:29:00.999Z</time></trkpt><trkpt lat="43.84282626385539" lon="11.179448601044276"><ele>48.25</ele><time>2026-04-07T07:29:01.999Z</time></trkpt><trkpt lat="43.84292038958247" lon="11.179532107698243"><ele>48.5</ele><time>2026-04-07T07:29:02.999Z</time></trkpt><trkpt lat="43.8430224635887" lon="11.179622349900141"><ele>48.75</ele><time>2026-04-07T07:29:03.999Z</time></trkpt><trkpt lat="43.84312633003811" lon="11.179712823064676"><ele>49.0</ele><time>2026-04-07T07:29:04.999Z</time></trkpt><trkpt lat="43.84322551441197" lon="11.179797884101838"><ele>49.0</ele><time>2026-04-07T07:29:05.999Z</time></trkpt><trkpt lat="43.84331933370536" lon="11.179878996978296"><ele>49.0</ele><time>2026-04-07T07:29:06.999Z</time></trkpt><trkpt lat="43.84340670836279" lon="11.17995578310059"><ele>49.0</ele><time>2026-04-07T07:29:07.999Z</time></trkpt><trkpt lat="43.84349583597776" lon="11.180035097993459"><ele>49.0</ele><time>2026-04-07T07:29:08.999Z</time></trkpt><trkpt lat="43.84358024098894" lon="11.180110171761463"><ele>49.0</ele><time>2026-04-07T07:29:09.999Z</time></trkpt><trkpt lat="43.84365791596892" lon="11.1801887105499"><ele>49.166666666666664</ele><time>2026-04-07T07:29:11Z</time></trkpt><trkpt lat="43.84371044050547" lon="11.180282363028509"><ele>49.33333333333333</ele><time>2026-04-07T07:29:12Z</time></trkpt><trkpt lat="43.84376398929469" lon="11.180362160188055"><ele>49.5</ele><time>2026-04-07T07:29:13Z</time></trkpt><trkpt lat="43.84379464846492" lon="11.180480018493068"><ele>49.66666666666667</ele><time>2026-04-07T07:29:14Z</time></trkpt><trkpt lat="43.843809011305666" lon="11.1806024879715"><ele>49.833333333333336</ele><time>2026-04-07T07:29:15Z</time></trkpt><trkpt lat="43.84379005167128" lon="11.180718065152568"><ele>50.0</ele><time>2026-04-07T07:29:16Z</time></trkpt><trkpt lat="43.84379480411918" lon="11.180826719825252"><ele>50.16666666666667</ele><time>2026-04-07T07:29:17Z</time></trkpt><trkpt lat="43.84380551270108" lon="11.180940593174114"><ele>50.333333333333336</ele><time>2026-04-07T07:29:18Z</time></trkpt><trkpt lat="43.843832922760306" lon="11.181038275384337"><ele>50.5</ele><time>2026-04-07T07:29:19Z</time></trkpt><trkpt lat="43.84387506418816" lon="11.181119154535232"><ele>50.66666666666667</ele><time>2026-04-07T07:29:20Z</time></trkpt><trkpt lat="43.843937789405906" lon="11.181180936280246"><ele>50.833333333333336</ele><time>2026-04-07T07:29:21Z</time></trkpt><trkpt lat="43.84406483278778" lon="11.181206255957855"><ele>51.0</ele><time>2026-04-07T07:29:23Z</time></trkpt><trkpt lat="43.84418936604204" lon="11.181124523919175"><ele>51.0</ele><time>2026-04-07T07:29:25Z</time></trkpt><trkpt lat="43.844248569342845" lon="11.181056646731438"><ele>51.0</ele><time>2026-04-07T07:29:26Z</time></trkpt><trkpt lat="43.84430679032496" lon="11.18098988533786"><ele>51.0</ele><time>2026-04-07T07:29:27Z</time></trkpt><trkpt lat="43.84435896707939" lon="11.180888898738722"><ele>51.0</ele><time>2026-04-07T07:29:29Z</time></trkpt><trkpt lat="43.84442503523203" lon="11.180824371905985"><ele>51.0</ele><time>2026-04-07T07:35:29Z</time></trkpt><trkpt lat="43.844467793503696" lon="11.180740416429812"><ele>51.0</ele><time>2026-04-07T07:35:31Z</time></trkpt><trkpt lat="43.84454445999134" lon="11.180642022842708"><ele>51.199999999999996</ele><time>2026-04-07T07:35:33Z</time></trkpt><trkpt lat="43.84465532035217" lon="11.180615567699174"><ele>51.4</ele><time>2026-04-07T07:35:35Z</time></trkpt><trkpt lat="43.8447624869914" lon="11.180616087373089"><ele>51.6</ele><time>2026-04-07T07:35:37Z</time></trkpt><trkpt lat="43.844886278827246" lon="11.180586483930206"><ele>51.8</ele><time>2026-04-07T07:35:39Z</time></trkpt><trkpt lat="43.84494961492628" lon="11.18055419083999"><ele>52.0</ele><time>2026-04-07T07:35:40Z</time></trkpt><trkpt lat="43.84500766473379" lon="11.18051262416865"><ele>52.0</ele><time>2026-04-07T07:35:41Z</time></trkpt><trkpt lat="43.84510308861278" lon="11.180349644202575"><ele>52.0</ele><time>2026-04-07T07:35:43Z</time></trkpt><trkpt lat="43.84521411489516" lon="11.180324471361843"><ele>52.0</ele><time>2026-04-07T07:35:44Z</time></trkpt><trkpt lat="43.84531955171166" lon="11.18029505861875"><ele>52.0</ele><time>2026-04-07T07:35:45Z</time></trkpt><trkpt lat="43.84541341172674" lon="11.180276853204585"><ele>52.2</ele><time>2026-04-07T07:35:46Z</time></trkpt><trkpt lat="43.84550393878693" lon="11.18026491143209"><ele>52.400000000000006</ele><time>2026-04-07T07:35:47Z</time></trkpt><trkpt lat="43.845597749416804" lon="11.180248016709207"><ele>52.599999999999994</ele><time>2026-04-07T07:35:48Z</time></trkpt><trkpt lat="43.84569522303652" lon="11.18023460052456"><ele>52.8</ele><time>2026-04-07T07:35:49Z</time></trkpt><trkpt lat="43.84579802216124" lon="11.180217746702919"><ele>53.0</ele><time>2026-04-07T07:35:50Z</time></trkpt><trkpt lat="43.84590546119563" lon="11.180203603216802"><ele>53.25</ele><time>2026-04-07T07:35:51Z</time></trkpt><trkpt lat="43.846016910715946" lon="11.180190474882137"><ele>53.5</ele><time>2026-04-07T07:35:52Z</time></trkpt><trkpt lat="43.84613127907982" lon="11.18017660134492"><ele>53.75</ele><time>2026-04-07T07:35:53Z</time></trkpt><trkpt lat="43.84624831402067" lon="11.18016220491977"><ele>54.0</ele><time>2026-04-07T07:35:54Z</time></trkpt><trkpt lat="43.846366451748494" lon="11.180146251370655"><ele>54.0</ele><time>2026-04-07T07:35:55Z</time></trkpt><trkpt lat="43.846486470436496" lon="11.180128537667786"><ele>54.0</ele><time>2026-04-07T07:35:56Z</time></trkpt><trkpt lat="43.84660631296058" lon="11.180115202956312"><ele>54.0</ele><time>2026-04-07T07:35:57Z</time></trkpt><trkpt lat="43.84672242023788" lon="11.18009913735266"><ele>54.0</ele><time>2026-04-07T07:35:58Z</time></trkpt><trkpt lat="43.846965266839895" lon="11.180069236736452"><ele>54.33333333333333</ele><time>2026-04-07T07:36:00Z</time></trkpt><trkpt lat="43.84711392191307" lon="11.180053794588952"><ele>54.666666666666664</ele><time>2026-04-07T07:36:01Z</time></trkpt><trkpt lat="43.84727155863527" lon="11.180030530994122"><ele>55.0</ele><time>2026-04-07T07:36:02Z</time></trkpt><trkpt lat="43.8474311888048" lon="11.180008654858606"><ele>55.0</ele><time>2026-04-07T07:36:03Z</time></trkpt><trkpt lat="43.847577784211694" lon="11.179991225221897"><ele>55.0</ele><time>2026-04-07T07:36:04Z</time></trkpt><trkpt lat="43.84771389702161" lon="11.179977229692705"><ele>55.0</ele><time>2026-04-07T07:36:05Z</time></trkpt><trkpt lat="43.84783995349627" lon="11.179961295218295"><ele>55.0</ele><time>2026-04-07T07:36:06Z</time></trkpt><trkpt lat="43.847978341035784" lon="11.17993638964582"><ele>55.0</ele><time>2026-04-07T07:36:07Z</time></trkpt><trkpt lat="43.84809960613109" lon="11.179921652555452"><ele>55.0</ele><time>2026-04-07T07:36:08Z</time></trkpt><trkpt lat="43.84822981768594" lon="11.17990169771961"><ele>55.0</ele><time>2026-04-07T07:36:09Z</time></trkpt><trkpt lat="43.84836381042552" lon="11.179889749158509"><ele>55.0</ele><time>2026-04-07T07:36:10Z</time></trkpt><trkpt lat="43.848492103267304" lon="11.179872613192614"><ele>55.25</ele><time>2026-04-07T07:36:11Z</time></trkpt><trkpt lat="43.84862475549788" lon="11.179863007002396"><ele>55.5</ele><time>2026-04-07T07:36:12Z</time></trkpt><trkpt lat="43.84876000624612" lon="11.179850913640735"><ele>55.75</ele><time>2026-04-07T07:36:13Z</time></trkpt><trkpt lat="43.84889296075858" lon="11.179834356483346"><ele>56.0</ele><time>2026-04-07T07:36:14Z</time></trkpt><trkpt lat="43.84903546699686" lon="11.179817449324075"><ele>56.0</ele><time>2026-04-07T07:36:15Z</time></trkpt><trkpt lat="43.84917642153052" lon="11.179804646093103"><ele>56.0</ele><time>2026-04-07T07:36:16Z</time></trkpt><trkpt lat="43.849306348344015" lon="11.179799124291318"><ele>56.0</ele><time>2026-04-07T07:36:17Z</time></trkpt><trkpt lat="43.849418135208545" lon="11.179793136692869"><ele>56.0</ele><time>2026-04-07T07:36:18Z</time></trkpt><trkpt lat="43.84951671547494" lon="11.179791830255873"><ele>56.199999999999996</ele><time>2026-04-07T07:36:19Z</time></trkpt><trkpt lat="43.849606410472404" lon="11.179818424042084"><ele>56.39999999999999</ele><time>2026-04-07T07:36:20Z</time></trkpt><trkpt lat="43.84969889932654" lon="11.17985063730732"><ele>56.6</ele><time>2026-04-07T07:36:21Z</time></trkpt><trkpt lat="43.84979313632302" lon="11.179850969270962"><ele>56.8</ele><time>2026-04-07T07:36:22Z</time></trkpt><trkpt lat="43.8498948601078" lon="11.179822646508232"><ele>57.0</ele><time>2026-04-07T07:36:23Z</time></trkpt><trkpt lat="43.85000112900785" lon="11.179769794360041"><ele>57.0</ele><time>2026-04-07T07:36:24Z</time></trkpt><trkpt lat="43.850109373366294" lon="11.17972686682039"><ele>57.0</ele><time>2026-04-07T07:36:25Z</time></trkpt><trkpt lat="43.85022345602001" lon="11.179698429648502"><ele>57.0</ele><time>2026-04-07T07:36:26Z</time></trkpt><trkpt lat="43.85034216429508" lon="11.179671783957453"><ele>57.0</ele><time>2026-04-07T07:36:27Z</time></trkpt><trkpt lat="43.85046848797691" lon="11.179649009788655"><ele>58.0</ele><time>2026-04-07T07:36:28Z</time></trkpt><trkpt lat="43.850597018745255" lon="11.17964036004489"><ele>59.0</ele><time>2026-04-07T07:36:29Z</time></trkpt><trkpt lat="43.8507345526337" lon="11.179624728336208"><ele>60.0</ele><time>2026-04-07T07:36:30Z</time></trkpt><trkpt lat="43.85088248332525" lon="11.17960877557653"><ele>61.0</ele><time>2026-04-07T07:36:31Z</time></trkpt><trkpt lat="43.851018704059086" lon="11.179595527093865"><ele>61.8</ele><time>2026-04-07T07:36:32Z</time></trkpt><trkpt lat="43.85113797034904" lon="11.179582042617172"><ele>62.599999999999994</ele><time>2026-04-07T07:36:33Z</time></trkpt><trkpt lat="43.85124040384407" lon="11.179569880350499"><ele>63.4</ele><time>2026-04-07T07:36:34Z</time></trkpt><trkpt lat="43.85135074525963" lon="11.179557436136012"><ele>64.2</ele><time>2026-04-07T07:36:35Z</time></trkpt><trkpt lat="43.851463503546974" lon="11.179537653997986"><ele>65.0</ele><time>2026-04-07T07:36:36Z</time></trkpt><trkpt lat="43.85158136268654" lon="11.179516164426548"><ele>65.0</ele><time>2026-04-07T07:36:37Z</time></trkpt><trkpt lat="43.85170716420289" lon="11.179504099615729"><ele>65.0</ele><time>2026-04-07T07:36:38Z</time></trkpt><trkpt lat="43.851834743080396" lon="11.179493720769221"><ele>65.0</ele><time>2026-04-07T07:36:39Z</time></trkpt><trkpt lat="43.85197663190988" lon="11.179470698549592"><ele>65.0</ele><time>2026-04-07T07:36:40Z</time></trkpt><trkpt lat="43.852123117365586" lon="11.179452093940526"><ele>65.66666666666667</ele><time>2026-04-07T07:36:41Z</time></trkpt><trkpt lat="43.85227563955714" lon="11.179433793670514"><ele>66.33333333333333</ele><time>2026-04-07T07:36:42Z</time></trkpt><trkpt lat="43.85243245540204" lon="11.179413594624402"><ele>67.0</ele><time>2026-04-07T07:36:43Z</time></trkpt><trkpt lat="43.85258997096888" lon="11.17939181819408"><ele>67.5</ele><time>2026-04-07T07:36:44Z</time></trkpt><trkpt lat="43.85274217449812" lon="11.179372028523742"><ele>68.0</ele><time>2026-04-07T07:36:45Z</time></trkpt><trkpt lat="43.85288797011779" lon="11.179354171689448"><ele>68.5</ele><time>2026-04-07T07:36:46Z</time></trkpt><trkpt lat="43.85302283873693" lon="11.179342774627258"><ele>69.0</ele><time>2026-04-07T07:36:47Z</time></trkpt><trkpt lat="43.853154911848954" lon="11.179329304291729"><ele>69.0</ele><time>2026-04-07T07:36:48Z</time></trkpt><trkpt lat="43.853286089704156" lon="11.179313297610667"><ele>69.0</ele><time>2026-04-07T07:36:49Z</time></trkpt><trkpt lat="43.85341289522387" lon="11.179299240375052"><ele>69.0</ele><time>2026-04-07T07:36:50Z</time></trkpt><trkpt lat="43.853539007543404" lon="11.179286222281432"><ele>69.0</ele><time>2026-04-07T07:36:51Z</time></trkpt><trkpt lat="43.853664664372815" lon="11.179273728571168"><ele>70.0</ele><time>2026-04-07T07:36:52Z</time></trkpt><trkpt lat="43.853787235147394" lon="11.179260217361657"><ele>71.0</ele><time>2026-04-07T07:36:53Z</time></trkpt><trkpt lat="43.853909482270346" lon="11.179249459076669"><ele>72.0</ele><time>2026-04-07T07:36:54Z</time></trkpt><trkpt lat="43.85403126577033" lon="11.179234318528895"><ele>73.0</ele><time>2026-04-07T07:36:55Z</time></trkpt><trkpt lat="43.85415022561972" lon="11.17921889158854"><ele>73.0</ele><time>2026-04-07T07:36:56Z</time></trkpt><trkpt lat="43.85425921562427" lon="11.17920632243108"><ele>73.0</ele><time>2026-04-07T07:36:57Z</time></trkpt><trkpt lat="43.854355424732105" lon="11.179195466974283"><ele>73.0</ele><time>2026-04-07T07:36:58Z</time></trkpt><trkpt lat="43.8544392630501" lon="11.179187251132687"><ele>73.0</ele><time>2026-04-07T07:36:59Z</time></trkpt><trkpt lat="43.85451036127785" lon="11.179181380006897"><ele>73.0</ele><time>2026-04-07T07:37:00Z</time></trkpt><trkpt lat="43.85459006859203" lon="11.179169928579471"><ele>73.0</ele><time>2026-04-07T07:37:02Z</time></trkpt><trkpt lat="43.85462000714922" lon="11.179034615536635"><ele>73.0</ele><time>2026-04-07T07:37:07Z</time></trkpt><trkpt lat="43.85451307319066" lon="11.179012065587884"><ele>73.0</ele><time>2026-04-07T07:37:10Z</time></trkpt><trkpt lat="43.85444385151654" lon="11.179068631638854"><ele>73.0</ele><time>2026-04-07T07:37:13Z</time></trkpt><trkpt lat="43.854367940098236" lon="11.179076999659594"><ele>73.0</ele><time>2026-04-07T07:37:17Z</time></trkpt><trkpt lat="43.854305222896585" lon="11.179049956123446"><ele>73.0</ele><time>2026-04-07T07:41:50Z</time></trkpt><trkpt lat="43.854232210361744" lon="11.179097650847433"><ele>73.0</ele><time>2026-04-07T07:52:02Z</time></trkpt><trkpt lat="43.85426816082692" lon="11.179205225598233"><ele>73.0</ele><time>2026-04-07T07:52:06Z</time></trkpt><trkpt lat="43.854348018433804" lon="11.179218015088713"><ele>73.0</ele><time>2026-04-07T07:52:07Z</time></trkpt><trkpt lat="43.854444028374864" lon="11.179214551511588"><ele>73.0</ele><time>2026-04-07T07:52:08Z</time></trkpt><trkpt lat="43.854528383545365" lon="11.179199142315722"><ele>73.0</ele><time>2026-04-07T07:52:09Z</time></trkpt><trkpt lat="43.85462160355442" lon="11.17918687342765"><ele>73.0</ele><time>2026-04-07T07:52:10Z</time></trkpt><trkpt lat="43.854712334148616" lon="11.179187618746703"><ele>73.0</ele><time>2026-04-07T07:52:11Z</time></trkpt><trkpt lat="43.85480156330364" lon="11.179203220351656"><ele>73.0</ele><time>2026-04-07T07:52:12Z</time></trkpt><trkpt lat="43.85489598354027" lon="11.17922933744238"><ele>73.0</ele><time>2026-04-07T07:52:13Z</time></trkpt><trkpt lat="43.85500905114843" lon="11.179244779729391"><ele>73.0</ele><time>2026-04-07T07:52:14Z</time></trkpt><trkpt lat="43.85512644464767" lon="11.179243501685145"><ele>73.0</ele><time>2026-04-07T07:52:15Z</time></trkpt><trkpt lat="43.855237688976054" lon="11.17923458433095"><ele>73.0</ele><time>2026-04-07T07:52:15.999Z</time></trkpt><trkpt lat="43.85534274019429" lon="11.179222484578201"><ele>73.2</ele><time>2026-04-07T07:52:16.999Z</time></trkpt><trkpt lat="43.85544431944209" lon="11.179204951744104"><ele>73.4</ele><time>2026-04-07T07:52:17.999Z</time></trkpt><trkpt lat="43.85554728531743" lon="11.179178867641903"><ele>73.60000000000001</ele><time>2026-04-07T07:52:18.999Z</time></trkpt><trkpt lat="43.85564531510913" lon="11.179142522702689"><ele>73.8</ele><time>2026-04-07T07:52:19.999Z</time></trkpt><trkpt lat="43.8557300792265" lon="11.179103741096633"><ele>74.0</ele><time>2026-04-07T07:52:20.999Z</time></trkpt><trkpt lat="43.855824298021346" lon="11.179063830302935"><ele>74.0</ele><time>2026-04-07T07:52:21.999Z</time></trkpt><trkpt lat="43.85592588737427" lon="11.179033744214852"><ele>74.0</ele><time>2026-04-07T07:52:22.999Z</time></trkpt><trkpt lat="43.856036309706404" lon="11.17900822924983"><ele>74.0</ele><time>2026-04-07T07:52:23.999Z</time></trkpt><trkpt lat="43.85614914369414" lon="11.178979533920577"><ele>74.0</ele><time>2026-04-07T07:52:24.999Z</time></trkpt><trkpt lat="43.85626293377013" lon="11.178944811057868"><ele>74.0</ele><time>2026-04-07T07:52:25.999Z</time></trkpt><trkpt lat="43.85639288410986" lon="11.178899479183885"><ele>74.0</ele><time>2026-04-07T07:52:26.999Z</time></trkpt><trkpt lat="43.85652930436102" lon="11.178843785158973"><ele>74.0</ele><time>2026-04-07T07:52:27.999Z</time></trkpt><trkpt lat="43.85664851982405" lon="11.17879697922778"><ele>74.0</ele><time>2026-04-07T07:52:28.999Z</time></trkpt><trkpt lat="43.85675680285316" lon="11.178759342650183"><ele>74.0</ele><time>2026-04-07T07:52:29.999Z</time></trkpt><trkpt lat="43.85686321873684" lon="11.178725279777462"><ele>74.66666666666667</ele><time>2026-04-07T07:52:30.999Z</time></trkpt><trkpt lat="43.85709986547898" lon="11.178642412166372"><ele>75.33333333333333</ele><time>2026-04-07T07:52:32.999Z</time></trkpt><trkpt lat="43.85720804712918" lon="11.17860054522702"><ele>76.0</ele><time>2026-04-07T07:52:33.999Z</time></trkpt><trkpt lat="43.85731931738823" lon="11.178554729779712"><ele>76.0</ele><time>2026-04-07T07:52:34.999Z</time></trkpt><trkpt lat="43.85742284978019" lon="11.178509549580584"><ele>76.0</ele><time>2026-04-07T07:52:35.999Z</time></trkpt><trkpt lat="43.857529963640346" lon="11.178447092656763"><ele>76.0</ele><time>2026-04-07T07:52:36.999Z</time></trkpt><trkpt lat="43.85764563433233" lon="11.17835213786719"><ele>76.0</ele><time>2026-04-07T07:52:37.999Z</time></trkpt><trkpt lat="43.8577642553782" lon="11.178226509075214"><ele>76.25</ele><time>2026-04-07T07:52:38.999Z</time></trkpt><trkpt lat="43.85786716796111" lon="11.178084688554033"><ele>76.5</ele><time>2026-04-07T07:52:39.999Z</time></trkpt><trkpt lat="43.85795592472908" lon="11.177923036152816"><ele>76.75</ele><time>2026-04-07T07:52:40.999Z</time></trkpt><trkpt lat="43.85803167002078" lon="11.177739647019289"><ele>77.0</ele><time>2026-04-07T07:52:41.999Z</time></trkpt><trkpt lat="43.8581021735271" lon="11.17754543213842"><ele>77.0</ele><time>2026-04-07T07:52:42.999Z</time></trkpt><trkpt lat="43.858162789959806" lon="11.17736410872035"><ele>77.0</ele><time>2026-04-07T07:52:43.999Z</time></trkpt><trkpt lat="43.858234112430026" lon="11.177179709417587"><ele>77.0</ele><time>2026-04-07T07:52:44.999Z</time></trkpt><trkpt lat="43.85830895842797" lon="11.176999172235622"><ele>77.0</ele><time>2026-04-07T07:52:45.999Z</time></trkpt><trkpt lat="43.858380166562796" lon="11.176826451592587"><ele>77.0</ele><time>2026-04-07T07:52:46.999Z</time></trkpt><trkpt lat="43.85844024621952" lon="11.176664362363159"><ele>77.0</ele><time>2026-04-07T07:52:47.999Z</time></trkpt><trkpt lat="43.85849576513365" lon="11.17650642438083"><ele>77.0</ele><time>2026-04-07T07:52:48.999Z</time></trkpt><trkpt lat="43.85854338452397" lon="11.176377536013751"><ele>77.0</ele><time>2026-04-07T07:52:49.999Z</time></trkpt><trkpt lat="43.858583221244984" lon="11.176273636812212"><ele>77.0</ele><time>2026-04-07T07:52:50.999Z</time></trkpt><trkpt lat="43.85862020931252" lon="11.176180120489215"><ele>77.0</ele><time>2026-04-07T07:52:51.999Z</time></trkpt><trkpt lat="43.858688137928745" lon="11.176046797062089"><ele>77.0</ele><time>2026-04-07T07:52:53.999Z</time></trkpt><trkpt lat="43.85873988576472" lon="11.175989579105611"><ele>77.0</ele><time>2026-04-07T07:52:54.999Z</time></trkpt><trkpt lat="43.85879220845448" lon="11.175933588529455"><ele>77.0</ele><time>2026-04-07T07:52:55.999Z</time></trkpt><trkpt lat="43.85883963085632" lon="11.175854138549303"><ele>77.0</ele><time>2026-04-07T07:52:56.999Z</time></trkpt><trkpt lat="43.8589036348508" lon="11.175789377342348"><ele>77.0</ele><time>2026-04-07T07:52:57.999Z</time></trkpt><trkpt lat="43.85886933331583" lon="11.17560787688559"><ele>76.66666666666667</ele><time>2026-04-07T07:52:58.999Z</time></trkpt><trkpt lat="43.858942009943696" lon="11.175288967906658"><ele>76.33333333333333</ele><time>2026-04-07T07:53:00.999Z</time></trkpt><trkpt lat="43.85900040593667" lon="11.17514399154604"><ele>76.0</ele><time>2026-04-07T07:53:01.999Z</time></trkpt><trkpt lat="43.859052799825946" lon="11.175001718302475"><ele>76.0</ele><time>2026-04-07T07:53:02.999Z</time></trkpt><trkpt lat="43.85909965847489" lon="11.174872255522182"><ele>76.0</ele><time>2026-04-07T07:53:03.999Z</time></trkpt><trkpt lat="43.859142028221" lon="11.174753710112915"><ele>76.0</ele><time>2026-04-07T07:53:04.999Z</time></trkpt><trkpt lat="43.85919006990495" lon="11.174631951897375"><ele>76.0</ele><time>2026-04-07T07:53:05.999Z</time></trkpt><trkpt lat="43.85924355853951" lon="11.174489358655492"><ele>76.0</ele><time>2026-04-07T07:53:06.999Z</time></trkpt><trkpt lat="43.85930195377599" lon="11.174338869506842"><ele>75.8</ele><time>2026-04-07T07:53:07.999Z</time></trkpt><trkpt lat="43.859357616224" lon="11.1742055048018"><ele>75.6</ele><time>2026-04-07T07:53:08.999Z</time></trkpt><trkpt lat="43.85941189779956" lon="11.174083362119195"><ele>75.4</ele><time>2026-04-07T07:53:09.999Z</time></trkpt><trkpt lat="43.85947162902069" lon="11.173957418887287"><ele>75.2</ele><time>2026-04-07T07:53:10.999Z</time></trkpt><trkpt lat="43.85953222781456" lon="11.173827453217216"><ele>75.0</ele><time>2026-04-07T07:53:11.999Z</time></trkpt><trkpt lat="43.85958539000207" lon="11.17371032117214"><ele>74.5</ele><time>2026-04-07T07:53:12.999Z</time></trkpt><trkpt lat="43.85963898626076" lon="11.17359729175209"><ele>74.0</ele><time>2026-04-07T07:53:13.999Z</time></trkpt><trkpt lat="43.859757320074685" lon="11.173364208731142"><ele>73.5</ele><time>2026-04-07T07:53:15.999Z</time></trkpt><trkpt lat="43.85981301895863" lon="11.173256056834695"><ele>73.0</ele><time>2026-04-07T07:53:16.999Z</time></trkpt><trkpt lat="43.859861846860746" lon="11.173162165910032"><ele>73.0</ele><time>2026-04-07T07:53:17.999Z</time></trkpt><trkpt lat="43.85990906410662" lon="11.173070694321018"><ele>73.0</ele><time>2026-04-07T07:53:18.999Z</time></trkpt><trkpt lat="43.85995964802004" lon="11.172969894640739"><ele>73.0</ele><time>2026-04-07T07:53:20Z</time></trkpt><trkpt lat="43.8600185572163" lon="11.17286082597766"><ele>73.0</ele><time>2026-04-07T07:53:21Z</time></trkpt><trkpt lat="43.86008715405357" lon="11.17274452305926"><ele>73.0</ele><time>2026-04-07T07:53:22Z</time></trkpt><trkpt lat="43.86015877659025" lon="11.172616775977664"><ele>73.0</ele><time>2026-04-07T07:53:23Z</time></trkpt><trkpt lat="43.8602284217741" lon="11.172476655457716"><ele>73.0</ele><time>2026-04-07T07:53:24Z</time></trkpt><trkpt lat="43.86029521499453" lon="11.172329716650218"><ele>73.0</ele><time>2026-04-07T07:53:25Z</time></trkpt><trkpt lat="43.86036659130817" lon="11.172186746475488"><ele>73.0</ele><time>2026-04-07T07:53:26Z</time></trkpt><trkpt lat="43.86043551739709" lon="11.172052034121961"><ele>72.8</ele><time>2026-04-07T07:53:27Z</time></trkpt><trkpt lat="43.860498798666136" lon="11.17192452160658"><ele>72.6</ele><time>2026-04-07T07:53:28Z</time></trkpt><trkpt lat="43.860556832228525" lon="11.171810851014374"><ele>72.4</ele><time>2026-04-07T07:53:29Z</time></trkpt><trkpt lat="43.86060986028127" lon="11.171707353840258"><ele>72.2</ele><time>2026-04-07T07:53:30Z</time></trkpt><trkpt lat="43.86066726932471" lon="11.171603063239328"><ele>72.0</ele><time>2026-04-07T07:53:31Z</time></trkpt><trkpt lat="43.86072999363916" lon="11.171502696888851"><ele>71.5</ele><time>2026-04-07T07:53:32Z</time></trkpt><trkpt lat="43.8608016385733" lon="11.171414921637245"><ele>71.0</ele><time>2026-04-07T07:53:33Z</time></trkpt><trkpt lat="43.86085949355751" lon="11.171364316413042"><ele>70.5</ele><time>2026-04-07T07:53:34Z</time></trkpt><trkpt lat="43.86095490680474" lon="11.171294246622164"><ele>70.0</ele><time>2026-04-07T07:53:36Z</time></trkpt><trkpt lat="43.86101679709689" lon="11.17124439367725"><ele>69.5</ele><time>2026-04-07T07:53:37Z</time></trkpt><trkpt lat="43.8610914175699" lon="11.171183118109571"><ele>69.0</ele><time>2026-04-07T07:53:38Z</time></trkpt><trkpt lat="43.86116337111245" lon="11.171118150620579"><ele>69.0</ele><time>2026-04-07T07:53:39Z</time></trkpt><trkpt lat="43.86123038510822" lon="11.171062605490237"><ele>69.0</ele><time>2026-04-07T07:53:40Z</time></trkpt><trkpt lat="43.86130174332684" lon="11.17100536346613"><ele>69.0</ele><time>2026-04-07T07:53:41Z</time></trkpt><trkpt lat="43.86138061773901" lon="11.170945110343427"><ele>69.0</ele><time>2026-04-07T07:53:42Z</time></trkpt><trkpt lat="43.86145582202944" lon="11.170888205725374"><ele>69.0</ele><time>2026-04-07T07:53:43Z</time></trkpt><trkpt lat="43.86152609405242" lon="11.17083245718942"><ele>69.0</ele><time>2026-04-07T07:53:44Z</time></trkpt><trkpt lat="43.861607908495834" lon="11.170767120863609"><ele>68.5</ele><time>2026-04-07T07:53:45Z</time></trkpt><trkpt lat="43.86170596181936" lon="11.170690181084138"><ele>68.0</ele><time>2026-04-07T07:53:46Z</time></trkpt><trkpt lat="43.86180405791524" lon="11.170610746201225"><ele>67.5</ele><time>2026-04-07T07:53:47Z</time></trkpt><trkpt lat="43.86190439481144" lon="11.170530206989186"><ele>67.0</ele><time>2026-04-07T07:53:48Z</time></trkpt><trkpt lat="43.86199753293638" lon="11.170451812788546"><ele>67.0</ele><time>2026-04-07T07:53:49Z</time></trkpt><trkpt lat="43.862079233560365" lon="11.17037951083421"><ele>67.0</ele><time>2026-04-07T07:53:50Z</time></trkpt><trkpt lat="43.862147051038896" lon="11.170324797418228"><ele>67.0</ele><time>2026-04-07T07:53:51Z</time></trkpt><trkpt lat="43.86221127096058" lon="11.170290381788204"><ele>67.0</ele><time>2026-04-07T07:53:52Z</time></trkpt><trkpt lat="43.86229400940152" lon="11.170270067261585"><ele>67.0</ele><time>2026-04-07T07:53:53Z</time></trkpt><trkpt lat="43.86238517160507" lon="11.170269028977305"><ele>67.0</ele><time>2026-04-07T07:53:54Z</time></trkpt><trkpt lat="43.862475012968254" lon="11.17025281977922"><ele>67.0</ele><time>2026-04-07T07:53:55Z</time></trkpt><trkpt lat="43.86255058502783" lon="11.170189877511763"><ele>67.0</ele><time>2026-04-07T07:53:56Z</time></trkpt><trkpt lat="43.86261608990336" lon="11.170108253405914"><ele>67.0</ele><time>2026-04-07T07:53:57Z</time></trkpt><trkpt lat="43.86262934334645" lon="11.169968802551486"><ele>67.0</ele><time>2026-04-07T07:53:58Z</time></trkpt><trkpt lat="43.862627586371936" lon="11.16982391647747"><ele>67.0</ele><time>2026-04-07T07:53:59Z</time></trkpt><trkpt lat="43.86263485935174" lon="11.169687890586813"><ele>67.75</ele><time>2026-04-07T07:54:00Z</time></trkpt><trkpt lat="43.862789240048635" lon="11.169609149987346"><ele>68.5</ele><time>2026-04-07T07:54:01Z</time></trkpt><trkpt lat="43.8628821331515" lon="11.169490177081741"><ele>69.25</ele><time>2026-04-07T07:54:02Z</time></trkpt><trkpt lat="43.86300085880974" lon="11.169388739832627"><ele>70.0</ele><time>2026-04-07T07:54:03Z</time></trkpt><trkpt lat="43.86310929109526" lon="11.169338222257142"><ele>70.0</ele><time>2026-04-07T07:54:04Z</time></trkpt><trkpt lat="43.86319842556416" lon="11.16929635463139"><ele>70.0</ele><time>2026-04-07T07:54:05Z</time></trkpt><trkpt lat="43.86329121279714" lon="11.169256148167317"><ele>70.0</ele><time>2026-04-07T07:54:06Z</time></trkpt><trkpt lat="43.86338820726574" lon="11.169215958270833"><ele>70.0</ele><time>2026-04-07T07:54:07Z</time></trkpt><trkpt lat="43.863474458480596" lon="11.169184097604182"><ele>70.0</ele><time>2026-04-07T07:54:08Z</time></trkpt><trkpt lat="43.863552373676875" lon="11.169156463265233"><ele>70.0</ele><time>2026-04-07T07:54:09Z</time></trkpt><trkpt lat="43.863643674417354" lon="11.16912480909247"><ele>70.0</ele><time>2026-04-07T07:54:10Z</time></trkpt><trkpt lat="43.86373388468574" lon="11.169076896547905"><ele>70.0</ele><time>2026-04-07T07:54:11Z</time></trkpt><trkpt lat="43.8638270170711" lon="11.169051757452102"><ele>70.0</ele><time>2026-04-07T07:54:12Z</time></trkpt><trkpt lat="43.863911461760964" lon="11.169011834404435"><ele>70.0</ele><time>2026-04-07T07:54:13Z</time></trkpt><trkpt lat="43.863996164525844" lon="11.168971993199868"><ele>69.8</ele><time>2026-04-07T07:54:14Z</time></trkpt><trkpt lat="43.86409317625718" lon="11.168941076979127"><ele>69.6</ele><time>2026-04-07T07:54:15Z</time></trkpt><trkpt lat="43.86420090938235" lon="11.168897015080764"><ele>69.4</ele><time>2026-04-07T07:54:16Z</time></trkpt><trkpt lat="43.86430430539847" lon="11.168863057603373"><ele>69.2</ele><time>2026-04-07T07:54:17Z</time></trkpt><trkpt lat="43.86438565400866" lon="11.16881601719387"><ele>69.0</ele><time>2026-04-07T07:54:18Z</time></trkpt><trkpt lat="43.864452708964336" lon="11.16878327008575"><ele>69.0</ele><time>2026-04-07T07:54:19Z</time></trkpt><trkpt lat="43.864541300364415" lon="11.168741152325"><ele>69.0</ele><time>2026-04-07T07:54:21Z</time></trkpt><trkpt lat="43.86461794005978" lon="11.168701473044488"><ele>69.0</ele><time>2026-04-07T07:54:22.999Z</time></trkpt><trkpt lat="43.86470387413577" lon="11.168663595128955"><ele>69.0</ele><time>2026-04-07T07:54:24.999Z</time></trkpt><trkpt lat="43.86477756220697" lon="11.168639882597768"><ele>69.0</ele><time>2026-04-07T07:54:26.999Z</time></trkpt><trkpt lat="43.86487076621791" lon="11.168612686677632"><ele>69.0</ele><time>2026-04-07T07:54:28.999Z</time></trkpt><trkpt lat="43.86498413526164" lon="11.168541970183185"><ele>69.0</ele><time>2026-04-07T07:54:30.999Z</time></trkpt><trkpt lat="43.86503730738088" lon="11.168489207186322"><ele>69.0</ele><time>2026-04-07T07:54:31.999Z</time></trkpt><trkpt lat="43.86508861106719" lon="11.168433185450574"><ele>69.0</ele><time>2026-04-07T07:54:32.999Z</time></trkpt><trkpt lat="43.8651781634451" lon="11.168335952691296"><ele>69.0</ele><time>2026-04-07T07:54:34.999Z</time></trkpt><trkpt lat="43.86524882225625" lon="11.168250720422565"><ele>69.0</ele><time>2026-04-07T07:54:36.999Z</time></trkpt><trkpt lat="43.86530411113412" lon="11.168181367075677"><ele>69.0</ele><time>2026-04-07T07:54:38.999Z</time></trkpt><trkpt lat="43.865365831636716" lon="11.168103637444467"><ele>69.2</ele><time>2026-04-07T07:54:41.999Z</time></trkpt><trkpt lat="43.86542161696284" lon="11.168038080129007"><ele>69.4</ele><time>2026-04-07T07:54:43.999Z</time></trkpt><trkpt lat="43.86549497224941" lon="11.167934613376818"><ele>69.6</ele><time>2026-04-07T07:54:45.999Z</time></trkpt><trkpt lat="43.86555948960663" lon="11.167846046759339"><ele>69.8</ele><time>2026-04-07T07:54:47.999Z</time></trkpt><trkpt lat="43.86562448959252" lon="11.167765414177001"><ele>70.0</ele><time>2026-04-07T07:54:49.999Z</time></trkpt><trkpt lat="43.865696313526456" lon="11.16767386364693"><ele>70.0</ele><time>2026-04-07T07:54:51.999Z</time></trkpt><trkpt lat="43.86577690351642" lon="11.167559894585331"><ele>70.0</ele><time>2026-04-07T07:54:53.999Z</time></trkpt><trkpt lat="43.86586671868141" lon="11.167441627394728"><ele>70.0</ele><time>2026-04-07T07:54:55.999Z</time></trkpt><trkpt lat="43.86593680914927" lon="11.167343925541223"><ele>70.0</ele><time>2026-04-07T07:54:57.999Z</time></trkpt><trkpt lat="43.866007910099185" lon="11.167302762506633"><ele>70.0</ele><time>2026-04-07T07:55:00Z</time></trkpt><trkpt lat="43.8661538529119" lon="11.167310914547418"><ele>69.83333333333333</ele><time>2026-04-07T07:55:02Z</time></trkpt><trkpt lat="43.86624423633317" lon="11.167320889086254"><ele>69.66666666666666</ele><time>2026-04-07T07:55:03Z</time></trkpt><trkpt lat="43.86632883549019" lon="11.167328889078652"><ele>69.5</ele><time>2026-04-07T07:55:04Z</time></trkpt><trkpt lat="43.86641065237269" lon="11.167333715239376"><ele>69.33333333333333</ele><time>2026-04-07T07:55:05Z</time></trkpt><trkpt lat="43.86648444351109" lon="11.167339820027355"><ele>69.16666666666667</ele><time>2026-04-07T07:55:06Z</time></trkpt><trkpt lat="43.86655466610557" lon="11.167344645080501"><ele>69.0</ele><time>2026-04-07T07:55:07Z</time></trkpt><trkpt lat="43.86662669798911" lon="11.167351291991919"><ele>69.0</ele><time>2026-04-07T07:55:08Z</time></trkpt><trkpt lat="43.8666982000171" lon="11.167354654057807"><ele>69.0</ele><time>2026-04-07T07:55:09Z</time></trkpt><trkpt lat="43.86679104287735" lon="11.167361576172082"><ele>69.0</ele><time>2026-04-07T07:55:10Z</time></trkpt><trkpt lat="43.866888513104215" lon="11.167375574286421"><ele>69.0</ele><time>2026-04-07T07:55:11Z</time></trkpt><trkpt lat="43.86700291872409" lon="11.167407063187976"><ele>69.0</ele><time>2026-04-07T07:55:12Z</time></trkpt><trkpt lat="43.867133184425896" lon="11.167457428048076"><ele>69.75</ele><time>2026-04-07T07:55:13Z</time></trkpt><trkpt lat="43.867264523559456" lon="11.167513646326913"><ele>70.5</ele><time>2026-04-07T07:55:14Z</time></trkpt><trkpt lat="43.8673863673188" lon="11.167571075960538"><ele>71.25</ele><time>2026-04-07T07:55:15Z</time></trkpt><trkpt lat="43.867512231637114" lon="11.167626222226136"><ele>72.0</ele><time>2026-04-07T07:55:16Z</time></trkpt><trkpt lat="43.86764535056943" lon="11.167673198570661"><ele>72.0</ele><time>2026-04-07T07:55:17Z</time></trkpt><trkpt lat="43.8677928758996" lon="11.167713756771727"><ele>72.0</ele><time>2026-04-07T07:55:18Z</time></trkpt><trkpt lat="43.86795116850331" lon="11.167742318724951"><ele>72.0</ele><time>2026-04-07T07:55:19Z</time></trkpt><trkpt lat="43.86809513056756" lon="11.167752444348825"><ele>72.0</ele><time>2026-04-07T07:55:20Z</time></trkpt><trkpt lat="43.86822662944696" lon="11.167764265415714"><ele>72.0</ele><time>2026-04-07T07:55:21Z</time></trkpt><trkpt lat="43.86836147515586" lon="11.16779273299989"><ele>72.0</ele><time>2026-04-07T07:55:22Z</time></trkpt><trkpt lat="43.8685048225679" lon="11.167853828565937"><ele>72.0</ele><time>2026-04-07T07:55:23Z</time></trkpt><trkpt lat="43.868649063819035" lon="11.167951066394101"><ele>71.66666666666667</ele><time>2026-04-07T07:55:24Z</time></trkpt><trkpt lat="43.86880668186508" lon="11.168036815295098"><ele>71.33333333333334</ele><time>2026-04-07T07:55:25Z</time></trkpt><trkpt lat="43.8689770959622" lon="11.168085467151485"><ele>71.0</ele><time>2026-04-07T07:55:26Z</time></trkpt><trkpt lat="43.86915863605367" lon="11.168110415231991"><ele>71.25</ele><time>2026-04-07T07:55:27Z</time></trkpt><trkpt lat="43.86932882116701" lon="11.16811806220035"><ele>71.5</ele><time>2026-04-07T07:55:28Z</time></trkpt><trkpt lat="43.869471975620286" lon="11.168116720452655"><ele>71.75</ele><time>2026-04-07T07:55:29Z</time></trkpt><trkpt lat="43.86959118242308" lon="11.168118774195154"><ele>72.0</ele><time>2026-04-07T07:55:30Z</time></trkpt><trkpt lat="43.86969754766093" lon="11.168123258773445"><ele>72.0</ele><time>2026-04-07T07:55:31Z</time></trkpt><trkpt lat="43.86979196086129" lon="11.168132719179962"><ele>72.0</ele><time>2026-04-07T07:55:32Z</time></trkpt><trkpt lat="43.86988026796615" lon="11.16814174721197"><ele>72.0</ele><time>2026-04-07T07:55:33Z</time></trkpt><trkpt lat="43.869963283978635" lon="11.168148755809446"><ele>72.0</ele><time>2026-04-07T07:55:34Z</time></trkpt><trkpt lat="43.87002674543516" lon="11.168147211828709"><ele>72.0</ele><time>2026-04-07T07:55:35Z</time></trkpt><trkpt lat="43.87012507095483" lon="11.168132337122028"><ele>72.0</ele><time>2026-04-07T07:55:37Z</time></trkpt><trkpt lat="43.87018933135848" lon="11.168085713422263"><ele>71.4</ele><time>2026-04-07T07:55:39Z</time></trkpt><trkpt lat="43.87024702909366" lon="11.168044129871111"><ele>70.80000000000001</ele><time>2026-04-07T07:55:41Z</time></trkpt><trkpt lat="43.87036157589763" lon="11.168065228671594"><ele>70.2</ele><time>2026-04-07T07:55:51Z</time></trkpt><trkpt lat="43.870434317777885" lon="11.168129777277292"><ele>69.60000000000001</ele><time>2026-04-07T07:55:52Z</time></trkpt><trkpt lat="43.870534749609426" lon="11.168223603424673"><ele>69.0</ele><time>2026-04-07T07:55:53Z</time></trkpt><trkpt lat="43.87062220292333" lon="11.168323617005353"><ele>69.5</ele><time>2026-04-07T07:55:54Z</time></trkpt><trkpt lat="43.870728375108435" lon="11.168421910813002"><ele>70.0</ele><time>2026-04-07T07:55:55Z</time></trkpt><trkpt lat="43.87082617499036" lon="11.168517505666987"><ele>70.5</ele><time>2026-04-07T07:55:56Z</time></trkpt><trkpt lat="43.870955391748225" lon="11.168653472691751"><ele>71.0</ele><time>2026-04-07T07:55:57.001Z</time></trkpt><trkpt lat="43.871076834209425" lon="11.168791492633101"><ele>71.0</ele><time>2026-04-07T07:55:58.001Z</time></trkpt><trkpt lat="43.871174768515324" lon="11.168902449284483"><ele>71.0</ele><time>2026-04-07T07:55:59.001Z</time></trkpt><trkpt lat="43.87126993220665" lon="11.169016801749072"><ele>71.0</ele><time>2026-04-07T07:56:00.001Z</time></trkpt><trkpt lat="43.871358159619184" lon="11.16912226758964"><ele>71.0</ele><time>2026-04-07T07:56:01.001Z</time></trkpt><trkpt lat="43.87143796414843" lon="11.169220713580163"><ele>71.6</ele><time>2026-04-07T07:56:02.001Z</time></trkpt><trkpt lat="43.871512443625086" lon="11.169323483705485"><ele>72.19999999999999</ele><time>2026-04-07T07:56:03.001Z</time></trkpt><trkpt lat="43.87158699310449" lon="11.169433381327526"><ele>72.80000000000001</ele><time>2026-04-07T07:56:04.001Z</time></trkpt><trkpt lat="43.871645686000775" lon="11.169523487674791"><ele>73.4</ele><time>2026-04-07T07:56:05.001Z</time></trkpt><trkpt lat="43.87171807201293" lon="11.169632446930729"><ele>74.0</ele><time>2026-04-07T07:56:07.001Z</time></trkpt><trkpt lat="43.871755536262654" lon="11.16981274782463"><ele>73.83333333333334</ele><time>2026-04-07T07:56:09.001Z</time></trkpt><trkpt lat="43.87175784693133" lon="11.169922789014585"><ele>73.66666666666667</ele><time>2026-04-07T07:56:10.001Z</time></trkpt><trkpt lat="43.87177253534514" lon="11.170010191415543"><ele>73.5</ele><time>2026-04-07T07:56:11.001Z</time></trkpt><trkpt lat="43.871817864686214" lon="11.170082510824178"><ele>73.33333333333333</ele><time>2026-04-07T07:56:12.001Z</time></trkpt><trkpt lat="43.87188131639017" lon="11.170132126365479"><ele>73.16666666666666</ele><time>2026-04-07T07:56:13.001Z</time></trkpt><trkpt lat="43.87196809531597" lon="11.17016147188222"><ele>73.0</ele><time>2026-04-07T07:56:14.001Z</time></trkpt><trkpt lat="43.87206583992632" lon="11.170111923525141"><ele>73.0</ele><time>2026-04-07T07:56:15.001Z</time></trkpt><trkpt lat="43.87212850221047" lon="11.17028080532251"><ele>73.0</ele><time>2026-04-07T07:56:16.001Z</time></trkpt><trkpt lat="43.872187678770985" lon="11.17037590793488"><ele>73.0</ele><time>2026-04-07T07:56:17.001Z</time></trkpt><trkpt lat="43.87225816617727" lon="11.17046016625245"><ele>73.0</ele><time>2026-04-07T07:56:18.001Z</time></trkpt><trkpt lat="43.87232420305808" lon="11.170587611035579"><ele>73.0</ele><time>2026-04-07T07:56:19.001Z</time></trkpt><trkpt lat="43.87240920568351" lon="11.170722269286868"><ele>73.25</ele><time>2026-04-07T07:56:20.001Z</time></trkpt><trkpt lat="43.872504175644146" lon="11.170867803899167"><ele>73.5</ele><time>2026-04-07T07:56:21.001Z</time></trkpt><trkpt lat="43.87259733825749" lon="11.171012067233013"><ele>73.75</ele><time>2026-04-07T07:56:22.001Z</time></trkpt><trkpt lat="43.87269572715957" lon="11.171154420243557"><ele>74.0</ele><time>2026-04-07T07:56:23.001Z</time></trkpt><trkpt lat="43.872791422757935" lon="11.171337472681683"><ele>74.33333333333334</ele><time>2026-04-07T07:56:24.001Z</time></trkpt><trkpt lat="43.87291660419381" lon="11.171535019782269"><ele>74.66666666666667</ele><time>2026-04-07T07:56:25.001Z</time></trkpt><trkpt lat="43.87305446358835" lon="11.171723543294378"><ele>75.0</ele><time>2026-04-07T07:56:26.001Z</time></trkpt><trkpt lat="43.87316257263112" lon="11.17190775569441"><ele>75.0</ele><time>2026-04-07T07:56:27.001Z</time></trkpt><trkpt lat="43.87326410228304" lon="11.172069670453881"><ele>75.0</ele><time>2026-04-07T07:56:28Z</time></trkpt><trkpt lat="43.8733675047669" lon="11.172225445042933"><ele>75.0</ele><time>2026-04-07T07:56:29Z</time></trkpt><trkpt lat="43.87347154756227" lon="11.172372191563072"><ele>76.0</ele><time>2026-04-07T07:56:30Z</time></trkpt><trkpt lat="43.873587795849666" lon="11.172503912265812"><ele>77.0</ele><time>2026-04-07T07:56:31Z</time></trkpt><trkpt lat="43.873714104972386" lon="11.172615751712902"><ele>78.0</ele><time>2026-04-07T07:56:32Z</time></trkpt><trkpt lat="43.87383268903722" lon="11.172705915899844"><ele>79.0</ele><time>2026-04-07T07:56:33Z</time></trkpt><trkpt lat="43.873953516469726" lon="11.172790005086762"><ele>79.0</ele><time>2026-04-07T07:56:34Z</time></trkpt><trkpt lat="43.87407276864713" lon="11.172899086722586"><ele>79.0</ele><time>2026-04-07T07:56:35Z</time></trkpt><trkpt lat="43.87421575541193" lon="11.17297283517126"><ele>79.0</ele><time>2026-04-07T07:56:36Z</time></trkpt><trkpt lat="43.87435790366847" lon="11.173096717886896"><ele>80.33333333333333</ele><time>2026-04-07T07:56:37Z</time></trkpt><trkpt lat="43.8745233210527" lon="11.173224337851288"><ele>81.66666666666667</ele><time>2026-04-07T07:56:38Z</time></trkpt><trkpt lat="43.87470826213042" lon="11.173367236546797"><ele>83.0</ele><time>2026-04-07T07:56:39Z</time></trkpt><trkpt lat="43.8748913987187" lon="11.173515466432177"><ele>83.0</ele><time>2026-04-07T07:56:40Z</time></trkpt><trkpt lat="43.875075783338666" lon="11.173681804575388"><ele>83.0</ele><time>2026-04-07T07:56:41Z</time></trkpt><trkpt lat="43.875263200549604" lon="11.173839822170125"><ele>83.0</ele><time>2026-04-07T07:56:42Z</time></trkpt><trkpt lat="43.875426523728805" lon="11.17401881480329"><ele>82.33333333333334</ele><time>2026-04-07T07:56:43Z</time></trkpt><trkpt lat="43.87558827535072" lon="11.174190961407291"><ele>81.66666666666667</ele><time>2026-04-07T07:56:44Z</time></trkpt><trkpt lat="43.87575976820024" lon="11.174362768213099"><ele>81.0</ele><time>2026-04-07T07:56:45Z</time></trkpt><trkpt lat="43.875930919684514" lon="11.17452562534298"><ele>80.66666666666667</ele><time>2026-04-07T07:56:46Z</time></trkpt><trkpt lat="43.87611455707955" lon="11.174689837373249"><ele>80.33333333333334</ele><time>2026-04-07T07:56:47Z</time></trkpt><trkpt lat="43.87629235887373" lon="11.174842789924403"><ele>80.0</ele><time>2026-04-07T07:56:48Z</time></trkpt><trkpt lat="43.87646122825615" lon="11.174989003726928"><ele>80.33333333333334</ele><time>2026-04-07T07:56:49Z</time></trkpt><trkpt lat="43.87662060007364" lon="11.17512676060928"><ele>80.66666666666667</ele><time>2026-04-07T07:56:50Z</time></trkpt><trkpt lat="43.876774220801" lon="11.175259860585976"><ele>81.0</ele><time>2026-04-07T07:56:51Z</time></trkpt><trkpt lat="43.8769304054881" lon="11.175394681206939"><ele>81.0</ele><time>2026-04-07T07:56:52Z</time></trkpt><trkpt lat="43.87707769057908" lon="11.175521476765574"><ele>81.0</ele><time>2026-04-07T07:56:53Z</time></trkpt><trkpt lat="43.8772290192507" lon="11.175650708965094"><ele>81.0</ele><time>2026-04-07T07:56:54Z</time></trkpt><trkpt lat="43.87737652822844" lon="11.175774249944231"><ele>81.33333333333333</ele><time>2026-04-07T07:56:55Z</time></trkpt><trkpt lat="43.877513694126534" lon="11.175892257400644"><ele>81.66666666666666</ele><time>2026-04-07T07:56:56Z</time></trkpt><trkpt lat="43.87765285977848" lon="11.176014065429717"><ele>82.0</ele><time>2026-04-07T07:56:57Z</time></trkpt><trkpt lat="43.87779696312737" lon="11.176139709283175"><ele>82.0</ele><time>2026-04-07T07:56:58Z</time></trkpt><trkpt lat="43.877934811352105" lon="11.17626343339839"><ele>82.0</ele><time>2026-04-07T07:56:59Z</time></trkpt><trkpt lat="43.878064445098374" lon="11.176394532659428"><ele>82.0</ele><time>2026-04-07T07:57:00Z</time></trkpt><trkpt lat="43.878193261445006" lon="11.17654538332419"><ele>81.33333333333333</ele><time>2026-04-07T07:57:01Z</time></trkpt><trkpt lat="43.87831663256811" lon="11.176703222607689"><ele>80.66666666666667</ele><time>2026-04-07T07:57:02Z</time></trkpt><trkpt lat="43.878433615829174" lon="11.17686600435727"><ele>80.0</ele><time>2026-04-07T07:57:03Z</time></trkpt><trkpt lat="43.87854978869993" lon="11.177031005540845"><ele>80.0</ele><time>2026-04-07T07:57:04Z</time></trkpt><trkpt lat="43.878663190740916" lon="11.177197529702774"><ele>80.0</ele><time>2026-04-07T07:57:05Z</time></trkpt><trkpt lat="43.8787722396457" lon="11.17736498151459"><ele>80.0</ele><time>2026-04-07T07:57:06Z</time></trkpt><trkpt lat="43.87888133360944" lon="11.177538510557916"><ele>81.0</ele><time>2026-04-07T07:57:07Z</time></trkpt><trkpt lat="43.87897624258618" lon="11.177688416363884"><ele>82.0</ele><time>2026-04-07T07:57:08Z</time></trkpt><trkpt lat="43.87907071927806" lon="11.177840247906932"><ele>83.0</ele><time>2026-04-07T07:57:09Z</time></trkpt><trkpt lat="43.879161499206674" lon="11.177999934272014"><ele>84.0</ele><time>2026-04-07T07:57:10Z</time></trkpt><trkpt lat="43.879249449703806" lon="11.17816858671846"><ele>83.33333333333333</ele><time>2026-04-07T07:57:11Z</time></trkpt><trkpt lat="43.879341359493566" lon="11.178347914247741"><ele>82.66666666666666</ele><time>2026-04-07T07:57:12Z</time></trkpt><trkpt lat="43.879429051801544" lon="11.17852615765944"><ele>82.0</ele><time>2026-04-07T07:57:13Z</time></trkpt><trkpt lat="43.87950983112095" lon="11.178696192038398"><ele>82.0</ele><time>2026-04-07T07:57:14Z</time></trkpt><trkpt lat="43.87959389404793" lon="11.178877602540359"><ele>82.0</ele><time>2026-04-07T07:57:15Z</time></trkpt><trkpt lat="43.879674893543" lon="11.17905162892648"><ele>82.0</ele><time>2026-04-07T07:57:16Z</time></trkpt><trkpt lat="43.87975186598879" lon="11.17921646658778"><ele>82.0</ele><time>2026-04-07T07:57:17Z</time></trkpt><trkpt lat="43.87983191809592" lon="11.179386572397522"><ele>83.25</ele><time>2026-04-07T07:57:18Z</time></trkpt><trkpt lat="43.87990830748145" lon="11.179543846383416"><ele>84.5</ele><time>2026-04-07T07:57:19Z</time></trkpt><trkpt lat="43.87998847145395" lon="11.17969902343746"><ele>85.75</ele><time>2026-04-07T07:57:20Z</time></trkpt><trkpt lat="43.880078901888034" lon="11.179857416288195"><ele>87.0</ele><time>2026-04-07T07:57:21Z</time></trkpt><trkpt lat="43.88017395613708" lon="11.179991525398975"><ele>87.0</ele><time>2026-04-07T07:57:22Z</time></trkpt><trkpt lat="43.880282821354825" lon="11.180114009224814"><ele>87.0</ele><time>2026-04-07T07:57:23Z</time></trkpt><trkpt lat="43.88039768342595" lon="11.180218714380004"><ele>87.0</ele><time>2026-04-07T07:57:24.001Z</time></trkpt><trkpt lat="43.880519049389" lon="11.18031206818781"><ele>87.0</ele><time>2026-04-07T07:57:25.001Z</time></trkpt><trkpt lat="43.88063939062619" lon="11.18038879582307"><ele>87.0</ele><time>2026-04-07T07:57:26.001Z</time></trkpt><trkpt lat="43.88076272129395" lon="11.180446318671251"><ele>87.0</ele><time>2026-04-07T07:57:27.001Z</time></trkpt><trkpt lat="43.88089254830864" lon="11.180491779714986"><ele>87.0</ele><time>2026-04-07T07:57:28.001Z</time></trkpt><trkpt lat="43.88101563647654" lon="11.180519543173068"><ele>87.0</ele><time>2026-04-07T07:57:29.001Z</time></trkpt><trkpt lat="43.881127602868496" lon="11.180530499056479"><ele>87.19999999999999</ele><time>2026-04-07T07:57:30.001Z</time></trkpt><trkpt lat="43.88123507698976" lon="11.180533733592306"><ele>87.4</ele><time>2026-04-07T07:57:31.001Z</time></trkpt><trkpt lat="43.881334051125194" lon="11.18052105419466"><ele>87.6</ele><time>2026-04-07T07:57:32.001Z</time></trkpt><trkpt lat="43.8814173964125" lon="11.180465531648661"><ele>87.80000000000001</ele><time>2026-04-07T07:57:33.001Z</time></trkpt><trkpt lat="43.881484419361726" lon="11.180466801523188"><ele>88.0</ele><time>2026-04-07T07:57:34.001Z</time></trkpt><trkpt lat="43.88160596459259" lon="11.180434511698929"><ele>88.0</ele><time>2026-04-07T07:57:36.001Z</time></trkpt><trkpt lat="43.88168212982736" lon="11.180455004275093"><ele>88.0</ele><time>2026-04-07T07:57:37.001Z</time></trkpt><trkpt lat="43.8817667889398" lon="11.180474406804835"><ele>88.0</ele><time>2026-04-07T07:57:38.001Z</time></trkpt><trkpt lat="43.88183886825686" lon="11.180445408488364"><ele>88.0</ele><time>2026-04-07T07:57:39.001Z</time></trkpt><trkpt lat="43.88191097580496" lon="11.180385807045496"><ele>88.0</ele><time>2026-04-07T07:57:40.001Z</time></trkpt><trkpt lat="43.88198713289958" lon="11.18033053512214"><ele>88.0</ele><time>2026-04-07T07:57:41.001Z</time></trkpt><trkpt lat="43.882088150444886" lon="11.180295474546643"><ele>88.5</ele><time>2026-04-07T07:57:42.001Z</time></trkpt><trkpt lat="43.88219105084914" lon="11.180300132930153"><ele>89.0</ele><time>2026-04-07T07:57:43.001Z</time></trkpt><trkpt lat="43.882289730043716" lon="11.180326598278628"><ele>89.5</ele><time>2026-04-07T07:57:44.001Z</time></trkpt><trkpt lat="43.88236759444033" lon="11.180355169594298"><ele>90.0</ele><time>2026-04-07T07:57:45.001Z</time></trkpt><trkpt lat="43.88243196137041" lon="11.180384185128188"><ele>90.5</ele><time>2026-04-07T07:57:46.001Z</time></trkpt><trkpt lat="43.88250540580929" lon="11.180414254328234"><ele>91.0</ele><time>2026-04-07T07:57:47.001Z</time></trkpt><trkpt lat="43.88257998427904" lon="11.180442876282726"><ele>91.0</ele><time>2026-04-07T07:57:48.001Z</time></trkpt><trkpt lat="43.882651772337404" lon="11.180472815685597"><ele>91.0</ele><time>2026-04-07T07:57:49.001Z</time></trkpt><trkpt lat="43.88271687702836" lon="11.180503934011567"><ele>91.0</ele><time>2026-04-07T07:57:50.001Z</time></trkpt><trkpt lat="43.88278638014714" lon="11.18053462791851"><ele>91.0</ele><time>2026-04-07T07:57:51.001Z</time></trkpt><trkpt lat="43.88285102554963" lon="11.180566224336609"><ele>91.0</ele><time>2026-04-07T07:57:52.001Z</time></trkpt><trkpt lat="43.88292184032405" lon="11.180608690696475"><ele>91.0</ele><time>2026-04-07T07:57:53.001Z</time></trkpt><trkpt lat="43.88300366203957" lon="11.180653837839497"><ele>91.0</ele><time>2026-04-07T07:57:54.001Z</time></trkpt><trkpt lat="43.88307280735519" lon="11.18068167283611"><ele>91.0</ele><time>2026-04-07T07:57:55.001Z</time></trkpt><trkpt lat="43.88313432343654" lon="11.180703216056214"><ele>91.0</ele><time>2026-04-07T07:57:56.001Z</time></trkpt><trkpt lat="43.88323982785598" lon="11.180756261868314"><ele>91.0</ele><time>2026-04-07T07:57:58.001Z</time></trkpt><trkpt lat="43.88333948750097" lon="11.180825227659227"><ele>91.0</ele><time>2026-04-07T07:58:00.001Z</time></trkpt><trkpt lat="43.88339051423588" lon="11.180890917070453"><ele>91.0</ele><time>2026-04-07T07:58:01.001Z</time></trkpt><trkpt lat="43.8834317094711" lon="11.180962641830774"><ele>91.0</ele><time>2026-04-07T07:58:02.001Z</time></trkpt><trkpt lat="43.88348199545538" lon="11.181015885493755"><ele>91.0</ele><time>2026-04-07T07:58:03.001Z</time></trkpt><trkpt lat="43.88361123042415" lon="11.181028058096711"><ele>91.0</ele><time>2026-04-07T07:58:05.001Z</time></trkpt><trkpt lat="43.883771941298086" lon="11.180933255452647"><ele>91.0</ele><time>2026-04-07T07:58:07.001Z</time></trkpt><trkpt lat="43.883870973828756" lon="11.180897887583187"><ele>91.0</ele><time>2026-04-07T07:58:08.001Z</time></trkpt><trkpt lat="43.883969482591105" lon="11.18090876920551"><ele>91.0</ele><time>2026-04-07T07:58:09.001Z</time></trkpt><trkpt lat="43.88407558786702" lon="11.180931286256016"><ele>91.0</ele><time>2026-04-07T07:58:10.001Z</time></trkpt><trkpt lat="43.884195529643435" lon="11.180951993471451"><ele>91.0</ele><time>2026-04-07T07:58:11.001Z</time></trkpt><trkpt lat="43.88431489144355" lon="11.180961079338958"><ele>91.0</ele><time>2026-04-07T07:58:12.001Z</time></trkpt><trkpt lat="43.884443929623146" lon="11.180970314160056"><ele>91.0</ele><time>2026-04-07T07:58:13.001Z</time></trkpt><trkpt lat="43.88456919446209" lon="11.180981263467812"><ele>91.0</ele><time>2026-04-07T07:58:14.001Z</time></trkpt><trkpt lat="43.884688052340486" lon="11.180992799177542"><ele>91.0</ele><time>2026-04-07T07:58:15.001Z</time></trkpt><trkpt lat="43.88481540525775" lon="11.18100774996491"><ele>91.0</ele><time>2026-04-07T07:58:16.001Z</time></trkpt><trkpt lat="43.88494922489683" lon="11.181028511471213"><ele>91.0</ele><time>2026-04-07T07:58:17.001Z</time></trkpt><trkpt lat="43.88507823881764" lon="11.18105681325127"><ele>91.0</ele><time>2026-04-07T07:58:18.001Z</time></trkpt><trkpt lat="43.885200846921926" lon="11.181092868111756"><ele>91.0</ele><time>2026-04-07T07:58:19.001Z</time></trkpt><trkpt lat="43.885311180642894" lon="11.181132595463565"><ele>91.0</ele><time>2026-04-07T07:58:20.001Z</time></trkpt><trkpt lat="43.8854253443331" lon="11.181173414211406"><ele>91.0</ele><time>2026-04-07T07:58:21.001Z</time></trkpt><trkpt lat="43.88552632018533" lon="11.181213891416721"><ele>91.0</ele><time>2026-04-07T07:58:22.001Z</time></trkpt><trkpt lat="43.88562005954891" lon="11.181255861703454"><ele>91.0</ele><time>2026-04-07T07:58:23.001Z</time></trkpt><trkpt lat="43.88572677629925" lon="11.18130509187166"><ele>91.0</ele><time>2026-04-07T07:58:24.001Z</time></trkpt><trkpt lat="43.885845414898114" lon="11.181369693449216"><ele>91.0</ele><time>2026-04-07T07:58:25.001Z</time></trkpt><trkpt lat="43.88595652732791" lon="11.181438696689911"><ele>91.5</ele><time>2026-04-07T07:58:26.001Z</time></trkpt><trkpt lat="43.88607633273488" lon="11.181514859583006"><ele>92.0</ele><time>2026-04-07T07:58:27.001Z</time></trkpt><trkpt lat="43.88620863749246" lon="11.181599494709454"><ele>92.5</ele><time>2026-04-07T07:58:28.001Z</time></trkpt><trkpt lat="43.88634812339779" lon="11.181691993275289"><ele>93.0</ele><time>2026-04-07T07:58:29.001Z</time></trkpt><trkpt lat="43.88649314660926" lon="11.181821060009153"><ele>93.33333333333333</ele><time>2026-04-07T07:58:30.001Z</time></trkpt><trkpt lat="43.88666273762832" lon="11.181937184547124"><ele>93.66666666666666</ele><time>2026-04-07T07:58:31.001Z</time></trkpt><trkpt lat="43.88684454873686" lon="11.182038654245508"><ele>94.0</ele><time>2026-04-07T07:58:32.001Z</time></trkpt><trkpt lat="43.88702742315565" lon="11.182089931968827"><ele>94.0</ele><time>2026-04-07T07:58:33.001Z</time></trkpt><trkpt lat="43.88722753789323" lon="11.182138773671067"><ele>94.0</ele><time>2026-04-07T07:58:34.001Z</time></trkpt><trkpt lat="43.88743288961672" lon="11.182178758716288"><ele>94.0</ele><time>2026-04-07T07:58:35.001Z</time></trkpt><trkpt lat="43.887643274167594" lon="11.182230034381925"><ele>94.0</ele><time>2026-04-07T07:58:36.001Z</time></trkpt><trkpt lat="43.88786013906729" lon="11.182274816978904"><ele>94.0</ele><time>2026-04-07T07:58:37.001Z</time></trkpt><trkpt lat="43.88807136169941" lon="11.182321578133566"><ele>94.0</ele><time>2026-04-07T07:58:38.001Z</time></trkpt><trkpt lat="43.88827671498805" lon="11.182371687132989"><ele>97.0</ele><time>2026-04-07T07:58:39.001Z</time></trkpt><trkpt lat="43.88847396791474" lon="11.182422361260869"><ele>100.0</ele><time>2026-04-07T07:58:40.001Z</time></trkpt><trkpt lat="43.8886644888096" lon="11.182460425746438"><ele>103.0</ele><time>2026-04-07T07:58:41.001Z</time></trkpt><trkpt lat="43.88886822127701" lon="11.182482482215304"><ele>103.0</ele><time>2026-04-07T07:58:42.001Z</time></trkpt><trkpt lat="43.889074303555084" lon="11.18249975797421"><ele>103.0</ele><time>2026-04-07T07:58:43.001Z</time></trkpt><trkpt lat="43.88926124584896" lon="11.182522023681464"><ele>103.0</ele><time>2026-04-07T07:58:44.001Z</time></trkpt><trkpt lat="43.889435354817664" lon="11.182535196592932"><ele>102.33333333333334</ele><time>2026-04-07T07:58:45.001Z</time></trkpt><trkpt lat="43.88959609185289" lon="11.18254630421927"><ele>101.66666666666666</ele><time>2026-04-07T07:58:46.001Z</time></trkpt><trkpt lat="43.88975023136673" lon="11.182559233888298"><ele>101.0</ele><time>2026-04-07T07:58:47.001Z</time></trkpt><trkpt lat="43.88989246809878" lon="11.182572736372606"><ele>101.0</ele><time>2026-04-07T07:58:48.001Z</time></trkpt><trkpt lat="43.89002910372845" lon="11.182585720351348"><ele>101.0</ele><time>2026-04-07T07:58:49.001Z</time></trkpt><trkpt lat="43.890167485403246" lon="11.182594315379188"><ele>101.0</ele><time>2026-04-07T07:58:50.001Z</time></trkpt><trkpt lat="43.89030158406305" lon="11.18261544161604"><ele>101.0</ele><time>2026-04-07T07:58:51.001Z</time></trkpt><trkpt lat="43.8904349126875" lon="11.182638337466434"><ele>101.5</ele><time>2026-04-07T07:58:52.001Z</time></trkpt><trkpt lat="43.89056818949514" lon="11.182660273952566"><ele>102.0</ele><time>2026-04-07T07:58:53.001Z</time></trkpt><trkpt lat="43.89070074751222" lon="11.182677732745466"><ele>102.5</ele><time>2026-04-07T07:58:54.001Z</time></trkpt><trkpt lat="43.89083437238826" lon="11.182703223844204"><ele>103.0</ele><time>2026-04-07T07:58:55.001Z</time></trkpt><trkpt lat="43.89096650129115" lon="11.182732230094917"><ele>103.2</ele><time>2026-04-07T07:58:56.001Z</time></trkpt><trkpt lat="43.891098992469345" lon="11.182756524087548"><ele>103.4</ele><time>2026-04-07T07:58:57.001Z</time></trkpt><trkpt lat="43.89121047619607" lon="11.182784281664725"><ele>103.60000000000001</ele><time>2026-04-07T07:58:58.001Z</time></trkpt><trkpt lat="43.89130901305548" lon="11.182815879857307"><ele>103.80000000000001</ele><time>2026-04-07T07:58:59.001Z</time></trkpt><trkpt lat="43.891403031930196" lon="11.182845323941415"><ele>104.0</ele><time>2026-04-07T07:59:00.001Z</time></trkpt><trkpt lat="43.891480445215436" lon="11.182875357411916"><ele>104.0</ele><time>2026-04-07T07:59:01.001Z</time></trkpt><trkpt lat="43.89155196063982" lon="11.182907589054247"><ele>104.0</ele><time>2026-04-07T07:59:02.001Z</time></trkpt><trkpt lat="43.891624438941356" lon="11.18294181209038"><ele>104.0</ele><time>2026-04-07T07:59:03.001Z</time></trkpt><trkpt lat="43.89174389744298" lon="11.182999568262893"><ele>104.0</ele><time>2026-04-07T07:59:05.001Z</time></trkpt><trkpt lat="43.89183809142747" lon="11.18306304582952"><ele>104.0</ele><time>2026-04-07T07:59:07.001Z</time></trkpt><trkpt lat="43.89192345938533" lon="11.1831564550092"><ele>104.99999999999999</ele><time>2026-04-07T07:59:09.001Z</time></trkpt><trkpt lat="43.89197065268242" lon="11.183308721100587"><ele>106.0</ele><time>2026-04-07T07:59:11.001Z</time></trkpt><trkpt lat="43.89204431845916" lon="11.183429059393987"><ele>107.0</ele><time>2026-04-07T07:59:13.001Z</time></trkpt><trkpt lat="43.89210368982353" lon="11.183459752510993"><ele>108.0</ele><time>2026-04-07T07:59:14.001Z</time></trkpt><trkpt lat="43.89217373891095" lon="11.1834720899193"><ele>108.99999999999999</ele><time>2026-04-07T07:59:15.001Z</time></trkpt><trkpt lat="43.892244949059865" lon="11.183462420011002"><ele>110.0</ele><time>2026-04-07T07:59:16.001Z</time></trkpt><trkpt lat="43.89231936640965" lon="11.183467125678368"><ele>110.0</ele><time>2026-04-07T07:59:17.001Z</time></trkpt><trkpt lat="43.89240861083812" lon="11.183498738176048"><ele>110.0</ele><time>2026-04-07T07:59:18.001Z</time></trkpt><trkpt lat="43.89250659828842" lon="11.18357708366705"><ele>110.0</ele><time>2026-04-07T07:59:19.001Z</time></trkpt><trkpt lat="43.892606163329575" lon="11.183681405917124"><ele>110.0</ele><time>2026-04-07T07:59:20.001Z</time></trkpt><trkpt lat="43.89269002849156" lon="11.183791711902485"><ele>110.0</ele><time>2026-04-07T07:59:21.001Z</time></trkpt><trkpt lat="43.89277507236048" lon="11.183907338906577"><ele>110.25</ele><time>2026-04-07T07:59:22.001Z</time></trkpt><trkpt lat="43.89285661936597" lon="11.184020722866709"><ele>110.5</ele><time>2026-04-07T07:59:23.001Z</time></trkpt><trkpt lat="43.892941915656984" lon="11.184144247999498"><ele>110.75</ele><time>2026-04-07T07:59:24.001Z</time></trkpt><trkpt lat="43.89303309916971" lon="11.184284342496612"><ele>111.0</ele><time>2026-04-07T07:59:25.001Z</time></trkpt><trkpt lat="43.89312995571007" lon="11.184437645261355"><ele>111.0</ele><time>2026-04-07T07:59:26.001Z</time></trkpt><trkpt lat="43.89322979518029" lon="11.184596130322726"><ele>111.0</ele><time>2026-04-07T07:59:27.001Z</time></trkpt><trkpt lat="43.89331813334639" lon="11.18473363978905"><ele>111.0</ele><time>2026-04-07T07:59:28.001Z</time></trkpt><trkpt lat="43.893391727933455" lon="11.18485208835631"><ele>111.0</ele><time>2026-04-07T07:59:29.001Z</time></trkpt><trkpt lat="43.89346555483076" lon="11.184971681328742"><ele>111.75</ele><time>2026-04-07T07:59:30.001Z</time></trkpt><trkpt lat="43.89354404302563" lon="11.185095202881294"><ele>112.5</ele><time>2026-04-07T07:59:31.001Z</time></trkpt><trkpt lat="43.8936223054057" lon="11.185219306779006"><ele>113.25</ele><time>2026-04-07T07:59:32.001Z</time></trkpt><trkpt lat="43.893699870133574" lon="11.1853414459006"><ele>114.0</ele><time>2026-04-07T07:59:33.001Z</time></trkpt><trkpt lat="43.89377842265375" lon="11.185466957707227"><ele>114.0</ele><time>2026-04-07T07:59:34.001Z</time></trkpt><trkpt lat="43.89385200719475" lon="11.18558618852392"><ele>114.0</ele><time>2026-04-07T07:59:35.001Z</time></trkpt><trkpt lat="43.89391624809803" lon="11.185691745139971"><ele>114.0</ele><time>2026-04-07T07:59:36.001Z</time></trkpt><trkpt lat="43.893988116225394" lon="11.185808349958458"><ele>114.0</ele><time>2026-04-07T07:59:37.001Z</time></trkpt><trkpt lat="43.89406864984731" lon="11.185936035057546"><ele>114.0</ele><time>2026-04-07T07:59:38.001Z</time></trkpt><trkpt lat="43.89415577436825" lon="11.186072917863774"><ele>114.75</ele><time>2026-04-07T07:59:39.001Z</time></trkpt><trkpt lat="43.89424830423373" lon="11.186205930521437"><ele>115.5</ele><time>2026-04-07T07:59:40.001Z</time></trkpt><trkpt lat="43.89434586029071" lon="11.1863414118838"><ele>116.25</ele><time>2026-04-07T07:59:41.001Z</time></trkpt><trkpt lat="43.89444822298526" lon="11.186479725231829"><ele>117.0</ele><time>2026-04-07T07:59:42.001Z</time></trkpt><trkpt lat="43.89454849129601" lon="11.186605480987245"><ele>119.75</ele><time>2026-04-07T07:59:43.001Z</time></trkpt><trkpt lat="43.894649195029835" lon="11.186723730734617"><ele>122.5</ele><time>2026-04-07T07:59:44.001Z</time></trkpt><trkpt lat="43.89476111560479" lon="11.186845605744812"><ele>125.25</ele><time>2026-04-07T07:59:45.001Z</time></trkpt><trkpt lat="43.89488074861899" lon="11.186969742552067"><ele>128.0</ele><time>2026-04-07T07:59:46.001Z</time></trkpt><trkpt lat="43.895002395470904" lon="11.187086168586607"><ele>128.0</ele><time>2026-04-07T07:59:47.001Z</time></trkpt><trkpt lat="43.895138048097216" lon="11.187204253479992"><ele>128.0</ele><time>2026-04-07T07:59:48.001Z</time></trkpt><trkpt lat="43.895282700307746" lon="11.187348303527896"><ele>128.0</ele><time>2026-04-07T07:59:49.001Z</time></trkpt><trkpt lat="43.89546068211673" lon="11.187459133255176"><ele>128.0</ele><time>2026-04-07T07:59:50.001Z</time></trkpt><trkpt lat="43.89564335840577" lon="11.187587653389008"><ele>128.0</ele><time>2026-04-07T07:59:51.001Z</time></trkpt><trkpt lat="43.89582632112238" lon="11.187704731595714"><ele>128.0</ele><time>2026-04-07T07:59:52.001Z</time></trkpt><trkpt lat="43.89600468774978" lon="11.187799084941972"><ele>125.66666666666666</ele><time>2026-04-07T07:59:53.001Z</time></trkpt><trkpt lat="43.8961871522674" lon="11.18788367467057"><ele>123.33333333333334</ele><time>2026-04-07T07:59:54.001Z</time></trkpt><trkpt lat="43.89636571521434" lon="11.187957010817883"><ele>121.0</ele><time>2026-04-07T07:59:55.001Z</time></trkpt><trkpt lat="43.896541459989635" lon="11.1880153943915"><ele>121.0</ele><time>2026-04-07T07:59:56.001Z</time></trkpt><trkpt lat="43.89671956955262" lon="11.18807004043969"><ele>121.0</ele><time>2026-04-07T07:59:57.001Z</time></trkpt><trkpt lat="43.896893718846066" lon="11.18811007326962"><ele>121.0</ele><time>2026-04-07T07:59:58.001Z</time></trkpt><trkpt lat="43.897058050588626" lon="11.188150666067084"><ele>124.66666666666667</ele><time>2026-04-07T07:59:59.001Z</time></trkpt><trkpt lat="43.8972186583749" lon="11.188189517055228"><ele>128.33333333333334</ele><time>2026-04-07T08:00:00.001Z</time></trkpt><trkpt lat="43.8973699992756" lon="11.188227032756753"><ele>132.0</ele><time>2026-04-07T08:00:01.001Z</time></trkpt><trkpt lat="43.897522971189886" lon="11.188261711872265"><ele>129.75</ele><time>2026-04-07T08:00:02.001Z</time></trkpt><trkpt lat="43.89765552742353" lon="11.188292548575184"><ele>127.5</ele><time>2026-04-07T08:00:03.001Z</time></trkpt><trkpt lat="43.89778157886038" lon="11.188316274645135"><ele>125.25</ele><time>2026-04-07T08:00:04.001Z</time></trkpt><trkpt lat="43.897907187014994" lon="11.188330634242217"><ele>123.0</ele><time>2026-04-07T08:00:05.001Z</time></trkpt><trkpt lat="43.89802771184437" lon="11.188327539385618"><ele>123.0</ele><time>2026-04-07T08:00:06.001Z</time></trkpt><trkpt lat="43.89815244707456" lon="11.188313880918926"><ele>123.00000000000001</ele><time>2026-04-07T08:00:07.001Z</time></trkpt><trkpt lat="43.898265733495734" lon="11.188287766914222"><ele>123.00000000000001</ele><time>2026-04-07T08:00:08.001Z</time></trkpt><trkpt lat="43.8983610432014" lon="11.188255790901714"><ele>123.0</ele><time>2026-04-07T08:00:09.001Z</time></trkpt><trkpt lat="43.89843924459701" lon="11.188219083551479"><ele>123.0</ele><time>2026-04-07T08:00:10.001Z</time></trkpt><trkpt lat="43.89850440859128" lon="11.18818046490257"><ele>121.60000000000001</ele><time>2026-04-07T08:00:11.001Z</time></trkpt><trkpt lat="43.898562270093265" lon="11.188145726279465"><ele>120.20000000000002</ele><time>2026-04-07T08:00:12.001Z</time></trkpt><trkpt lat="43.89866581251966" lon="11.188089132501815"><ele>118.8</ele><time>2026-04-07T08:00:14.001Z</time></trkpt><trkpt lat="43.89876878179012" lon="11.188076435719852"><ele>117.4</ele><time>2026-04-07T08:00:16.001Z</time></trkpt><trkpt lat="43.898885473776495" lon="11.188098106900283"><ele>116.0</ele><time>2026-04-07T08:00:18.001Z</time></trkpt><trkpt lat="43.898989803716496" lon="11.188051055967339"><ele>115.99999999999999</ele><time>2026-04-07T08:00:20.001Z</time></trkpt><trkpt lat="43.89904457816293" lon="11.187996214326393"><ele>116.0</ele><time>2026-04-07T08:00:21.001Z</time></trkpt><trkpt lat="43.89910141672882" lon="11.1879515157539"><ele>116.0</ele><time>2026-04-07T08:00:22.001Z</time></trkpt><trkpt lat="43.89917333734641" lon="11.187937194287132"><ele>116.0</ele><time>2026-04-07T08:00:23.001Z</time></trkpt><trkpt lat="43.89925031221895" lon="11.18794829478527"><ele>115.99999999999999</ele><time>2026-04-07T08:00:24.001Z</time></trkpt><trkpt lat="43.89933546682628" lon="11.18798548570068"><ele>116.0</ele><time>2026-04-07T08:00:25.001Z</time></trkpt><trkpt lat="43.899415181919025" lon="11.188042162417608"><ele>116.5</ele><time>2026-04-07T08:00:26.001Z</time></trkpt><trkpt lat="43.89950657165867" lon="11.188122595815225"><ele>117.0</ele><time>2026-04-07T08:00:27.001Z</time></trkpt><trkpt lat="43.89960553137654" lon="11.188203680837084"><ele>117.5</ele><time>2026-04-07T08:00:28.001Z</time></trkpt><trkpt lat="43.89971033079732" lon="11.188290786350938"><ele>118.0</ele><time>2026-04-07T08:00:29.001Z</time></trkpt><trkpt lat="43.899825662624885" lon="11.188378659629244"><ele>118.5</ele><time>2026-04-07T08:00:30.001Z</time></trkpt><trkpt lat="43.89995070747728" lon="11.18847410726467"><ele>119.0</ele><time>2026-04-07T08:00:31.001Z</time></trkpt><trkpt lat="43.90006861489562" lon="11.188567017523443"><ele>119.5</ele><time>2026-04-07T08:00:32.001Z</time></trkpt><trkpt lat="43.90018802238686" lon="11.188665998659992"><ele>120.0</ele><time>2026-04-07T08:00:33.001Z</time></trkpt><trkpt lat="43.90030289377623" lon="11.188758764645742"><ele>120.25</ele><time>2026-04-07T08:00:34.001Z</time></trkpt><trkpt lat="43.90042216948679" lon="11.188838442596992"><ele>120.5</ele><time>2026-04-07T08:00:35.001Z</time></trkpt><trkpt lat="43.90054854914388" lon="11.18893745493915"><ele>120.75</ele><time>2026-04-07T08:00:36.001Z</time></trkpt><trkpt lat="43.90070982880211" lon="11.188989865858101"><ele>121.0</ele><time>2026-04-07T08:00:37.001Z</time></trkpt><trkpt lat="43.90087629424516" lon="11.189026382946167"><ele>121.33333333333334</ele><time>2026-04-07T08:00:38.001Z</time></trkpt><trkpt lat="43.901060826365644" lon="11.189064434104251"><ele>121.66666666666666</ele><time>2026-04-07T08:00:39.001Z</time></trkpt><trkpt lat="43.90125965605105" lon="11.189106166476614"><ele>122.0</ele><time>2026-04-07T08:00:40.001Z</time></trkpt><trkpt lat="43.90146616264325" lon="11.189147448221748"><ele>122.0</ele><time>2026-04-07T08:00:41.001Z</time></trkpt><trkpt lat="43.901682111171205" lon="11.189167724998532"><ele>122.0</ele><time>2026-04-07T08:00:42.001Z</time></trkpt><trkpt lat="43.90191167448888" lon="11.189172303158438"><ele>122.0</ele><time>2026-04-07T08:00:43.001Z</time></trkpt><trkpt lat="43.90214573876975" lon="11.189174577282083"><ele>122.5</ele><time>2026-04-07T08:00:44.001Z</time></trkpt><trkpt lat="43.902390291049144" lon="11.189178869564026"><ele>123.0</ele><time>2026-04-07T08:00:45.001Z</time></trkpt><trkpt lat="43.902632396487455" lon="11.189162264520641"><ele>124.0</ele><time>2026-04-07T08:00:46.001Z</time></trkpt><trkpt lat="43.902871861935004" lon="11.189170373756236"><ele>125.0</ele><time>2026-04-07T08:00:47.001Z</time></trkpt><trkpt lat="43.9031086117677" lon="11.189180712325893"><ele>125.0</ele><time>2026-04-07T08:00:48.001Z</time></trkpt><trkpt lat="43.90334357585003" lon="11.189195055148275"><ele>125.0</ele><time>2026-04-07T08:00:49.001Z</time></trkpt><trkpt lat="43.9035760099307" lon="11.189210977047276"><ele>126.0</ele><time>2026-04-07T08:00:50.001Z</time></trkpt><trkpt lat="43.90379943023862" lon="11.189227939054671"><ele>127.0</ele><time>2026-04-07T08:00:51.001Z</time></trkpt><trkpt lat="43.90400554434122" lon="11.189242736045074"><ele>128.0</ele><time>2026-04-07T08:00:52.001Z</time></trkpt><trkpt lat="43.90419451283139" lon="11.18925925874308"><ele>128.0</ele><time>2026-04-07T08:00:53.001Z</time></trkpt><trkpt lat="43.90435538825533" lon="11.18928566837715"><ele>128.0</ele><time>2026-04-07T08:00:54.001Z</time></trkpt><trkpt lat="43.904498935518966" lon="11.18933339408102"><ele>128.0</ele><time>2026-04-07T08:00:55.001Z</time></trkpt><trkpt lat="43.90464675852676" lon="11.1894132275846"><ele>128.0</ele><time>2026-04-07T08:00:56.001Z</time></trkpt><trkpt lat="43.90479921792238" lon="11.189530965466089"><ele>128.0</ele><time>2026-04-07T08:00:57.001Z</time></trkpt><trkpt lat="43.904942062835104" lon="11.18966506613187"><ele>128.0</ele><time>2026-04-07T08:00:58.001Z</time></trkpt><trkpt lat="43.90510071879075" lon="11.189808185677162"><ele>129.0</ele><time>2026-04-07T08:00:59.001Z</time></trkpt><trkpt lat="43.90527808893391" lon="11.189958206286676"><ele>130.0</ele><time>2026-04-07T08:01:00.001Z</time></trkpt><trkpt lat="43.90546414693238" lon="11.1901125499099"><ele>131.0</ele><time>2026-04-07T08:01:01.001Z</time></trkpt><trkpt lat="43.90565763238301" lon="11.190271052308606"><ele>131.0</ele><time>2026-04-07T08:01:02.001Z</time></trkpt><trkpt lat="43.90585000903252" lon="11.190430230252607"><ele>131.0</ele><time>2026-04-07T08:01:03.001Z</time></trkpt><trkpt lat="43.90604456547608" lon="11.19059328447176"><ele>132.33333333333331</ele><time>2026-04-07T08:01:04.001Z</time></trkpt><trkpt lat="43.90623001600731" lon="11.190745922104146"><ele>133.66666666666666</ele><time>2026-04-07T08:01:05.001Z</time></trkpt><trkpt lat="43.90640796044665" lon="11.190873108950578"><ele>135.0</ele><time>2026-04-07T08:01:06.001Z</time></trkpt><trkpt lat="43.90658599998718" lon="11.190966365629025"><ele>135.66666666666666</ele><time>2026-04-07T08:01:07.001Z</time></trkpt><trkpt lat="43.90677420234751" lon="11.191053545125868"><ele>136.33333333333331</ele><time>2026-04-07T08:01:08.001Z</time></trkpt><trkpt lat="43.90696810285643" lon="11.19117063507074"><ele>137.0</ele><time>2026-04-07T08:01:09.001Z</time></trkpt><trkpt lat="43.9071574956591" lon="11.191337970656319"><ele>140.0</ele><time>2026-04-07T08:01:10.001Z</time></trkpt><trkpt lat="43.90734789190945" lon="11.191514133888573"><ele>143.0</ele><time>2026-04-07T08:01:11.001Z</time></trkpt><trkpt lat="43.907547968511636" lon="11.191682258837691"><ele>142.0</ele><time>2026-04-07T08:01:12.001Z</time></trkpt><trkpt lat="43.90774946888744" lon="11.191843811623093"><ele>141.0</ele><time>2026-04-07T08:01:13.001Z</time></trkpt><trkpt lat="43.9079489528975" lon="11.191981095659846"><ele>141.0</ele><time>2026-04-07T08:01:14.001Z</time></trkpt><trkpt lat="43.90815924125857" lon="11.19208391042597"><ele>141.0</ele><time>2026-04-07T08:01:15.001Z</time></trkpt><trkpt lat="43.90838659278005" lon="11.192157709503936"><ele>141.5</ele><time>2026-04-07T08:01:16.001Z</time></trkpt><trkpt lat="43.90862068158439" lon="11.192207337888117"><ele>142.0</ele><time>2026-04-07T08:01:17.001Z</time></trkpt><trkpt lat="43.90885095911222" lon="11.19224388924247"><ele>142.0</ele><time>2026-04-07T08:01:18.001Z</time></trkpt><trkpt lat="43.90905805580695" lon="11.19229302160496"><ele>142.0</ele><time>2026-04-07T08:01:19.001Z</time></trkpt><trkpt lat="43.90925688176135" lon="11.192370920868068"><ele>142.0</ele><time>2026-04-07T08:01:20.001Z</time></trkpt><trkpt lat="43.909461408835924" lon="11.19249467310402"><ele>143.0</ele><time>2026-04-07T08:01:21.001Z</time></trkpt><trkpt lat="43.90967066153667" lon="11.192645965023715"><ele>144.0</ele><time>2026-04-07T08:01:22.001Z</time></trkpt><trkpt lat="43.90988567782987" lon="11.19280151652978"><ele>145.5</ele><time>2026-04-07T08:01:23.001Z</time></trkpt><trkpt lat="43.91010375151895" lon="11.192950545947618"><ele>147.0</ele><time>2026-04-07T08:01:24.001Z</time></trkpt><trkpt lat="43.91032480247604" lon="11.193097742489664"><ele>151.0</ele><time>2026-04-07T08:01:25.001Z</time></trkpt><trkpt lat="43.910549506297315" lon="11.19324960523182"><ele>155.0</ele><time>2026-04-07T08:01:26.001Z</time></trkpt><trkpt lat="43.91077658567432" lon="11.19340596948618"><ele>152.5</ele><time>2026-04-07T08:01:27.001Z</time></trkpt><trkpt lat="43.91100560644042" lon="11.193565819056353"><ele>150.0</ele><time>2026-04-07T08:01:28.001Z</time></trkpt><trkpt lat="43.91123320814314" lon="11.193716765228872"><ele>150.0</ele><time>2026-04-07T08:01:29.001Z</time></trkpt><trkpt lat="43.91144704574602" lon="11.193869235567558"><ele>150.0</ele><time>2026-04-07T08:01:30.001Z</time></trkpt><trkpt lat="43.91165328496277" lon="11.194012945482699"><ele>151.0</ele><time>2026-04-07T08:01:31.001Z</time></trkpt><trkpt lat="43.91186175866392" lon="11.194155800183434"><ele>152.0</ele><time>2026-04-07T08:01:32.001Z</time></trkpt><trkpt lat="43.91207963061124" lon="11.194297719366364"><ele>152.0</ele><time>2026-04-07T08:01:33.001Z</time></trkpt><trkpt lat="43.91230074820798" lon="11.194454463318108"><ele>152.0</ele><time>2026-04-07T08:01:34.001Z</time></trkpt><trkpt lat="43.91251821575957" lon="11.194619897756676"><ele>152.0</ele><time>2026-04-07T08:01:35.001Z</time></trkpt><trkpt lat="43.9127329297106" lon="11.194782302105773"><ele>152.0</ele><time>2026-04-07T08:01:36.001Z</time></trkpt><trkpt lat="43.912938146465606" lon="11.19492960159859"><ele>153.0</ele><time>2026-04-07T08:01:37.001Z</time></trkpt><trkpt lat="43.913135285255144" lon="11.195073504088256"><ele>154.0</ele><time>2026-04-07T08:01:38.001Z</time></trkpt><trkpt lat="43.91332194973657" lon="11.195219575027835"><ele>155.0</ele><time>2026-04-07T08:01:39.001Z</time></trkpt><trkpt lat="43.91349227189868" lon="11.195375998029446"><ele>155.0</ele><time>2026-04-07T08:01:40.001Z</time></trkpt><trkpt lat="43.91365768656002" lon="11.19556070450223"><ele>155.0</ele><time>2026-04-07T08:01:41.001Z</time></trkpt><trkpt lat="43.913814395535965" lon="11.195772573124387"><ele>155.0</ele><time>2026-04-07T08:01:42.001Z</time></trkpt><trkpt lat="43.913963246864334" lon="11.195982035448514"><ele>155.66666666666666</ele><time>2026-04-07T08:01:43.001Z</time></trkpt><trkpt lat="43.914115670890716" lon="11.196175465992258"><ele>156.33333333333334</ele><time>2026-04-07T08:01:44.001Z</time></trkpt><trkpt lat="43.91427372627892" lon="11.196332465571597"><ele>157.0</ele><time>2026-04-07T08:01:45.001Z</time></trkpt><trkpt lat="43.91444593528925" lon="11.196478539410174"><ele>158.66666666666669</ele><time>2026-04-07T08:01:46.001Z</time></trkpt><trkpt lat="43.91462469045865" lon="11.19661224250608"><ele>160.33333333333334</ele><time>2026-04-07T08:01:47.001Z</time></trkpt><trkpt lat="43.914808367542626" lon="11.196738396225117"><ele>162.0</ele><time>2026-04-07T08:01:48.001Z</time></trkpt><trkpt lat="43.91499823984685" lon="11.196867414941487"><ele>161.66666666666666</ele><time>2026-04-07T08:01:49.001Z</time></trkpt><trkpt lat="43.91519130496683" lon="11.196998646592661"><ele>161.33333333333331</ele><time>2026-04-07T08:01:50.001Z</time></trkpt><trkpt lat="43.91539121649477" lon="11.197130961303552"><ele>161.0</ele><time>2026-04-07T08:01:51.001Z</time></trkpt><trkpt lat="43.91559064601332" lon="11.1972580313786"><ele>164.0</ele><time>2026-04-07T08:01:52.001Z</time></trkpt><trkpt lat="43.915799313710366" lon="11.197393298711754"><ele>167.0</ele><time>2026-04-07T08:01:53.001Z</time></trkpt><trkpt lat="43.916009166094575" lon="11.197523587136867"><ele>167.0</ele><time>2026-04-07T08:01:54.001Z</time></trkpt><trkpt lat="43.91622632661975" lon="11.197652736507479"><ele>167.0</ele><time>2026-04-07T08:01:55.001Z</time></trkpt><trkpt lat="43.916442856424304" lon="11.197779443131783"><ele>167.0</ele><time>2026-04-07T08:01:56.001Z</time></trkpt><trkpt lat="43.91666081014525" lon="11.197906017252176"><ele>167.0</ele><time>2026-04-07T08:01:57.001Z</time></trkpt><trkpt lat="43.916881657375065" lon="11.198043636160643"><ele>169.33333333333331</ele><time>2026-04-07T08:01:58.001Z</time></trkpt><trkpt lat="43.91709298256337" lon="11.198181550707902"><ele>171.66666666666666</ele><time>2026-04-07T08:01:59.001Z</time></trkpt><trkpt lat="43.91728443075205" lon="11.198311581499873"><ele>174.0</ele><time>2026-04-07T08:02:00.001Z</time></trkpt><trkpt lat="43.91747623433975" lon="11.198445143249318"><ele>173.0</ele><time>2026-04-07T08:02:01.001Z</time></trkpt><trkpt lat="43.917667357667355" lon="11.19858503710036"><ele>172.0</ele><time>2026-04-07T08:02:02.001Z</time></trkpt><trkpt lat="43.9178504449971" lon="11.198713571616047"><ele>171.0</ele><time>2026-04-07T08:02:03.001Z</time></trkpt><trkpt lat="43.918016816078044" lon="11.198837392824615"><ele>171.0</ele><time>2026-04-07T08:02:04.001Z</time></trkpt><trkpt lat="43.91816559417099" lon="11.198958619762077"><ele>171.0</ele><time>2026-04-07T08:02:05.001Z</time></trkpt><trkpt lat="43.918304207007736" lon="11.19909821198033"><ele>171.0</ele><time>2026-04-07T08:02:06.001Z</time></trkpt><trkpt lat="43.918424646358496" lon="11.19926528053729"><ele>171.66666666666666</ele><time>2026-04-07T08:02:07.001Z</time></trkpt><trkpt lat="43.91853479238626" lon="11.199457735323115"><ele>172.33333333333331</ele><time>2026-04-07T08:02:08.001Z</time></trkpt><trkpt lat="43.91864976005944" lon="11.199671291024497"><ele>173.0</ele><time>2026-04-07T08:02:09.001Z</time></trkpt><trkpt lat="43.91876999068853" lon="11.199896991383767"><ele>176.33333333333331</ele><time>2026-04-07T08:02:10.001Z</time></trkpt><trkpt lat="43.918879535210834" lon="11.200104492920554"><ele>179.66666666666666</ele><time>2026-04-07T08:02:11.001Z</time></trkpt><trkpt lat="43.91897952489043" lon="11.20027149611899"><ele>183.0</ele><time>2026-04-07T08:02:12.001Z</time></trkpt><trkpt lat="43.91908781133438" lon="11.200422535194221"><ele>183.0</ele><time>2026-04-07T08:02:13.001Z</time></trkpt><trkpt lat="43.919202736493375" lon="11.200559725037976"><ele>183.0</ele><time>2026-04-07T08:02:14.001Z</time></trkpt><trkpt lat="43.91931954545086" lon="11.200706248704737"><ele>183.0</ele><time>2026-04-07T08:02:15.001Z</time></trkpt><trkpt lat="43.91943780232543" lon="11.200871302939136"><ele>183.66666666666666</ele><time>2026-04-07T08:02:16.001Z</time></trkpt><trkpt lat="43.919569640481804" lon="11.20107002018361"><ele>184.33333333333331</ele><time>2026-04-07T08:02:17.001Z</time></trkpt><trkpt lat="43.91970990093349" lon="11.201284535042326"><ele>185.0</ele><time>2026-04-07T08:02:18.001Z</time></trkpt><trkpt lat="43.91984818821078" lon="11.201506046941464"><ele>185.66666666666666</ele><time>2026-04-07T08:02:19.001Z</time></trkpt><trkpt lat="43.91996039940605" lon="11.201707243562833"><ele>186.33333333333334</ele><time>2026-04-07T08:02:20.001Z</time></trkpt><trkpt lat="43.92005942724862" lon="11.20189920426906"><ele>187.0</ele><time>2026-04-07T08:02:21.001Z</time></trkpt><trkpt lat="43.920148008443064" lon="11.202089835217963"><ele>187.0</ele><time>2026-04-07T08:02:22.001Z</time></trkpt><trkpt lat="43.92023006787545" lon="11.202289675878943"><ele>187.0</ele><time>2026-04-07T08:02:23.001Z</time></trkpt><trkpt lat="43.920300921564994" lon="11.202482123320317"><ele>187.0</ele><time>2026-04-07T08:02:24.001Z</time></trkpt><trkpt lat="43.92036674727311" lon="11.202643878996838"><ele>190.0</ele><time>2026-04-07T08:02:25.001Z</time></trkpt><trkpt lat="43.92041889357662" lon="11.202771996430522"><ele>193.0</ele><time>2026-04-07T08:02:26.001Z</time></trkpt><trkpt lat="43.920473130810144" lon="11.202894886275866"><ele>196.0</ele><time>2026-04-07T08:02:27.001Z</time></trkpt><trkpt lat="43.92054343274338" lon="11.203042311066541"><ele>199.0</ele><time>2026-04-07T08:02:28.001Z</time></trkpt><trkpt lat="43.92063959946224" lon="11.20320599781583"><ele>198.0</ele><time>2026-04-07T08:02:29.001Z</time></trkpt><trkpt lat="43.92076294688407" lon="11.20337360355872"><ele>197.0</ele><time>2026-04-07T08:02:30.001Z</time></trkpt><trkpt lat="43.92090489946091" lon="11.203528643741508"><ele>196.0</ele><time>2026-04-07T08:02:31.001Z</time></trkpt><trkpt lat="43.92107116363459" lon="11.203671171267015"><ele>196.0</ele><time>2026-04-07T08:02:32.001Z</time></trkpt><trkpt lat="43.92126119610913" lon="11.203786309202519"><ele>196.0</ele><time>2026-04-07T08:02:33.001Z</time></trkpt><trkpt lat="43.9214240385453" lon="11.203898306759102"><ele>196.0</ele><time>2026-04-07T08:02:34.001Z</time></trkpt><trkpt lat="43.92157217777605" lon="11.204036110023889"><ele>194.66666666666666</ele><time>2026-04-07T08:02:35.001Z</time></trkpt><trkpt lat="43.92170774860224" lon="11.204204613328338"><ele>193.33333333333331</ele><time>2026-04-07T08:02:36.001Z</time></trkpt><trkpt lat="43.9218312965439" lon="11.204406080400297"><ele>192.0</ele><time>2026-04-07T08:02:37.001Z</time></trkpt><trkpt lat="43.921935778608" lon="11.204630305998815"><ele>194.0</ele><time>2026-04-07T08:02:38.001Z</time></trkpt><trkpt lat="43.92203106699989" lon="11.204876060071165"><ele>196.0</ele><time>2026-04-07T08:02:39.001Z</time></trkpt><trkpt lat="43.92212260254468" lon="11.205128213624302"><ele>198.0</ele><time>2026-04-07T08:02:40.001Z</time></trkpt><trkpt lat="43.92220985929577" lon="11.20538028658137"><ele>198.0</ele><time>2026-04-07T08:02:41.001Z</time></trkpt><trkpt lat="43.922294912438964" lon="11.205624759004772"><ele>198.0</ele><time>2026-04-07T08:02:42.001Z</time></trkpt><trkpt lat="43.92238198923804" lon="11.205879030305185"><ele>198.0</ele><time>2026-04-07T08:02:43.001Z</time></trkpt><trkpt lat="43.92246672928044" lon="11.20611819075815"><ele>200.0</ele><time>2026-04-07T08:02:44.001Z</time></trkpt><trkpt lat="43.922549415048714" lon="11.206339003931884"><ele>202.0</ele><time>2026-04-07T08:02:45.001Z</time></trkpt><trkpt lat="43.92262956545653" lon="11.206547306360044"><ele>204.0</ele><time>2026-04-07T08:02:46.002Z</time></trkpt><trkpt lat="43.92270898528095" lon="11.206737686932698"><ele>200.0</ele><time>2026-04-07T08:02:47.002Z</time></trkpt><trkpt lat="43.92279616202667" lon="11.206923266848225"><ele>196.0</ele><time>2026-04-07T08:02:48.002Z</time></trkpt><trkpt lat="43.92289269235231" lon="11.207109517283172"><ele>192.0</ele><time>2026-04-07T08:02:49.002Z</time></trkpt><trkpt lat="43.923005672256" lon="11.207289006461325"><ele>194.66666666666669</ele><time>2026-04-07T08:02:50.002Z</time></trkpt><trkpt lat="43.923118602351" lon="11.207468083196217"><ele>197.33333333333334</ele><time>2026-04-07T08:02:51.002Z</time></trkpt><trkpt lat="43.92322590285732" lon="11.207640637487652"><ele>200.0</ele><time>2026-04-07T08:02:52.002Z</time></trkpt><trkpt lat="43.92332657599297" lon="11.207791827516486"><ele>200.66666666666669</ele><time>2026-04-07T08:02:53.002Z</time></trkpt><trkpt lat="43.92343122109777" lon="11.20795595388079"><ele>201.33333333333331</ele><time>2026-04-07T08:02:54.002Z</time></trkpt><trkpt lat="43.92353210395091" lon="11.208116667519358"><ele>202.0</ele><time>2026-04-07T08:02:55.002Z</time></trkpt><trkpt lat="43.92364104159024" lon="11.208260270790445"><ele>202.0</ele><time>2026-04-07T08:02:56.002Z</time></trkpt><trkpt lat="43.92377284027977" lon="11.208377525906206"><ele>202.0</ele><time>2026-04-07T08:02:57.002Z</time></trkpt><trkpt lat="43.92392214015407" lon="11.208458701593608"><ele>202.0</ele><time>2026-04-07T08:02:58.001Z</time></trkpt><trkpt lat="43.92407230359479" lon="11.208502031687756"><ele>209.33333333333331</ele><time>2026-04-07T08:02:59.001Z</time></trkpt><trkpt lat="43.92423414438478" lon="11.208506940468279"><ele>216.66666666666669</ele><time>2026-04-07T08:03:00.001Z</time></trkpt><trkpt lat="43.92439848403186" lon="11.208471214442019"><ele>224.0</ele><time>2026-04-07T08:03:01.001Z</time></trkpt><trkpt lat="43.92455519486512" lon="11.208400176535841"><ele>224.0</ele><time>2026-04-07T08:03:02.001Z</time></trkpt><trkpt lat="43.924701874805294" lon="11.208292712046791"><ele>224.0</ele><time>2026-04-07T08:03:03.001Z</time></trkpt><trkpt lat="43.924837545932625" lon="11.208151721282691"><ele>224.0</ele><time>2026-04-07T08:03:04.001Z</time></trkpt><trkpt lat="43.92494623222651" lon="11.208009685144486"><ele>221.75</ele><time>2026-04-07T08:03:05.001Z</time></trkpt><trkpt lat="43.925041469843876" lon="11.207910818337968"><ele>219.5</ele><time>2026-04-07T08:03:06.001Z</time></trkpt><trkpt lat="43.92517819105112" lon="11.207882592484205"><ele>217.25</ele><time>2026-04-07T08:03:07.001Z</time></trkpt><trkpt lat="43.92533078968302" lon="11.207835720546825"><ele>215.0</ele><time>2026-04-07T08:03:08.001Z</time></trkpt><trkpt lat="43.92551296142385" lon="11.207832979813276"><ele>215.0</ele><time>2026-04-07T08:03:09.001Z</time></trkpt><trkpt lat="43.92570148610007" lon="11.207835589723572"><ele>215.0</ele><time>2026-04-07T08:03:10.001Z</time></trkpt><trkpt lat="43.92587453653865" lon="11.207869986624967"><ele>215.0</ele><time>2026-04-07T08:03:11.001Z</time></trkpt><trkpt lat="43.92608388004477" lon="11.207922466813123"><ele>215.66666666666669</ele><time>2026-04-07T08:03:12.001Z</time></trkpt><trkpt lat="43.926287050359164" lon="11.207978265774345"><ele>216.33333333333331</ele><time>2026-04-07T08:03:13.001Z</time></trkpt><trkpt lat="43.92649859611082" lon="11.208034738084082"><ele>217.0</ele><time>2026-04-07T08:03:14.001Z</time></trkpt><trkpt lat="43.92671260652815" lon="11.208074417907545"><ele>218.0</ele><time>2026-04-07T08:03:15.001Z</time></trkpt><trkpt lat="43.926920843242065" lon="11.20806580057002"><ele>219.0</ele><time>2026-04-07T08:03:16.001Z</time></trkpt><trkpt lat="43.927131639522905" lon="11.20811124006875"><ele>220.0</ele><time>2026-04-07T08:03:17.001Z</time></trkpt><trkpt lat="43.927340960682585" lon="11.208146201650115"><ele>226.33333333333331</ele><time>2026-04-07T08:03:18.001Z</time></trkpt><trkpt lat="43.927523162393605" lon="11.208176366667393"><ele>232.66666666666669</ele><time>2026-04-07T08:03:19.001Z</time></trkpt><trkpt lat="43.92769393322622" lon="11.208220134966632"><ele>239.0</ele><time>2026-04-07T08:03:20.001Z</time></trkpt><trkpt lat="43.92787033161127" lon="11.20831956702034"><ele>239.0</ele><time>2026-04-07T08:03:21.001Z</time></trkpt><trkpt lat="43.92805718404164" lon="11.20843472700268"><ele>239.0</ele><time>2026-04-07T08:03:22.001Z</time></trkpt><trkpt lat="43.92825375100927" lon="11.208557691210713"><ele>239.0</ele><time>2026-04-07T08:03:23.001Z</time></trkpt><trkpt lat="43.92844125566659" lon="11.208675612518507"><ele>235.66666666666669</ele><time>2026-04-07T08:03:24.001Z</time></trkpt><trkpt lat="43.928623339647956" lon="11.208789587853147"><ele>232.33333333333331</ele><time>2026-04-07T08:03:25.001Z</time></trkpt><trkpt lat="43.928791447743095" lon="11.20891157060312"><ele>229.0</ele><time>2026-04-07T08:03:26.001Z</time></trkpt><trkpt lat="43.92894151143055" lon="11.20905492042884"><ele>232.0</ele><time>2026-04-07T08:03:27.001Z</time></trkpt><trkpt lat="43.92908902095991" lon="11.209200528544496"><ele>235.0</ele><time>2026-04-07T08:03:28.001Z</time></trkpt><trkpt lat="43.92922520493768" lon="11.209334958613983"><ele>238.0</ele><time>2026-04-07T08:03:29.001Z</time></trkpt><trkpt lat="43.9293501433404" lon="11.20945828663204"><ele>238.0</ele><time>2026-04-07T08:03:30.001Z</time></trkpt><trkpt lat="43.92946606835716" lon="11.20958057858657"><ele>238.0</ele><time>2026-04-07T08:03:31.001Z</time></trkpt><trkpt lat="43.9295682158818" lon="11.209716069691153"><ele>238.0</ele><time>2026-04-07T08:03:32.001Z</time></trkpt><trkpt lat="43.9296683617845" lon="11.209864633452764"><ele>238.0</ele><time>2026-04-07T08:03:33.001Z</time></trkpt><trkpt lat="43.92976541338768" lon="11.209992599777573"><ele>241.0</ele><time>2026-04-07T08:03:34.001Z</time></trkpt><trkpt lat="43.929842747784306" lon="11.21012078231787"><ele>244.0</ele><time>2026-04-07T08:03:35.001Z</time></trkpt><trkpt lat="43.929916933881806" lon="11.210230700863061"><ele>247.0</ele><time>2026-04-07T08:03:36.001Z</time></trkpt><trkpt lat="43.92999755539793" lon="11.210329828199109"><ele>250.0</ele><time>2026-04-07T08:03:37.001Z</time></trkpt><trkpt lat="43.93009287357712" lon="11.210422528138762"><ele>250.0</ele><time>2026-04-07T08:03:38.001Z</time></trkpt><trkpt lat="43.93020228967215" lon="11.210512921673025"><ele>250.0</ele><time>2026-04-07T08:03:39.001Z</time></trkpt><trkpt lat="43.93033321602259" lon="11.21059623714929"><ele>250.0</ele><time>2026-04-07T08:03:40.001Z</time></trkpt><trkpt lat="43.93047510381487" lon="11.210678224676009"><ele>250.0</ele><time>2026-04-07T08:03:41.001Z</time></trkpt><trkpt lat="43.93062360048316" lon="11.210756518202656"><ele>254.66666666666666</ele><time>2026-04-07T08:03:42.001Z</time></trkpt><trkpt lat="43.93075913898682" lon="11.210833970765487"><ele>259.3333333333333</ele><time>2026-04-07T08:03:43.001Z</time></trkpt><trkpt lat="43.93089164872232" lon="11.210918393073904"><ele>264.0</ele><time>2026-04-07T08:03:44.001Z</time></trkpt><trkpt lat="43.93103207768166" lon="11.21101966425653"><ele>264.0</ele><time>2026-04-07T08:03:45.001Z</time></trkpt><trkpt lat="43.931170040284464" lon="11.21111473598893"><ele>264.0</ele><time>2026-04-07T08:03:46.001Z</time></trkpt><trkpt lat="43.93130302488697" lon="11.211237259196448"><ele>264.0</ele><time>2026-04-07T08:03:47.001Z</time></trkpt><trkpt lat="43.93144721465114" lon="11.21135007475533"><ele>264.0</ele><time>2026-04-07T08:03:48.001Z</time></trkpt><trkpt lat="43.93160066255926" lon="11.211486121236229"><ele>264.0</ele><time>2026-04-07T08:03:49.001Z</time></trkpt><trkpt lat="43.93175405800358" lon="11.211628881202149"><ele>264.0</ele><time>2026-04-07T08:03:50.001Z</time></trkpt><trkpt lat="43.93192292760411" lon="11.211784610300299"><ele>268.6666666666667</ele><time>2026-04-07T08:03:51.001Z</time></trkpt><trkpt lat="43.93208342781744" lon="11.211923430427438"><ele>273.33333333333337</ele><time>2026-04-07T08:03:52.001Z</time></trkpt><trkpt lat="43.93220740153262" lon="11.21208245684098"><ele>278.0</ele><time>2026-04-07T08:03:53.001Z</time></trkpt><trkpt lat="43.93230574424487" lon="11.212246681497367"><ele>283.75</ele><time>2026-04-07T08:03:54.001Z</time></trkpt><trkpt lat="43.93238357398864" lon="11.212390158966183"><ele>289.5</ele><time>2026-04-07T08:03:55.001Z</time></trkpt><trkpt lat="43.93246920390671" lon="11.212493475011371"><ele>295.25</ele><time>2026-04-07T08:03:56.001Z</time></trkpt><trkpt lat="43.932563182625685" lon="11.212572103624039"><ele>301.0</ele><time>2026-04-07T08:03:57.001Z</time></trkpt><trkpt lat="43.93268691350794" lon="11.212564258693092"><ele>301.0</ele><time>2026-04-07T08:03:58.001Z</time></trkpt><trkpt lat="43.93281429747401" lon="11.212542741688972"><ele>301.0</ele><time>2026-04-07T08:03:59.001Z</time></trkpt><trkpt lat="43.93294702806763" lon="11.212517839989038"><ele>301.0</ele><time>2026-04-07T08:04:00.001Z</time></trkpt><trkpt lat="43.93306735652498" lon="11.212538819737345"><ele>301.0</ele><time>2026-04-07T08:04:01.001Z</time></trkpt><trkpt lat="43.93315808262798" lon="11.21265759225531"><ele>301.0</ele><time>2026-04-07T08:04:02.001Z</time></trkpt><trkpt lat="43.93327204180848" lon="11.212790723303243"><ele>301.0</ele><time>2026-04-07T08:04:03.001Z</time></trkpt><trkpt lat="43.93340635381942" lon="11.212932111698409"><ele>301.0</ele><time>2026-04-07T08:04:04.001Z</time></trkpt><trkpt lat="43.93354804399661" lon="11.213093205554289"><ele>306.66666666666663</ele><time>2026-04-07T08:04:05.001Z</time></trkpt><trkpt lat="43.93371336528289" lon="11.213230751556925"><ele>312.3333333333333</ele><time>2026-04-07T08:04:06.001Z</time></trkpt><trkpt lat="43.93389079630567" lon="11.213336585521532"><ele>318.0</ele><time>2026-04-07T08:04:07.001Z</time></trkpt><trkpt lat="43.934080651812145" lon="11.21343825591699"><ele>316.6666666666667</ele><time>2026-04-07T08:04:08.001Z</time></trkpt><trkpt lat="43.93427821432409" lon="11.213528955647275"><ele>315.33333333333337</ele><time>2026-04-07T08:04:09.001Z</time></trkpt><trkpt lat="43.934480893563865" lon="11.213610106703962"><ele>314.0</ele><time>2026-04-07T08:04:10.001Z</time></trkpt><trkpt lat="43.93468331709081" lon="11.213694072491585"><ele>314.0</ele><time>2026-04-07T08:04:11.001Z</time></trkpt><trkpt lat="43.934878517507265" lon="11.213793610299527"><ele>314.0</ele><time>2026-04-07T08:04:12.001Z</time></trkpt><trkpt lat="43.93507672451899" lon="11.213874661487493"><ele>314.0</ele><time>2026-04-07T08:04:13.001Z</time></trkpt><trkpt lat="43.93526737263522" lon="11.213943429205575"><ele>321.0</ele><time>2026-04-07T08:04:14.001Z</time></trkpt><trkpt lat="43.93542892143283" lon="11.214056549556732"><ele>328.0</ele><time>2026-04-07T08:04:15.001Z</time></trkpt><trkpt lat="43.93557756512628" lon="11.214199113025746"><ele>335.0</ele><time>2026-04-07T08:04:16.001Z</time></trkpt><trkpt lat="43.93572984374281" lon="11.214345833781904"><ele>335.33333333333337</ele><time>2026-04-07T08:04:17.001Z</time></trkpt><trkpt lat="43.93589352845635" lon="11.214463668371874"><ele>335.6666666666667</ele><time>2026-04-07T08:04:18.001Z</time></trkpt><trkpt lat="43.93605261740763" lon="11.214526937475311"><ele>336.0</ele><time>2026-04-07T08:04:19.001Z</time></trkpt><trkpt lat="43.93621536950406" lon="11.214549508258488"><ele>336.0</ele><time>2026-04-07T08:04:20.001Z</time></trkpt><trkpt lat="43.93638133124507" lon="11.21453402829775"><ele>336.0</ele><time>2026-04-07T08:04:21.001Z</time></trkpt><trkpt lat="43.93654278935056" lon="11.214500206331076"><ele>336.0</ele><time>2026-04-07T08:04:22.001Z</time></trkpt><trkpt lat="43.93667930573046" lon="11.214484462072424"><ele>334.75</ele><time>2026-04-07T08:04:23.001Z</time></trkpt><trkpt lat="43.936783781794475" lon="11.214511739982274"><ele>333.5</ele><time>2026-04-07T08:04:24.001Z</time></trkpt><trkpt lat="43.93687654149287" lon="11.214592666779684"><ele>332.25</ele><time>2026-04-07T08:04:25.001Z</time></trkpt><trkpt lat="43.9369681619175" lon="11.214723759587422"><ele>331.0</ele><time>2026-04-07T08:04:26.001Z</time></trkpt><trkpt lat="43.937058342142045" lon="11.214877136431687"><ele>335.75</ele><time>2026-04-07T08:04:27.001Z</time></trkpt><trkpt lat="43.93716905649782" lon="11.215020102121823"><ele>340.5</ele><time>2026-04-07T08:04:28.001Z</time></trkpt><trkpt lat="43.937301539370864" lon="11.215108902046953"><ele>345.25</ele><time>2026-04-07T08:04:29.001Z</time></trkpt><trkpt lat="43.9374504052476" lon="11.215145814332274"><ele>350.0</ele><time>2026-04-07T08:04:30.001Z</time></trkpt><trkpt lat="43.93761425171837" lon="11.215146588407544"><ele>350.0</ele><time>2026-04-07T08:04:31.001Z</time></trkpt><trkpt lat="43.93779526164317" lon="11.215168115547716"><ele>350.0</ele><time>2026-04-07T08:04:32.001Z</time></trkpt><trkpt lat="43.937967510655064" lon="11.21522432424914"><ele>350.0</ele><time>2026-04-07T08:04:33.001Z</time></trkpt><trkpt lat="43.93815724836661" lon="11.21530917604448"><ele>350.0</ele><time>2026-04-07T08:04:34.001Z</time></trkpt><trkpt lat="43.93834324818484" lon="11.215395890586455"><ele>350.0</ele><time>2026-04-07T08:04:35.001Z</time></trkpt><trkpt lat="43.93853831226966" lon="11.215482368820284"><ele>350.0</ele><time>2026-04-07T08:04:36.001Z</time></trkpt><trkpt lat="43.938729072181204" lon="11.215583309642193"><ele>355.0</ele><time>2026-04-07T08:04:37.001Z</time></trkpt><trkpt lat="43.93891521794911" lon="11.215677691861538"><ele>360.0</ele><time>2026-04-07T08:04:38.001Z</time></trkpt><trkpt lat="43.93909462740824" lon="11.21576418202887"><ele>365.0</ele><time>2026-04-07T08:04:39.001Z</time></trkpt><trkpt lat="43.93924955134493" lon="11.215879043109481"><ele>366.75</ele><time>2026-04-07T08:04:40.001Z</time></trkpt><trkpt lat="43.93937507112486" lon="11.215972324168485"><ele>368.5</ele><time>2026-04-07T08:04:41.001Z</time></trkpt><trkpt lat="43.9395011597337" lon="11.216012722053376"><ele>370.25</ele><time>2026-04-07T08:04:42.001Z</time></trkpt><trkpt lat="43.93964757791341" lon="11.216007206104832"><ele>372.0</ele><time>2026-04-07T08:04:43.001Z</time></trkpt><trkpt lat="43.93980789556811" lon="11.215966701522497"><ele>372.0</ele><time>2026-04-07T08:04:44.001Z</time></trkpt><trkpt lat="43.939979422098574" lon="11.215909443051848"><ele>372.0</ele><time>2026-04-07T08:04:45.001Z</time></trkpt><trkpt lat="43.940140497262114" lon="11.215850763250621"><ele>372.0</ele><time>2026-04-07T08:04:46.001Z</time></trkpt><trkpt lat="43.94030333487781" lon="11.215795584052236"><ele>372.3333333333333</ele><time>2026-04-07T08:04:47.001Z</time></trkpt><trkpt lat="43.94048886118556" lon="11.215745582026521"><ele>372.66666666666663</ele><time>2026-04-07T08:04:48.001Z</time></trkpt><trkpt lat="43.94068182970029" lon="11.215685299401358"><ele>373.0</ele><time>2026-04-07T08:04:49.001Z</time></trkpt><trkpt lat="43.9408755482849" lon="11.215606660723367"><ele>376.3333333333333</ele><time>2026-04-07T08:04:50.001Z</time></trkpt><trkpt lat="43.9410722964988" lon="11.215513502644285"><ele>379.6666666666667</ele><time>2026-04-07T08:04:51.001Z</time></trkpt><trkpt lat="43.941273226218186" lon="11.215439407810228"><ele>383.0</ele><time>2026-04-07T08:04:52.002Z</time></trkpt><trkpt lat="43.941443431139696" lon="11.215349482146578"><ele>383.0</ele><time>2026-04-07T08:04:53.002Z</time></trkpt><trkpt lat="43.94159174011431" lon="11.215275201724296"><ele>383.0</ele><time>2026-04-07T08:04:54.002Z</time></trkpt><trkpt lat="43.94170559644542" lon="11.215196552678536"><ele>383.0</ele><time>2026-04-07T08:04:55.002Z</time></trkpt><trkpt lat="43.941796801356304" lon="11.215178312981337"><ele>383.0</ele><time>2026-04-07T08:04:56.002Z</time></trkpt><trkpt lat="43.94187357809126" lon="11.215196414827995"><ele>385.0</ele><time>2026-04-07T08:04:57.002Z</time></trkpt><trkpt lat="43.941939931096485" lon="11.215252058357278"><ele>387.0</ele><time>2026-04-07T08:04:58.002Z</time></trkpt><trkpt lat="43.94199425263785" lon="11.215340625726371"><ele>389.0</ele><time>2026-04-07T08:04:59.002Z</time></trkpt><trkpt lat="43.94202527286819" lon="11.21545403177442"><ele>391.0</ele><time>2026-04-07T08:05:00.002Z</time></trkpt><trkpt lat="43.94202640978295" lon="11.215577562491985"><ele>392.99999999999994</ele><time>2026-04-07T08:05:01.002Z</time></trkpt><trkpt lat="43.94199267238992" lon="11.215696127458369"><ele>395.0</ele><time>2026-04-07T08:05:02.002Z</time></trkpt><trkpt lat="43.941931567774546" lon="11.215783866212085"><ele>394.25</ele><time>2026-04-07T08:05:03.002Z</time></trkpt><trkpt lat="43.94184447699166" lon="11.215844587844375"><ele>393.5</ele><time>2026-04-07T08:05:04.002Z</time></trkpt><trkpt lat="43.941737028195284" lon="11.215889196799367"><ele>392.75</ele><time>2026-04-07T08:05:05.002Z</time></trkpt><trkpt lat="43.94162145221007" lon="11.215956375843426"><ele>392.0</ele><time>2026-04-07T08:05:06.001Z</time></trkpt><trkpt lat="43.94152399757342" lon="11.216077208678378"><ele>392.0</ele><time>2026-04-07T08:05:07.001Z</time></trkpt><trkpt lat="43.941450495880396" lon="11.216244567350971"><ele>392.0</ele><time>2026-04-07T08:05:08.001Z</time></trkpt><trkpt lat="43.94141172070502" lon="11.21643217274671"><ele>392.0</ele><time>2026-04-07T08:05:09.001Z</time></trkpt><trkpt lat="43.9414114610202" lon="11.216634974698685"><ele>392.0</ele><time>2026-04-07T08:05:10.001Z</time></trkpt><trkpt lat="43.94142922107757" lon="11.216808020404207"><ele>393.20000000000005</ele><time>2026-04-07T08:05:11.001Z</time></trkpt><trkpt lat="43.94146379496759" lon="11.21694577200458"><ele>394.4</ele><time>2026-04-07T08:05:12.001Z</time></trkpt><trkpt lat="43.94153329198176" lon="11.217054711958468"><ele>395.6</ele><time>2026-04-07T08:05:13.001Z</time></trkpt><trkpt lat="43.94162439264542" lon="11.217129787767929"><ele>396.79999999999995</ele><time>2026-04-07T08:05:14.001Z</time></trkpt><trkpt lat="43.941738367217525" lon="11.217162764592008"><ele>398.0</ele><time>2026-04-07T08:05:15.001Z</time></trkpt><trkpt lat="43.941853491418456" lon="11.217141838398936"><ele>401.0</ele><time>2026-04-07T08:05:16.001Z</time></trkpt><trkpt lat="43.94195966425757" lon="11.21706704636846"><ele>404.0</ele><time>2026-04-07T08:05:17.001Z</time></trkpt><trkpt lat="43.94204971518079" lon="11.21695079046944"><ele>407.0</ele><time>2026-04-07T08:05:18.001Z</time></trkpt><trkpt lat="43.94212277124186" lon="11.216782714848938"><ele>410.0</ele><time>2026-04-07T08:05:19.001Z</time></trkpt><trkpt lat="43.94220480863311" lon="11.216596458107606"><ele>411.3333333333333</ele><time>2026-04-07T08:05:20.001Z</time></trkpt><trkpt lat="43.9423084786702" lon="11.21641990149056"><ele>412.66666666666663</ele><time>2026-04-07T08:05:21.001Z</time></trkpt><trkpt lat="43.94245075736711" lon="11.216323988745948"><ele>414.0</ele><time>2026-04-07T08:05:22.001Z</time></trkpt><trkpt lat="43.9426097715925" lon="11.216231091500699"><ele>414.0</ele><time>2026-04-07T08:05:23.001Z</time></trkpt><trkpt lat="43.94279716849137" lon="11.216128032619515"><ele>414.0</ele><time>2026-04-07T08:05:24.001Z</time></trkpt><trkpt lat="43.94298959223263" lon="11.216008824486071"><ele>414.0</ele><time>2026-04-07T08:05:25.001Z</time></trkpt><trkpt lat="43.94318303283482" lon="11.215916590647417"><ele>414.0</ele><time>2026-04-07T08:05:26.001Z</time></trkpt><trkpt lat="43.943364672202904" lon="11.215853117105587"><ele>414.0</ele><time>2026-04-07T08:05:27.001Z</time></trkpt><trkpt lat="43.94351865226635" lon="11.215802777602546"><ele>414.0</ele><time>2026-04-07T08:05:28.001Z</time></trkpt><trkpt lat="43.94365401633959" lon="11.215716365765806"><ele>416.33333333333337</ele><time>2026-04-07T08:05:29.001Z</time></trkpt><trkpt lat="43.94378336613431" lon="11.21557721185856"><ele>418.6666666666667</ele><time>2026-04-07T08:05:30.001Z</time></trkpt><trkpt lat="43.94389067036581" lon="11.215382561008063"><ele>421.0</ele><time>2026-04-07T08:05:31.001Z</time></trkpt><trkpt lat="43.94399122900917" lon="11.215188265824947"><ele>421.0</ele><time>2026-04-07T08:05:32.001Z</time></trkpt><trkpt lat="43.94406132767828" lon="11.215052648969591"><ele>421.0</ele><time>2026-04-07T08:05:33.001Z</time></trkpt><trkpt lat="43.944109605868775" lon="11.214974566546754"><ele>421.0</ele><time>2026-04-07T08:05:34.001Z</time></trkpt><trkpt lat="43.94418953510311" lon="11.21484813489178"><ele>421.0</ele><time>2026-04-07T08:05:36.001Z</time></trkpt><trkpt lat="43.9442771875593" lon="11.214697173457367"><ele>422.5</ele><time>2026-04-07T08:05:38.001Z</time></trkpt><trkpt lat="43.94435084739244" lon="11.214566549682766"><ele>424.0</ele><time>2026-04-07T08:05:39.001Z</time></trkpt><trkpt lat="43.94444348129152" lon="11.214412918877365"><ele>425.5</ele><time>2026-04-07T08:05:40.001Z</time></trkpt><trkpt lat="43.94454074846951" lon="11.214253968414502"><ele>427.0</ele><time>2026-04-07T08:05:41.001Z</time></trkpt><trkpt lat="43.944642910435256" lon="11.214084622530937"><ele>426.0</ele><time>2026-04-07T08:05:42.001Z</time></trkpt><trkpt lat="43.94473375144254" lon="11.213941090779073"><ele>425.0</ele><time>2026-04-07T08:05:43.001Z</time></trkpt><trkpt lat="43.944814285252136" lon="11.213831136823229"><ele>424.0</ele><time>2026-04-07T08:05:44.001Z</time></trkpt><trkpt lat="43.94487566157468" lon="11.213773380775987"><ele>423.0</ele><time>2026-04-07T08:05:45.001Z</time></trkpt><trkpt lat="43.94502540832495" lon="11.213796595310528"><ele>424.5</ele><time>2026-04-07T08:05:47.001Z</time></trkpt><trkpt lat="43.94515106887243" lon="11.213780812732772"><ele>426.0</ele><time>2026-04-07T08:05:48.001Z</time></trkpt><trkpt lat="43.94529725512605" lon="11.213773355887064"><ele>427.5</ele><time>2026-04-07T08:05:49.001Z</time></trkpt><trkpt lat="43.945448319901786" lon="11.213724442485042"><ele>429.0</ele><time>2026-04-07T08:05:50.001Z</time></trkpt><trkpt lat="43.945601577897754" lon="11.213643408388194"><ele>429.0</ele><time>2026-04-07T08:05:51.001Z</time></trkpt><trkpt lat="43.94575608401527" lon="11.213536015337038"><ele>429.0</ele><time>2026-04-07T08:05:52.001Z</time></trkpt><trkpt lat="43.945918877696194" lon="11.213418154612873"><ele>429.0</ele><time>2026-04-07T08:05:53.001Z</time></trkpt><trkpt lat="43.946087439677534" lon="11.213324756308115"><ele>425.33333333333337</ele><time>2026-04-07T08:05:54.001Z</time></trkpt><trkpt lat="43.94627002202696" lon="11.21325829578904"><ele>421.6666666666667</ele><time>2026-04-07T08:05:55.001Z</time></trkpt><trkpt lat="43.946450790279734" lon="11.213215069015176"><ele>418.0</ele><time>2026-04-07T08:05:56.001Z</time></trkpt><trkpt lat="43.94661597950051" lon="11.213179345239068"><ele>415.75</ele><time>2026-04-07T08:05:57.001Z</time></trkpt><trkpt lat="43.946768974610336" lon="11.213134032223566"><ele>413.5</ele><time>2026-04-07T08:05:58.001Z</time></trkpt><trkpt lat="43.946892734479505" lon="11.213067404548957"><ele>411.25</ele><time>2026-04-07T08:05:59.001Z</time></trkpt><trkpt lat="43.94699044070431" lon="11.21296480243517"><ele>409.0</ele><time>2026-04-07T08:06:00.001Z</time></trkpt><trkpt lat="43.947069540136255" lon="11.212817570752515"><ele>409.0</ele><time>2026-04-07T08:06:01.001Z</time></trkpt><trkpt lat="43.94713804579891" lon="11.212630294781084"><ele>409.0</ele><time>2026-04-07T08:06:02.001Z</time></trkpt><trkpt lat="43.94720295990256" lon="11.212421643182456"><ele>409.0</ele><time>2026-04-07T08:06:03.001Z</time></trkpt><trkpt lat="43.947281826227574" lon="11.212253745599769"><ele>410.5</ele><time>2026-04-07T08:06:04.001Z</time></trkpt><trkpt lat="43.94738725988868" lon="11.212128000555227"><ele>412.0</ele><time>2026-04-07T08:06:05.001Z</time></trkpt><trkpt lat="43.94752918783696" lon="11.212065211661825"><ele>413.5</ele><time>2026-04-07T08:06:06.001Z</time></trkpt><trkpt lat="43.9476614331452" lon="11.211987765672056"><ele>415.0</ele><time>2026-04-07T08:06:07.001Z</time></trkpt><trkpt lat="43.94773843783831" lon="11.211842319232812"><ele>410.33333333333337</ele><time>2026-04-07T08:06:08.001Z</time></trkpt><trkpt lat="43.94783018816275" lon="11.211672181407714"><ele>405.66666666666663</ele><time>2026-04-07T08:06:09.001Z</time></trkpt><trkpt lat="43.947875570766435" lon="11.211471394077845"><ele>401.0</ele><time>2026-04-07T08:06:10.001Z</time></trkpt><trkpt lat="43.94789324728301" lon="11.21124367515655"><ele>401.0</ele><time>2026-04-07T08:06:11.001Z</time></trkpt><trkpt lat="43.947896376502555" lon="11.211028044153478"><ele>401.0</ele><time>2026-04-07T08:06:12.001Z</time></trkpt><trkpt lat="43.947941376304826" lon="11.210852530661393"><ele>401.0</ele><time>2026-04-07T08:06:13.001Z</time></trkpt><trkpt lat="43.94798408940434" lon="11.210705617641654"><ele>401.0</ele><time>2026-04-07T08:06:14.001Z</time></trkpt><trkpt lat="43.94807483515122" lon="11.210580998376715"><ele>404.5</ele><time>2026-04-07T08:06:15.001Z</time></trkpt><trkpt lat="43.94819678042522" lon="11.210517408586812"><ele>408.0</ele><time>2026-04-07T08:06:16.001Z</time></trkpt><trkpt lat="43.94831714353254" lon="11.210453865492052"><ele>411.5</ele><time>2026-04-07T08:06:17.001Z</time></trkpt><trkpt lat="43.94844870913732" lon="11.210463970553864"><ele>415.0</ele><time>2026-04-07T08:06:18.001Z</time></trkpt><trkpt lat="43.948586228650335" lon="11.210519950958748"><ele>417.0</ele><time>2026-04-07T08:06:19.001Z</time></trkpt><trkpt lat="43.94872322469155" lon="11.210626591475311"><ele>419.0</ele><time>2026-04-07T08:06:20.001Z</time></trkpt><trkpt lat="43.94885942873667" lon="11.2107447949603"><ele>421.0</ele><time>2026-04-07T08:06:21.001Z</time></trkpt><trkpt lat="43.94901540167596" lon="11.210824158216601"><ele>414.6666666666667</ele><time>2026-04-07T08:06:22.001Z</time></trkpt><trkpt lat="43.94917590195228" lon="11.210844394355927"><ele>408.33333333333337</ele><time>2026-04-07T08:06:23.001Z</time></trkpt><trkpt lat="43.94933721759651" lon="11.210817432277397"><ele>402.0</ele><time>2026-04-07T08:06:24.001Z</time></trkpt><trkpt lat="43.949487381850716" lon="11.210743823553122"><ele>402.33333333333337</ele><time>2026-04-07T08:06:25.001Z</time></trkpt><trkpt lat="43.94963055113091" lon="11.210627859668062"><ele>402.6666666666667</ele><time>2026-04-07T08:06:26.001Z</time></trkpt><trkpt lat="43.94976119679497" lon="11.21047276401265"><ele>403.0</ele><time>2026-04-07T08:06:27.001Z</time></trkpt><trkpt lat="43.94986578431332" lon="11.210286280190966"><ele>403.0</ele><time>2026-04-07T08:06:28.001Z</time></trkpt><trkpt lat="43.949944578762384" lon="11.210068900336385"><ele>403.0</ele><time>2026-04-07T08:06:29.001Z</time></trkpt><trkpt lat="43.95000894723044" lon="11.209830043100272"><ele>403.0</ele><time>2026-04-07T08:06:30.001Z</time></trkpt><trkpt lat="43.95006027063014" lon="11.209616604918986"><ele>403.2</ele><time>2026-04-07T08:06:31.001Z</time></trkpt><trkpt lat="43.95011237582183" lon="11.209454923312363"><ele>403.4</ele><time>2026-04-07T08:06:32.001Z</time></trkpt><trkpt lat="43.95017281146321" lon="11.209337626671738"><ele>403.59999999999997</ele><time>2026-04-07T08:06:33.001Z</time></trkpt><trkpt lat="43.95025020253893" lon="11.209270827815745"><ele>403.79999999999995</ele><time>2026-04-07T08:06:34.001Z</time></trkpt><trkpt lat="43.95034376456034" lon="11.20924084266152"><ele>404.0</ele><time>2026-04-07T08:06:35.001Z</time></trkpt><trkpt lat="43.950440195956546" lon="11.20925746823453"><ele>404.0</ele><time>2026-04-07T08:06:36.001Z</time></trkpt><trkpt lat="43.95053134292691" lon="11.209320522718718"><ele>404.0</ele><time>2026-04-07T08:06:37.001Z</time></trkpt><trkpt lat="43.95061295374003" lon="11.209434421813464"><ele>404.0</ele><time>2026-04-07T08:06:38.001Z</time></trkpt><trkpt lat="43.95067407278569" lon="11.20959136787997"><ele>404.0</ele><time>2026-04-07T08:06:39.001Z</time></trkpt><trkpt lat="43.950707418169465" lon="11.209782452514736"><ele>402.0</ele><time>2026-04-07T08:06:40.001Z</time></trkpt><trkpt lat="43.950731783267656" lon="11.210012842098315"><ele>400.0</ele><time>2026-04-07T08:06:41.001Z</time></trkpt><trkpt lat="43.950760071947144" lon="11.210244452543005"><ele>398.0</ele><time>2026-04-07T08:06:42.001Z</time></trkpt><trkpt lat="43.95079628400153" lon="11.210466662619838"><ele>396.66666666666663</ele><time>2026-04-07T08:06:43.001Z</time></trkpt><trkpt lat="43.95083832099563" lon="11.210714487431273"><ele>395.33333333333337</ele><time>2026-04-07T08:06:44.001Z</time></trkpt><trkpt lat="43.950882500677956" lon="11.210955629931968"><ele>394.0</ele><time>2026-04-07T08:06:45.001Z</time></trkpt><trkpt lat="43.950940753705815" lon="11.211169272217443"><ele>396.0</ele><time>2026-04-07T08:06:46.001Z</time></trkpt><trkpt lat="43.951033759332766" lon="11.211373566820328"><ele>398.0</ele><time>2026-04-07T08:06:47.001Z</time></trkpt><trkpt lat="43.95116258824066" lon="11.211570065118389"><ele>400.0</ele><time>2026-04-07T08:06:48.001Z</time></trkpt><trkpt lat="43.95130767909248" lon="11.211769262281155"><ele>400.0</ele><time>2026-04-07T08:06:49.001Z</time></trkpt><trkpt lat="43.95145921581698" lon="11.211984808881068"><ele>400.0</ele><time>2026-04-07T08:06:50.001Z</time></trkpt><trkpt lat="43.95161313446807" lon="11.212202696621791"><ele>400.0</ele><time>2026-04-07T08:06:51.001Z</time></trkpt><trkpt lat="43.95176186460139" lon="11.21241656138495"><ele>395.6666666666667</ele><time>2026-04-07T08:06:52.001Z</time></trkpt><trkpt lat="43.95191466466573" lon="11.212602535906072"><ele>391.33333333333337</ele><time>2026-04-07T08:06:53.001Z</time></trkpt><trkpt lat="43.95208147938291" lon="11.21276611234678"><ele>387.0</ele><time>2026-04-07T08:06:54.001Z</time></trkpt><trkpt lat="43.952250479482345" lon="11.21290158186232"><ele>387.0</ele><time>2026-04-07T08:06:55.001Z</time></trkpt><trkpt lat="43.952411362465334" lon="11.213028564009981"><ele>387.0</ele><time>2026-04-07T08:06:56.001Z</time></trkpt><trkpt lat="43.952560031089675" lon="11.213152155247013"><ele>387.0</ele><time>2026-04-07T08:06:57.001Z</time></trkpt><trkpt lat="43.952709925038995" lon="11.213262336847478"><ele>383.3333333333333</ele><time>2026-04-07T08:06:58.002Z</time></trkpt><trkpt lat="43.95286664267725" lon="11.213344442972051"><ele>379.66666666666663</ele><time>2026-04-07T08:06:59.002Z</time></trkpt><trkpt lat="43.95304507294787" lon="11.213397199460328"><ele>376.0</ele><time>2026-04-07T08:07:00.002Z</time></trkpt><trkpt lat="43.95323761967309" lon="11.213414572951953"><ele>376.66666666666663</ele><time>2026-04-07T08:07:01.002Z</time></trkpt><trkpt lat="43.953422311801695" lon="11.213402726313506"><ele>377.3333333333333</ele><time>2026-04-07T08:07:02.002Z</time></trkpt><trkpt lat="43.95359236701045" lon="11.213365055012416"><ele>378.0</ele><time>2026-04-07T08:07:03.001Z</time></trkpt><trkpt lat="43.9537444445249" lon="11.213324445341865"><ele>378.0</ele><time>2026-04-07T08:07:04.001Z</time></trkpt><trkpt lat="43.95386930584528" lon="11.213323835964433"><ele>378.0</ele><time>2026-04-07T08:07:05.001Z</time></trkpt><trkpt lat="43.953993615189425" lon="11.213379287768188"><ele>378.0</ele><time>2026-04-07T08:07:06.001Z</time></trkpt><trkpt lat="43.954126485226034" lon="11.21348324474838"><ele>378.0</ele><time>2026-04-07T08:07:07.001Z</time></trkpt><trkpt lat="43.95426974069003" lon="11.213580385157307"><ele>374.6666666666667</ele><time>2026-04-07T08:07:08.001Z</time></trkpt><trkpt lat="43.95441733384779" lon="11.213623828417562"><ele>371.33333333333337</ele><time>2026-04-07T08:07:09.001Z</time></trkpt><trkpt lat="43.95457659936312" lon="11.213613237834872"><ele>368.0</ele><time>2026-04-07T08:07:10.001Z</time></trkpt><trkpt lat="43.95475253897757" lon="11.213563174179352"><ele>368.0</ele><time>2026-04-07T08:07:11.001Z</time></trkpt><trkpt lat="43.95494183150847" lon="11.213481052719892"><ele>368.0</ele><time>2026-04-07T08:07:12.001Z</time></trkpt><trkpt lat="43.95514215542438" lon="11.213399006930278"><ele>368.0</ele><time>2026-04-07T08:07:13.001Z</time></trkpt><trkpt lat="43.95534524691184" lon="11.21332885829205"><ele>363.6666666666667</ele><time>2026-04-07T08:07:14.001Z</time></trkpt><trkpt lat="43.955543244685856" lon="11.213287147435041"><ele>359.3333333333333</ele><time>2026-04-07T08:07:15.001Z</time></trkpt><trkpt lat="43.95574043511999" lon="11.213276482748288"><ele>355.0</ele><time>2026-04-07T08:07:16.001Z</time></trkpt><trkpt lat="43.95596612409366" lon="11.213292533917711"><ele>352.0</ele><time>2026-04-07T08:07:17.001Z</time></trkpt><trkpt lat="43.9561804543593" lon="11.213326200813553"><ele>349.0</ele><time>2026-04-07T08:07:18.001Z</time></trkpt><trkpt lat="43.95639731659567" lon="11.213355474890047"><ele>346.0</ele><time>2026-04-07T08:07:19.001Z</time></trkpt><trkpt lat="43.95660584493137" lon="11.213376546055166"><ele>342.0</ele><time>2026-04-07T08:07:20.001Z</time></trkpt><trkpt lat="43.956803725640405" lon="11.213389965814951"><ele>338.0</ele><time>2026-04-07T08:07:21.001Z</time></trkpt><trkpt lat="43.957003598529695" lon="11.213392617048203"><ele>334.0</ele><time>2026-04-07T08:07:22.001Z</time></trkpt><trkpt lat="43.957187663810295" lon="11.213387391896642"><ele>334.0</ele><time>2026-04-07T08:07:23.001Z</time></trkpt><trkpt lat="43.95734589458893" lon="11.21337310445273"><ele>334.0</ele><time>2026-04-07T08:07:24.001Z</time></trkpt><trkpt lat="43.957479424961534" lon="11.213362990852158"><ele>334.0</ele><time>2026-04-07T08:07:25.001Z</time></trkpt><trkpt lat="43.95760195407179" lon="11.21336444069626"><ele>334.0</ele><time>2026-04-07T08:07:26.001Z</time></trkpt><trkpt lat="43.957711481503736" lon="11.213392485126318"><ele>330.5</ele><time>2026-04-07T08:07:27.001Z</time></trkpt><trkpt lat="43.95781391123007" lon="11.213454114628346"><ele>327.0</ele><time>2026-04-07T08:07:28.001Z</time></trkpt><trkpt lat="43.95791840954305" lon="11.213561910839298"><ele>323.5</ele><time>2026-04-07T08:07:29.001Z</time></trkpt><trkpt lat="43.958034159361944" lon="11.213699183116248"><ele>320.0</ele><time>2026-04-07T08:07:30.001Z</time></trkpt><trkpt lat="43.95817170500003" lon="11.213781119775911"><ele>320.0</ele><time>2026-04-07T08:07:31.001Z</time></trkpt><trkpt lat="43.958298686734835" lon="11.213859952007205"><ele>320.0</ele><time>2026-04-07T08:07:32.001Z</time></trkpt><trkpt lat="43.95841775228148" lon="11.213959328955017"><ele>320.0</ele><time>2026-04-07T08:07:33.001Z</time></trkpt><trkpt lat="43.958530891599054" lon="11.214063851433039"><ele>320.0</ele><time>2026-04-07T08:07:34.001Z</time></trkpt><trkpt lat="43.95864088925463" lon="11.214160336705891"><ele>319.0</ele><time>2026-04-07T08:07:35.001Z</time></trkpt><trkpt lat="43.95874887216473" lon="11.214248860426135"><ele>318.0</ele><time>2026-04-07T08:07:36.001Z</time></trkpt><trkpt lat="43.958846129334155" lon="11.21432090882324"><ele>317.0</ele><time>2026-04-07T08:07:37.001Z</time></trkpt><trkpt lat="43.95893504501386" lon="11.214375170751376"><ele>316.0</ele><time>2026-04-07T08:07:38.001Z</time></trkpt><trkpt lat="43.95902391174319" lon="11.214417882018747"><ele>315.0</ele><time>2026-04-07T08:07:39.001Z</time></trkpt><trkpt lat="43.95912056309693" lon="11.214450896527962"><ele>314.0</ele><time>2026-04-07T08:07:40.001Z</time></trkpt><trkpt lat="43.95924289702951" lon="11.21448229968289"><ele>313.0</ele><time>2026-04-07T08:07:41.001Z</time></trkpt><trkpt lat="43.95938455147849" lon="11.214508478350686"><ele>312.0</ele><time>2026-04-07T08:07:42.001Z</time></trkpt><trkpt lat="43.95954746103779" lon="11.214516898515303"><ele>311.0</ele><time>2026-04-07T08:07:43.001Z</time></trkpt><trkpt lat="43.95972112561029" lon="11.214506588333865"><ele>311.0</ele><time>2026-04-07T08:07:44.001Z</time></trkpt><trkpt lat="43.959901151934645" lon="11.214490052389765"><ele>311.0</ele><time>2026-04-07T08:07:45.001Z</time></trkpt><trkpt lat="43.960068224245276" lon="11.214481672973202"><ele>311.0</ele><time>2026-04-07T08:07:46.001Z</time></trkpt><trkpt lat="43.960230206060125" lon="11.214502473515894"><ele>309.6666666666667</ele><time>2026-04-07T08:07:47.001Z</time></trkpt><trkpt lat="43.96038615630754" lon="11.214560704334664"><ele>308.3333333333333</ele><time>2026-04-07T08:07:48.001Z</time></trkpt><trkpt lat="43.96053581741059" lon="11.214647139639606"><ele>307.0</ele><time>2026-04-07T08:07:49.001Z</time></trkpt><trkpt lat="43.96068259208553" lon="11.21475556880993"><ele>306.66666666666663</ele><time>2026-04-07T08:07:50.001Z</time></trkpt><trkpt lat="43.960828396551996" lon="11.214880303353501"><ele>306.3333333333333</ele><time>2026-04-07T08:07:51.001Z</time></trkpt><trkpt lat="43.960977993016506" lon="11.215000169251677"><ele>306.0</ele><time>2026-04-07T08:07:52.001Z</time></trkpt><trkpt lat="43.96113473555879" lon="11.21511637939577"><ele>306.0</ele><time>2026-04-07T08:07:53.001Z</time></trkpt><trkpt lat="43.96129351832908" lon="11.215228426264934"><ele>306.0</ele><time>2026-04-07T08:07:54.001Z</time></trkpt><trkpt lat="43.961459754272774" lon="11.215342625631157"><ele>306.0</ele><time>2026-04-07T08:07:55.001Z</time></trkpt><trkpt lat="43.961626661037734" lon="11.215453433595513"><ele>306.0</ele><time>2026-04-07T08:07:56.001Z</time></trkpt><trkpt lat="43.961790664021926" lon="11.215569438082378"><ele>306.0</ele><time>2026-04-07T08:07:57.001Z</time></trkpt><trkpt lat="43.96196547678447" lon="11.215699198719173"><ele>306.0</ele><time>2026-04-07T08:07:58.001Z</time></trkpt><trkpt lat="43.962133225688504" lon="11.215830739585988"><ele>306.0</ele><time>2026-04-07T08:07:59.001Z</time></trkpt><trkpt lat="43.96230475235976" lon="11.215967190436904"><ele>306.0</ele><time>2026-04-07T08:08:00.001Z</time></trkpt><trkpt lat="43.9624774047979" lon="11.216104870044441"><ele>306.0</ele><time>2026-04-07T08:08:01.001Z</time></trkpt><trkpt lat="43.96265018851833" lon="11.216243161360367"><ele>304.6666666666667</ele><time>2026-04-07T08:08:02.001Z</time></trkpt><trkpt lat="43.9628135355848" lon="11.216373856762015"><ele>303.33333333333337</ele><time>2026-04-07T08:08:03.001Z</time></trkpt><trkpt lat="43.96296654284929" lon="11.216492151536391"><ele>302.0</ele><time>2026-04-07T08:08:04.001Z</time></trkpt><trkpt lat="43.96310937833016" lon="11.21659607116572"><ele>302.0</ele><time>2026-04-07T08:08:05.001Z</time></trkpt><trkpt lat="43.963255681879566" lon="11.216675054973749"><ele>302.0</ele><time>2026-04-07T08:08:06.001Z</time></trkpt><trkpt lat="43.96340668126723" lon="11.216705948206785"><ele>302.0</ele><time>2026-04-07T08:08:07.001Z</time></trkpt><trkpt lat="43.96356774420614" lon="11.216690070799352"><ele>302.33333333333337</ele><time>2026-04-07T08:08:08Z</time></trkpt><trkpt lat="43.96373692698324" lon="11.21663544271894"><ele>302.6666666666667</ele><time>2026-04-07T08:08:09Z</time></trkpt><trkpt lat="43.96391835868289" lon="11.216561147139979"><ele>303.0</ele><time>2026-04-07T08:08:10Z</time></trkpt><trkpt lat="43.96410664774439" lon="11.216498157136698"><ele>303.6666666666667</ele><time>2026-04-07T08:08:11Z</time></trkpt><trkpt lat="43.964281620069805" lon="11.216474190649594"><ele>304.33333333333337</ele><time>2026-04-07T08:08:12Z</time></trkpt><trkpt lat="43.964465876750275" lon="11.216490059766517"><ele>305.0</ele><time>2026-04-07T08:08:13Z</time></trkpt><trkpt lat="43.964665700299015" lon="11.21653986956945"><ele>303.0</ele><time>2026-04-07T08:08:14Z</time></trkpt><trkpt lat="43.96487799879308" lon="11.21661459527098"><ele>301.0</ele><time>2026-04-07T08:08:15Z</time></trkpt><trkpt lat="43.96509339227564" lon="11.216685222380203"><ele>299.0</ele><time>2026-04-07T08:08:16Z</time></trkpt><trkpt lat="43.965317405595215" lon="11.216738814836479"><ele>297.0</ele><time>2026-04-07T08:08:17Z</time></trkpt><trkpt lat="43.96554757275339" lon="11.216768926983725"><ele>295.0</ele><time>2026-04-07T08:08:18Z</time></trkpt><trkpt lat="43.965775293656456" lon="11.216769939492707"><ele>295.0</ele><time>2026-04-07T08:08:19Z</time></trkpt><trkpt lat="43.966002833399365" lon="11.216741150327074"><ele>295.0</ele><time>2026-04-07T08:08:20Z</time></trkpt><trkpt lat="43.966231083086505" lon="11.216685438104399"><ele>295.0</ele><time>2026-04-07T08:08:21Z</time></trkpt><trkpt lat="43.966452076982286" lon="11.216617549782333"><ele>295.0</ele><time>2026-04-07T08:08:22Z</time></trkpt><trkpt lat="43.966653973823554" lon="11.216557413773403"><ele>295.0</ele><time>2026-04-07T08:08:23Z</time></trkpt><trkpt lat="43.966853462752624" lon="11.216529788661925"><ele>296.0</ele><time>2026-04-07T08:08:24Z</time></trkpt><trkpt lat="43.967045800211245" lon="11.216545398834347"><ele>297.0</ele><time>2026-04-07T08:08:25Z</time></trkpt><trkpt lat="43.96722037232713" lon="11.216634161090107"><ele>298.0</ele><time>2026-04-07T08:08:26Z</time></trkpt><trkpt lat="43.96739097653534" lon="11.216753118846881"><ele>300.66666666666663</ele><time>2026-04-07T08:08:27Z</time></trkpt><trkpt lat="43.967564972070996" lon="11.216867832820393"><ele>303.3333333333333</ele><time>2026-04-07T08:08:28Z</time></trkpt><trkpt lat="43.967725147541195" lon="11.217012927185667"><ele>306.0</ele><time>2026-04-07T08:08:29Z</time></trkpt><trkpt lat="43.96788145594379" lon="11.217117992742114"><ele>306.0</ele><time>2026-04-07T08:08:30Z</time></trkpt><trkpt lat="43.968027566510926" lon="11.217168455315898"><ele>306.0</ele><time>2026-04-07T08:08:31Z</time></trkpt><trkpt lat="43.96818489133203" lon="11.217169217685035"><ele>306.0</ele><time>2026-04-07T08:08:32Z</time></trkpt><trkpt lat="43.968354545788806" lon="11.217129616881433"><ele>309.3333333333333</ele><time>2026-04-07T08:08:33Z</time></trkpt><trkpt lat="43.96853242537514" lon="11.217076328488778"><ele>312.66666666666663</ele><time>2026-04-07T08:08:34Z</time></trkpt><trkpt lat="43.96872632274324" lon="11.217036490298154"><ele>316.0</ele><time>2026-04-07T08:08:35Z</time></trkpt><trkpt lat="43.968929537880655" lon="11.217061514355656"><ele>316.0</ele><time>2026-04-07T08:08:36Z</time></trkpt><trkpt lat="43.96913765848851" lon="11.217091686179776"><ele>316.0</ele><time>2026-04-07T08:08:37Z</time></trkpt><trkpt lat="43.96934816035814" lon="11.217121435832972"><ele>316.0</ele><time>2026-04-07T08:08:38Z</time></trkpt><trkpt lat="43.96956095410787" lon="11.217186978081218"><ele>318.0</ele><time>2026-04-07T08:08:39Z</time></trkpt><trkpt lat="43.969776550091424" lon="11.217245378548798"><ele>320.0</ele><time>2026-04-07T08:08:40Z</time></trkpt><trkpt lat="43.969969219129055" lon="11.217285327783319"><ele>322.0</ele><time>2026-04-07T08:08:41Z</time></trkpt><trkpt lat="43.97014659146361" lon="11.217306308756921"><ele>322.0</ele><time>2026-04-07T08:08:42Z</time></trkpt><trkpt lat="43.97031421955523" lon="11.217291444802424"><ele>322.0</ele><time>2026-04-07T08:08:43Z</time></trkpt><trkpt lat="43.97046239668029" lon="11.217226100637417"><ele>322.0</ele><time>2026-04-07T08:08:44Z</time></trkpt><trkpt lat="43.97061110008091" lon="11.217116627777372"><ele>322.0</ele><time>2026-04-07T08:08:45Z</time></trkpt><trkpt lat="43.970756833894335" lon="11.216988597339288"><ele>322.0</ele><time>2026-04-07T08:08:46Z</time></trkpt><trkpt lat="43.97087928820107" lon="11.21689393076524"><ele>322.0</ele><time>2026-04-07T08:08:47Z</time></trkpt><trkpt lat="43.97101166323019" lon="11.216854278123376"><ele>322.0</ele><time>2026-04-07T08:08:48Z</time></trkpt><trkpt lat="43.971159012828146" lon="11.21690889562833"><ele>320.0</ele><time>2026-04-07T08:08:49Z</time></trkpt><trkpt lat="43.971327589209295" lon="11.216938671324337"><ele>318.0</ele><time>2026-04-07T08:08:50Z</time></trkpt><trkpt lat="43.9715031227057" lon="11.21696682902814"><ele>316.0</ele><time>2026-04-07T08:08:51Z</time></trkpt><trkpt lat="43.971682524212476" lon="11.216939465523188"><ele>313.0</ele><time>2026-04-07T08:08:52Z</time></trkpt><trkpt lat="43.971870379939475" lon="11.216882518717178"><ele>310.0</ele><time>2026-04-07T08:08:53Z</time></trkpt><trkpt lat="43.972083964310045" lon="11.216822245802774"><ele>307.0</ele><time>2026-04-07T08:08:54Z</time></trkpt><trkpt lat="43.97227065666576" lon="11.216797616665247"><ele>307.0</ele><time>2026-04-07T08:08:55Z</time></trkpt><trkpt lat="43.972441720461795" lon="11.216797174411054"><ele>307.0</ele><time>2026-04-07T08:08:56Z</time></trkpt><trkpt lat="43.972598016856935" lon="11.21683422454044"><ele>307.0</ele><time>2026-04-07T08:08:57Z</time></trkpt><trkpt lat="43.972751953051706" lon="11.216907383334464"><ele>307.0</ele><time>2026-04-07T08:08:58Z</time></trkpt><trkpt lat="43.97291589080032" lon="11.217032346826375"><ele>307.0</ele><time>2026-04-07T08:08:59Z</time></trkpt><trkpt lat="43.97308676818426" lon="11.21716650718393"><ele>307.0</ele><time>2026-04-07T08:09:00Z</time></trkpt><trkpt lat="43.97326790535264" lon="11.21731353024826"><ele>307.66666666666663</ele><time>2026-04-07T08:09:01Z</time></trkpt><trkpt lat="43.97344896556712" lon="11.217471173910933"><ele>308.3333333333333</ele><time>2026-04-07T08:09:02Z</time></trkpt><trkpt lat="43.97362900621711" lon="11.217645630728132"><ele>309.0</ele><time>2026-04-07T08:09:03Z</time></trkpt><trkpt lat="43.97379091196685" lon="11.217817902027802"><ele>309.0</ele><time>2026-04-07T08:09:04.001Z</time></trkpt><trkpt lat="43.97393768859198" lon="11.217986298113393"><ele>309.0</ele><time>2026-04-07T08:09:05.001Z</time></trkpt><trkpt lat="43.97407965028832" lon="11.21813447163297"><ele>309.0</ele><time>2026-04-07T08:09:06.001Z</time></trkpt><trkpt lat="43.97422674300839" lon="11.2182562810333"><ele>306.3333333333333</ele><time>2026-04-07T08:09:07.001Z</time></trkpt><trkpt lat="43.97438401026546" lon="11.218346372571304"><ele>303.66666666666663</ele><time>2026-04-07T08:09:08.001Z</time></trkpt><trkpt lat="43.974538349856324" lon="11.218413438169756"><ele>301.0</ele><time>2026-04-07T08:09:09.001Z</time></trkpt><trkpt lat="43.97468093344488" lon="11.218487949609205"><ele>301.0</ele><time>2026-04-07T08:09:10.001Z</time></trkpt><trkpt lat="43.974796935089" lon="11.218580404918463"><ele>301.0</ele><time>2026-04-07T08:09:11.001Z</time></trkpt><trkpt lat="43.97490054068433" lon="11.218670584668272"><ele>301.0</ele><time>2026-04-07T08:09:12.001Z</time></trkpt><trkpt lat="43.97500489874104" lon="11.218768069421373"><ele>301.0</ele><time>2026-04-07T08:09:13.001Z</time></trkpt><trkpt lat="43.975111028445006" lon="11.218883969493154"><ele>300.0</ele><time>2026-04-07T08:09:14.001Z</time></trkpt><trkpt lat="43.97521703644175" lon="11.219031070696495"><ele>299.0</ele><time>2026-04-07T08:09:15.001Z</time></trkpt><trkpt lat="43.975314357701116" lon="11.219194878355538"><ele>298.0</ele><time>2026-04-07T08:09:16.001Z</time></trkpt><trkpt lat="43.975407540455954" lon="11.219387344766313"><ele>298.0</ele><time>2026-04-07T08:09:17.001Z</time></trkpt><trkpt lat="43.975503618971004" lon="11.219587097522542"><ele>298.0</ele><time>2026-04-07T08:09:18.001Z</time></trkpt><trkpt lat="43.97559599600775" lon="11.219773805668328"><ele>298.0</ele><time>2026-04-07T08:09:19.001Z</time></trkpt><trkpt lat="43.97568782510825" lon="11.219954496588196"><ele>299.5</ele><time>2026-04-07T08:09:20.001Z</time></trkpt><trkpt lat="43.9757787671837" lon="11.220126768230388"><ele>301.0</ele><time>2026-04-07T08:09:21.001Z</time></trkpt><trkpt lat="43.975866120054775" lon="11.220292736895685"><ele>302.5</ele><time>2026-04-07T08:09:22.001Z</time></trkpt><trkpt lat="43.97594747304198" lon="11.220449112980383"><ele>304.0</ele><time>2026-04-07T08:09:23.001Z</time></trkpt><trkpt lat="43.976019817920424" lon="11.220600491624996"><ele>302.25</ele><time>2026-04-07T08:09:24.001Z</time></trkpt><trkpt lat="43.976074266835475" lon="11.220746283465548"><ele>300.5</ele><time>2026-04-07T08:09:25.001Z</time></trkpt><trkpt lat="43.97612053527114" lon="11.220894469098477"><ele>298.75</ele><time>2026-04-07T08:09:26.001Z</time></trkpt><trkpt lat="43.97616518103195" lon="11.221121780255977"><ele>297.0</ele><time>2026-04-07T08:09:27.001Z</time></trkpt><trkpt lat="43.97616687853275" lon="11.221317880094443"><ele>296.75</ele><time>2026-04-07T08:09:28.001Z</time></trkpt><trkpt lat="43.976158883825455" lon="11.2215189192732"><ele>296.5</ele><time>2026-04-07T08:09:29.001Z</time></trkpt><trkpt lat="43.9761483952699" lon="11.221712371819635"><ele>296.25</ele><time>2026-04-07T08:09:30.001Z</time></trkpt><trkpt lat="43.97615168601242" lon="11.221897668145983"><ele>296.0</ele><time>2026-04-07T08:09:31.001Z</time></trkpt><trkpt lat="43.97613786969217" lon="11.222086109483174"><ele>296.0</ele><time>2026-04-07T08:09:32.001Z</time></trkpt><trkpt lat="43.97612903466256" lon="11.222258151122336"><ele>296.0</ele><time>2026-04-07T08:09:33.001Z</time></trkpt><trkpt lat="43.97612140683995" lon="11.222427308349815"><ele>296.0</ele><time>2026-04-07T08:09:34.001Z</time></trkpt><trkpt lat="43.97610992752288" lon="11.222588350810037"><ele>296.0</ele><time>2026-04-07T08:09:35.001Z</time></trkpt><trkpt lat="43.976100996566466" lon="11.222751383260341"><ele>296.0</ele><time>2026-04-07T08:09:36Z</time></trkpt><trkpt lat="43.97608808832934" lon="11.22292093247436"><ele>296.0</ele><time>2026-04-07T08:09:37Z</time></trkpt><trkpt lat="43.97607555474222" lon="11.223086165362488"><ele>296.0</ele><time>2026-04-07T08:09:38Z</time></trkpt><trkpt lat="43.9760655012843" lon="11.22323611654779"><ele>296.0</ele><time>2026-04-07T08:09:39Z</time></trkpt><trkpt lat="43.97605788109566" lon="11.223375917250543"><ele>295.0</ele><time>2026-04-07T08:09:40Z</time></trkpt><trkpt lat="43.97605068658633" lon="11.223532567260806"><ele>294.0</ele><time>2026-04-07T08:09:41Z</time></trkpt><trkpt lat="43.97605333722848" lon="11.223673780906596"><ele>293.0</ele><time>2026-04-07T08:09:42Z</time></trkpt><trkpt lat="43.976078440477075" lon="11.223816835543339"><ele>292.0</ele><time>2026-04-07T08:09:43Z</time></trkpt><trkpt lat="43.976131784321126" lon="11.223945981705965"><ele>291.0</ele><time>2026-04-07T08:09:44Z</time></trkpt><trkpt lat="43.9762065169608" lon="11.224057603155158"><ele>288.0</ele><time>2026-04-07T08:09:45Z</time></trkpt><trkpt lat="43.97630818226489" lon="11.224152411399132"><ele>285.0</ele><time>2026-04-07T08:09:46Z</time></trkpt><trkpt lat="43.97643343708165" lon="11.224220350970825"><ele>282.0</ele><time>2026-04-07T08:09:47Z</time></trkpt><trkpt lat="43.97657475121196" lon="11.224278735905147"><ele>279.0</ele><time>2026-04-07T08:09:48Z</time></trkpt><trkpt lat="43.97673796186154" lon="11.224323525151545"><ele>279.0</ele><time>2026-04-07T08:09:49Z</time></trkpt><trkpt lat="43.976875045895014" lon="11.224382045970058"><ele>279.0</ele><time>2026-04-07T08:09:50Z</time></trkpt><trkpt lat="43.977025260630846" lon="11.224445975009191"><ele>279.0</ele><time>2026-04-07T08:09:51Z</time></trkpt><trkpt lat="43.97716696076712" lon="11.224505417001785"><ele>279.0</ele><time>2026-04-07T08:09:52Z</time></trkpt><trkpt lat="43.977315802268386" lon="11.224569919173586"><ele>279.0</ele><time>2026-04-07T08:09:53Z</time></trkpt><trkpt lat="43.97745860607868" lon="11.224633856373648"><ele>279.0</ele><time>2026-04-07T08:09:54Z</time></trkpt><trkpt lat="43.97759376394564" lon="11.22469448470796"><ele>279.0</ele><time>2026-04-07T08:09:55Z</time></trkpt><trkpt lat="43.97772747230384" lon="11.224754886942284"><ele>279.0</ele><time>2026-04-07T08:09:56Z</time></trkpt><trkpt lat="43.97786318818594" lon="11.224811805769914"><ele>274.6666666666667</ele><time>2026-04-07T08:09:57Z</time></trkpt><trkpt lat="43.9780025799325" lon="11.224872395480022"><ele>270.33333333333337</ele><time>2026-04-07T08:09:58Z</time></trkpt><trkpt lat="43.9781530836204" lon="11.22493725302576"><ele>266.0</ele><time>2026-04-07T08:09:59Z</time></trkpt><trkpt lat="43.97829811522884" lon="11.225001672981364"><ele>264.6666666666667</ele><time>2026-04-07T08:10:00Z</time></trkpt><trkpt lat="43.978442946667606" lon="11.225067991566544"><ele>263.3333333333333</ele><time>2026-04-07T08:10:01Z</time></trkpt><trkpt lat="43.97858591656456" lon="11.225132909211332"><ele>262.0</ele><time>2026-04-07T08:10:02Z</time></trkpt><trkpt lat="43.97872533557192" lon="11.225196036307624"><ele>262.0</ele><time>2026-04-07T08:10:03Z</time></trkpt><trkpt lat="43.978858504284034" lon="11.225256576456438"><ele>262.0</ele><time>2026-04-07T08:10:04Z</time></trkpt><trkpt lat="43.9789952506038" lon="11.225321339991469"><ele>262.0</ele><time>2026-04-07T08:10:05Z</time></trkpt><trkpt lat="43.97913761739845" lon="11.22539501669667"><ele>262.0</ele><time>2026-04-07T08:10:06Z</time></trkpt><trkpt lat="43.97926535316021" lon="11.225468827763452"><ele>261.5</ele><time>2026-04-07T08:10:07Z</time></trkpt><trkpt lat="43.979391464636095" lon="11.225543341198629"><ele>261.0</ele><time>2026-04-07T08:10:08Z</time></trkpt><trkpt lat="43.979510399064885" lon="11.225611158032393"><ele>260.5</ele><time>2026-04-07T08:10:09Z</time></trkpt><trkpt lat="43.97962271522605" lon="11.225671807330443"><ele>260.0</ele><time>2026-04-07T08:10:10Z</time></trkpt><trkpt lat="43.97972463473555" lon="11.225732886303105"><ele>260.0</ele><time>2026-04-07T08:10:11Z</time></trkpt><trkpt lat="43.979819006631516" lon="11.225790185852295"><ele>260.0</ele><time>2026-04-07T08:10:12Z</time></trkpt><trkpt lat="43.97990710310889" lon="11.225855326449144"><ele>260.0</ele><time>2026-04-07T08:10:13Z</time></trkpt><trkpt lat="43.97998177161323" lon="11.225933740911145"><ele>260.0</ele><time>2026-04-07T08:10:14Z</time></trkpt><trkpt lat="43.98005809440632" lon="11.226027791435339"><ele>260.0</ele><time>2026-04-07T08:10:15Z</time></trkpt><trkpt lat="43.98012465395311" lon="11.226133871885896"><ele>260.0</ele><time>2026-04-07T08:10:16Z</time></trkpt><trkpt lat="43.98017449497736" lon="11.226265835364131"><ele>260.0</ele><time>2026-04-07T08:10:17Z</time></trkpt><trkpt lat="43.98021650133607" lon="11.226403386702952"><ele>260.0</ele><time>2026-04-07T08:10:18Z</time></trkpt><trkpt lat="43.98025523493582" lon="11.22653038173982"><ele>260.0</ele><time>2026-04-07T08:10:19Z</time></trkpt><trkpt lat="43.98031387015884" lon="11.226624332399739"><ele>260.0</ele><time>2026-04-07T08:10:20Z</time></trkpt><trkpt lat="43.98038370171973" lon="11.22667181376921"><ele>259.8</ele><time>2026-04-07T08:10:21Z</time></trkpt><trkpt lat="43.9804660145112" lon="11.22668987965212"><ele>259.6</ele><time>2026-04-07T08:10:22Z</time></trkpt><trkpt lat="43.98055505278983" lon="11.226701112083548"><ele>259.4</ele><time>2026-04-07T08:10:23Z</time></trkpt><trkpt lat="43.98062914809898" lon="11.226749538901457"><ele>259.2</ele><time>2026-04-07T08:10:24Z</time></trkpt><trkpt lat="43.98068252134174" lon="11.22684676929861"><ele>259.0</ele><time>2026-04-07T08:10:25Z</time></trkpt><trkpt lat="43.98072123977061" lon="11.226995599967383"><ele>259.0</ele><time>2026-04-07T08:10:26Z</time></trkpt><trkpt lat="43.98074974825166" lon="11.227186753176394"><ele>259.0</ele><time>2026-04-07T08:10:27Z</time></trkpt><trkpt lat="43.98076865078137" lon="11.227406098707204"><ele>259.0</ele><time>2026-04-07T08:10:28Z</time></trkpt><trkpt lat="43.9807711122596" lon="11.2276433435405"><ele>260.0</ele><time>2026-04-07T08:10:29Z</time></trkpt><trkpt lat="43.980750785519405" lon="11.22788640949384"><ele>261.0</ele><time>2026-04-07T08:10:30Z</time></trkpt><trkpt lat="43.98071288476911" lon="11.228144098888482"><ele>262.0</ele><time>2026-04-07T08:10:31Z</time></trkpt><trkpt lat="43.98066383660855" lon="11.228436083564253"><ele>263.0</ele><time>2026-04-07T08:10:32Z</time></trkpt><trkpt lat="43.98060741739213" lon="11.228730530760073"><ele>264.0</ele><time>2026-04-07T08:10:33Z</time></trkpt><trkpt lat="43.98061152890165" lon="11.228978339310757"><ele>265.0</ele><time>2026-04-07T08:10:34Z</time></trkpt><trkpt lat="43.98061078572114" lon="11.22926701786945"><ele>265.66666666666663</ele><time>2026-04-07T08:10:35Z</time></trkpt><trkpt lat="43.98061667044561" lon="11.229528808590995"><ele>266.3333333333333</ele><time>2026-04-07T08:10:36Z</time></trkpt><trkpt lat="43.980634202730315" lon="11.229785227290833"><ele>267.0</ele><time>2026-04-07T08:10:37Z</time></trkpt><trkpt lat="43.98066701531064" lon="11.230038549271256"><ele>267.0</ele><time>2026-04-07T08:10:38Z</time></trkpt><trkpt lat="43.98071702602429" lon="11.230292166250452"><ele>267.0</ele><time>2026-04-07T08:10:39Z</time></trkpt><trkpt lat="43.98077212004911" lon="11.230543160026885"><ele>267.0</ele><time>2026-04-07T08:10:40Z</time></trkpt><trkpt lat="43.980822743339196" lon="11.230795935599716"><ele>267.6666666666667</ele><time>2026-04-07T08:10:41Z</time></trkpt><trkpt lat="43.9808681093094" lon="11.231048598399962"><ele>268.33333333333337</ele><time>2026-04-07T08:10:42Z</time></trkpt><trkpt lat="43.98091195860797" lon="11.231296696174857"><ele>269.0</ele><time>2026-04-07T08:10:43Z</time></trkpt><trkpt lat="43.980953183519325" lon="11.231529413258114"><ele>269.0</ele><time>2026-04-07T08:10:44Z</time></trkpt><trkpt lat="43.98099233394353" lon="11.231744420582155"><ele>269.0</ele><time>2026-04-07T08:10:45Z</time></trkpt><trkpt lat="43.98103450278815" lon="11.231939859870202"><ele>269.0</ele><time>2026-04-07T08:10:46Z</time></trkpt><trkpt lat="43.981085120345845" lon="11.232130630683175"><ele>269.0</ele><time>2026-04-07T08:10:47Z</time></trkpt><trkpt lat="43.98115316965467" lon="11.232299715206887"><ele>269.0</ele><time>2026-04-07T08:10:48Z</time></trkpt><trkpt lat="43.98123915514034" lon="11.232445670110332"><ele>269.0</ele><time>2026-04-07T08:10:49Z</time></trkpt><trkpt lat="43.981340944251315" lon="11.232583566287442"><ele>269.0</ele><time>2026-04-07T08:10:50Z</time></trkpt><trkpt lat="43.981452254648985" lon="11.232723897459314"><ele>268.33333333333337</ele><time>2026-04-07T08:10:51Z</time></trkpt><trkpt lat="43.98155734047843" lon="11.232891557606067"><ele>267.6666666666667</ele><time>2026-04-07T08:10:52Z</time></trkpt><trkpt lat="43.98165715835042" lon="11.233074845093094"><ele>267.0</ele><time>2026-04-07T08:10:53Z</time></trkpt><trkpt lat="43.98175456818829" lon="11.23325197863928"><ele>266.6666666666667</ele><time>2026-04-07T08:10:54Z</time></trkpt><trkpt lat="43.98185237627995" lon="11.233423123154349"><ele>266.33333333333337</ele><time>2026-04-07T08:10:55Z</time></trkpt><trkpt lat="43.981942212798025" lon="11.233600293401311"><ele>266.0</ele><time>2026-04-07T08:10:56Z</time></trkpt><trkpt lat="43.98202791212507" lon="11.233796814692138"><ele>266.25</ele><time>2026-04-07T08:10:57Z</time></trkpt><trkpt lat="43.98210040697978" lon="11.233994171957018"><ele>266.5</ele><time>2026-04-07T08:10:58Z</time></trkpt><trkpt lat="43.98216185381971" lon="11.23418907379609"><ele>266.75</ele><time>2026-04-07T08:10:59Z</time></trkpt><trkpt lat="43.9822104309703" lon="11.23435976124157"><ele>267.0</ele><time>2026-04-07T08:11:00Z</time></trkpt><trkpt lat="43.982247816976106" lon="11.234494026827493"><ele>267.0</ele><time>2026-04-07T08:11:01Z</time></trkpt><trkpt lat="43.98228134412989" lon="11.234619617499993"><ele>267.0</ele><time>2026-04-07T08:11:02Z</time></trkpt><trkpt lat="43.98231042710665" lon="11.234733084056204"><ele>267.0</ele><time>2026-04-07T08:11:03Z</time></trkpt><trkpt lat="43.98233254966763" lon="11.23483374551931"><ele>267.0</ele><time>2026-04-07T08:11:04Z</time></trkpt><trkpt lat="43.98235017059466" lon="11.234927995015449"><ele>267.0</ele><time>2026-04-07T08:11:05Z</time></trkpt><trkpt lat="43.98236843867694" lon="11.23507832380813"><ele>267.0</ele><time>2026-04-07T08:11:07Z</time></trkpt><trkpt lat="43.98237105968469" lon="11.235192141331188"><ele>266.8</ele><time>2026-04-07T08:11:09Z</time></trkpt><trkpt lat="43.982416205617156" lon="11.235283468107061"><ele>266.6</ele><time>2026-04-07T08:11:12.001Z</time></trkpt><trkpt lat="43.98249217187864" lon="11.235230585222968"><ele>266.40000000000003</ele><time>2026-04-07T08:11:15.001Z</time></trkpt><trkpt lat="43.98247699226084" lon="11.235121736175547"><ele>266.2</ele><time>2026-04-07T08:11:19.001Z</time></trkpt><trkpt lat="43.982403953480336" lon="11.235033841398828"><ele>266.0</ele><time>2026-04-07T08:11:22.001Z</time></trkpt><trkpt lat="43.982357332862705" lon="11.234838325347797"><ele>266.25</ele><time>2026-04-07T08:11:24.001Z</time></trkpt><trkpt lat="43.982326117921" lon="11.23469728361633"><ele>266.5</ele><time>2026-04-07T08:11:25Z</time></trkpt><trkpt lat="43.98228967885732" lon="11.234537041473915"><ele>266.75</ele><time>2026-04-07T08:11:26Z</time></trkpt><trkpt lat="43.98223974560391" lon="11.234352548713947"><ele>267.0</ele><time>2026-04-07T08:11:27Z</time></trkpt><trkpt lat="43.982182248740244" lon="11.23416632389932"><ele>267.0</ele><time>2026-04-07T08:11:28Z</time></trkpt><trkpt lat="43.98212080060134" lon="11.233977070627724"><ele>267.0</ele><time>2026-04-07T08:11:29Z</time></trkpt><trkpt lat="43.982048759886354" lon="11.233788155818042"><ele>267.0</ele><time>2026-04-07T08:11:30Z</time></trkpt><trkpt lat="43.98197143145111" lon="11.233611813928073"><ele>267.0</ele><time>2026-04-07T08:11:31Z</time></trkpt><trkpt lat="43.98189675085897" lon="11.233459388147258"><ele>267.0</ele><time>2026-04-07T08:11:32Z</time></trkpt><trkpt lat="43.98182349421155" lon="11.233322912104322"><ele>267.0</ele><time>2026-04-07T08:11:33Z</time></trkpt><trkpt lat="43.98175454810049" lon="11.233198039787656"><ele>267.0</ele><time>2026-04-07T08:11:34Z</time></trkpt><trkpt lat="43.98169109766657" lon="11.233080755093438"><ele>267.0</ele><time>2026-04-07T08:11:35Z</time></trkpt><trkpt lat="43.981636809830974" lon="11.232985475602426"><ele>267.0</ele><time>2026-04-07T08:11:36Z</time></trkpt><trkpt lat="43.98158877662178" lon="11.232893121636463"><ele>267.0</ele><time>2026-04-07T08:11:37Z</time></trkpt><trkpt lat="43.981558999984095" lon="11.232798801845354"><ele>267.0</ele><time>2026-04-07T08:11:38Z</time></trkpt><trkpt lat="43.9815563576851" lon="11.232706225339623"><ele>267.0</ele><time>2026-04-07T08:11:39Z</time></trkpt><trkpt lat="43.9816340634593" lon="11.232538367127674"><ele>267.0</ele><time>2026-04-07T08:11:41Z</time></trkpt><trkpt lat="43.981712710953104" lon="11.232492098002876"><ele>267.0</ele><time>2026-04-07T08:11:42Z</time></trkpt><trkpt lat="43.981796981376355" lon="11.232482389305469"><ele>267.0</ele><time>2026-04-07T08:11:43Z</time></trkpt><trkpt lat="43.981903472696274" lon="11.232507634036534"><ele>267.0</ele><time>2026-04-07T08:11:44Z</time></trkpt><trkpt lat="43.98202479333735" lon="11.232549737145062"><ele>267.0</ele><time>2026-04-07T08:11:45Z</time></trkpt><trkpt lat="43.9821410350319" lon="11.232582606060717"><ele>267.0</ele><time>2026-04-07T08:11:46Z</time></trkpt><trkpt lat="43.9822623148565" lon="11.232604278400055"><ele>267.0</ele><time>2026-04-07T08:11:47Z</time></trkpt><trkpt lat="43.98238989345627" lon="11.232629940091435"><ele>267.0</ele><time>2026-04-07T08:11:48Z</time></trkpt><trkpt lat="43.98250970816657" lon="11.232652060614857"><ele>267.0</ele><time>2026-04-07T08:11:49Z</time></trkpt><trkpt lat="43.982626233616344" lon="11.232673469023911"><ele>267.25</ele><time>2026-04-07T08:11:50Z</time></trkpt><trkpt lat="43.982750370769324" lon="11.232700044100199"><ele>267.5</ele><time>2026-04-07T08:11:51Z</time></trkpt><trkpt lat="43.98287627879349" lon="11.23272547566198"><ele>267.75</ele><time>2026-04-07T08:11:52Z</time></trkpt><trkpt lat="43.983002185101526" lon="11.232748688372078"><ele>268.0</ele><time>2026-04-07T08:11:53Z</time></trkpt><trkpt lat="43.98312224029245" lon="11.232772626925348"><ele>268.0</ele><time>2026-04-07T08:11:54Z</time></trkpt><trkpt lat="43.98324697904975" lon="11.23279805499482"><ele>268.0</ele><time>2026-04-07T08:11:55Z</time></trkpt><trkpt lat="43.98336602742926" lon="11.232823827571082"><ele>268.0</ele><time>2026-04-07T08:11:56Z</time></trkpt><trkpt lat="43.983481918784705" lon="11.232849609499278"><ele>268.0</ele><time>2026-04-07T08:11:57Z</time></trkpt><trkpt lat="43.98358923159913" lon="11.23287348818293"><ele>268.4</ele><time>2026-04-07T08:11:58Z</time></trkpt><trkpt lat="43.98369592725863" lon="11.232899255713368"><ele>268.8</ele><time>2026-04-07T08:11:59Z</time></trkpt><trkpt lat="43.98380336841372" lon="11.232931836474862"><ele>269.2</ele><time>2026-04-07T08:12:00Z</time></trkpt><trkpt lat="43.98391288999926" lon="11.232979615117321"><ele>269.6</ele><time>2026-04-07T08:12:01Z</time></trkpt><trkpt lat="43.984013437599216" lon="11.233031162642664"><ele>270.0</ele><time>2026-04-07T08:12:02Z</time></trkpt><trkpt lat="43.9840938632494" lon="11.233071103676386"><ele>270.0</ele><time>2026-04-07T08:12:03Z</time></trkpt><trkpt lat="43.984170483197964" lon="11.233101157410621"><ele>270.0</ele><time>2026-04-07T08:12:04Z</time></trkpt><trkpt lat="43.98424178998866" lon="11.233136867075563"><ele>270.0</ele><time>2026-04-07T08:12:05Z</time></trkpt><trkpt lat="43.9843132173709" lon="11.233169608216706"><ele>270.0</ele><time>2026-04-07T08:12:06Z</time></trkpt><trkpt lat="43.98439392672027" lon="11.23319086616568"><ele>270.0</ele><time>2026-04-07T08:12:07Z</time></trkpt><trkpt lat="43.98447553557927" lon="11.233224947992037"><ele>270.0</ele><time>2026-04-07T08:12:08Z</time></trkpt><trkpt lat="43.98456339964013" lon="11.233233403553715"><ele>270.5</ele><time>2026-04-07T08:12:09Z</time></trkpt><trkpt lat="43.98465210352167" lon="11.233239663436441"><ele>271.0</ele><time>2026-04-07T08:12:10Z</time></trkpt><trkpt lat="43.98472497867617" lon="11.23324776018229"><ele>271.5</ele><time>2026-04-07T08:12:11Z</time></trkpt><trkpt lat="43.98480974789255" lon="11.233250360007043"><ele>272.0</ele><time>2026-04-07T08:12:12Z</time></trkpt><trkpt lat="43.98490628046124" lon="11.233261162641153"><ele>272.5</ele><time>2026-04-07T08:12:13Z</time></trkpt><trkpt lat="43.98499578747787" lon="11.2332836244351"><ele>273.0</ele><time>2026-04-07T08:12:14Z</time></trkpt><trkpt lat="43.98509059195337" lon="11.233311484955303"><ele>270.6</ele><time>2026-04-07T08:12:15Z</time></trkpt><trkpt lat="43.98518648766515" lon="11.233331926776119"><ele>268.20000000000005</ele><time>2026-04-07T08:12:16Z</time></trkpt><trkpt lat="43.985288357810916" lon="11.23334562089068"><ele>265.8</ele><time>2026-04-07T08:12:17Z</time></trkpt><trkpt lat="43.985382163958015" lon="11.233347066244823"><ele>263.40000000000003</ele><time>2026-04-07T08:12:18Z</time></trkpt><trkpt lat="43.98548544594198" lon="11.233362108408826"><ele>261.0</ele><time>2026-04-07T08:12:19Z</time></trkpt><trkpt lat="43.98559490512226" lon="11.233346872621091"><ele>261.0</ele><time>2026-04-07T08:12:20Z</time></trkpt><trkpt lat="43.98569948040747" lon="11.23327816587036"><ele>261.0</ele><time>2026-04-07T08:12:21Z</time></trkpt><trkpt lat="43.985817645433016" lon="11.233228060006455"><ele>261.0</ele><time>2026-04-07T08:12:22Z</time></trkpt><trkpt lat="43.98594016378805" lon="11.23316932618094"><ele>261.0</ele><time>2026-04-07T08:12:23Z</time></trkpt><trkpt lat="43.986075332112655" lon="11.233095815344042"><ele>261.6666666666667</ele><time>2026-04-07T08:12:24Z</time></trkpt><trkpt lat="43.986222136592914" lon="11.233017134063427"><ele>262.33333333333337</ele><time>2026-04-07T08:12:25Z</time></trkpt><trkpt lat="43.986375603875885" lon="11.2329606289348"><ele>263.0</ele><time>2026-04-07T08:12:26Z</time></trkpt><trkpt lat="43.986530555198314" lon="11.232932062775355"><ele>262.0</ele><time>2026-04-07T08:12:27Z</time></trkpt><trkpt lat="43.986694870723845" lon="11.23291768560423"><ele>261.0</ele><time>2026-04-07T08:12:28Z</time></trkpt><trkpt lat="43.986857008809636" lon="11.232922251660208"><ele>260.0</ele><time>2026-04-07T08:12:29Z</time></trkpt><trkpt lat="43.987016207493205" lon="11.23293474228872"><ele>260.0</ele><time>2026-04-07T08:12:30Z</time></trkpt><trkpt lat="43.987165647240296" lon="11.232948281878311"><ele>260.0</ele><time>2026-04-07T08:12:31Z</time></trkpt><trkpt lat="43.9873084190352" lon="11.232957432275219"><ele>260.0</ele><time>2026-04-07T08:12:32Z</time></trkpt><trkpt lat="43.987456779792836" lon="11.232969285689057"><ele>260.0</ele><time>2026-04-07T08:12:33Z</time></trkpt><trkpt lat="43.98760446293677" lon="11.232992660091599"><ele>259.5</ele><time>2026-04-07T08:12:34Z</time></trkpt><trkpt lat="43.98775160851628" lon="11.233029042280965"><ele>259.0</ele><time>2026-04-07T08:12:35Z</time></trkpt><trkpt lat="43.987888160180894" lon="11.233083261930283"><ele>258.5</ele><time>2026-04-07T08:12:36Z</time></trkpt><trkpt lat="43.98802130221116" lon="11.233163831689886"><ele>258.0</ele><time>2026-04-07T08:12:37Z</time></trkpt><trkpt lat="43.98815665429184" lon="11.23327776359314"><ele>257.6666666666667</ele><time>2026-04-07T08:12:38Z</time></trkpt><trkpt lat="43.988292446625934" lon="11.23341555450217"><ele>257.33333333333337</ele><time>2026-04-07T08:12:39Z</time></trkpt><trkpt lat="43.988424256362855" lon="11.233563080238383"><ele>257.0</ele><time>2026-04-07T08:12:40Z</time></trkpt><trkpt lat="43.988550167834184" lon="11.233708855055648"><ele>257.0</ele><time>2026-04-07T08:12:41Z</time></trkpt><trkpt lat="43.988668447068356" lon="11.233844574345751"><ele>257.0</ele><time>2026-04-07T08:12:42Z</time></trkpt><trkpt lat="43.98879456974882" lon="11.233984341334434"><ele>257.0</ele><time>2026-04-07T08:12:43Z</time></trkpt><trkpt lat="43.98893454755145" lon="11.234118650933036"><ele>257.33333333333337</ele><time>2026-04-07T08:12:44Z</time></trkpt><trkpt lat="43.989090759239055" lon="11.234245899387032"><ele>257.6666666666667</ele><time>2026-04-07T08:12:45Z</time></trkpt><trkpt lat="43.98924948546423" lon="11.234354724980347"><ele>258.0</ele><time>2026-04-07T08:12:46Z</time></trkpt><trkpt lat="43.98939810312361" lon="11.23444411534238"><ele>258.5</ele><time>2026-04-07T08:12:47Z</time></trkpt><trkpt lat="43.98953342174011" lon="11.23451692755843"><ele>259.0</ele><time>2026-04-07T08:12:48Z</time></trkpt><trkpt lat="43.98967392706838" lon="11.234586243006541"><ele>259.5</ele><time>2026-04-07T08:12:49Z</time></trkpt><trkpt lat="43.98981837760939" lon="11.234657051964316"><ele>260.0</ele><time>2026-04-07T08:12:50Z</time></trkpt><trkpt lat="43.98996544456668" lon="11.23473172194374"><ele>260.33333333333337</ele><time>2026-04-07T08:12:51Z</time></trkpt><trkpt lat="43.99011480537373" lon="11.234805835207801"><ele>260.6666666666667</ele><time>2026-04-07T08:12:52Z</time></trkpt><trkpt lat="43.99026180844505" lon="11.23487904587189"><ele>261.0</ele><time>2026-04-07T08:12:53Z</time></trkpt><trkpt lat="43.99040484957883" lon="11.23495043814971"><ele>261.0</ele><time>2026-04-07T08:12:54Z</time></trkpt><trkpt lat="43.99054366810409" lon="11.235020909933764"><ele>261.0</ele><time>2026-04-07T08:12:55Z</time></trkpt><trkpt lat="43.990670325185384" lon="11.235083790950936"><ele>261.0</ele><time>2026-04-07T08:12:56Z</time></trkpt><trkpt lat="43.990799033265255" lon="11.235148282147936"><ele>261.0</ele><time>2026-04-07T08:12:57Z</time></trkpt><trkpt lat="43.99092766621728" lon="11.235217154020045"><ele>261.6</ele><time>2026-04-07T08:12:58Z</time></trkpt><trkpt lat="43.99104387895775" lon="11.235283614737815"><ele>262.20000000000005</ele><time>2026-04-07T08:12:59Z</time></trkpt><trkpt lat="43.99115065408147" lon="11.235351967466448"><ele>262.79999999999995</ele><time>2026-04-07T08:13:00Z</time></trkpt><trkpt lat="43.991240191072265" lon="11.23542079932196"><ele>263.4</ele><time>2026-04-07T08:13:01Z</time></trkpt><trkpt lat="43.991315264865264" lon="11.235496647798449"><ele>264.0</ele><time>2026-04-07T08:13:02Z</time></trkpt><trkpt lat="43.99137889118644" lon="11.23558439403506"><ele>264.2</ele><time>2026-04-07T08:13:03Z</time></trkpt><trkpt lat="43.991432360709815" lon="11.235698294666086"><ele>264.4</ele><time>2026-04-07T08:13:04Z</time></trkpt><trkpt lat="43.99146930660223" lon="11.235833484377693"><ele>264.6</ele><time>2026-04-07T08:13:05Z</time></trkpt><trkpt lat="43.991516170496666" lon="11.235955607661415"><ele>264.8</ele><time>2026-04-07T08:13:05.999Z</time></trkpt><trkpt lat="43.99159211703647" lon="11.236045900722772"><ele>265.0</ele><time>2026-04-07T08:13:06.999Z</time></trkpt><trkpt lat="43.99168037223433" lon="11.236124711336846"><ele>265.0</ele><time>2026-04-07T08:13:07.999Z</time></trkpt><trkpt lat="43.991763348818836" lon="11.236245377505623"><ele>265.0</ele><time>2026-04-07T08:13:08.999Z</time></trkpt><trkpt lat="43.99182572701081" lon="11.236406962422473"><ele>265.0</ele><time>2026-04-07T08:13:09.999Z</time></trkpt><trkpt lat="43.99187600927331" lon="11.236590333439352"><ele>265.0</ele><time>2026-04-07T08:13:10.999Z</time></trkpt><trkpt lat="43.99193533235195" lon="11.236771249778807"><ele>264.5</ele><time>2026-04-07T08:13:11.999Z</time></trkpt><trkpt lat="43.99198896852688" lon="11.2369303561195"><ele>264.0</ele><time>2026-04-07T08:13:12.999Z</time></trkpt><trkpt lat="43.99204189029485" lon="11.237080170809781"><ele>263.5</ele><time>2026-04-07T08:13:13.999Z</time></trkpt><trkpt lat="43.99209743178864" lon="11.237246072057037"><ele>263.0</ele><time>2026-04-07T08:13:14.999Z</time></trkpt><trkpt lat="43.992157552971776" lon="11.237420232013719"><ele>263.0</ele><time>2026-04-07T08:13:16Z</time></trkpt><trkpt lat="43.99222155110831" lon="11.23760512020484"><ele>263.0</ele><time>2026-04-07T08:13:17Z</time></trkpt><trkpt lat="43.99228841266887" lon="11.237792505702332"><ele>263.0</ele><time>2026-04-07T08:13:18Z</time></trkpt><trkpt lat="43.99235185360866" lon="11.237980326329529"><ele>263.0</ele><time>2026-04-07T08:13:19Z</time></trkpt><trkpt lat="43.99241387343213" lon="11.238171278658013"><ele>263.0</ele><time>2026-04-07T08:13:20Z</time></trkpt><trkpt lat="43.99247513597728" lon="11.238351474122052"><ele>263.0</ele><time>2026-04-07T08:13:21Z</time></trkpt><trkpt lat="43.992537464384675" lon="11.23853390407604"><ele>263.0</ele><time>2026-04-07T08:13:22Z</time></trkpt><trkpt lat="43.992600349432514" lon="11.238714908820784"><ele>263.0</ele><time>2026-04-07T08:13:23Z</time></trkpt><trkpt lat="43.99266397146776" lon="11.23889817463359"><ele>263.0</ele><time>2026-04-07T08:13:24Z</time></trkpt><trkpt lat="43.99272796687318" lon="11.239084127822991"><ele>263.0</ele><time>2026-04-07T08:13:25Z</time></trkpt><trkpt lat="43.9927887970383" lon="11.23926407814741"><ele>263.0</ele><time>2026-04-07T08:13:26Z</time></trkpt><trkpt lat="43.99284697860274" lon="11.239432397532276"><ele>263.0</ele><time>2026-04-07T08:13:27Z</time></trkpt><trkpt lat="43.9929025712166" lon="11.239591383363615"><ele>263.0</ele><time>2026-04-07T08:13:28Z</time></trkpt><trkpt lat="43.99295373276512" lon="11.239735050031957"><ele>263.0</ele><time>2026-04-07T08:13:29Z</time></trkpt><trkpt lat="43.992997534796366" lon="11.239867522855215"><ele>263.0</ele><time>2026-04-07T08:13:30Z</time></trkpt><trkpt lat="43.993033036703956" lon="11.239990164731992"><ele>263.0</ele><time>2026-04-07T08:13:31Z</time></trkpt><trkpt lat="43.993060753153465" lon="11.240121969156892"><ele>263.0</ele><time>2026-04-07T08:13:32Z</time></trkpt><trkpt lat="43.99307522577277" lon="11.240258239956125"><ele>263.0</ele><time>2026-04-07T08:13:33Z</time></trkpt><trkpt lat="43.9930869382729" lon="11.240375827920595"><ele>263.0</ele><time>2026-04-07T08:13:34Z</time></trkpt><trkpt lat="43.993121927563045" lon="11.240472677874202"><ele>263.0</ele><time>2026-04-07T08:13:35Z</time></trkpt><trkpt lat="43.99318265909119" lon="11.240543044177812"><ele>263.0</ele><time>2026-04-07T08:13:36Z</time></trkpt><trkpt lat="43.99326223461749" lon="11.240585905205686"><ele>263.0</ele><time>2026-04-07T08:13:37Z</time></trkpt><trkpt lat="43.993348833186666" lon="11.240590473314812"><ele>263.0</ele><time>2026-04-07T08:13:38Z</time></trkpt><trkpt lat="43.9934540154674" lon="11.240548606803621"><ele>263.0</ele><time>2026-04-07T08:13:39Z</time></trkpt><trkpt lat="43.9935735981761" lon="11.240485978221432"><ele>263.0</ele><time>2026-04-07T08:13:40Z</time></trkpt><trkpt lat="43.99369864315416" lon="11.240429549743903"><ele>263.0</ele><time>2026-04-07T08:13:41Z</time></trkpt><trkpt lat="43.993837820361165" lon="11.240385705642133"><ele>263.0</ele><time>2026-04-07T08:13:42Z</time></trkpt><trkpt lat="43.99398436354" lon="11.240383874208192"><ele>263.0</ele><time>2026-04-07T08:13:43Z</time></trkpt><trkpt lat="43.99413387325914" lon="11.240366824855206"><ele>263.0</ele><time>2026-04-07T08:13:44Z</time></trkpt><trkpt lat="43.99428225433368" lon="11.240349904206795"><ele>263.0</ele><time>2026-04-07T08:13:45Z</time></trkpt><trkpt lat="43.99441298451788" lon="11.240312203207754"><ele>263.0</ele><time>2026-04-07T08:13:46Z</time></trkpt><trkpt lat="43.994544046850166" lon="11.240296171385504"><ele>263.5</ele><time>2026-04-07T08:13:47Z</time></trkpt><trkpt lat="43.994668958532145" lon="11.240286168758601"><ele>264.0</ele><time>2026-04-07T08:13:48Z</time></trkpt><trkpt lat="43.994786620398095" lon="11.240275609443147"><ele>264.5</ele><time>2026-04-07T08:13:49Z</time></trkpt><trkpt lat="43.994902103434256" lon="11.240267002577502"><ele>265.0</ele><time>2026-04-07T08:13:50Z</time></trkpt><trkpt lat="43.99501550592428" lon="11.24025804837889"><ele>265.0</ele><time>2026-04-07T08:13:51Z</time></trkpt><trkpt lat="43.99512818665235" lon="11.240247825916143"><ele>265.0</ele><time>2026-04-07T08:13:52Z</time></trkpt><trkpt lat="43.99524354702333" lon="11.240241292474282"><ele>265.0</ele><time>2026-04-07T08:13:53Z</time></trkpt><trkpt lat="43.99534893222024" lon="11.240235177720349"><ele>265.0</ele><time>2026-04-07T08:13:54Z</time></trkpt><trkpt lat="43.99543997668772" lon="11.240229763402601"><ele>265.0</ele><time>2026-04-07T08:13:55Z</time></trkpt><trkpt lat="43.99551970321422" lon="11.240220012102585"><ele>265.0</ele><time>2026-04-07T08:13:56Z</time></trkpt><trkpt lat="43.995584307652905" lon="11.240210589602734"><ele>265.0</ele><time>2026-04-07T08:13:57Z</time></trkpt><trkpt lat="43.995696176709274" lon="11.240195654600257"><ele>265.0</ele><time>2026-04-07T08:13:59Z</time></trkpt><trkpt lat="43.995775758082864" lon="11.240184860832409"><ele>265.0</ele><time>2026-04-07T08:14:01Z</time></trkpt><trkpt lat="43.995848948412764" lon="11.2401809784614"><ele>265.0</ele><time>2026-04-07T08:14:20.999Z</time></trkpt><trkpt lat="43.99597452827334" lon="11.240179848491126"><ele>264.75</ele><time>2026-04-07T08:14:22.999Z</time></trkpt><trkpt lat="43.99608833973332" lon="11.240313631956717"><ele>264.5</ele><time>2026-04-07T08:14:24.999Z</time></trkpt><trkpt lat="43.996128555187845" lon="11.240436363829497"><ele>264.25</ele><time>2026-04-07T08:14:25.999Z</time></trkpt><trkpt lat="43.996167547215165" lon="11.240600398175383"><ele>264.0</ele><time>2026-04-07T08:14:26.999Z</time></trkpt><trkpt lat="43.99621053263963" lon="11.240767493596238"><ele>263.25</ele><time>2026-04-07T08:14:27.999Z</time></trkpt><trkpt lat="43.99625726025656" lon="11.240946833247722"><ele>262.5</ele><time>2026-04-07T08:14:28.999Z</time></trkpt><trkpt lat="43.996308003650775" lon="11.241132006906422"><ele>261.75</ele><time>2026-04-07T08:14:29.999Z</time></trkpt><trkpt lat="43.996360132073676" lon="11.241310330715093"><ele>261.0</ele><time>2026-04-07T08:14:30.999Z</time></trkpt><trkpt lat="43.99641417030736" lon="11.24147917280864"><ele>260.75</ele><time>2026-04-07T08:14:31.999Z</time></trkpt><trkpt lat="43.99648214021544" lon="11.241628612906503"><ele>260.5</ele><time>2026-04-07T08:14:32.999Z</time></trkpt><trkpt lat="43.99657212123444" lon="11.24175738832395"><ele>260.25</ele><time>2026-04-07T08:14:33.999Z</time></trkpt><trkpt lat="43.99668765822149" lon="11.241861741901854"><ele>260.0</ele><time>2026-04-07T08:14:34.999Z</time></trkpt><trkpt lat="43.99682692471023" lon="11.241946225832466"><ele>261.33333333333337</ele><time>2026-04-07T08:14:35.999Z</time></trkpt><trkpt lat="43.99697297193392" lon="11.24200728770834"><ele>262.6666666666667</ele><time>2026-04-07T08:14:36.999Z</time></trkpt><trkpt lat="43.99711650965226" lon="11.24205908653194"><ele>264.0</ele><time>2026-04-07T08:14:37.999Z</time></trkpt><trkpt lat="43.99726367565962" lon="11.242115571587886"><ele>264.0</ele><time>2026-04-07T08:14:38.999Z</time></trkpt><trkpt lat="43.99741114856617" lon="11.2421820946461"><ele>264.0</ele><time>2026-04-07T08:14:39.999Z</time></trkpt><trkpt lat="43.99755357544236" lon="11.242248967260423"><ele>264.0</ele><time>2026-04-07T08:14:40.999Z</time></trkpt><trkpt lat="43.997694333706924" lon="11.242307320379702"><ele>264.0</ele><time>2026-04-07T08:14:41.999Z</time></trkpt><trkpt lat="43.99781769795146" lon="11.242359950914434"><ele>264.0</ele><time>2026-04-07T08:14:42.999Z</time></trkpt><trkpt lat="43.99793293657535" lon="11.24241538954966"><ele>264.0</ele><time>2026-04-07T08:14:43.999Z</time></trkpt><trkpt lat="43.998054994717315" lon="11.242470605382628"><ele>264.0</ele><time>2026-04-07T08:14:44.999Z</time></trkpt><trkpt lat="43.99817652466738" lon="11.242525936281837"><ele>264.0</ele><time>2026-04-07T08:14:45.999Z</time></trkpt><trkpt lat="43.99829642768429" lon="11.242579753972672"><ele>264.0</ele><time>2026-04-07T08:14:46.999Z</time></trkpt><trkpt lat="43.998418702166965" lon="11.242638311819746"><ele>264.0</ele><time>2026-04-07T08:14:47.999Z</time></trkpt><trkpt lat="43.99854456192198" lon="11.242698151734901"><ele>264.0</ele><time>2026-04-07T08:14:48.999Z</time></trkpt><trkpt lat="43.99867248572343" lon="11.242753435788195"><ele>265.0</ele><time>2026-04-07T08:14:49.999Z</time></trkpt><trkpt lat="43.99879275774678" lon="11.24280509267503"><ele>266.0</ele><time>2026-04-07T08:14:50.999Z</time></trkpt><trkpt lat="43.998911207702726" lon="11.242856586712133"><ele>267.0</ele><time>2026-04-07T08:14:51.999Z</time></trkpt><trkpt lat="43.999032760390484" lon="11.242909593602091"><ele>268.0</ele><time>2026-04-07T08:14:52.999Z</time></trkpt><trkpt lat="43.99916257457901" lon="11.242970609205935"><ele>268.0</ele><time>2026-04-07T08:14:53.999Z</time></trkpt><trkpt lat="43.999290964098165" lon="11.243025366957276"><ele>268.0</ele><time>2026-04-07T08:14:54.999Z</time></trkpt><trkpt lat="43.999403435880204" lon="11.243072722010448"><ele>268.0</ele><time>2026-04-07T08:14:55.999Z</time></trkpt><trkpt lat="43.99949345403921" lon="11.243112659292581"><ele>268.0</ele><time>2026-04-07T08:14:56.999Z</time></trkpt><trkpt lat="43.99956055054376" lon="11.243149787678727"><ele>268.0</ele><time>2026-04-07T08:14:57.999Z</time></trkpt><trkpt lat="43.99961557647485" lon="11.243199268242208"><ele>268.16666666666663</ele><time>2026-04-07T08:14:58.999Z</time></trkpt><trkpt lat="43.999646956333514" lon="11.24330670702884"><ele>268.3333333333333</ele><time>2026-04-07T08:14:59.999Z</time></trkpt><trkpt lat="43.999713775595914" lon="11.243365632297168"><ele>268.5</ele><time>2026-04-07T08:15:00.999Z</time></trkpt><trkpt lat="43.99978267116996" lon="11.24341571394119"><ele>268.6666666666667</ele><time>2026-04-07T08:15:01.999Z</time></trkpt><trkpt lat="43.999859069618715" lon="11.243444051927376"><ele>268.83333333333337</ele><time>2026-04-07T08:15:02.999Z</time></trkpt><trkpt lat="43.999960580272976" lon="11.24338270416358"><ele>269.0</ele><time>2026-04-07T08:15:03.999Z</time></trkpt><trkpt lat="44.000061940831536" lon="11.243368610030101"><ele>269.0</ele><time>2026-04-07T08:15:04.999Z</time></trkpt><trkpt lat="44.000172250815666" lon="11.243406647812378"><ele>269.0</ele><time>2026-04-07T08:15:05.999Z</time></trkpt><trkpt lat="44.00028682224588" lon="11.243502567244116"><ele>269.0</ele><time>2026-04-07T08:15:06.999Z</time></trkpt><trkpt lat="44.00042233826595" lon="11.243542850555835"><ele>269.0</ele><time>2026-04-07T08:15:07.999Z</time></trkpt><trkpt lat="44.00057051039516" lon="11.24359353601948"><ele>269.0</ele><time>2026-04-07T08:15:08.999Z</time></trkpt><trkpt lat="44.00073348288876" lon="11.24361568335017"><ele>269.0</ele><time>2026-04-07T08:15:09.999Z</time></trkpt><trkpt lat="44.000906253556685" lon="11.243608785975523"><ele>269.0</ele><time>2026-04-07T08:15:10.999Z</time></trkpt><trkpt lat="44.00108469414469" lon="11.243570504540479"><ele>270.0</ele><time>2026-04-07T08:15:11.999Z</time></trkpt><trkpt lat="44.00126574255578" lon="11.243498654779172"><ele>271.0</ele><time>2026-04-07T08:15:12.999Z</time></trkpt><trkpt lat="44.00144856717368" lon="11.243396583684977"><ele>272.0</ele><time>2026-04-07T08:15:13.999Z</time></trkpt><trkpt lat="44.00163631292824" lon="11.243270640505072"><ele>271.0</ele><time>2026-04-07T08:15:14.999Z</time></trkpt><trkpt lat="44.00182771447064" lon="11.243140083431156"><ele>270.0</ele><time>2026-04-07T08:15:15.999Z</time></trkpt><trkpt lat="44.00201547399987" lon="11.24301505413244"><ele>269.0</ele><time>2026-04-07T08:15:16.999Z</time></trkpt><trkpt lat="44.00220944425348" lon="11.24288277747777"><ele>269.0</ele><time>2026-04-07T08:15:17.999Z</time></trkpt><trkpt lat="44.00241404631049" lon="11.24275580267929"><ele>269.0</ele><time>2026-04-07T08:15:18.999Z</time></trkpt><trkpt lat="44.00261495760297" lon="11.242628800282839"><ele>269.0</ele><time>2026-04-07T08:15:19.999Z</time></trkpt><trkpt lat="44.00281851302605" lon="11.242498294950144"><ele>270.5</ele><time>2026-04-07T08:15:21Z</time></trkpt><trkpt lat="44.00302214157858" lon="11.242362424161236"><ele>272.0</ele><time>2026-04-07T08:15:22Z</time></trkpt><trkpt lat="44.00321844610455" lon="11.242210270798621"><ele>273.5</ele><time>2026-04-07T08:15:23Z</time></trkpt><trkpt lat="44.00340609507185" lon="11.242023818153884"><ele>275.0</ele><time>2026-04-07T08:15:24Z</time></trkpt><trkpt lat="44.00357089830945" lon="11.24181425895298"><ele>275.0</ele><time>2026-04-07T08:15:25Z</time></trkpt><trkpt lat="44.00372135287702" lon="11.2415811542648"><ele>275.0</ele><time>2026-04-07T08:15:26Z</time></trkpt><trkpt lat="44.003858738262174" lon="11.241340087814134"><ele>275.0</ele><time>2026-04-07T08:15:27Z</time></trkpt><trkpt lat="44.00399618100855" lon="11.24110408914603"><ele>275.0</ele><time>2026-04-07T08:15:28Z</time></trkpt><trkpt lat="44.004141240320706" lon="11.24089938304728"><ele>275.0</ele><time>2026-04-07T08:15:29Z</time></trkpt><trkpt lat="44.004264871618076" lon="11.240677114103057"><ele>275.0</ele><time>2026-04-07T08:15:30Z</time></trkpt><trkpt lat="44.00441699885204" lon="11.240493463271305"><ele>275.0</ele><time>2026-04-07T08:15:31Z</time></trkpt><trkpt lat="44.004587720497106" lon="11.24035601005835"><ele>275.0</ele><time>2026-04-07T08:15:32Z</time></trkpt><trkpt lat="44.0047580472786" lon="11.240213540425026"><ele>275.0</ele><time>2026-04-07T08:15:33Z</time></trkpt><trkpt lat="44.00494847982149" lon="11.240121704424508"><ele>276.0</ele><time>2026-04-07T08:15:34Z</time></trkpt><trkpt lat="44.005151488886014" lon="11.240087919496943"><ele>277.0</ele><time>2026-04-07T08:15:35Z</time></trkpt><trkpt lat="44.00535155315964" lon="11.240064575534054"><ele>278.0</ele><time>2026-04-07T08:15:36Z</time></trkpt><trkpt lat="44.00556144445884" lon="11.240078816785186"><ele>278.0</ele><time>2026-04-07T08:15:37Z</time></trkpt><trkpt lat="44.005771692250214" lon="11.240119721997576"><ele>278.0</ele><time>2026-04-07T08:15:38Z</time></trkpt><trkpt lat="44.00599258185567" lon="11.240152915162671"><ele>278.0</ele><time>2026-04-07T08:15:39Z</time></trkpt><trkpt lat="44.00621439190919" lon="11.240210469669428"><ele>277.5</ele><time>2026-04-07T08:15:40Z</time></trkpt><trkpt lat="44.00644296199714" lon="11.240261110676302"><ele>277.0</ele><time>2026-04-07T08:15:41Z</time></trkpt><trkpt lat="44.00667474270801" lon="11.240314451783256"><ele>277.0</ele><time>2026-04-07T08:15:42Z</time></trkpt><trkpt lat="44.00690308951563" lon="11.240364405174905"><ele>277.0</ele><time>2026-04-07T08:15:43Z</time></trkpt><trkpt lat="44.007117239014946" lon="11.240411996639649"><ele>277.0</ele><time>2026-04-07T08:15:44Z</time></trkpt><trkpt lat="44.007334345213835" lon="11.240456668668788"><ele>277.66666666666663</ele><time>2026-04-07T08:15:45Z</time></trkpt><trkpt lat="44.007549757502424" lon="11.24049230254381"><ele>278.3333333333333</ele><time>2026-04-07T08:15:46Z</time></trkpt><trkpt lat="44.00775729199933" lon="11.240509721935156"><ele>279.0</ele><time>2026-04-07T08:15:47Z</time></trkpt><trkpt lat="44.007973492393084" lon="11.24050308773189"><ele>279.0</ele><time>2026-04-07T08:15:47.999Z</time></trkpt><trkpt lat="44.00819223401065" lon="11.240472184988864"><ele>279.0</ele><time>2026-04-07T08:15:48.999Z</time></trkpt><trkpt lat="44.0084037861613" lon="11.240416914187326"><ele>279.0</ele><time>2026-04-07T08:15:49.999Z</time></trkpt><trkpt lat="44.008622818729975" lon="11.240345428994694"><ele>279.0</ele><time>2026-04-07T08:15:50.999Z</time></trkpt><trkpt lat="44.00883941240275" lon="11.240281135109926"><ele>279.0</ele><time>2026-04-07T08:15:51.999Z</time></trkpt><trkpt lat="44.00905891883371" lon="11.240214306908506"><ele>279.0</ele><time>2026-04-07T08:15:52.999Z</time></trkpt><trkpt lat="44.00924923204105" lon="11.239984829786442"><ele>279.5</ele><time>2026-04-07T08:15:53.999Z</time></trkpt><trkpt lat="44.00944339919287" lon="11.239813418429543"><ele>280.0</ele><time>2026-04-07T08:15:54.999Z</time></trkpt><trkpt lat="44.00963387907481" lon="11.239621556469029"><ele>280.0</ele><time>2026-04-07T08:15:55.999Z</time></trkpt><trkpt lat="44.00981075876632" lon="11.239420750797088"><ele>280.0</ele><time>2026-04-07T08:15:56.999Z</time></trkpt><trkpt lat="44.00998590830858" lon="11.239211918991389"><ele>280.0</ele><time>2026-04-07T08:15:57.999Z</time></trkpt><trkpt lat="44.010162474939804" lon="11.23900480205101"><ele>280.0</ele><time>2026-04-07T08:15:58.999Z</time></trkpt><trkpt lat="44.01033270902306" lon="11.23880684126825"><ele>280.0</ele><time>2026-04-07T08:15:59.999Z</time></trkpt><trkpt lat="44.010491453793954" lon="11.238625762856664"><ele>280.0</ele><time>2026-04-07T08:16:00.999Z</time></trkpt><trkpt lat="44.01064316087561" lon="11.238457462938127"><ele>280.0</ele><time>2026-04-07T08:16:01.999Z</time></trkpt><trkpt lat="44.01078661478747" lon="11.23830817223081"><ele>280.66666666666663</ele><time>2026-04-07T08:16:02.999Z</time></trkpt><trkpt lat="44.01092576312098" lon="11.23817213952986"><ele>281.3333333333333</ele><time>2026-04-07T08:16:03.999Z</time></trkpt><trkpt lat="44.011055822198216" lon="11.238050918902566"><ele>282.0</ele><time>2026-04-07T08:16:04.999Z</time></trkpt><trkpt lat="44.01118504895516" lon="11.23792994153149"><ele>282.25</ele><time>2026-04-07T08:16:05.999Z</time></trkpt><trkpt lat="44.011311269830216" lon="11.237814772867221"><ele>282.5</ele><time>2026-04-07T08:16:06.999Z</time></trkpt><trkpt lat="44.01142613438554" lon="11.237716836942285"><ele>282.75</ele><time>2026-04-07T08:16:07.999Z</time></trkpt><trkpt lat="44.01153496055464" lon="11.237641233379183"><ele>283.0</ele><time>2026-04-07T08:16:08.999Z</time></trkpt><trkpt lat="44.01165750164304" lon="11.23756308811601"><ele>283.5</ele><time>2026-04-07T08:16:09.999Z</time></trkpt><trkpt lat="44.011792554096985" lon="11.237463432826292"><ele>284.0</ele><time>2026-04-07T08:16:10.999Z</time></trkpt><trkpt lat="44.012099921354455" lon="11.237217841403629"><ele>284.0</ele><time>2026-04-07T08:16:12.999Z</time></trkpt><trkpt lat="44.01227072356747" lon="11.237100648212406"><ele>284.0</ele><time>2026-04-07T08:16:13.999Z</time></trkpt><trkpt lat="44.012459386995204" lon="11.236993915049533"><ele>284.0</ele><time>2026-04-07T08:16:14.999Z</time></trkpt><trkpt lat="44.01265828292963" lon="11.236890265904048"><ele>284.6666666666667</ele><time>2026-04-07T08:16:15.999Z</time></trkpt><trkpt lat="44.01287169582183" lon="11.2367906293914"><ele>285.3333333333333</ele><time>2026-04-07T08:16:16.999Z</time></trkpt><trkpt lat="44.013082422412026" lon="11.236693021695126"><ele>286.0</ele><time>2026-04-07T08:16:17.999Z</time></trkpt><trkpt lat="44.013293757341614" lon="11.236587686973692"><ele>286.0</ele><time>2026-04-07T08:16:18.999Z</time></trkpt><trkpt lat="44.01348426829676" lon="11.236473818126948"><ele>286.0</ele><time>2026-04-07T08:16:19.999Z</time></trkpt><trkpt lat="44.01364800994164" lon="11.236344400043224"><ele>286.0</ele><time>2026-04-07T08:16:20.999Z</time></trkpt><trkpt lat="44.01380083176092" lon="11.23622896921652"><ele>286.0</ele><time>2026-04-07T08:16:21.999Z</time></trkpt><trkpt lat="44.01397100896209" lon="11.23615061678975"><ele>286.0</ele><time>2026-04-07T08:16:22.999Z</time></trkpt><trkpt lat="44.014165776517274" lon="11.236100853643114"><ele>286.0</ele><time>2026-04-07T08:16:23.999Z</time></trkpt><trkpt lat="44.01438373796972" lon="11.23607709486242"><ele>287.0</ele><time>2026-04-07T08:16:24.999Z</time></trkpt><trkpt lat="44.01459937782425" lon="11.236053016758081"><ele>288.0</ele><time>2026-04-07T08:16:25.999Z</time></trkpt><trkpt lat="44.01481373185738" lon="11.236021791723314"><ele>289.0</ele><time>2026-04-07T08:16:26.999Z</time></trkpt><trkpt lat="44.015034387907924" lon="11.235993213189653"><ele>291.3333333333333</ele><time>2026-04-07T08:16:27.999Z</time></trkpt><trkpt lat="44.01525399222955" lon="11.235989049391149"><ele>293.6666666666667</ele><time>2026-04-07T08:16:28.999Z</time></trkpt><trkpt lat="44.01545323677118" lon="11.236002474044627"><ele>296.0</ele><time>2026-04-07T08:16:29.999Z</time></trkpt><trkpt lat="44.01562803574666" lon="11.236036533243874"><ele>296.0</ele><time>2026-04-07T08:16:30.999Z</time></trkpt><trkpt lat="44.01578197336763" lon="11.236078925591913"><ele>296.0</ele><time>2026-04-07T08:16:31.999Z</time></trkpt><trkpt lat="44.01591970089001" lon="11.236133396455624"><ele>296.0</ele><time>2026-04-07T08:16:32.999Z</time></trkpt><trkpt lat="44.01602069578944" lon="11.236205217015971"><ele>296.0</ele><time>2026-04-07T08:16:33.999Z</time></trkpt><trkpt lat="44.01610276555669" lon="11.236306721157016"><ele>296.0</ele><time>2026-04-07T08:16:34.999Z</time></trkpt><trkpt lat="44.016172445037434" lon="11.236453405306637"><ele>296.0</ele><time>2026-04-07T08:16:35.999Z</time></trkpt><trkpt lat="44.01624633503099" lon="11.23663013190548"><ele>296.0</ele><time>2026-04-07T08:16:36.999Z</time></trkpt><trkpt lat="44.016354961952395" lon="11.236776505963217"><ele>296.0</ele><time>2026-04-07T08:16:37.999Z</time></trkpt><trkpt lat="44.01649896639497" lon="11.23687673401122"><ele>297.6666666666667</ele><time>2026-04-07T08:16:38.999Z</time></trkpt><trkpt lat="44.01666862900342" lon="11.236948834768942"><ele>299.3333333333333</ele><time>2026-04-07T08:16:39.999Z</time></trkpt><trkpt lat="44.0168481151128" lon="11.237017796952806"><ele>301.0</ele><time>2026-04-07T08:16:40.999Z</time></trkpt><trkpt lat="44.017036091926045" lon="11.237091003865451"><ele>301.0</ele><time>2026-04-07T08:16:41.999Z</time></trkpt><trkpt lat="44.017227412360135" lon="11.237169045258657"><ele>301.0</ele><time>2026-04-07T08:16:42.999Z</time></trkpt><trkpt lat="44.017423798331905" lon="11.237262818744032"><ele>301.0</ele><time>2026-04-07T08:16:43.999Z</time></trkpt><trkpt lat="44.01761168202391" lon="11.237356855980948"><ele>305.5</ele><time>2026-04-07T08:16:44.999Z</time></trkpt><trkpt lat="44.01777312650709" lon="11.23744739148203"><ele>310.0</ele><time>2026-04-07T08:16:45.999Z</time></trkpt><trkpt lat="44.017909649345434" lon="11.237517038696474"><ele>314.5</ele><time>2026-04-07T08:16:46.999Z</time></trkpt><trkpt lat="44.01801565888631" lon="11.237580011195332"><ele>319.0</ele><time>2026-04-07T08:16:47.999Z</time></trkpt><trkpt lat="44.01808175202921" lon="11.237660822617359"><ele>319.0</ele><time>2026-04-07T08:16:48.999Z</time></trkpt><trkpt lat="44.018105510060686" lon="11.237767361677472"><ele>319.0</ele><time>2026-04-07T08:16:49.999Z</time></trkpt><trkpt lat="44.018108427891725" lon="11.237891711898579"><ele>319.0</ele><time>2026-04-07T08:16:50.999Z</time></trkpt><trkpt lat="44.018081428510776" lon="11.238060660521416"><ele>319.0</ele><time>2026-04-07T08:16:51.999Z</time></trkpt><trkpt lat="44.018041034254544" lon="11.238260692820212"><ele>319.0</ele><time>2026-04-07T08:16:52.999Z</time></trkpt><trkpt lat="44.01801856467148" lon="11.23844983712812"><ele>322.5</ele><time>2026-04-07T08:16:53.999Z</time></trkpt><trkpt lat="44.01804014036352" lon="11.238607498260802"><ele>326.0</ele><time>2026-04-07T08:16:54.999Z</time></trkpt><trkpt lat="44.018093513522714" lon="11.238752416858722"><ele>329.5</ele><time>2026-04-07T08:16:55.999Z</time></trkpt><trkpt lat="44.01818769023917" lon="11.238877487060446"><ele>333.0</ele><time>2026-04-07T08:16:56.999Z</time></trkpt><trkpt lat="44.018316270500314" lon="11.238975573455805"><ele>330.0</ele><time>2026-04-07T08:16:57.999Z</time></trkpt><trkpt lat="44.0184641176043" lon="11.239063731882245"><ele>327.0</ele><time>2026-04-07T08:16:58.999Z</time></trkpt><trkpt lat="44.01861659448444" lon="11.239152939885212"><ele>324.0</ele><time>2026-04-07T08:16:59.999Z</time></trkpt><trkpt lat="44.01875368919602" lon="11.2392264933143"><ele>324.0</ele><time>2026-04-07T08:17:00.999Z</time></trkpt><trkpt lat="44.01886967582367" lon="11.239272094585674"><ele>324.0</ele><time>2026-04-07T08:17:01.999Z</time></trkpt><trkpt lat="44.01897330551331" lon="11.23926822665976"><ele>324.0</ele><time>2026-04-07T08:17:02.999Z</time></trkpt><trkpt lat="44.01907288838774" lon="11.23921187099896"><ele>324.0</ele><time>2026-04-07T08:17:03.999Z</time></trkpt><trkpt lat="44.01916089746144" lon="11.239093100836184"><ele>321.3333333333333</ele><time>2026-04-07T08:17:04.999Z</time></trkpt><trkpt lat="44.019241411970356" lon="11.238928931639814"><ele>318.66666666666663</ele><time>2026-04-07T08:17:05.999Z</time></trkpt><trkpt lat="44.019339243112654" lon="11.238745243806667"><ele>316.0</ele><time>2026-04-07T08:17:06.999Z</time></trkpt><trkpt lat="44.01943060148102" lon="11.238577249452844"><ele>316.0</ele><time>2026-04-07T08:17:07.999Z</time></trkpt><trkpt lat="44.01952543553388" lon="11.238464831335097"><ele>316.0</ele><time>2026-04-07T08:17:08.999Z</time></trkpt><trkpt lat="44.01964725674137" lon="11.238406635137085"><ele>316.0</ele><time>2026-04-07T08:17:09.999Z</time></trkpt><trkpt lat="44.01978054262915" lon="11.238407671370025"><ele>316.0</ele><time>2026-04-07T08:17:10.999Z</time></trkpt><trkpt lat="44.01992747305513" lon="11.238422471366915"><ele>314.75</ele><time>2026-04-07T08:17:11.999Z</time></trkpt><trkpt lat="44.0200680367479" lon="11.238396427000975"><ele>313.5</ele><time>2026-04-07T08:17:12.999Z</time></trkpt><trkpt lat="44.02019880499645" lon="11.23832348784548"><ele>312.25</ele><time>2026-04-07T08:17:13.999Z</time></trkpt><trkpt lat="44.020332986781256" lon="11.238197812278719"><ele>311.0</ele><time>2026-04-07T08:17:14.999Z</time></trkpt><trkpt lat="44.020461055833195" lon="11.238056934073873"><ele>311.0</ele><time>2026-04-07T08:17:15.999Z</time></trkpt><trkpt lat="44.02059258223241" lon="11.237971126288992"><ele>311.0</ele><time>2026-04-07T08:17:16.999Z</time></trkpt><trkpt lat="44.02071228950928" lon="11.237908407598573"><ele>311.0</ele><time>2026-04-07T08:17:17.999Z</time></trkpt><trkpt lat="44.02081767949581" lon="11.237899035345535"><ele>311.0</ele><time>2026-04-07T08:17:18.999Z</time></trkpt><trkpt lat="44.02088761279122" lon="11.237942141171185"><ele>313.75</ele><time>2026-04-07T08:17:19.999Z</time></trkpt><trkpt lat="44.02095100373876" lon="11.238021876755475"><ele>316.5</ele><time>2026-04-07T08:17:20.999Z</time></trkpt><trkpt lat="44.021014667032766" lon="11.238166913977818"><ele>319.25</ele><time>2026-04-07T08:17:21.999Z</time></trkpt><trkpt lat="44.0210802463187" lon="11.238331508104421"><ele>322.0</ele><time>2026-04-07T08:17:22.999Z</time></trkpt><trkpt lat="44.02116412459745" lon="11.238453052196606"><ele>326.25</ele><time>2026-04-07T08:17:23.999Z</time></trkpt><trkpt lat="44.02127066724393" lon="11.238515973088745"><ele>330.5</ele><time>2026-04-07T08:17:24.999Z</time></trkpt><trkpt lat="44.021389195347744" lon="11.238524694226491"><ele>334.75</ele><time>2026-04-07T08:17:25.999Z</time></trkpt><trkpt lat="44.02151140649945" lon="11.238486274068714"><ele>339.0</ele><time>2026-04-07T08:17:26.999Z</time></trkpt><trkpt lat="44.02162849814462" lon="11.238435555984685"><ele>339.25</ele><time>2026-04-07T08:17:27.999Z</time></trkpt><trkpt lat="44.02173251692462" lon="11.238434464605382"><ele>339.5</ele><time>2026-04-07T08:17:28.999Z</time></trkpt><trkpt lat="44.02181823236065" lon="11.23853008218135"><ele>339.75</ele><time>2026-04-07T08:17:29.999Z</time></trkpt><trkpt lat="44.021932409019726" lon="11.238610454164817"><ele>340.0</ele><time>2026-04-07T08:17:30.999Z</time></trkpt><trkpt lat="44.02204737543106" lon="11.238656780730167"><ele>340.0</ele><time>2026-04-07T08:17:31.999Z</time></trkpt><trkpt lat="44.02215742536893" lon="11.238628887122365"><ele>340.0</ele><time>2026-04-07T08:17:32.999Z</time></trkpt><trkpt lat="44.02226702077369" lon="11.238543353264374"><ele>340.0</ele><time>2026-04-07T08:17:33.999Z</time></trkpt><trkpt lat="44.02237491705083" lon="11.238433816698597"><ele>340.0</ele><time>2026-04-07T08:17:34.999Z</time></trkpt><trkpt lat="44.02250026654588" lon="11.238384935908213"><ele>340.0</ele><time>2026-04-07T08:17:35.999Z</time></trkpt><trkpt lat="44.0226250955097" lon="11.238362010409826"><ele>340.0</ele><time>2026-04-07T08:17:36.999Z</time></trkpt><trkpt lat="44.02274320092813" lon="11.23845675016656"><ele>340.0</ele><time>2026-04-07T08:17:37.999Z</time></trkpt><trkpt lat="44.02288561781632" lon="11.238558919622172"><ele>340.0</ele><time>2026-04-07T08:17:38.999Z</time></trkpt><trkpt lat="44.02304134330243" lon="11.238639127312645"><ele>340.0</ele><time>2026-04-07T08:17:39.999Z</time></trkpt><trkpt lat="44.02319689103096" lon="11.238749181519538"><ele>340.0</ele><time>2026-04-07T08:17:40.999Z</time></trkpt><trkpt lat="44.023326874357764" lon="11.238868496073607"><ele>340.0</ele><time>2026-04-07T08:17:41.999Z</time></trkpt><trkpt lat="44.02340861093085" lon="11.239002168757533"><ele>342.6</ele><time>2026-04-07T08:17:42.999Z</time></trkpt><trkpt lat="44.0234480934906" lon="11.23916744189388"><ele>345.2</ele><time>2026-04-07T08:17:43.999Z</time></trkpt><trkpt lat="44.023516941622745" lon="11.239276861261548"><ele>347.79999999999995</ele><time>2026-04-07T08:17:44.999Z</time></trkpt><trkpt lat="44.02359108013904" lon="11.23934287537704"><ele>350.4</ele><time>2026-04-07T08:17:45.999Z</time></trkpt><trkpt lat="44.023722614865015" lon="11.239345790132932"><ele>353.0</ele><time>2026-04-07T08:17:46.999Z</time></trkpt><trkpt lat="44.023856818479246" lon="11.239325985418395"><ele>353.0</ele><time>2026-04-07T08:17:47.999Z</time></trkpt><trkpt lat="44.023975923257126" lon="11.239369597727002"><ele>353.0</ele><time>2026-04-07T08:17:48.999Z</time></trkpt><trkpt lat="44.02408930144856" lon="11.23945486458419"><ele>353.0</ele><time>2026-04-07T08:17:49.999Z</time></trkpt><trkpt lat="44.02419997833289" lon="11.239599479046763"><ele>353.0</ele><time>2026-04-07T08:17:50.999Z</time></trkpt><trkpt lat="44.02432986321741" lon="11.239747355840938"><ele>358.33333333333337</ele><time>2026-04-07T08:17:51.999Z</time></trkpt><trkpt lat="44.024483577122204" lon="11.239860222409732"><ele>363.6666666666667</ele><time>2026-04-07T08:17:52.999Z</time></trkpt><trkpt lat="44.02464193224713" lon="11.239958137125996"><ele>369.0</ele><time>2026-04-07T08:17:53.999Z</time></trkpt><trkpt lat="44.0247858076532" lon="11.240076783588716"><ele>369.0</ele><time>2026-04-07T08:17:54.999Z</time></trkpt><trkpt lat="44.024902455650974" lon="11.240197409251172"><ele>369.0</ele><time>2026-04-07T08:17:55.999Z</time></trkpt><trkpt lat="44.02499758109349" lon="11.240353673635687"><ele>369.0</ele><time>2026-04-07T08:17:56.999Z</time></trkpt><trkpt lat="44.02507941137998" lon="11.240559164187088"><ele>371.5</ele><time>2026-04-07T08:17:57.999Z</time></trkpt><trkpt lat="44.02516121909661" lon="11.240780590624746"><ele>374.0</ele><time>2026-04-07T08:17:58.999Z</time></trkpt><trkpt lat="44.025215584921675" lon="11.240977723559192"><ele>376.5</ele><time>2026-04-07T08:17:59.999Z</time></trkpt><trkpt lat="44.02526873360022" lon="11.241110915323501"><ele>379.0</ele><time>2026-04-07T08:18:00.999Z</time></trkpt><trkpt lat="44.02534316587634" lon="11.241168520671769"><ele>379.0</ele><time>2026-04-07T08:18:01.999Z</time></trkpt><trkpt lat="44.02543489721876" lon="11.24118649606792"><ele>379.0</ele><time>2026-04-07T08:18:02.999Z</time></trkpt><trkpt lat="44.02553162026125" lon="11.241153738998277"><ele>379.0</ele><time>2026-04-07T08:18:03.999Z</time></trkpt><trkpt lat="44.02561502451505" lon="11.241061195211646"><ele>379.0</ele><time>2026-04-07T08:18:04.999Z</time></trkpt><trkpt lat="44.0256780457734" lon="11.240921265621052"><ele>379.0</ele><time>2026-04-07T08:18:05.999Z</time></trkpt><trkpt lat="44.02574435838735" lon="11.240761820059536"><ele>374.75</ele><time>2026-04-07T08:18:06.999Z</time></trkpt><trkpt lat="44.02584805827459" lon="11.240689592380862"><ele>370.5</ele><time>2026-04-07T08:18:07.999Z</time></trkpt><trkpt lat="44.02595837703248" lon="11.240677794360476"><ele>366.25</ele><time>2026-04-07T08:18:08.999Z</time></trkpt><trkpt lat="44.02610107935351" lon="11.240706153526714"><ele>362.0</ele><time>2026-04-07T08:18:09.999Z</time></trkpt><trkpt lat="44.02624708268542" lon="11.240734638456798"><ele>362.0</ele><time>2026-04-07T08:18:10.999Z</time></trkpt><trkpt lat="44.02640712533187" lon="11.240781774736977"><ele>362.0</ele><time>2026-04-07T08:18:11.999Z</time></trkpt><trkpt lat="44.026572926258595" lon="11.240806354997003"><ele>362.0</ele><time>2026-04-07T08:18:12.999Z</time></trkpt><trkpt lat="44.026739114586256" lon="11.240845375757075"><ele>362.33333333333337</ele><time>2026-04-07T08:18:13.999Z</time></trkpt><trkpt lat="44.026888481848076" lon="11.240920169346248"><ele>362.6666666666667</ele><time>2026-04-07T08:18:14.999Z</time></trkpt><trkpt lat="44.02701625159046" lon="11.241054026775046"><ele>363.0</ele><time>2026-04-07T08:18:15.999Z</time></trkpt><trkpt lat="44.02713119092758" lon="11.241194567221742"><ele>363.0</ele><time>2026-04-07T08:18:16.999Z</time></trkpt><trkpt lat="44.02721727988918" lon="11.241365740721365"><ele>363.0</ele><time>2026-04-07T08:18:17.999Z</time></trkpt><trkpt lat="44.027295123338504" lon="11.241577821501336"><ele>363.0</ele><time>2026-04-07T08:18:18.999Z</time></trkpt><trkpt lat="44.027388440245105" lon="11.241798939313668"><ele>365.0</ele><time>2026-04-07T08:18:19.999Z</time></trkpt><trkpt lat="44.02748139802308" lon="11.242022799422044"><ele>367.0</ele><time>2026-04-07T08:18:20.999Z</time></trkpt><trkpt lat="44.02759415002855" lon="11.242237487271355"><ele>369.0</ele><time>2026-04-07T08:18:21.999Z</time></trkpt><trkpt lat="44.02769424507002" lon="11.242433237159656"><ele>372.75</ele><time>2026-04-07T08:18:22.999Z</time></trkpt><trkpt lat="44.02777101183808" lon="11.242617209990016"><ele>376.5</ele><time>2026-04-07T08:18:23.999Z</time></trkpt><trkpt lat="44.02780858124917" lon="11.2427981797217"><ele>380.25</ele><time>2026-04-07T08:18:24.999Z</time></trkpt><trkpt lat="44.0278282737077" lon="11.242980024039783"><ele>384.0</ele><time>2026-04-07T08:18:25.999Z</time></trkpt><trkpt lat="44.02785929888646" lon="11.243100185768775"><ele>382.79999999999995</ele><time>2026-04-07T08:18:26.999Z</time></trkpt><trkpt lat="44.02793238593074" lon="11.243162127312248"><ele>381.59999999999997</ele><time>2026-04-07T08:18:27.999Z</time></trkpt><trkpt lat="44.028039823369916" lon="11.243205296532052"><ele>380.4</ele><time>2026-04-07T08:18:28.999Z</time></trkpt><trkpt lat="44.02816897127899" lon="11.243204805537504"><ele>379.2</ele><time>2026-04-07T08:18:29.999Z</time></trkpt><trkpt lat="44.02827879486115" lon="11.243232754335798"><ele>378.0</ele><time>2026-04-07T08:18:30.999Z</time></trkpt><trkpt lat="44.02836059314476" lon="11.243312220594879"><ele>378.0</ele><time>2026-04-07T08:18:31.999Z</time></trkpt><trkpt lat="44.02842701835948" lon="11.243451653002696"><ele>378.0</ele><time>2026-04-07T08:18:32.999Z</time></trkpt><trkpt lat="44.02848933488021" lon="11.243636063735917"><ele>378.0</ele><time>2026-04-07T08:18:33.999Z</time></trkpt><trkpt lat="44.02850987321734" lon="11.243853610275034"><ele>378.0</ele><time>2026-04-07T08:18:34.999Z</time></trkpt><trkpt lat="44.02855246407312" lon="11.244078014271365"><ele>385.0</ele><time>2026-04-07T08:18:35.999Z</time></trkpt><trkpt lat="44.028581588092656" lon="11.244321826526388"><ele>392.0</ele><time>2026-04-07T08:18:36.999Z</time></trkpt><trkpt lat="44.02861779203124" lon="11.244535476631688"><ele>399.0</ele><time>2026-04-07T08:18:37.999Z</time></trkpt><trkpt lat="44.02866186047623" lon="11.244707401414338"><ele>402.6</ele><time>2026-04-07T08:18:38.999Z</time></trkpt><trkpt lat="44.028721819883025" lon="11.244849459120706"><ele>406.2</ele><time>2026-04-07T08:18:39.999Z</time></trkpt><trkpt lat="44.02880265224157" lon="11.24496549886384"><ele>409.8</ele><time>2026-04-07T08:18:40.999Z</time></trkpt><trkpt lat="44.02888573678301" lon="11.245041695147933"><ele>413.40000000000003</ele><time>2026-04-07T08:18:41.999Z</time></trkpt><trkpt lat="44.02898201922808" lon="11.24506879616027"><ele>417.0</ele><time>2026-04-07T08:18:42.999Z</time></trkpt><trkpt lat="44.029078844208335" lon="11.24504624508825"><ele>413.25</ele><time>2026-04-07T08:18:43.999Z</time></trkpt><trkpt lat="44.02916198953379" lon="11.24497928395586"><ele>409.5</ele><time>2026-04-07T08:18:44.999Z</time></trkpt><trkpt lat="44.02923712994486" lon="11.244840699063579"><ele>405.75</ele><time>2026-04-07T08:18:45.999Z</time></trkpt><trkpt lat="44.02930529469278" lon="11.244673949020855"><ele>402.0</ele><time>2026-04-07T08:18:46.999Z</time></trkpt><trkpt lat="44.02940319915136" lon="11.244499490758452"><ele>394.6666666666667</ele><time>2026-04-07T08:18:47.999Z</time></trkpt><trkpt lat="44.029500477927144" lon="11.244316995534335"><ele>387.33333333333337</ele><time>2026-04-07T08:18:48.999Z</time></trkpt><trkpt lat="44.02960377465319" lon="11.24414905543342"><ele>380.0</ele><time>2026-04-07T08:18:49.999Z</time></trkpt><trkpt lat="44.02971013891853" lon="11.244005977957505"><ele>377.0</ele><time>2026-04-07T08:18:50.999Z</time></trkpt><trkpt lat="44.02979306021279" lon="11.243889993605482"><ele>374.0</ele><time>2026-04-07T08:18:51.999Z</time></trkpt><trkpt lat="44.02988367013078" lon="11.243837911482313"><ele>371.0</ele><time>2026-04-07T08:18:52.999Z</time></trkpt><trkpt lat="44.02998806429943" lon="11.243839294571506"><ele>368.0</ele><time>2026-04-07T08:18:53.999Z</time></trkpt><trkpt lat="44.030101622261306" lon="11.243896528748673"><ele>365.0</ele><time>2026-04-07T08:18:54.999Z</time></trkpt><trkpt lat="44.030202217643584" lon="11.244023459430798"><ele>376.6666666666667</ele><time>2026-04-07T08:18:55.999Z</time></trkpt><trkpt lat="44.030334136666355" lon="11.24414983107321"><ele>388.33333333333337</ele><time>2026-04-07T08:18:56.999Z</time></trkpt><trkpt lat="44.03045849141738" lon="11.244295981014336"><ele>400.0</ele><time>2026-04-07T08:18:57.999Z</time></trkpt><trkpt lat="44.03061352298047" lon="11.244414241068437"><ele>400.0</ele><time>2026-04-07T08:18:58.999Z</time></trkpt><trkpt lat="44.030785620615696" lon="11.244507810658646"><ele>400.0</ele><time>2026-04-07T08:18:59.999Z</time></trkpt><trkpt lat="44.03094737304181" lon="11.244585256605578"><ele>400.0</ele><time>2026-04-07T08:19:00.999Z</time></trkpt><trkpt lat="44.03107745745374" lon="11.24468594266075"><ele>404.75</ele><time>2026-04-07T08:19:01.999Z</time></trkpt><trkpt lat="44.031191656371014" lon="11.244826444068293"><ele>409.5</ele><time>2026-04-07T08:19:02.999Z</time></trkpt><trkpt lat="44.031263518316024" lon="11.244997345562073"><ele>414.25</ele><time>2026-04-07T08:19:03.999Z</time></trkpt><trkpt lat="44.03133128279229" lon="11.24511450322236"><ele>419.0</ele><time>2026-04-07T08:19:04.999Z</time></trkpt><trkpt lat="44.03136922769185" lon="11.245209504608043"><ele>419.0</ele><time>2026-04-07T08:19:05.999Z</time></trkpt><trkpt lat="44.031453373432086" lon="11.245243558716638"><ele>419.0</ele><time>2026-04-07T08:19:06.999Z</time></trkpt><trkpt lat="44.03156160478199" lon="11.245186402438803"><ele>419.0</ele><time>2026-04-07T08:19:07.999Z</time></trkpt><trkpt lat="44.03166916851689" lon="11.24510348644575"><ele>419.0</ele><time>2026-04-07T08:19:08.999Z</time></trkpt><trkpt lat="44.03177964880071" lon="11.244985586911703"><ele>415.0</ele><time>2026-04-07T08:19:09.999Z</time></trkpt><trkpt lat="44.031901189436134" lon="11.244900383168805"><ele>411.0</ele><time>2026-04-07T08:19:10.999Z</time></trkpt><trkpt lat="44.03201801174461" lon="11.244915747951014"><ele>407.0</ele><time>2026-04-07T08:19:11.999Z</time></trkpt><trkpt lat="44.03211817530657" lon="11.244962754464465"><ele>403.0</ele><time>2026-04-07T08:19:12.999Z</time></trkpt><trkpt lat="44.03223167198401" lon="11.245060211469168"><ele>403.0</ele><time>2026-04-07T08:19:13.999Z</time></trkpt><trkpt lat="44.03234073999217" lon="11.24520193387864"><ele>403.0</ele><time>2026-04-07T08:19:14.999Z</time></trkpt><trkpt lat="44.03246152761192" lon="11.245370292442349"><ele>403.0</ele><time>2026-04-07T08:19:15.999Z</time></trkpt><trkpt lat="44.03257077244403" lon="11.245573980784517"><ele>407.25</ele><time>2026-04-07T08:19:16.999Z</time></trkpt><trkpt lat="44.032673942449584" lon="11.245756620597403"><ele>411.5</ele><time>2026-04-07T08:19:17.999Z</time></trkpt><trkpt lat="44.03278346420703" lon="11.245892150054878"><ele>415.75</ele><time>2026-04-07T08:19:18.999Z</time></trkpt><trkpt lat="44.03290334715861" lon="11.245971893704377"><ele>420.0</ele><time>2026-04-07T08:19:19.999Z</time></trkpt><trkpt lat="44.033034602463815" lon="11.246001405201511"><ele>420.0</ele><time>2026-04-07T08:19:20.999Z</time></trkpt><trkpt lat="44.03315702238677" lon="11.24602585063483"><ele>420.0</ele><time>2026-04-07T08:19:21.999Z</time></trkpt><trkpt lat="44.033240890011996" lon="11.246101944174256"><ele>420.0</ele><time>2026-04-07T08:19:22.999Z</time></trkpt><trkpt lat="44.03328562611163" lon="11.246244490214497"><ele>420.0</ele><time>2026-04-07T08:19:23.999Z</time></trkpt><trkpt lat="44.03330400956815" lon="11.24641479723632"><ele>418.25</ele><time>2026-04-07T08:19:24.999Z</time></trkpt><trkpt lat="44.03333488437601" lon="11.246595976891438"><ele>416.5</ele><time>2026-04-07T08:19:25.999Z</time></trkpt><trkpt lat="44.03341224430738" lon="11.246735514064444"><ele>414.75</ele><time>2026-04-07T08:19:26.999Z</time></trkpt><trkpt lat="44.03352222054182" lon="11.246821894210253"><ele>413.0</ele><time>2026-04-07T08:19:27.999Z</time></trkpt><trkpt lat="44.03366497785824" lon="11.246907452887136"><ele>413.0</ele><time>2026-04-07T08:19:28.999Z</time></trkpt><trkpt lat="44.03380669482848" lon="11.247013988627092"><ele>413.0</ele><time>2026-04-07T08:19:29.999Z</time></trkpt><trkpt lat="44.03395312724008" lon="11.247135304606411"><ele>413.0</ele><time>2026-04-07T08:19:30.999Z</time></trkpt><trkpt lat="44.03410620426757" lon="11.247230389828736"><ele>415.25</ele><time>2026-04-07T08:19:31.999Z</time></trkpt><trkpt lat="44.03424604249607" lon="11.247282739874281"><ele>417.5</ele><time>2026-04-07T08:19:32.999Z</time></trkpt><trkpt lat="44.034360397219054" lon="11.247330249911533"><ele>419.75</ele><time>2026-04-07T08:19:33.999Z</time></trkpt><trkpt lat="44.03445348025712" lon="11.24742054083076"><ele>422.0</ele><time>2026-04-07T08:19:34.999Z</time></trkpt><trkpt lat="44.03450841145464" lon="11.247580706896972"><ele>422.0</ele><time>2026-04-07T08:19:35.999Z</time></trkpt><trkpt lat="44.03455678875213" lon="11.247765541424474"><ele>422.0</ele><time>2026-04-07T08:19:36.999Z</time></trkpt><trkpt lat="44.034619555492455" lon="11.247976160326498"><ele>422.0</ele><time>2026-04-07T08:19:37.999Z</time></trkpt><trkpt lat="44.03468438248529" lon="11.24815290312241"><ele>422.0</ele><time>2026-04-07T08:19:38.999Z</time></trkpt><trkpt lat="44.03478505004817" lon="11.248283891377442"><ele>422.25</ele><time>2026-04-07T08:19:39.999Z</time></trkpt><trkpt lat="44.03491160547951" lon="11.248370145109112"><ele>422.5</ele><time>2026-04-07T08:19:40.999Z</time></trkpt><trkpt lat="44.03504836201084" lon="11.248402515179343"><ele>422.75</ele><time>2026-04-07T08:19:41.999Z</time></trkpt><trkpt lat="44.035197684213344" lon="11.24838469101325"><ele>423.0</ele><time>2026-04-07T08:19:42.999Z</time></trkpt><trkpt lat="44.03535400099192" lon="11.248327940697173"><ele>423.0</ele><time>2026-04-07T08:19:43.999Z</time></trkpt><trkpt lat="44.03550646159253" lon="11.248314831286105"><ele>423.0</ele><time>2026-04-07T08:19:44.999Z</time></trkpt><trkpt lat="44.03565292151753" lon="11.248370135133966"><ele>423.0</ele><time>2026-04-07T08:19:45.999Z</time></trkpt><trkpt lat="44.03582087578141" lon="11.248441261384693"><ele>421.33333333333337</ele><time>2026-04-07T08:19:46.999Z</time></trkpt><trkpt lat="44.035971172709814" lon="11.248524533559431"><ele>419.6666666666667</ele><time>2026-04-07T08:19:47.999Z</time></trkpt><trkpt lat="44.036093475273745" lon="11.24864589019128"><ele>418.0</ele><time>2026-04-07T08:19:48.999Z</time></trkpt><trkpt lat="44.036197347388566" lon="11.248797917996011"><ele>418.0</ele><time>2026-04-07T08:19:49.999Z</time></trkpt><trkpt lat="44.03627130417563" lon="11.248949423974855"><ele>418.0</ele><time>2026-04-07T08:19:50.999Z</time></trkpt><trkpt lat="44.03631942361184" lon="11.2490937260082"><ele>418.0</ele><time>2026-04-07T08:19:51.999Z</time></trkpt><trkpt lat="44.03634469846432" lon="11.249243093893028"><ele>418.0</ele><time>2026-04-07T08:19:52.999Z</time></trkpt><trkpt lat="44.036332991144874" lon="11.249451370866552"><ele>424.33333333333337</ele><time>2026-04-07T08:19:53.999Z</time></trkpt><trkpt lat="44.03631340573883" lon="11.249679089066692"><ele>430.66666666666663</ele><time>2026-04-07T08:19:54.999Z</time></trkpt><trkpt lat="44.036312254841455" lon="11.249920852496716"><ele>437.0</ele><time>2026-04-07T08:19:55.999Z</time></trkpt><trkpt lat="44.03633715692141" lon="11.25014186485468"><ele>440.5</ele><time>2026-04-07T08:19:56.999Z</time></trkpt><trkpt lat="44.03639246356567" lon="11.250333006265782"><ele>444.0</ele><time>2026-04-07T08:19:57.999Z</time></trkpt><trkpt lat="44.036467529193345" lon="11.250483572360187"><ele>447.5</ele><time>2026-04-07T08:19:58.999Z</time></trkpt><trkpt lat="44.03657418324049" lon="11.250595513736771"><ele>451.0</ele><time>2026-04-07T08:19:59.999Z</time></trkpt><trkpt lat="44.036707666208464" lon="11.250662068315286"><ele>451.0</ele><time>2026-04-07T08:20:00.999Z</time></trkpt><trkpt lat="44.036864913398716" lon="11.25067952099414"><ele>451.0</ele><time>2026-04-07T08:20:01.999Z</time></trkpt><trkpt lat="44.037046123687226" lon="11.250673820014589"><ele>451.0</ele><time>2026-04-07T08:20:02.999Z</time></trkpt><trkpt lat="44.03723314829312" lon="11.250638378547304"><ele>444.5</ele><time>2026-04-07T08:20:03.999Z</time></trkpt><trkpt lat="44.03741090812893" lon="11.250577268751355"><ele>438.0</ele><time>2026-04-07T08:20:04.999Z</time></trkpt><trkpt lat="44.0375533964838" lon="11.250490844508139"><ele>431.5</ele><time>2026-04-07T08:20:05.999Z</time></trkpt><trkpt lat="44.03765720655959" lon="11.250464793726797"><ele>425.0</ele><time>2026-04-07T08:20:06.999Z</time></trkpt><trkpt lat="44.03773027947626" lon="11.250472376738076"><ele>423.2</ele><time>2026-04-07T08:20:07.999Z</time></trkpt><trkpt lat="44.03780086466896" lon="11.250516653444874"><ele>421.4</ele><time>2026-04-07T08:20:08.999Z</time></trkpt><trkpt lat="44.03784201548876" lon="11.250623289829786"><ele>419.6</ele><time>2026-04-07T08:20:09.999Z</time></trkpt><trkpt lat="44.03783653698956" lon="11.250746966167936"><ele>417.8</ele><time>2026-04-07T08:20:10.999Z</time></trkpt><trkpt lat="44.037787427636225" lon="11.250895636872281"><ele>416.0</ele><time>2026-04-07T08:20:11.999Z</time></trkpt><trkpt lat="44.0377185423604" lon="11.251078834959435"><ele>423.3333333333333</ele><time>2026-04-07T08:20:12.999Z</time></trkpt><trkpt lat="44.03763932288874" lon="11.251275984806396"><ele>430.66666666666663</ele><time>2026-04-07T08:20:13.999Z</time></trkpt><trkpt lat="44.037564075186346" lon="11.251478046640802"><ele>438.0</ele><time>2026-04-07T08:20:14.999Z</time></trkpt><trkpt lat="44.0374848388583" lon="11.251698253474366"><ele>447.0</ele><time>2026-04-07T08:20:15.999Z</time></trkpt><trkpt lat="44.037404220351725" lon="11.251927008421173"><ele>456.0</ele><time>2026-04-07T08:20:16.999Z</time></trkpt><trkpt lat="44.03732842439397" lon="11.252141952276666"><ele>465.0</ele><time>2026-04-07T08:20:17.999Z</time></trkpt><trkpt lat="44.03727465736935" lon="11.252326243620935"><ele>465.0</ele><time>2026-04-07T08:20:18.999Z</time></trkpt><trkpt lat="44.037243579277714" lon="11.25252007964056"><ele>465.0</ele><time>2026-04-07T08:20:19.999Z</time></trkpt><trkpt lat="44.037245533581434" lon="11.252749579684307"><ele>465.0</ele><time>2026-04-07T08:20:20.999Z</time></trkpt><trkpt lat="44.037271368276976" lon="11.252998545684202"><ele>462.66666666666663</ele><time>2026-04-07T08:20:21.999Z</time></trkpt><trkpt lat="44.0373151572222" lon="11.253258709267273"><ele>460.3333333333333</ele><time>2026-04-07T08:20:22.999Z</time></trkpt><trkpt lat="44.03734801451315" lon="11.253519543103508"><ele>458.0</ele><time>2026-04-07T08:20:23.999Z</time></trkpt><trkpt lat="44.037361621476464" lon="11.253741813036891"><ele>458.0</ele><time>2026-04-07T08:20:24.999Z</time></trkpt><trkpt lat="44.03738363759663" lon="11.253936383889709"><ele>458.0</ele><time>2026-04-07T08:20:25.999Z</time></trkpt><trkpt lat="44.03744284905415" lon="11.254108596748353"><ele>458.0</ele><time>2026-04-07T08:20:26.999Z</time></trkpt><trkpt lat="44.03753362672654" lon="11.254257220096138"><ele>458.0</ele><time>2026-04-07T08:20:27.999Z</time></trkpt><trkpt lat="44.03760063590284" lon="11.254396214114044"><ele>458.25</ele><time>2026-04-07T08:20:28.999Z</time></trkpt><trkpt lat="44.03761561459997" lon="11.25454475758122"><ele>458.5</ele><time>2026-04-07T08:20:29.999Z</time></trkpt><trkpt lat="44.037594744381586" lon="11.254723680855301"><ele>458.75</ele><time>2026-04-07T08:20:30.999Z</time></trkpt><trkpt lat="44.037562552299256" lon="11.25491867898584"><ele>459.0</ele><time>2026-04-07T08:20:31.999Z</time></trkpt><trkpt lat="44.037567783460815" lon="11.255102150057885"><ele>459.0</ele><time>2026-04-07T08:20:32.999Z</time></trkpt><trkpt lat="44.03762517208473" lon="11.255281267366513"><ele>459.0</ele><time>2026-04-07T08:20:33.999Z</time></trkpt><trkpt lat="44.03772270064227" lon="11.25545448956932"><ele>459.0</ele><time>2026-04-07T08:20:34.999Z</time></trkpt><trkpt lat="44.037841959313496" lon="11.255623204254913"><ele>467.0</ele><time>2026-04-07T08:20:35.999Z</time></trkpt><trkpt lat="44.03797631664633" lon="11.25576424497612"><ele>475.0</ele><time>2026-04-07T08:20:36.999Z</time></trkpt><trkpt lat="44.038128146724254" lon="11.255861021566837"><ele>483.0</ele><time>2026-04-07T08:20:37.999Z</time></trkpt><trkpt lat="44.038286494882655" lon="11.255918358967385"><ele>477.75</ele><time>2026-04-07T08:20:38.999Z</time></trkpt><trkpt lat="44.03843748354246" lon="11.2559201613035"><ele>472.5</ele><time>2026-04-07T08:20:39.999Z</time></trkpt><trkpt lat="44.03857839464117" lon="11.255882466345563"><ele>467.25</ele><time>2026-04-07T08:20:40.999Z</time></trkpt><trkpt lat="44.03870384688581" lon="11.25578429983728"><ele>462.0</ele><time>2026-04-07T08:20:41.999Z</time></trkpt><trkpt lat="44.03882522404312" lon="11.255644632692233"><ele>459.0</ele><time>2026-04-07T08:20:42.999Z</time></trkpt><trkpt lat="44.03893337315124" lon="11.25544794103752"><ele>456.0</ele><time>2026-04-07T08:20:43.999Z</time></trkpt><trkpt lat="44.03904729320301" lon="11.255247254614675"><ele>453.0</ele><time>2026-04-07T08:20:44.999Z</time></trkpt><trkpt lat="44.03918742313641" lon="11.25508000780689"><ele>453.0</ele><time>2026-04-07T08:20:45.999Z</time></trkpt><trkpt lat="44.03929648688337" lon="11.25493676858361"><ele>453.0</ele><time>2026-04-07T08:20:46.999Z</time></trkpt><trkpt lat="44.03939364827422" lon="11.254840516334154"><ele>453.0</ele><time>2026-04-07T08:20:47.999Z</time></trkpt><trkpt lat="44.039477030966424" lon="11.254778449317854"><ele>453.0</ele><time>2026-04-07T08:20:48.999Z</time></trkpt><trkpt lat="44.03958273522244" lon="11.254807378476414"><ele>453.0</ele><time>2026-04-07T08:20:49.999Z</time></trkpt><trkpt lat="44.039689884954534" lon="11.254881892901853"><ele>453.0</ele><time>2026-04-07T08:20:50.999Z</time></trkpt><trkpt lat="44.03979832974686" lon="11.254992849461022"><ele>453.0</ele><time>2026-04-07T08:20:51.999Z</time></trkpt><trkpt lat="44.039914875011156" lon="11.255084759827243"><ele>453.0</ele><time>2026-04-07T08:20:52.999Z</time></trkpt><trkpt lat="44.04002296972467" lon="11.25515533798717"><ele>456.5</ele><time>2026-04-07T08:20:53.999Z</time></trkpt><trkpt lat="44.04013978675563" lon="11.255167753741901"><ele>460.0</ele><time>2026-04-07T08:20:54.999Z</time></trkpt><trkpt lat="44.040263587948004" lon="11.255107604087849"><ele>463.5</ele><time>2026-04-07T08:20:55.999Z</time></trkpt><trkpt lat="44.04038036969801" lon="11.254982088189191"><ele>467.0</ele><time>2026-04-07T08:20:56.999Z</time></trkpt><trkpt lat="44.040501910177106" lon="11.254833309183656"><ele>464.8</ele><time>2026-04-07T08:20:57.999Z</time></trkpt><trkpt lat="44.0406298598143" lon="11.254720996951589"><ele>462.6</ele><time>2026-04-07T08:20:58.999Z</time></trkpt><trkpt lat="44.040725896968766" lon="11.254643602483753"><ele>460.40000000000003</ele><time>2026-04-07T08:20:59.999Z</time></trkpt><trkpt lat="44.04080095363112" lon="11.254601041353249"><ele>458.20000000000005</ele><time>2026-04-07T08:21:00.999Z</time></trkpt><trkpt lat="44.04086368786472" lon="11.254585989214917"><ele>456.0</ele><time>2026-04-07T08:21:01.999Z</time></trkpt><trkpt lat="44.040929700230066" lon="11.254650350615258"><ele>456.0</ele><time>2026-04-07T08:21:02.999Z</time></trkpt><trkpt lat="44.04096074491883" lon="11.254774855998855"><ele>456.0</ele><time>2026-04-07T08:21:03.999Z</time></trkpt><trkpt lat="44.04095400523197" lon="11.254907382154629"><ele>456.0</ele><time>2026-04-07T08:21:04.999Z</time></trkpt><trkpt lat="44.040878961869424" lon="11.25502037036758"><ele>456.0</ele><time>2026-04-07T08:21:05.999Z</time></trkpt><trkpt lat="44.040801284260915" lon="11.255165949391037"><ele>456.0</ele><time>2026-04-07T08:21:06.999Z</time></trkpt><trkpt lat="44.040696507731326" lon="11.25531819227711"><ele>459.66666666666663</ele><time>2026-04-07T08:21:07.999Z</time></trkpt><trkpt lat="44.04058960657929" lon="11.255489903189895"><ele>463.3333333333333</ele><time>2026-04-07T08:21:08.999Z</time></trkpt><trkpt lat="44.04048336640466" lon="11.255686445941546"><ele>467.0</ele><time>2026-04-07T08:21:09.999Z</time></trkpt><trkpt lat="44.040381186316736" lon="11.255894245692806"><ele>471.25</ele><time>2026-04-07T08:21:10.999Z</time></trkpt><trkpt lat="44.04031489262469" lon="11.256085931541376"><ele>475.5</ele><time>2026-04-07T08:21:11.999Z</time></trkpt><trkpt lat="44.04028775206747" lon="11.256270997650692"><ele>479.75</ele><time>2026-04-07T08:21:12.999Z</time></trkpt><trkpt lat="44.0403011325854" lon="11.256446626148803"><ele>484.0</ele><time>2026-04-07T08:21:13.999Z</time></trkpt><trkpt lat="44.04045275501721" lon="11.256793805824696"><ele>486.0</ele><time>2026-04-07T08:21:15.999Z</time></trkpt><trkpt lat="44.04049421867026" lon="11.256984083857766"><ele>488.0</ele><time>2026-04-07T08:21:16.999Z</time></trkpt><trkpt lat="44.040496948101904" lon="11.257198593759451"><ele>490.0</ele><time>2026-04-07T08:21:17.999Z</time></trkpt><trkpt lat="44.040505805019606" lon="11.257435379333685"><ele>490.25</ele><time>2026-04-07T08:21:18.999Z</time></trkpt><trkpt lat="44.040506396788416" lon="11.257650318500948"><ele>490.5</ele><time>2026-04-07T08:21:19.999Z</time></trkpt><trkpt lat="44.04054916631728" lon="11.257837466861986"><ele>490.75</ele><time>2026-04-07T08:21:20.999Z</time></trkpt><trkpt lat="44.040636312563464" lon="11.258007904033098"><ele>491.0</ele><time>2026-04-07T08:21:21.999Z</time></trkpt><trkpt lat="44.04075935852002" lon="11.25815930026619"><ele>490.3333333333333</ele><time>2026-04-07T08:21:22.999Z</time></trkpt><trkpt lat="44.04090776938196" lon="11.258292968686847"><ele>489.66666666666663</ele><time>2026-04-07T08:21:23.999Z</time></trkpt><trkpt lat="44.04107260967819" lon="11.258407325839782"><ele>489.0</ele><time>2026-04-07T08:21:24.999Z</time></trkpt><trkpt lat="44.041252486229055" lon="11.258500600096195"><ele>489.0</ele><time>2026-04-07T08:21:25.999Z</time></trkpt><trkpt lat="44.0414359988937" lon="11.258577635511944"><ele>489.0</ele><time>2026-04-07T08:21:26.999Z</time></trkpt><trkpt lat="44.04162890510558" lon="11.258659406537436"><ele>489.0</ele><time>2026-04-07T08:21:27.999Z</time></trkpt><trkpt lat="44.041817832937554" lon="11.258742706138726"><ele>488.33333333333337</ele><time>2026-04-07T08:21:29Z</time></trkpt><trkpt lat="44.04198804891463" lon="11.25881508978958"><ele>487.6666666666667</ele><time>2026-04-07T08:21:30Z</time></trkpt><trkpt lat="44.042136645215436" lon="11.25887612459831"><ele>487.0</ele><time>2026-04-07T08:21:31Z</time></trkpt><trkpt lat="44.042267196271936" lon="11.258929209060716"><ele>488.20000000000005</ele><time>2026-04-07T08:21:32Z</time></trkpt><trkpt lat="44.04236308515379" lon="11.258974802535839"><ele>489.40000000000003</ele><time>2026-04-07T08:21:33Z</time></trkpt><trkpt lat="44.042430812156475" lon="11.259012908063303"><ele>490.59999999999997</ele><time>2026-04-07T08:21:34Z</time></trkpt><trkpt lat="44.04249990536524" lon="11.259057995442332"><ele>491.79999999999995</ele><time>2026-04-07T08:21:36Z</time></trkpt><trkpt lat="44.04261081854141" lon="11.259086901384489"><ele>493.0</ele><time>2026-04-07T08:21:38Z</time></trkpt><trkpt lat="44.04271277370226" lon="11.259052152300637"><ele>493.0</ele><time>2026-04-07T08:21:39.001Z</time></trkpt><trkpt lat="44.04283042115937" lon="11.259030624837306"><ele>493.0</ele><time>2026-04-07T08:21:40Z</time></trkpt><trkpt lat="44.04296037345779" lon="11.259003424615848"><ele>493.0</ele><time>2026-04-07T08:21:41Z</time></trkpt><trkpt lat="44.04309239477645" lon="11.258980710534715"><ele>493.0</ele><time>2026-04-07T08:21:42.001Z</time></trkpt><trkpt lat="44.043222262709506" lon="11.2589630392239"><ele>492.79999999999995</ele><time>2026-04-07T08:21:43Z</time></trkpt><trkpt lat="44.04333647074382" lon="11.258951277516541"><ele>492.59999999999997</ele><time>2026-04-07T08:21:44Z</time></trkpt><trkpt lat="44.043448056670655" lon="11.25894337542787"><ele>492.40000000000003</ele><time>2026-04-07T08:21:45Z</time></trkpt><trkpt lat="44.043554111450675" lon="11.258942309091292"><ele>492.20000000000005</ele><time>2026-04-07T08:21:46Z</time></trkpt><trkpt lat="44.04363193987549" lon="11.258948180905852"><ele>492.0</ele><time>2026-04-07T08:21:47Z</time></trkpt><trkpt lat="44.043701598737954" lon="11.258983517102592"><ele>492.0</ele><time>2026-04-07T08:21:49Z</time></trkpt><trkpt lat="44.04376356315956" lon="11.258944966801435"><ele>492.0</ele><time>2026-04-07T08:29:07Z</time></trkpt><trkpt lat="44.043876171926506" lon="11.258873219307622"><ele>492.0</ele><time>2026-04-07T08:29:10Z</time></trkpt><trkpt lat="44.043948502757296" lon="11.258856398188444"><ele>492.0</ele><time>2026-04-07T08:29:11Z</time></trkpt><trkpt lat="44.044035214111325" lon="11.258833857888307"><ele>492.0</ele><time>2026-04-07T08:29:12Z</time></trkpt><trkpt lat="44.04412488361845" lon="11.25880709181046"><ele>492.0</ele><time>2026-04-07T08:29:13Z</time></trkpt><trkpt lat="44.04422531990447" lon="11.258776527398481"><ele>492.0</ele><time>2026-04-07T08:29:14Z</time></trkpt><trkpt lat="44.04434764985439" lon="11.258739317919762"><ele>492.0</ele><time>2026-04-07T08:29:15Z</time></trkpt><trkpt lat="44.044495648426384" lon="11.258702551432696"><ele>492.0</ele><time>2026-04-07T08:29:16Z</time></trkpt><trkpt lat="44.04464582412763" lon="11.258660095953806"><ele>492.0</ele><time>2026-04-07T08:29:17Z</time></trkpt><trkpt lat="44.044805149100824" lon="11.258607503472902"><ele>495.66666666666663</ele><time>2026-04-07T08:29:18Z</time></trkpt><trkpt lat="44.0449737740437" lon="11.258555935162882"><ele>499.3333333333333</ele><time>2026-04-07T08:29:19Z</time></trkpt><trkpt lat="44.0451477911177" lon="11.258507562361173"><ele>503.0</ele><time>2026-04-07T08:29:20Z</time></trkpt><trkpt lat="44.04531413231112" lon="11.258463101114783"><ele>503.0</ele><time>2026-04-07T08:29:21Z</time></trkpt><trkpt lat="44.04548929794673" lon="11.258399480323568"><ele>503.0</ele><time>2026-04-07T08:29:22Z</time></trkpt><trkpt lat="44.04565727868483" lon="11.258334445059704"><ele>503.0</ele><time>2026-04-07T08:29:23Z</time></trkpt><trkpt lat="44.04580219408823" lon="11.258256889979334"><ele>504.75</ele><time>2026-04-07T08:29:24Z</time></trkpt><trkpt lat="44.04592211563531" lon="11.25817065376087"><ele>506.5</ele><time>2026-04-07T08:29:25Z</time></trkpt><trkpt lat="44.046052829036036" lon="11.258138523872931"><ele>508.25</ele><time>2026-04-07T08:29:26Z</time></trkpt><trkpt lat="44.04616536799921" lon="11.258143539373464"><ele>510.0</ele><time>2026-04-07T08:29:27Z</time></trkpt><trkpt lat="44.04627722918396" lon="11.258193485232452"><ele>510.0</ele><time>2026-04-07T08:29:28Z</time></trkpt><trkpt lat="44.04638586196512" lon="11.258313874477427"><ele>510.0</ele><time>2026-04-07T08:29:29Z</time></trkpt><trkpt lat="44.0465072845664" lon="11.25845790239189"><ele>510.0</ele><time>2026-04-07T08:29:30Z</time></trkpt><trkpt lat="44.0466325393339" lon="11.258624872571302"><ele>508.33333333333337</ele><time>2026-04-07T08:29:31Z</time></trkpt><trkpt lat="44.04676867191484" lon="11.25878788458436"><ele>506.6666666666667</ele><time>2026-04-07T08:29:32Z</time></trkpt><trkpt lat="44.046931620094476" lon="11.258964459344874"><ele>505.0</ele><time>2026-04-07T08:29:33Z</time></trkpt><trkpt lat="44.04710172415733" lon="11.259135926208112"><ele>503.6666666666667</ele><time>2026-04-07T08:29:34Z</time></trkpt><trkpt lat="44.047250915689" lon="11.259293744950153"><ele>502.33333333333337</ele><time>2026-04-07T08:29:35Z</time></trkpt><trkpt lat="44.047409283752" lon="11.259447637315871"><ele>501.0</ele><time>2026-04-07T08:29:36Z</time></trkpt><trkpt lat="44.04755381109086" lon="11.259578814323852"><ele>501.0</ele><time>2026-04-07T08:29:37Z</time></trkpt><trkpt lat="44.04769189078662" lon="11.259721519786488"><ele>501.0</ele><time>2026-04-07T08:29:38Z</time></trkpt><trkpt lat="44.04783275662159" lon="11.259854260717372"><ele>501.0</ele><time>2026-04-07T08:29:39Z</time></trkpt><trkpt lat="44.047967845932746" lon="11.259998156010555"><ele>504.0</ele><time>2026-04-07T08:29:40Z</time></trkpt><trkpt lat="44.04807432264809" lon="11.260196282951396"><ele>507.0</ele><time>2026-04-07T08:29:41Z</time></trkpt><trkpt lat="44.04820385956399" lon="11.260361615754071"><ele>510.0</ele><time>2026-04-07T08:29:42Z</time></trkpt><trkpt lat="44.048318011305355" lon="11.260502516481447"><ele>510.0</ele><time>2026-04-07T08:29:43Z</time></trkpt><trkpt lat="44.04842608200626" lon="11.260613575277269"><ele>510.0</ele><time>2026-04-07T08:29:44Z</time></trkpt><trkpt lat="44.048522096206426" lon="11.26071805375847"><ele>510.0</ele><time>2026-04-07T08:29:45Z</time></trkpt><trkpt lat="44.04861813595815" lon="11.260811187750884"><ele>510.0</ele><time>2026-04-07T08:29:46Z</time></trkpt><trkpt lat="44.048712705307345" lon="11.260909825499413"><ele>511.0</ele><time>2026-04-07T08:29:47Z</time></trkpt><trkpt lat="44.04881526852946" lon="11.26100350136744"><ele>512.0</ele><time>2026-04-07T08:29:48Z</time></trkpt><trkpt lat="44.048932383691664" lon="11.261088412351608"><ele>513.0</ele><time>2026-04-07T08:29:49Z</time></trkpt><trkpt lat="44.04906169848713" lon="11.261154746177974"><ele>514.0</ele><time>2026-04-07T08:29:50Z</time></trkpt><trkpt lat="44.049199615423646" lon="11.261190813775643"><ele>514.0</ele><time>2026-04-07T08:29:51Z</time></trkpt><trkpt lat="44.049339493192086" lon="11.26122247234087"><ele>514.0</ele><time>2026-04-07T08:29:52Z</time></trkpt><trkpt lat="44.04948302466217" lon="11.261266389789906"><ele>514.0</ele><time>2026-04-07T08:29:53Z</time></trkpt><trkpt lat="44.0496284318206" lon="11.261308515928866"><ele>514.0</ele><time>2026-04-07T08:29:54Z</time></trkpt><trkpt lat="44.049781306390976" lon="11.261346639251022"><ele>514.0</ele><time>2026-04-07T08:29:55Z</time></trkpt><trkpt lat="44.04993857836192" lon="11.26134741354083"><ele>514.0</ele><time>2026-04-07T08:29:56Z</time></trkpt><trkpt lat="44.050108368755" lon="11.261334699086861"><ele>514.0</ele><time>2026-04-07T08:29:56.999Z</time></trkpt><trkpt lat="44.050293632582395" lon="11.26130385016397"><ele>514.6666666666667</ele><time>2026-04-07T08:29:57.999Z</time></trkpt><trkpt lat="44.05045965763282" lon="11.261280342970302"><ele>515.3333333333334</ele><time>2026-04-07T08:29:58.999Z</time></trkpt><trkpt lat="44.050637053051915" lon="11.26124104230698"><ele>516.0</ele><time>2026-04-07T08:29:59.999Z</time></trkpt><trkpt lat="44.05082009165965" lon="11.261171509833876"><ele>516.5</ele><time>2026-04-07T08:30:01Z</time></trkpt><trkpt lat="44.05097714066609" lon="11.261106540212868"><ele>517.0</ele><time>2026-04-07T08:30:02Z</time></trkpt><trkpt lat="44.05111454179711" lon="11.261049659256514"><ele>517.5</ele><time>2026-04-07T08:30:03Z</time></trkpt><trkpt lat="44.05122197672574" lon="11.261009515139175"><ele>518.0</ele><time>2026-04-07T08:30:04Z</time></trkpt><trkpt lat="44.05131078165552" lon="11.260977927444413"><ele>518.0</ele><time>2026-04-07T08:30:05Z</time></trkpt><trkpt lat="44.05139497416998" lon="11.260946948092222"><ele>518.0</ele><time>2026-04-07T08:30:06Z</time></trkpt><trkpt lat="44.05148538112042" lon="11.260913235012548"><ele>518.0</ele><time>2026-04-07T08:30:07Z</time></trkpt><trkpt lat="44.0515957564189" lon="11.260871978184639"><ele>518.0</ele><time>2026-04-07T08:30:08Z</time></trkpt><trkpt lat="44.051709687294775" lon="11.260823477764566"><ele>518.0</ele><time>2026-04-07T08:30:09Z</time></trkpt><trkpt lat="44.051828418244746" lon="11.26077049340345"><ele>519.0</ele><time>2026-04-07T08:30:10Z</time></trkpt><trkpt lat="44.05196224085702" lon="11.26072196366937"><ele>520.0</ele><time>2026-04-07T08:30:11Z</time></trkpt><trkpt lat="44.0521078033229" lon="11.260676758436645"><ele>521.0</ele><time>2026-04-07T08:30:12Z</time></trkpt><trkpt lat="44.052273068894365" lon="11.260658390530384"><ele>521.0</ele><time>2026-04-07T08:30:13Z</time></trkpt><trkpt lat="44.05241400908467" lon="11.260620593086028"><ele>521.0</ele><time>2026-04-07T08:30:14Z</time></trkpt><trkpt lat="44.05255828774412" lon="11.260616658815112"><ele>521.0</ele><time>2026-04-07T08:30:15Z</time></trkpt><trkpt lat="44.05269352778068" lon="11.260667178805026"><ele>521.0</ele><time>2026-04-07T08:30:16Z</time></trkpt><trkpt lat="44.05282239198826" lon="11.260734698321267"><ele>523.3333333333333</ele><time>2026-04-07T08:30:17Z</time></trkpt><trkpt lat="44.0529622309063" lon="11.260812610847996"><ele>525.6666666666666</ele><time>2026-04-07T08:30:18Z</time></trkpt><trkpt lat="44.053103706502334" lon="11.260953018018945"><ele>528.0</ele><time>2026-04-07T08:30:19Z</time></trkpt><trkpt lat="44.05325352710435" lon="11.261097865247324"><ele>527.6666666666666</ele><time>2026-04-07T08:30:20Z</time></trkpt><trkpt lat="44.053424310180986" lon="11.26124731887475"><ele>527.3333333333333</ele><time>2026-04-07T08:30:21Z</time></trkpt><trkpt lat="44.05360772344706" lon="11.261391683270256"><ele>527.0</ele><time>2026-04-07T08:30:22Z</time></trkpt><trkpt lat="44.05380720093865" lon="11.261512183809522"><ele>530.5</ele><time>2026-04-07T08:30:23Z</time></trkpt><trkpt lat="44.054021617604946" lon="11.261611483732601"><ele>534.0</ele><time>2026-04-07T08:30:24Z</time></trkpt><trkpt lat="44.05425072597208" lon="11.261699377507112"><ele>534.0</ele><time>2026-04-07T08:30:25Z</time></trkpt><trkpt lat="44.05448973108219" lon="11.261789001817101"><ele>534.0</ele><time>2026-04-07T08:30:26Z</time></trkpt><trkpt lat="44.054739249993276" lon="11.261885517600048"><ele>532.0</ele><time>2026-04-07T08:30:27Z</time></trkpt><trkpt lat="44.054989679874936" lon="11.261985861464035"><ele>530.0</ele><time>2026-04-07T08:30:28Z</time></trkpt><trkpt lat="44.05523542736773" lon="11.26208550170292"><ele>530.0</ele><time>2026-04-07T08:30:29Z</time></trkpt><trkpt lat="44.055482154444256" lon="11.262179229780001"><ele>530.0</ele><time>2026-04-07T08:30:30Z</time></trkpt><trkpt lat="44.05571655833333" lon="11.262268188166608"><ele>533.0</ele><time>2026-04-07T08:30:31Z</time></trkpt><trkpt lat="44.0559209999265" lon="11.26235287596111"><ele>536.0</ele><time>2026-04-07T08:30:32Z</time></trkpt><trkpt lat="44.056094348582064" lon="11.262441456002106"><ele>539.0</ele><time>2026-04-07T08:30:33Z</time></trkpt><trkpt lat="44.05624220965779" lon="11.26255391375086"><ele>539.0</ele><time>2026-04-07T08:30:34Z</time></trkpt><trkpt lat="44.05636725411705" lon="11.26269556675786"><ele>539.0</ele><time>2026-04-07T08:30:35Z</time></trkpt><trkpt lat="44.05646869719858" lon="11.2628126213511"><ele>539.0</ele><time>2026-04-07T08:30:36Z</time></trkpt><trkpt lat="44.056573083891706" lon="11.262866490464669"><ele>539.0</ele><time>2026-04-07T08:30:37Z</time></trkpt><trkpt lat="44.05668838306969" lon="11.262846737953998"><ele>541.25</ele><time>2026-04-07T08:30:38Z</time></trkpt><trkpt lat="44.05680719313188" lon="11.262759598564225"><ele>543.5</ele><time>2026-04-07T08:30:39Z</time></trkpt><trkpt lat="44.05692409267923" lon="11.262642612744884"><ele>545.75</ele><time>2026-04-07T08:30:40Z</time></trkpt><trkpt lat="44.05705616876255" lon="11.26253127027372"><ele>548.0</ele><time>2026-04-07T08:30:41Z</time></trkpt><trkpt lat="44.05720058390748" lon="11.262471294798537"><ele>548.0</ele><time>2026-04-07T08:30:42Z</time></trkpt><trkpt lat="44.05732762999168" lon="11.26241200969442"><ele>548.0</ele><time>2026-04-07T08:30:43Z</time></trkpt><trkpt lat="44.05746291256626" lon="11.262470466754584"><ele>548.0</ele><time>2026-04-07T08:30:44Z</time></trkpt><trkpt lat="44.0576156439877" lon="11.262538552087232"><ele>548.0</ele><time>2026-04-07T08:30:45Z</time></trkpt><trkpt lat="44.05778246402819" lon="11.262625945566011"><ele>550.3333333333333</ele><time>2026-04-07T08:30:46Z</time></trkpt><trkpt lat="44.05794553610726" lon="11.262763409760739"><ele>552.6666666666666</ele><time>2026-04-07T08:30:47Z</time></trkpt><trkpt lat="44.058110421061144" lon="11.26290995739987"><ele>555.0</ele><time>2026-04-07T08:30:48Z</time></trkpt><trkpt lat="44.05827416328715" lon="11.263025485248033"><ele>556.0</ele><time>2026-04-07T08:30:49Z</time></trkpt><trkpt lat="44.058452282093846" lon="11.26309154997309"><ele>557.0</ele><time>2026-04-07T08:30:50Z</time></trkpt><trkpt lat="44.058648875249204" lon="11.263088737519569"><ele>558.0</ele><time>2026-04-07T08:30:51Z</time></trkpt><trkpt lat="44.058846478893514" lon="11.263055606748557"><ele>558.0</ele><time>2026-04-07T08:30:52Z</time></trkpt><trkpt lat="44.059051580265205" lon="11.263052448211502"><ele>558.0</ele><time>2026-04-07T08:30:53Z</time></trkpt><trkpt lat="44.05926281252406" lon="11.263051000730991"><ele>558.0</ele><time>2026-04-07T08:30:54Z</time></trkpt><trkpt lat="44.05948386917647" lon="11.263029233404344"><ele>560.0</ele><time>2026-04-07T08:30:55Z</time></trkpt><trkpt lat="44.05970241825374" lon="11.263031567872282"><ele>562.0</ele><time>2026-04-07T08:30:56Z</time></trkpt><trkpt lat="44.05990854952873" lon="11.263032682650861"><ele>564.0</ele><time>2026-04-07T08:30:57Z</time></trkpt><trkpt lat="44.060116907630814" lon="11.263039264890816"><ele>567.6666666666666</ele><time>2026-04-07T08:30:58Z</time></trkpt><trkpt lat="44.06033026212134" lon="11.263053144266284"><ele>571.3333333333333</ele><time>2026-04-07T08:30:59Z</time></trkpt><trkpt lat="44.06054314727606" lon="11.26307267755056"><ele>575.0</ele><time>2026-04-07T08:31:00Z</time></trkpt><trkpt lat="44.060736559403374" lon="11.263104800011265"><ele>574.0</ele><time>2026-04-07T08:31:01Z</time></trkpt><trkpt lat="44.06092115931369" lon="11.263153860107728"><ele>573.0</ele><time>2026-04-07T08:31:02Z</time></trkpt><trkpt lat="44.061098772479525" lon="11.263240604110585"><ele>572.0</ele><time>2026-04-07T08:31:03Z</time></trkpt><trkpt lat="44.06126765287068" lon="11.263346373371212"><ele>572.0</ele><time>2026-04-07T08:31:04Z</time></trkpt><trkpt lat="44.06144346891518" lon="11.263460799317528"><ele>572.0</ele><time>2026-04-07T08:31:05Z</time></trkpt><trkpt lat="44.06161747355431" lon="11.26357483295777"><ele>572.0</ele><time>2026-04-07T08:31:06Z</time></trkpt><trkpt lat="44.06179620549351" lon="11.263691471581264"><ele>573.6666666666666</ele><time>2026-04-07T08:31:07Z</time></trkpt><trkpt lat="44.06197946952459" lon="11.263809525770013"><ele>575.3333333333334</ele><time>2026-04-07T08:31:08Z</time></trkpt><trkpt lat="44.062171959002036" lon="11.263934183827438"><ele>577.0</ele><time>2026-04-07T08:31:09Z</time></trkpt><trkpt lat="44.06236053735615" lon="11.264044956949071"><ele>581.0</ele><time>2026-04-07T08:31:10Z</time></trkpt><trkpt lat="44.06254062613378" lon="11.264142534498449"><ele>585.0</ele><time>2026-04-07T08:31:11Z</time></trkpt><trkpt lat="44.06270531446144" lon="11.264273136758622"><ele>589.0</ele><time>2026-04-07T08:31:12Z</time></trkpt><trkpt lat="44.06286880828005" lon="11.264393389968102"><ele>589.0</ele><time>2026-04-07T08:31:13Z</time></trkpt><trkpt lat="44.063032248534526" lon="11.264521450251285"><ele>589.0</ele><time>2026-04-07T08:31:14Z</time></trkpt><trkpt lat="44.063141540314206" lon="11.26472025519654"><ele>589.0</ele><time>2026-04-07T08:31:15Z</time></trkpt><trkpt lat="44.063235742752596" lon="11.264937075887477"><ele>593.0</ele><time>2026-04-07T08:31:16Z</time></trkpt><trkpt lat="44.063327929810306" lon="11.265150888145685"><ele>597.0</ele><time>2026-04-07T08:31:17Z</time></trkpt><trkpt lat="44.063404401797904" lon="11.265395634106588"><ele>601.0</ele><time>2026-04-07T08:31:18Z</time></trkpt><trkpt lat="44.063497632448176" lon="11.265640923361083"><ele>601.0</ele><time>2026-04-07T08:31:19Z</time></trkpt><trkpt lat="44.06361684017326" lon="11.265877140478452"><ele>601.0</ele><time>2026-04-07T08:31:20Z</time></trkpt><trkpt lat="44.063759471004516" lon="11.266096153713276"><ele>601.0</ele><time>2026-04-07T08:31:21Z</time></trkpt><trkpt lat="44.063910308950064" lon="11.266312371192544"><ele>600.3333333333334</ele><time>2026-04-07T08:31:22Z</time></trkpt><trkpt lat="44.06403789380811" lon="11.266496226546336"><ele>599.6666666666666</ele><time>2026-04-07T08:31:23Z</time></trkpt><trkpt lat="44.064144931454216" lon="11.266661753345497"><ele>599.0</ele><time>2026-04-07T08:31:24Z</time></trkpt><trkpt lat="44.064237809783414" lon="11.266807596276662"><ele>603.25</ele><time>2026-04-07T08:31:25Z</time></trkpt><trkpt lat="44.06433052682133" lon="11.266917941529487"><ele>607.5</ele><time>2026-04-07T08:31:26Z</time></trkpt><trkpt lat="44.06444032589517" lon="11.266972276927818"><ele>611.75</ele><time>2026-04-07T08:31:27Z</time></trkpt><trkpt lat="44.0645841897778" lon="11.266976380264925"><ele>616.0</ele><time>2026-04-07T08:31:28Z</time></trkpt><trkpt lat="44.06474982912747" lon="11.266984787400267"><ele>616.0</ele><time>2026-04-07T08:31:29Z</time></trkpt><trkpt lat="44.06492572263174" lon="11.266984787398668"><ele>616.0</ele><time>2026-04-07T08:31:30Z</time></trkpt><trkpt lat="44.06511270804219" lon="11.267010763688436"><ele>616.0</ele><time>2026-04-07T08:31:31Z</time></trkpt><trkpt lat="44.06531906466195" lon="11.26709635673138"><ele>614.5</ele><time>2026-04-07T08:31:32Z</time></trkpt><trkpt lat="44.06553609510305" lon="11.267196918030265"><ele>613.0</ele><time>2026-04-07T08:31:33Z</time></trkpt><trkpt lat="44.06577128906533" lon="11.267304789600948"><ele>619.0</ele><time>2026-04-07T08:31:34Z</time></trkpt><trkpt lat="44.0660142490219" lon="11.267372293768714"><ele>625.0</ele><time>2026-04-07T08:31:35Z</time></trkpt><trkpt lat="44.066252111301125" lon="11.267405671096606"><ele>625.0</ele><time>2026-04-07T08:31:36Z</time></trkpt><trkpt lat="44.066458060605484" lon="11.267472878799412"><ele>625.0</ele><time>2026-04-07T08:31:37Z</time></trkpt><trkpt lat="44.0666282087543" lon="11.267629611048456"><ele>625.0</ele><time>2026-04-07T08:31:38Z</time></trkpt><trkpt lat="44.06679757979077" lon="11.2678384970481"><ele>625.3333333333334</ele><time>2026-04-07T08:31:39Z</time></trkpt><trkpt lat="44.06696331164108" lon="11.268018201740718"><ele>625.6666666666666</ele><time>2026-04-07T08:31:40Z</time></trkpt><trkpt lat="44.06713157407553" lon="11.268120550533567"><ele>626.0</ele><time>2026-04-07T08:31:41Z</time></trkpt><trkpt lat="44.06731255261833" lon="11.268185266118744"><ele>630.0</ele><time>2026-04-07T08:31:42Z</time></trkpt><trkpt lat="44.06748878957453" lon="11.268229189947215"><ele>634.0</ele><time>2026-04-07T08:31:43Z</time></trkpt><trkpt lat="44.06762328817251" lon="11.26832642094901"><ele>638.0</ele><time>2026-04-07T08:31:44Z</time></trkpt><trkpt lat="44.06774168444413" lon="11.268440377046865"><ele>638.0</ele><time>2026-04-07T08:31:45Z</time></trkpt><trkpt lat="44.0677915249363" lon="11.268657279732855"><ele>638.0</ele><time>2026-04-07T08:31:46Z</time></trkpt><trkpt lat="44.06785228981909" lon="11.268892005825732"><ele>638.0</ele><time>2026-04-07T08:31:46.999Z</time></trkpt><trkpt lat="44.067888832759614" lon="11.269160810736796"><ele>637.0</ele><time>2026-04-07T08:31:47.999Z</time></trkpt><trkpt lat="44.06795715264253" lon="11.269441345814862"><ele>636.0</ele><time>2026-04-07T08:31:48.999Z</time></trkpt><trkpt lat="44.06805476023842" lon="11.269671356162172"><ele>635.0</ele><time>2026-04-07T08:31:49.999Z</time></trkpt><trkpt lat="44.06815359352881" lon="11.269837420441783"><ele>639.6666666666666</ele><time>2026-04-07T08:31:50.999Z</time></trkpt><trkpt lat="44.06827986536425" lon="11.26996006298869"><ele>644.3333333333334</ele><time>2026-04-07T08:31:51.999Z</time></trkpt><trkpt lat="44.06843000655389" lon="11.270076078286557"><ele>649.0</ele><time>2026-04-07T08:31:52.999Z</time></trkpt><trkpt lat="44.06859433765128" lon="11.270173415828454"><ele>649.0</ele><time>2026-04-07T08:31:53.999Z</time></trkpt><trkpt lat="44.06877244871965" lon="11.270221249395952"><ele>649.0</ele><time>2026-04-07T08:31:54.999Z</time></trkpt><trkpt lat="44.06897414240085" lon="11.270208591046295"><ele>649.0</ele><time>2026-04-07T08:31:55.999Z</time></trkpt><trkpt lat="44.06919491329535" lon="11.270168278525327"><ele>653.3333333333334</ele><time>2026-04-07T08:31:56.999Z</time></trkpt><trkpt lat="44.069413693613356" lon="11.270125422328146"><ele>657.6666666666666</ele><time>2026-04-07T08:31:57.999Z</time></trkpt><trkpt lat="44.06963397003092" lon="11.270088448949725"><ele>662.0</ele><time>2026-04-07T08:31:58.999Z</time></trkpt><trkpt lat="44.069859718246626" lon="11.270035898551408"><ele>664.0</ele><time>2026-04-07T08:31:59.999Z</time></trkpt><trkpt lat="44.07006886337853" lon="11.269963788586958"><ele>666.0</ele><time>2026-04-07T08:32:00.999Z</time></trkpt><trkpt lat="44.07024559052386" lon="11.269900582196358"><ele>668.0</ele><time>2026-04-07T08:32:01.999Z</time></trkpt><trkpt lat="44.07039899744575" lon="11.269855578588052"><ele>668.0</ele><time>2026-04-07T08:32:02.999Z</time></trkpt><trkpt lat="44.070539637910606" lon="11.269876527311736"><ele>668.0</ele><time>2026-04-07T08:32:03.999Z</time></trkpt><trkpt lat="44.07066633766755" lon="11.269938964980705"><ele>668.0</ele><time>2026-04-07T08:32:04.999Z</time></trkpt><trkpt lat="44.0707954401917" lon="11.270042571159443"><ele>668.0</ele><time>2026-04-07T08:32:05.999Z</time></trkpt><trkpt lat="44.07094592044817" lon="11.270132082827567"><ele>670.0</ele><time>2026-04-07T08:32:07Z</time></trkpt><trkpt lat="44.07109797307667" lon="11.270245821924693"><ele>672.0</ele><time>2026-04-07T08:32:08Z</time></trkpt><trkpt lat="44.07125988785441" lon="11.270373699690904"><ele>674.0</ele><time>2026-04-07T08:32:09Z</time></trkpt><trkpt lat="44.07141220375448" lon="11.270550941385993"><ele>673.0</ele><time>2026-04-07T08:32:10Z</time></trkpt><trkpt lat="44.07154806614724" lon="11.270786727178704"><ele>672.0</ele><time>2026-04-07T08:32:11Z</time></trkpt><trkpt lat="44.07168064474768" lon="11.27102622417267"><ele>671.0</ele><time>2026-04-07T08:32:12Z</time></trkpt><trkpt lat="44.071824968223154" lon="11.271228213862093"><ele>674.0</ele><time>2026-04-07T08:32:13Z</time></trkpt><trkpt lat="44.072021815600564" lon="11.271395501960614"><ele>677.0</ele><time>2026-04-07T08:32:14Z</time></trkpt><trkpt lat="44.07221011040174" lon="11.2715467855205"><ele>680.0</ele><time>2026-04-07T08:32:15Z</time></trkpt><trkpt lat="44.07235828044583" lon="11.27167054329963"><ele>682.75</ele><time>2026-04-07T08:32:16Z</time></trkpt><trkpt lat="44.07246107738136" lon="11.271750919760155"><ele>685.5</ele><time>2026-04-07T08:32:17Z</time></trkpt><trkpt lat="44.072561342142535" lon="11.271773637014954"><ele>688.25</ele><time>2026-04-07T08:32:18Z</time></trkpt><trkpt lat="44.07267588868131" lon="11.271730249373213"><ele>691.0</ele><time>2026-04-07T08:32:19Z</time></trkpt><trkpt lat="44.07277623833839" lon="11.271624533076908"><ele>691.0</ele><time>2026-04-07T08:32:20Z</time></trkpt><trkpt lat="44.07282694013106" lon="11.271468091945794"><ele>691.0</ele><time>2026-04-07T08:32:21Z</time></trkpt><trkpt lat="44.07283806169781" lon="11.271286310571913"><ele>691.0</ele><time>2026-04-07T08:32:22Z</time></trkpt><trkpt lat="44.072822342884486" lon="11.271083891681094"><ele>691.0</ele><time>2026-04-07T08:32:23Z</time></trkpt><trkpt lat="44.07280493902289" lon="11.270852397762006"><ele>692.0</ele><time>2026-04-07T08:32:24Z</time></trkpt><trkpt lat="44.072795879259644" lon="11.270615238227437"><ele>693.0</ele><time>2026-04-07T08:32:25Z</time></trkpt><trkpt lat="44.07278647297892" lon="11.270403733199117"><ele>694.0</ele><time>2026-04-07T08:32:26Z</time></trkpt><trkpt lat="44.07278884164363" lon="11.270245109477111"><ele>695.0</ele><time>2026-04-07T08:32:27Z</time></trkpt><trkpt lat="44.07282317253628" lon="11.270127716093384"><ele>695.0</ele><time>2026-04-07T08:32:28Z</time></trkpt><trkpt lat="44.07291753591978" lon="11.270095473655838"><ele>695.0</ele><time>2026-04-07T08:32:29Z</time></trkpt><trkpt lat="44.073007218133185" lon="11.270071606527944"><ele>695.0</ele><time>2026-04-07T08:32:30Z</time></trkpt><trkpt lat="44.073099806414334" lon="11.27004604681063"><ele>695.0</ele><time>2026-04-07T08:32:31Z</time></trkpt><trkpt lat="44.07320352455534" lon="11.270067350543433"><ele>695.0</ele><time>2026-04-07T08:32:32Z</time></trkpt><trkpt lat="44.07331574428756" lon="11.270124745181613"><ele>697.0</ele><time>2026-04-07T08:32:33Z</time></trkpt><trkpt lat="44.07342755958305" lon="11.270216511992533"><ele>699.0</ele><time>2026-04-07T08:32:34Z</time></trkpt><trkpt lat="44.073548454095246" lon="11.270332000257946"><ele>701.0</ele><time>2026-04-07T08:32:35Z</time></trkpt><trkpt lat="44.07365077105715" lon="11.270478934024153"><ele>703.0</ele><time>2026-04-07T08:32:36Z</time></trkpt><trkpt lat="44.073763577109126" lon="11.270606714005313"><ele>703.3333333333334</ele><time>2026-04-07T08:32:37Z</time></trkpt><trkpt lat="44.073833231651484" lon="11.270787002086156"><ele>703.6666666666666</ele><time>2026-04-07T08:32:38Z</time></trkpt><trkpt lat="44.07391746322862" lon="11.270971879572496"><ele>704.0</ele><time>2026-04-07T08:32:39Z</time></trkpt><trkpt lat="44.07397361960303" lon="11.271191402823487"><ele>704.0</ele><time>2026-04-07T08:32:40Z</time></trkpt><trkpt lat="44.074010849273634" lon="11.271400622116596"><ele>704.0</ele><time>2026-04-07T08:32:41Z</time></trkpt><trkpt lat="44.07404229585703" lon="11.271607392424556"><ele>704.0</ele><time>2026-04-07T08:32:42Z</time></trkpt><trkpt lat="44.07406338274141" lon="11.271816858976797"><ele>703.3333333333333</ele><time>2026-04-07T08:32:43Z</time></trkpt><trkpt lat="44.074078914692606" lon="11.272041367866576"><ele>702.6666666666666</ele><time>2026-04-07T08:32:44Z</time></trkpt><trkpt lat="44.07409682642605" lon="11.27227295907186"><ele>702.0</ele><time>2026-04-07T08:32:45Z</time></trkpt><trkpt lat="44.07411447569889" lon="11.272519991131439"><ele>705.25</ele><time>2026-04-07T08:32:46Z</time></trkpt><trkpt lat="44.07412745972911" lon="11.272734978855953"><ele>708.5</ele><time>2026-04-07T08:32:47Z</time></trkpt><trkpt lat="44.07413583136361" lon="11.272927453522172"><ele>711.75</ele><time>2026-04-07T08:32:48Z</time></trkpt><trkpt lat="44.07411209072474" lon="11.273117027638904"><ele>715.0</ele><time>2026-04-07T08:32:49Z</time></trkpt><trkpt lat="44.07404893383715" lon="11.273308435931053"><ele>715.0</ele><time>2026-04-07T08:32:50Z</time></trkpt><trkpt lat="44.07398215732203" lon="11.27348449595103"><ele>715.0</ele><time>2026-04-07T08:32:51Z</time></trkpt><trkpt lat="44.07392786606478" lon="11.273626326249762"><ele>715.0</ele><time>2026-04-07T08:32:52Z</time></trkpt><trkpt lat="44.07389510163061" lon="11.273766487882426"><ele>715.0</ele><time>2026-04-07T08:32:53Z</time></trkpt><trkpt lat="44.073896897163756" lon="11.27394198431219"><ele>716.3333333333334</ele><time>2026-04-07T08:32:54Z</time></trkpt><trkpt lat="44.07393823603064" lon="11.274114499241852"><ele>717.6666666666666</ele><time>2026-04-07T08:32:55Z</time></trkpt><trkpt lat="44.07403205031804" lon="11.274298494573658"><ele>719.0</ele><time>2026-04-07T08:32:56Z</time></trkpt><trkpt lat="44.074148168788604" lon="11.274477765171616"><ele>723.6666666666666</ele><time>2026-04-07T08:32:57Z</time></trkpt><trkpt lat="44.07427924834355" lon="11.274674821244794"><ele>728.3333333333334</ele><time>2026-04-07T08:32:58Z</time></trkpt><trkpt lat="44.07441951325047" lon="11.274878184339244"><ele>733.0</ele><time>2026-04-07T08:32:59Z</time></trkpt><trkpt lat="44.074573979497885" lon="11.275030666618157"><ele>733.0</ele><time>2026-04-07T08:33:00Z</time></trkpt><trkpt lat="44.07474660108284" lon="11.275149882979902"><ele>733.0</ele><time>2026-04-07T08:33:01Z</time></trkpt><trkpt lat="44.074889189192156" lon="11.275227966654024"><ele>733.0</ele><time>2026-04-07T08:33:02Z</time></trkpt><trkpt lat="44.075012042074846" lon="11.275318661058051"><ele>737.0</ele><time>2026-04-07T08:33:03Z</time></trkpt><trkpt lat="44.075115697171626" lon="11.27546726030703"><ele>741.0</ele><time>2026-04-07T08:33:04Z</time></trkpt><trkpt lat="44.07517345673279" lon="11.275676291616387"><ele>745.0</ele><time>2026-04-07T08:33:05Z</time></trkpt><trkpt lat="44.07524244316415" lon="11.275903024588827"><ele>745.0</ele><time>2026-04-07T08:33:06Z</time></trkpt><trkpt lat="44.07535581766383" lon="11.276122906501957"><ele>745.0</ele><time>2026-04-07T08:33:07Z</time></trkpt><trkpt lat="44.075494459468345" lon="11.276340600744946"><ele>745.0</ele><time>2026-04-07T08:33:08Z</time></trkpt><trkpt lat="44.07564576625635" lon="11.276547891310251"><ele>745.0</ele><time>2026-04-07T08:33:09Z</time></trkpt><trkpt lat="44.07575201450485" lon="11.276699157060865"><ele>745.0</ele><time>2026-04-07T08:33:10Z</time></trkpt><trkpt lat="44.07585153976338" lon="11.276849516637633"><ele>745.0</ele><time>2026-04-07T08:33:11Z</time></trkpt><trkpt lat="44.075895966834565" lon="11.276959365049018"><ele>745.0</ele><time>2026-04-07T08:33:12Z</time></trkpt><trkpt lat="44.07587055235155" lon="11.27712362034124"><ele>744.5</ele><time>2026-04-07T08:33:13Z</time></trkpt><trkpt lat="44.0758196359354" lon="11.277269278051309"><ele>744.0</ele><time>2026-04-07T08:33:14Z</time></trkpt><trkpt lat="44.07576937624319" lon="11.277473613385943"><ele>743.5</ele><time>2026-04-07T08:33:15Z</time></trkpt><trkpt lat="44.07576109731553" lon="11.277671956250481"><ele>743.0</ele><time>2026-04-07T08:33:16Z</time></trkpt><trkpt lat="44.07579363750061" lon="11.277875785401553"><ele>751.0</ele><time>2026-04-07T08:33:17Z</time></trkpt><trkpt lat="44.07585949752017" lon="11.278105922856385"><ele>759.0</ele><time>2026-04-07T08:33:18Z</time></trkpt><trkpt lat="44.075904510958175" lon="11.278383752180645"><ele>767.0</ele><time>2026-04-07T08:33:19Z</time></trkpt><trkpt lat="44.075866555399834" lon="11.27868478499575"><ele>766.5</ele><time>2026-04-07T08:33:20Z</time></trkpt><trkpt lat="44.07584334443019" lon="11.279009594893887"><ele>766.0</ele><time>2026-04-07T08:33:21Z</time></trkpt><trkpt lat="44.07582334956308" lon="11.279356762066532"><ele>766.0</ele><time>2026-04-07T08:33:22Z</time></trkpt><trkpt lat="44.075795744183594" lon="11.27971189474676"><ele>766.0</ele><time>2026-04-07T08:33:23Z</time></trkpt><trkpt lat="44.075787981613196" lon="11.279989419211262"><ele>765.75</ele><time>2026-04-07T08:33:24Z</time></trkpt><trkpt lat="44.075791217021" lon="11.280181643206845"><ele>765.5</ele><time>2026-04-07T08:33:25Z</time></trkpt><trkpt lat="44.07580533032149" lon="11.280328449990684"><ele>765.25</ele><time>2026-04-07T08:33:26Z</time></trkpt><trkpt lat="44.07585387569" lon="11.280458136319698"><ele>765.0</ele><time>2026-04-07T08:33:27Z</time></trkpt><trkpt lat="44.075948934914564" lon="11.280593528754439"><ele>761.3333333333334</ele><time>2026-04-07T08:33:28Z</time></trkpt><trkpt lat="44.07607673154716" lon="11.280702807504785"><ele>757.6666666666667</ele><time>2026-04-07T08:33:29Z</time></trkpt><trkpt lat="44.0762339651509" lon="11.280765755709249"><ele>754.0</ele><time>2026-04-07T08:33:30Z</time></trkpt><trkpt lat="44.07640692473949" lon="11.280787939368908"><ele>754.0</ele><time>2026-04-07T08:33:31Z</time></trkpt><trkpt lat="44.07657538177902" lon="11.280803852171386"><ele>754.0</ele><time>2026-04-07T08:33:32Z</time></trkpt><trkpt lat="44.076707822333766" lon="11.280872188591957"><ele>754.0</ele><time>2026-04-07T08:33:33Z</time></trkpt><trkpt lat="44.07681751361569" lon="11.280996264906411"><ele>757.6666666666667</ele><time>2026-04-07T08:33:34Z</time></trkpt><trkpt lat="44.07694500928807" lon="11.28113860283144"><ele>761.3333333333334</ele><time>2026-04-07T08:33:35Z</time></trkpt><trkpt lat="44.0770790166822" lon="11.281262803104244"><ele>765.0</ele><time>2026-04-07T08:33:36Z</time></trkpt><trkpt lat="44.07723415724755" lon="11.281382578403958"><ele>764.6666666666666</ele><time>2026-04-07T08:33:37Z</time></trkpt><trkpt lat="44.07742679196457" lon="11.281469021124376"><ele>764.3333333333333</ele><time>2026-04-07T08:33:38Z</time></trkpt><trkpt lat="44.077634131988816" lon="11.281547357219907"><ele>764.0</ele><time>2026-04-07T08:33:39Z</time></trkpt><trkpt lat="44.0778531089134" lon="11.281646003422127"><ele>764.0</ele><time>2026-04-07T08:33:39.999Z</time></trkpt><trkpt lat="44.07807103668456" lon="11.281744682849293"><ele>764.0</ele><time>2026-04-07T08:33:40.999Z</time></trkpt><trkpt lat="44.07825004911132" lon="11.281836613517962"><ele>764.0</ele><time>2026-04-07T08:33:41.999Z</time></trkpt><trkpt lat="44.07841122196002" lon="11.28191635944386"><ele>767.3333333333333</ele><time>2026-04-07T08:33:42.999Z</time></trkpt><trkpt lat="44.078576074879884" lon="11.282002931661419"><ele>770.6666666666666</ele><time>2026-04-07T08:33:43.999Z</time></trkpt><trkpt lat="44.07875204523816" lon="11.2820684359732"><ele>774.0</ele><time>2026-04-07T08:33:44.999Z</time></trkpt><trkpt lat="44.07894073053947" lon="11.282100772656923"><ele>780.0</ele><time>2026-04-07T08:33:45.999Z</time></trkpt><trkpt lat="44.07915169027672" lon="11.282096243519295"><ele>786.0</ele><time>2026-04-07T08:33:46.999Z</time></trkpt><trkpt lat="44.07937881712733" lon="11.282065789930556"><ele>792.0</ele><time>2026-04-07T08:33:47.999Z</time></trkpt><trkpt lat="44.07961936072244" lon="11.282025356943086"><ele>792.0</ele><time>2026-04-07T08:33:48.999Z</time></trkpt><trkpt lat="44.079857282488376" lon="11.281997407635117"><ele>792.0</ele><time>2026-04-07T08:33:49.999Z</time></trkpt><trkpt lat="44.08009844476774" lon="11.281976074150597"><ele>799.0</ele><time>2026-04-07T08:33:50.999Z</time></trkpt><trkpt lat="44.08034420443022" lon="11.281956587514525"><ele>806.0</ele><time>2026-04-07T08:33:51.999Z</time></trkpt><trkpt lat="44.0805591443227" lon="11.281938742296893"><ele>806.0</ele><time>2026-04-07T08:33:52.999Z</time></trkpt><trkpt lat="44.08075246796138" lon="11.281911008022492"><ele>806.0</ele><time>2026-04-07T08:33:53.999Z</time></trkpt><trkpt lat="44.080947447403865" lon="11.281848996653224"><ele>806.0</ele><time>2026-04-07T08:33:54.999Z</time></trkpt><trkpt lat="44.081118425004796" lon="11.281766815676244"><ele>807.0</ele><time>2026-04-07T08:33:55.999Z</time></trkpt><trkpt lat="44.081276326216084" lon="11.281688132394622"><ele>808.0</ele><time>2026-04-07T08:33:56.999Z</time></trkpt><trkpt lat="44.081425318184564" lon="11.281582928524632"><ele>809.0</ele><time>2026-04-07T08:33:57.999Z</time></trkpt><trkpt lat="44.08155936778445" lon="11.28141964273524"><ele>814.3333333333334</ele><time>2026-04-07T08:33:58.999Z</time></trkpt><trkpt lat="44.081689346612336" lon="11.281228440834395"><ele>819.6666666666667</ele><time>2026-04-07T08:33:59.999Z</time></trkpt><trkpt lat="44.08180109659758" lon="11.28106966751593"><ele>825.0</ele><time>2026-04-07T08:34:00.999Z</time></trkpt><trkpt lat="44.081897226671494" lon="11.280947364605865"><ele>825.0</ele><time>2026-04-07T08:34:01.999Z</time></trkpt><trkpt lat="44.08199545105621" lon="11.280868050061537"><ele>825.0</ele><time>2026-04-07T08:34:02.999Z</time></trkpt><trkpt lat="44.08210860709387" lon="11.280908398655276"><ele>825.0</ele><time>2026-04-07T08:34:03.999Z</time></trkpt><trkpt lat="44.082237359593655" lon="11.281003731683843"><ele>825.0</ele><time>2026-04-07T08:34:04.999Z</time></trkpt><trkpt lat="44.08233702263045" lon="11.281136091818485"><ele>825.0</ele><time>2026-04-07T08:34:05.999Z</time></trkpt><trkpt lat="44.082401846369216" lon="11.281296972740876"><ele>825.0</ele><time>2026-04-07T08:34:06.999Z</time></trkpt><trkpt lat="44.08240727434381" lon="11.281491689536038"><ele>825.0</ele><time>2026-04-07T08:34:07.999Z</time></trkpt><trkpt lat="44.082420295755334" lon="11.281706581575154"><ele>825.0</ele><time>2026-04-07T08:34:08.999Z</time></trkpt><trkpt lat="44.08240013717565" lon="11.281951897890128"><ele>823.6666666666667</ele><time>2026-04-07T08:34:09.999Z</time></trkpt><trkpt lat="44.082397325784925" lon="11.282205547510278"><ele>822.3333333333334</ele><time>2026-04-07T08:34:10.999Z</time></trkpt><trkpt lat="44.082432922617194" lon="11.282448799403966"><ele>821.0</ele><time>2026-04-07T08:34:11.999Z</time></trkpt><trkpt lat="44.082506458830785" lon="11.282675807625305"><ele>821.0</ele><time>2026-04-07T08:34:13Z</time></trkpt><trkpt lat="44.082617404949914" lon="11.282908099296028"><ele>821.0</ele><time>2026-04-07T08:34:14Z</time></trkpt><trkpt lat="44.08272939573483" lon="11.283129072943963"><ele>821.0</ele><time>2026-04-07T08:34:15Z</time></trkpt><trkpt lat="44.08281254589808" lon="11.283298672686074"><ele>821.0</ele><time>2026-04-07T08:34:16Z</time></trkpt><trkpt lat="44.08286916993006" lon="11.28341368731911"><ele>821.0</ele><time>2026-04-07T08:34:17Z</time></trkpt><trkpt lat="44.08292715630817" lon="11.283453708301863"><ele>821.0</ele><time>2026-04-07T08:34:18Z</time></trkpt><trkpt lat="44.08303035693626" lon="11.283324609416114"><ele>821.0</ele><time>2026-04-07T08:34:20Z</time></trkpt><trkpt lat="44.08303435759745" lon="11.28319448243952"><ele>821.0</ele><time>2026-04-07T08:34:21Z</time></trkpt><trkpt lat="44.08299342092878" lon="11.28304506313641"><ele>821.0</ele><time>2026-04-07T08:34:22Z</time></trkpt><trkpt lat="44.08292364936612" lon="11.2828799385801"><ele>821.0</ele><time>2026-04-07T08:34:23Z</time></trkpt><trkpt lat="44.082864964846685" lon="11.282676544993254"><ele>821.0</ele><time>2026-04-07T08:34:24Z</time></trkpt><trkpt lat="44.08280976486674" lon="11.282444776535014"><ele>820.75</ele><time>2026-04-07T08:34:25Z</time></trkpt><trkpt lat="44.08278661539346" lon="11.282187494335902"><ele>820.5</ele><time>2026-04-07T08:34:26Z</time></trkpt><trkpt lat="44.082771352781705" lon="11.281977993145555"><ele>820.25</ele><time>2026-04-07T08:34:27Z</time></trkpt><trkpt lat="44.082767080497966" lon="11.281840636637304"><ele>820.0</ele><time>2026-04-07T08:34:28Z</time></trkpt><trkpt lat="44.082796587027524" lon="11.281756181405541"><ele>820.0</ele><time>2026-04-07T08:34:29Z</time></trkpt><trkpt lat="44.082856159213215" lon="11.281671105216569"><ele>820.0</ele><time>2026-04-07T08:34:30Z</time></trkpt><trkpt lat="44.08298975010101" lon="11.281663355997292"><ele>820.0</ele><time>2026-04-07T08:34:31Z</time></trkpt><trkpt lat="44.083095707676016" lon="11.281586048149483"><ele>820.0</ele><time>2026-04-07T08:34:32Z</time></trkpt><trkpt lat="44.083143433281855" lon="11.281415652316708"><ele>819.8</ele><time>2026-04-07T08:34:33Z</time></trkpt><trkpt lat="44.08316900826241" lon="11.281235720367036"><ele>819.6</ele><time>2026-04-07T08:34:34Z</time></trkpt><trkpt lat="44.083214698555196" lon="11.281120293170213"><ele>819.4000000000001</ele><time>2026-04-07T08:34:35Z</time></trkpt><trkpt lat="44.08327237375361" lon="11.281060810974218"><ele>819.2</ele><time>2026-04-07T08:34:36Z</time></trkpt><trkpt lat="44.08338097468266" lon="11.281085570794472"><ele>819.0</ele><time>2026-04-07T08:34:37Z</time></trkpt><trkpt lat="44.0834865662968" lon="11.281190292703515"><ele>823.3333333333333</ele><time>2026-04-07T08:34:38Z</time></trkpt><trkpt lat="44.08362763708781" lon="11.281253106582664"><ele>827.6666666666666</ele><time>2026-04-07T08:34:39Z</time></trkpt><trkpt lat="44.08378351065008" lon="11.281330163183648"><ele>832.0</ele><time>2026-04-07T08:34:40Z</time></trkpt><trkpt lat="44.08395733241872" lon="11.281415110543906"><ele>837.75</ele><time>2026-04-07T08:34:41Z</time></trkpt><trkpt lat="44.08410144455216" lon="11.281561545276245"><ele>843.5</ele><time>2026-04-07T08:34:42Z</time></trkpt><trkpt lat="44.08420048029005" lon="11.281717485956065"><ele>849.25</ele><time>2026-04-07T08:34:43Z</time></trkpt><trkpt lat="44.084292965206075" lon="11.28181105363243"><ele>855.0</ele><time>2026-04-07T08:34:44Z</time></trkpt><trkpt lat="44.08437062772113" lon="11.28185436787013"><ele>855.0</ele><time>2026-04-07T08:34:45Z</time></trkpt><trkpt lat="44.0844499659938" lon="11.28181381946766"><ele>855.0</ele><time>2026-04-07T08:34:46Z</time></trkpt><trkpt lat="44.08451616184097" lon="11.281710957947697"><ele>855.0</ele><time>2026-04-07T08:34:47Z</time></trkpt><trkpt lat="44.08453568311021" lon="11.281564266919071"><ele>855.0</ele><time>2026-04-07T08:34:48Z</time></trkpt><trkpt lat="44.0845224513902" lon="11.28141368623384"><ele>855.0</ele><time>2026-04-07T08:34:49Z</time></trkpt><trkpt lat="44.08455163938476" lon="11.281277158399293"><ele>853.75</ele><time>2026-04-07T08:34:50Z</time></trkpt><trkpt lat="44.084654573516914" lon="11.281181805437631"><ele>852.5</ele><time>2026-04-07T08:34:51Z</time></trkpt><trkpt lat="44.08481128060437" lon="11.2811647421689"><ele>851.25</ele><time>2026-04-07T08:34:52Z</time></trkpt><trkpt lat="44.08492404749006" lon="11.281089081092336"><ele>850.0</ele><time>2026-04-07T08:34:53Z</time></trkpt><trkpt lat="44.08501150155945" lon="11.281115141789654"><ele>850.0</ele><time>2026-04-07T08:34:54Z</time></trkpt><trkpt lat="44.08507622135785" lon="11.281222815751065"><ele>850.0</ele><time>2026-04-07T08:34:55Z</time></trkpt><trkpt lat="44.085098094178534" lon="11.281390606896771"><ele>850.0</ele><time>2026-04-07T08:34:56Z</time></trkpt><trkpt lat="44.08517856710373" lon="11.28148819963426"><ele>850.0</ele><time>2026-04-07T08:34:57Z</time></trkpt><trkpt lat="44.085289193449235" lon="11.28155166159984"><ele>855.6666666666666</ele><time>2026-04-07T08:34:58Z</time></trkpt><trkpt lat="44.08543991947216" lon="11.281562533782147"><ele>861.3333333333333</ele><time>2026-04-07T08:34:59Z</time></trkpt><trkpt lat="44.08560270471201" lon="11.281633376298696"><ele>867.0</ele><time>2026-04-07T08:35:00Z</time></trkpt><trkpt lat="44.08577072823425" lon="11.281719412569727"><ele>868.5</ele><time>2026-04-07T08:35:01Z</time></trkpt><trkpt lat="44.085888018021954" lon="11.2818510483967"><ele>870.0</ele><time>2026-04-07T08:35:02Z</time></trkpt><trkpt lat="44.085974612287714" lon="11.281990174256642"><ele>871.5</ele><time>2026-04-07T08:35:03Z</time></trkpt><trkpt lat="44.08605596992923" lon="11.282076171615994"><ele>873.0</ele><time>2026-04-07T08:35:04Z</time></trkpt><trkpt lat="44.08611680811303" lon="11.282130696215264"><ele>873.0</ele><time>2026-04-07T08:35:05Z</time></trkpt><trkpt lat="44.08620621387405" lon="11.282092605337652"><ele>873.0</ele><time>2026-04-07T08:35:06Z</time></trkpt><trkpt lat="44.086256264240205" lon="11.281937405402578"><ele>873.0</ele><time>2026-04-07T08:35:07Z</time></trkpt><trkpt lat="44.08627391104957" lon="11.281775116237865"><ele>873.0</ele><time>2026-04-07T08:35:08Z</time></trkpt><trkpt lat="44.086298730632436" lon="11.28163271891818"><ele>873.0</ele><time>2026-04-07T08:35:09Z</time></trkpt><trkpt lat="44.086350361222586" lon="11.281544684333618"><ele>873.0</ele><time>2026-04-07T08:35:10Z</time></trkpt><trkpt lat="44.08642809972576" lon="11.281513728841686"><ele>873.0</ele><time>2026-04-07T08:35:11Z</time></trkpt><trkpt lat="44.08651121483425" lon="11.281579492419677"><ele>873.0</ele><time>2026-04-07T08:35:12Z</time></trkpt><trkpt lat="44.086542725476235" lon="11.281725644039991"><ele>873.0</ele><time>2026-04-07T08:35:13Z</time></trkpt><trkpt lat="44.08661810964471" lon="11.281822134473746"><ele>873.0</ele><time>2026-04-07T08:35:14Z</time></trkpt><trkpt lat="44.086718340848556" lon="11.281878535041889"><ele>875.25</ele><time>2026-04-07T08:35:15Z</time></trkpt><trkpt lat="44.086837109655804" lon="11.281839105101382"><ele>877.5</ele><time>2026-04-07T08:35:16Z</time></trkpt><trkpt lat="44.086913186924185" lon="11.281691674182882"><ele>879.75</ele><time>2026-04-07T08:35:17Z</time></trkpt><trkpt lat="44.086951002337585" lon="11.281524633428251"><ele>882.0</ele><time>2026-04-07T08:35:18Z</time></trkpt><trkpt lat="44.086941697808456" lon="11.281332348086067"><ele>882.0</ele><time>2026-04-07T08:35:19Z</time></trkpt><trkpt lat="44.08690526230927" lon="11.281130374772294"><ele>882.0</ele><time>2026-04-07T08:35:20Z</time></trkpt><trkpt lat="44.0869409675603" lon="11.280956367196163"><ele>882.0</ele><time>2026-04-07T08:35:21Z</time></trkpt><trkpt lat="44.08700952327488" lon="11.280831158143469"><ele>882.0</ele><time>2026-04-07T08:35:22Z</time></trkpt><trkpt lat="44.0871115748149" lon="11.280700677910605"><ele>880.4000000000001</ele><time>2026-04-07T08:35:23Z</time></trkpt><trkpt lat="44.08723051850194" lon="11.280567573128504"><ele>878.8000000000001</ele><time>2026-04-07T08:35:24Z</time></trkpt><trkpt lat="44.08732906107254" lon="11.28050106862525"><ele>877.2</ele><time>2026-04-07T08:35:25Z</time></trkpt><trkpt lat="44.087405705643114" lon="11.280503042470986"><ele>875.6</ele><time>2026-04-07T08:35:26Z</time></trkpt><trkpt lat="44.08749175591176" lon="11.280583281612447"><ele>874.0</ele><time>2026-04-07T08:35:27Z</time></trkpt><trkpt lat="44.08759399246279" lon="11.280693847029005"><ele>880.6666666666666</ele><time>2026-04-07T08:35:28Z</time></trkpt><trkpt lat="44.08772213092684" lon="11.280832603770607"><ele>887.3333333333333</ele><time>2026-04-07T08:35:29Z</time></trkpt><trkpt lat="44.08784945677933" lon="11.281023802045995"><ele>894.0</ele><time>2026-04-07T08:35:30Z</time></trkpt><trkpt lat="44.08796538326831" lon="11.2812115914914"><ele>894.0</ele><time>2026-04-07T08:35:31Z</time></trkpt><trkpt lat="44.08808640931353" lon="11.281353983320004"><ele>894.0</ele><time>2026-04-07T08:35:32Z</time></trkpt><trkpt lat="44.088214591947605" lon="11.281406799939381"><ele>894.0</ele><time>2026-04-07T08:35:33Z</time></trkpt><trkpt lat="44.088353916342065" lon="11.281385944936343"><ele>894.0</ele><time>2026-04-07T08:35:34Z</time></trkpt><trkpt lat="44.08849912467292" lon="11.281373894976378"><ele>895.75</ele><time>2026-04-07T08:35:35Z</time></trkpt><trkpt lat="44.088628543708346" lon="11.281379794965657"><ele>897.5</ele><time>2026-04-07T08:35:36Z</time></trkpt><trkpt lat="44.08874691029441" lon="11.281396427595743"><ele>899.25</ele><time>2026-04-07T08:35:37Z</time></trkpt><trkpt lat="44.08886688416842" lon="11.281405380049934"><ele>901.0</ele><time>2026-04-07T08:35:38Z</time></trkpt><trkpt lat="44.088986350344605" lon="11.281442471361732"><ele>902.0</ele><time>2026-04-07T08:35:39Z</time></trkpt><trkpt lat="44.08913432426871" lon="11.281480277836067"><ele>903.0</ele><time>2026-04-07T08:35:40Z</time></trkpt><trkpt lat="44.08931826125278" lon="11.281467631205091"><ele>904.0</ele><time>2026-04-07T08:35:41Z</time></trkpt><trkpt lat="44.08951302882427" lon="11.28135805592923"><ele>900.6666666666666</ele><time>2026-04-07T08:35:42Z</time></trkpt><trkpt lat="44.089718426066085" lon="11.281254028614379"><ele>897.3333333333333</ele><time>2026-04-07T08:35:43Z</time></trkpt><trkpt lat="44.089908840638756" lon="11.281175232069646"><ele>894.0</ele><time>2026-04-07T08:35:44Z</time></trkpt><trkpt lat="44.090074004702835" lon="11.281130377992609"><ele>894.0</ele><time>2026-04-07T08:35:45Z</time></trkpt><trkpt lat="44.090223539590724" lon="11.281132198888104"><ele>894.0</ele><time>2026-04-07T08:35:46Z</time></trkpt><trkpt lat="44.09037266966922" lon="11.281169017549677"><ele>894.0</ele><time>2026-04-07T08:35:47Z</time></trkpt><trkpt lat="44.090522174833865" lon="11.281182354368603"><ele>894.0</ele><time>2026-04-07T08:35:48Z</time></trkpt><trkpt lat="44.09064921818392" lon="11.281185188084423"><ele>894.0</ele><time>2026-04-07T08:35:49Z</time></trkpt><trkpt lat="44.09077642226671" lon="11.28109721190723"><ele>894.0</ele><time>2026-04-07T08:35:50Z</time></trkpt><trkpt lat="44.09090595305757" lon="11.280942796737627"><ele>894.0</ele><time>2026-04-07T08:35:51Z</time></trkpt><trkpt lat="44.091054413202734" lon="11.280783192861271"><ele>894.6666666666667</ele><time>2026-04-07T08:35:52Z</time></trkpt><trkpt lat="44.0912200163446" lon="11.280623768943887"><ele>895.3333333333334</ele><time>2026-04-07T08:35:53Z</time></trkpt><trkpt lat="44.0914200091967" lon="11.280497590737395"><ele>896.0</ele><time>2026-04-07T08:35:54Z</time></trkpt><trkpt lat="44.09162442100204" lon="11.280380470112947"><ele>892.6666666666667</ele><time>2026-04-07T08:35:55Z</time></trkpt><trkpt lat="44.09182531255226" lon="11.28026316751689"><ele>889.3333333333333</ele><time>2026-04-07T08:35:56Z</time></trkpt><trkpt lat="44.09199937406838" lon="11.280145011411904"><ele>886.0</ele><time>2026-04-07T08:35:57Z</time></trkpt><trkpt lat="44.09215419518443" lon="11.28005071948219"><ele>886.0</ele><time>2026-04-07T08:35:57.999Z</time></trkpt><trkpt lat="44.0922858169617" lon="11.279928798398362"><ele>886.0</ele><time>2026-04-07T08:35:58.999Z</time></trkpt><trkpt lat="44.09238126528768" lon="11.279749109082633"><ele>886.0</ele><time>2026-04-07T08:35:59.999Z</time></trkpt><trkpt lat="44.092448799215894" lon="11.279521981456158"><ele>887.6666666666666</ele><time>2026-04-07T08:36:00.999Z</time></trkpt><trkpt lat="44.092520423417746" lon="11.279280999206147"><ele>889.3333333333333</ele><time>2026-04-07T08:36:01.999Z</time></trkpt><trkpt lat="44.09257483644191" lon="11.279017315040457"><ele>891.0</ele><time>2026-04-07T08:36:02.999Z</time></trkpt><trkpt lat="44.092616618969316" lon="11.278818113834735"><ele>891.0</ele><time>2026-04-07T08:36:03.999Z</time></trkpt><trkpt lat="44.09267680220775" lon="11.278667290534619"><ele>891.0</ele><time>2026-04-07T08:36:04.999Z</time></trkpt><trkpt lat="44.09275069962204" lon="11.27851003288083"><ele>891.0</ele><time>2026-04-07T08:36:05.999Z</time></trkpt><trkpt lat="44.09288036602349" lon="11.278427806654918"><ele>891.0</ele><time>2026-04-07T08:36:06.999Z</time></trkpt><trkpt lat="44.093020842708064" lon="11.278401354140502"><ele>891.0</ele><time>2026-04-07T08:36:07.999Z</time></trkpt><trkpt lat="44.09317299428588" lon="11.278355339898543"><ele>891.0</ele><time>2026-04-07T08:36:08.999Z</time></trkpt><trkpt lat="44.093334860137" lon="11.278317125432723"><ele>891.0</ele><time>2026-04-07T08:36:09.999Z</time></trkpt><trkpt lat="44.09349882168652" lon="11.278202743670862"><ele>893.0</ele><time>2026-04-07T08:36:10.999Z</time></trkpt><trkpt lat="44.093642841482385" lon="11.278029071262136"><ele>895.0</ele><time>2026-04-07T08:36:11.999Z</time></trkpt><trkpt lat="44.09376652969478" lon="11.277813547261495"><ele>897.0</ele><time>2026-04-07T08:36:12.999Z</time></trkpt><trkpt lat="44.09387546048835" lon="11.277567614627156"><ele>897.0</ele><time>2026-04-07T08:36:13.999Z</time></trkpt><trkpt lat="44.09396631540179" lon="11.277343325613566"><ele>897.0</ele><time>2026-04-07T08:36:14.999Z</time></trkpt><trkpt lat="44.094040789790874" lon="11.277152672360032"><ele>897.0</ele><time>2026-04-07T08:36:15.999Z</time></trkpt><trkpt lat="44.0941150253424" lon="11.27699940955298"><ele>898.75</ele><time>2026-04-07T08:36:16.999Z</time></trkpt><trkpt lat="44.094135193707565" lon="11.276835389040064"><ele>900.5</ele><time>2026-04-07T08:36:17.999Z</time></trkpt><trkpt lat="44.094179369191835" lon="11.276669402514994"><ele>902.25</ele><time>2026-04-07T08:36:19Z</time></trkpt><trkpt lat="44.09425370275041" lon="11.276504932511601"><ele>904.0</ele><time>2026-04-07T08:36:20Z</time></trkpt><trkpt lat="44.09444616599982" lon="11.27613885164251"><ele>904.0</ele><time>2026-04-07T08:36:22Z</time></trkpt><trkpt lat="44.09454716530573" lon="11.275937263432724"><ele>904.0</ele><time>2026-04-07T08:36:23Z</time></trkpt><trkpt lat="44.094660509292126" lon="11.275728000976773"><ele>904.0</ele><time>2026-04-07T08:36:24Z</time></trkpt><trkpt lat="44.09477876975203" lon="11.27556365538971"><ele>904.25</ele><time>2026-04-07T08:36:25Z</time></trkpt><trkpt lat="44.09491721881393" lon="11.275471579547428"><ele>904.5</ele><time>2026-04-07T08:36:26Z</time></trkpt><trkpt lat="44.09504178062867" lon="11.275382299813094"><ele>904.75</ele><time>2026-04-07T08:36:27Z</time></trkpt><trkpt lat="44.095171759395285" lon="11.275346373470251"><ele>905.0</ele><time>2026-04-07T08:36:28Z</time></trkpt><trkpt lat="44.09530470579255" lon="11.27533337790977"><ele>907.5</ele><time>2026-04-07T08:36:29Z</time></trkpt><trkpt lat="44.09544779442792" lon="11.275337939858005"><ele>910.0</ele><time>2026-04-07T08:36:30Z</time></trkpt><trkpt lat="44.095594596893804" lon="11.275351112207874"><ele>912.5</ele><time>2026-04-07T08:36:31Z</time></trkpt><trkpt lat="44.09574379934998" lon="11.275370840358152"><ele>915.0</ele><time>2026-04-07T08:36:32Z</time></trkpt><trkpt lat="44.09589604129574" lon="11.275377948106595"><ele>916.3333333333333</ele><time>2026-04-07T08:36:33Z</time></trkpt><trkpt lat="44.09606242132536" lon="11.27534856459055"><ele>917.6666666666666</ele><time>2026-04-07T08:36:34Z</time></trkpt><trkpt lat="44.096242056355756" lon="11.275294234531366"><ele>919.0</ele><time>2026-04-07T08:36:35Z</time></trkpt><trkpt lat="44.09643944455127" lon="11.275237101172173"><ele>919.6666666666666</ele><time>2026-04-07T08:36:36Z</time></trkpt><trkpt lat="44.09663206045534" lon="11.275175620776995"><ele>920.3333333333333</ele><time>2026-04-07T08:36:37Z</time></trkpt><trkpt lat="44.09680041536577" lon="11.275107594473704"><ele>921.0</ele><time>2026-04-07T08:36:38Z</time></trkpt><trkpt lat="44.09695132610447" lon="11.275026854780387"><ele>921.0</ele><time>2026-04-07T08:36:39Z</time></trkpt><trkpt lat="44.09711988311448" lon="11.27499405051513"><ele>921.0</ele><time>2026-04-07T08:36:40Z</time></trkpt><trkpt lat="44.09731091739488" lon="11.274999140337846"><ele>921.0</ele><time>2026-04-07T08:36:41Z</time></trkpt><trkpt lat="44.0975378028834" lon="11.275019181543794"><ele>917.5</ele><time>2026-04-07T08:36:42Z</time></trkpt><trkpt lat="44.09776496552597" lon="11.2750918136892"><ele>914.0</ele><time>2026-04-07T08:36:43Z</time></trkpt><trkpt lat="44.097992689838115" lon="11.275174406333573"><ele>914.0</ele><time>2026-04-07T08:36:44Z</time></trkpt><trkpt lat="44.09819108114944" lon="11.275255445464698"><ele>914.0</ele><time>2026-04-07T08:36:45Z</time></trkpt><trkpt lat="44.09834998962715" lon="11.275317572191163"><ele>914.0</ele><time>2026-04-07T08:36:46Z</time></trkpt><trkpt lat="44.09847543656038" lon="11.2753360360624"><ele>913.5</ele><time>2026-04-07T08:36:47Z</time></trkpt><trkpt lat="44.09859784396987" lon="11.275303461447594"><ele>913.0</ele><time>2026-04-07T08:36:48Z</time></trkpt><trkpt lat="44.09873232755744" lon="11.275215791875072"><ele>912.5</ele><time>2026-04-07T08:36:49Z</time></trkpt><trkpt lat="44.09887214752867" lon="11.27511520460264"><ele>912.0</ele><time>2026-04-07T08:36:50Z</time></trkpt><trkpt lat="44.09904058493833" lon="11.275091039304067"><ele>909.3333333333333</ele><time>2026-04-07T08:36:51Z</time></trkpt><trkpt lat="44.099252620583265" lon="11.275107672915693"><ele>906.6666666666666</ele><time>2026-04-07T08:36:52Z</time></trkpt><trkpt lat="44.09946900148088" lon="11.275120071524727"><ele>904.0</ele><time>2026-04-07T08:36:53Z</time></trkpt><trkpt lat="44.09965464947857" lon="11.275112019311958"><ele>904.0</ele><time>2026-04-07T08:36:54Z</time></trkpt><trkpt lat="44.099812411384356" lon="11.27507807658601"><ele>904.0</ele><time>2026-04-07T08:36:55Z</time></trkpt><trkpt lat="44.099962551986735" lon="11.275070454216866"><ele>904.0</ele><time>2026-04-07T08:36:56Z</time></trkpt><trkpt lat="44.100112957970715" lon="11.27511609541421"><ele>902.6666666666666</ele><time>2026-04-07T08:36:57Z</time></trkpt><trkpt lat="44.10024337904431" lon="11.27523970044082"><ele>901.3333333333333</ele><time>2026-04-07T08:36:58Z</time></trkpt><trkpt lat="44.100372095866945" lon="11.275413852856389"><ele>900.0</ele><time>2026-04-07T08:36:59Z</time></trkpt><trkpt lat="44.10051396717737" lon="11.275612120769027"><ele>898.3333333333333</ele><time>2026-04-07T08:37:00Z</time></trkpt><trkpt lat="44.10064124292244" lon="11.275821208220721"><ele>896.6666666666666</ele><time>2026-04-07T08:37:01Z</time></trkpt><trkpt lat="44.10076915505928" lon="11.275966401855895"><ele>895.0</ele><time>2026-04-07T08:37:02Z</time></trkpt><trkpt lat="44.100895547269" lon="11.276049503395427"><ele>895.0</ele><time>2026-04-07T08:37:03Z</time></trkpt><trkpt lat="44.101021235994224" lon="11.276096165218902"><ele>895.0</ele><time>2026-04-07T08:37:04Z</time></trkpt><trkpt lat="44.10115612636592" lon="11.276116770933305"><ele>895.0</ele><time>2026-04-07T08:37:05Z</time></trkpt><trkpt lat="44.10129743824156" lon="11.276085640136229"><ele>895.0</ele><time>2026-04-07T08:37:06Z</time></trkpt><trkpt lat="44.101462174356215" lon="11.276018630671139"><ele>895.5</ele><time>2026-04-07T08:37:07Z</time></trkpt><trkpt lat="44.10158965250297" lon="11.275957205118281"><ele>896.0</ele><time>2026-04-07T08:37:08Z</time></trkpt><trkpt lat="44.10170625448419" lon="11.275981312153538"><ele>896.5</ele><time>2026-04-07T08:37:09Z</time></trkpt><trkpt lat="44.10181733057295" lon="11.276099265969826"><ele>897.0</ele><time>2026-04-07T08:37:10Z</time></trkpt><trkpt lat="44.10192796924804" lon="11.276227937814436"><ele>897.0</ele><time>2026-04-07T08:37:11Z</time></trkpt><trkpt lat="44.10201965097548" lon="11.276416244620869"><ele>897.0</ele><time>2026-04-07T08:37:12Z</time></trkpt><trkpt lat="44.1020967105981" lon="11.276625796002634"><ele>897.0</ele><time>2026-04-07T08:37:13Z</time></trkpt><trkpt lat="44.10216783624778" lon="11.276862315776492"><ele>893.6666666666667</ele><time>2026-04-07T08:37:14Z</time></trkpt><trkpt lat="44.10222563966934" lon="11.277145795690501"><ele>890.3333333333334</ele><time>2026-04-07T08:37:15Z</time></trkpt><trkpt lat="44.10224617793039" lon="11.277446568474794"><ele>887.0</ele><time>2026-04-07T08:37:16Z</time></trkpt><trkpt lat="44.1022444930659" lon="11.277704349721391"><ele>886.0</ele><time>2026-04-07T08:37:17Z</time></trkpt><trkpt lat="44.10226085494016" lon="11.277891250785718"><ele>885.0</ele><time>2026-04-07T08:37:18Z</time></trkpt><trkpt lat="44.10232681242573" lon="11.278056463698292"><ele>884.0</ele><time>2026-04-07T08:37:19Z</time></trkpt><trkpt lat="44.102440177833856" lon="11.278200762671604"><ele>883.0</ele><time>2026-04-07T08:37:20Z</time></trkpt><trkpt lat="44.10258853772105" lon="11.278328567709707"><ele>883.0</ele><time>2026-04-07T08:37:21Z</time></trkpt><trkpt lat="44.102757420390354" lon="11.27846664753055"><ele>883.0</ele><time>2026-04-07T08:37:22Z</time></trkpt><trkpt lat="44.102929763404326" lon="11.278624643918118"><ele>883.0</ele><time>2026-04-07T08:37:23Z</time></trkpt><trkpt lat="44.103107850096364" lon="11.27881428326049"><ele>882.5</ele><time>2026-04-07T08:37:24Z</time></trkpt><trkpt lat="44.103293158064055" lon="11.279039478377468"><ele>882.0</ele><time>2026-04-07T08:37:25Z</time></trkpt><trkpt lat="44.10345905420342" lon="11.27932021864989"><ele>882.0</ele><time>2026-04-07T08:37:26Z</time></trkpt><trkpt lat="44.10361545945424" lon="11.279598282129202"><ele>882.0</ele><time>2026-04-07T08:37:27Z</time></trkpt><trkpt lat="44.10378631258302" lon="11.279828891044641"><ele>883.0</ele><time>2026-04-07T08:37:28Z</time></trkpt><trkpt lat="44.10395159005559" lon="11.280059345681707"><ele>884.0</ele><time>2026-04-07T08:37:29Z</time></trkpt><trkpt lat="44.1041382928231" lon="11.280293354466245"><ele>884.0</ele><time>2026-04-07T08:37:30Z</time></trkpt><trkpt lat="44.10431726876898" lon="11.280517917563513"><ele>884.0</ele><time>2026-04-07T08:37:31Z</time></trkpt><trkpt lat="44.10449046525965" lon="11.28073746259196"><ele>885.6666666666667</ele><time>2026-04-07T08:37:32Z</time></trkpt><trkpt lat="44.104654147850646" lon="11.280947515503684"><ele>887.3333333333333</ele><time>2026-04-07T08:37:33Z</time></trkpt><trkpt lat="44.10480689735854" lon="11.281141111054776"><ele>889.0</ele><time>2026-04-07T08:37:34Z</time></trkpt><trkpt lat="44.104949735395046" lon="11.28132283706942"><ele>886.0</ele><time>2026-04-07T08:37:35Z</time></trkpt><trkpt lat="44.10508840656676" lon="11.281512215587327"><ele>883.0</ele><time>2026-04-07T08:37:36Z</time></trkpt><trkpt lat="44.10522581033865" lon="11.281716598293741"><ele>880.0</ele><time>2026-04-07T08:37:36.999Z</time></trkpt><trkpt lat="44.105366640983576" lon="11.281926896622375"><ele>880.0</ele><time>2026-04-07T08:37:37.999Z</time></trkpt><trkpt lat="44.105505647883156" lon="11.282136480243263"><ele>880.0</ele><time>2026-04-07T08:37:38.999Z</time></trkpt><trkpt lat="44.10565189146083" lon="11.282347411749798"><ele>880.0</ele><time>2026-04-07T08:37:39.999Z</time></trkpt><trkpt lat="44.105797101841986" lon="11.282563175987791"><ele>879.6666666666666</ele><time>2026-04-07T08:37:40.999Z</time></trkpt><trkpt lat="44.10593402164846" lon="11.282777121926316"><ele>879.3333333333333</ele><time>2026-04-07T08:37:41.999Z</time></trkpt><trkpt lat="44.106050087102815" lon="11.282977599574028"><ele>879.0</ele><time>2026-04-07T08:37:42.999Z</time></trkpt><trkpt lat="44.10615256915516" lon="11.28316611021667"><ele>875.6666666666667</ele><time>2026-04-07T08:37:43.999Z</time></trkpt><trkpt lat="44.10624928600974" lon="11.283334873236912"><ele>872.3333333333334</ele><time>2026-04-07T08:37:44.999Z</time></trkpt><trkpt lat="44.106351290058896" lon="11.2834825549155"><ele>869.0</ele><time>2026-04-07T08:37:45.999Z</time></trkpt><trkpt lat="44.106474891897946" lon="11.28361476077588"><ele>871.0</ele><time>2026-04-07T08:37:46.999Z</time></trkpt><trkpt lat="44.1066101792715" lon="11.283722763641094"><ele>873.0</ele><time>2026-04-07T08:37:47.999Z</time></trkpt><trkpt lat="44.10675978774927" lon="11.283800600539053"><ele>875.0</ele><time>2026-04-07T08:37:48.999Z</time></trkpt><trkpt lat="44.10691546004621" lon="11.283837976885716"><ele>875.0</ele><time>2026-04-07T08:37:49.999Z</time></trkpt><trkpt lat="44.107071453926665" lon="11.283848077845764"><ele>875.0</ele><time>2026-04-07T08:37:50.999Z</time></trkpt><trkpt lat="44.1072166732485" lon="11.28383955268553"><ele>875.0</ele><time>2026-04-07T08:37:51.999Z</time></trkpt><trkpt lat="44.10735849984213" lon="11.283828602528978"><ele>875.0</ele><time>2026-04-07T08:37:52.999Z</time></trkpt><trkpt lat="44.10750380029857" lon="11.283822593824027"><ele>875.0</ele><time>2026-04-07T08:37:53.999Z</time></trkpt><trkpt lat="44.107642777541884" lon="11.283817647583403"><ele>875.0</ele><time>2026-04-07T08:37:54.999Z</time></trkpt><trkpt lat="44.1077972267387" lon="11.283812926796388"><ele>875.0</ele><time>2026-04-07T08:37:55.999Z</time></trkpt><trkpt lat="44.107946057325506" lon="11.283786243932767"><ele>875.0</ele><time>2026-04-07T08:37:56.999Z</time></trkpt><trkpt lat="44.10810651570799" lon="11.283773281262159"><ele>871.3333333333334</ele><time>2026-04-07T08:37:57.999Z</time></trkpt><trkpt lat="44.108260574110886" lon="11.28370713912616"><ele>867.6666666666667</ele><time>2026-04-07T08:37:58.999Z</time></trkpt><trkpt lat="44.10839770823362" lon="11.283627860676566"><ele>864.0</ele><time>2026-04-07T08:37:59.999Z</time></trkpt><trkpt lat="44.10852674809576" lon="11.283541182366564"><ele>864.0</ele><time>2026-04-07T08:38:00.999Z</time></trkpt><trkpt lat="44.10866034456038" lon="11.283499501798184"><ele>864.0</ele><time>2026-04-07T08:38:01.999Z</time></trkpt><trkpt lat="44.10878861168887" lon="11.283481485677134"><ele>864.0</ele><time>2026-04-07T08:38:02.999Z</time></trkpt><trkpt lat="44.108917787989974" lon="11.283480928928256"><ele>864.0</ele><time>2026-04-07T08:38:03.999Z</time></trkpt><trkpt lat="44.109051684008605" lon="11.283498199036245"><ele>863.0</ele><time>2026-04-07T08:38:04.999Z</time></trkpt><trkpt lat="44.10917936698935" lon="11.283529868071692"><ele>862.0</ele><time>2026-04-07T08:38:05.999Z</time></trkpt><trkpt lat="44.109307948819406" lon="11.283561229872843"><ele>861.0</ele><time>2026-04-07T08:38:06.999Z</time></trkpt><trkpt lat="44.10943729037581" lon="11.283592263375777"><ele>860.0</ele><time>2026-04-07T08:38:07.999Z</time></trkpt><trkpt lat="44.109567993962166" lon="11.2836315355005"><ele>860.0</ele><time>2026-04-07T08:38:08.999Z</time></trkpt><trkpt lat="44.10970113785077" lon="11.283685827912599"><ele>860.0</ele><time>2026-04-07T08:38:09.999Z</time></trkpt><trkpt lat="44.10983523832002" lon="11.28376645502506"><ele>860.0</ele><time>2026-04-07T08:38:10.999Z</time></trkpt><trkpt lat="44.10996509048521" lon="11.283866065994285"><ele>860.0</ele><time>2026-04-07T08:38:11.999Z</time></trkpt><trkpt lat="44.11008981154425" lon="11.28396828040995"><ele>857.75</ele><time>2026-04-07T08:38:12.999Z</time></trkpt><trkpt lat="44.110210556784814" lon="11.284064916436625"><ele>855.5</ele><time>2026-04-07T08:38:13.999Z</time></trkpt><trkpt lat="44.110336577349926" lon="11.284164681958762"><ele>853.25</ele><time>2026-04-07T08:38:14.999Z</time></trkpt><trkpt lat="44.110470458299226" lon="11.284267124604346"><ele>851.0</ele><time>2026-04-07T08:38:15.999Z</time></trkpt><trkpt lat="44.110621036512946" lon="11.284380478653265"><ele>851.6666666666667</ele><time>2026-04-07T08:38:16.999Z</time></trkpt><trkpt lat="44.11076764242746" lon="11.284492748337943"><ele>852.3333333333333</ele><time>2026-04-07T08:38:17.999Z</time></trkpt><trkpt lat="44.11089970828743" lon="11.284606624544917"><ele>853.0</ele><time>2026-04-07T08:38:18.999Z</time></trkpt><trkpt lat="44.11105089570739" lon="11.284719287857124"><ele>850.6666666666666</ele><time>2026-04-07T08:38:19.999Z</time></trkpt><trkpt lat="44.1111787377496" lon="11.284862452433604"><ele>848.3333333333333</ele><time>2026-04-07T08:38:20.999Z</time></trkpt><trkpt lat="44.11130850792683" lon="11.28496470470627"><ele>846.0</ele><time>2026-04-07T08:38:21.999Z</time></trkpt><trkpt lat="44.11145792638884" lon="11.285030845654305"><ele>848.0</ele><time>2026-04-07T08:38:22.999Z</time></trkpt><trkpt lat="44.111618615318456" lon="11.285086900263801"><ele>850.0</ele><time>2026-04-07T08:38:24Z</time></trkpt><trkpt lat="44.111796530962174" lon="11.285108947014946"><ele>852.0</ele><time>2026-04-07T08:38:25Z</time></trkpt><trkpt lat="44.11198127041652" lon="11.285106870895977"><ele>852.0</ele><time>2026-04-07T08:38:26Z</time></trkpt><trkpt lat="44.112160482248996" lon="11.285115308961132"><ele>852.0</ele><time>2026-04-07T08:38:27Z</time></trkpt><trkpt lat="44.1123184811397" lon="11.285133046906088"><ele>852.0</ele><time>2026-04-07T08:38:28Z</time></trkpt><trkpt lat="44.112464760705045" lon="11.285193077284589"><ele>853.0</ele><time>2026-04-07T08:38:29Z</time></trkpt><trkpt lat="44.112618230297684" lon="11.285283552774967"><ele>854.0</ele><time>2026-04-07T08:38:30Z</time></trkpt><trkpt lat="44.112796712194736" lon="11.285411230895306"><ele>855.0</ele><time>2026-04-07T08:38:31Z</time></trkpt><trkpt lat="44.11299472341345" lon="11.285533288071377"><ele>853.6666666666667</ele><time>2026-04-07T08:38:32Z</time></trkpt><trkpt lat="44.11319688522965" lon="11.285674721938042"><ele>852.3333333333334</ele><time>2026-04-07T08:38:33Z</time></trkpt><trkpt lat="44.11339359254689" lon="11.285815609436375"><ele>851.0</ele><time>2026-04-07T08:38:34Z</time></trkpt><trkpt lat="44.11359351576753" lon="11.285961847777484"><ele>851.0</ele><time>2026-04-07T08:38:35Z</time></trkpt><trkpt lat="44.113794793452946" lon="11.286107518704052"><ele>851.0</ele><time>2026-04-07T08:38:36Z</time></trkpt><trkpt lat="44.11400106735215" lon="11.28624601428818"><ele>856.5</ele><time>2026-04-07T08:38:37Z</time></trkpt><trkpt lat="44.11421654475631" lon="11.286347993929327"><ele>862.0</ele><time>2026-04-07T08:38:38Z</time></trkpt><trkpt lat="44.114435931054025" lon="11.2864132277855"><ele>862.0</ele><time>2026-04-07T08:38:39Z</time></trkpt><trkpt lat="44.11464091342517" lon="11.28644526796666"><ele>862.0</ele><time>2026-04-07T08:38:40Z</time></trkpt><trkpt lat="44.11481973826909" lon="11.286514932357804"><ele>862.0</ele><time>2026-04-07T08:38:41Z</time></trkpt><trkpt lat="44.11496505214607" lon="11.286606041390154"><ele>862.0</ele><time>2026-04-07T08:38:42Z</time></trkpt><trkpt lat="44.115106126106305" lon="11.286732997046174"><ele>862.0</ele><time>2026-04-07T08:38:43Z</time></trkpt><trkpt lat="44.11521739976265" lon="11.286901664000558"><ele>862.0</ele><time>2026-04-07T08:38:44Z</time></trkpt><trkpt lat="44.115316452790424" lon="11.287118367950352"><ele>859.6666666666666</ele><time>2026-04-07T08:38:45Z</time></trkpt><trkpt lat="44.11539619900407" lon="11.287367535484446"><ele>857.3333333333333</ele><time>2026-04-07T08:38:46Z</time></trkpt><trkpt lat="44.115471418998816" lon="11.287637225106813"><ele>855.0</ele><time>2026-04-07T08:38:47Z</time></trkpt><trkpt lat="44.115544655683706" lon="11.287863119182175"><ele>855.0</ele><time>2026-04-07T08:38:48Z</time></trkpt><trkpt lat="44.11561304709446" lon="11.28806409162987"><ele>855.0</ele><time>2026-04-07T08:38:49Z</time></trkpt><trkpt lat="44.11571421596498" lon="11.288239133237205"><ele>855.0</ele><time>2026-04-07T08:38:50Z</time></trkpt><trkpt lat="44.115849957661524" lon="11.288371265250827"><ele>857.3333333333333</ele><time>2026-04-07T08:38:51Z</time></trkpt><trkpt lat="44.11600762623732" lon="11.28841210137203"><ele>859.6666666666666</ele><time>2026-04-07T08:38:52Z</time></trkpt><trkpt lat="44.11616054896975" lon="11.288423053216066"><ele>862.0</ele><time>2026-04-07T08:38:53Z</time></trkpt><trkpt lat="44.11629482529704" lon="11.288375648333941"><ele>862.0</ele><time>2026-04-07T08:38:54Z</time></trkpt><trkpt lat="44.11639676879482" lon="11.288272605848684"><ele>862.0</ele><time>2026-04-07T08:38:55Z</time></trkpt><trkpt lat="44.11648314119661" lon="11.288118380827225"><ele>862.0</ele><time>2026-04-07T08:38:56Z</time></trkpt><trkpt lat="44.11654716388579" lon="11.287918456404675"><ele>862.0</ele><time>2026-04-07T08:38:57Z</time></trkpt><trkpt lat="44.11660814712021" lon="11.287696029948506"><ele>863.0</ele><time>2026-04-07T08:38:58Z</time></trkpt><trkpt lat="44.11668285254636" lon="11.287459946498998"><ele>864.0</ele><time>2026-04-07T08:38:59Z</time></trkpt><trkpt lat="44.11676359879645" lon="11.28723411902357"><ele>865.0</ele><time>2026-04-07T08:39:00Z</time></trkpt><trkpt lat="44.11683278784348" lon="11.28703429684958"><ele>868.25</ele><time>2026-04-07T08:39:01Z</time></trkpt><trkpt lat="44.116910333086075" lon="11.286876418415813"><ele>871.5</ele><time>2026-04-07T08:39:02Z</time></trkpt><trkpt lat="44.116994370869044" lon="11.286761113870657"><ele>874.75</ele><time>2026-04-07T08:39:03Z</time></trkpt><trkpt lat="44.117100660233895" lon="11.28668899325686"><ele>878.0</ele><time>2026-04-07T08:39:04Z</time></trkpt><trkpt lat="44.11721911502999" lon="11.286686621551452"><ele>878.0</ele><time>2026-04-07T08:39:05Z</time></trkpt><trkpt lat="44.1173311733305" lon="11.28675385839936"><ele>878.0</ele><time>2026-04-07T08:39:06Z</time></trkpt><trkpt lat="44.11742991066026" lon="11.286878530813791"><ele>878.0</ele><time>2026-04-07T08:39:07Z</time></trkpt><trkpt lat="44.11749632143423" lon="11.287054954401938"><ele>878.0</ele><time>2026-04-07T08:39:08Z</time></trkpt><trkpt lat="44.11753333488985" lon="11.287287230168998"><ele>872.0</ele><time>2026-04-07T08:39:09Z</time></trkpt><trkpt lat="44.117570782976344" lon="11.28754225419544"><ele>866.0</ele><time>2026-04-07T08:39:10Z</time></trkpt><trkpt lat="44.11759412897192" lon="11.287810976436866"><ele>860.0</ele><time>2026-04-07T08:39:11Z</time></trkpt><trkpt lat="44.11764409267672" lon="11.288042334731106"><ele>859.6666666666667</ele><time>2026-04-07T08:39:12Z</time></trkpt><trkpt lat="44.117737208131025" lon="11.288249191252442"><ele>859.3333333333333</ele><time>2026-04-07T08:39:13Z</time></trkpt><trkpt lat="44.117874017305994" lon="11.288420789218124"><ele>859.0</ele><time>2026-04-07T08:39:14Z</time></trkpt><trkpt lat="44.118042792740084" lon="11.288580812201989"><ele>867.0</ele><time>2026-04-07T08:39:15Z</time></trkpt><trkpt lat="44.11823596418348" lon="11.288746791529102"><ele>875.0</ele><time>2026-04-07T08:39:16Z</time></trkpt><trkpt lat="44.11843872089895" lon="11.288911839425943"><ele>873.0</ele><time>2026-04-07T08:39:17Z</time></trkpt><trkpt lat="44.11863374546784" lon="11.289069725770078"><ele>871.0</ele><time>2026-04-07T08:39:18Z</time></trkpt><trkpt lat="44.118806667606044" lon="11.289216678862159"><ele>869.0</ele><time>2026-04-07T08:39:19Z</time></trkpt><trkpt lat="44.118954915565666" lon="11.289347721791891"><ele>869.3333333333334</ele><time>2026-04-07T08:39:20Z</time></trkpt><trkpt lat="44.11906958787021" lon="11.289474425776035"><ele>869.6666666666667</ele><time>2026-04-07T08:39:21Z</time></trkpt><trkpt lat="44.119149836348704" lon="11.289646596929158"><ele>870.0</ele><time>2026-04-07T08:39:22Z</time></trkpt><trkpt lat="44.11916310837385" lon="11.28989056244114"><ele>870.0</ele><time>2026-04-07T08:39:23Z</time></trkpt><trkpt lat="44.11918454861135" lon="11.29018076858414"><ele>870.0</ele><time>2026-04-07T08:39:24Z</time></trkpt><trkpt lat="44.11916853306181" lon="11.290497174340201"><ele>870.0</ele><time>2026-04-07T08:39:25Z</time></trkpt><trkpt lat="44.11916522028135" lon="11.29082876624035"><ele>868.0</ele><time>2026-04-07T08:39:26Z</time></trkpt><trkpt lat="44.11917013276281" lon="11.29115437940323"><ele>866.0</ele><time>2026-04-07T08:39:26.999Z</time></trkpt><trkpt lat="44.11917537464995" lon="11.291453928291965"><ele>864.0</ele><time>2026-04-07T08:39:27.999Z</time></trkpt><trkpt lat="44.11918677942515" lon="11.291730081606735"><ele>863.3333333333333</ele><time>2026-04-07T08:39:28.999Z</time></trkpt><trkpt lat="44.11922333196882" lon="11.291989137339204"><ele>862.6666666666666</ele><time>2026-04-07T08:39:29.999Z</time></trkpt><trkpt lat="44.11929185814375" lon="11.292226013120223"><ele>862.0</ele><time>2026-04-07T08:39:30.999Z</time></trkpt><trkpt lat="44.11939084883174" lon="11.292432364765313"><ele>861.3333333333333</ele><time>2026-04-07T08:39:31.999Z</time></trkpt><trkpt lat="44.119526770020904" lon="11.292617191803187"><ele>860.6666666666667</ele><time>2026-04-07T08:39:32.999Z</time></trkpt><trkpt lat="44.11970322102576" lon="11.292799579219194"><ele>860.0</ele><time>2026-04-07T08:39:33.999Z</time></trkpt><trkpt lat="44.11988011535132" lon="11.29301579826533"><ele>860.5</ele><time>2026-04-07T08:39:34.999Z</time></trkpt><trkpt lat="44.120083626548976" lon="11.293229876182133"><ele>861.0</ele><time>2026-04-07T08:39:35.999Z</time></trkpt><trkpt lat="44.12028195914068" lon="11.293477450299756"><ele>861.0</ele><time>2026-04-07T08:39:36.999Z</time></trkpt><trkpt lat="44.12049168971704" lon="11.29373193426494"><ele>861.0</ele><time>2026-04-07T08:39:37.999Z</time></trkpt><trkpt lat="44.120665749267744" lon="11.294020435127921"><ele>866.0</ele><time>2026-04-07T08:39:38.999Z</time></trkpt><trkpt lat="44.1207866460708" lon="11.294319340974733"><ele>871.0</ele><time>2026-04-07T08:39:39.999Z</time></trkpt><trkpt lat="44.120885952762094" lon="11.294604627288459"><ele>868.5</ele><time>2026-04-07T08:39:40.999Z</time></trkpt><trkpt lat="44.12101940074486" lon="11.294874612532963"><ele>866.0</ele><time>2026-04-07T08:39:41.999Z</time></trkpt><trkpt lat="44.12116146215775" lon="11.295148930977632"><ele>866.0</ele><time>2026-04-07T08:39:42.999Z</time></trkpt><trkpt lat="44.121299113207535" lon="11.295382965092827"><ele>866.0</ele><time>2026-04-07T08:39:43.999Z</time></trkpt><trkpt lat="44.121411208570485" lon="11.295576381902816"><ele>866.0</ele><time>2026-04-07T08:39:44.999Z</time></trkpt><trkpt lat="44.12151692601582" lon="11.295730845719042"><ele>871.0</ele><time>2026-04-07T08:39:45.999Z</time></trkpt><trkpt lat="44.121646736464335" lon="11.295829430657498"><ele>876.0</ele><time>2026-04-07T08:39:46.999Z</time></trkpt><trkpt lat="44.12179352934752" lon="11.29589835777802"><ele>881.0</ele><time>2026-04-07T08:39:47.999Z</time></trkpt><trkpt lat="44.12190805586279" lon="11.296012784753376"><ele>886.0</ele><time>2026-04-07T08:39:48.999Z</time></trkpt><trkpt lat="44.12197714492035" lon="11.296168817943142"><ele>886.0</ele><time>2026-04-07T08:39:49.999Z</time></trkpt><trkpt lat="44.122013230973025" lon="11.296346406577333"><ele>886.0</ele><time>2026-04-07T08:39:50.999Z</time></trkpt><trkpt lat="44.12200947691571" lon="11.296531546771806"><ele>886.0</ele><time>2026-04-07T08:39:51.999Z</time></trkpt><trkpt lat="44.12200152975693" lon="11.29668700551581"><ele>886.0</ele><time>2026-04-07T08:39:52.999Z</time></trkpt><trkpt lat="44.122006187355026" lon="11.296849649617993"><ele>886.0</ele><time>2026-04-07T08:39:53.999Z</time></trkpt><trkpt lat="44.12198941858809" lon="11.297052371392889"><ele>886.0</ele><time>2026-04-07T08:39:54.999Z</time></trkpt><trkpt lat="44.12197631565854" lon="11.297286546583669"><ele>886.0</ele><time>2026-04-07T08:39:55.999Z</time></trkpt><trkpt lat="44.121962652034384" lon="11.297543572555417"><ele>886.0</ele><time>2026-04-07T08:39:56.999Z</time></trkpt><trkpt lat="44.121950982095186" lon="11.297813515503778"><ele>886.0</ele><time>2026-04-07T08:39:57.999Z</time></trkpt><trkpt lat="44.121940812296025" lon="11.298094925975535"><ele>886.0</ele><time>2026-04-07T08:39:58.999Z</time></trkpt><trkpt lat="44.121954045033206" lon="11.298368840185281"><ele>885.6666666666666</ele><time>2026-04-07T08:39:59.999Z</time></trkpt><trkpt lat="44.122001899537636" lon="11.29862200483308"><ele>885.3333333333333</ele><time>2026-04-07T08:40:00.999Z</time></trkpt><trkpt lat="44.12208394676661" lon="11.29887272523078"><ele>885.0</ele><time>2026-04-07T08:40:01.999Z</time></trkpt><trkpt lat="44.122193509040294" lon="11.299138844964943"><ele>884.0</ele><time>2026-04-07T08:40:02.999Z</time></trkpt><trkpt lat="44.12231495849402" lon="11.299413194538499"><ele>883.0</ele><time>2026-04-07T08:40:03.999Z</time></trkpt><trkpt lat="44.12243569547075" lon="11.299691673481512"><ele>888.3333333333333</ele><time>2026-04-07T08:40:04.999Z</time></trkpt><trkpt lat="44.12254574331637" lon="11.299958194599874"><ele>893.6666666666667</ele><time>2026-04-07T08:40:05.999Z</time></trkpt><trkpt lat="44.122652188421895" lon="11.300217892004172"><ele>899.0</ele><time>2026-04-07T08:40:06.999Z</time></trkpt><trkpt lat="44.12275158705674" lon="11.300436585588058"><ele>899.0</ele><time>2026-04-07T08:40:07.999Z</time></trkpt><trkpt lat="44.1228552185823" lon="11.300593614111063"><ele>899.0</ele><time>2026-04-07T08:40:08.999Z</time></trkpt><trkpt lat="44.12298650846179" lon="11.300697506675265"><ele>899.0</ele><time>2026-04-07T08:40:09.999Z</time></trkpt><trkpt lat="44.123153030057324" lon="11.300761136992909"><ele>904.0</ele><time>2026-04-07T08:40:10.999Z</time></trkpt><trkpt lat="44.12334563496492" lon="11.300793147454808"><ele>909.0</ele><time>2026-04-07T08:40:11.999Z</time></trkpt><trkpt lat="44.12355215140992" lon="11.300811123832085"><ele>914.0</ele><time>2026-04-07T08:40:12.999Z</time></trkpt><trkpt lat="44.12376083143902" lon="11.300829915687324"><ele>914.0</ele><time>2026-04-07T08:40:13.999Z</time></trkpt><trkpt lat="44.12396733962818" lon="11.300849447242014"><ele>914.0</ele><time>2026-04-07T08:40:14.999Z</time></trkpt><trkpt lat="44.12418081201885" lon="11.300814126107472"><ele>914.0</ele><time>2026-04-07T08:40:15.999Z</time></trkpt><trkpt lat="44.12438644390091" lon="11.300712827020126"><ele>913.6666666666667</ele><time>2026-04-07T08:40:16.999Z</time></trkpt><trkpt lat="44.1245958638596" lon="11.300609527435974"><ele>913.3333333333333</ele><time>2026-04-07T08:40:17.999Z</time></trkpt><trkpt lat="44.12480583696267" lon="11.300587222849327"><ele>913.0</ele><time>2026-04-07T08:40:18.999Z</time></trkpt><trkpt lat="44.12502651613743" lon="11.300606078457081"><ele>912.5</ele><time>2026-04-07T08:40:19.999Z</time></trkpt><trkpt lat="44.12527611875665" lon="11.300612040680836"><ele>912.0</ele><time>2026-04-07T08:40:20.999Z</time></trkpt><trkpt lat="44.12553384074454" lon="11.300659494365709"><ele>916.0</ele><time>2026-04-07T08:40:21.999Z</time></trkpt><trkpt lat="44.125797393386556" lon="11.300693157777006"><ele>920.0</ele><time>2026-04-07T08:40:22.999Z</time></trkpt><trkpt lat="44.126031364358234" lon="11.30071773548142"><ele>920.0</ele><time>2026-04-07T08:40:23.999Z</time></trkpt><trkpt lat="44.126236778413514" lon="11.30074926291922"><ele>920.0</ele><time>2026-04-07T08:40:24.999Z</time></trkpt><trkpt lat="44.126429804998466" lon="11.30082723250746"><ele>920.0</ele><time>2026-04-07T08:40:25.999Z</time></trkpt><trkpt lat="44.126620576445646" lon="11.30095520716159"><ele>918.6666666666667</ele><time>2026-04-07T08:40:26.999Z</time></trkpt><trkpt lat="44.12681248903025" lon="11.301124461994927"><ele>917.3333333333333</ele><time>2026-04-07T08:40:27.999Z</time></trkpt><trkpt lat="44.126980317369416" lon="11.301294134835613"><ele>916.0</ele><time>2026-04-07T08:40:28.999Z</time></trkpt><trkpt lat="44.12713225098072" lon="11.301468839910076"><ele>916.0</ele><time>2026-04-07T08:40:30Z</time></trkpt><trkpt lat="44.1272882103533" lon="11.301653108547304"><ele>916.0</ele><time>2026-04-07T08:40:31Z</time></trkpt><trkpt lat="44.12744855313749" lon="11.301835076188151"><ele>916.0</ele><time>2026-04-07T08:40:32Z</time></trkpt><trkpt lat="44.12761610845721" lon="11.30200080290838"><ele>916.3333333333333</ele><time>2026-04-07T08:40:33Z</time></trkpt><trkpt lat="44.12778849945169" lon="11.30213899555402"><ele>916.6666666666667</ele><time>2026-04-07T08:40:34Z</time></trkpt><trkpt lat="44.12797987296642" lon="11.302246647722507"><ele>917.0</ele><time>2026-04-07T08:40:35Z</time></trkpt><trkpt lat="44.12818318450495" lon="11.302349214098575"><ele>919.6666666666667</ele><time>2026-04-07T08:40:36Z</time></trkpt><trkpt lat="44.12838437719627" lon="11.302465699550822"><ele>922.3333333333333</ele><time>2026-04-07T08:40:37Z</time></trkpt><trkpt lat="44.12856812683564" lon="11.302599371798323"><ele>925.0</ele><time>2026-04-07T08:40:38Z</time></trkpt><trkpt lat="44.12872389862631" lon="11.302752607771469"><ele>925.0</ele><time>2026-04-07T08:40:39Z</time></trkpt><trkpt lat="44.12884146543163" lon="11.302922304778726"><ele>925.0</ele><time>2026-04-07T08:40:40Z</time></trkpt><trkpt lat="44.128909082077534" lon="11.303131879353437"><ele>925.0</ele><time>2026-04-07T08:40:41Z</time></trkpt><trkpt lat="44.12897428791973" lon="11.303330812158556"><ele>923.25</ele><time>2026-04-07T08:40:42Z</time></trkpt><trkpt lat="44.129018606672616" lon="11.303523477808248"><ele>921.5</ele><time>2026-04-07T08:40:43Z</time></trkpt><trkpt lat="44.12908997228235" lon="11.303657141261068"><ele>919.75</ele><time>2026-04-07T08:40:44Z</time></trkpt><trkpt lat="44.129196646453046" lon="11.303718862903581"><ele>918.0</ele><time>2026-04-07T08:40:45Z</time></trkpt><trkpt lat="44.12932901804945" lon="11.303720689430218"><ele>918.0</ele><time>2026-04-07T08:40:46Z</time></trkpt><trkpt lat="44.12946683715032" lon="11.30368612093923"><ele>918.0</ele><time>2026-04-07T08:40:47Z</time></trkpt><trkpt lat="44.12961324172314" lon="11.303727702557488"><ele>918.0</ele><time>2026-04-07T08:40:48Z</time></trkpt><trkpt lat="44.129804250934654" lon="11.303807236392398"><ele>907.0</ele><time>2026-04-07T08:40:49Z</time></trkpt><trkpt lat="44.13001566472863" lon="11.303928772471584"><ele>896.0</ele><time>2026-04-07T08:40:50Z</time></trkpt><trkpt lat="44.13025300229515" lon="11.304032600421802"><ele>896.0</ele><time>2026-04-07T08:40:51Z</time></trkpt><trkpt lat="44.13049263633643" lon="11.304123724673852"><ele>896.0</ele><time>2026-04-07T08:40:52Z</time></trkpt><trkpt lat="44.130736450877826" lon="11.304200428219415"><ele>898.0</ele><time>2026-04-07T08:40:53Z</time></trkpt><trkpt lat="44.130968065393134" lon="11.304261075237342"><ele>900.0</ele><time>2026-04-07T08:40:54Z</time></trkpt><trkpt lat="44.13116733835981" lon="11.304314448984877"><ele>902.0</ele><time>2026-04-07T08:40:55Z</time></trkpt><trkpt lat="44.13133749169621" lon="11.304376849325497"><ele>902.0</ele><time>2026-04-07T08:40:56Z</time></trkpt><trkpt lat="44.131488453592496" lon="11.304447642644794"><ele>902.0</ele><time>2026-04-07T08:40:57Z</time></trkpt><trkpt lat="44.13162985130851" lon="11.304533406118988"><ele>902.0</ele><time>2026-04-07T08:40:58Z</time></trkpt><trkpt lat="44.13175911623474" lon="11.304650917430218"><ele>897.0</ele><time>2026-04-07T08:40:59Z</time></trkpt><trkpt lat="44.13188346812254" lon="11.304783828845537"><ele>892.0</ele><time>2026-04-07T08:41:00Z</time></trkpt><trkpt lat="44.13201752686333" lon="11.304900084271052"><ele>887.0</ele><time>2026-04-07T08:41:01Z</time></trkpt><trkpt lat="44.132152065333756" lon="11.304994414936074"><ele>887.0</ele><time>2026-04-07T08:41:02Z</time></trkpt><trkpt lat="44.13227993099408" lon="11.305066389892158"><ele>887.0</ele><time>2026-04-07T08:41:03Z</time></trkpt><trkpt lat="44.132418053791476" lon="11.305099665391452"><ele>887.0</ele><time>2026-04-07T08:41:04Z</time></trkpt><trkpt lat="44.13257722720608" lon="11.305093773894955"><ele>887.0</ele><time>2026-04-07T08:41:05Z</time></trkpt><trkpt lat="44.13275174443675" lon="11.305068834860322"><ele>887.3333333333334</ele><time>2026-04-07T08:41:06Z</time></trkpt><trkpt lat="44.132934600108364" lon="11.305034680809321"><ele>887.6666666666667</ele><time>2026-04-07T08:41:07Z</time></trkpt><trkpt lat="44.133101537405174" lon="11.30497661949985"><ele>888.0</ele><time>2026-04-07T08:41:08Z</time></trkpt><trkpt lat="44.13325577959866" lon="11.304900832222991"><ele>888.0</ele><time>2026-04-07T08:41:09Z</time></trkpt><trkpt lat="44.133388164514486" lon="11.304810215019371"><ele>888.0</ele><time>2026-04-07T08:41:10Z</time></trkpt><trkpt lat="44.133483325697384" lon="11.30472562508139"><ele>888.0</ele><time>2026-04-07T08:41:11Z</time></trkpt><trkpt lat="44.13357114620341" lon="11.304698751928463"><ele>888.0</ele><time>2026-04-07T08:41:12Z</time></trkpt><trkpt lat="44.133654492512704" lon="11.30468297325158"><ele>888.0</ele><time>2026-04-07T08:41:13Z</time></trkpt><trkpt lat="44.133741180310615" lon="11.304758979307968"><ele>888.0</ele><time>2026-04-07T08:41:14Z</time></trkpt><trkpt lat="44.133797056647865" lon="11.304914866322905"><ele>888.0</ele><time>2026-04-07T08:41:15Z</time></trkpt><trkpt lat="44.1338509733326" lon="11.30509578903926"><ele>888.0</ele><time>2026-04-07T08:41:16Z</time></trkpt><trkpt lat="44.133858746277056" lon="11.305294607524411"><ele>888.0</ele><time>2026-04-07T08:41:17Z</time></trkpt><trkpt lat="44.133882607742564" lon="11.305455986247056"><ele>882.3333333333333</ele><time>2026-04-07T08:41:18Z</time></trkpt><trkpt lat="44.13396226241302" lon="11.305590345417686"><ele>876.6666666666666</ele><time>2026-04-07T08:41:19Z</time></trkpt><trkpt lat="44.13409884808945" lon="11.305723153260098"><ele>871.0</ele><time>2026-04-07T08:41:20Z</time></trkpt><trkpt lat="44.13423988784915" lon="11.305848515169265"><ele>871.0</ele><time>2026-04-07T08:41:21Z</time></trkpt><trkpt lat="44.13436786123522" lon="11.305957777298767"><ele>871.0</ele><time>2026-04-07T08:41:22Z</time></trkpt><trkpt lat="44.13450123037009" lon="11.306034803330665"><ele>871.0</ele><time>2026-04-07T08:41:22.999Z</time></trkpt><trkpt lat="44.134655274490996" lon="11.306067033436197"><ele>871.0</ele><time>2026-04-07T08:41:23.999Z</time></trkpt><trkpt lat="44.13480513253112" lon="11.306091390543347"><ele>871.0</ele><time>2026-04-07T08:41:24.999Z</time></trkpt><trkpt lat="44.13494470917266" lon="11.306121844457529"><ele>871.0</ele><time>2026-04-07T08:41:25.999Z</time></trkpt><trkpt lat="44.13507899830865" lon="11.306162001727921"><ele>871.0</ele><time>2026-04-07T08:41:26.999Z</time></trkpt><trkpt lat="44.135208389302846" lon="11.306202792928545"><ele>874.0</ele><time>2026-04-07T08:41:27.999Z</time></trkpt><trkpt lat="44.13533680893382" lon="11.306232077685163"><ele>877.0</ele><time>2026-04-07T08:41:28.999Z</time></trkpt><trkpt lat="44.13546045535664" lon="11.306259533475178"><ele>880.0</ele><time>2026-04-07T08:41:29.999Z</time></trkpt><trkpt lat="44.13557903638106" lon="11.30629324525618"><ele>883.0</ele><time>2026-04-07T08:41:30.999Z</time></trkpt><trkpt lat="44.13568821694925" lon="11.30635226015251"><ele>878.0</ele><time>2026-04-07T08:41:31.999Z</time></trkpt><trkpt lat="44.13578889077778" lon="11.306444950131242"><ele>873.0</ele><time>2026-04-07T08:41:32.999Z</time></trkpt><trkpt lat="44.135884054972145" lon="11.30656985364263"><ele>868.0</ele><time>2026-04-07T08:41:33.999Z</time></trkpt><trkpt lat="44.135969174149224" lon="11.306716849970115"><ele>863.0</ele><time>2026-04-07T08:41:34.999Z</time></trkpt><trkpt lat="44.136051430927886" lon="11.306855864164877"><ele>863.0</ele><time>2026-04-07T08:41:35.999Z</time></trkpt><trkpt lat="44.13611705226919" lon="11.306991763789924"><ele>863.0</ele><time>2026-04-07T08:41:36.999Z</time></trkpt><trkpt lat="44.13616388993046" lon="11.307147202542696"><ele>863.0</ele><time>2026-04-07T08:41:37.999Z</time></trkpt><trkpt lat="44.136202692319856" lon="11.30731665203269"><ele>863.0</ele><time>2026-04-07T08:41:38.999Z</time></trkpt><trkpt lat="44.136238243601525" lon="11.307493174659339"><ele>861.25</ele><time>2026-04-07T08:41:39.999Z</time></trkpt><trkpt lat="44.13629053848143" lon="11.307660406587708"><ele>859.5</ele><time>2026-04-07T08:41:40.999Z</time></trkpt><trkpt lat="44.13635760603985" lon="11.307824160792757"><ele>857.75</ele><time>2026-04-07T08:41:41.999Z</time></trkpt><trkpt lat="44.136433663479856" lon="11.307977857445682"><ele>856.0</ele><time>2026-04-07T08:41:42.999Z</time></trkpt><trkpt lat="44.13651236181572" lon="11.308122708670219"><ele>856.75</ele><time>2026-04-07T08:41:43.999Z</time></trkpt><trkpt lat="44.13658636033387" lon="11.308249974055864"><ele>857.5</ele><time>2026-04-07T08:41:44.999Z</time></trkpt><trkpt lat="44.13666412562689" lon="11.308357598961617"><ele>858.25</ele><time>2026-04-07T08:41:45.999Z</time></trkpt><trkpt lat="44.1367520147546" lon="11.308456299189881"><ele>859.0</ele><time>2026-04-07T08:41:46.999Z</time></trkpt><trkpt lat="44.13686193342904" lon="11.308541029054993"><ele>859.0</ele><time>2026-04-07T08:41:47.999Z</time></trkpt><trkpt lat="44.136987485898175" lon="11.308613073904596"><ele>859.0</ele><time>2026-04-07T08:41:48.999Z</time></trkpt><trkpt lat="44.1371117155232" lon="11.308691846200775"><ele>859.0</ele><time>2026-04-07T08:41:49.999Z</time></trkpt><trkpt lat="44.13722734195591" lon="11.30877436805691"><ele>859.0</ele><time>2026-04-07T08:41:50.999Z</time></trkpt><trkpt lat="44.13734430011777" lon="11.308857837982645"><ele>858.0</ele><time>2026-04-07T08:41:51.999Z</time></trkpt><trkpt lat="44.13745945194327" lon="11.308938806321517"><ele>857.0</ele><time>2026-04-07T08:41:52.999Z</time></trkpt><trkpt lat="44.13757501605818" lon="11.30901507048211"><ele>856.0</ele><time>2026-04-07T08:41:53.999Z</time></trkpt><trkpt lat="44.13768661574857" lon="11.309092087454786"><ele>855.0</ele><time>2026-04-07T08:41:54.999Z</time></trkpt><trkpt lat="44.13778088322294" lon="11.309193330548231"><ele>855.0</ele><time>2026-04-07T08:41:55.999Z</time></trkpt><trkpt lat="44.13783087889271" lon="11.309349290034183"><ele>855.0</ele><time>2026-04-07T08:41:56.999Z</time></trkpt><trkpt lat="44.137884733221426" lon="11.309524333991044"><ele>855.0</ele><time>2026-04-07T08:41:57.999Z</time></trkpt><trkpt lat="44.1379195996002" lon="11.309735033492709"><ele>855.0</ele><time>2026-04-07T08:41:58.999Z</time></trkpt><trkpt lat="44.1379594516702" lon="11.309952412962767"><ele>853.6666666666667</ele><time>2026-04-07T08:41:59.999Z</time></trkpt><trkpt lat="44.138004387289456" lon="11.310163570180993"><ele>852.3333333333334</ele><time>2026-04-07T08:42:00.999Z</time></trkpt><trkpt lat="44.13805662795513" lon="11.310358516533045"><ele>851.0</ele><time>2026-04-07T08:42:01.999Z</time></trkpt><trkpt lat="44.138114218774405" lon="11.31054990207886"><ele>850.75</ele><time>2026-04-07T08:42:02.999Z</time></trkpt><trkpt lat="44.138171786497345" lon="11.310726400409216"><ele>850.5</ele><time>2026-04-07T08:42:03.999Z</time></trkpt><trkpt lat="44.1382310403976" lon="11.310896317828522"><ele>850.25</ele><time>2026-04-07T08:42:04.999Z</time></trkpt><trkpt lat="44.138277611466606" lon="11.311063509387171"><ele>850.0</ele><time>2026-04-07T08:42:05.999Z</time></trkpt><trkpt lat="44.13830810773643" lon="11.311234962551493"><ele>850.25</ele><time>2026-04-07T08:42:06.999Z</time></trkpt><trkpt lat="44.13830231972124" lon="11.31141501746243"><ele>850.5</ele><time>2026-04-07T08:42:07.999Z</time></trkpt><trkpt lat="44.13823636702045" lon="11.311597973695568"><ele>850.75</ele><time>2026-04-07T08:42:08.999Z</time></trkpt><trkpt lat="44.138187179510815" lon="11.311790279407848"><ele>851.0</ele><time>2026-04-07T08:42:09.999Z</time></trkpt><trkpt lat="44.13814089128462" lon="11.31196531062931"><ele>850.5</ele><time>2026-04-07T08:42:10.999Z</time></trkpt><trkpt lat="44.13812965252393" lon="11.312122697701005"><ele>850.0</ele><time>2026-04-07T08:42:11.999Z</time></trkpt><trkpt lat="44.138158775756516" lon="11.312279694337818"><ele>849.5</ele><time>2026-04-07T08:42:12.999Z</time></trkpt><trkpt lat="44.13823834350127" lon="11.312440976368947"><ele>849.0</ele><time>2026-04-07T08:42:13.999Z</time></trkpt><trkpt lat="44.13834828976608" lon="11.312582905667401"><ele>846.0</ele><time>2026-04-07T08:42:14.999Z</time></trkpt><trkpt lat="44.13843979140514" lon="11.312741577666577"><ele>843.0</ele><time>2026-04-07T08:42:15.999Z</time></trkpt><trkpt lat="44.13848234809161" lon="11.3129232647375"><ele>840.0</ele><time>2026-04-07T08:42:16.999Z</time></trkpt><trkpt lat="44.13847483257112" lon="11.313158799481359"><ele>838.6666666666667</ele><time>2026-04-07T08:42:17.999Z</time></trkpt><trkpt lat="44.138429149061785" lon="11.313428798577391"><ele>837.3333333333334</ele><time>2026-04-07T08:42:18.999Z</time></trkpt><trkpt lat="44.13838322269927" lon="11.313720028602585"><ele>836.0</ele><time>2026-04-07T08:42:19.999Z</time></trkpt><trkpt lat="44.13835053808798" lon="11.314028430919777"><ele>836.0</ele><time>2026-04-07T08:42:20.999Z</time></trkpt><trkpt lat="44.13833468162557" lon="11.314336336060483"><ele>836.0</ele><time>2026-04-07T08:42:21.999Z</time></trkpt><trkpt lat="44.1383371133567" lon="11.31467664458122"><ele>836.5</ele><time>2026-04-07T08:42:22.999Z</time></trkpt><trkpt lat="44.13835364082774" lon="11.315035206106332"><ele>837.0</ele><time>2026-04-07T08:42:23.999Z</time></trkpt><trkpt lat="44.13837112056771" lon="11.315357426376645"><ele>836.0</ele><time>2026-04-07T08:42:24.999Z</time></trkpt><trkpt lat="44.13839114081909" lon="11.315633290709915"><ele>835.0</ele><time>2026-04-07T08:42:25.999Z</time></trkpt><trkpt lat="44.138412658269495" lon="11.315893962638224"><ele>834.0</ele><time>2026-04-07T08:42:26.999Z</time></trkpt><trkpt lat="44.13843876594055" lon="11.316144404832404"><ele>834.0</ele><time>2026-04-07T08:42:27.999Z</time></trkpt><trkpt lat="44.13847763314143" lon="11.31639958233796"><ele>834.0</ele><time>2026-04-07T08:42:28.999Z</time></trkpt><trkpt lat="44.13853607751691" lon="11.316659785852792"><ele>834.0</ele><time>2026-04-07T08:42:29.999Z</time></trkpt><trkpt lat="44.1386133310933" lon="11.316919488234733"><ele>833.3333333333333</ele><time>2026-04-07T08:42:30.999Z</time></trkpt><trkpt lat="44.13869674920001" lon="11.31717370005589"><ele>832.6666666666666</ele><time>2026-04-07T08:42:31.999Z</time></trkpt><trkpt lat="44.138768890924126" lon="11.317403971670842"><ele>832.0</ele><time>2026-04-07T08:42:32.999Z</time></trkpt><trkpt lat="44.138821535747816" lon="11.31761898562583"><ele>828.6666666666666</ele><time>2026-04-07T08:42:33.999Z</time></trkpt><trkpt lat="44.13884443639183" lon="11.317843193553399"><ele>825.3333333333333</ele><time>2026-04-07T08:42:35Z</time></trkpt><trkpt lat="44.13880738845967" lon="11.31808311050658"><ele>822.0</ele><time>2026-04-07T08:42:36Z</time></trkpt><trkpt lat="44.13880132256534" lon="11.318354079552593"><ele>820.6666666666667</ele><time>2026-04-07T08:42:37Z</time></trkpt><trkpt lat="44.138784920433" lon="11.318636820466219"><ele>819.3333333333334</ele><time>2026-04-07T08:42:38Z</time></trkpt><trkpt lat="44.138782768743255" lon="11.318936467840082"><ele>818.0</ele><time>2026-04-07T08:42:39Z</time></trkpt><trkpt lat="44.13877598923396" lon="11.319229866843617"><ele>818.0</ele><time>2026-04-07T08:42:40Z</time></trkpt><trkpt lat="44.13875483117933" lon="11.319499848471438"><ele>818.0</ele><time>2026-04-07T08:42:41Z</time></trkpt><trkpt lat="44.13872281543734" lon="11.319741128714995"><ele>818.0</ele><time>2026-04-07T08:42:42Z</time></trkpt><trkpt lat="44.13869835408929" lon="11.319946064376866"><ele>819.25</ele><time>2026-04-07T08:42:43Z</time></trkpt><trkpt lat="44.13868586258161" lon="11.32012522565484"><ele>820.5</ele><time>2026-04-07T08:42:44Z</time></trkpt><trkpt lat="44.138699402006836" lon="11.320278013060577"><ele>821.75</ele><time>2026-04-07T08:42:45Z</time></trkpt><trkpt lat="44.13875257095967" lon="11.320405143542239"><ele>823.0</ele><time>2026-04-07T08:42:46Z</time></trkpt><trkpt lat="44.13882505558793" lon="11.320545861724156"><ele>825.3333333333333</ele><time>2026-04-07T08:42:47Z</time></trkpt><trkpt lat="44.13897493690143" lon="11.320626577595888"><ele>827.6666666666667</ele><time>2026-04-07T08:42:48Z</time></trkpt><trkpt lat="44.139128639609496" lon="11.32072518317958"><ele>830.0</ele><time>2026-04-07T08:42:49Z</time></trkpt><trkpt lat="44.139291987657664" lon="11.320868659417204"><ele>830.0</ele><time>2026-04-07T08:42:50Z</time></trkpt><trkpt lat="44.13945193364879" lon="11.321072111543206"><ele>830.0</ele><time>2026-04-07T08:42:51Z</time></trkpt><trkpt lat="44.139595383258026" lon="11.32128192670498"><ele>830.0</ele><time>2026-04-07T08:42:52Z</time></trkpt><trkpt lat="44.13973163668756" lon="11.321477644892836"><ele>832.6666666666667</ele><time>2026-04-07T08:42:53Z</time></trkpt><trkpt lat="44.139867408577615" lon="11.321616827443858"><ele>835.3333333333333</ele><time>2026-04-07T08:42:54Z</time></trkpt><trkpt lat="44.140028876177944" lon="11.321702799024346"><ele>838.0</ele><time>2026-04-07T08:42:55Z</time></trkpt><trkpt lat="44.14018913821145" lon="11.32172530553592"><ele>838.0</ele><time>2026-04-07T08:42:56Z</time></trkpt><trkpt lat="44.1403426666285" lon="11.321722828177618"><ele>838.0</ele><time>2026-04-07T08:42:57Z</time></trkpt><trkpt lat="44.14047151105713" lon="11.321760164353138"><ele>838.0</ele><time>2026-04-07T08:42:58Z</time></trkpt><trkpt lat="44.1405752068988" lon="11.321857895179853"><ele>838.0</ele><time>2026-04-07T08:42:59Z</time></trkpt><trkpt lat="44.140628694789406" lon="11.322038064755665"><ele>836.3333333333333</ele><time>2026-04-07T08:43:00Z</time></trkpt><trkpt lat="44.14070284505014" lon="11.322245036774937"><ele>834.6666666666667</ele><time>2026-04-07T08:43:01Z</time></trkpt><trkpt lat="44.14079100524334" lon="11.322469717227667"><ele>833.0</ele><time>2026-04-07T08:43:02Z</time></trkpt><trkpt lat="44.14088588560602" lon="11.322714809341944"><ele>837.0</ele><time>2026-04-07T08:43:03Z</time></trkpt><trkpt lat="44.14099362816169" lon="11.322984303890614"><ele>841.0</ele><time>2026-04-07T08:43:04Z</time></trkpt><trkpt lat="44.14109100371638" lon="11.323285652780665"><ele>841.0</ele><time>2026-04-07T08:43:05Z</time></trkpt><trkpt lat="44.14120492728875" lon="11.323557936662544"><ele>841.0</ele><time>2026-04-07T08:43:06Z</time></trkpt><trkpt lat="44.141228177297954" lon="11.32382719995587"><ele>841.0</ele><time>2026-04-07T08:43:07Z</time></trkpt><trkpt lat="44.14122640152311" lon="11.324088103160914"><ele>841.0</ele><time>2026-04-07T08:43:08Z</time></trkpt><trkpt lat="44.14120716596302" lon="11.324366186593208"><ele>841.0</ele><time>2026-04-07T08:43:09Z</time></trkpt><trkpt lat="44.14117392332309" lon="11.3246650640941"><ele>841.0</ele><time>2026-04-07T08:43:10Z</time></trkpt><trkpt lat="44.1411092100918" lon="11.324946039660274"><ele>842.0</ele><time>2026-04-07T08:43:11Z</time></trkpt><trkpt lat="44.14104811145285" lon="11.32517444203051"><ele>843.0</ele><time>2026-04-07T08:43:12Z</time></trkpt><trkpt lat="44.14100541475672" lon="11.32536187465678"><ele>844.0</ele><time>2026-04-07T08:43:13Z</time></trkpt><trkpt lat="44.14100707136612" lon="11.325548547201498"><ele>844.6666666666666</ele><time>2026-04-07T08:43:14Z</time></trkpt><trkpt lat="44.14106041691423" lon="11.325775089610472"><ele>845.3333333333333</ele><time>2026-04-07T08:43:14.999Z</time></trkpt><trkpt lat="44.141150738092676" lon="11.326004344318049"><ele>846.0</ele><time>2026-04-07T08:43:15.999Z</time></trkpt><trkpt lat="44.141229820888704" lon="11.326229721942175"><ele>846.0</ele><time>2026-04-07T08:43:16.999Z</time></trkpt><trkpt lat="44.14127786274856" lon="11.326437372508783"><ele>846.0</ele><time>2026-04-07T08:43:17.999Z</time></trkpt><trkpt lat="44.14128125033744" lon="11.326638159785691"><ele>846.0</ele><time>2026-04-07T08:43:18.999Z</time></trkpt><trkpt lat="44.14125101144358" lon="11.326840198803222"><ele>846.0</ele><time>2026-04-07T08:43:19.999Z</time></trkpt><trkpt lat="44.141148363685474" lon="11.327013660274668"><ele>846.0</ele><time>2026-04-07T08:43:20.999Z</time></trkpt><trkpt lat="44.140981666466004" lon="11.327120546985753"><ele>846.0</ele><time>2026-04-07T08:43:21.999Z</time></trkpt><trkpt lat="44.140815051327245" lon="11.32726730888353"><ele>846.0</ele><time>2026-04-07T08:43:22.999Z</time></trkpt><trkpt lat="44.140659422957015" lon="11.327408890439818"><ele>845.5</ele><time>2026-04-07T08:43:23.999Z</time></trkpt><trkpt lat="44.14053690134287" lon="11.327527532298294"><ele>845.0</ele><time>2026-04-07T08:43:24.999Z</time></trkpt><trkpt lat="44.140462994050665" lon="11.327668690592562"><ele>844.5</ele><time>2026-04-07T08:43:25.999Z</time></trkpt><trkpt lat="44.14042923057351" lon="11.32784565870092"><ele>844.0</ele><time>2026-04-07T08:43:26.999Z</time></trkpt><trkpt lat="44.14043557505955" lon="11.328055311839918"><ele>844.0</ele><time>2026-04-07T08:43:27.999Z</time></trkpt><trkpt lat="44.140478844314124" lon="11.328276243019857"><ele>844.0</ele><time>2026-04-07T08:43:28.999Z</time></trkpt><trkpt lat="44.14053808130225" lon="11.328454520043227"><ele>844.0</ele><time>2026-04-07T08:43:29.999Z</time></trkpt><trkpt lat="44.140619623287456" lon="11.328578743593766"><ele>844.0</ele><time>2026-04-07T08:43:30.999Z</time></trkpt><trkpt lat="44.140730973833335" lon="11.328640208974656"><ele>847.75</ele><time>2026-04-07T08:43:31.999Z</time></trkpt><trkpt lat="44.140851262729534" lon="11.328625082103484"><ele>851.5</ele><time>2026-04-07T08:43:32.999Z</time></trkpt><trkpt lat="44.140977156950505" lon="11.328541375692252"><ele>855.25</ele><time>2026-04-07T08:43:33.999Z</time></trkpt><trkpt lat="44.141119362823666" lon="11.328409897250737"><ele>859.0</ele><time>2026-04-07T08:43:34.999Z</time></trkpt><trkpt lat="44.1412825844102" lon="11.328267677789514"><ele>859.0</ele><time>2026-04-07T08:43:35.999Z</time></trkpt><trkpt lat="44.14146293179027" lon="11.328122364245662"><ele>859.0</ele><time>2026-04-07T08:43:36.999Z</time></trkpt><trkpt lat="44.141661136615596" lon="11.327960468151565"><ele>859.0</ele><time>2026-04-07T08:43:37.999Z</time></trkpt><trkpt lat="44.141868512477565" lon="11.327792396701062"><ele>862.0</ele><time>2026-04-07T08:43:38.999Z</time></trkpt><trkpt lat="44.14207317632348" lon="11.327621682699773"><ele>865.0</ele><time>2026-04-07T08:43:39.999Z</time></trkpt><trkpt lat="44.142292881143604" lon="11.327448996378154"><ele>865.0</ele><time>2026-04-07T08:43:40.999Z</time></trkpt><trkpt lat="44.14252045314202" lon="11.327315429615822"><ele>865.0</ele><time>2026-04-07T08:43:41.999Z</time></trkpt><trkpt lat="44.14276178412701" lon="11.327227733458836"><ele>868.5</ele><time>2026-04-07T08:43:42.999Z</time></trkpt><trkpt lat="44.14300224662659" lon="11.327181739124553"><ele>872.0</ele><time>2026-04-07T08:43:43.999Z</time></trkpt><trkpt lat="44.143225515417875" lon="11.327165191700606"><ele>870.0</ele><time>2026-04-07T08:43:44.999Z</time></trkpt><trkpt lat="44.14344920999808" lon="11.32717443951519"><ele>868.0</ele><time>2026-04-07T08:43:45.999Z</time></trkpt><trkpt lat="44.14366769685832" lon="11.327213249334662"><ele>866.0</ele><time>2026-04-07T08:43:46.999Z</time></trkpt><trkpt lat="44.14386616013813" lon="11.32733456313551"><ele>867.6666666666667</ele><time>2026-04-07T08:43:47.999Z</time></trkpt><trkpt lat="44.14406523343523" lon="11.327421875307518"><ele>869.3333333333333</ele><time>2026-04-07T08:43:48.999Z</time></trkpt><trkpt lat="44.14422342379119" lon="11.327528632048343"><ele>871.0</ele><time>2026-04-07T08:43:49.999Z</time></trkpt><trkpt lat="44.144363785510656" lon="11.327589850222864"><ele>871.0</ele><time>2026-04-07T08:43:50.999Z</time></trkpt><trkpt lat="44.144487715680434" lon="11.32758162271244"><ele>871.0</ele><time>2026-04-07T08:43:51.999Z</time></trkpt><trkpt lat="44.14460987435175" lon="11.327508570367309"><ele>871.0</ele><time>2026-04-07T08:43:52.999Z</time></trkpt><trkpt lat="44.14472109149225" lon="11.327371201124599"><ele>871.0</ele><time>2026-04-07T08:43:53.999Z</time></trkpt><trkpt lat="44.144813360587946" lon="11.327174921653896"><ele>874.3333333333333</ele><time>2026-04-07T08:43:54.999Z</time></trkpt><trkpt lat="44.144899251320275" lon="11.326957925505901"><ele>877.6666666666667</ele><time>2026-04-07T08:43:55.999Z</time></trkpt><trkpt lat="44.145026579557154" lon="11.326799844259089"><ele>881.0</ele><time>2026-04-07T08:43:56.999Z</time></trkpt><trkpt lat="44.14517837515205" lon="11.326693461744698"><ele>881.0</ele><time>2026-04-07T08:43:57.999Z</time></trkpt><trkpt lat="44.14535948032973" lon="11.326637015916969"><ele>881.0</ele><time>2026-04-07T08:43:58.999Z</time></trkpt><trkpt lat="44.14555439241655" lon="11.326603274320352"><ele>881.0</ele><time>2026-04-07T08:43:59.999Z</time></trkpt><trkpt lat="44.14576124659692" lon="11.326634803268526"><ele>880.0</ele><time>2026-04-07T08:44:00.999Z</time></trkpt><trkpt lat="44.145969511549495" lon="11.326755384966125"><ele>879.0</ele><time>2026-04-07T08:44:01.999Z</time></trkpt><trkpt lat="44.14619915462202" lon="11.326881440488624"><ele>879.0</ele><time>2026-04-07T08:44:02.999Z</time></trkpt><trkpt lat="44.14640175663341" lon="11.327035063701173"><ele>879.0</ele><time>2026-04-07T08:44:03.999Z</time></trkpt><trkpt lat="44.14659899541489" lon="11.327169194616102"><ele>878.0</ele><time>2026-04-07T08:44:04.999Z</time></trkpt><trkpt lat="44.14678764196876" lon="11.327241350106526"><ele>877.0</ele><time>2026-04-07T08:44:05.999Z</time></trkpt><trkpt lat="44.14699112497573" lon="11.32724548279438"><ele>876.0</ele><time>2026-04-07T08:44:06.999Z</time></trkpt><trkpt lat="44.147193207653324" lon="11.327201505067"><ele>879.3333333333333</ele><time>2026-04-07T08:44:07.999Z</time></trkpt><trkpt lat="44.14738346647704" lon="11.327175237755366"><ele>882.6666666666666</ele><time>2026-04-07T08:44:08.999Z</time></trkpt><trkpt lat="44.147567842277155" lon="11.327234315511182"><ele>886.0</ele><time>2026-04-07T08:44:09.999Z</time></trkpt><trkpt lat="44.14774142750945" lon="11.32734605345073"><ele>886.0</ele><time>2026-04-07T08:44:10.999Z</time></trkpt><trkpt lat="44.14789557539073" lon="11.32747105737741"><ele>886.0</ele><time>2026-04-07T08:44:11.999Z</time></trkpt><trkpt lat="44.14800872851195" lon="11.327535073604963"><ele>886.0</ele><time>2026-04-07T08:44:12.999Z</time></trkpt><trkpt lat="44.14812770408675" lon="11.327541780646794"><ele>886.0</ele><time>2026-04-07T08:44:13.999Z</time></trkpt><trkpt lat="44.14825873441712" lon="11.327484412025873"><ele>886.0</ele><time>2026-04-07T08:44:14.999Z</time></trkpt><trkpt lat="44.148403385307226" lon="11.327354978892714"><ele>886.0</ele><time>2026-04-07T08:44:15.999Z</time></trkpt><trkpt lat="44.148556804797444" lon="11.327166655141063"><ele>886.0</ele><time>2026-04-07T08:44:16.999Z</time></trkpt><trkpt lat="44.14870807921336" lon="11.326944161122086"><ele>895.5</ele><time>2026-04-07T08:44:17.999Z</time></trkpt><trkpt lat="44.148853255616984" lon="11.326715094299832"><ele>905.0</ele><time>2026-04-07T08:44:18.999Z</time></trkpt><trkpt lat="44.14902897963113" lon="11.32649954082052"><ele>906.0</ele><time>2026-04-07T08:44:19.999Z</time></trkpt><trkpt lat="44.1492002370196" lon="11.326306675963306"><ele>907.0</ele><time>2026-04-07T08:44:20.999Z</time></trkpt><trkpt lat="44.14935474577357" lon="11.326139382386934"><ele>908.0</ele><time>2026-04-07T08:44:21.999Z</time></trkpt><trkpt lat="44.14949218918638" lon="11.325989160267385"><ele>908.0</ele><time>2026-04-07T08:44:22.999Z</time></trkpt><trkpt lat="44.14965672496791" lon="11.325904349289406"><ele>908.0</ele><time>2026-04-07T08:44:23.999Z</time></trkpt><trkpt lat="44.1498553861973" lon="11.325889274638035"><ele>908.0</ele><time>2026-04-07T08:44:24.999Z</time></trkpt><trkpt lat="44.150073947285264" lon="11.325872508918792"><ele>902.0</ele><time>2026-04-07T08:44:25.999Z</time></trkpt><trkpt lat="44.15030540252578" lon="11.325906383057427"><ele>896.0</ele><time>2026-04-07T08:44:26.999Z</time></trkpt><trkpt lat="44.15054662520123" lon="11.32592077401863"><ele>893.0</ele><time>2026-04-07T08:44:27.999Z</time></trkpt><trkpt lat="44.15077700523899" lon="11.32591989442723"><ele>890.0</ele><time>2026-04-07T08:44:28.999Z</time></trkpt><trkpt lat="44.15097881702805" lon="11.325893060922551"><ele>887.0</ele><time>2026-04-07T08:44:29.999Z</time></trkpt><trkpt lat="44.151169068787205" lon="11.325826318282028"><ele>887.0</ele><time>2026-04-07T08:44:30.999Z</time></trkpt><trkpt lat="44.15134528127339" lon="11.325708707116977"><ele>887.0</ele><time>2026-04-07T08:44:31.999Z</time></trkpt><trkpt lat="44.15153369440961" lon="11.325549307134013"><ele>887.0</ele><time>2026-04-07T08:44:32.999Z</time></trkpt><trkpt lat="44.151738816841466" lon="11.32536765800811"><ele>893.0</ele><time>2026-04-07T08:44:33.999Z</time></trkpt><trkpt lat="44.151955148149675" lon="11.325176362522997"><ele>899.0</ele><time>2026-04-07T08:44:34.999Z</time></trkpt><trkpt lat="44.1521712682645" lon="11.325021717454812"><ele>899.0</ele><time>2026-04-07T08:44:35.999Z</time></trkpt><trkpt lat="44.15235225632047" lon="11.324847347313446"><ele>899.0</ele><time>2026-04-07T08:44:36.999Z</time></trkpt><trkpt lat="44.15252500861672" lon="11.324704302813966"><ele>899.0</ele><time>2026-04-07T08:44:37.999Z</time></trkpt><trkpt lat="44.15266777682054" lon="11.324584294343186"><ele>898.25</ele><time>2026-04-07T08:44:38.999Z</time></trkpt><trkpt lat="44.15279482484157" lon="11.32447939120431"><ele>897.5</ele><time>2026-04-07T08:44:39.999Z</time></trkpt><trkpt lat="44.15292916693216" lon="11.324424663718256"><ele>896.75</ele><time>2026-04-07T08:44:41Z</time></trkpt><trkpt lat="44.1530814406734" lon="11.32446111039491"><ele>896.0</ele><time>2026-04-07T08:44:42Z</time></trkpt><trkpt lat="44.15324705321432" lon="11.32452682717545"><ele>896.0</ele><time>2026-04-07T08:44:43Z</time></trkpt><trkpt lat="44.15341907335484" lon="11.324644183625423"><ele>896.0</ele><time>2026-04-07T08:44:44Z</time></trkpt><trkpt lat="44.153589416536555" lon="11.324776665454563"><ele>896.0</ele><time>2026-04-07T08:44:45Z</time></trkpt><trkpt lat="44.15373795488496" lon="11.324923811666757"><ele>894.3333333333334</ele><time>2026-04-07T08:44:46Z</time></trkpt><trkpt lat="44.15388344202519" lon="11.325037592823156"><ele>892.6666666666667</ele><time>2026-04-07T08:44:47Z</time></trkpt><trkpt lat="44.15405067177716" lon="11.325124300233373"><ele>891.0</ele><time>2026-04-07T08:44:48Z</time></trkpt><trkpt lat="44.15422278146014" lon="11.325184963306008"><ele>891.0</ele><time>2026-04-07T08:44:49Z</time></trkpt><trkpt lat="44.15437570026145" lon="11.3252237808808"><ele>891.0</ele><time>2026-04-07T08:44:50Z</time></trkpt><trkpt lat="44.1545071041288" lon="11.325217252437955"><ele>891.0</ele><time>2026-04-07T08:44:51Z</time></trkpt><trkpt lat="44.15462233451848" lon="11.325143919032692"><ele>891.0</ele><time>2026-04-07T08:44:52Z</time></trkpt><trkpt lat="44.15473380362055" lon="11.325005880816999"><ele>891.0</ele><time>2026-04-07T08:44:53Z</time></trkpt><trkpt lat="44.15482539872531" lon="11.324803673941807"><ele>891.0</ele><time>2026-04-07T08:44:54Z</time></trkpt><trkpt lat="44.1549200390129" lon="11.32456354135198"><ele>891.0</ele><time>2026-04-07T08:44:55Z</time></trkpt><trkpt lat="44.15508497609912" lon="11.324384470576105"><ele>893.0</ele><time>2026-04-07T08:44:56Z</time></trkpt><trkpt lat="44.155271020676444" lon="11.324200203102464"><ele>895.0</ele><time>2026-04-07T08:44:57Z</time></trkpt><trkpt lat="44.15544722798753" lon="11.323954633143227"><ele>896.3333333333333</ele><time>2026-04-07T08:44:58Z</time></trkpt><trkpt lat="44.155598349320115" lon="11.32371154917609"><ele>897.6666666666667</ele><time>2026-04-07T08:44:59Z</time></trkpt><trkpt lat="44.15571051131952" lon="11.323492765010975"><ele>899.0</ele><time>2026-04-07T08:45:00Z</time></trkpt><trkpt lat="44.15583948823732" lon="11.323357958386081"><ele>899.0</ele><time>2026-04-07T08:45:01Z</time></trkpt><trkpt lat="44.15597006129454" lon="11.32325501046437"><ele>899.0</ele><time>2026-04-07T08:45:02Z</time></trkpt><trkpt lat="44.15611811716843" lon="11.323172933781823"><ele>899.0</ele><time>2026-04-07T08:45:03Z</time></trkpt><trkpt lat="44.15628404697118" lon="11.323170092697525"><ele>899.0</ele><time>2026-04-07T08:45:04Z</time></trkpt><trkpt lat="44.15645648822263" lon="11.32322543258282"><ele>899.0</ele><time>2026-04-07T08:45:05Z</time></trkpt><trkpt lat="44.15663486270825" lon="11.323322269871701"><ele>899.0</ele><time>2026-04-07T08:45:06Z</time></trkpt><trkpt lat="44.1568015337819" lon="11.323414196513882"><ele>899.6666666666667</ele><time>2026-04-07T08:45:07Z</time></trkpt><trkpt lat="44.15695266692299" lon="11.323458768122494"><ele>900.3333333333333</ele><time>2026-04-07T08:45:08Z</time></trkpt><trkpt lat="44.15709870148849" lon="11.323448083201468"><ele>901.0</ele><time>2026-04-07T08:45:09Z</time></trkpt><trkpt lat="44.15726471650343" lon="11.323374486306996"><ele>901.0</ele><time>2026-04-07T08:45:10Z</time></trkpt><trkpt lat="44.157444091740274" lon="11.323250975237679"><ele>901.0</ele><time>2026-04-07T08:45:11Z</time></trkpt><trkpt lat="44.157598797053105" lon="11.323095296436566"><ele>901.0</ele><time>2026-04-07T08:45:12Z</time></trkpt><trkpt lat="44.1577055248456" lon="11.322951865017172"><ele>902.25</ele><time>2026-04-07T08:45:13Z</time></trkpt><trkpt lat="44.15780514587617" lon="11.322844729327624"><ele>903.5</ele><time>2026-04-07T08:45:14Z</time></trkpt><trkpt lat="44.15791431908478" lon="11.322750981360418"><ele>904.75</ele><time>2026-04-07T08:45:15Z</time></trkpt><trkpt lat="44.15804377911696" lon="11.322671068851664"><ele>906.0</ele><time>2026-04-07T08:45:16Z</time></trkpt><trkpt lat="44.1582001867329" lon="11.322661417764609"><ele>905.6666666666667</ele><time>2026-04-07T08:45:17Z</time></trkpt><trkpt lat="44.15835854545377" lon="11.322728892257231"><ele>905.3333333333334</ele><time>2026-04-07T08:45:18Z</time></trkpt><trkpt lat="44.15853641891318" lon="11.322829973361575"><ele>905.0</ele><time>2026-04-07T08:45:19Z</time></trkpt><trkpt lat="44.158702411303906" lon="11.322974237642674"><ele>903.0</ele><time>2026-04-07T08:45:20Z</time></trkpt><trkpt lat="44.15883999278115" lon="11.323143410376847"><ele>901.0</ele><time>2026-04-07T08:45:21Z</time></trkpt><trkpt lat="44.1589647755312" lon="11.323306940288665"><ele>899.0</ele><time>2026-04-07T08:45:22Z</time></trkpt><trkpt lat="44.15910273294764" lon="11.323424878228314"><ele>899.0</ele><time>2026-04-07T08:45:23Z</time></trkpt><trkpt lat="44.159255001898046" lon="11.323514536061007"><ele>899.0</ele><time>2026-04-07T08:45:23.999Z</time></trkpt><trkpt lat="44.159411258433344" lon="11.323611728371956"><ele>899.0</ele><time>2026-04-07T08:45:24.999Z</time></trkpt><trkpt lat="44.15956671528878" lon="11.323729465720467"><ele>899.0</ele><time>2026-04-07T08:45:25.999Z</time></trkpt><trkpt lat="44.15971114481328" lon="11.323880297014366"><ele>899.0</ele><time>2026-04-07T08:45:26.999Z</time></trkpt><trkpt lat="44.159830501476804" lon="11.32405833945087"><ele>899.0</ele><time>2026-04-07T08:45:27.999Z</time></trkpt><trkpt lat="44.15992472591477" lon="11.324278722340882"><ele>899.0</ele><time>2026-04-07T08:45:28.999Z</time></trkpt><trkpt lat="44.159993060934745" lon="11.324547869190848"><ele>899.0</ele><time>2026-04-07T08:45:29.999Z</time></trkpt><trkpt lat="44.16006120247819" lon="11.324850650436439"><ele>899.0</ele><time>2026-04-07T08:45:30.999Z</time></trkpt><trkpt lat="44.16015044168895" lon="11.325181057424167"><ele>894.5</ele><time>2026-04-07T08:45:31.999Z</time></trkpt><trkpt lat="44.1602583744192" lon="11.325515254803392"><ele>890.0</ele><time>2026-04-07T08:45:32.999Z</time></trkpt><trkpt lat="44.16037259292726" lon="11.32585105124988"><ele>886.0</ele><time>2026-04-07T08:45:33.999Z</time></trkpt><trkpt lat="44.16049575044866" lon="11.326208229042084"><ele>882.0</ele><time>2026-04-07T08:45:34.999Z</time></trkpt><trkpt lat="44.160626384750174" lon="11.326563782725355"><ele>885.0</ele><time>2026-04-07T08:45:35.999Z</time></trkpt><trkpt lat="44.16075321259024" lon="11.326875825170962"><ele>888.0</ele><time>2026-04-07T08:45:36.999Z</time></trkpt><trkpt lat="44.1608733713298" lon="11.32716447278696"><ele>886.3333333333333</ele><time>2026-04-07T08:45:37.999Z</time></trkpt><trkpt lat="44.16098339609038" lon="11.327430575249332"><ele>884.6666666666666</ele><time>2026-04-07T08:45:38.999Z</time></trkpt><trkpt lat="44.16107603848265" lon="11.327684134368049"><ele>883.0</ele><time>2026-04-07T08:45:39.999Z</time></trkpt><trkpt lat="44.16114308366899" lon="11.327935107481395"><ele>882.6666666666666</ele><time>2026-04-07T08:45:40.999Z</time></trkpt><trkpt lat="44.161189590817585" lon="11.328184661282137"><ele>882.3333333333333</ele><time>2026-04-07T08:45:41.999Z</time></trkpt><trkpt lat="44.16122648604144" lon="11.32843543780442"><ele>882.0</ele><time>2026-04-07T08:45:42.999Z</time></trkpt><trkpt lat="44.16125401267806" lon="11.328660745235915"><ele>882.0</ele><time>2026-04-07T08:45:43.999Z</time></trkpt><trkpt lat="44.16127956438565" lon="11.328863887562076"><ele>882.0</ele><time>2026-04-07T08:45:44.999Z</time></trkpt><trkpt lat="44.16131243085159" lon="11.32904543770303"><ele>882.0</ele><time>2026-04-07T08:45:45.999Z</time></trkpt><trkpt lat="44.1613606990714" lon="11.32921296881331"><ele>882.0</ele><time>2026-04-07T08:45:46.999Z</time></trkpt><trkpt lat="44.16143614960632" lon="11.329354829736797"><ele>881.75</ele><time>2026-04-07T08:45:47.999Z</time></trkpt><trkpt lat="44.16153985584637" lon="11.329473548407533"><ele>881.5</ele><time>2026-04-07T08:45:48.999Z</time></trkpt><trkpt lat="44.161669157925665" lon="11.329548974885641"><ele>881.25</ele><time>2026-04-07T08:45:49.999Z</time></trkpt><trkpt lat="44.16180754361166" lon="11.329616696493332"><ele>881.0</ele><time>2026-04-07T08:45:50.999Z</time></trkpt><trkpt lat="44.16194698038711" lon="11.32967060235014"><ele>881.0</ele><time>2026-04-07T08:45:51.999Z</time></trkpt><trkpt lat="44.16208927892083" lon="11.329700743783581"><ele>881.0</ele><time>2026-04-07T08:45:52.999Z</time></trkpt><trkpt lat="44.16223153237285" lon="11.329704557684847"><ele>881.0</ele><time>2026-04-07T08:45:53.999Z</time></trkpt><trkpt lat="44.16236719942522" lon="11.32969062479134"><ele>881.0</ele><time>2026-04-07T08:45:54.999Z</time></trkpt><trkpt lat="44.1625024986823" lon="11.329739616549713"><ele>877.0</ele><time>2026-04-07T08:45:55.999Z</time></trkpt><trkpt lat="44.16262547790041" lon="11.329818729360676"><ele>873.0</ele><time>2026-04-07T08:45:56.999Z</time></trkpt><trkpt lat="44.16272040427331" lon="11.32995173915471"><ele>869.0</ele><time>2026-04-07T08:45:57.999Z</time></trkpt><trkpt lat="44.16280683593971" lon="11.33008650961437"><ele>865.0</ele><time>2026-04-07T08:45:58.999Z</time></trkpt><trkpt lat="44.16285444775016" lon="11.33025982388295"><ele>865.0</ele><time>2026-04-07T08:45:59.999Z</time></trkpt><trkpt lat="44.16286791886983" lon="11.330437138354332"><ele>865.0</ele><time>2026-04-07T08:46:00.999Z</time></trkpt><trkpt lat="44.162846983804265" lon="11.330608979362914"><ele>865.0</ele><time>2026-04-07T08:46:01.999Z</time></trkpt><trkpt lat="44.16281248496594" lon="11.330771111452956"><ele>865.0</ele><time>2026-04-07T08:46:02.999Z</time></trkpt><trkpt lat="44.16279531447765" lon="11.3309317966453"><ele>862.25</ele><time>2026-04-07T08:46:03.999Z</time></trkpt><trkpt lat="44.16280494867288" lon="11.331092627167898"><ele>859.5</ele><time>2026-04-07T08:46:04.999Z</time></trkpt><trkpt lat="44.162825427599415" lon="11.33124588455902"><ele>856.75</ele><time>2026-04-07T08:46:05.999Z</time></trkpt><trkpt lat="44.16293426549155" lon="11.331349908116891"><ele>854.0</ele><time>2026-04-07T08:46:06.999Z</time></trkpt><trkpt lat="44.163038400728574" lon="11.331419903751469"><ele>853.25</ele><time>2026-04-07T08:46:07.999Z</time></trkpt><trkpt lat="44.16315439665329" lon="11.331486240997705"><ele>852.5</ele><time>2026-04-07T08:46:08.999Z</time></trkpt><trkpt lat="44.16327525450212" lon="11.331575163209209"><ele>851.75</ele><time>2026-04-07T08:46:09.999Z</time></trkpt><trkpt lat="44.1633905646357" lon="11.331670626332581"><ele>851.0</ele><time>2026-04-07T08:46:10.999Z</time></trkpt><trkpt lat="44.16351227790802" lon="11.331769700699347"><ele>851.0</ele><time>2026-04-07T08:46:11.999Z</time></trkpt><trkpt lat="44.1636308314072" lon="11.33187363932275"><ele>851.0</ele><time>2026-04-07T08:46:12.999Z</time></trkpt><trkpt lat="44.163742399193836" lon="11.331994001046285"><ele>851.0</ele><time>2026-04-07T08:46:13.999Z</time></trkpt><trkpt lat="44.16384360339101" lon="11.332136250977289"><ele>851.0</ele><time>2026-04-07T08:46:14.999Z</time></trkpt><trkpt lat="44.163928803444385" lon="11.332287097740167"><ele>851.5</ele><time>2026-04-07T08:46:15.999Z</time></trkpt><trkpt lat="44.16401468501709" lon="11.332435241501535"><ele>852.0</ele><time>2026-04-07T08:46:16.999Z</time></trkpt><trkpt lat="44.164079418008065" lon="11.332596321114544"><ele>852.5</ele><time>2026-04-07T08:46:17.999Z</time></trkpt><trkpt lat="44.16416872401287" lon="11.332733253132675"><ele>853.0</ele><time>2026-04-07T08:46:18.999Z</time></trkpt><trkpt lat="44.16427009544271" lon="11.332845335520824"><ele>853.0</ele><time>2026-04-07T08:46:19.999Z</time></trkpt><trkpt lat="44.164359905499246" lon="11.332973178427919"><ele>853.0</ele><time>2026-04-07T08:46:20.999Z</time></trkpt><trkpt lat="44.164437773316436" lon="11.33312014258242"><ele>853.0</ele><time>2026-04-07T08:46:21.999Z</time></trkpt><trkpt lat="44.164491513059346" lon="11.33329862969366"><ele>853.0</ele><time>2026-04-07T08:46:22.999Z</time></trkpt><trkpt lat="44.16452138450419" lon="11.333494030541893"><ele>852.0</ele><time>2026-04-07T08:46:23.999Z</time></trkpt><trkpt lat="44.164557853569015" lon="11.33366074358818"><ele>851.0</ele><time>2026-04-07T08:46:24.999Z</time></trkpt><trkpt lat="44.16459546825928" lon="11.333837178347299"><ele>850.0</ele><time>2026-04-07T08:46:25.999Z</time></trkpt><trkpt lat="44.16466116451073" lon="11.334005210047255"><ele>849.0</ele><time>2026-04-07T08:46:26.999Z</time></trkpt><trkpt lat="44.16474628021528" lon="11.334161390013204"><ele>849.0</ele><time>2026-04-07T08:46:27.999Z</time></trkpt><trkpt lat="44.164847149262414" lon="11.334315908472442"><ele>849.0</ele><time>2026-04-07T08:46:28.999Z</time></trkpt><trkpt lat="44.16495459591451" lon="11.334466233578055"><ele>849.0</ele><time>2026-04-07T08:46:29.999Z</time></trkpt><trkpt lat="44.165066316236626" lon="11.334622872843678"><ele>849.5</ele><time>2026-04-07T08:46:30.999Z</time></trkpt><trkpt lat="44.16517674082855" lon="11.334778532515436"><ele>850.0</ele><time>2026-04-07T08:46:31.999Z</time></trkpt><trkpt lat="44.165272237156984" lon="11.33492255157828"><ele>850.5</ele><time>2026-04-07T08:46:32.999Z</time></trkpt><trkpt lat="44.16532755519193" lon="11.3350845068074"><ele>851.0</ele><time>2026-04-07T08:46:33.999Z</time></trkpt><trkpt lat="44.16536531404801" lon="11.335258860566375"><ele>851.0</ele><time>2026-04-07T08:46:34.999Z</time></trkpt><trkpt lat="44.1653833591841" lon="11.335456532824484"><ele>851.0</ele><time>2026-04-07T08:46:35.999Z</time></trkpt><trkpt lat="44.165403767760395" lon="11.335659761212062"><ele>851.0</ele><time>2026-04-07T08:46:36.999Z</time></trkpt><trkpt lat="44.16542862659341" lon="11.335832217135453"><ele>851.0</ele><time>2026-04-07T08:46:37.999Z</time></trkpt><trkpt lat="44.16543962648549" lon="11.335972640166743"><ele>851.1999999999999</ele><time>2026-04-07T08:46:38.999Z</time></trkpt><trkpt lat="44.16545233605609" lon="11.336080352361508"><ele>851.4</ele><time>2026-04-07T08:46:39.999Z</time></trkpt><trkpt lat="44.16548452144816" lon="11.336164924400117"><ele>851.6</ele><time>2026-04-07T08:46:40.999Z</time></trkpt><trkpt lat="44.16554989296333" lon="11.336233333839868"><ele>851.8</ele><time>2026-04-07T08:46:41.999Z</time></trkpt><trkpt lat="44.16565046600195" lon="11.336248795921351"><ele>852.0</ele><time>2026-04-07T08:46:42.999Z</time></trkpt><trkpt lat="44.16577120101959" lon="11.33622596585521"><ele>854.5</ele><time>2026-04-07T08:46:43.999Z</time></trkpt><trkpt lat="44.16590855673744" lon="11.336190886961017"><ele>857.0</ele><time>2026-04-07T08:46:44.999Z</time></trkpt><trkpt lat="44.16603272806046" lon="11.336079445486126"><ele>859.5</ele><time>2026-04-07T08:46:45.999Z</time></trkpt><trkpt lat="44.16615717491434" lon="11.335972123096626"><ele>862.0</ele><time>2026-04-07T08:46:47Z</time></trkpt><trkpt lat="44.16629155010198" lon="11.335838328253125"><ele>862.0</ele><time>2026-04-07T08:46:48Z</time></trkpt><trkpt lat="44.16642958303281" lon="11.335725742343213"><ele>862.0</ele><time>2026-04-07T08:46:49Z</time></trkpt><trkpt lat="44.16656981240409" lon="11.335591232138725"><ele>862.0</ele><time>2026-04-07T08:46:50Z</time></trkpt><trkpt lat="44.1666983267271" lon="11.335471031354572"><ele>864.0</ele><time>2026-04-07T08:46:51Z</time></trkpt><trkpt lat="44.166831136649535" lon="11.335352058393537"><ele>866.0</ele><time>2026-04-07T08:46:52Z</time></trkpt><trkpt lat="44.16696698524454" lon="11.33523021857146"><ele>868.0</ele><time>2026-04-07T08:46:53Z</time></trkpt><trkpt lat="44.16709789133523" lon="11.335109823181666"><ele>868.0</ele><time>2026-04-07T08:46:54Z</time></trkpt><trkpt lat="44.167209649477655" lon="11.335007918955016"><ele>868.0</ele><time>2026-04-07T08:46:54.999Z</time></trkpt><trkpt lat="44.16731264413872" lon="11.33492300674447"><ele>868.0</ele><time>2026-04-07T08:46:56Z</time></trkpt><trkpt lat="44.16740468315983" lon="11.33485743556025"><ele>868.0</ele><time>2026-04-07T08:46:57Z</time></trkpt><trkpt lat="44.16747357701847" lon="11.334779022891508"><ele>868.0</ele><time>2026-04-07T08:46:57.999Z</time></trkpt><trkpt lat="44.16751575903286" lon="11.334669886029962"><ele>868.8</ele><time>2026-04-07T08:46:59Z</time></trkpt><trkpt lat="44.16753226931106" lon="11.334540397039047"><ele>869.5999999999999</ele><time>2026-04-07T08:47:00Z</time></trkpt><trkpt lat="44.1675121705447" lon="11.334402687414098"><ele>870.4000000000001</ele><time>2026-04-07T08:47:01Z</time></trkpt><trkpt lat="44.1674586309056" lon="11.334266005130068"><ele>871.2</ele><time>2026-04-07T08:47:02Z</time></trkpt><trkpt lat="44.1673814726658" lon="11.334129918540501"><ele>872.0</ele><time>2026-04-07T08:47:03Z</time></trkpt><trkpt lat="44.167297262648496" lon="11.333985662853983"><ele>874.25</ele><time>2026-04-07T08:47:04Z</time></trkpt><trkpt lat="44.16723906398507" lon="11.333816154244202"><ele>876.5</ele><time>2026-04-07T08:47:05Z</time></trkpt><trkpt lat="44.16717431064148" lon="11.333680742379157"><ele>878.75</ele><time>2026-04-07T08:47:06Z</time></trkpt><trkpt lat="44.16715087539414" lon="11.333529533033223"><ele>881.0</ele><time>2026-04-07T08:47:06.999Z</time></trkpt><trkpt lat="44.16717474964881" lon="11.33337739478018"><ele>881.0</ele><time>2026-04-07T08:47:07.999Z</time></trkpt><trkpt lat="44.16724079386476" lon="11.333255582484119"><ele>881.0</ele><time>2026-04-07T08:47:08.999Z</time></trkpt><trkpt lat="44.16733759306199" lon="11.333135382963741"><ele>881.0</ele><time>2026-04-07T08:47:09.999Z</time></trkpt><trkpt lat="44.16744545393586" lon="11.332984722380154"><ele>881.0</ele><time>2026-04-07T08:47:10.999Z</time></trkpt><trkpt lat="44.167554909446906" lon="11.332808916951238"><ele>883.5</ele><time>2026-04-07T08:47:11.999Z</time></trkpt><trkpt lat="44.16765713801808" lon="11.332642663660595"><ele>886.0</ele><time>2026-04-07T08:47:12.999Z</time></trkpt><trkpt lat="44.16774708312401" lon="11.332530624429745"><ele>888.5</ele><time>2026-04-07T08:47:13.999Z</time></trkpt><trkpt lat="44.16785954161989" lon="11.332484931469192"><ele>891.0</ele><time>2026-04-07T08:47:14.999Z</time></trkpt><trkpt lat="44.16797833677725" lon="11.332555675657899"><ele>891.0</ele><time>2026-04-07T08:47:15.999Z</time></trkpt><trkpt lat="44.168124168362205" lon="11.332589368138382"><ele>891.0</ele><time>2026-04-07T08:47:16.999Z</time></trkpt><trkpt lat="44.16827998829683" lon="11.332667952450262"><ele>891.0</ele><time>2026-04-07T08:47:17.999Z</time></trkpt><trkpt lat="44.16846552029194" lon="11.332727747265732"><ele>896.3333333333333</ele><time>2026-04-07T08:47:18.999Z</time></trkpt><trkpt lat="44.16866782073525" lon="11.332794227976164"><ele>901.6666666666666</ele><time>2026-04-07T08:47:19.999Z</time></trkpt><trkpt lat="44.168864931098156" lon="11.332858679071668"><ele>907.0</ele><time>2026-04-07T08:47:20.999Z</time></trkpt><trkpt lat="44.16906571820478" lon="11.33291802264055"><ele>910.6666666666666</ele><time>2026-04-07T08:47:21.999Z</time></trkpt><trkpt lat="44.169249953165455" lon="11.332947296409648"><ele>914.3333333333333</ele><time>2026-04-07T08:47:22.999Z</time></trkpt><trkpt lat="44.16943409300202" lon="11.3329217913148"><ele>918.0</ele><time>2026-04-07T08:47:23.999Z</time></trkpt><trkpt lat="44.169640508391545" lon="11.332835126121218"><ele>918.0</ele><time>2026-04-07T08:47:24.999Z</time></trkpt><trkpt lat="44.169858459428134" lon="11.332717295992428"><ele>918.0</ele><time>2026-04-07T08:47:25.999Z</time></trkpt><trkpt lat="44.17008384546034" lon="11.33261072837047"><ele>920.3333333333333</ele><time>2026-04-07T08:47:26.999Z</time></trkpt><trkpt lat="44.17028315965708" lon="11.332568509462773"><ele>922.6666666666666</ele><time>2026-04-07T08:47:27.999Z</time></trkpt><trkpt lat="44.17043055626892" lon="11.33254513355234"><ele>925.0</ele><time>2026-04-07T08:47:28.999Z</time></trkpt><trkpt lat="44.17054994027931" lon="11.332547375065209"><ele>925.0</ele><time>2026-04-07T08:47:29.999Z</time></trkpt><trkpt lat="44.17065063773982" lon="11.33264129679327"><ele>925.0</ele><time>2026-04-07T08:47:30.999Z</time></trkpt><trkpt lat="44.170703641987686" lon="11.332810043090074"><ele>925.0</ele><time>2026-04-07T08:47:31.999Z</time></trkpt><trkpt lat="44.170754990387444" lon="11.332997523507208"><ele>925.0</ele><time>2026-04-07T08:47:32.999Z</time></trkpt><trkpt lat="44.17081573601399" lon="11.33321132162854"><ele>925.0</ele><time>2026-04-07T08:47:33.999Z</time></trkpt><trkpt lat="44.17084452193592" lon="11.33345954123564"><ele>925.0</ele><time>2026-04-07T08:47:34.999Z</time></trkpt><trkpt lat="44.170869034289154" lon="11.333720507361285"><ele>925.0</ele><time>2026-04-07T08:47:35.999Z</time></trkpt><trkpt lat="44.17092328482232" lon="11.333985067838611"><ele>925.0</ele><time>2026-04-07T08:47:36.999Z</time></trkpt><trkpt lat="44.17101880250188" lon="11.334224248648173"><ele>925.0</ele><time>2026-04-07T08:47:37.999Z</time></trkpt><trkpt lat="44.1711606565151" lon="11.334451165441479"><ele>925.0</ele><time>2026-04-07T08:47:38.999Z</time></trkpt><trkpt lat="44.17131874538523" lon="11.334675789628136"><ele>924.0</ele><time>2026-04-07T08:47:39.999Z</time></trkpt><trkpt lat="44.171468196339625" lon="11.33493510006717"><ele>923.0</ele><time>2026-04-07T08:47:40.999Z</time></trkpt><trkpt lat="44.171609093509495" lon="11.335214600068898"><ele>931.5</ele><time>2026-04-07T08:47:41.999Z</time></trkpt><trkpt lat="44.17173523910458" lon="11.335491770045483"><ele>940.0</ele><time>2026-04-07T08:47:42.999Z</time></trkpt><trkpt lat="44.17185539423468" lon="11.335767545824453"><ele>940.0</ele><time>2026-04-07T08:47:43.999Z</time></trkpt><trkpt lat="44.171972659800694" lon="11.336037052785928"><ele>940.0</ele><time>2026-04-07T08:47:44.999Z</time></trkpt><trkpt lat="44.17207417827734" lon="11.336276047309559"><ele>940.0</ele><time>2026-04-07T08:47:45.999Z</time></trkpt><trkpt lat="44.172160833462485" lon="11.336497065297802"><ele>939.3333333333333</ele><time>2026-04-07T08:47:46.999Z</time></trkpt><trkpt lat="44.172221209593346" lon="11.336731076272269"><ele>938.6666666666667</ele><time>2026-04-07T08:47:47.999Z</time></trkpt><trkpt lat="44.17223887779376" lon="11.336975065551643"><ele>938.0</ele><time>2026-04-07T08:47:48.999Z</time></trkpt><trkpt lat="44.17224413907026" lon="11.337205452471599"><ele>938.0</ele><time>2026-04-07T08:47:49.999Z</time></trkpt><trkpt lat="44.1722752663679" lon="11.337420258112077"><ele>938.0</ele><time>2026-04-07T08:47:50.999Z</time></trkpt><trkpt lat="44.17235447145242" lon="11.337635239613247"><ele>938.0</ele><time>2026-04-07T08:47:51.999Z</time></trkpt><trkpt lat="44.17245642989007" lon="11.337848660965353"><ele>943.75</ele><time>2026-04-07T08:47:52.999Z</time></trkpt><trkpt lat="44.17254151208014" lon="11.338034794389692"><ele>949.5</ele><time>2026-04-07T08:47:53.999Z</time></trkpt><trkpt lat="44.172606833096765" lon="11.338192592267673"><ele>955.25</ele><time>2026-04-07T08:47:54.999Z</time></trkpt><trkpt lat="44.17266288796213" lon="11.338319876269074"><ele>961.0</ele><time>2026-04-07T08:47:55.999Z</time></trkpt><trkpt lat="44.17270948088899" lon="11.3384172859199"><ele>961.0</ele><time>2026-04-07T08:47:56.999Z</time></trkpt><trkpt lat="44.172742867007756" lon="11.338498051961798"><ele>960.9999999999999</ele><time>2026-04-07T08:47:57.999Z</time></trkpt><trkpt lat="44.17275850646461" lon="11.338626614187973"><ele>960.9999999999999</ele><time>2026-04-07T08:47:59.999Z</time></trkpt><trkpt lat="44.17280083134296" lon="11.338716488517237"><ele>961.0</ele><time>2026-04-07T08:48:03.999Z</time></trkpt><trkpt lat="44.17284164349148" lon="11.338794556870893"><ele>961.0</ele><time>2026-04-07T08:50:54Z</time></trkpt><trkpt lat="44.17297845751441" lon="11.338966219643705"><ele>961.0</ele><time>2026-04-07T08:51:19.034Z</time></trkpt><trkpt lat="44.173041383994914" lon="11.339042712261147"><ele>960.9999999999999</ele><time>2026-04-07T08:51:21.035Z</time></trkpt><trkpt lat="44.172924803266085" lon="11.338928534784232"><ele>960.9999999999999</ele><time>2026-04-07T08:51:43.216Z</time></trkpt><trkpt lat="44.17283392288032" lon="11.338840002593807"><ele>961.0</ele><time>2026-04-07T08:51:55.7Z</time></trkpt><trkpt lat="44.1728155208022" lon="11.338706362216666"><ele>961.0</ele><time>2026-04-07T09:29:10.999Z</time></trkpt><trkpt lat="44.1729051160221" lon="11.338724850632778"><ele>960.9999999999999</ele><time>2026-04-07T09:32:39Z</time></trkpt><trkpt lat="44.172989865706754" lon="11.33871027585994"><ele>961.0</ele><time>2026-04-07T09:32:41Z</time></trkpt><trkpt lat="44.17302617748924" lon="11.33861941948172"><ele>961.0</ele><time>2026-04-07T09:32:42.999Z</time></trkpt><trkpt lat="44.17306637363189" lon="11.338515457054203"><ele>961.0</ele><time>2026-04-07T09:32:44.999Z</time></trkpt><trkpt lat="44.17314299563972" lon="11.338435394063492"><ele>960.9999999999999</ele><time>2026-04-07T09:32:46.999Z</time></trkpt><trkpt lat="44.17323553825267" lon="11.33838142589173"><ele>961.0</ele><time>2026-04-07T09:32:48.999Z</time></trkpt><trkpt lat="44.17334717993939" lon="11.338314491057197"><ele>961.8</ele><time>2026-04-07T09:32:50.999Z</time></trkpt><trkpt lat="44.173444313382404" lon="11.338214464278634"><ele>962.5999999999999</ele><time>2026-04-07T09:32:52.999Z</time></trkpt><trkpt lat="44.1735038623765" lon="11.338123505871879"><ele>963.4</ele><time>2026-04-07T09:32:53.999Z</time></trkpt><trkpt lat="44.173550979744746" lon="11.338023830144586"><ele>964.2</ele><time>2026-04-07T09:32:54.999Z</time></trkpt><trkpt lat="44.17359598227251" lon="11.337916596890118"><ele>965.0</ele><time>2026-04-07T09:32:55.999Z</time></trkpt><trkpt lat="44.17363937094243" lon="11.337793919612393"><ele>965.8</ele><time>2026-04-07T09:32:56.999Z</time></trkpt><trkpt lat="44.17369676955197" lon="11.337665677917322"><ele>966.6</ele><time>2026-04-07T09:32:57.999Z</time></trkpt><trkpt lat="44.17376139959203" lon="11.337546277435928"><ele>967.4000000000001</ele><time>2026-04-07T09:32:58.999Z</time></trkpt><trkpt lat="44.17383415808213" lon="11.337438913397742"><ele>968.2</ele><time>2026-04-07T09:32:59.999Z</time></trkpt><trkpt lat="44.173918225251164" lon="11.337345961788527"><ele>969.0</ele><time>2026-04-07T09:33:00.999Z</time></trkpt><trkpt lat="44.17401075993273" lon="11.337261613894178"><ele>966.5</ele><time>2026-04-07T09:33:01.999Z</time></trkpt><trkpt lat="44.17410810714176" lon="11.337179507091726"><ele>964.0</ele><time>2026-04-07T09:33:02.999Z</time></trkpt><trkpt lat="44.17421304728364" lon="11.337097652343838"><ele>961.5</ele><time>2026-04-07T09:33:03.999Z</time></trkpt><trkpt lat="44.17432530973909" lon="11.337004241017294"><ele>959.0</ele><time>2026-04-07T09:33:04.999Z</time></trkpt><trkpt lat="44.17444064105291" lon="11.336902558902048"><ele>959.0</ele><time>2026-04-07T09:33:05.999Z</time></trkpt><trkpt lat="44.174558226266065" lon="11.33680546758185"><ele>959.0</ele><time>2026-04-07T09:33:06.999Z</time></trkpt><trkpt lat="44.17468340314028" lon="11.336715027435105"><ele>959.0</ele><time>2026-04-07T09:33:07.999Z</time></trkpt><trkpt lat="44.174811251895854" lon="11.336643879088607"><ele>959.0</ele><time>2026-04-07T09:33:08.999Z</time></trkpt><trkpt lat="44.174945468343196" lon="11.33659656740076"><ele>957.25</ele><time>2026-04-07T09:33:09.999Z</time></trkpt><trkpt lat="44.17507225794615" lon="11.336599665202986"><ele>955.5</ele><time>2026-04-07T09:33:10.999Z</time></trkpt><trkpt lat="44.175182693688434" lon="11.336683529396023"><ele>953.75</ele><time>2026-04-07T09:33:11.999Z</time></trkpt><trkpt lat="44.17529776203242" lon="11.336771787897103"><ele>952.0</ele><time>2026-04-07T09:33:12.999Z</time></trkpt><trkpt lat="44.17542209866893" lon="11.336859066398663"><ele>952.0</ele><time>2026-04-07T09:33:13.999Z</time></trkpt><trkpt lat="44.17552562602503" lon="11.337002102521904"><ele>952.0</ele><time>2026-04-07T09:33:14.999Z</time></trkpt><trkpt lat="44.175597755856295" lon="11.33718046295619"><ele>952.0</ele><time>2026-04-07T09:33:15.999Z</time></trkpt><trkpt lat="44.175665165544906" lon="11.337354628187107"><ele>952.0</ele><time>2026-04-07T09:33:16.999Z</time></trkpt><trkpt lat="44.17574379483155" lon="11.337500687749689"><ele>950.75</ele><time>2026-04-07T09:33:17.999Z</time></trkpt><trkpt lat="44.17583796150461" lon="11.337641071500347"><ele>949.5</ele><time>2026-04-07T09:33:18.999Z</time></trkpt><trkpt lat="44.17595534815023" lon="11.337747467724967"><ele>948.25</ele><time>2026-04-07T09:33:19.999Z</time></trkpt><trkpt lat="44.176090378008396" lon="11.337838343965455"><ele>947.0</ele><time>2026-04-07T09:33:20.999Z</time></trkpt><trkpt lat="44.176223918487594" lon="11.3379134642934"><ele>947.0</ele><time>2026-04-07T09:33:21.999Z</time></trkpt><trkpt lat="44.176360913063824" lon="11.33799863452585"><ele>947.0</ele><time>2026-04-07T09:33:22.999Z</time></trkpt><trkpt lat="44.17650970667309" lon="11.338084780051211"><ele>947.0</ele><time>2026-04-07T09:33:23.999Z</time></trkpt><trkpt lat="44.17665092137031" lon="11.338171059626843"><ele>942.5</ele><time>2026-04-07T09:33:24.999Z</time></trkpt><trkpt lat="44.1767766888625" lon="11.33821602142217"><ele>938.0</ele><time>2026-04-07T09:33:25.999Z</time></trkpt><trkpt lat="44.17688292303468" lon="11.338241945589436"><ele>933.5</ele><time>2026-04-07T09:33:26.999Z</time></trkpt><trkpt lat="44.176995671401436" lon="11.338210638451786"><ele>929.0</ele><time>2026-04-07T09:33:27.999Z</time></trkpt><trkpt lat="44.17711000834046" lon="11.338116803390696"><ele>931.25</ele><time>2026-04-07T09:33:28.999Z</time></trkpt><trkpt lat="44.17720454066733" lon="11.337976865108189"><ele>933.5</ele><time>2026-04-07T09:33:29.999Z</time></trkpt><trkpt lat="44.17727091060469" lon="11.337808111274068"><ele>935.75</ele><time>2026-04-07T09:33:30.999Z</time></trkpt><trkpt lat="44.17730618085173" lon="11.33762942634132"><ele>938.0</ele><time>2026-04-07T09:33:31.999Z</time></trkpt><trkpt lat="44.17730627097014" lon="11.337450617880128"><ele>938.0</ele><time>2026-04-07T09:33:32.999Z</time></trkpt><trkpt lat="44.1772678318912" lon="11.337278593700429"><ele>938.0</ele><time>2026-04-07T09:33:33.999Z</time></trkpt><trkpt lat="44.177215280603974" lon="11.3371309668544"><ele>938.0</ele><time>2026-04-07T09:33:34.999Z</time></trkpt><trkpt lat="44.17721966114228" lon="11.336979672056705"><ele>938.0</ele><time>2026-04-07T09:33:35.999Z</time></trkpt><trkpt lat="44.17727755871198" lon="11.336839781622727"><ele>938.0</ele><time>2026-04-07T09:33:36.999Z</time></trkpt><trkpt lat="44.17737378369403" lon="11.336717243918459"><ele>938.0</ele><time>2026-04-07T09:33:37.999Z</time></trkpt><trkpt lat="44.177476588599745" lon="11.336586390348046"><ele>938.0</ele><time>2026-04-07T09:33:38.999Z</time></trkpt><trkpt lat="44.17758287047809" lon="11.336453417849748"><ele>938.0</ele><time>2026-04-07T09:33:39.999Z</time></trkpt><trkpt lat="44.17770716451833" lon="11.336342379212613"><ele>938.0</ele><time>2026-04-07T09:33:40.999Z</time></trkpt><trkpt lat="44.177837534102316" lon="11.3362514056735"><ele>938.0</ele><time>2026-04-07T09:33:41.999Z</time></trkpt><trkpt lat="44.17796295663911" lon="11.336184639289513"><ele>938.0</ele><time>2026-04-07T09:33:42.999Z</time></trkpt><trkpt lat="44.17809100926754" lon="11.336159193886697"><ele>938.0</ele><time>2026-04-07T09:33:43.999Z</time></trkpt><trkpt lat="44.17821548699525" lon="11.336198300916426"><ele>934.5</ele><time>2026-04-07T09:33:44.999Z</time></trkpt><trkpt lat="44.17832056294234" lon="11.336320950458191"><ele>931.0</ele><time>2026-04-07T09:33:45.999Z</time></trkpt><trkpt lat="44.178421292155626" lon="11.336448291722865"><ele>927.5</ele><time>2026-04-07T09:33:46.999Z</time></trkpt><trkpt lat="44.17852832691077" lon="11.336573166974272"><ele>924.0</ele><time>2026-04-07T09:33:47.999Z</time></trkpt><trkpt lat="44.17861264660561" lon="11.336703471572878"><ele>921.4000000000001</ele><time>2026-04-07T09:33:48.999Z</time></trkpt><trkpt lat="44.17869436470577" lon="11.336801950533687"><ele>918.8000000000001</ele><time>2026-04-07T09:33:49.999Z</time></trkpt><trkpt lat="44.178781434494574" lon="11.336848315674949"><ele>916.1999999999999</ele><time>2026-04-07T09:33:50.999Z</time></trkpt><trkpt lat="44.17888164873346" lon="11.336833636840819"><ele>913.5999999999999</ele><time>2026-04-07T09:33:51.999Z</time></trkpt><trkpt lat="44.178987166250316" lon="11.336757668497855"><ele>911.0</ele><time>2026-04-07T09:33:52.999Z</time></trkpt><trkpt lat="44.17907836062846" lon="11.33663008744687"><ele>908.25</ele><time>2026-04-07T09:33:53.999Z</time></trkpt><trkpt lat="44.17915166155855" lon="11.336482466724204"><ele>905.5</ele><time>2026-04-07T09:33:54.999Z</time></trkpt><trkpt lat="44.179196500131404" lon="11.336324085900682"><ele>902.75</ele><time>2026-04-07T09:33:55.999Z</time></trkpt><trkpt lat="44.17919355197756" lon="11.336160961246756"><ele>900.0</ele><time>2026-04-07T09:33:56.999Z</time></trkpt><trkpt lat="44.179175272880705" lon="11.335990284629135"><ele>900.0</ele><time>2026-04-07T09:33:57.999Z</time></trkpt><trkpt lat="44.179162307556425" lon="11.335805299049387"><ele>900.0</ele><time>2026-04-07T09:33:58.999Z</time></trkpt><trkpt lat="44.17916995462884" lon="11.33563638180018"><ele>900.0</ele><time>2026-04-07T09:33:59.999Z</time></trkpt><trkpt lat="44.179210270836" lon="11.33548920147473"><ele>900.0</ele><time>2026-04-07T09:34:00.999Z</time></trkpt><trkpt lat="44.1793151544002" lon="11.335393296164517"><ele>905.25</ele><time>2026-04-07T09:34:01.999Z</time></trkpt><trkpt lat="44.17943480135825" lon="11.335308837416193"><ele>910.5</ele><time>2026-04-07T09:34:02.999Z</time></trkpt><trkpt lat="44.1795573017975" lon="11.33520651264048"><ele>915.75</ele><time>2026-04-07T09:34:03.999Z</time></trkpt><trkpt lat="44.17970096023465" lon="11.335137119013279"><ele>921.0</ele><time>2026-04-07T09:34:04.999Z</time></trkpt><trkpt lat="44.1798496425761" lon="11.33506088997322"><ele>912.6666666666667</ele><time>2026-04-07T09:34:05.999Z</time></trkpt><trkpt lat="44.18001150041915" lon="11.334991740093974"><ele>904.3333333333334</ele><time>2026-04-07T09:34:06.999Z</time></trkpt><trkpt lat="44.18018203688128" lon="11.334977863368627"><ele>896.0</ele><time>2026-04-07T09:34:07.999Z</time></trkpt><trkpt lat="44.18035581544931" lon="11.334965828325487"><ele>896.0</ele><time>2026-04-07T09:34:08.999Z</time></trkpt><trkpt lat="44.18052698229982" lon="11.33493718163014"><ele>896.0</ele><time>2026-04-07T09:34:09.999Z</time></trkpt><trkpt lat="44.180691493031084" lon="11.334934206889608"><ele>896.0</ele><time>2026-04-07T09:34:10.999Z</time></trkpt><trkpt lat="44.18085226761184" lon="11.334940334142548"><ele>895.25</ele><time>2026-04-07T09:34:11.999Z</time></trkpt><trkpt lat="44.1809914880015" lon="11.335003554146663"><ele>894.5</ele><time>2026-04-07T09:34:12.999Z</time></trkpt><trkpt lat="44.18113491035209" lon="11.335054373310314"><ele>893.75</ele><time>2026-04-07T09:34:13.999Z</time></trkpt><trkpt lat="44.18125453949397" lon="11.335182033824182"><ele>893.0</ele><time>2026-04-07T09:34:14.999Z</time></trkpt><trkpt lat="44.18136813477992" lon="11.335313974811298"><ele>893.0</ele><time>2026-04-07T09:34:15.999Z</time></trkpt><trkpt lat="44.18148349039422" lon="11.335431006899654"><ele>893.0</ele><time>2026-04-07T09:34:16.999Z</time></trkpt><trkpt lat="44.181591309827034" lon="11.335538326809461"><ele>893.0</ele><time>2026-04-07T09:34:17.999Z</time></trkpt><trkpt lat="44.181719822817676" lon="11.335569173283796"><ele>893.0</ele><time>2026-04-07T09:34:18.999Z</time></trkpt><trkpt lat="44.18186563801768" lon="11.335547253974699"><ele>892.6666666666667</ele><time>2026-04-07T09:34:19.999Z</time></trkpt><trkpt lat="44.18200697179407" lon="11.33550159560922"><ele>892.3333333333333</ele><time>2026-04-07T09:34:20.999Z</time></trkpt><trkpt lat="44.18215376496191" lon="11.335463995284796"><ele>892.0</ele><time>2026-04-07T09:34:21.999Z</time></trkpt><trkpt lat="44.18230539927082" lon="11.335413806560803"><ele>890.0</ele><time>2026-04-07T09:34:22.999Z</time></trkpt><trkpt lat="44.18244922967704" lon="11.335344381305639"><ele>888.0</ele><time>2026-04-07T09:34:23.999Z</time></trkpt><trkpt lat="44.182594068442114" lon="11.335275559434738"><ele>886.0</ele><time>2026-04-07T09:34:24.999Z</time></trkpt><trkpt lat="44.182742295776265" lon="11.335224057651264"><ele>886.0</ele><time>2026-04-07T09:34:25.999Z</time></trkpt><trkpt lat="44.182904099266246" lon="11.335206939074235"><ele>886.0</ele><time>2026-04-07T09:34:26.999Z</time></trkpt><trkpt lat="44.18307324855927" lon="11.335237596627918"><ele>886.0</ele><time>2026-04-07T09:34:27.999Z</time></trkpt><trkpt lat="44.183243473546966" lon="11.335271401600862"><ele>883.6666666666666</ele><time>2026-04-07T09:34:28.999Z</time></trkpt><trkpt lat="44.18340970739998" lon="11.33529946200512"><ele>881.3333333333333</ele><time>2026-04-07T09:34:29.999Z</time></trkpt><trkpt lat="44.183571640407784" lon="11.335307009806938"><ele>879.0</ele><time>2026-04-07T09:34:30.999Z</time></trkpt><trkpt lat="44.18373079181507" lon="11.335283018576268"><ele>879.0</ele><time>2026-04-07T09:34:31.999Z</time></trkpt><trkpt lat="44.18389304637874" lon="11.335221170068614"><ele>879.0</ele><time>2026-04-07T09:34:32.999Z</time></trkpt><trkpt lat="44.184055920173265" lon="11.335144268501896"><ele>879.0</ele><time>2026-04-07T09:34:33.999Z</time></trkpt><trkpt lat="44.18422230557665" lon="11.33505329365279"><ele>875.0</ele><time>2026-04-07T09:34:34.999Z</time></trkpt><trkpt lat="44.18439115786308" lon="11.334964393160766"><ele>871.0</ele><time>2026-04-07T09:34:35.999Z</time></trkpt><trkpt lat="44.184561097132146" lon="11.334855661316949"><ele>867.0</ele><time>2026-04-07T09:34:36.999Z</time></trkpt><trkpt lat="44.18472652075236" lon="11.33473292681102"><ele>869.0</ele><time>2026-04-07T09:34:37.999Z</time></trkpt><trkpt lat="44.18488130868762" lon="11.334606448731783"><ele>871.0</ele><time>2026-04-07T09:34:38.999Z</time></trkpt><trkpt lat="44.18501548842924" lon="11.334490047417606"><ele>873.0</ele><time>2026-04-07T09:34:39.999Z</time></trkpt><trkpt lat="44.18514158309876" lon="11.33439603962713"><ele>873.0</ele><time>2026-04-07T09:34:40.999Z</time></trkpt><trkpt lat="44.18527941801903" lon="11.334347657003548"><ele>873.0</ele><time>2026-04-07T09:34:41.999Z</time></trkpt><trkpt lat="44.185419950966796" lon="11.33435513324017"><ele>873.0</ele><time>2026-04-07T09:34:42.999Z</time></trkpt><trkpt lat="44.18556291278946" lon="11.334390722115497"><ele>873.0</ele><time>2026-04-07T09:34:43.999Z</time></trkpt><trkpt lat="44.185710147319185" lon="11.3344321377396"><ele>869.0</ele><time>2026-04-07T09:34:44.999Z</time></trkpt><trkpt lat="44.185855033267046" lon="11.33445115321227"><ele>865.0</ele><time>2026-04-07T09:34:45.999Z</time></trkpt><trkpt lat="44.1859902535503" lon="11.334424024668426"><ele>861.0</ele><time>2026-04-07T09:34:46.999Z</time></trkpt><trkpt lat="44.186118403318204" lon="11.33435985018176"><ele>857.0</ele><time>2026-04-07T09:34:47.999Z</time></trkpt><trkpt lat="44.1862324784858" lon="11.33425376092548"><ele>857.0</ele><time>2026-04-07T09:34:48.999Z</time></trkpt><trkpt lat="44.18632397947034" lon="11.334083013545213"><ele>857.0</ele><time>2026-04-07T09:34:49.999Z</time></trkpt><trkpt lat="44.186363718237246" lon="11.333991258342236"><ele>857.0</ele><time>2026-04-07T09:34:50.999Z</time></trkpt><trkpt lat="44.18642992148328" lon="11.33382194418604"><ele>857.0</ele><time>2026-04-07T09:34:51.999Z</time></trkpt><trkpt lat="44.186547577536686" lon="11.333731349023399"><ele>855.5</ele><time>2026-04-07T09:34:52.999Z</time></trkpt><trkpt lat="44.18667157548758" lon="11.33369462428244"><ele>854.0</ele><time>2026-04-07T09:34:53.999Z</time></trkpt><trkpt lat="44.186798745048286" lon="11.33366855470719"><ele>852.5</ele><time>2026-04-07T09:34:54.999Z</time></trkpt><trkpt lat="44.186927642112224" lon="11.333655930952872"><ele>851.0</ele><time>2026-04-07T09:34:55.999Z</time></trkpt><trkpt lat="44.18705186475289" lon="11.33362715308734"><ele>851.0</ele><time>2026-04-07T09:34:56.999Z</time></trkpt><trkpt lat="44.18716660400069" lon="11.333602006027357"><ele>851.0</ele><time>2026-04-07T09:34:57.999Z</time></trkpt><trkpt lat="44.18726491568416" lon="11.333521829290179"><ele>851.0</ele><time>2026-04-07T09:34:58.999Z</time></trkpt><trkpt lat="44.187334660017704" lon="11.333388957346513"><ele>851.0</ele><time>2026-04-07T09:34:59.999Z</time></trkpt><trkpt lat="44.18739550996554" lon="11.333238572569918"><ele>851.25</ele><time>2026-04-07T09:35:00.999Z</time></trkpt><trkpt lat="44.187474358292924" lon="11.333094063155661"><ele>851.5</ele><time>2026-04-07T09:35:01.999Z</time></trkpt><trkpt lat="44.187567145296285" lon="11.332982351854788"><ele>851.75</ele><time>2026-04-07T09:35:02.999Z</time></trkpt><trkpt lat="44.187671267343774" lon="11.332918310575984"><ele>852.0</ele><time>2026-04-07T09:35:03.999Z</time></trkpt><trkpt lat="44.18778444526448" lon="11.33288508135063"><ele>852.0</ele><time>2026-04-07T09:35:04.999Z</time></trkpt><trkpt lat="44.18790618779332" lon="11.332858807067732"><ele>852.0</ele><time>2026-04-07T09:35:05.999Z</time></trkpt><trkpt lat="44.18803677998783" lon="11.332869573211646"><ele>852.0</ele><time>2026-04-07T09:35:06.999Z</time></trkpt><trkpt lat="44.18816994596419" lon="11.332890462913111"><ele>852.0</ele><time>2026-04-07T09:35:07.999Z</time></trkpt><trkpt lat="44.18828303719329" lon="11.332929961631432"><ele>851.0</ele><time>2026-04-07T09:35:08.999Z</time></trkpt><trkpt lat="44.188391586717806" lon="11.332978208472355"><ele>850.0</ele><time>2026-04-07T09:35:09.999Z</time></trkpt><trkpt lat="44.18850737108349" lon="11.333047893922604"><ele>849.0</ele><time>2026-04-07T09:35:10.999Z</time></trkpt><trkpt lat="44.188644193340416" lon="11.333120758786134"><ele>848.0</ele><time>2026-04-07T09:35:11.999Z</time></trkpt><trkpt lat="44.188794562347" lon="11.33318079088736"><ele>844.0</ele><time>2026-04-07T09:35:12.999Z</time></trkpt><trkpt lat="44.18894125383586" lon="11.333254764984115"><ele>840.0</ele><time>2026-04-07T09:35:13.999Z</time></trkpt><trkpt lat="44.18906963018649" lon="11.333359216186835"><ele>836.0</ele><time>2026-04-07T09:35:14.999Z</time></trkpt><trkpt lat="44.18915536773146" lon="11.3335259727816"><ele>836.0</ele><time>2026-04-07T09:35:15.999Z</time></trkpt><trkpt lat="44.18924218625736" lon="11.333707934499095"><ele>836.0</ele><time>2026-04-07T09:35:16.999Z</time></trkpt><trkpt lat="44.18933400494437" lon="11.333906272616652"><ele>836.0</ele><time>2026-04-07T09:35:17.999Z</time></trkpt><trkpt lat="44.18940641246615" lon="11.334121251396468"><ele>831.5</ele><time>2026-04-07T09:35:18.999Z</time></trkpt><trkpt lat="44.18947985702681" lon="11.334323847541068"><ele>827.0</ele><time>2026-04-07T09:35:19.999Z</time></trkpt><trkpt lat="44.18955332772821" lon="11.334510019668002"><ele>822.5</ele><time>2026-04-07T09:35:20.999Z</time></trkpt><trkpt lat="44.18962230953207" lon="11.33466691344042"><ele>818.0</ele><time>2026-04-07T09:35:21.999Z</time></trkpt><trkpt lat="44.18970153790378" lon="11.334783729693736"><ele>815.5</ele><time>2026-04-07T09:35:22.999Z</time></trkpt><trkpt lat="44.189811745383636" lon="11.33485389716768"><ele>813.0</ele><time>2026-04-07T09:35:23.999Z</time></trkpt><trkpt lat="44.18994095070452" lon="11.334859834624545"><ele>810.5</ele><time>2026-04-07T09:35:24.999Z</time></trkpt><trkpt lat="44.19007936445418" lon="11.334800388195388"><ele>808.0</ele><time>2026-04-07T09:35:25.999Z</time></trkpt><trkpt lat="44.19021912943388" lon="11.334733042455927"><ele>811.0</ele><time>2026-04-07T09:35:26.999Z</time></trkpt><trkpt lat="44.19037265815879" lon="11.33469510868025"><ele>814.0</ele><time>2026-04-07T09:35:27.999Z</time></trkpt><trkpt lat="44.19053196690397" lon="11.33462316820852"><ele>817.0</ele><time>2026-04-07T09:35:28.999Z</time></trkpt><trkpt lat="44.190699595541105" lon="11.334568231583228"><ele>817.0</ele><time>2026-04-07T09:35:29.999Z</time></trkpt><trkpt lat="44.19087004615482" lon="11.334513419364038"><ele>817.0</ele><time>2026-04-07T09:35:30.999Z</time></trkpt><trkpt lat="44.191046234520925" lon="11.3344556208389"><ele>817.0</ele><time>2026-04-07T09:35:31.999Z</time></trkpt><trkpt lat="44.19121949259208" lon="11.334367268004158"><ele>817.0</ele><time>2026-04-07T09:35:32.999Z</time></trkpt><trkpt lat="44.19137449353695" lon="11.334240975221942"><ele>817.0</ele><time>2026-04-07T09:35:33.999Z</time></trkpt><trkpt lat="44.19151851027175" lon="11.334102282934191"><ele>817.0</ele><time>2026-04-07T09:35:34.999Z</time></trkpt><trkpt lat="44.19168766442733" lon="11.334007476349045"><ele>818.6666666666666</ele><time>2026-04-07T09:35:35.999Z</time></trkpt><trkpt lat="44.191866031700364" lon="11.333917447996452"><ele>820.3333333333333</ele><time>2026-04-07T09:35:36.999Z</time></trkpt><trkpt lat="44.19204735415994" lon="11.333826095834642"><ele>822.0</ele><time>2026-04-07T09:35:37.999Z</time></trkpt><trkpt lat="44.192218859403425" lon="11.333742287730143"><ele>818.0</ele><time>2026-04-07T09:35:38.999Z</time></trkpt><trkpt lat="44.192373420839026" lon="11.333659037899594"><ele>814.0</ele><time>2026-04-07T09:35:39.999Z</time></trkpt><trkpt lat="44.19251779701904" lon="11.333609617966431"><ele>810.0</ele><time>2026-04-07T09:35:40.999Z</time></trkpt><trkpt lat="44.19264403389802" lon="11.33358549426175"><ele>806.0</ele><time>2026-04-07T09:35:41.999Z</time></trkpt><trkpt lat="44.19275093201832" lon="11.333584136958946"><ele>806.0</ele><time>2026-04-07T09:35:42.999Z</time></trkpt><trkpt lat="44.19284122498569" lon="11.33367107881273"><ele>806.0</ele><time>2026-04-07T09:35:43.999Z</time></trkpt><trkpt lat="44.19293764753268" lon="11.3337957916477"><ele>806.0</ele><time>2026-04-07T09:35:44.999Z</time></trkpt><trkpt lat="44.193034365125726" lon="11.333951841228108"><ele>806.0</ele><time>2026-04-07T09:35:45.999Z</time></trkpt><trkpt lat="44.19313668547266" lon="11.334111669284772"><ele>801.1999999999999</ele><time>2026-04-07T09:35:46.999Z</time></trkpt><trkpt lat="44.19321042422613" lon="11.334261777631177"><ele>796.4</ele><time>2026-04-07T09:35:47.999Z</time></trkpt><trkpt lat="44.19327074225566" lon="11.334370783375684"><ele>791.6</ele><time>2026-04-07T09:35:48.999Z</time></trkpt><trkpt lat="44.193324433303474" lon="11.334462435619667"><ele>786.8</ele><time>2026-04-07T09:35:49.999Z</time></trkpt><trkpt lat="44.193422779088095" lon="11.334465775280437"><ele>782.0</ele><time>2026-04-07T09:35:50.999Z</time></trkpt><trkpt lat="44.193528959805334" lon="11.33435254107349"><ele>782.0</ele><time>2026-04-07T09:35:51.999Z</time></trkpt><trkpt lat="44.19362866952286" lon="11.33422935825319"><ele>782.0</ele><time>2026-04-07T09:35:52.999Z</time></trkpt><trkpt lat="44.19372822301542" lon="11.33408052114149"><ele>782.0</ele><time>2026-04-07T09:35:53.999Z</time></trkpt><trkpt lat="44.19383024261738" lon="11.333946272902358"><ele>782.0</ele><time>2026-04-07T09:35:54.999Z</time></trkpt><trkpt lat="44.19396721030982" lon="11.33385742813573"><ele>783.0</ele><time>2026-04-07T09:35:55.999Z</time></trkpt><trkpt lat="44.194128084067145" lon="11.333795628842601"><ele>784.0</ele><time>2026-04-07T09:35:56.999Z</time></trkpt><trkpt lat="44.19429783811395" lon="11.333736147078628"><ele>785.0</ele><time>2026-04-07T09:35:57.999Z</time></trkpt><trkpt lat="44.19446307239268" lon="11.333692068157466"><ele>785.0</ele><time>2026-04-07T09:35:58.999Z</time></trkpt><trkpt lat="44.19463841844155" lon="11.333673250197794"><ele>785.0</ele><time>2026-04-07T09:35:59.999Z</time></trkpt><trkpt lat="44.194821196701966" lon="11.333683338193552"><ele>785.0</ele><time>2026-04-07T09:36:00.999Z</time></trkpt><trkpt lat="44.195043782501095" lon="11.333711821114079"><ele>785.6666666666667</ele><time>2026-04-07T09:36:01.999Z</time></trkpt><trkpt lat="44.19524268101182" lon="11.3337269548768"><ele>786.3333333333333</ele><time>2026-04-07T09:36:02.999Z</time></trkpt><trkpt lat="44.19542697574801" lon="11.333748139573926"><ele>787.0</ele><time>2026-04-07T09:36:03.999Z</time></trkpt><trkpt lat="44.195617192666965" lon="11.333718704991167"><ele>783.6666666666666</ele><time>2026-04-07T09:36:04.999Z</time></trkpt><trkpt lat="44.19581384510121" lon="11.333643327090956"><ele>780.3333333333333</ele><time>2026-04-07T09:36:05.999Z</time></trkpt><trkpt lat="44.19601236264914" lon="11.333559037939722"><ele>777.0</ele><time>2026-04-07T09:36:06.999Z</time></trkpt><trkpt lat="44.19621156043651" lon="11.333473497429416"><ele>777.0</ele><time>2026-04-07T09:36:07.999Z</time></trkpt><trkpt lat="44.19641156344238" lon="11.333400949080927"><ele>777.0</ele><time>2026-04-07T09:36:08.999Z</time></trkpt><trkpt lat="44.19661387692495" lon="11.333387605869826"><ele>777.0</ele><time>2026-04-07T09:36:09.999Z</time></trkpt><trkpt lat="44.19679964248492" lon="11.333398963672218"><ele>776.0</ele><time>2026-04-07T09:36:10.999Z</time></trkpt><trkpt lat="44.19697017247141" lon="11.333393379159567"><ele>775.0</ele><time>2026-04-07T09:36:11.999Z</time></trkpt><trkpt lat="44.19712822127623" lon="11.33338587605664"><ele>774.0</ele><time>2026-04-07T09:36:12.999Z</time></trkpt><trkpt lat="44.197285094667826" lon="11.333320316416865"><ele>773.0</ele><time>2026-04-07T09:36:13.999Z</time></trkpt><trkpt lat="44.19744374335129" lon="11.333226668349111"><ele>772.0</ele><time>2026-04-07T09:36:14.999Z</time></trkpt><trkpt lat="44.19761262228401" lon="11.333177708087566"><ele>771.0</ele><time>2026-04-07T09:36:15.999Z</time></trkpt><trkpt lat="44.197791985008394" lon="11.333177306754513"><ele>771.0</ele><time>2026-04-07T09:36:16.999Z</time></trkpt><trkpt lat="44.19797385752422" lon="11.333204458573862"><ele>771.0</ele><time>2026-04-07T09:36:17.999Z</time></trkpt><trkpt lat="44.198148835859975" lon="11.333214337604051"><ele>771.0</ele><time>2026-04-07T09:36:18.999Z</time></trkpt><trkpt lat="44.198298895284545" lon="11.333251048686181"><ele>771.25</ele><time>2026-04-07T09:36:19.999Z</time></trkpt><trkpt lat="44.198431411276125" lon="11.333285340369915"><ele>771.5</ele><time>2026-04-07T09:36:20.999Z</time></trkpt><trkpt lat="44.198564031154646" lon="11.333307748328313"><ele>771.75</ele><time>2026-04-07T09:36:21.999Z</time></trkpt><trkpt lat="44.198685350929765" lon="11.333276277466295"><ele>772.0</ele><time>2026-04-07T09:36:22.999Z</time></trkpt><trkpt lat="44.19879139339178" lon="11.333189580885037"><ele>775.6666666666666</ele><time>2026-04-07T09:36:23.999Z</time></trkpt><trkpt lat="44.1988919542804" lon="11.33304488504817"><ele>779.3333333333333</ele><time>2026-04-07T09:36:24.999Z</time></trkpt><trkpt lat="44.198990472445075" lon="11.332873645101719"><ele>783.0</ele><time>2026-04-07T09:36:25.999Z</time></trkpt><trkpt lat="44.199100325222794" lon="11.332704907520448"><ele>783.0</ele><time>2026-04-07T09:36:26.999Z</time></trkpt><trkpt lat="44.19922375817144" lon="11.33254269546511"><ele>783.0</ele><time>2026-04-07T09:36:27.999Z</time></trkpt><trkpt lat="44.19934327397323" lon="11.332380908062882"><ele>783.0</ele><time>2026-04-07T09:36:28.999Z</time></trkpt><trkpt lat="44.1994633131174" lon="11.332218376123274"><ele>788.6666666666667</ele><time>2026-04-07T09:36:29.999Z</time></trkpt><trkpt lat="44.199560730742625" lon="11.332047435549503"><ele>794.3333333333334</ele><time>2026-04-07T09:36:30.999Z</time></trkpt><trkpt lat="44.1996118795328" lon="11.33184840610468"><ele>800.0</ele><time>2026-04-07T09:36:31.999Z</time></trkpt><trkpt lat="44.19962491056918" lon="11.331643440161022"><ele>800.0</ele><time>2026-04-07T09:36:32.999Z</time></trkpt><trkpt lat="44.199652889245215" lon="11.331489785696702"><ele>800.0</ele><time>2026-04-07T09:36:33.999Z</time></trkpt><trkpt lat="44.19970129946507" lon="11.33138096114223"><ele>800.0</ele><time>2026-04-07T09:36:34.999Z</time></trkpt><trkpt lat="44.19977431979891" lon="11.331311051753953"><ele>800.0</ele><time>2026-04-07T09:36:35.999Z</time></trkpt><trkpt lat="44.199861383104945" lon="11.331284067891753"><ele>800.0</ele><time>2026-04-07T09:36:36.999Z</time></trkpt><trkpt lat="44.199956824552125" lon="11.331355133767541"><ele>799.25</ele><time>2026-04-07T09:36:37.999Z</time></trkpt><trkpt lat="44.20001937564321" lon="11.331487165089674"><ele>798.5</ele><time>2026-04-07T09:36:38.999Z</time></trkpt><trkpt lat="44.20003099862013" lon="11.331655931681604"><ele>797.75</ele><time>2026-04-07T09:36:39.999Z</time></trkpt><trkpt lat="44.20007244999826" lon="11.331797085774376"><ele>797.0</ele><time>2026-04-07T09:36:40.999Z</time></trkpt><trkpt lat="44.20015504862865" lon="11.33191141077749"><ele>797.0</ele><time>2026-04-07T09:36:41.999Z</time></trkpt><trkpt lat="44.200284138639404" lon="11.331976774392741"><ele>797.0</ele><time>2026-04-07T09:36:42.999Z</time></trkpt><trkpt lat="44.20041975926499" lon="11.332029061387784"><ele>797.0</ele><time>2026-04-07T09:36:43.999Z</time></trkpt><trkpt lat="44.2005306943759" lon="11.332040142442136"><ele>797.0</ele><time>2026-04-07T09:36:44.999Z</time></trkpt><trkpt lat="44.20064509809716" lon="11.331983497929324"><ele>797.25</ele><time>2026-04-07T09:36:45.999Z</time></trkpt><trkpt lat="44.200733806667664" lon="11.331857035767188"><ele>797.5</ele><time>2026-04-07T09:36:46.999Z</time></trkpt><trkpt lat="44.20080174776279" lon="11.331692555488733"><ele>797.75</ele><time>2026-04-07T09:36:47.999Z</time></trkpt><trkpt lat="44.2008604825216" lon="11.331518850476021"><ele>798.0</ele><time>2026-04-07T09:36:48.999Z</time></trkpt><trkpt lat="44.20088352035545" lon="11.331340664932604"><ele>799.0</ele><time>2026-04-07T09:36:49.999Z</time></trkpt><trkpt lat="44.20085166616411" lon="11.331162333323032"><ele>800.0</ele><time>2026-04-07T09:36:50.999Z</time></trkpt><trkpt lat="44.20079288273158" lon="11.330987566781243"><ele>801.0</ele><time>2026-04-07T09:36:51.999Z</time></trkpt><trkpt lat="44.200777799665985" lon="11.330816091461141"><ele>802.0</ele><time>2026-04-07T09:36:52.999Z</time></trkpt><trkpt lat="44.20084903708412" lon="11.330659681543153"><ele>809.0</ele><time>2026-04-07T09:36:53.999Z</time></trkpt><trkpt lat="44.200935958138075" lon="11.330497641109087"><ele>816.0</ele><time>2026-04-07T09:36:54.999Z</time></trkpt><trkpt lat="44.20101894542001" lon="11.330311047998785"><ele>823.0</ele><time>2026-04-07T09:36:55.999Z</time></trkpt><trkpt lat="44.20112257775738" lon="11.330142993606188"><ele>823.0</ele><time>2026-04-07T09:36:56.999Z</time></trkpt><trkpt lat="44.20122330702079" lon="11.329983762525785"><ele>823.0</ele><time>2026-04-07T09:36:57.999Z</time></trkpt><trkpt lat="44.20133351143318" lon="11.329840754268176"><ele>823.0</ele><time>2026-04-07T09:36:58.999Z</time></trkpt><trkpt lat="44.20146944971731" lon="11.329739143349041"><ele>825.3333333333333</ele><time>2026-04-07T09:36:59.999Z</time></trkpt><trkpt lat="44.20162252728096" lon="11.329688403649032"><ele>827.6666666666667</ele><time>2026-04-07T09:37:00.999Z</time></trkpt><trkpt lat="44.201784100830714" lon="11.329683074755447"><ele>830.0</ele><time>2026-04-07T09:37:01.999Z</time></trkpt><trkpt lat="44.20194883212953" lon="11.329699310769586"><ele>830.0</ele><time>2026-04-07T09:37:02.999Z</time></trkpt><trkpt lat="44.20210651580237" lon="11.32969096922738"><ele>830.0</ele><time>2026-04-07T09:37:03.999Z</time></trkpt><trkpt lat="44.20223234604103" lon="11.329634135716827"><ele>830.0</ele><time>2026-04-07T09:37:04.999Z</time></trkpt><trkpt lat="44.20234354355453" lon="11.329566979428117"><ele>830.0</ele><time>2026-04-07T09:37:05.999Z</time></trkpt><trkpt lat="44.20244733854307" lon="11.329495875781488"><ele>826.5</ele><time>2026-04-07T09:37:06.999Z</time></trkpt><trkpt lat="44.202533012025825" lon="11.329400731260813"><ele>823.0</ele><time>2026-04-07T09:37:07.999Z</time></trkpt><trkpt lat="44.20259710731365" lon="11.329262651781514"><ele>819.5</ele><time>2026-04-07T09:37:08.999Z</time></trkpt><trkpt lat="44.20262642026414" lon="11.3290879866534"><ele>816.0</ele><time>2026-04-07T09:37:09.999Z</time></trkpt><trkpt lat="44.20263311498725" lon="11.328915620002595"><ele>817.8</ele><time>2026-04-07T09:37:10.999Z</time></trkpt><trkpt lat="44.202650130110165" lon="11.32876944279581"><ele>819.5999999999999</ele><time>2026-04-07T09:37:11.999Z</time></trkpt><trkpt lat="44.2026832333246" lon="11.328629619616922"><ele>821.4</ele><time>2026-04-07T09:37:12.999Z</time></trkpt><trkpt lat="44.20278815187089" lon="11.32857079745577"><ele>823.2</ele><time>2026-04-07T09:37:13.999Z</time></trkpt><trkpt lat="44.202887565101655" lon="11.328559318080284"><ele>825.0</ele><time>2026-04-07T09:37:14.999Z</time></trkpt><trkpt lat="44.20299858791227" lon="11.328526486173303"><ele>825.0</ele><time>2026-04-07T09:37:15.999Z</time></trkpt><trkpt lat="44.20311972989765" lon="11.328516242149268"><ele>825.0</ele><time>2026-04-07T09:37:16.999Z</time></trkpt><trkpt lat="44.20324625040619" lon="11.328484105206302"><ele>825.0</ele><time>2026-04-07T09:37:17.999Z</time></trkpt><trkpt lat="44.20337644319277" lon="11.32842348040595"><ele>825.0</ele><time>2026-04-07T09:37:18.999Z</time></trkpt><trkpt lat="44.20350982985848" lon="11.328310175587703"><ele>824.6666666666667</ele><time>2026-04-07T09:37:19.999Z</time></trkpt><trkpt lat="44.20364006022378" lon="11.328160686249877"><ele>824.3333333333334</ele><time>2026-04-07T09:37:20.999Z</time></trkpt><trkpt lat="44.20377083663629" lon="11.327992381818797"><ele>824.0</ele><time>2026-04-07T09:37:21.999Z</time></trkpt><trkpt lat="44.203905200682556" lon="11.327821042869786"><ele>819.0</ele><time>2026-04-07T09:37:22.999Z</time></trkpt><trkpt lat="44.20401555829682" lon="11.327655024718679"><ele>814.0</ele><time>2026-04-07T09:37:23.999Z</time></trkpt><trkpt lat="44.204101971113744" lon="11.327476632240979"><ele>809.0</ele><time>2026-04-07T09:37:24.999Z</time></trkpt><trkpt lat="44.20419146814088" lon="11.327293788882997"><ele>808.5</ele><time>2026-04-07T09:37:25.999Z</time></trkpt><trkpt lat="44.20426271386481" lon="11.327104928838997"><ele>808.0</ele><time>2026-04-07T09:37:26.999Z</time></trkpt><trkpt lat="44.20433897198577" lon="11.326945963770214"><ele>807.5</ele><time>2026-04-07T09:37:27.999Z</time></trkpt><trkpt lat="44.204435844634084" lon="11.326825368804759"><ele>807.0</ele><time>2026-04-07T09:37:28.999Z</time></trkpt><trkpt lat="44.20454952095405" lon="11.326731027404067"><ele>807.0</ele><time>2026-04-07T09:37:29.999Z</time></trkpt><trkpt lat="44.204675102220584" lon="11.326706467268384"><ele>807.0</ele><time>2026-04-07T09:37:30.999Z</time></trkpt><trkpt lat="44.204798830625535" lon="11.32667679752923"><ele>807.0</ele><time>2026-04-07T09:37:31.999Z</time></trkpt><trkpt lat="44.20491301466959" lon="11.32664018189045"><ele>807.0</ele><time>2026-04-07T09:37:32.999Z</time></trkpt><trkpt lat="44.20501206671496" lon="11.326560120859645"><ele>806.75</ele><time>2026-04-07T09:37:33.999Z</time></trkpt><trkpt lat="44.205126734175884" lon="11.326548566497195"><ele>806.5</ele><time>2026-04-07T09:37:34.999Z</time></trkpt><trkpt lat="44.20520992058258" lon="11.32648847296923"><ele>806.25</ele><time>2026-04-07T09:37:35.999Z</time></trkpt><trkpt lat="44.205318871540825" lon="11.326494192199123"><ele>806.0</ele><time>2026-04-07T09:37:36.999Z</time></trkpt><trkpt lat="44.205566932022585" lon="11.326346621614972"><ele>805.0</ele><time>2026-04-07T09:37:38.999Z</time></trkpt><trkpt lat="44.20569323558674" lon="11.326270717012079"><ele>804.0</ele><time>2026-04-07T09:37:39.999Z</time></trkpt><trkpt lat="44.20580281416992" lon="11.326194657392834"><ele>803.0</ele><time>2026-04-07T09:37:40.999Z</time></trkpt><trkpt lat="44.20591310395981" lon="11.326119449937108"><ele>802.0</ele><time>2026-04-07T09:37:41.999Z</time></trkpt><trkpt lat="44.20601542935181" lon="11.32605093604494"><ele>802.0</ele><time>2026-04-07T09:37:42.999Z</time></trkpt><trkpt lat="44.20610341953196" lon="11.32601103010454"><ele>802.0</ele><time>2026-04-07T09:37:43.999Z</time></trkpt><trkpt lat="44.20618709217602" lon="11.325966438571555"><ele>802.0</ele><time>2026-04-07T09:37:44.999Z</time></trkpt><trkpt lat="44.2062829056207" lon="11.325921814838619"><ele>802.0</ele><time>2026-04-07T09:37:45.999Z</time></trkpt><trkpt lat="44.20639410220113" lon="11.325868900731537"><ele>802.0</ele><time>2026-04-07T09:37:46.999Z</time></trkpt><trkpt lat="44.206521658577685" lon="11.325805642743102"><ele>802.25</ele><time>2026-04-07T09:37:47.999Z</time></trkpt><trkpt lat="44.20667284112129" lon="11.325763625320368"><ele>802.5</ele><time>2026-04-07T09:37:48.999Z</time></trkpt><trkpt lat="44.206813010982444" lon="11.32572086706701"><ele>802.75</ele><time>2026-04-07T09:37:49.999Z</time></trkpt><trkpt lat="44.20694777416454" lon="11.325677013878458"><ele>803.0</ele><time>2026-04-07T09:37:50.999Z</time></trkpt><trkpt lat="44.20709359295123" lon="11.32563107462812"><ele>803.0</ele><time>2026-04-07T09:37:51.999Z</time></trkpt><trkpt lat="44.207245825919586" lon="11.32558169169214"><ele>803.0</ele><time>2026-04-07T09:37:52.999Z</time></trkpt><trkpt lat="44.2073728319165" lon="11.325537816098421"><ele>803.0</ele><time>2026-04-07T09:37:53.999Z</time></trkpt><trkpt lat="44.20749979045939" lon="11.325500807716478"><ele>803.0</ele><time>2026-04-07T09:37:54.999Z</time></trkpt><trkpt lat="44.20763611861403" lon="11.325457849277178"><ele>803.25</ele><time>2026-04-07T09:37:55.999Z</time></trkpt><trkpt lat="44.20777413272159" lon="11.325411594532868"><ele>803.5</ele><time>2026-04-07T09:37:56.999Z</time></trkpt><trkpt lat="44.2079140302351" lon="11.32535851749504"><ele>803.75</ele><time>2026-04-07T09:37:57.999Z</time></trkpt><trkpt lat="44.208060547148726" lon="11.325302768328342"><ele>804.0</ele><time>2026-04-07T09:37:58.999Z</time></trkpt><trkpt lat="44.208205490806705" lon="11.325242733057307"><ele>805.3333333333333</ele><time>2026-04-07T09:37:59.999Z</time></trkpt><trkpt lat="44.20834809704265" lon="11.325177025536277"><ele>806.6666666666666</ele><time>2026-04-07T09:38:00.999Z</time></trkpt><trkpt lat="44.20849354033574" lon="11.325115985959"><ele>808.0</ele><time>2026-04-07T09:38:01.999Z</time></trkpt><trkpt lat="44.2086421323025" lon="11.325058117076356"><ele>808.0</ele><time>2026-04-07T09:38:02.999Z</time></trkpt><trkpt lat="44.20879963393489" lon="11.324997263119181"><ele>808.0</ele><time>2026-04-07T09:38:03.999Z</time></trkpt><trkpt lat="44.20895830905204" lon="11.324937158940733"><ele>808.0</ele><time>2026-04-07T09:38:04.999Z</time></trkpt><trkpt lat="44.209119340163" lon="11.32486949007689"><ele>808.3333333333333</ele><time>2026-04-07T09:38:05.999Z</time></trkpt><trkpt lat="44.2092803264175" lon="11.324799337643343"><ele>808.6666666666667</ele><time>2026-04-07T09:38:06.999Z</time></trkpt><trkpt lat="44.20944392026958" lon="11.324767102161356"><ele>809.0</ele><time>2026-04-07T09:38:07.999Z</time></trkpt><trkpt lat="44.209614889758306" lon="11.324730833383562"><ele>806.0</ele><time>2026-04-07T09:38:08.999Z</time></trkpt><trkpt lat="44.20979206813688" lon="11.324719972033932"><ele>803.0</ele><time>2026-04-07T09:38:09.999Z</time></trkpt><trkpt lat="44.20996975898213" lon="11.324702272479536"><ele>800.0</ele><time>2026-04-07T09:38:10.999Z</time></trkpt><trkpt lat="44.210150296398226" lon="11.32469563993972"><ele>799.6666666666667</ele><time>2026-04-07T09:38:11.999Z</time></trkpt><trkpt lat="44.21033099568349" lon="11.324667099918573"><ele>799.3333333333333</ele><time>2026-04-07T09:38:12.999Z</time></trkpt><trkpt lat="44.21051256572299" lon="11.324606363883698"><ele>799.0</ele><time>2026-04-07T09:38:13.999Z</time></trkpt><trkpt lat="44.21069708370727" lon="11.32452449633284"><ele>802.0</ele><time>2026-04-07T09:38:14.999Z</time></trkpt><trkpt lat="44.210882153652214" lon="11.32443566600001"><ele>805.0</ele><time>2026-04-07T09:38:15.999Z</time></trkpt><trkpt lat="44.21107613732703" lon="11.324375548764612"><ele>808.0</ele><time>2026-04-07T09:38:16.999Z</time></trkpt><trkpt lat="44.21126385885067" lon="11.324275279100092"><ele>808.0</ele><time>2026-04-07T09:38:17.999Z</time></trkpt><trkpt lat="44.211458007937594" lon="11.324194676546048"><ele>808.0</ele><time>2026-04-07T09:38:18.999Z</time></trkpt><trkpt lat="44.211637478546415" lon="11.32411476070353"><ele>808.0</ele><time>2026-04-07T09:38:19.999Z</time></trkpt><trkpt lat="44.211813483471786" lon="11.324031655793933"><ele>806.6666666666666</ele><time>2026-04-07T09:38:20.999Z</time></trkpt><trkpt lat="44.21198752270069" lon="11.3239321068409"><ele>805.3333333333333</ele><time>2026-04-07T09:38:21.999Z</time></trkpt><trkpt lat="44.2121674547386" lon="11.3238321465271"><ele>804.0</ele><time>2026-04-07T09:38:22.999Z</time></trkpt><trkpt lat="44.21234184516915" lon="11.323740359089284"><ele>807.0</ele><time>2026-04-07T09:38:23.999Z</time></trkpt><trkpt lat="44.21250471543326" lon="11.323657554614597"><ele>810.0</ele><time>2026-04-07T09:38:24.999Z</time></trkpt><trkpt lat="44.212660803157945" lon="11.323576419044308"><ele>813.0</ele><time>2026-04-07T09:38:25.999Z</time></trkpt><trkpt lat="44.21280479488155" lon="11.32350204727035"><ele>813.0</ele><time>2026-04-07T09:38:26.999Z</time></trkpt><trkpt lat="44.21295061814545" lon="11.323430373896956"><ele>813.0</ele><time>2026-04-07T09:38:27.999Z</time></trkpt><trkpt lat="44.213097174663204" lon="11.32335726416731"><ele>813.0</ele><time>2026-04-07T09:38:28.999Z</time></trkpt><trkpt lat="44.213241843285225" lon="11.323274196279579"><ele>812.5</ele><time>2026-04-07T09:38:29.999Z</time></trkpt><trkpt lat="44.213381862677984" lon="11.323191504833988"><ele>812.0</ele><time>2026-04-07T09:38:30.999Z</time></trkpt><trkpt lat="44.213509227354194" lon="11.323123178900685"><ele>811.5</ele><time>2026-04-07T09:38:31.999Z</time></trkpt><trkpt lat="44.213624171839385" lon="11.323065067040496"><ele>811.0</ele><time>2026-04-07T09:38:32.999Z</time></trkpt><trkpt lat="44.213732892614004" lon="11.32301495118096"><ele>811.0</ele><time>2026-04-07T09:38:33.999Z</time></trkpt><trkpt lat="44.21384082814503" lon="11.322968092699323"><ele>811.0</ele><time>2026-04-07T09:38:34.999Z</time></trkpt><trkpt lat="44.2139482615893" lon="11.32292489830279"><ele>811.0</ele><time>2026-04-07T09:38:35.999Z</time></trkpt><trkpt lat="44.21405625394479" lon="11.322888472740702"><ele>811.0</ele><time>2026-04-07T09:38:36.999Z</time></trkpt><trkpt lat="44.21415608862693" lon="11.322859875792634"><ele>811.0</ele><time>2026-04-07T09:38:37.999Z</time></trkpt><trkpt lat="44.21425442648973" lon="11.322832072475268"><ele>812.0</ele><time>2026-04-07T09:38:38.999Z</time></trkpt><trkpt lat="44.214356384502324" lon="11.322804746657985"><ele>813.0</ele><time>2026-04-07T09:38:39.999Z</time></trkpt><trkpt lat="44.214466974303356" lon="11.322774875227093"><ele>814.0</ele><time>2026-04-07T09:38:40.999Z</time></trkpt><trkpt lat="44.214586182077554" lon="11.322744898619177"><ele>815.0</ele><time>2026-04-07T09:38:41.999Z</time></trkpt><trkpt lat="44.21471180775137" lon="11.322711702219674"><ele>816.5</ele><time>2026-04-07T09:38:42.999Z</time></trkpt><trkpt lat="44.21483942062949" lon="11.322677912134587"><ele>818.0</ele><time>2026-04-07T09:38:43.999Z</time></trkpt><trkpt lat="44.214970459082124" lon="11.322641379687882"><ele>819.5</ele><time>2026-04-07T09:38:44.999Z</time></trkpt><trkpt lat="44.215108270195806" lon="11.32260056981589"><ele>821.0</ele><time>2026-04-07T09:38:45.999Z</time></trkpt><trkpt lat="44.21525389385623" lon="11.322557720184077"><ele>821.0</ele><time>2026-04-07T09:38:46.999Z</time></trkpt><trkpt lat="44.215402068263266" lon="11.322518605138864"><ele>821.0</ele><time>2026-04-07T09:38:47.999Z</time></trkpt><trkpt lat="44.215559823719" lon="11.322476180301079"><ele>821.0</ele><time>2026-04-07T09:38:48.999Z</time></trkpt><trkpt lat="44.21571125650619" lon="11.322436281156024"><ele>821.6666666666667</ele><time>2026-04-07T09:38:49.999Z</time></trkpt><trkpt lat="44.215876388806606" lon="11.32238491586066"><ele>822.3333333333333</ele><time>2026-04-07T09:38:50.999Z</time></trkpt><trkpt lat="44.21602766521675" lon="11.322325756466535"><ele>823.0</ele><time>2026-04-07T09:38:51.999Z</time></trkpt><trkpt lat="44.21618025018105" lon="11.322244280725402"><ele>821.3333333333333</ele><time>2026-04-07T09:38:52.999Z</time></trkpt><trkpt lat="44.21633071677392" lon="11.32214466805799"><ele>819.6666666666667</ele><time>2026-04-07T09:38:53.999Z</time></trkpt><trkpt lat="44.21647844069999" lon="11.322034429219809"><ele>818.0</ele><time>2026-04-07T09:38:54.999Z</time></trkpt><trkpt lat="44.216619173982195" lon="11.32191251262879"><ele>818.0</ele><time>2026-04-07T09:38:55.999Z</time></trkpt><trkpt lat="44.21675707920994" lon="11.321779064202602"><ele>818.0</ele><time>2026-04-07T09:38:56.999Z</time></trkpt><trkpt lat="44.21689118941987" lon="11.321635868211732"><ele>818.0</ele><time>2026-04-07T09:38:57.999Z</time></trkpt><trkpt lat="44.21702241647874" lon="11.321496189561332"><ele>817.0</ele><time>2026-04-07T09:38:58.999Z</time></trkpt><trkpt lat="44.21715669025093" lon="11.321356172449653"><ele>816.0</ele><time>2026-04-07T09:38:59.999Z</time></trkpt><trkpt lat="44.21728842880887" lon="11.32121899630817"><ele>815.0</ele><time>2026-04-07T09:39:00.999Z</time></trkpt><trkpt lat="44.217419648941586" lon="11.321085602246255"><ele>815.0</ele><time>2026-04-07T09:39:01.999Z</time></trkpt><trkpt lat="44.21755340378344" lon="11.32095514342209"><ele>815.0</ele><time>2026-04-07T09:39:02.999Z</time></trkpt><trkpt lat="44.217686918174664" lon="11.32083551943842"><ele>815.0</ele><time>2026-04-07T09:39:03.999Z</time></trkpt><trkpt lat="44.2178263225958" lon="11.320718681721905"><ele>815.0</ele><time>2026-04-07T09:39:04.999Z</time></trkpt><trkpt lat="44.21796567541074" lon="11.320617675922836"><ele>815.0</ele><time>2026-04-07T09:39:05.999Z</time></trkpt><trkpt lat="44.218103141114455" lon="11.320533844155516"><ele>815.0</ele><time>2026-04-07T09:39:06.999Z</time></trkpt><trkpt lat="44.21824983422394" lon="11.320449382244247"><ele>817.75</ele><time>2026-04-07T09:39:07.999Z</time></trkpt><trkpt lat="44.21839278334532" lon="11.32036270931369"><ele>820.5</ele><time>2026-04-07T09:39:08.999Z</time></trkpt><trkpt lat="44.2185172660588" lon="11.320275875169129"><ele>823.25</ele><time>2026-04-07T09:39:09.999Z</time></trkpt><trkpt lat="44.21863960532202" lon="11.320205575402596"><ele>826.0</ele><time>2026-04-07T09:39:10.999Z</time></trkpt><trkpt lat="44.218760725881225" lon="11.320177195693512"><ele>826.0</ele><time>2026-04-07T09:39:11.999Z</time></trkpt><trkpt lat="44.21887979664236" lon="11.320223348266795"><ele>826.0</ele><time>2026-04-07T09:39:12.999Z</time></trkpt><trkpt lat="44.21897124842796" lon="11.320358911592429"><ele>826.0</ele><time>2026-04-07T09:39:13.999Z</time></trkpt><trkpt lat="44.21906094048006" lon="11.320509614809156"><ele>826.0</ele><time>2026-04-07T09:39:14.999Z</time></trkpt><trkpt lat="44.21912775580666" lon="11.320689401436466"><ele>824.6666666666666</ele><time>2026-04-07T09:39:15.999Z</time></trkpt><trkpt lat="44.21923148020029" lon="11.320836282825727"><ele>823.3333333333333</ele><time>2026-04-07T09:39:16.999Z</time></trkpt><trkpt lat="44.219371391115466" lon="11.32093237491412"><ele>822.0</ele><time>2026-04-07T09:39:17.999Z</time></trkpt><trkpt lat="44.21952890738142" lon="11.32099122587237"><ele>822.0</ele><time>2026-04-07T09:39:18.999Z</time></trkpt><trkpt lat="44.21968938175673" lon="11.321068980234536"><ele>822.0</ele><time>2026-04-07T09:39:19.999Z</time></trkpt><trkpt lat="44.21982282202316" lon="11.321211082000078"><ele>822.0</ele><time>2026-04-07T09:39:20.999Z</time></trkpt><trkpt lat="44.21994057362395" lon="11.321388220664574"><ele>825.0</ele><time>2026-04-07T09:39:21.999Z</time></trkpt><trkpt lat="44.22004024702143" lon="11.321554642109483"><ele>828.0</ele><time>2026-04-07T09:39:22.999Z</time></trkpt><trkpt lat="44.22008621936757" lon="11.321736015763237"><ele>831.0</ele><time>2026-04-07T09:39:23.999Z</time></trkpt><trkpt lat="44.22010828866094" lon="11.321936391650313"><ele>834.0</ele><time>2026-04-07T09:39:24.999Z</time></trkpt><trkpt lat="44.220120599760314" lon="11.322158588151414"><ele>831.25</ele><time>2026-04-07T09:39:25.999Z</time></trkpt><trkpt lat="44.220112842392396" lon="11.322386505087255"><ele>828.5</ele><time>2026-04-07T09:39:26.999Z</time></trkpt><trkpt lat="44.22012310724088" lon="11.322588581901876"><ele>825.75</ele><time>2026-04-07T09:39:27.999Z</time></trkpt><trkpt lat="44.22016517832528" lon="11.322751284161434"><ele>823.0</ele><time>2026-04-07T09:39:28.999Z</time></trkpt><trkpt lat="44.22023807224919" lon="11.32287359426744"><ele>823.0</ele><time>2026-04-07T09:39:29.999Z</time></trkpt><trkpt lat="44.22034249986907" lon="11.32294525687443"><ele>823.0</ele><time>2026-04-07T09:39:30.999Z</time></trkpt><trkpt lat="44.22047292147889" lon="11.322952488576298"><ele>823.0</ele><time>2026-04-07T09:39:31.999Z</time></trkpt><trkpt lat="44.22060898004422" lon="11.32288972381008"><ele>823.0</ele><time>2026-04-07T09:39:32.999Z</time></trkpt><trkpt lat="44.22073807995889" lon="11.32279218597832"><ele>827.25</ele><time>2026-04-07T09:39:33.999Z</time></trkpt><trkpt lat="44.220864036819826" lon="11.32270180792137"><ele>831.5</ele><time>2026-04-07T09:39:34.999Z</time></trkpt><trkpt lat="44.2209921881089" lon="11.322629408630387"><ele>835.75</ele><time>2026-04-07T09:39:35.999Z</time></trkpt><trkpt lat="44.221113368765934" lon="11.322559709569255"><ele>840.0</ele><time>2026-04-07T09:39:36.999Z</time></trkpt><trkpt lat="44.22122295367747" lon="11.32248703977207"><ele>840.0</ele><time>2026-04-07T09:39:37.999Z</time></trkpt><trkpt lat="44.221332030387" lon="11.322447495921285"><ele>840.0</ele><time>2026-04-07T09:39:38.999Z</time></trkpt><trkpt lat="44.22143363047333" lon="11.322390897301993"><ele>840.0</ele><time>2026-04-07T09:39:39.999Z</time></trkpt><trkpt lat="44.22153403982176" lon="11.322338190172202"><ele>840.0</ele><time>2026-04-07T09:39:40.999Z</time></trkpt><trkpt lat="44.22163429154749" lon="11.322284375326925"><ele>840.0</ele><time>2026-04-07T09:39:41.999Z</time></trkpt><trkpt lat="44.22174211240389" lon="11.322336878575753"><ele>837.75</ele><time>2026-04-07T09:39:42.999Z</time></trkpt><trkpt lat="44.22185572942194" lon="11.322379258013974"><ele>835.5</ele><time>2026-04-07T09:39:43.999Z</time></trkpt><trkpt lat="44.22198115490185" lon="11.322418839346103"><ele>833.25</ele><time>2026-04-07T09:39:44.999Z</time></trkpt><trkpt lat="44.22210698029381" lon="11.322497408816444"><ele>831.0</ele><time>2026-04-07T09:39:45.999Z</time></trkpt><trkpt lat="44.22222888065571" lon="11.322600052009658"><ele>830.6666666666667</ele><time>2026-04-07T09:39:46.999Z</time></trkpt><trkpt lat="44.2223392773077" lon="11.322746733943454"><ele>830.3333333333334</ele><time>2026-04-07T09:39:47.999Z</time></trkpt><trkpt lat="44.222437540552605" lon="11.32292418645302"><ele>830.0</ele><time>2026-04-07T09:39:48.999Z</time></trkpt><trkpt lat="44.222528530680485" lon="11.323087734945275"><ele>830.0</ele><time>2026-04-07T09:39:49.999Z</time></trkpt><trkpt lat="44.2226182713774" lon="11.323219680322115"><ele>830.0</ele><time>2026-04-07T09:39:50.999Z</time></trkpt><trkpt lat="44.22272143592614" lon="11.323311587198827"><ele>830.0</ele><time>2026-04-07T09:39:51.999Z</time></trkpt><trkpt lat="44.222846642260286" lon="11.323348967355875"><ele>830.0</ele><time>2026-04-07T09:39:52.999Z</time></trkpt><trkpt lat="44.22298482326936" lon="11.323318627552188"><ele>830.0</ele><time>2026-04-07T09:39:53.999Z</time></trkpt><trkpt lat="44.22311303683726" lon="11.323230440288084"><ele>830.0</ele><time>2026-04-07T09:39:54.999Z</time></trkpt><trkpt lat="44.22320939072726" lon="11.32310138253162"><ele>830.0</ele><time>2026-04-07T09:39:55.999Z</time></trkpt><trkpt lat="44.22326253067018" lon="11.32293894234284"><ele>830.0</ele><time>2026-04-07T09:39:56.999Z</time></trkpt><trkpt lat="44.22327750387254" lon="11.322760930731327"><ele>829.75</ele><time>2026-04-07T09:39:57.999Z</time></trkpt><trkpt lat="44.223294179573195" lon="11.322614278298031"><ele>829.5</ele><time>2026-04-07T09:39:58.999Z</time></trkpt><trkpt lat="44.22336607958288" lon="11.322504562471261"><ele>829.25</ele><time>2026-04-07T09:39:59.999Z</time></trkpt><trkpt lat="44.2234937062249" lon="11.322461470431636"><ele>829.0</ele><time>2026-04-07T09:40:00.999Z</time></trkpt><trkpt lat="44.223614000925146" lon="11.322422097425157"><ele>829.0</ele><time>2026-04-07T09:40:01.999Z</time></trkpt><trkpt lat="44.22372423766074" lon="11.322372572373935"><ele>829.0</ele><time>2026-04-07T09:40:02.999Z</time></trkpt><trkpt lat="44.223838390518175" lon="11.322336325874023"><ele>829.0</ele><time>2026-04-07T09:40:03.999Z</time></trkpt><trkpt lat="44.223958158506875" lon="11.322289658753984"><ele>829.0</ele><time>2026-04-07T09:40:04.999Z</time></trkpt><trkpt lat="44.2240806298125" lon="11.322246441355293"><ele>830.25</ele><time>2026-04-07T09:40:05.999Z</time></trkpt><trkpt lat="44.22421449268058" lon="11.322251992053257"><ele>831.5</ele><time>2026-04-07T09:40:06.999Z</time></trkpt><trkpt lat="44.22434661527416" lon="11.322326484392216"><ele>832.75</ele><time>2026-04-07T09:40:07.999Z</time></trkpt><trkpt lat="44.224457513161504" lon="11.32246332489433"><ele>834.0</ele><time>2026-04-07T09:40:08.999Z</time></trkpt><trkpt lat="44.2245708429885" lon="11.322592239542287"><ele>834.0</ele><time>2026-04-07T09:40:09.999Z</time></trkpt><trkpt lat="44.22464554113027" lon="11.322755216508579"><ele>834.0</ele><time>2026-04-07T09:40:10.999Z</time></trkpt><trkpt lat="44.22469011139467" lon="11.322930952780462"><ele>834.0</ele><time>2026-04-07T09:40:11.999Z</time></trkpt><trkpt lat="44.22470847226576" lon="11.323107131049275"><ele>834.0</ele><time>2026-04-07T09:40:12.999Z</time></trkpt><trkpt lat="44.22474727918314" lon="11.323250367204967"><ele>834.6</ele><time>2026-04-07T09:40:13.999Z</time></trkpt><trkpt lat="44.224832424449666" lon="11.323344794070165"><ele>835.2</ele><time>2026-04-07T09:40:14.999Z</time></trkpt><trkpt lat="44.22493105756849" lon="11.323382650469036"><ele>835.8000000000001</ele><time>2026-04-07T09:40:15.999Z</time></trkpt><trkpt lat="44.22504456388707" lon="11.323376756324635"><ele>836.4000000000001</ele><time>2026-04-07T09:40:16.999Z</time></trkpt><trkpt lat="44.22516881273094" lon="11.323361022566356"><ele>837.0</ele><time>2026-04-07T09:40:17.999Z</time></trkpt><trkpt lat="44.2253014438113" lon="11.323358708210197"><ele>837.0</ele><time>2026-04-07T09:40:18.999Z</time></trkpt><trkpt lat="44.22544762775461" lon="11.323359367586647"><ele>837.0</ele><time>2026-04-07T09:40:19.999Z</time></trkpt><trkpt lat="44.22560742514644" lon="11.323377783684757"><ele>837.0</ele><time>2026-04-07T09:40:20.999Z</time></trkpt><trkpt lat="44.225782236353886" lon="11.323439177326714"><ele>835.5</ele><time>2026-04-07T09:40:21.999Z</time></trkpt><trkpt lat="44.22594321174617" lon="11.323508004477635"><ele>834.0</ele><time>2026-04-07T09:40:22.999Z</time></trkpt><trkpt lat="44.22608456988419" lon="11.323565849777887"><ele>832.5</ele><time>2026-04-07T09:40:23.999Z</time></trkpt><trkpt lat="44.2262056006667" lon="11.323638731518923"><ele>831.0</ele><time>2026-04-07T09:40:24.999Z</time></trkpt><trkpt lat="44.22629808408736" lon="11.323762017242212"><ele>835.25</ele><time>2026-04-07T09:40:25.999Z</time></trkpt><trkpt lat="44.22635782481352" lon="11.323926131655165"><ele>839.5</ele><time>2026-04-07T09:40:26.999Z</time></trkpt><trkpt lat="44.2263828452019" lon="11.324108022072942"><ele>843.75</ele><time>2026-04-07T09:40:27.999Z</time></trkpt><trkpt lat="44.226366465019375" lon="11.324315485901337"><ele>848.0</ele><time>2026-04-07T09:40:28.999Z</time></trkpt><trkpt lat="44.226317201881876" lon="11.324523471227984"><ele>851.6666666666667</ele><time>2026-04-07T09:40:29.999Z</time></trkpt><trkpt lat="44.22626331019712" lon="11.324736701876615"><ele>855.3333333333333</ele><time>2026-04-07T09:40:30.999Z</time></trkpt><trkpt lat="44.22624912299229" lon="11.324942474645168"><ele>859.0</ele><time>2026-04-07T09:40:31.999Z</time></trkpt><trkpt lat="44.22627268108858" lon="11.32515490043698"><ele>859.0</ele><time>2026-04-07T09:40:32.999Z</time></trkpt><trkpt lat="44.22632651828217" lon="11.325351631627901"><ele>859.0</ele><time>2026-04-07T09:40:33.999Z</time></trkpt><trkpt lat="44.2263947837405" lon="11.325517298834434"><ele>859.0</ele><time>2026-04-07T09:40:34.999Z</time></trkpt><trkpt lat="44.22649288287638" lon="11.325651745621663"><ele>859.0</ele><time>2026-04-07T09:40:35.999Z</time></trkpt><trkpt lat="44.22662580268372" lon="11.325758803513244"><ele>853.0</ele><time>2026-04-07T09:40:36.999Z</time></trkpt><trkpt lat="44.22677866812065" lon="11.325838937227033"><ele>847.0</ele><time>2026-04-07T09:40:37.999Z</time></trkpt><trkpt lat="44.22693439343634" lon="11.325928519216264"><ele>841.0</ele><time>2026-04-07T09:40:38.999Z</time></trkpt><trkpt lat="44.2271019725834" lon="11.326011124894006"><ele>841.0</ele><time>2026-04-07T09:40:39.999Z</time></trkpt><trkpt lat="44.22728266958869" lon="11.32610114206437"><ele>841.0</ele><time>2026-04-07T09:40:40.999Z</time></trkpt><trkpt lat="44.22745196842508" lon="11.326180099941306"><ele>841.0</ele><time>2026-04-07T09:40:41.999Z</time></trkpt><trkpt lat="44.22762594685182" lon="11.326223233701679"><ele>838.5</ele><time>2026-04-07T09:40:42.999Z</time></trkpt><trkpt lat="44.22779208410334" lon="11.32619169931084"><ele>836.0</ele><time>2026-04-07T09:40:43.999Z</time></trkpt><trkpt lat="44.22793421382737" lon="11.326161847714195"><ele>833.5</ele><time>2026-04-07T09:40:44.999Z</time></trkpt><trkpt lat="44.228060380079796" lon="11.326217231511965"><ele>831.0</ele><time>2026-04-07T09:40:45.999Z</time></trkpt><trkpt lat="44.22816377751607" lon="11.32633944415781"><ele>833.75</ele><time>2026-04-07T09:40:46.999Z</time></trkpt><trkpt lat="44.228260864759044" lon="11.326481052838464"><ele>836.5</ele><time>2026-04-07T09:40:47.999Z</time></trkpt><trkpt lat="44.228366391623105" lon="11.32660051518641"><ele>839.25</ele><time>2026-04-07T09:40:48.999Z</time></trkpt><trkpt lat="44.22847825842067" lon="11.326633713808206"><ele>842.0</ele><time>2026-04-07T09:40:49.999Z</time></trkpt><trkpt lat="44.22859653264319" lon="11.326619310044872"><ele>842.0</ele><time>2026-04-07T09:40:50.999Z</time></trkpt><trkpt lat="44.228702607018214" lon="11.326540604454756"><ele>842.0</ele><time>2026-04-07T09:40:51.999Z</time></trkpt><trkpt lat="44.22878286287346" lon="11.326407207571512"><ele>842.0</ele><time>2026-04-07T09:40:52.999Z</time></trkpt><trkpt lat="44.228852385278856" lon="11.326233523911021"><ele>842.0</ele><time>2026-04-07T09:40:53.999Z</time></trkpt><trkpt lat="44.22889572064178" lon="11.326048325552435"><ele>838.5</ele><time>2026-04-07T09:40:54.999Z</time></trkpt><trkpt lat="44.228989554064036" lon="11.325953204131217"><ele>835.0</ele><time>2026-04-07T09:40:55.999Z</time></trkpt><trkpt lat="44.22909783335228" lon="11.325926268643576"><ele>831.5</ele><time>2026-04-07T09:40:56.999Z</time></trkpt><trkpt lat="44.22921629076997" lon="11.325959089266561"><ele>828.0</ele><time>2026-04-07T09:40:57.999Z</time></trkpt><trkpt lat="44.22933855792522" lon="11.326062273711177"><ele>828.0</ele><time>2026-04-07T09:40:58.999Z</time></trkpt><trkpt lat="44.22937759082187" lon="11.326179584624748"><ele>828.0</ele><time>2026-04-07T09:40:59.999Z</time></trkpt><trkpt lat="44.229454832732785" lon="11.326421873828478"><ele>828.0</ele><time>2026-04-07T09:41:00.999Z</time></trkpt><trkpt lat="44.22951999484272" lon="11.326591424183036"><ele>828.0</ele><time>2026-04-07T09:41:01.999Z</time></trkpt><trkpt lat="44.229607510709975" lon="11.326770707847794"><ele>829.6666666666667</ele><time>2026-04-07T09:41:02.999Z</time></trkpt><trkpt lat="44.22971435338904" lon="11.326978785910784"><ele>831.3333333333334</ele><time>2026-04-07T09:41:03.999Z</time></trkpt><trkpt lat="44.22982797317436" lon="11.327197219221398"><ele>833.0</ele><time>2026-04-07T09:41:04.999Z</time></trkpt><trkpt lat="44.22995506423789" lon="11.327388098703151"><ele>833.0</ele><time>2026-04-07T09:41:05.999Z</time></trkpt><trkpt lat="44.23008491944685" lon="11.327566872198805"><ele>833.0</ele><time>2026-04-07T09:41:06.999Z</time></trkpt><trkpt lat="44.230224611436235" lon="11.327718715913788"><ele>833.0</ele><time>2026-04-07T09:41:07.999Z</time></trkpt><trkpt lat="44.23036245420682" lon="11.327853570374517"><ele>833.0</ele><time>2026-04-07T09:41:08.999Z</time></trkpt><trkpt lat="44.230485153997755" lon="11.32793755107784"><ele>833.0</ele><time>2026-04-07T09:41:09.999Z</time></trkpt><trkpt lat="44.23059226617885" lon="11.32794466964363"><ele>833.0</ele><time>2026-04-07T09:41:10.999Z</time></trkpt><trkpt lat="44.23072914245845" lon="11.327895793108603"><ele>833.0</ele><time>2026-04-07T09:41:11.999Z</time></trkpt><trkpt lat="44.23084603570781" lon="11.327818093000122"><ele>830.6666666666667</ele><time>2026-04-07T09:41:12.999Z</time></trkpt><trkpt lat="44.230974589503454" lon="11.327690515313025"><ele>828.3333333333333</ele><time>2026-04-07T09:41:13.999Z</time></trkpt><trkpt lat="44.23111572568255" lon="11.32754809630026"><ele>826.0</ele><time>2026-04-07T09:41:14.999Z</time></trkpt><trkpt lat="44.23125821268448" lon="11.327409150597333"><ele>826.0</ele><time>2026-04-07T09:41:15.999Z</time></trkpt><trkpt lat="44.231399717001885" lon="11.327316088551166"><ele>826.0</ele><time>2026-04-07T09:41:16.999Z</time></trkpt><trkpt lat="44.231511839673985" lon="11.327256830277877"><ele>826.0</ele><time>2026-04-07T09:41:17.999Z</time></trkpt><trkpt lat="44.231635426910245" lon="11.327289628379443"><ele>826.0</ele><time>2026-04-07T09:41:18.999Z</time></trkpt><trkpt lat="44.23174494672443" lon="11.327414347761678"><ele>826.0</ele><time>2026-04-07T09:41:19.999Z</time></trkpt><trkpt lat="44.231846246603965" lon="11.327576783648118"><ele>826.0</ele><time>2026-04-07T09:41:20.999Z</time></trkpt><trkpt lat="44.23195747476018" lon="11.327743000886652"><ele>826.0</ele><time>2026-04-07T09:41:21.999Z</time></trkpt><trkpt lat="44.23202719557725" lon="11.327923985334971"><ele>828.6666666666666</ele><time>2026-04-07T09:41:22.999Z</time></trkpt><trkpt lat="44.232057731881916" lon="11.328128573810625"><ele>831.3333333333333</ele><time>2026-04-07T09:41:23.999Z</time></trkpt><trkpt lat="44.232041597462825" lon="11.328347657189132"><ele>834.0</ele><time>2026-04-07T09:41:24.999Z</time></trkpt><trkpt lat="44.23201189829427" lon="11.3285779607441"><ele>834.0</ele><time>2026-04-07T09:41:25.999Z</time></trkpt><trkpt lat="44.23201773859976" lon="11.328804512171493"><ele>834.0</ele><time>2026-04-07T09:41:26.999Z</time></trkpt><trkpt lat="44.23207332665375" lon="11.329026165388782"><ele>834.0</ele><time>2026-04-07T09:41:27.999Z</time></trkpt><trkpt lat="44.23216699752073" lon="11.329243923323865"><ele>835.3333333333333</ele><time>2026-04-07T09:41:28.999Z</time></trkpt><trkpt lat="44.2322811791777" lon="11.329448850349017"><ele>836.6666666666666</ele><time>2026-04-07T09:41:29.999Z</time></trkpt><trkpt lat="44.23241187869575" lon="11.329620165518769"><ele>838.0</ele><time>2026-04-07T09:41:30.999Z</time></trkpt><trkpt lat="44.23256422430425" lon="11.32977987140333"><ele>834.6666666666666</ele><time>2026-04-07T09:41:31.999Z</time></trkpt><trkpt lat="44.23272394733356" lon="11.329930186641876"><ele>831.3333333333333</ele><time>2026-04-07T09:41:32.999Z</time></trkpt><trkpt lat="44.23287163846036" lon="11.33008286300374"><ele>828.0</ele><time>2026-04-07T09:41:33.999Z</time></trkpt><trkpt lat="44.232997878880084" lon="11.330224740462697"><ele>828.0</ele><time>2026-04-07T09:41:34.999Z</time></trkpt><trkpt lat="44.23309545194216" lon="11.330374337976032"><ele>828.0</ele><time>2026-04-07T09:41:35.999Z</time></trkpt><trkpt lat="44.2331192554364" lon="11.330558566753195"><ele>828.0</ele><time>2026-04-07T09:41:36.999Z</time></trkpt><trkpt lat="44.233112884579704" lon="11.33073676523783"><ele>828.0</ele><time>2026-04-07T09:41:37.999Z</time></trkpt><trkpt lat="44.23313230077911" lon="11.330912079097997"><ele>825.0</ele><time>2026-04-07T09:41:38.999Z</time></trkpt><trkpt lat="44.23317059976892" lon="11.331077831871696"><ele>822.0</ele><time>2026-04-07T09:41:39.999Z</time></trkpt><trkpt lat="44.23326442136998" lon="11.33120374761224"><ele>819.0</ele><time>2026-04-07T09:41:40.999Z</time></trkpt><trkpt lat="44.23339051363563" lon="11.331284523648277"><ele>816.0</ele><time>2026-04-07T09:41:41.999Z</time></trkpt><trkpt lat="44.23351681770915" lon="11.33136939140708"><ele>818.5</ele><time>2026-04-07T09:41:42.999Z</time></trkpt><trkpt lat="44.23361100417343" lon="11.331509015502101"><ele>821.0</ele><time>2026-04-07T09:41:43.999Z</time></trkpt><trkpt lat="44.233647286726004" lon="11.33170678814197"><ele>823.5</ele><time>2026-04-07T09:41:44.999Z</time></trkpt><trkpt lat="44.233694546241495" lon="11.331874585735786"><ele>826.0</ele><time>2026-04-07T09:41:45.999Z</time></trkpt><trkpt lat="44.23375574679483" lon="11.332007903444556"><ele>826.0</ele><time>2026-04-07T09:41:46.999Z</time></trkpt><trkpt lat="44.233858428469816" lon="11.332094037639374"><ele>826.0</ele><time>2026-04-07T09:41:47.999Z</time></trkpt><trkpt lat="44.23397953093639" lon="11.33211212381056"><ele>826.0</ele><time>2026-04-07T09:41:48.999Z</time></trkpt><trkpt lat="44.23410317069327" lon="11.332068737234717"><ele>826.0</ele><time>2026-04-07T09:41:49.999Z</time></trkpt><trkpt lat="44.23421535109345" lon="11.331962767383924"><ele>822.6666666666666</ele><time>2026-04-07T09:41:50.999Z</time></trkpt><trkpt lat="44.23431135753306" lon="11.331814852176352"><ele>819.3333333333333</ele><time>2026-04-07T09:41:51.999Z</time></trkpt><trkpt lat="44.234389301900876" lon="11.33163015146397"><ele>816.0</ele><time>2026-04-07T09:41:52.999Z</time></trkpt><trkpt lat="44.23444273547071" lon="11.33141536248267"><ele>812.6666666666667</ele><time>2026-04-07T09:41:53.999Z</time></trkpt><trkpt lat="44.234489294796774" lon="11.331183488144688"><ele>809.3333333333334</ele><time>2026-04-07T09:41:54.999Z</time></trkpt><trkpt lat="44.23456758371062" lon="11.330958671046632"><ele>806.0</ele><time>2026-04-07T09:41:55.999Z</time></trkpt><trkpt lat="44.234633046464" lon="11.330744374236913"><ele>807.6666666666667</ele><time>2026-04-07T09:41:56.999Z</time></trkpt><trkpt lat="44.234697396611075" lon="11.330551491775983"><ele>809.3333333333333</ele><time>2026-04-07T09:41:57.999Z</time></trkpt><trkpt lat="44.2347725354476" lon="11.330365729501821"><ele>811.0</ele><time>2026-04-07T09:41:58.999Z</time></trkpt><trkpt lat="44.23488705825229" lon="11.330207345278028"><ele>811.0</ele><time>2026-04-07T09:41:59.999Z</time></trkpt><trkpt lat="44.23501665795437" lon="11.330058303322552"><ele>811.0</ele><time>2026-04-07T09:42:00.999Z</time></trkpt><trkpt lat="44.23514317679743" lon="11.329931050072368"><ele>811.0</ele><time>2026-04-07T09:42:01.999Z</time></trkpt><trkpt lat="44.23526903444379" lon="11.329796852048368"><ele>809.75</ele><time>2026-04-07T09:42:02.999Z</time></trkpt><trkpt lat="44.23538395150948" lon="11.329673573922504"><ele>808.5</ele><time>2026-04-07T09:42:03.999Z</time></trkpt><trkpt lat="44.235500500910476" lon="11.32956603445243"><ele>807.25</ele><time>2026-04-07T09:42:04.999Z</time></trkpt><trkpt lat="44.23562208624195" lon="11.329508347367005"><ele>806.0</ele><time>2026-04-07T09:42:05.999Z</time></trkpt><trkpt lat="44.23575077958832" lon="11.329513946293014"><ele>806.0</ele><time>2026-04-07T09:42:06.999Z</time></trkpt><trkpt lat="44.2358821742991" lon="11.329576418132579"><ele>806.0</ele><time>2026-04-07T09:42:07.999Z</time></trkpt><trkpt lat="44.236005457696784" lon="11.3296939745186"><ele>806.0</ele><time>2026-04-07T09:42:08.999Z</time></trkpt><trkpt lat="44.23610483347159" lon="11.329868492115958"><ele>806.0</ele><time>2026-04-07T09:42:09.999Z</time></trkpt><trkpt lat="44.236234842440105" lon="11.330007662601433"><ele>804.6666666666667</ele><time>2026-04-07T09:42:10.999Z</time></trkpt><trkpt lat="44.23638430631807" lon="11.330126540245395"><ele>803.3333333333333</ele><time>2026-04-07T09:42:11.999Z</time></trkpt><trkpt lat="44.23655334239294" lon="11.330210712423124"><ele>802.0</ele><time>2026-04-07T09:42:12.999Z</time></trkpt><trkpt lat="44.236708465951224" lon="11.33029755909558"><ele>802.0</ele><time>2026-04-07T09:42:13.999Z</time></trkpt><trkpt lat="44.23685186223939" lon="11.33041351213646"><ele>802.0</ele><time>2026-04-07T09:42:14.999Z</time></trkpt><trkpt lat="44.23697464906647" lon="11.330566968072954"><ele>802.0</ele><time>2026-04-07T09:42:15.999Z</time></trkpt><trkpt lat="44.23706457014875" lon="11.330754717275658"><ele>805.75</ele><time>2026-04-07T09:42:16.999Z</time></trkpt><trkpt lat="44.23708724172102" lon="11.330956755950073"><ele>809.5</ele><time>2026-04-07T09:42:17.999Z</time></trkpt><trkpt lat="44.237085852965855" lon="11.331143115304771"><ele>813.25</ele><time>2026-04-07T09:42:18.999Z</time></trkpt><trkpt lat="44.23706480754958" lon="11.33133226626645"><ele>817.0</ele><time>2026-04-07T09:42:19.999Z</time></trkpt><trkpt lat="44.23700089675086" lon="11.331528116958806"><ele>820.3333333333333</ele><time>2026-04-07T09:42:20.999Z</time></trkpt><trkpt lat="44.23696219105422" lon="11.331744853409521"><ele>823.6666666666667</ele><time>2026-04-07T09:42:21.999Z</time></trkpt><trkpt lat="44.23694727998278" lon="11.331972425093987"><ele>827.0</ele><time>2026-04-07T09:42:22.999Z</time></trkpt><trkpt lat="44.23696251984318" lon="11.3321811445028"><ele>827.75</ele><time>2026-04-07T09:42:23.999Z</time></trkpt><trkpt lat="44.23701513511888" lon="11.332364236327361"><ele>828.5</ele><time>2026-04-07T09:42:24.999Z</time></trkpt><trkpt lat="44.237109737158896" lon="11.33249692654541"><ele>829.25</ele><time>2026-04-07T09:42:25.999Z</time></trkpt><trkpt lat="44.237233343700964" lon="11.33256464977787"><ele>830.0</ele><time>2026-04-07T09:42:26.999Z</time></trkpt><trkpt lat="44.237371273875205" lon="11.332558908191308"><ele>825.75</ele><time>2026-04-07T09:42:27.999Z</time></trkpt><trkpt lat="44.237504691597806" lon="11.332485767017467"><ele>821.5</ele><time>2026-04-07T09:42:28.999Z</time></trkpt><trkpt lat="44.23762043592682" lon="11.33235884444822"><ele>817.25</ele><time>2026-04-07T09:42:29.999Z</time></trkpt><trkpt lat="44.23771542864908" lon="11.332218638446681"><ele>813.0</ele><time>2026-04-07T09:42:30.999Z</time></trkpt><trkpt lat="44.237819305620995" lon="11.332135432558838"><ele>813.0</ele><time>2026-04-07T09:42:31.999Z</time></trkpt><trkpt lat="44.23795419023257" lon="11.332137342134917"><ele>813.0</ele><time>2026-04-07T09:42:32.999Z</time></trkpt><trkpt lat="44.23810202303255" lon="11.33224228085637"><ele>813.0</ele><time>2026-04-07T09:42:33.999Z</time></trkpt><trkpt lat="44.23826790296687" lon="11.332343113131026"><ele>811.3333333333333</ele><time>2026-04-07T09:42:34.999Z</time></trkpt><trkpt lat="44.238456159893374" lon="11.332462670632367"><ele>809.6666666666666</ele><time>2026-04-07T09:42:35.999Z</time></trkpt><trkpt lat="44.23865608841778" lon="11.332602599659987"><ele>808.0</ele><time>2026-04-07T09:42:36.999Z</time></trkpt><trkpt lat="44.23886018237573" lon="11.332751190370452"><ele>808.6666666666666</ele><time>2026-04-07T09:42:37.999Z</time></trkpt><trkpt lat="44.239065531313834" lon="11.33286060886657"><ele>809.3333333333333</ele><time>2026-04-07T09:42:38.999Z</time></trkpt><trkpt lat="44.23926867694739" lon="11.332986523521129"><ele>810.0</ele><time>2026-04-07T09:42:39.999Z</time></trkpt><trkpt lat="44.23946962205919" lon="11.33312150362806"><ele>810.0</ele><time>2026-04-07T09:42:40.999Z</time></trkpt><trkpt lat="44.23966839028171" lon="11.333251212248275"><ele>810.0</ele><time>2026-04-07T09:42:41.999Z</time></trkpt><trkpt lat="44.23985144989574" lon="11.33337290807241"><ele>810.0</ele><time>2026-04-07T09:42:42.999Z</time></trkpt><trkpt lat="44.240024236346876" lon="11.333485554283495"><ele>809.3333333333333</ele><time>2026-04-07T09:42:43.999Z</time></trkpt><trkpt lat="44.24018555527975" lon="11.333591924088005"><ele>808.6666666666666</ele><time>2026-04-07T09:42:44.999Z</time></trkpt><trkpt lat="44.240338470663914" lon="11.333699783417837"><ele>808.0</ele><time>2026-04-07T09:42:45.999Z</time></trkpt><trkpt lat="44.24047400942456" lon="11.33379702588965"><ele>808.0</ele><time>2026-04-07T09:42:46.999Z</time></trkpt><trkpt lat="44.240597296168126" lon="11.333852700631152"><ele>808.0</ele><time>2026-04-07T09:42:47.999Z</time></trkpt><trkpt lat="44.24071910008988" lon="11.333835828883466"><ele>808.0</ele><time>2026-04-07T09:42:48.999Z</time></trkpt><trkpt lat="44.240828137298436" lon="11.333758357937525"><ele>808.0</ele><time>2026-04-07T09:42:49.999Z</time></trkpt><trkpt lat="44.24091334876111" lon="11.333632614057638"><ele>808.25</ele><time>2026-04-07T09:42:50.999Z</time></trkpt><trkpt lat="44.240965312903" lon="11.333467649888867"><ele>808.5</ele><time>2026-04-07T09:42:51.999Z</time></trkpt><trkpt lat="44.240960145011044" lon="11.333261236150085"><ele>808.75</ele><time>2026-04-07T09:42:52.999Z</time></trkpt><trkpt lat="44.24091860801954" lon="11.333047097276614"><ele>809.0</ele><time>2026-04-07T09:42:53.999Z</time></trkpt><trkpt lat="44.240857389462555" lon="11.332820914265493"><ele>808.5</ele><time>2026-04-07T09:42:54.999Z</time></trkpt><trkpt lat="44.24082199541131" lon="11.33259798071322"><ele>808.0</ele><time>2026-04-07T09:42:55.999Z</time></trkpt><trkpt lat="44.24079069747601" lon="11.332401612757748"><ele>807.5</ele><time>2026-04-07T09:42:56.999Z</time></trkpt><trkpt lat="44.24076054773224" lon="11.332218573447678"><ele>807.0</ele><time>2026-04-07T09:42:57.999Z</time></trkpt><trkpt lat="44.24078294353716" lon="11.332029453018112"><ele>804.75</ele><time>2026-04-07T09:42:58.999Z</time></trkpt><trkpt lat="44.24084120661975" lon="11.331846864434608"><ele>802.5</ele><time>2026-04-07T09:42:59.999Z</time></trkpt><trkpt lat="44.24091142256614" lon="11.331676255134118"><ele>800.25</ele><time>2026-04-07T09:43:00.999Z</time></trkpt><trkpt lat="44.24099222528979" lon="11.331526296311049"><ele>798.0</ele><time>2026-04-07T09:43:01.999Z</time></trkpt><trkpt lat="44.24109478945545" lon="11.331428794985989"><ele>797.0</ele><time>2026-04-07T09:43:02.999Z</time></trkpt><trkpt lat="44.24117913986733" lon="11.33131308797742"><ele>796.0</ele><time>2026-04-07T09:43:03.999Z</time></trkpt><trkpt lat="44.24128494438266" lon="11.331239563856911"><ele>795.0</ele><time>2026-04-07T09:43:04.999Z</time></trkpt><trkpt lat="44.241394133198575" lon="11.331217233970545"><ele>794.0</ele><time>2026-04-07T09:43:05.999Z</time></trkpt><trkpt lat="44.24149552890291" lon="11.33125003123277"><ele>794.0</ele><time>2026-04-07T09:43:06.999Z</time></trkpt><trkpt lat="44.24158392732615" lon="11.331322408614255"><ele>794.0</ele><time>2026-04-07T09:43:07.999Z</time></trkpt><trkpt lat="44.24166813123113" lon="11.331444697213405"><ele>794.0</ele><time>2026-04-07T09:43:08.999Z</time></trkpt><trkpt lat="44.241780233545185" lon="11.331605098175844"><ele>794.0</ele><time>2026-04-07T09:43:09.999Z</time></trkpt><trkpt lat="44.24190729496975" lon="11.331786687850304"><ele>793.6666666666667</ele><time>2026-04-07T09:43:10.999Z</time></trkpt><trkpt lat="44.242041778690364" lon="11.331933705951343"><ele>793.3333333333333</ele><time>2026-04-07T09:43:11.999Z</time></trkpt><trkpt lat="44.24217471263581" lon="11.332050060673708"><ele>793.0</ele><time>2026-04-07T09:43:12.999Z</time></trkpt><trkpt lat="44.24230761317519" lon="11.332129031390464"><ele>793.0</ele><time>2026-04-07T09:43:13.999Z</time></trkpt><trkpt lat="44.242448859120884" lon="11.332183646604111"><ele>793.0</ele><time>2026-04-07T09:43:14.999Z</time></trkpt><trkpt lat="44.24258664593145" lon="11.332193926375083"><ele>793.0</ele><time>2026-04-07T09:43:15.999Z</time></trkpt><trkpt lat="44.242712487391785" lon="11.332140765371571"><ele>793.0</ele><time>2026-04-07T09:43:16.999Z</time></trkpt><trkpt lat="44.24281738376703" lon="11.332022034636957"><ele>793.0</ele><time>2026-04-07T09:43:17.999Z</time></trkpt><trkpt lat="44.24294031998069" lon="11.331898325154759"><ele>793.0</ele><time>2026-04-07T09:43:18.999Z</time></trkpt><trkpt lat="44.24308253150852" lon="11.331866309984646"><ele>793.0</ele><time>2026-04-07T09:43:19.999Z</time></trkpt><trkpt lat="44.243238747330096" lon="11.33186912691686"><ele>792.75</ele><time>2026-04-07T09:43:20.999Z</time></trkpt><trkpt lat="44.24339837288517" lon="11.331864939778308"><ele>792.5</ele><time>2026-04-07T09:43:21.999Z</time></trkpt><trkpt lat="44.243541544767574" lon="11.331897217009066"><ele>792.25</ele><time>2026-04-07T09:43:23Z</time></trkpt><trkpt lat="44.24367776725083" lon="11.331918252478733"><ele>792.0</ele><time>2026-04-07T09:43:24Z</time></trkpt><trkpt lat="44.24380447314066" lon="11.33192613767575"><ele>792.0</ele><time>2026-04-07T09:43:25Z</time></trkpt><trkpt lat="44.24391864737719" lon="11.33192255605631"><ele>792.0</ele><time>2026-04-07T09:43:26Z</time></trkpt><trkpt lat="44.2440140584544" lon="11.331885988223664"><ele>792.0</ele><time>2026-04-07T09:43:27Z</time></trkpt><trkpt lat="44.244084465149534" lon="11.331829661877949"><ele>792.0</ele><time>2026-04-07T09:43:28Z</time></trkpt><trkpt lat="44.244139458961975" lon="11.331767555404626"><ele>792.0</ele><time>2026-04-07T09:43:29Z</time></trkpt><trkpt lat="44.24421056101605" lon="11.331703696960345"><ele>793.2</ele><time>2026-04-07T09:43:31Z</time></trkpt><trkpt lat="44.24429660585909" lon="11.331663368725541"><ele>794.4000000000001</ele><time>2026-04-07T09:43:45Z</time></trkpt><trkpt lat="44.244415295311676" lon="11.331625373206002"><ele>795.5999999999999</ele><time>2026-04-07T09:43:47Z</time></trkpt><trkpt lat="44.244484061961764" lon="11.331646113027254"><ele>796.8</ele><time>2026-04-07T09:43:48Z</time></trkpt><trkpt lat="44.24456418106309" lon="11.331684099744363"><ele>798.0</ele><time>2026-04-07T09:43:49Z</time></trkpt><trkpt lat="44.244651310672275" lon="11.331755043806819"><ele>798.0</ele><time>2026-04-07T09:43:50Z</time></trkpt><trkpt lat="44.24473839142388" lon="11.331855123974663"><ele>798.0</ele><time>2026-04-07T09:43:51Z</time></trkpt><trkpt lat="44.244786675409394" lon="11.331972220331918"><ele>798.0</ele><time>2026-04-07T09:43:52Z</time></trkpt><trkpt lat="44.24484688593365" lon="11.332087772214598"><ele>798.0</ele><time>2026-04-07T09:43:53Z</time></trkpt><trkpt lat="44.24489911513338" lon="11.332218871422098"><ele>798.0</ele><time>2026-04-07T09:43:54Z</time></trkpt><trkpt lat="44.24493115688121" lon="11.332366396682398"><ele>796.75</ele><time>2026-04-07T09:43:55Z</time></trkpt><trkpt lat="44.24494964122208" lon="11.332534172639264"><ele>795.5</ele><time>2026-04-07T09:43:56Z</time></trkpt><trkpt lat="44.24496701427987" lon="11.332691984831825"><ele>794.25</ele><time>2026-04-07T09:43:57Z</time></trkpt><trkpt lat="44.24500154649691" lon="11.332841387635138"><ele>793.0</ele><time>2026-04-07T09:43:58Z</time></trkpt><trkpt lat="44.24503623899054" lon="11.33299270590353"><ele>795.0</ele><time>2026-04-07T09:43:59Z</time></trkpt><trkpt lat="44.24509506989505" lon="11.333131494655857"><ele>797.0</ele><time>2026-04-07T09:44:00Z</time></trkpt><trkpt lat="44.24517396815096" lon="11.333260191987765"><ele>799.0</ele><time>2026-04-07T09:44:01Z</time></trkpt><trkpt lat="44.245250515624186" lon="11.33339431416738"><ele>801.0</ele><time>2026-04-07T09:44:02Z</time></trkpt><trkpt lat="44.24533055357548" lon="11.333515251891237"><ele>801.0</ele><time>2026-04-07T09:44:03Z</time></trkpt><trkpt lat="44.24542705838343" lon="11.333610882553064"><ele>801.0</ele><time>2026-04-07T09:44:04Z</time></trkpt><trkpt lat="44.24553300195089" lon="11.333674657419914"><ele>801.0</ele><time>2026-04-07T09:44:05Z</time></trkpt><trkpt lat="44.24564140813481" lon="11.333675990565359"><ele>801.0</ele><time>2026-04-07T09:44:06Z</time></trkpt><trkpt lat="44.245755331981876" lon="11.333627198465653"><ele>799.5</ele><time>2026-04-07T09:44:07Z</time></trkpt><trkpt lat="44.24586828383144" lon="11.333553535875037"><ele>798.0</ele><time>2026-04-07T09:44:08Z</time></trkpt><trkpt lat="44.245984807254686" lon="11.33346778113474"><ele>796.5</ele><time>2026-04-07T09:44:09Z</time></trkpt><trkpt lat="44.24610746918775" lon="11.333378640301685"><ele>795.0</ele><time>2026-04-07T09:44:10Z</time></trkpt><trkpt lat="44.24622448662771" lon="11.333297972968515"><ele>795.0</ele><time>2026-04-07T09:44:11Z</time></trkpt><trkpt lat="44.246330527427126" lon="11.333233198355718"><ele>795.0</ele><time>2026-04-07T09:44:12Z</time></trkpt><trkpt lat="44.246429743306265" lon="11.33316800938362"><ele>795.0</ele><time>2026-04-07T09:44:13Z</time></trkpt><trkpt lat="44.24652414399846" lon="11.33309452207843"><ele>795.0</ele><time>2026-04-07T09:44:14Z</time></trkpt><trkpt lat="44.24661715135796" lon="11.333022843101741"><ele>795.0</ele><time>2026-04-07T09:44:15Z</time></trkpt><trkpt lat="44.24671299893279" lon="11.332941150941949"><ele>793.6</ele><time>2026-04-07T09:44:16Z</time></trkpt><trkpt lat="44.24678848437304" lon="11.332840989937083"><ele>792.2</ele><time>2026-04-07T09:44:17Z</time></trkpt><trkpt lat="44.24683918651652" lon="11.332703668944575"><ele>790.8</ele><time>2026-04-07T09:44:18Z</time></trkpt><trkpt lat="44.246875379446784" lon="11.332566476439291"><ele>789.4</ele><time>2026-04-07T09:44:19Z</time></trkpt><trkpt lat="44.24687694702935" lon="11.332428558259611"><ele>788.0</ele><time>2026-04-07T09:44:20Z</time></trkpt><trkpt lat="44.24686100439502" lon="11.332299989619028"><ele>787.4</ele><time>2026-04-07T09:44:21Z</time></trkpt><trkpt lat="44.2468882918997" lon="11.332173411186275"><ele>786.8</ele><time>2026-04-07T09:44:22Z</time></trkpt><trkpt lat="44.246950740624655" lon="11.332059426766293"><ele>786.2</ele><time>2026-04-07T09:44:23Z</time></trkpt><trkpt lat="44.24704401479811" lon="11.331984071719939"><ele>785.6</ele><time>2026-04-07T09:44:24Z</time></trkpt><trkpt lat="44.2471515149597" lon="11.33196392062163"><ele>785.0</ele><time>2026-04-07T09:44:25Z</time></trkpt><trkpt lat="44.24726124957829" lon="11.332000594461912"><ele>786.0</ele><time>2026-04-07T09:44:26Z</time></trkpt><trkpt lat="44.247378639132336" lon="11.332081299210522"><ele>787.0</ele><time>2026-04-07T09:44:27Z</time></trkpt><trkpt lat="44.247497286119696" lon="11.332185375507448"><ele>788.0</ele><time>2026-04-07T09:44:28Z</time></trkpt><trkpt lat="44.24760746484174" lon="11.332282902810013"><ele>789.0</ele><time>2026-04-07T09:44:29Z</time></trkpt><trkpt lat="44.247711197879646" lon="11.332377377609319"><ele>789.75</ele><time>2026-04-07T09:44:30Z</time></trkpt><trkpt lat="44.24782542495919" lon="11.332443288188585"><ele>790.5</ele><time>2026-04-07T09:44:31Z</time></trkpt><trkpt lat="44.24795618183113" lon="11.332470818125355"><ele>791.25</ele><time>2026-04-07T09:44:32Z</time></trkpt><trkpt lat="44.24809021413996" lon="11.332453429060555"><ele>792.0</ele><time>2026-04-07T09:44:33Z</time></trkpt><trkpt lat="44.24820550541181" lon="11.332400369386587"><ele>792.0</ele><time>2026-04-07T09:44:34Z</time></trkpt><trkpt lat="44.248302626343815" lon="11.332345822162969"><ele>792.0</ele><time>2026-04-07T09:44:35Z</time></trkpt><trkpt lat="44.248398024724096" lon="11.332310591370423"><ele>792.0</ele><time>2026-04-07T09:44:36Z</time></trkpt><trkpt lat="44.248494422035385" lon="11.332324036119449"><ele>792.0</ele><time>2026-04-07T09:44:37Z</time></trkpt><trkpt lat="44.24859637834913" lon="11.332389634231488"><ele>792.0</ele><time>2026-04-07T09:44:38Z</time></trkpt><trkpt lat="44.248673949565514" lon="11.33250529850787"><ele>792.0</ele><time>2026-04-07T09:44:39Z</time></trkpt><trkpt lat="44.2487182399085" lon="11.332657719853469"><ele>792.0</ele><time>2026-04-07T09:44:40Z</time></trkpt><trkpt lat="44.24874182374653" lon="11.33284172621459"><ele>792.0</ele><time>2026-04-07T09:44:41Z</time></trkpt><trkpt lat="44.248769484132126" lon="11.333012920906462"><ele>792.0</ele><time>2026-04-07T09:44:42Z</time></trkpt><trkpt lat="44.248817857784296" lon="11.333190666175074"><ele>794.25</ele><time>2026-04-07T09:44:43Z</time></trkpt><trkpt lat="44.248877020504146" lon="11.333354878224675"><ele>796.5</ele><time>2026-04-07T09:44:44Z</time></trkpt><trkpt lat="44.24894847927197" lon="11.333498627598438"><ele>798.75</ele><time>2026-04-07T09:44:45Z</time></trkpt><trkpt lat="44.24903102942748" lon="11.333634794059169"><ele>801.0</ele><time>2026-04-07T09:44:46Z</time></trkpt><trkpt lat="44.249111567375245" lon="11.333748098461756"><ele>797.1999999999999</ele><time>2026-04-07T09:44:47Z</time></trkpt><trkpt lat="44.24918132854331" lon="11.333844365226959"><ele>793.4</ele><time>2026-04-07T09:44:48Z</time></trkpt><trkpt lat="44.24924721236262" lon="11.333939153824781"><ele>789.6</ele><time>2026-04-07T09:44:49Z</time></trkpt><trkpt lat="44.24931449655895" lon="11.334017685971057"><ele>785.8</ele><time>2026-04-07T09:44:50Z</time></trkpt><trkpt lat="44.249384095813284" lon="11.334078039804444"><ele>782.0</ele><time>2026-04-07T09:44:51Z</time></trkpt><trkpt lat="44.24946744446579" lon="11.334129754591462"><ele>782.0</ele><time>2026-04-07T09:44:52Z</time></trkpt><trkpt lat="44.24956085657035" lon="11.334155233585214"><ele>782.0</ele><time>2026-04-07T09:44:53Z</time></trkpt><trkpt lat="44.249670556371356" lon="11.334165213727182"><ele>782.0</ele><time>2026-04-07T09:44:54Z</time></trkpt><trkpt lat="44.24980102202895" lon="11.33409720104777"><ele>782.0</ele><time>2026-04-07T09:44:55Z</time></trkpt><trkpt lat="44.249916657386606" lon="11.333985857115676"><ele>781.25</ele><time>2026-04-07T09:44:56Z</time></trkpt><trkpt lat="44.25003271871298" lon="11.333867045157405"><ele>780.5</ele><time>2026-04-07T09:44:57Z</time></trkpt><trkpt lat="44.25014764756833" lon="11.333749423871666"><ele>779.75</ele><time>2026-04-07T09:44:58Z</time></trkpt><trkpt lat="44.250260416165474" lon="11.333634113823859"><ele>779.0</ele><time>2026-04-07T09:44:59Z</time></trkpt><trkpt lat="44.25037296506" lon="11.333519311961512"><ele>779.0</ele><time>2026-04-07T09:45:00Z</time></trkpt><trkpt lat="44.25047052845596" lon="11.333393858965346"><ele>779.0</ele><time>2026-04-07T09:45:01Z</time></trkpt><trkpt lat="44.25058106147578" lon="11.333281464678219"><ele>779.0</ele><time>2026-04-07T09:45:02Z</time></trkpt><trkpt lat="44.250711382996904" lon="11.333180077494928"><ele>779.0</ele><time>2026-04-07T09:45:03Z</time></trkpt><trkpt lat="44.25084283939418" lon="11.333113379862125"><ele>778.25</ele><time>2026-04-07T09:45:04Z</time></trkpt><trkpt lat="44.25097183962779" lon="11.333043293891862"><ele>777.5</ele><time>2026-04-07T09:45:05Z</time></trkpt><trkpt lat="44.25110071388639" lon="11.33293515913295"><ele>776.75</ele><time>2026-04-07T09:45:06Z</time></trkpt><trkpt lat="44.25120271737984" lon="11.332801466298072"><ele>776.0</ele><time>2026-04-07T09:45:07Z</time></trkpt><trkpt lat="44.251288870452754" lon="11.33267254237206"><ele>776.0</ele><time>2026-04-07T09:45:08Z</time></trkpt><trkpt lat="44.25134882394125" lon="11.332534396492633"><ele>776.0</ele><time>2026-04-07T09:45:09Z</time></trkpt><trkpt lat="44.251439967289684" lon="11.332458973647523"><ele>776.0</ele><time>2026-04-07T09:45:10Z</time></trkpt><trkpt lat="44.25154365245204" lon="11.332417464288834"><ele>776.0</ele><time>2026-04-07T09:45:11Z</time></trkpt><trkpt lat="44.25167107768366" lon="11.33240102819327"><ele>777.5</ele><time>2026-04-07T09:45:12Z</time></trkpt><trkpt lat="44.25180738468722" lon="11.332421636100745"><ele>779.0</ele><time>2026-04-07T09:45:13Z</time></trkpt><trkpt lat="44.25194446887086" lon="11.33246865923788"><ele>780.5</ele><time>2026-04-07T09:45:14Z</time></trkpt><trkpt lat="44.25207321976693" lon="11.332520460484343"><ele>782.0</ele><time>2026-04-07T09:45:15Z</time></trkpt><trkpt lat="44.252201814728174" lon="11.332571102117758"><ele>781.25</ele><time>2026-04-07T09:45:16Z</time></trkpt><trkpt lat="44.25232458796576" lon="11.332613939766702"><ele>780.5</ele><time>2026-04-07T09:45:17Z</time></trkpt><trkpt lat="44.25245008080302" lon="11.332673351410413"><ele>779.75</ele><time>2026-04-07T09:45:18Z</time></trkpt><trkpt lat="44.252585677226136" lon="11.332714255141429"><ele>779.0</ele><time>2026-04-07T09:45:19Z</time></trkpt><trkpt lat="44.25271492134864" lon="11.332746451520272"><ele>779.0</ele><time>2026-04-07T09:45:20Z</time></trkpt><trkpt lat="44.252904239588986" lon="11.332793715178076"><ele>779.0</ele><time>2026-04-07T09:45:21Z</time></trkpt><trkpt lat="44.25304484678182" lon="11.332822994075814"><ele>779.0</ele><time>2026-04-07T09:45:22Z</time></trkpt><trkpt lat="44.253177761936556" lon="11.332857239531348"><ele>780.0</ele><time>2026-04-07T09:45:23Z</time></trkpt><trkpt lat="44.25329398008681" lon="11.332916698351742"><ele>781.0</ele><time>2026-04-07T09:45:24Z</time></trkpt><trkpt lat="44.25341168350452" lon="11.332966443280762"><ele>782.0</ele><time>2026-04-07T09:45:25Z</time></trkpt><trkpt lat="44.25352870174953" lon="11.333006499028235"><ele>783.0</ele><time>2026-04-07T09:45:26Z</time></trkpt><trkpt lat="44.253649435477" lon="11.333065675749523"><ele>783.0</ele><time>2026-04-07T09:45:27Z</time></trkpt><trkpt lat="44.2537828245667" lon="11.33313226302168"><ele>783.0</ele><time>2026-04-07T09:45:28Z</time></trkpt><trkpt lat="44.25392407112594" lon="11.33320852596373"><ele>783.0</ele><time>2026-04-07T09:45:29Z</time></trkpt><trkpt lat="44.25407440258955" lon="11.333283360470661"><ele>778.3333333333333</ele><time>2026-04-07T09:45:30Z</time></trkpt><trkpt lat="44.254226390924245" lon="11.333355190776544"><ele>773.6666666666666</ele><time>2026-04-07T09:45:31Z</time></trkpt><trkpt lat="44.25438735568527" lon="11.333388862370887"><ele>769.0</ele><time>2026-04-07T09:45:32Z</time></trkpt><trkpt lat="44.25454102684755" lon="11.33338169407898"><ele>769.0</ele><time>2026-04-07T09:45:33Z</time></trkpt><trkpt lat="44.25469495499287" lon="11.333355727448021"><ele>769.0</ele><time>2026-04-07T09:45:34Z</time></trkpt><trkpt lat="44.254845880487125" lon="11.33332268600756"><ele>769.0</ele><time>2026-04-07T09:45:35Z</time></trkpt><trkpt lat="44.254992494734424" lon="11.33327849381895"><ele>769.25</ele><time>2026-04-07T09:45:36Z</time></trkpt><trkpt lat="44.25511789646755" lon="11.333201890455719"><ele>769.5</ele><time>2026-04-07T09:45:37Z</time></trkpt><trkpt lat="44.25521223207164" lon="11.333075982104353"><ele>769.75</ele><time>2026-04-07T09:45:38Z</time></trkpt><trkpt lat="44.2552722861979" lon="11.332888971589174"><ele>770.0</ele><time>2026-04-07T09:45:39Z</time></trkpt><trkpt lat="44.25529585984526" lon="11.33267470194715"><ele>770.0</ele><time>2026-04-07T09:45:40Z</time></trkpt><trkpt lat="44.25529320396839" lon="11.332460316247658"><ele>770.0</ele><time>2026-04-07T09:45:41Z</time></trkpt><trkpt lat="44.25530514630458" lon="11.332266177001664"><ele>770.0</ele><time>2026-04-07T09:45:42Z</time></trkpt><trkpt lat="44.25537250382048" lon="11.332132653945157"><ele>770.0</ele><time>2026-04-07T09:45:43Z</time></trkpt><trkpt lat="44.25545236026567" lon="11.332020140423182"><ele>769.0</ele><time>2026-04-07T09:45:44Z</time></trkpt><trkpt lat="44.255550245056" lon="11.331911445321388"><ele>768.0</ele><time>2026-04-07T09:45:45Z</time></trkpt><trkpt lat="44.255664447959354" lon="11.331815476703904"><ele>767.0</ele><time>2026-04-07T09:45:46Z</time></trkpt><trkpt lat="44.25579290660023" lon="11.331732208038499"><ele>766.0</ele><time>2026-04-07T09:45:47Z</time></trkpt><trkpt lat="44.25592989733607" lon="11.331663243273606"><ele>770.0</ele><time>2026-04-07T09:45:48Z</time></trkpt><trkpt lat="44.256070378634995" lon="11.331597579863013"><ele>774.0</ele><time>2026-04-07T09:45:49Z</time></trkpt><trkpt lat="44.25621555930657" lon="11.331513105265515"><ele>778.0</ele><time>2026-04-07T09:45:50Z</time></trkpt><trkpt lat="44.25636397912415" lon="11.331459958307724"><ele>777.3333333333333</ele><time>2026-04-07T09:45:51Z</time></trkpt><trkpt lat="44.256511478610996" lon="11.331435767456526"><ele>776.6666666666667</ele><time>2026-04-07T09:45:52Z</time></trkpt><trkpt lat="44.256662885534396" lon="11.331389596041442"><ele>776.0</ele><time>2026-04-07T09:45:53Z</time></trkpt><trkpt lat="44.2568305875338" lon="11.331343142592303"><ele>770.3333333333334</ele><time>2026-04-07T09:45:54Z</time></trkpt><trkpt lat="44.25700480036086" lon="11.33130729319714"><ele>764.6666666666667</ele><time>2026-04-07T09:45:55Z</time></trkpt><trkpt lat="44.25718153355257" lon="11.331305394278896"><ele>759.0</ele><time>2026-04-07T09:45:56Z</time></trkpt><trkpt lat="44.25735629171702" lon="11.331324233106656"><ele>758.0</ele><time>2026-04-07T09:45:57Z</time></trkpt><trkpt lat="44.25753868982748" lon="11.331320598491866"><ele>757.0</ele><time>2026-04-07T09:45:58Z</time></trkpt><trkpt lat="44.25770616647286" lon="11.331339962686005"><ele>756.0</ele><time>2026-04-07T09:45:59Z</time></trkpt><trkpt lat="44.25787789131133" lon="11.331337716848928"><ele>756.0</ele><time>2026-04-07T09:46:00Z</time></trkpt><trkpt lat="44.258054802505654" lon="11.33130227009366"><ele>756.0</ele><time>2026-04-07T09:46:01Z</time></trkpt><trkpt lat="44.25823765249007" lon="11.33123126360468"><ele>756.0</ele><time>2026-04-07T09:46:02Z</time></trkpt><trkpt lat="44.25842179352527" lon="11.33112614586665"><ele>756.0</ele><time>2026-04-07T09:46:03Z</time></trkpt><trkpt lat="44.25859257009715" lon="11.33101450638543"><ele>756.0</ele><time>2026-04-07T09:46:04Z</time></trkpt><trkpt lat="44.25875763502565" lon="11.330930960970845"><ele>756.0</ele><time>2026-04-07T09:46:05Z</time></trkpt><trkpt lat="44.25891642692862" lon="11.330833355723492"><ele>756.3333333333334</ele><time>2026-04-07T09:46:06Z</time></trkpt><trkpt lat="44.259063863475895" lon="11.330719910563671"><ele>756.6666666666667</ele><time>2026-04-07T09:46:07Z</time></trkpt><trkpt lat="44.259215005317415" lon="11.33063127833217"><ele>757.0</ele><time>2026-04-07T09:46:08Z</time></trkpt><trkpt lat="44.2593637016125" lon="11.330540118756527"><ele>753.0</ele><time>2026-04-07T09:46:09Z</time></trkpt><trkpt lat="44.25950271349151" lon="11.330421316066227"><ele>749.0</ele><time>2026-04-07T09:46:10Z</time></trkpt><trkpt lat="44.259622135729344" lon="11.330270066811748"><ele>745.0</ele><time>2026-04-07T09:46:11Z</time></trkpt><trkpt lat="44.2597185282127" lon="11.330088844712302"><ele>744.0</ele><time>2026-04-07T09:46:12Z</time></trkpt><trkpt lat="44.25979447517275" lon="11.329905754913632"><ele>743.0</ele><time>2026-04-07T09:46:13Z</time></trkpt><trkpt lat="44.259885848990734" lon="11.329753480456027"><ele>742.0</ele><time>2026-04-07T09:46:14Z</time></trkpt><trkpt lat="44.259963646139354" lon="11.32959631360182"><ele>741.0</ele><time>2026-04-07T09:46:15Z</time></trkpt><trkpt lat="44.26006821877397" lon="11.329474204729149"><ele>741.0</ele><time>2026-04-07T09:46:16Z</time></trkpt><trkpt lat="44.26018328820875" lon="11.329353485641137"><ele>741.0</ele><time>2026-04-07T09:46:17Z</time></trkpt><trkpt lat="44.260300176175136" lon="11.329229962638117"><ele>741.0</ele><time>2026-04-07T09:46:18Z</time></trkpt><trkpt lat="44.260415837249624" lon="11.329097778814052"><ele>741.0</ele><time>2026-04-07T09:46:19Z</time></trkpt><trkpt lat="44.26052028640935" lon="11.328958193212566"><ele>741.5</ele><time>2026-04-07T09:46:20Z</time></trkpt><trkpt lat="44.2605965592192" lon="11.328804775286319"><ele>742.0</ele><time>2026-04-07T09:46:21Z</time></trkpt><trkpt lat="44.26064316525936" lon="11.32863458182773"><ele>742.5</ele><time>2026-04-07T09:46:22Z</time></trkpt><trkpt lat="44.260665267322295" lon="11.32846400542125"><ele>743.0</ele><time>2026-04-07T09:46:23Z</time></trkpt><trkpt lat="44.26068801852537" lon="11.328272670528671"><ele>742.6666666666666</ele><time>2026-04-07T09:46:24Z</time></trkpt><trkpt lat="44.26072209226101" lon="11.328058856587822"><ele>742.3333333333334</ele><time>2026-04-07T09:46:25Z</time></trkpt><trkpt lat="44.26076572007282" lon="11.327829162760784"><ele>742.0</ele><time>2026-04-07T09:46:26Z</time></trkpt><trkpt lat="44.26081171961683" lon="11.327615318176273"><ele>742.0</ele><time>2026-04-07T09:46:27Z</time></trkpt><trkpt lat="44.26085358417936" lon="11.327423237102586"><ele>742.0</ele><time>2026-04-07T09:46:28Z</time></trkpt><trkpt lat="44.26089276373706" lon="11.327246941424752"><ele>742.0</ele><time>2026-04-07T09:46:29Z</time></trkpt><trkpt lat="44.260935766736225" lon="11.32708205522184"><ele>742.0</ele><time>2026-04-07T09:46:30Z</time></trkpt><trkpt lat="44.26098056710341" lon="11.32692441723491"><ele>741.75</ele><time>2026-04-07T09:46:31Z</time></trkpt><trkpt lat="44.26102280289381" lon="11.326777633336006"><ele>741.5</ele><time>2026-04-07T09:46:32Z</time></trkpt><trkpt lat="44.26106939114463" lon="11.32663604836936"><ele>741.25</ele><time>2026-04-07T09:46:33Z</time></trkpt><trkpt lat="44.26112070591182" lon="11.326494613797289"><ele>741.0</ele><time>2026-04-07T09:46:34Z</time></trkpt><trkpt lat="44.261174914001955" lon="11.326353691967185"><ele>740.0</ele><time>2026-04-07T09:46:35Z</time></trkpt><trkpt lat="44.26123193714913" lon="11.326208727068712"><ele>739.0</ele><time>2026-04-07T09:46:36Z</time></trkpt><trkpt lat="44.26129048275708" lon="11.326059584151858"><ele>738.0</ele><time>2026-04-07T09:46:37Z</time></trkpt><trkpt lat="44.26134138641354" lon="11.325935123927385"><ele>737.0</ele><time>2026-04-07T09:46:38Z</time></trkpt><trkpt lat="44.26138458728995" lon="11.325839793914149"><ele>736.0</ele><time>2026-04-07T09:46:39Z</time></trkpt><trkpt lat="44.26144389152662" lon="11.32573054116721"><ele>736.0</ele><time>2026-04-07T09:46:41Z</time></trkpt><trkpt lat="44.261318309436135" lon="11.325748716019161"><ele>736.0</ele><time>2026-04-07T09:46:44Z</time></trkpt><trkpt lat="44.26121032685457" lon="11.32574547542359"><ele>736.0</ele><time>2026-04-07T09:46:46Z</time></trkpt><trkpt lat="44.26114899577101" lon="11.325704959618477"><ele>736.0</ele><time>2026-04-07T09:46:47Z</time></trkpt><trkpt lat="44.26107610159113" lon="11.325665269028171"><ele>736.0</ele><time>2026-04-07T09:46:48Z</time></trkpt><trkpt lat="44.26103487748856" lon="11.325505984329054"><ele>735.75</ele><time>2026-04-07T09:46:49Z</time></trkpt><trkpt lat="44.260993834416" lon="11.325361526886384"><ele>735.5</ele><time>2026-04-07T09:46:50Z</time></trkpt><trkpt lat="44.26096792880786" lon="11.325212675644561"><ele>735.25</ele><time>2026-04-07T09:46:51Z</time></trkpt><trkpt lat="44.260954856013754" lon="11.325052860093642"><ele>735.0</ele><time>2026-04-07T09:46:52Z</time></trkpt><trkpt lat="44.260933781848316" lon="11.324884354392646"><ele>734.25</ele><time>2026-04-07T09:46:53Z</time></trkpt><trkpt lat="44.26089496606638" lon="11.32469547981"><ele>733.5</ele><time>2026-04-07T09:46:54Z</time></trkpt><trkpt lat="44.260833110241826" lon="11.324499387588826"><ele>732.75</ele><time>2026-04-07T09:46:55Z</time></trkpt><trkpt lat="44.26075319592276" lon="11.324328646803153"><ele>732.0</ele><time>2026-04-07T09:46:56Z</time></trkpt><trkpt lat="44.26064598850496" lon="11.324155467177086"><ele>728.0</ele><time>2026-04-07T09:46:57Z</time></trkpt><trkpt lat="44.26051435403228" lon="11.323988104693397"><ele>724.0</ele><time>2026-04-07T09:46:58Z</time></trkpt><trkpt lat="44.26038131937896" lon="11.323857511699387"><ele>720.0</ele><time>2026-04-07T09:46:59Z</time></trkpt><trkpt lat="44.26026505929815" lon="11.3237357789405"><ele>720.0</ele><time>2026-04-07T09:47:00Z</time></trkpt><trkpt lat="44.26019228327746" lon="11.323610466308297"><ele>720.0</ele><time>2026-04-07T09:47:01Z</time></trkpt><trkpt lat="44.26016069532595" lon="11.323467342727572"><ele>720.0</ele><time>2026-04-07T09:47:02Z</time></trkpt><trkpt lat="44.26017358008495" lon="11.323317347198115"><ele>720.0</ele><time>2026-04-07T09:47:03Z</time></trkpt><trkpt lat="44.26022348173959" lon="11.323182004731967"><ele>720.0</ele><time>2026-04-07T09:47:04Z</time></trkpt><trkpt lat="44.2603068797381" lon="11.323080023576182"><ele>719.75</ele><time>2026-04-07T09:47:05Z</time></trkpt><trkpt lat="44.26042170398205" lon="11.323015863106638"><ele>719.5</ele><time>2026-04-07T09:47:06Z</time></trkpt><trkpt lat="44.260555755616934" lon="11.323039392247454"><ele>719.25</ele><time>2026-04-07T09:47:07Z</time></trkpt><trkpt lat="44.2607072317547" lon="11.323019614332061"><ele>719.0</ele><time>2026-04-07T09:47:08Z</time></trkpt><trkpt lat="44.26086903444371" lon="11.32304405134089"><ele>717.3333333333333</ele><time>2026-04-07T09:47:09Z</time></trkpt><trkpt lat="44.26103561455175" lon="11.32305600295489"><ele>715.6666666666666</ele><time>2026-04-07T09:47:10Z</time></trkpt><trkpt lat="44.2612041434449" lon="11.323044279628412"><ele>714.0</ele><time>2026-04-07T09:47:11Z</time></trkpt><trkpt lat="44.26137750571145" lon="11.32304390193401"><ele>713.0</ele><time>2026-04-07T09:47:12Z</time></trkpt><trkpt lat="44.26155538915287" lon="11.323042058153423"><ele>712.0</ele><time>2026-04-07T09:47:13Z</time></trkpt><trkpt lat="44.26173344417348" lon="11.323038582624795"><ele>711.0</ele><time>2026-04-07T09:47:14Z</time></trkpt><trkpt lat="44.261906908234444" lon="11.323038319712591"><ele>711.0</ele><time>2026-04-07T09:47:15Z</time></trkpt><trkpt lat="44.26207329750257" lon="11.323040621518143"><ele>711.0</ele><time>2026-04-07T09:47:16Z</time></trkpt><trkpt lat="44.2622383515971" lon="11.323047492623347"><ele>711.0</ele><time>2026-04-07T09:47:17Z</time></trkpt><trkpt lat="44.26240443343329" lon="11.323068523517788"><ele>712.0</ele><time>2026-04-07T09:47:18Z</time></trkpt><trkpt lat="44.262573455440965" lon="11.323110394161931"><ele>713.0</ele><time>2026-04-07T09:47:19Z</time></trkpt><trkpt lat="44.26272853006113" lon="11.323181267203644"><ele>714.0</ele><time>2026-04-07T09:47:20Z</time></trkpt><trkpt lat="44.262870352877975" lon="11.32326642949992"><ele>714.0</ele><time>2026-04-07T09:47:21Z</time></trkpt><trkpt lat="44.26300417878177" lon="11.323358771951797"><ele>714.0</ele><time>2026-04-07T09:47:22Z</time></trkpt><trkpt lat="44.26313586240869" lon="11.323444321874193"><ele>714.0</ele><time>2026-04-07T09:47:23Z</time></trkpt><trkpt lat="44.263264550040354" lon="11.323523782502189"><ele>714.0</ele><time>2026-04-07T09:47:24Z</time></trkpt><trkpt lat="44.263395197169885" lon="11.323595597673183"><ele>712.0</ele><time>2026-04-07T09:47:25Z</time></trkpt><trkpt lat="44.263528341826586" lon="11.323653212220485"><ele>710.0</ele><time>2026-04-07T09:47:26Z</time></trkpt><trkpt lat="44.26366182634643" lon="11.323691231840641"><ele>708.0</ele><time>2026-04-07T09:47:27Z</time></trkpt><trkpt lat="44.26380007203672" lon="11.323711053613291"><ele>706.0</ele><time>2026-04-07T09:47:28Z</time></trkpt><trkpt lat="44.263932799461905" lon="11.323714746362768"><ele>704.75</ele><time>2026-04-07T09:47:29Z</time></trkpt><trkpt lat="44.26405523610048" lon="11.323714879659478"><ele>703.5</ele><time>2026-04-07T09:47:30Z</time></trkpt><trkpt lat="44.26417779497776" lon="11.323715593243058"><ele>702.25</ele><time>2026-04-07T09:47:31Z</time></trkpt><trkpt lat="44.26429037728261" lon="11.323712978539415"><ele>701.0</ele><time>2026-04-07T09:47:32Z</time></trkpt><trkpt lat="44.2644041785707" lon="11.3237118517403"><ele>701.0</ele><time>2026-04-07T09:47:33Z</time></trkpt><trkpt lat="44.26451537340394" lon="11.32370976156506"><ele>701.0</ele><time>2026-04-07T09:47:34Z</time></trkpt><trkpt lat="44.264632215808604" lon="11.323707870054045"><ele>701.0</ele><time>2026-04-07T09:47:35Z</time></trkpt><trkpt lat="44.26475321474223" lon="11.323704363181275"><ele>701.0</ele><time>2026-04-07T09:47:36Z</time></trkpt><trkpt lat="44.264885595376754" lon="11.323702505221126"><ele>701.0</ele><time>2026-04-07T09:47:37Z</time></trkpt><trkpt lat="44.26502645564256" lon="11.323700037615664"><ele>701.0</ele><time>2026-04-07T09:47:38Z</time></trkpt><trkpt lat="44.26517194283795" lon="11.323692961864088"><ele>701.0</ele><time>2026-04-07T09:47:39Z</time></trkpt><trkpt lat="44.265307457326266" lon="11.323684917983982"><ele>701.0</ele><time>2026-04-07T09:47:40Z</time></trkpt><trkpt lat="44.26543546513468" lon="11.323680098918798"><ele>701.0</ele><time>2026-04-07T09:47:41Z</time></trkpt><trkpt lat="44.26555674941598" lon="11.323670319654676"><ele>701.0</ele><time>2026-04-07T09:47:42Z</time></trkpt><trkpt lat="44.265677165762845" lon="11.323652404897773"><ele>701.0</ele><time>2026-04-07T09:47:43Z</time></trkpt><trkpt lat="44.26579336109879" lon="11.323634813376007"><ele>701.0</ele><time>2026-04-07T09:47:44Z</time></trkpt><trkpt lat="44.26590486342652" lon="11.32362776726926"><ele>700.1999999999999</ele><time>2026-04-07T09:47:45Z</time></trkpt><trkpt lat="44.26600816961696" lon="11.323636406088715"><ele>699.4</ele><time>2026-04-07T09:47:46Z</time></trkpt><trkpt lat="44.26610282220395" lon="11.323652929283798"><ele>698.6</ele><time>2026-04-07T09:47:47Z</time></trkpt><trkpt lat="44.26617942754525" lon="11.32363388462184"><ele>697.8</ele><time>2026-04-07T09:47:48Z</time></trkpt><trkpt lat="44.26622643159546" lon="11.323566374382693"><ele>697.0</ele><time>2026-04-07T09:47:49Z</time></trkpt><trkpt lat="44.26622613787238" lon="11.32335923815617"><ele>697.0</ele><time>2026-04-07T09:47:51Z</time></trkpt><trkpt lat="44.266172667209695" lon="11.323256560022353"><ele>697.0</ele><time>2026-04-07T09:47:52Z</time></trkpt><trkpt lat="44.26609230639224" lon="11.323168653937726"><ele>697.0</ele><time>2026-04-07T09:47:53Z</time></trkpt><trkpt lat="44.26601086224587" lon="11.323070609233325"><ele>697.0</ele><time>2026-04-07T09:47:54Z</time></trkpt><trkpt lat="44.26594681720329" lon="11.322940457242186"><ele>697.0</ele><time>2026-04-07T09:47:55Z</time></trkpt><trkpt lat="44.26590984611995" lon="11.322779567589853"><ele>695.0</ele><time>2026-04-07T09:47:56Z</time></trkpt><trkpt lat="44.26588707273676" lon="11.322610331507114"><ele>693.0</ele><time>2026-04-07T09:47:57Z</time></trkpt><trkpt lat="44.265865723041294" lon="11.322436283010443"><ele>691.0</ele><time>2026-04-07T09:47:58Z</time></trkpt><trkpt lat="44.265842208951646" lon="11.322234311213982"><ele>689.0</ele><time>2026-04-07T09:47:59Z</time></trkpt><trkpt lat="44.26581456285164" lon="11.321991199920204"><ele>686.6666666666666</ele><time>2026-04-07T09:48:00Z</time></trkpt><trkpt lat="44.265784621810695" lon="11.321751981436663"><ele>684.3333333333334</ele><time>2026-04-07T09:48:01Z</time></trkpt><trkpt lat="44.26575312240635" lon="11.321508808087936"><ele>682.0</ele><time>2026-04-07T09:48:02Z</time></trkpt><trkpt lat="44.26571617831677" lon="11.321264897473094"><ele>679.0</ele><time>2026-04-07T09:48:03Z</time></trkpt><trkpt lat="44.26568269011472" lon="11.321031174453069"><ele>676.0</ele><time>2026-04-07T09:48:04Z</time></trkpt><trkpt lat="44.26565439944672" lon="11.320817581964022"><ele>673.0</ele><time>2026-04-07T09:48:05Z</time></trkpt><trkpt lat="44.265635849963076" lon="11.32064731889853"><ele>673.0</ele><time>2026-04-07T09:48:06Z</time></trkpt><trkpt lat="44.265634573625036" lon="11.32052095379404"><ele>673.0</ele><time>2026-04-07T09:48:07Z</time></trkpt><trkpt lat="44.26566953474576" lon="11.320426871496899"><ele>673.0</ele><time>2026-04-07T09:48:08Z</time></trkpt><trkpt lat="44.26574189864288" lon="11.320376356943692"><ele>673.0</ele><time>2026-04-07T09:48:09Z</time></trkpt><trkpt lat="44.26582885171206" lon="11.320383836667721"><ele>673.0</ele><time>2026-04-07T09:48:10Z</time></trkpt><trkpt lat="44.26596883535347" lon="11.320574814078316"><ele>673.0</ele><time>2026-04-07T09:48:12Z</time></trkpt><trkpt lat="44.26603874155356" lon="11.320722576029604"><ele>673.0</ele><time>2026-04-07T09:48:13Z</time></trkpt><trkpt lat="44.26612974229919" lon="11.320874937943888"><ele>673.0</ele><time>2026-04-07T09:48:14Z</time></trkpt><trkpt lat="44.26623174695761" lon="11.32098911290672"><ele>673.0</ele><time>2026-04-07T09:48:15Z</time></trkpt><trkpt lat="44.266335856689544" lon="11.321071954895823"><ele>673.0</ele><time>2026-04-07T09:48:16Z</time></trkpt><trkpt lat="44.266444125631445" lon="11.321120922332913"><ele>673.0</ele><time>2026-04-07T09:48:17Z</time></trkpt><trkpt lat="44.26655632696162" lon="11.321120514984237"><ele>673.0</ele><time>2026-04-07T09:48:18Z</time></trkpt><trkpt lat="44.26667406456299" lon="11.321065844992983"><ele>673.0</ele><time>2026-04-07T09:48:19Z</time></trkpt><trkpt lat="44.26677447296412" lon="11.320954050900069"><ele>671.75</ele><time>2026-04-07T09:48:20Z</time></trkpt><trkpt lat="44.26683682313405" lon="11.320806200298271"><ele>670.5</ele><time>2026-04-07T09:48:21Z</time></trkpt><trkpt lat="44.266862102067556" lon="11.320634343936765"><ele>669.25</ele><time>2026-04-07T09:48:22Z</time></trkpt><trkpt lat="44.26687360926568" lon="11.320446355426416"><ele>668.0</ele><time>2026-04-07T09:48:23Z</time></trkpt><trkpt lat="44.266934151172094" lon="11.320285594258507"><ele>665.3333333333333</ele><time>2026-04-07T09:48:24Z</time></trkpt><trkpt lat="44.26701552839703" lon="11.320127635118869"><ele>662.6666666666666</ele><time>2026-04-07T09:48:25Z</time></trkpt><trkpt lat="44.267105471899484" lon="11.319946906580478"><ele>660.0</ele><time>2026-04-07T09:48:26Z</time></trkpt><trkpt lat="44.26719780123214" lon="11.319772851237298"><ele>657.3333333333334</ele><time>2026-04-07T09:48:27Z</time></trkpt><trkpt lat="44.267277142393674" lon="11.319578561827623"><ele>654.6666666666667</ele><time>2026-04-07T09:48:28Z</time></trkpt><trkpt lat="44.26734620626558" lon="11.3193543873177"><ele>652.0</ele><time>2026-04-07T09:48:29Z</time></trkpt><trkpt lat="44.26739023777014" lon="11.319112703483473"><ele>649.0</ele><time>2026-04-07T09:48:30Z</time></trkpt><trkpt lat="44.267411564440835" lon="11.318875398571292"><ele>646.0</ele><time>2026-04-07T09:48:31Z</time></trkpt><trkpt lat="44.26742451405992" lon="11.318661041976087"><ele>643.0</ele><time>2026-04-07T09:48:32Z</time></trkpt><trkpt lat="44.26744843962361" lon="11.318479759835235"><ele>643.0</ele><time>2026-04-07T09:48:33Z</time></trkpt><trkpt lat="44.2674898944989" lon="11.318335862318955"><ele>643.0</ele><time>2026-04-07T09:48:34Z</time></trkpt><trkpt lat="44.26755418540934" lon="11.318250243774257"><ele>643.0</ele><time>2026-04-07T09:48:35Z</time></trkpt><trkpt lat="44.26764555756333" lon="11.318204002081087"><ele>643.0</ele><time>2026-04-07T09:48:36Z</time></trkpt><trkpt lat="44.267767675598776" lon="11.318183352086896"><ele>643.0</ele><time>2026-04-07T09:48:37Z</time></trkpt><trkpt lat="44.26792448783185" lon="11.318186330780318"><ele>643.0</ele><time>2026-04-07T09:48:38Z</time></trkpt><trkpt lat="44.268085712144696" lon="11.318174009482487"><ele>643.0</ele><time>2026-04-07T09:48:39Z</time></trkpt><trkpt lat="44.268232464021544" lon="11.318148642534702"><ele>643.0</ele><time>2026-04-07T09:48:40Z</time></trkpt><trkpt lat="44.26837781752215" lon="11.31808790426349"><ele>640.0</ele><time>2026-04-07T09:48:41Z</time></trkpt><trkpt lat="44.26852319846179" lon="11.31798237612757"><ele>637.0</ele><time>2026-04-07T09:48:42Z</time></trkpt><trkpt lat="44.26866142361509" lon="11.317843333594823"><ele>634.0</ele><time>2026-04-07T09:48:43Z</time></trkpt><trkpt lat="44.26878513301051" lon="11.317708884516366"><ele>634.0</ele><time>2026-04-07T09:48:44Z</time></trkpt><trkpt lat="44.26890193961664" lon="11.317598054131611"><ele>634.0</ele><time>2026-04-07T09:48:45Z</time></trkpt><trkpt lat="44.268999896402036" lon="11.317483446758187"><ele>634.0</ele><time>2026-04-07T09:48:46Z</time></trkpt><trkpt lat="44.26906742001261" lon="11.31732618263188"><ele>634.0</ele><time>2026-04-07T09:48:47Z</time></trkpt><trkpt lat="44.26908438414257" lon="11.317136929485898"><ele>634.0</ele><time>2026-04-07T09:48:48Z</time></trkpt><trkpt lat="44.26908304160273" lon="11.316925764439114"><ele>634.0</ele><time>2026-04-07T09:48:49Z</time></trkpt><trkpt lat="44.26909606363199" lon="11.316711427439303"><ele>634.0</ele><time>2026-04-07T09:48:50Z</time></trkpt><trkpt lat="44.269126537012745" lon="11.316494879548578"><ele>632.0</ele><time>2026-04-07T09:48:51Z</time></trkpt><trkpt lat="44.26913673010091" lon="11.316277753971097"><ele>630.0</ele><time>2026-04-07T09:48:52Z</time></trkpt><trkpt lat="44.26910294177598" lon="11.31606388904563"><ele>628.0</ele><time>2026-04-07T09:48:53Z</time></trkpt><trkpt lat="44.26905008106638" lon="11.315849223488655"><ele>628.0</ele><time>2026-04-07T09:48:54Z</time></trkpt><trkpt lat="44.26902490278522" lon="11.31565945461817"><ele>628.0</ele><time>2026-04-07T09:48:55Z</time></trkpt><trkpt lat="44.2690420927891" lon="11.315487129794137"><ele>628.0</ele><time>2026-04-07T09:48:56Z</time></trkpt><trkpt lat="44.26910324703825" lon="11.315313839598325"><ele>628.0</ele><time>2026-04-07T09:48:57Z</time></trkpt><trkpt lat="44.26918937480864" lon="11.315150579320775"><ele>625.75</ele><time>2026-04-07T09:48:58Z</time></trkpt><trkpt lat="44.26926282974843" lon="11.314966988528875"><ele>623.5</ele><time>2026-04-07T09:48:59Z</time></trkpt><trkpt lat="44.26928443438613" lon="11.31477752749063"><ele>621.25</ele><time>2026-04-07T09:49:00Z</time></trkpt><trkpt lat="44.2692592023734" lon="11.314569312015475"><ele>619.0</ele><time>2026-04-07T09:49:01Z</time></trkpt><trkpt lat="44.26920980913616" lon="11.31434060303075"><ele>617.6666666666667</ele><time>2026-04-07T09:49:02Z</time></trkpt><trkpt lat="44.26916066385448" lon="11.314104134950965"><ele>616.3333333333334</ele><time>2026-04-07T09:49:03Z</time></trkpt><trkpt lat="44.26912078842151" lon="11.313874903714009"><ele>615.0</ele><time>2026-04-07T09:49:04Z</time></trkpt><trkpt lat="44.269085399544906" lon="11.313643084379112"><ele>613.3333333333334</ele><time>2026-04-07T09:49:05Z</time></trkpt><trkpt lat="44.2690605363183" lon="11.31340643134228"><ele>611.6666666666667</ele><time>2026-04-07T09:49:06Z</time></trkpt><trkpt lat="44.269038809986164" lon="11.313180271229637"><ele>610.0</ele><time>2026-04-07T09:49:07Z</time></trkpt><trkpt lat="44.269003226165815" lon="11.312968484737278"><ele>608.75</ele><time>2026-04-07T09:49:08Z</time></trkpt><trkpt lat="44.26896596983996" lon="11.312787553560996"><ele>607.5</ele><time>2026-04-07T09:49:09Z</time></trkpt><trkpt lat="44.26895994678884" lon="11.312607922884743"><ele>606.25</ele><time>2026-04-07T09:49:10Z</time></trkpt><trkpt lat="44.26901131589901" lon="11.312416004855018"><ele>605.0</ele><time>2026-04-07T09:49:11Z</time></trkpt><trkpt lat="44.26905250208213" lon="11.312184917909054"><ele>603.0</ele><time>2026-04-07T09:49:12Z</time></trkpt><trkpt lat="44.26911780668168" lon="11.311952389755053"><ele>601.0</ele><time>2026-04-07T09:49:13Z</time></trkpt><trkpt lat="44.26917719368035" lon="11.31171557440443"><ele>599.0</ele><time>2026-04-07T09:49:14Z</time></trkpt><trkpt lat="44.26923802225041" lon="11.311460462011041"><ele>596.3333333333333</ele><time>2026-04-07T09:49:15Z</time></trkpt><trkpt lat="44.26930108234546" lon="11.311184449627545"><ele>593.6666666666666</ele><time>2026-04-07T09:49:16Z</time></trkpt><trkpt lat="44.26935906862182" lon="11.310901328619678"><ele>591.0</ele><time>2026-04-07T09:49:17Z</time></trkpt><trkpt lat="44.26941340225398" lon="11.310646305161152"><ele>588.0</ele><time>2026-04-07T09:49:18Z</time></trkpt><trkpt lat="44.26947183328845" lon="11.310446616974149"><ele>585.0</ele><time>2026-04-07T09:49:19Z</time></trkpt><trkpt lat="44.26954632190237" lon="11.310268682399272"><ele>582.0</ele><time>2026-04-07T09:49:20Z</time></trkpt><trkpt lat="44.26963852127555" lon="11.310107806180278"><ele>582.0</ele><time>2026-04-07T09:49:21Z</time></trkpt><trkpt lat="44.269754195608336" lon="11.309974869189306"><ele>582.0</ele><time>2026-04-07T09:49:22Z</time></trkpt><trkpt lat="44.269896893637316" lon="11.309875713078275"><ele>582.0</ele><time>2026-04-07T09:49:23Z</time></trkpt><trkpt lat="44.27005334369598" lon="11.309779322021603"><ele>578.3333333333334</ele><time>2026-04-07T09:49:24Z</time></trkpt><trkpt lat="44.270208495467976" lon="11.309683062186066"><ele>574.6666666666667</ele><time>2026-04-07T09:49:25Z</time></trkpt><trkpt lat="44.27037273904798" lon="11.309605196598305"><ele>571.0</ele><time>2026-04-07T09:49:26Z</time></trkpt><trkpt lat="44.270542504427446" lon="11.309563995428963"><ele>572.6666666666667</ele><time>2026-04-07T09:49:27Z</time></trkpt><trkpt lat="44.27069491354978" lon="11.309438572595509"><ele>574.3333333333334</ele><time>2026-04-07T09:49:28Z</time></trkpt><trkpt lat="44.270842323234625" lon="11.309275027317451"><ele>576.0</ele><time>2026-04-07T09:49:29Z</time></trkpt><trkpt lat="44.270989711236865" lon="11.309082251394473"><ele>573.6666666666666</ele><time>2026-04-07T09:49:30Z</time></trkpt><trkpt lat="44.27115196548275" lon="11.308890731847983"><ele>571.3333333333333</ele><time>2026-04-07T09:49:31Z</time></trkpt><trkpt lat="44.271322583503604" lon="11.308721186767691"><ele>569.0</ele><time>2026-04-07T09:49:32Z</time></trkpt><trkpt lat="44.27149013801586" lon="11.308584519340057"><ele>569.0</ele><time>2026-04-07T09:49:33Z</time></trkpt><trkpt lat="44.27165135696891" lon="11.308458652925369"><ele>569.0</ele><time>2026-04-07T09:49:34Z</time></trkpt><trkpt lat="44.271801568538145" lon="11.30832618731308"><ele>569.0</ele><time>2026-04-07T09:49:35Z</time></trkpt><trkpt lat="44.27194547632493" lon="11.308184066057315"><ele>565.3333333333333</ele><time>2026-04-07T09:49:36Z</time></trkpt><trkpt lat="44.272074434224635" lon="11.308030989597816"><ele>561.6666666666666</ele><time>2026-04-07T09:49:37Z</time></trkpt><trkpt lat="44.27218260335041" lon="11.30786191257717"><ele>558.0</ele><time>2026-04-07T09:49:38Z</time></trkpt><trkpt lat="44.27226065474572" lon="11.307689698004133"><ele>558.0</ele><time>2026-04-07T09:49:39Z</time></trkpt><trkpt lat="44.27231498706116" lon="11.30750706821544"><ele>558.0</ele><time>2026-04-07T09:49:40Z</time></trkpt><trkpt lat="44.27235293395938" lon="11.307316350515855"><ele>558.0</ele><time>2026-04-07T09:49:41Z</time></trkpt><trkpt lat="44.27237015085899" lon="11.307119648052584"><ele>558.0</ele><time>2026-04-07T09:49:42Z</time></trkpt><trkpt lat="44.27236189484749" lon="11.306909059224052"><ele>558.0</ele><time>2026-04-07T09:49:43Z</time></trkpt><trkpt lat="44.27233630676197" lon="11.306697230955379"><ele>558.0</ele><time>2026-04-07T09:49:44Z</time></trkpt><trkpt lat="44.272318730050316" lon="11.306507950959514"><ele>558.0</ele><time>2026-04-07T09:49:45Z</time></trkpt><trkpt lat="44.27232848617047" lon="11.306354094540184"><ele>558.0</ele><time>2026-04-07T09:49:46Z</time></trkpt><trkpt lat="44.27237241210379" lon="11.306216266147585"><ele>555.5</ele><time>2026-04-07T09:49:47Z</time></trkpt><trkpt lat="44.27244934864978" lon="11.3061072772866"><ele>553.0</ele><time>2026-04-07T09:49:48Z</time></trkpt><trkpt lat="44.27257165448994" lon="11.306045916766136"><ele>550.5</ele><time>2026-04-07T09:49:49Z</time></trkpt><trkpt lat="44.272705889326346" lon="11.305968024681373"><ele>548.0</ele><time>2026-04-07T09:49:50Z</time></trkpt><trkpt lat="44.27286047145061" lon="11.305920384796373"><ele>548.0</ele><time>2026-04-07T09:49:51Z</time></trkpt><trkpt lat="44.272999268474386" lon="11.305857712747088"><ele>548.0</ele><time>2026-04-07T09:49:52Z</time></trkpt><trkpt lat="44.273121349912486" lon="11.305743722794944"><ele>548.0</ele><time>2026-04-07T09:49:53Z</time></trkpt><trkpt lat="44.2732339917639" lon="11.305585057367894"><ele>545.3333333333333</ele><time>2026-04-07T09:49:54Z</time></trkpt><trkpt lat="44.273342674826154" lon="11.305409771193323"><ele>542.6666666666666</ele><time>2026-04-07T09:49:55Z</time></trkpt><trkpt lat="44.273456141217366" lon="11.305253218331428"><ele>540.0</ele><time>2026-04-07T09:49:56Z</time></trkpt><trkpt lat="44.27359683701375" lon="11.305158335360979"><ele>540.0</ele><time>2026-04-07T09:49:57Z</time></trkpt><trkpt lat="44.27373267415033" lon="11.305040062933227"><ele>540.0</ele><time>2026-04-07T09:49:58Z</time></trkpt><trkpt lat="44.27386848202069" lon="11.304936800684866"><ele>540.0</ele><time>2026-04-07T09:49:59Z</time></trkpt><trkpt lat="44.27400054419854" lon="11.304846806731636"><ele>541.0</ele><time>2026-04-07T09:50:00Z</time></trkpt><trkpt lat="44.27414433954816" lon="11.304839109254106"><ele>542.0</ele><time>2026-04-07T09:50:01Z</time></trkpt><trkpt lat="44.27430432652327" lon="11.304823177176823"><ele>543.0</ele><time>2026-04-07T09:50:02Z</time></trkpt><trkpt lat="44.274464155340944" lon="11.304834943677426"><ele>543.0</ele><time>2026-04-07T09:50:03Z</time></trkpt><trkpt lat="44.27462830214071" lon="11.304803095645331"><ele>543.0</ele><time>2026-04-07T09:50:04Z</time></trkpt><trkpt lat="44.27479149108407" lon="11.304733744428797"><ele>543.0</ele><time>2026-04-07T09:50:05Z</time></trkpt><trkpt lat="44.274944914126934" lon="11.304668912218652"><ele>538.75</ele><time>2026-04-07T09:50:06Z</time></trkpt><trkpt lat="44.275074886344534" lon="11.304607423309813"><ele>534.5</ele><time>2026-04-07T09:50:07Z</time></trkpt><trkpt lat="44.27518754330051" lon="11.304506174596973"><ele>530.25</ele><time>2026-04-07T09:50:08Z</time></trkpt><trkpt lat="44.27528208315122" lon="11.304357424538974"><ele>526.0</ele><time>2026-04-07T09:50:09Z</time></trkpt><trkpt lat="44.27538030181091" lon="11.30418772402057"><ele>526.0</ele><time>2026-04-07T09:50:10Z</time></trkpt><trkpt lat="44.2755046144459" lon="11.304035112830514"><ele>526.0</ele><time>2026-04-07T09:50:11Z</time></trkpt><trkpt lat="44.27564401971345" lon="11.303913284522586"><ele>526.0</ele><time>2026-04-07T09:50:12Z</time></trkpt><trkpt lat="44.27579255142703" lon="11.303801542801907"><ele>523.6666666666667</ele><time>2026-04-07T09:50:13Z</time></trkpt><trkpt lat="44.275939906136955" lon="11.303676051709727"><ele>521.3333333333334</ele><time>2026-04-07T09:50:14Z</time></trkpt><trkpt lat="44.276074308187" lon="11.303556821655183"><ele>519.0</ele><time>2026-04-07T09:50:15Z</time></trkpt><trkpt lat="44.276189897895286" lon="11.303460832816988"><ele>519.0</ele><time>2026-04-07T09:50:16Z</time></trkpt><trkpt lat="44.27627177391234" lon="11.303382987559694"><ele>519.0</ele><time>2026-04-07T09:50:17Z</time></trkpt><trkpt lat="44.27631084694182" lon="11.303307471857675"><ele>519.0</ele><time>2026-04-07T09:50:18Z</time></trkpt><trkpt lat="44.276302875315466" lon="11.303214969728572"><ele>519.0</ele><time>2026-04-07T09:50:19Z</time></trkpt><trkpt lat="44.276276284313155" lon="11.303115243938574"><ele>519.0</ele><time>2026-04-07T09:50:20Z</time></trkpt><trkpt lat="44.27618770142899" lon="11.303050375361996"><ele>519.0</ele><time>2026-04-07T09:50:21Z</time></trkpt><trkpt lat="44.27608379593237" lon="11.303095028442979"><ele>519.0</ele><time>2026-04-07T09:50:22Z</time></trkpt><trkpt lat="44.275990134584184" lon="11.303192849938544"><ele>519.0</ele><time>2026-04-07T09:50:23Z</time></trkpt><trkpt lat="44.27588421442381" lon="11.303260603427235"><ele>519.0</ele><time>2026-04-07T09:50:24Z</time></trkpt><trkpt lat="44.27575530214674" lon="11.303299177470237"><ele>519.0</ele><time>2026-04-07T09:50:25Z</time></trkpt><trkpt lat="44.2756292235235" lon="11.303375241127604"><ele>518.5</ele><time>2026-04-07T09:50:26Z</time></trkpt><trkpt lat="44.275496196858484" lon="11.30340361262139"><ele>518.0</ele><time>2026-04-07T09:50:27Z</time></trkpt><trkpt lat="44.275381256302346" lon="11.303332354492033"><ele>517.5</ele><time>2026-04-07T09:50:28Z</time></trkpt><trkpt lat="44.27525992408835" lon="11.303260859465874"><ele>517.0</ele><time>2026-04-07T09:50:29Z</time></trkpt><trkpt lat="44.27513839683029" lon="11.303171872266054"><ele>517.0</ele><time>2026-04-07T09:50:30Z</time></trkpt><trkpt lat="44.275005678686746" lon="11.303088382779693"><ele>517.0</ele><time>2026-04-07T09:50:31Z</time></trkpt><trkpt lat="44.27489151038782" lon="11.302953819274068"><ele>517.0</ele><time>2026-04-07T09:50:32Z</time></trkpt><trkpt lat="44.27481846618871" lon="11.302769539528557"><ele>517.0</ele><time>2026-04-07T09:50:33Z</time></trkpt><trkpt lat="44.274749599313765" lon="11.3025793680237"><ele>516.0</ele><time>2026-04-07T09:50:34Z</time></trkpt><trkpt lat="44.27464962850254" lon="11.30241141945038"><ele>515.0</ele><time>2026-04-07T09:50:35Z</time></trkpt><trkpt lat="44.27454776371321" lon="11.30226717596542"><ele>514.0</ele><time>2026-04-07T09:50:36Z</time></trkpt><trkpt lat="44.27444407426252" lon="11.302163838151401"><ele>513.0</ele><time>2026-04-07T09:50:37Z</time></trkpt><trkpt lat="44.27436911697925" lon="11.302087741386709"><ele>511.6666666666667</ele><time>2026-04-07T09:50:38Z</time></trkpt><trkpt lat="44.274334630211825" lon="11.301990706920238"><ele>510.33333333333337</ele><time>2026-04-07T09:50:39Z</time></trkpt><trkpt lat="44.27435175915464" lon="11.301878429765134"><ele>509.0</ele><time>2026-04-07T09:50:40Z</time></trkpt><trkpt lat="44.274410857381525" lon="11.301793102334706"><ele>507.6666666666667</ele><time>2026-04-07T09:50:41Z</time></trkpt><trkpt lat="44.27449589790932" lon="11.301758454851237"><ele>506.33333333333337</ele><time>2026-04-07T09:50:42Z</time></trkpt><trkpt lat="44.27460183981238" lon="11.301766291265054"><ele>505.0</ele><time>2026-04-07T09:50:43Z</time></trkpt><trkpt lat="44.274704982296726" lon="11.301826207467684"><ele>505.5</ele><time>2026-04-07T09:50:44Z</time></trkpt><trkpt lat="44.2747864914297" lon="11.301961584126381"><ele>506.0</ele><time>2026-04-07T09:50:45Z</time></trkpt><trkpt lat="44.27488357468877" lon="11.302091311866384"><ele>506.5</ele><time>2026-04-07T09:50:46Z</time></trkpt><trkpt lat="44.274972342971026" lon="11.302202729581381"><ele>507.0</ele><time>2026-04-07T09:50:47Z</time></trkpt><trkpt lat="44.27508373703994" lon="11.302255655377408"><ele>505.25</ele><time>2026-04-07T09:50:48Z</time></trkpt><trkpt lat="44.27521085291654" lon="11.302239657262266"><ele>503.5</ele><time>2026-04-07T09:50:49Z</time></trkpt><trkpt lat="44.27535233778811" lon="11.302175901100675"><ele>501.75</ele><time>2026-04-07T09:50:50Z</time></trkpt><trkpt lat="44.27548890496272" lon="11.302099847237741"><ele>500.0</ele><time>2026-04-07T09:50:51Z</time></trkpt><trkpt lat="44.27561972457817" lon="11.302023996841264"><ele>499.0</ele><time>2026-04-07T09:50:52Z</time></trkpt><trkpt lat="44.275729917002415" lon="11.301924918929434"><ele>498.0</ele><time>2026-04-07T09:50:53Z</time></trkpt><trkpt lat="44.27580582980791" lon="11.301787138560755"><ele>497.0</ele><time>2026-04-07T09:50:54Z</time></trkpt><trkpt lat="44.27584656526969" lon="11.30160367318128"><ele>496.0</ele><time>2026-04-07T09:50:55Z</time></trkpt><trkpt lat="44.275876228206506" lon="11.301393472754055"><ele>493.25</ele><time>2026-04-07T09:50:56Z</time></trkpt><trkpt lat="44.27594520767934" lon="11.301222026187604"><ele>490.5</ele><time>2026-04-07T09:50:57Z</time></trkpt><trkpt lat="44.27604451441219" lon="11.301069611019281"><ele>487.75</ele><time>2026-04-07T09:50:58Z</time></trkpt><trkpt lat="44.276138507041026" lon="11.300905809144249"><ele>485.0</ele><time>2026-04-07T09:50:59Z</time></trkpt><trkpt lat="44.27619833708641" lon="11.300749344442393"><ele>485.0</ele><time>2026-04-07T09:51:00Z</time></trkpt><trkpt lat="44.27622072714156" lon="11.300589866000086"><ele>485.0</ele><time>2026-04-07T09:51:01Z</time></trkpt><trkpt lat="44.2761948798752" lon="11.3004181544055"><ele>485.0</ele><time>2026-04-07T09:51:02Z</time></trkpt><trkpt lat="44.27617114771144" lon="11.300288994279432"><ele>485.0</ele><time>2026-04-07T09:51:03Z</time></trkpt><trkpt lat="44.276194899975266" lon="11.30016383544384"><ele>485.0</ele><time>2026-04-07T09:51:04Z</time></trkpt><trkpt lat="44.276267767522945" lon="11.30009315151356"><ele>483.25</ele><time>2026-04-07T09:51:05Z</time></trkpt><trkpt lat="44.27637180225991" lon="11.300090745260286"><ele>481.5</ele><time>2026-04-07T09:51:06Z</time></trkpt><trkpt lat="44.27648076265424" lon="11.300149381197418"><ele>479.75</ele><time>2026-04-07T09:51:07Z</time></trkpt><trkpt lat="44.276590071836274" lon="11.300260170842726"><ele>478.0</ele><time>2026-04-07T09:51:08Z</time></trkpt><trkpt lat="44.27669794967525" lon="11.300387264422724"><ele>477.75</ele><time>2026-04-07T09:51:09Z</time></trkpt><trkpt lat="44.27680389089192" lon="11.300517352798224"><ele>477.5</ele><time>2026-04-07T09:51:10Z</time></trkpt><trkpt lat="44.27690961714673" lon="11.300632927466392"><ele>477.25</ele><time>2026-04-07T09:51:11Z</time></trkpt><trkpt lat="44.27702011352371" lon="11.300714807205514"><ele>477.0</ele><time>2026-04-07T09:51:12Z</time></trkpt><trkpt lat="44.277128830810604" lon="11.300738695227727"><ele>478.40000000000003</ele><time>2026-04-07T09:51:13Z</time></trkpt><trkpt lat="44.27723303099244" lon="11.300705503615793"><ele>479.80000000000007</ele><time>2026-04-07T09:51:14Z</time></trkpt><trkpt lat="44.27731609448774" lon="11.300617184088612"><ele>481.2</ele><time>2026-04-07T09:51:15Z</time></trkpt><trkpt lat="44.277367983764734" lon="11.30048021534163"><ele>482.6</ele><time>2026-04-07T09:51:16Z</time></trkpt><trkpt lat="44.27738070113984" lon="11.300309782146796"><ele>484.0</ele><time>2026-04-07T09:51:17Z</time></trkpt><trkpt lat="44.277352585988986" lon="11.300124432142066"><ele>484.0</ele><time>2026-04-07T09:51:18Z</time></trkpt><trkpt lat="44.27728613094774" lon="11.299934660718218"><ele>484.0</ele><time>2026-04-07T09:51:19Z</time></trkpt><trkpt lat="44.27720078794453" lon="11.299752061712061"><ele>484.0</ele><time>2026-04-07T09:51:20Z</time></trkpt><trkpt lat="44.277105894110605" lon="11.2995593333417"><ele>479.6666666666667</ele><time>2026-04-07T09:51:21Z</time></trkpt><trkpt lat="44.277040234932926" lon="11.299327166026549"><ele>475.33333333333337</ele><time>2026-04-07T09:51:22Z</time></trkpt><trkpt lat="44.276981209634336" lon="11.299108162458614"><ele>471.0</ele><time>2026-04-07T09:51:23Z</time></trkpt><trkpt lat="44.27694756297517" lon="11.298895646919442"><ele>468.5</ele><time>2026-04-07T09:51:24Z</time></trkpt><trkpt lat="44.27689134792107" lon="11.298697717271217"><ele>466.0</ele><time>2026-04-07T09:51:25Z</time></trkpt><trkpt lat="44.276839281899036" lon="11.298528403214686"><ele>463.5</ele><time>2026-04-07T09:51:26Z</time></trkpt><trkpt lat="44.27675449039167" lon="11.298406342763181"><ele>461.0</ele><time>2026-04-07T09:51:27Z</time></trkpt><trkpt lat="44.27664683607305" lon="11.298335594405533"><ele>461.0</ele><time>2026-04-07T09:51:28Z</time></trkpt><trkpt lat="44.27650817751363" lon="11.298329344970082"><ele>461.0</ele><time>2026-04-07T09:51:29Z</time></trkpt><trkpt lat="44.2763785195881" lon="11.298361546589021"><ele>461.0</ele><time>2026-04-07T09:51:30Z</time></trkpt><trkpt lat="44.27624764566489" lon="11.298459095774879"><ele>461.0</ele><time>2026-04-07T09:51:31Z</time></trkpt><trkpt lat="44.27613006430634" lon="11.298585748280804"><ele>460.5</ele><time>2026-04-07T09:51:32Z</time></trkpt><trkpt lat="44.27601861247716" lon="11.298678179181001"><ele>460.0</ele><time>2026-04-07T09:51:33Z</time></trkpt><trkpt lat="44.27589039690445" lon="11.298689213844256"><ele>459.5</ele><time>2026-04-07T09:51:34Z</time></trkpt><trkpt lat="44.275764415143755" lon="11.298645538969508"><ele>459.0</ele><time>2026-04-07T09:51:35Z</time></trkpt><trkpt lat="44.2756536337209" lon="11.298554674260775"><ele>458.33333333333337</ele><time>2026-04-07T09:51:36Z</time></trkpt><trkpt lat="44.275547553701" lon="11.298432629110172"><ele>457.6666666666667</ele><time>2026-04-07T09:51:37Z</time></trkpt><trkpt lat="44.275419386009474" lon="11.298310987224069"><ele>457.0</ele><time>2026-04-07T09:51:38Z</time></trkpt><trkpt lat="44.275290757553904" lon="11.29815485660032"><ele>453.6666666666667</ele><time>2026-04-07T09:51:39Z</time></trkpt><trkpt lat="44.27514889517544" lon="11.298002875722448"><ele>450.33333333333337</ele><time>2026-04-07T09:51:40Z</time></trkpt><trkpt lat="44.27501337724036" lon="11.297877042738339"><ele>447.0</ele><time>2026-04-07T09:51:41Z</time></trkpt><trkpt lat="44.27487618280384" lon="11.297777204953704"><ele>447.0</ele><time>2026-04-07T09:51:42Z</time></trkpt><trkpt lat="44.27473360360141" lon="11.29771009029028"><ele>447.0</ele><time>2026-04-07T09:51:43Z</time></trkpt><trkpt lat="44.27458869144051" lon="11.29767441089675"><ele>447.0</ele><time>2026-04-07T09:51:44Z</time></trkpt><trkpt lat="44.27445442073704" lon="11.297615671203648"><ele>447.0</ele><time>2026-04-07T09:51:45Z</time></trkpt><trkpt lat="44.274342687316754" lon="11.297562638614647"><ele>447.0</ele><time>2026-04-07T09:51:46Z</time></trkpt><trkpt lat="44.274252586796955" lon="11.297513757857718"><ele>447.0</ele><time>2026-04-07T09:51:47Z</time></trkpt><trkpt lat="44.274215397341585" lon="11.297365825426935"><ele>447.0</ele><time>2026-04-07T09:51:48Z</time></trkpt><trkpt lat="44.27418755960982" lon="11.297201864602766"><ele>447.0</ele><time>2026-04-07T09:51:49Z</time></trkpt><trkpt lat="44.274167544824294" lon="11.29699697223774"><ele>444.66666666666663</ele><time>2026-04-07T09:51:50Z</time></trkpt><trkpt lat="44.27413839584718" lon="11.296774999268855"><ele>442.3333333333333</ele><time>2026-04-07T09:51:51Z</time></trkpt><trkpt lat="44.27412432504942" lon="11.296537213018322"><ele>440.0</ele><time>2026-04-07T09:51:52Z</time></trkpt><trkpt lat="44.27411711538099" lon="11.296313900279106"><ele>437.66666666666663</ele><time>2026-04-07T09:51:53Z</time></trkpt><trkpt lat="44.274149082197795" lon="11.296098582992428"><ele>435.33333333333337</ele><time>2026-04-07T09:51:54Z</time></trkpt><trkpt lat="44.27414302889064" lon="11.295881891553558"><ele>433.0</ele><time>2026-04-07T09:51:55Z</time></trkpt><trkpt lat="44.27413408234532" lon="11.295677220793538"><ele>430.33333333333337</ele><time>2026-04-07T09:51:56Z</time></trkpt><trkpt lat="44.27406954453861" lon="11.295472222190593"><ele>427.66666666666663</ele><time>2026-04-07T09:51:57Z</time></trkpt><trkpt lat="44.27398950008221" lon="11.29525872049132"><ele>425.0</ele><time>2026-04-07T09:51:58Z</time></trkpt><trkpt lat="44.27393222999207" lon="11.295068519926673"><ele>424.0</ele><time>2026-04-07T09:51:59Z</time></trkpt><trkpt lat="44.273889982209454" lon="11.294931292422184"><ele>423.0</ele><time>2026-04-07T09:52:00Z</time></trkpt><trkpt lat="44.27382626523052" lon="11.294846542480515"><ele>422.0</ele><time>2026-04-07T09:52:01Z</time></trkpt><trkpt lat="44.27375576134762" lon="11.294782419963022"><ele>421.0</ele><time>2026-04-07T09:52:02Z</time></trkpt><trkpt lat="44.27361317886841" lon="11.29486982168159"><ele>420.0</ele><time>2026-04-07T09:52:03Z</time></trkpt><trkpt lat="44.27349081898512" lon="11.294972275011597"><ele>420.0</ele><time>2026-04-07T09:52:04Z</time></trkpt><trkpt lat="44.27336972035041" lon="11.295114433172277"><ele>420.0</ele><time>2026-04-07T09:52:05Z</time></trkpt><trkpt lat="44.273269267787896" lon="11.295260410378111"><ele>420.0</ele><time>2026-04-07T09:52:06Z</time></trkpt><trkpt lat="44.27317479033905" lon="11.295382771940922"><ele>420.0</ele><time>2026-04-07T09:52:07Z</time></trkpt><trkpt lat="44.273064428159806" lon="11.295447550504688"><ele>417.5</ele><time>2026-04-07T09:52:08Z</time></trkpt><trkpt lat="44.2729430356484" lon="11.295409615281821"><ele>415.0</ele><time>2026-04-07T09:52:09Z</time></trkpt><trkpt lat="44.27282406609368" lon="11.295366864257252"><ele>412.5</ele><time>2026-04-07T09:52:10Z</time></trkpt><trkpt lat="44.272685601044365" lon="11.295338307032674"><ele>410.0</ele><time>2026-04-07T09:52:11Z</time></trkpt><trkpt lat="44.27256232423207" lon="11.295314242836348"><ele>410.0</ele><time>2026-04-07T09:52:12Z</time></trkpt><trkpt lat="44.272456366029324" lon="11.295360084172895"><ele>410.0</ele><time>2026-04-07T09:52:13Z</time></trkpt><trkpt lat="44.27234967091584" lon="11.295472204375924"><ele>410.0</ele><time>2026-04-07T09:52:14Z</time></trkpt><trkpt lat="44.2722416780968" lon="11.295627789715759"><ele>410.0</ele><time>2026-04-07T09:52:15Z</time></trkpt><trkpt lat="44.27210836274755" lon="11.295763909990427"><ele>410.0</ele><time>2026-04-07T09:52:16Z</time></trkpt><trkpt lat="44.27200640651821" lon="11.295905348284785"><ele>410.0</ele><time>2026-04-07T09:52:17Z</time></trkpt><trkpt lat="44.271897412635475" lon="11.295973722823515"><ele>410.0</ele><time>2026-04-07T09:52:18Z</time></trkpt><trkpt lat="44.271783466733346" lon="11.29598562278155"><ele>410.0</ele><time>2026-04-07T09:52:19Z</time></trkpt><trkpt lat="44.27166704889126" lon="11.295917883620387"><ele>410.0</ele><time>2026-04-07T09:52:20Z</time></trkpt><trkpt lat="44.271552684681836" lon="11.295804210288335"><ele>410.0</ele><time>2026-04-07T09:52:21Z</time></trkpt><trkpt lat="44.27142814681243" lon="11.295684933184912"><ele>410.0</ele><time>2026-04-07T09:52:22Z</time></trkpt><trkpt lat="44.27130947359286" lon="11.2955428356537"><ele>410.0</ele><time>2026-04-07T09:52:23Z</time></trkpt><trkpt lat="44.27120131206466" lon="11.295367135143604"><ele>407.0</ele><time>2026-04-07T09:52:24Z</time></trkpt><trkpt lat="44.27110895778378" lon="11.295157764717485"><ele>404.0</ele><time>2026-04-07T09:52:25Z</time></trkpt><trkpt lat="44.271016295937024" lon="11.2949315018973"><ele>401.0</ele><time>2026-04-07T09:52:26Z</time></trkpt><trkpt lat="44.270916763757164" lon="11.294715965520208"><ele>398.25</ele><time>2026-04-07T09:52:27Z</time></trkpt><trkpt lat="44.27084124504862" lon="11.294509045458584"><ele>395.5</ele><time>2026-04-07T09:52:28Z</time></trkpt><trkpt lat="44.270768973374814" lon="11.294335382456024"><ele>392.75</ele><time>2026-04-07T09:52:29Z</time></trkpt><trkpt lat="44.27070118471311" lon="11.294193479081772"><ele>390.0</ele><time>2026-04-07T09:52:30Z</time></trkpt><trkpt lat="44.27063000343977" lon="11.294087620603412"><ele>388.2</ele><time>2026-04-07T09:52:31Z</time></trkpt><trkpt lat="44.270544135975534" lon="11.294037567374785"><ele>386.4</ele><time>2026-04-07T09:52:32Z</time></trkpt><trkpt lat="44.27044758798359" lon="11.29403691218923"><ele>384.6</ele><time>2026-04-07T09:52:33Z</time></trkpt><trkpt lat="44.2703507997498" lon="11.294096291429767"><ele>382.8</ele><time>2026-04-07T09:52:34Z</time></trkpt><trkpt lat="44.270259137101654" lon="11.294220674003155"><ele>381.0</ele><time>2026-04-07T09:52:35Z</time></trkpt><trkpt lat="44.27018602546892" lon="11.294397620559458"><ele>381.0</ele><time>2026-04-07T09:52:36Z</time></trkpt><trkpt lat="44.27010623961921" lon="11.294598503307288"><ele>381.0</ele><time>2026-04-07T09:52:37Z</time></trkpt><trkpt lat="44.269978564203036" lon="11.294742526905514"><ele>381.0</ele><time>2026-04-07T09:52:38Z</time></trkpt><trkpt lat="44.26985871667752" lon="11.294896373547754"><ele>378.0</ele><time>2026-04-07T09:52:39Z</time></trkpt><trkpt lat="44.26973079064461" lon="11.295020331960455"><ele>375.0</ele><time>2026-04-07T09:52:40Z</time></trkpt><trkpt lat="44.26964345356274" lon="11.295150748049867"><ele>372.0</ele><time>2026-04-07T09:52:41Z</time></trkpt><trkpt lat="44.26959614117801" lon="11.295294749617595"><ele>369.0</ele><time>2026-04-07T09:52:42Z</time></trkpt><trkpt lat="44.26958457943512" lon="11.29546552099257"><ele>370.25</ele><time>2026-04-07T09:52:43Z</time></trkpt><trkpt lat="44.26961288118106" lon="11.295644720719164"><ele>371.5</ele><time>2026-04-07T09:52:44Z</time></trkpt><trkpt lat="44.26961842592858" lon="11.295822467385648"><ele>372.75</ele><time>2026-04-07T09:52:45Z</time></trkpt><trkpt lat="44.2695900212525" lon="11.295978554926743"><ele>374.0</ele><time>2026-04-07T09:52:46Z</time></trkpt><trkpt lat="44.269520613285444" lon="11.296087047894623"><ele>374.0</ele><time>2026-04-07T09:52:47Z</time></trkpt><trkpt lat="44.269423588341446" lon="11.296138016572229"><ele>374.0</ele><time>2026-04-07T09:52:48Z</time></trkpt><trkpt lat="44.26932318466098" lon="11.296124237416706"><ele>374.0</ele><time>2026-04-07T09:52:49Z</time></trkpt><trkpt lat="44.269130736304405" lon="11.29595054716095"><ele>374.0</ele><time>2026-04-07T09:52:51Z</time></trkpt><trkpt lat="44.26907825534391" lon="11.29577869898631"><ele>374.0</ele><time>2026-04-07T09:52:52Z</time></trkpt><trkpt lat="44.268991392617906" lon="11.295605782930915"><ele>374.0</ele><time>2026-04-07T09:52:53Z</time></trkpt><trkpt lat="44.26892203153784" lon="11.295406247515125"><ele>374.0</ele><time>2026-04-07T09:52:54Z</time></trkpt><trkpt lat="44.26885487910041" lon="11.295197097641344"><ele>373.0</ele><time>2026-04-07T09:52:55Z</time></trkpt><trkpt lat="44.2688012362924" lon="11.294951762453213"><ele>372.0</ele><time>2026-04-07T09:52:56Z</time></trkpt><trkpt lat="44.26875963902752" lon="11.294718836345615"><ele>371.0</ele><time>2026-04-07T09:52:57Z</time></trkpt><trkpt lat="44.268729247600085" lon="11.294507005416765"><ele>371.0</ele><time>2026-04-07T09:52:58Z</time></trkpt><trkpt lat="44.26872337623139" lon="11.294305158384683"><ele>371.0</ele><time>2026-04-07T09:52:59Z</time></trkpt><trkpt lat="44.26874912867588" lon="11.294090139900959"><ele>371.0</ele><time>2026-04-07T09:53:00Z</time></trkpt><trkpt lat="44.26879075538652" lon="11.293877969609605"><ele>369.75</ele><time>2026-04-07T09:53:01Z</time></trkpt><trkpt lat="44.2688376984682" lon="11.29368082030201"><ele>368.5</ele><time>2026-04-07T09:53:02Z</time></trkpt><trkpt lat="44.26888884514368" lon="11.293502307299084"><ele>367.25</ele><time>2026-04-07T09:53:03Z</time></trkpt><trkpt lat="44.26892419057161" lon="11.29334171804887"><ele>366.0</ele><time>2026-04-07T09:53:04Z</time></trkpt><trkpt lat="44.2689174226009" lon="11.293201352104514"><ele>363.75</ele><time>2026-04-07T09:53:05Z</time></trkpt><trkpt lat="44.268868021200234" lon="11.293070870800138"><ele>361.5</ele><time>2026-04-07T09:53:06Z</time></trkpt><trkpt lat="44.268781373459795" lon="11.292950589951907"><ele>359.25</ele><time>2026-04-07T09:53:07Z</time></trkpt><trkpt lat="44.26866809266854" lon="11.292849678638557"><ele>357.0</ele><time>2026-04-07T09:53:08Z</time></trkpt><trkpt lat="44.268545321141374" lon="11.29278386684448"><ele>357.0</ele><time>2026-04-07T09:53:09Z</time></trkpt><trkpt lat="44.268434259608185" lon="11.292745207799847"><ele>357.0</ele><time>2026-04-07T09:53:10Z</time></trkpt><trkpt lat="44.268350570204625" lon="11.292708268472053"><ele>357.0</ele><time>2026-04-07T09:53:11Z</time></trkpt><trkpt lat="44.26828897391646" lon="11.292649827064471"><ele>357.0</ele><time>2026-04-07T09:53:12Z</time></trkpt><trkpt lat="44.26825150032048" lon="11.29256944451509"><ele>357.0</ele><time>2026-04-07T09:53:13Z</time></trkpt><trkpt lat="44.268299006498" lon="11.29239016801132"><ele>357.0</ele><time>2026-04-07T09:53:16Z</time></trkpt><trkpt lat="44.268422473768645" lon="11.292454759169855"><ele>357.0</ele><time>2026-04-07T09:53:18Z</time></trkpt><trkpt lat="44.26849736882743" lon="11.292498965410761"><ele>357.0</ele><time>2026-04-07T09:53:19Z</time></trkpt><trkpt lat="44.26859738229279" lon="11.292539243765903"><ele>357.0</ele><time>2026-04-07T09:53:20Z</time></trkpt><trkpt lat="44.26873141433404" lon="11.292578019596622"><ele>357.0</ele><time>2026-04-07T09:53:21Z</time></trkpt><trkpt lat="44.26886599551175" lon="11.292617923900728"><ele>357.0</ele><time>2026-04-07T09:53:22Z</time></trkpt><trkpt lat="44.269005547347966" lon="11.29266843781396"><ele>357.0</ele><time>2026-04-07T09:53:23Z</time></trkpt><trkpt lat="44.26916535338674" lon="11.292723879639855"><ele>357.0</ele><time>2026-04-07T09:53:24Z</time></trkpt><trkpt lat="44.26932981839649" lon="11.292773116501987"><ele>355.6666666666667</ele><time>2026-04-07T09:53:25Z</time></trkpt><trkpt lat="44.26949191129619" lon="11.292815296717489"><ele>354.33333333333337</ele><time>2026-04-07T09:53:26Z</time></trkpt><trkpt lat="44.269666581292185" lon="11.292847606751254"><ele>353.0</ele><time>2026-04-07T09:53:27Z</time></trkpt><trkpt lat="44.269860901531736" lon="11.292855355064567"><ele>352.6666666666667</ele><time>2026-04-07T09:53:28Z</time></trkpt><trkpt lat="44.27005769004772" lon="11.29284060897694"><ele>352.3333333333333</ele><time>2026-04-07T09:53:29Z</time></trkpt><trkpt lat="44.27023935156368" lon="11.29280480747464"><ele>352.0</ele><time>2026-04-07T09:53:30Z</time></trkpt><trkpt lat="44.270421594926546" lon="11.292750918734816"><ele>353.0</ele><time>2026-04-07T09:53:31Z</time></trkpt><trkpt lat="44.27060929781863" lon="11.292671265664906"><ele>354.0</ele><time>2026-04-07T09:53:32Z</time></trkpt><trkpt lat="44.270803263712395" lon="11.292567516727038"><ele>355.0</ele><time>2026-04-07T09:53:33Z</time></trkpt><trkpt lat="44.27098537958122" lon="11.292441238331302"><ele>355.0</ele><time>2026-04-07T09:53:34Z</time></trkpt><trkpt lat="44.27115167807088" lon="11.292284626230499"><ele>355.0</ele><time>2026-04-07T09:53:35Z</time></trkpt><trkpt lat="44.27130967189256" lon="11.292099274187871"><ele>355.0</ele><time>2026-04-07T09:53:36Z</time></trkpt><trkpt lat="44.271463742604936" lon="11.291889930852308"><ele>353.3333333333333</ele><time>2026-04-07T09:53:37Z</time></trkpt><trkpt lat="44.27160863579955" lon="11.2916758195472"><ele>351.6666666666667</ele><time>2026-04-07T09:53:38Z</time></trkpt><trkpt lat="44.271746859274906" lon="11.291476590243676"><ele>350.0</ele><time>2026-04-07T09:53:39Z</time></trkpt><trkpt lat="44.271886544338" lon="11.291311645921759"><ele>349.6666666666667</ele><time>2026-04-07T09:53:40Z</time></trkpt><trkpt lat="44.27205170177933" lon="11.291202695490611"><ele>349.3333333333333</ele><time>2026-04-07T09:53:41Z</time></trkpt><trkpt lat="44.272224196699696" lon="11.29107787217148"><ele>349.0</ele><time>2026-04-07T09:53:42Z</time></trkpt><trkpt lat="44.27240906643839" lon="11.290984203044147"><ele>348.0</ele><time>2026-04-07T09:53:43Z</time></trkpt><trkpt lat="44.272602056171145" lon="11.290877319405809"><ele>347.0</ele><time>2026-04-07T09:53:44Z</time></trkpt><trkpt lat="44.272795533758135" lon="11.290760620113295"><ele>346.0</ele><time>2026-04-07T09:53:45Z</time></trkpt><trkpt lat="44.27299085822633" lon="11.290640745383426"><ele>345.3333333333333</ele><time>2026-04-07T09:53:46Z</time></trkpt><trkpt lat="44.27319027834519" lon="11.290522254742475"><ele>344.6666666666667</ele><time>2026-04-07T09:53:47Z</time></trkpt><trkpt lat="44.273393171834584" lon="11.290404639427402"><ele>344.0</ele><time>2026-04-07T09:53:48Z</time></trkpt><trkpt lat="44.27359593481293" lon="11.290280438937579"><ele>344.0</ele><time>2026-04-07T09:53:49Z</time></trkpt><trkpt lat="44.27379674092953" lon="11.290153312032905"><ele>344.0</ele><time>2026-04-07T09:53:50Z</time></trkpt><trkpt lat="44.27398432353608" lon="11.2900360235958"><ele>344.0</ele><time>2026-04-07T09:53:51Z</time></trkpt><trkpt lat="44.274164240585755" lon="11.28993024059367"><ele>344.33333333333337</ele><time>2026-04-07T09:53:52Z</time></trkpt><trkpt lat="44.27433811726703" lon="11.289830838252481"><ele>344.6666666666667</ele><time>2026-04-07T09:53:53Z</time></trkpt><trkpt lat="44.27450238705588" lon="11.289740100935056"><ele>345.0</ele><time>2026-04-07T09:53:54Z</time></trkpt><trkpt lat="44.274663071448884" lon="11.289661987203297"><ele>343.3333333333333</ele><time>2026-04-07T09:53:55Z</time></trkpt><trkpt lat="44.27481858861236" lon="11.289615544124045"><ele>341.66666666666663</ele><time>2026-04-07T09:53:56Z</time></trkpt><trkpt lat="44.27497549919348" lon="11.289599358781773"><ele>340.0</ele><time>2026-04-07T09:53:57Z</time></trkpt><trkpt lat="44.275128477529776" lon="11.289615851534673"><ele>340.0</ele><time>2026-04-07T09:53:58Z</time></trkpt><trkpt lat="44.27527920664954" lon="11.289666998052107"><ele>340.0</ele><time>2026-04-07T09:53:59Z</time></trkpt><trkpt lat="44.275427700420174" lon="11.28975676888869"><ele>340.0</ele><time>2026-04-07T09:54:00Z</time></trkpt><trkpt lat="44.275582475996025" lon="11.28982960160055"><ele>341.66666666666663</ele><time>2026-04-07T09:54:01Z</time></trkpt><trkpt lat="44.27574749928337" lon="11.289910157337614"><ele>343.3333333333333</ele><time>2026-04-07T09:54:02Z</time></trkpt><trkpt lat="44.27591533797958" lon="11.289985288270412"><ele>345.0</ele><time>2026-04-07T09:54:03Z</time></trkpt><trkpt lat="44.27608771523873" lon="11.290063485323518"><ele>345.0</ele><time>2026-04-07T09:54:04Z</time></trkpt><trkpt lat="44.27626304988473" lon="11.290143707551376"><ele>345.0</ele><time>2026-04-07T09:54:05Z</time></trkpt><trkpt lat="44.27644519686725" lon="11.290226949414896"><ele>345.0</ele><time>2026-04-07T09:54:06Z</time></trkpt><trkpt lat="44.27662778886701" lon="11.290315363694404"><ele>342.3333333333333</ele><time>2026-04-07T09:54:07Z</time></trkpt><trkpt lat="44.27680837857991" lon="11.290401504615586"><ele>339.66666666666663</ele><time>2026-04-07T09:54:08Z</time></trkpt><trkpt lat="44.276990423009146" lon="11.29048645470282"><ele>337.0</ele><time>2026-04-07T09:54:09Z</time></trkpt><trkpt lat="44.277162626954855" lon="11.290553485540299"><ele>336.66666666666663</ele><time>2026-04-07T09:54:10Z</time></trkpt><trkpt lat="44.27734403071306" lon="11.290594146972772"><ele>336.3333333333333</ele><time>2026-04-07T09:54:11Z</time></trkpt><trkpt lat="44.277533065253756" lon="11.290616299099804"><ele>336.0</ele><time>2026-04-07T09:54:12Z</time></trkpt><trkpt lat="44.27773763397204" lon="11.290624897743413"><ele>336.0</ele><time>2026-04-07T09:54:13Z</time></trkpt><trkpt lat="44.277951260075774" lon="11.29062364915427"><ele>336.0</ele><time>2026-04-07T09:54:14Z</time></trkpt><trkpt lat="44.27815250376706" lon="11.290629718663125"><ele>336.0</ele><time>2026-04-07T09:54:15Z</time></trkpt><trkpt lat="44.27835837306195" lon="11.290637586546282"><ele>336.3333333333333</ele><time>2026-04-07T09:54:16Z</time></trkpt><trkpt lat="44.27857119973774" lon="11.290647075183179"><ele>336.66666666666663</ele><time>2026-04-07T09:54:17Z</time></trkpt><trkpt lat="44.27878182393614" lon="11.290654194385228"><ele>337.0</ele><time>2026-04-07T09:54:18Z</time></trkpt><trkpt lat="44.27899088907689" lon="11.290660368865232"><ele>336.3333333333333</ele><time>2026-04-07T09:54:19Z</time></trkpt><trkpt lat="44.279193828909236" lon="11.290663243352517"><ele>335.6666666666667</ele><time>2026-04-07T09:54:20Z</time></trkpt><trkpt lat="44.27938794173937" lon="11.290660429077427"><ele>335.0</ele><time>2026-04-07T09:54:21Z</time></trkpt><trkpt lat="44.2795704195008" lon="11.29065440256931"><ele>335.0</ele><time>2026-04-07T09:54:22Z</time></trkpt><trkpt lat="44.27974336907594" lon="11.290640658220127"><ele>335.0</ele><time>2026-04-07T09:54:23Z</time></trkpt><trkpt lat="44.279917061994475" lon="11.290605951052271"><ele>335.0</ele><time>2026-04-07T09:54:24Z</time></trkpt><trkpt lat="44.280091004070854" lon="11.290538671289005"><ele>334.33333333333337</ele><time>2026-04-07T09:54:25Z</time></trkpt><trkpt lat="44.28026153792963" lon="11.290455488462243"><ele>333.6666666666667</ele><time>2026-04-07T09:54:26Z</time></trkpt><trkpt lat="44.28042306456002" lon="11.290366953362291"><ele>333.0</ele><time>2026-04-07T09:54:27Z</time></trkpt><trkpt lat="44.280575420590495" lon="11.290286540095138"><ele>332.3333333333333</ele><time>2026-04-07T09:54:28Z</time></trkpt><trkpt lat="44.280720016315186" lon="11.290222847176619"><ele>331.66666666666663</ele><time>2026-04-07T09:54:29Z</time></trkpt><trkpt lat="44.28086647369866" lon="11.290178794919555"><ele>331.0</ele><time>2026-04-07T09:54:30Z</time></trkpt><trkpt lat="44.28101883245427" lon="11.290158373805253"><ele>331.0</ele><time>2026-04-07T09:54:31Z</time></trkpt><trkpt lat="44.2811861839206" lon="11.290181562730183"><ele>331.0</ele><time>2026-04-07T09:54:32Z</time></trkpt><trkpt lat="44.28137320672385" lon="11.290199322842737"><ele>331.0</ele><time>2026-04-07T09:54:33Z</time></trkpt><trkpt lat="44.28157693440606" lon="11.29021866924765"><ele>330.0</ele><time>2026-04-07T09:54:34Z</time></trkpt><trkpt lat="44.281784088690664" lon="11.29023846792277"><ele>329.0</ele><time>2026-04-07T09:54:35Z</time></trkpt><trkpt lat="44.28199842183168" lon="11.290260766856797"><ele>328.0</ele><time>2026-04-07T09:54:36Z</time></trkpt><trkpt lat="44.28222263632032" lon="11.290271768462368"><ele>326.5</ele><time>2026-04-07T09:54:37Z</time></trkpt><trkpt lat="44.2824471225189" lon="11.290302963869104"><ele>325.0</ele><time>2026-04-07T09:54:38Z</time></trkpt><trkpt lat="44.28267366051332" lon="11.290330230841896"><ele>325.0</ele><time>2026-04-07T09:54:39Z</time></trkpt><trkpt lat="44.28289579040792" lon="11.290351642127625"><ele>325.0</ele><time>2026-04-07T09:54:40Z</time></trkpt><trkpt lat="44.28310402070917" lon="11.290370697053667"><ele>325.0</ele><time>2026-04-07T09:54:41Z</time></trkpt><trkpt lat="44.283300788243636" lon="11.290392153662047"><ele>324.66666666666663</ele><time>2026-04-07T09:54:42Z</time></trkpt><trkpt lat="44.28348259147687" lon="11.290413039762626"><ele>324.3333333333333</ele><time>2026-04-07T09:54:43Z</time></trkpt><trkpt lat="44.283658988919896" lon="11.290430889186299"><ele>324.0</ele><time>2026-04-07T09:54:44Z</time></trkpt><trkpt lat="44.28383876591819" lon="11.290446495008899"><ele>323.6666666666667</ele><time>2026-04-07T09:54:45Z</time></trkpt><trkpt lat="44.284019957615" lon="11.29046400748609"><ele>323.33333333333337</ele><time>2026-04-07T09:54:46Z</time></trkpt><trkpt lat="44.28419345896706" lon="11.290483146795001"><ele>323.0</ele><time>2026-04-07T09:54:47Z</time></trkpt><trkpt lat="44.2843568216701" lon="11.290500405323318"><ele>323.0</ele><time>2026-04-07T09:54:48Z</time></trkpt><trkpt lat="44.2845158489411" lon="11.290519092177028"><ele>323.0</ele><time>2026-04-07T09:54:49Z</time></trkpt><trkpt lat="44.28467382436645" lon="11.290537700343403"><ele>323.0</ele><time>2026-04-07T09:54:50Z</time></trkpt><trkpt lat="44.28483227425094" lon="11.290555167437418"><ele>323.0</ele><time>2026-04-07T09:54:51Z</time></trkpt><trkpt lat="44.28498411777743" lon="11.290568638655264"><ele>323.0</ele><time>2026-04-07T09:54:52Z</time></trkpt><trkpt lat="44.28513095727207" lon="11.290582250967631"><ele>323.0</ele><time>2026-04-07T09:54:53Z</time></trkpt><trkpt lat="44.285278387780544" lon="11.29059753322634"><ele>323.0</ele><time>2026-04-07T09:54:54Z</time></trkpt><trkpt lat="44.285424729758" lon="11.290611188125496"><ele>323.0</ele><time>2026-04-07T09:54:55Z</time></trkpt><trkpt lat="44.28557356514256" lon="11.290623225322127"><ele>323.0</ele><time>2026-04-07T09:54:56Z</time></trkpt><trkpt lat="44.2857296057953" lon="11.29063211990227"><ele>323.0</ele><time>2026-04-07T09:54:57Z</time></trkpt><trkpt lat="44.28589295088798" lon="11.290642887606893"><ele>323.0</ele><time>2026-04-07T09:54:58Z</time></trkpt><trkpt lat="44.286061705984764" lon="11.290657169243667"><ele>323.0</ele><time>2026-04-07T09:54:59Z</time></trkpt><trkpt lat="44.286239071720146" lon="11.290679174986206"><ele>323.0</ele><time>2026-04-07T09:55:00Z</time></trkpt><trkpt lat="44.28642251695153" lon="11.29070135019466"><ele>325.0</ele><time>2026-04-07T09:55:01Z</time></trkpt><trkpt lat="44.28661795776091" lon="11.290714805815904"><ele>327.0</ele><time>2026-04-07T09:55:02Z</time></trkpt><trkpt lat="44.286818500382736" lon="11.290727311691809"><ele>329.0</ele><time>2026-04-07T09:55:03Z</time></trkpt><trkpt lat="44.2870009750955" lon="11.290751136997624"><ele>329.0</ele><time>2026-04-07T09:55:04Z</time></trkpt><trkpt lat="44.28717064697383" lon="11.290791210387148"><ele>329.0</ele><time>2026-04-07T09:55:05Z</time></trkpt><trkpt lat="44.287335927292574" lon="11.290867705636025"><ele>329.0</ele><time>2026-04-07T09:55:06Z</time></trkpt><trkpt lat="44.287490164218376" lon="11.29098298958491"><ele>326.0</ele><time>2026-04-07T09:55:07Z</time></trkpt><trkpt lat="44.28763414407714" lon="11.291125427833826"><ele>323.0</ele><time>2026-04-07T09:55:08Z</time></trkpt><trkpt lat="44.28777837555592" lon="11.291272243488281"><ele>320.0</ele><time>2026-04-07T09:55:09Z</time></trkpt><trkpt lat="44.28792926382151" lon="11.291408561964657"><ele>318.33333333333337</ele><time>2026-04-07T09:55:10Z</time></trkpt><trkpt lat="44.28808673738352" lon="11.29154907824487"><ele>316.6666666666667</ele><time>2026-04-07T09:55:11Z</time></trkpt><trkpt lat="44.28824350857385" lon="11.291697993682108"><ele>315.0</ele><time>2026-04-07T09:55:12Z</time></trkpt><trkpt lat="44.28840518140946" lon="11.291856445500883"><ele>315.0</ele><time>2026-04-07T09:55:13Z</time></trkpt><trkpt lat="44.28856188517763" lon="11.292006827041948"><ele>315.0</ele><time>2026-04-07T09:55:14Z</time></trkpt><trkpt lat="44.2887132993789" lon="11.292145950873001"><ele>315.0</ele><time>2026-04-07T09:55:15Z</time></trkpt><trkpt lat="44.28886877776457" lon="11.292271192051748"><ele>314.6666666666667</ele><time>2026-04-07T09:55:16Z</time></trkpt><trkpt lat="44.289032943616455" lon="11.292366259023346"><ele>314.33333333333337</ele><time>2026-04-07T09:55:17Z</time></trkpt><trkpt lat="44.289209435320856" lon="11.292416541659948"><ele>314.0</ele><time>2026-04-07T09:55:18Z</time></trkpt><trkpt lat="44.289383633060794" lon="11.29241419446095"><ele>314.0</ele><time>2026-04-07T09:55:19Z</time></trkpt><trkpt lat="44.2895584978233" lon="11.292363777222794"><ele>314.0</ele><time>2026-04-07T09:55:20Z</time></trkpt><trkpt lat="44.289713596188875" lon="11.292267206414206"><ele>314.0</ele><time>2026-04-07T09:55:21Z</time></trkpt><trkpt lat="44.28984856526181" lon="11.29213588361896"><ele>315.33333333333337</ele><time>2026-04-07T09:55:22Z</time></trkpt><trkpt lat="44.28996725907549" lon="11.291973408546555"><ele>316.6666666666667</ele><time>2026-04-07T09:55:23Z</time></trkpt><trkpt lat="44.29005291847462" lon="11.291793958413995"><ele>318.0</ele><time>2026-04-07T09:55:24Z</time></trkpt><trkpt lat="44.29010313789286" lon="11.291594576311633"><ele>316.3333333333333</ele><time>2026-04-07T09:55:25Z</time></trkpt><trkpt lat="44.290114853108015" lon="11.291379278314007"><ele>314.66666666666663</ele><time>2026-04-07T09:55:26Z</time></trkpt><trkpt lat="44.29008965219417" lon="11.29115015391012"><ele>313.0</ele><time>2026-04-07T09:55:27Z</time></trkpt><trkpt lat="44.29009509196834" lon="11.290924518309728"><ele>313.0</ele><time>2026-04-07T09:55:28Z</time></trkpt><trkpt lat="44.29009774895185" lon="11.290683918715011"><ele>313.0</ele><time>2026-04-07T09:55:29Z</time></trkpt><trkpt lat="44.29010172124381" lon="11.290447085211706"><ele>313.0</ele><time>2026-04-07T09:55:30Z</time></trkpt><trkpt lat="44.290119087064326" lon="11.290210838793838"><ele>312.3333333333333</ele><time>2026-04-07T09:55:31Z</time></trkpt><trkpt lat="44.29015592721724" lon="11.289999035674745"><ele>311.6666666666667</ele><time>2026-04-07T09:55:32Z</time></trkpt><trkpt lat="44.29022263373954" lon="11.289809428195522"><ele>311.0</ele><time>2026-04-07T09:55:33Z</time></trkpt><trkpt lat="44.290321123282794" lon="11.289638610902555"><ele>310.6666666666667</ele><time>2026-04-07T09:55:34Z</time></trkpt><trkpt lat="44.29045042827402" lon="11.289488952105712"><ele>310.3333333333333</ele><time>2026-04-07T09:55:35Z</time></trkpt><trkpt lat="44.29059387429974" lon="11.289351511064751"><ele>310.0</ele><time>2026-04-07T09:55:36Z</time></trkpt><trkpt lat="44.29074611697951" lon="11.28922289438103"><ele>310.0</ele><time>2026-04-07T09:55:37Z</time></trkpt><trkpt lat="44.29091539573962" lon="11.28910711834643"><ele>310.0</ele><time>2026-04-07T09:55:38Z</time></trkpt><trkpt lat="44.29110145187262" lon="11.289034522857271"><ele>310.0</ele><time>2026-04-07T09:55:39Z</time></trkpt><trkpt lat="44.29128583616315" lon="11.288986046798877"><ele>312.66666666666663</ele><time>2026-04-07T09:55:40Z</time></trkpt><trkpt lat="44.2914814629438" lon="11.288983594959765"><ele>315.3333333333333</ele><time>2026-04-07T09:55:41Z</time></trkpt><trkpt lat="44.29166627301782" lon="11.288989336166292"><ele>318.0</ele><time>2026-04-07T09:55:42Z</time></trkpt><trkpt lat="44.29185347256488" lon="11.288977979624358"><ele>318.0</ele><time>2026-04-07T09:55:43Z</time></trkpt><trkpt lat="44.29204311913976" lon="11.288994495917393"><ele>318.0</ele><time>2026-04-07T09:55:44Z</time></trkpt><trkpt lat="44.29223370809898" lon="11.28901214467203"><ele>318.0</ele><time>2026-04-07T09:55:45Z</time></trkpt><trkpt lat="44.29242751348185" lon="11.289022426419516"><ele>317.6666666666667</ele><time>2026-04-07T09:55:46Z</time></trkpt><trkpt lat="44.292626486247265" lon="11.289030076168302"><ele>317.33333333333337</ele><time>2026-04-07T09:55:47Z</time></trkpt><trkpt lat="44.29282632094022" lon="11.28903943899893"><ele>317.0</ele><time>2026-04-07T09:55:48Z</time></trkpt><trkpt lat="44.29302519652358" lon="11.289052219248305"><ele>315.0</ele><time>2026-04-07T09:55:49Z</time></trkpt><trkpt lat="44.29322229105169" lon="11.28906477978065"><ele>313.0</ele><time>2026-04-07T09:55:50Z</time></trkpt><trkpt lat="44.29342113514121" lon="11.289075152625605"><ele>311.0</ele><time>2026-04-07T09:55:51Z</time></trkpt><trkpt lat="44.29362002560411" lon="11.289088076402027"><ele>311.0</ele><time>2026-04-07T09:55:52Z</time></trkpt><trkpt lat="44.293816124411826" lon="11.289101848587864"><ele>311.0</ele><time>2026-04-07T09:55:53Z</time></trkpt><trkpt lat="44.29400667892293" lon="11.289116802203194"><ele>311.0</ele><time>2026-04-07T09:55:54Z</time></trkpt><trkpt lat="44.29419409952235" lon="11.289142464213553"><ele>309.0</ele><time>2026-04-07T09:55:55Z</time></trkpt><trkpt lat="44.29438213532177" lon="11.28918164726043"><ele>307.0</ele><time>2026-04-07T09:55:56Z</time></trkpt><trkpt lat="44.29457133465823" lon="11.289230680420422"><ele>305.0</ele><time>2026-04-07T09:55:57Z</time></trkpt><trkpt lat="44.29476047134138" lon="11.289297559040442"><ele>303.6666666666667</ele><time>2026-04-07T09:55:58Z</time></trkpt><trkpt lat="44.29495311467699" lon="11.289376216539335"><ele>302.3333333333333</ele><time>2026-04-07T09:55:59Z</time></trkpt><trkpt lat="44.295155457609575" lon="11.289459607812043"><ele>301.0</ele><time>2026-04-07T09:56:00Z</time></trkpt><trkpt lat="44.29537069803588" lon="11.289552975853162"><ele>299.0</ele><time>2026-04-07T09:56:01Z</time></trkpt><trkpt lat="44.29560018939987" lon="11.289643696601136"><ele>297.0</ele><time>2026-04-07T09:56:02Z</time></trkpt><trkpt lat="44.295840032609256" lon="11.289770614553536"><ele>301.5</ele><time>2026-04-07T09:56:03Z</time></trkpt><trkpt lat="44.296096588947776" lon="11.28988048823565"><ele>306.0</ele><time>2026-04-07T09:56:04Z</time></trkpt><trkpt lat="44.2963583852183" lon="11.289992415036078"><ele>301.0</ele><time>2026-04-07T09:56:05Z</time></trkpt><trkpt lat="44.296633032323996" lon="11.29009767037242"><ele>296.0</ele><time>2026-04-07T09:56:06Z</time></trkpt><trkpt lat="44.29691156375151" lon="11.290224177554439"><ele>296.0</ele><time>2026-04-07T09:56:07Z</time></trkpt><trkpt lat="44.297199600486586" lon="11.290343882574113"><ele>296.0</ele><time>2026-04-07T09:56:08Z</time></trkpt><trkpt lat="44.29748274653473" lon="11.290457179591762"><ele>296.0</ele><time>2026-04-07T09:56:09Z</time></trkpt><trkpt lat="44.29773999463118" lon="11.29056790422202"><ele>296.0</ele><time>2026-04-07T09:56:10Z</time></trkpt><trkpt lat="44.29798385729591" lon="11.290676855257114"><ele>297.0</ele><time>2026-04-07T09:56:11Z</time></trkpt><trkpt lat="44.298226742572496" lon="11.290787959198525"><ele>298.0</ele><time>2026-04-07T09:56:12Z</time></trkpt><trkpt lat="44.29847050394306" lon="11.29089559155782"><ele>298.0</ele><time>2026-04-07T09:56:13Z</time></trkpt><trkpt lat="44.29871801919217" lon="11.29099809246596"><ele>298.0</ele><time>2026-04-07T09:56:14Z</time></trkpt><trkpt lat="44.29896571859276" lon="11.2910982294595"><ele>296.0</ele><time>2026-04-07T09:56:15Z</time></trkpt><trkpt lat="44.29921567219132" lon="11.291201496614754"><ele>294.0</ele><time>2026-04-07T09:56:16Z</time></trkpt><trkpt lat="44.29946460275076" lon="11.291311055164904"><ele>294.0</ele><time>2026-04-07T09:56:17Z</time></trkpt><trkpt lat="44.299714079436825" lon="11.291423228619857"><ele>294.0</ele><time>2026-04-07T09:56:18Z</time></trkpt><trkpt lat="44.29996153150161" lon="11.291536282579465"><ele>297.5</ele><time>2026-04-07T09:56:19Z</time></trkpt><trkpt lat="44.30019185979963" lon="11.291637725708364"><ele>301.0</ele><time>2026-04-07T09:56:20Z</time></trkpt><trkpt lat="44.300412841585555" lon="11.291730184272689"><ele>298.0</ele><time>2026-04-07T09:56:21Z</time></trkpt><trkpt lat="44.30062850393312" lon="11.291818313713314"><ele>295.0</ele><time>2026-04-07T09:56:22Z</time></trkpt><trkpt lat="44.30083850222365" lon="11.29190525392359"><ele>292.0</ele><time>2026-04-07T09:56:23Z</time></trkpt><trkpt lat="44.301029355764285" lon="11.291977612253755"><ele>292.0</ele><time>2026-04-07T09:56:24Z</time></trkpt><trkpt lat="44.30122880167792" lon="11.292035299335017"><ele>292.0</ele><time>2026-04-07T09:56:25Z</time></trkpt><trkpt lat="44.301436559735244" lon="11.292039600186309"><ele>292.0</ele><time>2026-04-07T09:56:26Z</time></trkpt><trkpt lat="44.301646909783386" lon="11.292005195127507"><ele>291.66666666666663</ele><time>2026-04-07T09:56:27Z</time></trkpt><trkpt lat="44.3018539551601" lon="11.291936398272748"><ele>291.3333333333333</ele><time>2026-04-07T09:56:28Z</time></trkpt><trkpt lat="44.30206135909878" lon="11.291848343248569"><ele>291.0</ele><time>2026-04-07T09:56:29Z</time></trkpt><trkpt lat="44.302270818054346" lon="11.291764139751729"><ele>292.3333333333333</ele><time>2026-04-07T09:56:30Z</time></trkpt><trkpt lat="44.30248310540307" lon="11.291688639764114"><ele>293.66666666666663</ele><time>2026-04-07T09:56:31Z</time></trkpt><trkpt lat="44.30269729165471" lon="11.291612234340885"><ele>295.0</ele><time>2026-04-07T09:56:32Z</time></trkpt><trkpt lat="44.30291420662218" lon="11.291537086390438"><ele>292.66666666666663</ele><time>2026-04-07T09:56:33Z</time></trkpt><trkpt lat="44.30313134910291" lon="11.291462050290034"><ele>290.3333333333333</ele><time>2026-04-07T09:56:34Z</time></trkpt><trkpt lat="44.30334064947369" lon="11.291389538614292"><ele>288.0</ele><time>2026-04-07T09:56:35Z</time></trkpt><trkpt lat="44.30354611814432" lon="11.291314655424182"><ele>288.0</ele><time>2026-04-07T09:56:36Z</time></trkpt><trkpt lat="44.30375469167207" lon="11.291235704329543"><ele>288.0</ele><time>2026-04-07T09:56:37Z</time></trkpt><trkpt lat="44.30396091327979" lon="11.291158073191989"><ele>288.0</ele><time>2026-04-07T09:56:38Z</time></trkpt><trkpt lat="44.30416796936964" lon="11.29108115824728"><ele>289.0</ele><time>2026-04-07T09:56:39Z</time></trkpt><trkpt lat="44.30437367101108" lon="11.290998106703421"><ele>290.0</ele><time>2026-04-07T09:56:40Z</time></trkpt><trkpt lat="44.30458186451223" lon="11.290886997399276"><ele>291.0</ele><time>2026-04-07T09:56:41Z</time></trkpt><trkpt lat="44.30478899767419" lon="11.290747235067954"><ele>288.0</ele><time>2026-04-07T09:56:42Z</time></trkpt><trkpt lat="44.30499121050047" lon="11.290578696084205"><ele>285.0</ele><time>2026-04-07T09:56:43Z</time></trkpt><trkpt lat="44.30518500323921" lon="11.290393862003196"><ele>285.0</ele><time>2026-04-07T09:56:44Z</time></trkpt><trkpt lat="44.30536639399354" lon="11.290214873161029"><ele>285.0</ele><time>2026-04-07T09:56:45Z</time></trkpt><trkpt lat="44.30553997581805" lon="11.290063494120826"><ele>285.0</ele><time>2026-04-07T09:56:46Z</time></trkpt><trkpt lat="44.30572611485103" lon="11.289943416811546"><ele>285.3333333333333</ele><time>2026-04-07T09:56:47Z</time></trkpt><trkpt lat="44.30591914097123" lon="11.289871030828392"><ele>285.66666666666663</ele><time>2026-04-07T09:56:48Z</time></trkpt><trkpt lat="44.30612453982511" lon="11.289838572673485"><ele>286.0</ele><time>2026-04-07T09:56:49Z</time></trkpt><trkpt lat="44.30633335351419" lon="11.289842376712693"><ele>286.0</ele><time>2026-04-07T09:56:50Z</time></trkpt><trkpt lat="44.30654615695642" lon="11.289873522283383"><ele>286.0</ele><time>2026-04-07T09:56:51Z</time></trkpt><trkpt lat="44.30675628786095" lon="11.289921128725304"><ele>286.0</ele><time>2026-04-07T09:56:52Z</time></trkpt><trkpt lat="44.30694977541491" lon="11.289996043212758"><ele>286.0</ele><time>2026-04-07T09:56:53Z</time></trkpt><trkpt lat="44.30712590506423" lon="11.29012103564582"><ele>286.0</ele><time>2026-04-07T09:56:54Z</time></trkpt><trkpt lat="44.30728546404985" lon="11.290295189605907"><ele>286.0</ele><time>2026-04-07T09:56:55Z</time></trkpt><trkpt lat="44.307435728822284" lon="11.29050882758028"><ele>284.0</ele><time>2026-04-07T09:56:56Z</time></trkpt><trkpt lat="44.307588218109565" lon="11.290741635660405"><ele>282.0</ele><time>2026-04-07T09:56:57Z</time></trkpt><trkpt lat="44.30774735746394" lon="11.29097679865266"><ele>282.0</ele><time>2026-04-07T09:56:58Z</time></trkpt><trkpt lat="44.30790218995982" lon="11.29118860565403"><ele>282.0</ele><time>2026-04-07T09:56:59Z</time></trkpt><trkpt lat="44.308054476287495" lon="11.29136535799505"><ele>282.0</ele><time>2026-04-07T09:57:00Z</time></trkpt><trkpt lat="44.308214532014766" lon="11.291507704612041"><ele>282.3333333333333</ele><time>2026-04-07T09:57:01Z</time></trkpt><trkpt lat="44.30838945258612" lon="11.291607252828285"><ele>282.66666666666663</ele><time>2026-04-07T09:57:02Z</time></trkpt><trkpt lat="44.30857606368669" lon="11.291654803586564"><ele>283.0</ele><time>2026-04-07T09:57:03Z</time></trkpt><trkpt lat="44.30877215507243" lon="11.291643935938069"><ele>285.0</ele><time>2026-04-07T09:57:04Z</time></trkpt><trkpt lat="44.308968631978615" lon="11.291592137077032"><ele>287.0</ele><time>2026-04-07T09:57:05Z</time></trkpt><trkpt lat="44.30916768738098" lon="11.291522223363067"><ele>289.0</ele><time>2026-04-07T09:57:06Z</time></trkpt><trkpt lat="44.309370524555696" lon="11.291450554386872"><ele>286.0</ele><time>2026-04-07T09:57:07Z</time></trkpt><trkpt lat="44.309579420484496" lon="11.29138665227947"><ele>283.0</ele><time>2026-04-07T09:57:08Z</time></trkpt><trkpt lat="44.30978750061297" lon="11.291327745823065"><ele>280.0</ele><time>2026-04-07T09:57:09Z</time></trkpt><trkpt lat="44.30998423038103" lon="11.291271168570542"><ele>280.0</ele><time>2026-04-07T09:57:10Z</time></trkpt><trkpt lat="44.310170495728116" lon="11.291216350683886"><ele>280.0</ele><time>2026-04-07T09:57:11Z</time></trkpt><trkpt lat="44.310358395294735" lon="11.291167680445692"><ele>280.0</ele><time>2026-04-07T09:57:12Z</time></trkpt><trkpt lat="44.310551142313344" lon="11.291139883140474"><ele>280.66666666666663</ele><time>2026-04-07T09:57:13Z</time></trkpt><trkpt lat="44.31074898640795" lon="11.29113984047162"><ele>281.3333333333333</ele><time>2026-04-07T09:57:14Z</time></trkpt><trkpt lat="44.310947002592584" lon="11.291167590662115"><ele>282.0</ele><time>2026-04-07T09:57:15Z</time></trkpt><trkpt lat="44.311142963917966" lon="11.29121295603847"><ele>282.0</ele><time>2026-04-07T09:57:16Z</time></trkpt><trkpt lat="44.3113356535835" lon="11.291275110779281"><ele>282.0</ele><time>2026-04-07T09:57:17Z</time></trkpt><trkpt lat="44.31152701014063" lon="11.291347130438497"><ele>282.0</ele><time>2026-04-07T09:57:18Z</time></trkpt><trkpt lat="44.31171378736874" lon="11.291424856742829"><ele>285.3333333333333</ele><time>2026-04-07T09:57:19Z</time></trkpt><trkpt lat="44.311891711389826" lon="11.291504454201071"><ele>288.66666666666663</ele><time>2026-04-07T09:57:20Z</time></trkpt><trkpt lat="44.31204835066139" lon="11.291607157954614"><ele>292.0</ele><time>2026-04-07T09:57:21Z</time></trkpt><trkpt lat="44.31218328872647" lon="11.291753328595618"><ele>292.0</ele><time>2026-04-07T09:57:22Z</time></trkpt><trkpt lat="44.31229750934195" lon="11.291942437527135"><ele>292.0</ele><time>2026-04-07T09:57:23Z</time></trkpt><trkpt lat="44.31239879277493" lon="11.292139563337583"><ele>292.0</ele><time>2026-04-07T09:57:24Z</time></trkpt><trkpt lat="44.31251656855829" lon="11.292340877090961"><ele>292.0</ele><time>2026-04-07T09:57:25Z</time></trkpt><trkpt lat="44.31265768837736" lon="11.2925170334195"><ele>292.0</ele><time>2026-04-07T09:57:26Z</time></trkpt><trkpt lat="44.31282384757242" lon="11.292663274373144"><ele>292.0</ele><time>2026-04-07T09:57:27Z</time></trkpt><trkpt lat="44.313017686890205" lon="11.292790728592626"><ele>293.0</ele><time>2026-04-07T09:57:28Z</time></trkpt><trkpt lat="44.313226919788136" lon="11.292913290711104"><ele>294.0</ele><time>2026-04-07T09:57:29Z</time></trkpt><trkpt lat="44.31342718387803" lon="11.293036956278021"><ele>295.0</ele><time>2026-04-07T09:57:30Z</time></trkpt><trkpt lat="44.31360211995215" lon="11.293160831384238"><ele>295.0</ele><time>2026-04-07T09:57:31Z</time></trkpt><trkpt lat="44.313755166366555" lon="11.293286494285725"><ele>295.0</ele><time>2026-04-07T09:57:32Z</time></trkpt><trkpt lat="44.31387760428087" lon="11.293420843253315"><ele>295.0</ele><time>2026-04-07T09:57:33Z</time></trkpt><trkpt lat="44.31396394415144" lon="11.293578944451822"><ele>295.0</ele><time>2026-04-07T09:57:34Z</time></trkpt><trkpt lat="44.31401405064601" lon="11.293766282351083"><ele>295.0</ele><time>2026-04-07T09:57:35Z</time></trkpt><trkpt lat="44.31403179825671" lon="11.293971547760394"><ele>295.0</ele><time>2026-04-07T09:57:36Z</time></trkpt><trkpt lat="44.31401530370768" lon="11.29419538897159"><ele>295.0</ele><time>2026-04-07T09:57:37Z</time></trkpt><trkpt lat="44.314013163256284" lon="11.2944433463373"><ele>295.0</ele><time>2026-04-07T09:57:38Z</time></trkpt><trkpt lat="44.31399045654549" lon="11.294703352941376"><ele>295.0</ele><time>2026-04-07T09:57:39Z</time></trkpt><trkpt lat="44.313973726923884" lon="11.294939973736637"><ele>295.5</ele><time>2026-04-07T09:57:40Z</time></trkpt><trkpt lat="44.313967977735345" lon="11.29515658326478"><ele>296.0</ele><time>2026-04-07T09:57:41Z</time></trkpt><trkpt lat="44.313994529925985" lon="11.29535715989977"><ele>296.5</ele><time>2026-04-07T09:57:42Z</time></trkpt><trkpt lat="44.3140582813843" lon="11.295533335591236"><ele>297.0</ele><time>2026-04-07T09:57:43Z</time></trkpt><trkpt lat="44.31416472094647" lon="11.29565660958242"><ele>297.0</ele><time>2026-04-07T09:57:44Z</time></trkpt><trkpt lat="44.31429430315038" lon="11.29575119303173"><ele>297.0</ele><time>2026-04-07T09:57:45Z</time></trkpt><trkpt lat="44.314437275574626" lon="11.295802096036825"><ele>297.0</ele><time>2026-04-07T09:57:46Z</time></trkpt><trkpt lat="44.314591375662125" lon="11.29580566581691"><ele>297.0</ele><time>2026-04-07T09:57:47Z</time></trkpt><trkpt lat="44.31473371342301" lon="11.295817808440834"><ele>298.3333333333333</ele><time>2026-04-07T09:57:48Z</time></trkpt><trkpt lat="44.31485380712087" lon="11.295910275820574"><ele>299.66666666666663</ele><time>2026-04-07T09:57:49Z</time></trkpt><trkpt lat="44.314988626790075" lon="11.296011747036632"><ele>301.0</ele><time>2026-04-07T09:57:50Z</time></trkpt><trkpt lat="44.31511087465556" lon="11.296175694988111"><ele>301.0</ele><time>2026-04-07T09:57:51Z</time></trkpt><trkpt lat="44.31520329940336" lon="11.296380819574653"><ele>301.0</ele><time>2026-04-07T09:57:52Z</time></trkpt><trkpt lat="44.31531641357305" lon="11.2965771274563"><ele>301.0</ele><time>2026-04-07T09:57:53Z</time></trkpt><trkpt lat="44.3153980215586" lon="11.296789929982276"><ele>301.66666666666663</ele><time>2026-04-07T09:57:54Z</time></trkpt><trkpt lat="44.315432028292406" lon="11.297012621097073"><ele>302.3333333333333</ele><time>2026-04-07T09:57:55Z</time></trkpt><trkpt lat="44.31547124031541" lon="11.297228675322152"><ele>303.0</ele><time>2026-04-07T09:57:56Z</time></trkpt><trkpt lat="44.315541463014355" lon="11.297439500372747"><ele>296.6666666666667</ele><time>2026-04-07T09:57:57Z</time></trkpt><trkpt lat="44.315625295895614" lon="11.297640584024379"><ele>290.33333333333337</ele><time>2026-04-07T09:57:58Z</time></trkpt><trkpt lat="44.315737689876904" lon="11.297816496631166"><ele>284.0</ele><time>2026-04-07T09:57:59Z</time></trkpt><trkpt lat="44.31586875688569" lon="11.29795195788636"><ele>284.0</ele><time>2026-04-07T09:58:00Z</time></trkpt><trkpt lat="44.316011964692365" lon="11.29805326283634"><ele>284.0</ele><time>2026-04-07T09:58:01Z</time></trkpt><trkpt lat="44.31616004966544" lon="11.298128805220717"><ele>284.0</ele><time>2026-04-07T09:58:02Z</time></trkpt><trkpt lat="44.316292700891765" lon="11.298151627172638"><ele>286.6666666666667</ele><time>2026-04-07T09:58:03Z</time></trkpt><trkpt lat="44.31644542562325" lon="11.298136433960371"><ele>289.3333333333333</ele><time>2026-04-07T09:58:04Z</time></trkpt><trkpt lat="44.31660202246225" lon="11.298079180093115"><ele>292.0</ele><time>2026-04-07T09:58:05Z</time></trkpt><trkpt lat="44.31676191797526" lon="11.29798961677442"><ele>285.66666666666663</ele><time>2026-04-07T09:58:06Z</time></trkpt><trkpt lat="44.31692536468809" lon="11.297880291024269"><ele>279.3333333333333</ele><time>2026-04-07T09:58:07Z</time></trkpt><trkpt lat="44.3170920836278" lon="11.297777374376224"><ele>273.0</ele><time>2026-04-07T09:58:08Z</time></trkpt><trkpt lat="44.3172788847261" lon="11.297764643693117"><ele>273.0</ele><time>2026-04-07T09:58:09Z</time></trkpt><trkpt lat="44.31747233490424" lon="11.297730403262099"><ele>273.0</ele><time>2026-04-07T09:58:10Z</time></trkpt><trkpt lat="44.317657268472686" lon="11.297735413747057"><ele>273.0</ele><time>2026-04-07T09:58:11Z</time></trkpt><trkpt lat="44.31783319705614" lon="11.29770972409951"><ele>273.0</ele><time>2026-04-07T09:58:12Z</time></trkpt><trkpt lat="44.3180055427483" lon="11.297647325404155"><ele>273.0</ele><time>2026-04-07T09:58:13Z</time></trkpt><trkpt lat="44.31817931451404" lon="11.297550087583835"><ele>273.0</ele><time>2026-04-07T09:58:14Z</time></trkpt><trkpt lat="44.31835135966894" lon="11.297411678143458"><ele>272.6666666666667</ele><time>2026-04-07T09:58:15Z</time></trkpt><trkpt lat="44.31851748400997" lon="11.297261653722705"><ele>272.33333333333337</ele><time>2026-04-07T09:58:16Z</time></trkpt><trkpt lat="44.31868290767033" lon="11.29712251129852"><ele>272.0</ele><time>2026-04-07T09:58:17Z</time></trkpt><trkpt lat="44.31885030944124" lon="11.296993304190307"><ele>271.33333333333337</ele><time>2026-04-07T09:58:18Z</time></trkpt><trkpt lat="44.31901224289572" lon="11.296871908631072"><ele>270.6666666666667</ele><time>2026-04-07T09:58:19Z</time></trkpt><trkpt lat="44.319174935694356" lon="11.296771227753094"><ele>270.0</ele><time>2026-04-07T09:58:20Z</time></trkpt><trkpt lat="44.319323953548604" lon="11.296726517027269"><ele>270.0</ele><time>2026-04-07T09:58:21Z</time></trkpt><trkpt lat="44.31946063151723" lon="11.29673648803493"><ele>270.0</ele><time>2026-04-07T09:58:22Z</time></trkpt><trkpt lat="44.319573237832216" lon="11.296816514895019"><ele>270.0</ele><time>2026-04-07T09:58:23Z</time></trkpt><trkpt lat="44.3196562144595" lon="11.29693647841896"><ele>270.0</ele><time>2026-04-07T09:58:24Z</time></trkpt><trkpt lat="44.319715222979426" lon="11.297099585330525"><ele>269.3333333333333</ele><time>2026-04-07T09:58:25Z</time></trkpt><trkpt lat="44.31978094668693" lon="11.2973008747636"><ele>268.66666666666663</ele><time>2026-04-07T09:58:26Z</time></trkpt><trkpt lat="44.31986035110431" lon="11.297515131200937"><ele>268.0</ele><time>2026-04-07T09:58:27Z</time></trkpt><trkpt lat="44.31995683872902" lon="11.297732970487056"><ele>268.0</ele><time>2026-04-07T09:58:28Z</time></trkpt><trkpt lat="44.32009412090349" lon="11.29795115379648"><ele>268.0</ele><time>2026-04-07T09:58:29Z</time></trkpt><trkpt lat="44.320243899326506" lon="11.298180043342477"><ele>268.0</ele><time>2026-04-07T09:58:30Z</time></trkpt><trkpt lat="44.320379293361334" lon="11.29839665801043"><ele>266.66666666666663</ele><time>2026-04-07T09:58:31Z</time></trkpt><trkpt lat="44.3205236333178" lon="11.298620508251776"><ele>265.3333333333333</ele><time>2026-04-07T09:58:32Z</time></trkpt><trkpt lat="44.32068435574465" lon="11.298846626886133"><ele>264.0</ele><time>2026-04-07T09:58:33Z</time></trkpt><trkpt lat="44.320856050230994" lon="11.299069228659365"><ele>268.0</ele><time>2026-04-07T09:58:34Z</time></trkpt><trkpt lat="44.321025854780665" lon="11.299280343049885"><ele>272.0</ele><time>2026-04-07T09:58:35Z</time></trkpt><trkpt lat="44.321183079983264" lon="11.299482053326455"><ele>276.0</ele><time>2026-04-07T09:58:36Z</time></trkpt><trkpt lat="44.321334580751625" lon="11.299669835186252"><ele>271.0</ele><time>2026-04-07T09:58:37Z</time></trkpt><trkpt lat="44.32147831886831" lon="11.299844832085425"><ele>266.0</ele><time>2026-04-07T09:58:38Z</time></trkpt><trkpt lat="44.32162797920437" lon="11.299991388598416"><ele>261.0</ele><time>2026-04-07T09:58:39Z</time></trkpt><trkpt lat="44.3217996144823" lon="11.300104515643511"><ele>261.0</ele><time>2026-04-07T09:58:40Z</time></trkpt><trkpt lat="44.321979806449484" lon="11.300161823986047"><ele>261.0</ele><time>2026-04-07T09:58:41Z</time></trkpt><trkpt lat="44.32217281443277" lon="11.300178901777652"><ele>261.0</ele><time>2026-04-07T09:58:42Z</time></trkpt><trkpt lat="44.322375757670194" lon="11.300175937547134"><ele>259.0</ele><time>2026-04-07T09:58:43Z</time></trkpt><trkpt lat="44.322577349000554" lon="11.30016107946043"><ele>257.0</ele><time>2026-04-07T09:58:44Z</time></trkpt><trkpt lat="44.32278289294442" lon="11.300132815984016"><ele>255.0</ele><time>2026-04-07T09:58:45Z</time></trkpt><trkpt lat="44.322987337487305" lon="11.300090847058414"><ele>254.66666666666669</ele><time>2026-04-07T09:58:46Z</time></trkpt><trkpt lat="44.32319390834605" lon="11.300039130002256"><ele>254.33333333333334</ele><time>2026-04-07T09:58:47Z</time></trkpt><trkpt lat="44.32340179378648" lon="11.299976588814888"><ele>254.0</ele><time>2026-04-07T09:58:48Z</time></trkpt><trkpt lat="44.323600958157456" lon="11.299893707643305"><ele>254.0</ele><time>2026-04-07T09:58:49Z</time></trkpt><trkpt lat="44.32379738433993" lon="11.299778527827923"><ele>254.0</ele><time>2026-04-07T09:58:50Z</time></trkpt><trkpt lat="44.3239692694052" lon="11.29964063404063"><ele>254.0</ele><time>2026-04-07T09:58:51Z</time></trkpt><trkpt lat="44.324120043311645" lon="11.299514841857757"><ele>251.66666666666669</ele><time>2026-04-07T09:58:52Z</time></trkpt><trkpt lat="44.32427038213173" lon="11.299460022578108"><ele>249.33333333333331</ele><time>2026-04-07T09:58:53Z</time></trkpt><trkpt lat="44.32441688763003" lon="11.299444824280114"><ele>247.0</ele><time>2026-04-07T09:58:54Z</time></trkpt><trkpt lat="44.32456031955648" lon="11.299492428516183"><ele>247.0</ele><time>2026-04-07T09:58:55Z</time></trkpt><trkpt lat="44.32468802385665" lon="11.29960938645768"><ele>247.0</ele><time>2026-04-07T09:58:56Z</time></trkpt><trkpt lat="44.32482347408615" lon="11.2997744864942"><ele>247.0</ele><time>2026-04-07T09:58:57Z</time></trkpt><trkpt lat="44.32496620741962" lon="11.299962610831063"><ele>247.33333333333331</ele><time>2026-04-07T09:58:58Z</time></trkpt><trkpt lat="44.325119377237506" lon="11.300171737849903"><ele>247.66666666666669</ele><time>2026-04-07T09:58:59Z</time></trkpt><trkpt lat="44.325282026876714" lon="11.300383456404582"><ele>248.0</ele><time>2026-04-07T09:59:00Z</time></trkpt><trkpt lat="44.32546013641655" lon="11.300608187145455"><ele>245.5</ele><time>2026-04-07T09:59:01Z</time></trkpt><trkpt lat="44.32563258436733" lon="11.300834776455652"><ele>243.0</ele><time>2026-04-07T09:59:02Z</time></trkpt><trkpt lat="44.32580023091641" lon="11.301055255903972"><ele>243.0</ele><time>2026-04-07T09:59:03Z</time></trkpt><trkpt lat="44.32596640168407" lon="11.301275782442568"><ele>243.0</ele><time>2026-04-07T09:59:04Z</time></trkpt><trkpt lat="44.3261370105071" lon="11.301498115788418"><ele>243.66666666666669</ele><time>2026-04-07T09:59:05Z</time></trkpt><trkpt lat="44.32630143913095" lon="11.301704212053872"><ele>244.33333333333334</ele><time>2026-04-07T09:59:06Z</time></trkpt><trkpt lat="44.32646263913406" lon="11.301887593626391"><ele>245.0</ele><time>2026-04-07T09:59:07Z</time></trkpt><trkpt lat="44.326637342287896" lon="11.30204927794626"><ele>245.0</ele><time>2026-04-07T09:59:08Z</time></trkpt><trkpt lat="44.326827458471854" lon="11.302184840906659"><ele>245.0</ele><time>2026-04-07T09:59:09Z</time></trkpt><trkpt lat="44.32702622450359" lon="11.302280818064434"><ele>245.0</ele><time>2026-04-07T09:59:10Z</time></trkpt><trkpt lat="44.32723293501655" lon="11.302338206615042"><ele>244.0</ele><time>2026-04-07T09:59:11Z</time></trkpt><trkpt lat="44.32744175450838" lon="11.302361375796874"><ele>243.0</ele><time>2026-04-07T09:59:12Z</time></trkpt><trkpt lat="44.327643681126276" lon="11.302380217382611"><ele>242.0</ele><time>2026-04-07T09:59:13Z</time></trkpt><trkpt lat="44.32781985911443" lon="11.302467995142198"><ele>242.0</ele><time>2026-04-07T09:59:14Z</time></trkpt><trkpt lat="44.327985700813144" lon="11.302580937062752"><ele>242.0</ele><time>2026-04-07T09:59:15Z</time></trkpt><trkpt lat="44.32815012042412" lon="11.302736911487793"><ele>242.0</ele><time>2026-04-07T09:59:16Z</time></trkpt><trkpt lat="44.32832864874652" lon="11.302892764373054"><ele>242.0</ele><time>2026-04-07T09:59:17Z</time></trkpt><trkpt lat="44.32850342964967" lon="11.30308258786989"><ele>242.0</ele><time>2026-04-07T09:59:18Z</time></trkpt><trkpt lat="44.328695713531786" lon="11.3032730713332"><ele>240.0</ele><time>2026-04-07T09:59:19Z</time></trkpt><trkpt lat="44.328893111588535" lon="11.3034557347827"><ele>238.0</ele><time>2026-04-07T09:59:20Z</time></trkpt><trkpt lat="44.329100147328845" lon="11.303639743542936"><ele>238.0</ele><time>2026-04-07T09:59:21Z</time></trkpt><trkpt lat="44.32930990191485" lon="11.30382408359521"><ele>238.0</ele><time>2026-04-07T09:59:22Z</time></trkpt><trkpt lat="44.32951791562797" lon="11.303996652377721"><ele>238.0</ele><time>2026-04-07T09:59:23Z</time></trkpt><trkpt lat="44.32972391334096" lon="11.304151469058748"><ele>238.0</ele><time>2026-04-07T09:59:24Z</time></trkpt><trkpt lat="44.329932127068936" lon="11.304294768298158"><ele>238.0</ele><time>2026-04-07T09:59:25Z</time></trkpt><trkpt lat="44.33014322505274" lon="11.304428424927005"><ele>238.0</ele><time>2026-04-07T09:59:26Z</time></trkpt><trkpt lat="44.33035249838438" lon="11.304560241834407"><ele>238.0</ele><time>2026-04-07T09:59:27Z</time></trkpt><trkpt lat="44.33056355337557" lon="11.304686679785279"><ele>238.0</ele><time>2026-04-07T09:59:28Z</time></trkpt><trkpt lat="44.330772435471836" lon="11.30481324295081"><ele>238.0</ele><time>2026-04-07T09:59:29Z</time></trkpt><trkpt lat="44.33098547434919" lon="11.304946519750192"><ele>238.0</ele><time>2026-04-07T09:59:30Z</time></trkpt><trkpt lat="44.331203008058104" lon="11.305088409825963"><ele>236.0</ele><time>2026-04-07T09:59:31Z</time></trkpt><trkpt lat="44.33141899717215" lon="11.305237998716853"><ele>234.0</ele><time>2026-04-07T09:59:32Z</time></trkpt><trkpt lat="44.33161815771443" lon="11.305390276113787"><ele>234.0</ele><time>2026-04-07T09:59:33Z</time></trkpt><trkpt lat="44.331800258873706" lon="11.305559311185933"><ele>234.0</ele><time>2026-04-07T09:59:34Z</time></trkpt><trkpt lat="44.331972469037986" lon="11.305756396276363"><ele>234.0</ele><time>2026-04-07T09:59:35Z</time></trkpt><trkpt lat="44.332133752092794" lon="11.305977207594127"><ele>233.0</ele><time>2026-04-07T09:59:36Z</time></trkpt><trkpt lat="44.332290690444715" lon="11.306211892940869"><ele>232.0</ele><time>2026-04-07T09:59:37Z</time></trkpt><trkpt lat="44.33244303222171" lon="11.306458461943318"><ele>231.5</ele><time>2026-04-07T09:59:38Z</time></trkpt><trkpt lat="44.33259091998447" lon="11.306710511158993"><ele>231.0</ele><time>2026-04-07T09:59:39Z</time></trkpt><trkpt lat="44.33273637803212" lon="11.306964846324783"><ele>231.0</ele><time>2026-04-07T09:59:40Z</time></trkpt><trkpt lat="44.33288223351863" lon="11.307224917141053"><ele>231.0</ele><time>2026-04-07T09:59:41Z</time></trkpt><trkpt lat="44.333021163003295" lon="11.307487246279313"><ele>231.0</ele><time>2026-04-07T09:59:42Z</time></trkpt><trkpt lat="44.33314794695623" lon="11.307767719913738"><ele>231.0</ele><time>2026-04-07T09:59:43Z</time></trkpt><trkpt lat="44.33324946517037" lon="11.308065404580873"><ele>231.0</ele><time>2026-04-07T09:59:44Z</time></trkpt><trkpt lat="44.33332968296695" lon="11.308377391324624"><ele>231.0</ele><time>2026-04-07T09:59:45Z</time></trkpt><trkpt lat="44.3334132735538" lon="11.308702841766136"><ele>230.5</ele><time>2026-04-07T09:59:46Z</time></trkpt><trkpt lat="44.3335064393444" lon="11.309041376365117"><ele>230.0</ele><time>2026-04-07T09:59:47Z</time></trkpt><trkpt lat="44.333605551959025" lon="11.309392309065048"><ele>231.5</ele><time>2026-04-07T09:59:48Z</time></trkpt><trkpt lat="44.3337138037226" lon="11.309760489113575"><ele>233.0</ele><time>2026-04-07T09:59:49Z</time></trkpt><trkpt lat="44.33383004878596" lon="11.310145596868416"><ele>231.5</ele><time>2026-04-07T09:59:50Z</time></trkpt><trkpt lat="44.333948060391" lon="11.310537092916663"><ele>230.0</ele><time>2026-04-07T09:59:51Z</time></trkpt><trkpt lat="44.334059558334204" lon="11.310915300299767"><ele>229.5</ele><time>2026-04-07T09:59:52Z</time></trkpt><trkpt lat="44.33416180290437" lon="11.31125849209746"><ele>229.0</ele><time>2026-04-07T09:59:53Z</time></trkpt><trkpt lat="44.3342565559595" lon="11.311576452433503"><ele>228.5</ele><time>2026-04-07T09:59:54Z</time></trkpt><trkpt lat="44.33434438689096" lon="11.311883753559872"><ele>228.0</ele><time>2026-04-07T09:59:55Z</time></trkpt><trkpt lat="44.334422882071436" lon="11.312177022524416"><ele>228.33333333333331</ele><time>2026-04-07T09:59:56Z</time></trkpt><trkpt lat="44.33449786087921" lon="11.312461992081927"><ele>228.66666666666666</ele><time>2026-04-07T09:59:57Z</time></trkpt><trkpt lat="44.33457048186082" lon="11.31272857875682"><ele>229.0</ele><time>2026-04-07T09:59:58Z</time></trkpt><trkpt lat="44.33464343726435" lon="11.312977255873347"><ele>228.0</ele><time>2026-04-07T09:59:59Z</time></trkpt><trkpt lat="44.334729877859395" lon="11.313211793481594"><ele>227.0</ele><time>2026-04-07T10:00:00Z</time></trkpt><trkpt lat="44.33484899407193" lon="11.313426707653763"><ele>226.0</ele><time>2026-04-07T10:00:01Z</time></trkpt><trkpt lat="44.33501198599323" lon="11.313613502692956"><ele>226.0</ele><time>2026-04-07T10:00:02Z</time></trkpt><trkpt lat="44.33520565056184" lon="11.313771635965761"><ele>226.0</ele><time>2026-04-07T10:00:03Z</time></trkpt><trkpt lat="44.335405662925126" lon="11.313911398743366"><ele>226.0</ele><time>2026-04-07T10:00:04Z</time></trkpt><trkpt lat="44.335601550972136" lon="11.314077489987334"><ele>227.0</ele><time>2026-04-07T10:00:05Z</time></trkpt><trkpt lat="44.3357842745961" lon="11.314277427842004"><ele>228.0</ele><time>2026-04-07T10:00:06Z</time></trkpt><trkpt lat="44.33595547914542" lon="11.314480926873818"><ele>228.0</ele><time>2026-04-07T10:00:07Z</time></trkpt><trkpt lat="44.33613254609476" lon="11.31467949284289"><ele>228.0</ele><time>2026-04-07T10:00:08Z</time></trkpt><trkpt lat="44.3363099811753" lon="11.31483158094148"><ele>228.0</ele><time>2026-04-07T10:00:09Z</time></trkpt><trkpt lat="44.33649886065099" lon="11.314972228252032"><ele>228.0</ele><time>2026-04-07T10:00:10Z</time></trkpt><trkpt lat="44.336672039352294" lon="11.315099486218315"><ele>228.0</ele><time>2026-04-07T10:00:11Z</time></trkpt><trkpt lat="44.33683742984234" lon="11.315240310966695"><ele>228.0</ele><time>2026-04-07T10:00:12Z</time></trkpt><trkpt lat="44.33699136451783" lon="11.315410878846986"><ele>226.66666666666669</ele><time>2026-04-07T10:00:13Z</time></trkpt><trkpt lat="44.337133974949126" lon="11.315617931181368"><ele>225.33333333333334</ele><time>2026-04-07T10:00:14Z</time></trkpt><trkpt lat="44.337271163076004" lon="11.315849680961874"><ele>224.0</ele><time>2026-04-07T10:00:15Z</time></trkpt><trkpt lat="44.33740670222914" lon="11.316094705828103"><ele>224.0</ele><time>2026-04-07T10:00:16Z</time></trkpt><trkpt lat="44.33754253602481" lon="11.316336659288702"><ele>224.0</ele><time>2026-04-07T10:00:17Z</time></trkpt><trkpt lat="44.337675788415865" lon="11.316558471432138"><ele>224.0</ele><time>2026-04-07T10:00:18Z</time></trkpt><trkpt lat="44.33782436148915" lon="11.31676863331481"><ele>224.33333333333334</ele><time>2026-04-07T10:00:19Z</time></trkpt><trkpt lat="44.33799149293453" lon="11.316961845833825"><ele>224.66666666666669</ele><time>2026-04-07T10:00:20Z</time></trkpt><trkpt lat="44.33817033225194" lon="11.317137483354726"><ele>225.0</ele><time>2026-04-07T10:00:21Z</time></trkpt><trkpt lat="44.33835732027341" lon="11.31728465143081"><ele>224.66666666666669</ele><time>2026-04-07T10:00:22Z</time></trkpt><trkpt lat="44.33856191584222" lon="11.317395332553078"><ele>224.33333333333334</ele><time>2026-04-07T10:00:23Z</time></trkpt><trkpt lat="44.33877579679903" lon="11.317468257897266"><ele>224.0</ele><time>2026-04-07T10:00:24Z</time></trkpt><trkpt lat="44.33899605527969" lon="11.317530204227804"><ele>224.0</ele><time>2026-04-07T10:00:25Z</time></trkpt><trkpt lat="44.33921249797611" lon="11.31759322279253"><ele>224.0</ele><time>2026-04-07T10:00:26Z</time></trkpt><trkpt lat="44.33943346867964" lon="11.317658447785952"><ele>224.0</ele><time>2026-04-07T10:00:27Z</time></trkpt><trkpt lat="44.33965417799781" lon="11.317719547749485"><ele>222.33333333333334</ele><time>2026-04-07T10:00:28Z</time></trkpt><trkpt lat="44.33985857427151" lon="11.31776867250066"><ele>220.66666666666669</ele><time>2026-04-07T10:00:29Z</time></trkpt><trkpt lat="44.34004663505006" lon="11.317815553916125"><ele>219.0</ele><time>2026-04-07T10:00:30Z</time></trkpt><trkpt lat="44.340216544193304" lon="11.317883245927213"><ele>219.0</ele><time>2026-04-07T10:00:31Z</time></trkpt><trkpt lat="44.34036959707976" lon="11.317980970423251"><ele>219.0</ele><time>2026-04-07T10:00:32Z</time></trkpt><trkpt lat="44.34051426919618" lon="11.31812772543707"><ele>219.0</ele><time>2026-04-07T10:00:33Z</time></trkpt><trkpt lat="44.340666704985054" lon="11.318309101234178"><ele>219.33333333333331</ele><time>2026-04-07T10:00:34Z</time></trkpt><trkpt lat="44.340828209632804" lon="11.318494277121742"><ele>219.66666666666666</ele><time>2026-04-07T10:00:35Z</time></trkpt><trkpt lat="44.340998067265275" lon="11.318680437792844"><ele>220.0</ele><time>2026-04-07T10:00:36Z</time></trkpt><trkpt lat="44.341174400810196" lon="11.318866038226037"><ele>223.5</ele><time>2026-04-07T10:00:37Z</time></trkpt><trkpt lat="44.34135503175428" lon="11.31905347776508"><ele>227.0</ele><time>2026-04-07T10:00:38Z</time></trkpt><trkpt lat="44.341535759964415" lon="11.319244906245649"><ele>227.0</ele><time>2026-04-07T10:00:39Z</time></trkpt><trkpt lat="44.34170308412738" lon="11.31943370590467"><ele>227.0</ele><time>2026-04-07T10:00:40Z</time></trkpt><trkpt lat="44.341837291142916" lon="11.319658292942105"><ele>227.0</ele><time>2026-04-07T10:00:41Z</time></trkpt><trkpt lat="44.34196830092635" lon="11.319882720794935"><ele>227.0</ele><time>2026-04-07T10:00:42Z</time></trkpt><trkpt lat="44.3420935590284" lon="11.320088413138183"><ele>227.0</ele><time>2026-04-07T10:00:43Z</time></trkpt><trkpt lat="44.34222099152875" lon="11.320272213823824"><ele>227.0</ele><time>2026-04-07T10:00:44Z</time></trkpt><trkpt lat="44.34235052254345" lon="11.32043261060914"><ele>227.0</ele><time>2026-04-07T10:00:45Z</time></trkpt><trkpt lat="44.34250686312415" lon="11.320528392887354"><ele>227.0</ele><time>2026-04-07T10:00:46Z</time></trkpt><trkpt lat="44.34267901485261" lon="11.320576811552495"><ele>227.0</ele><time>2026-04-07T10:00:47Z</time></trkpt><trkpt lat="44.34286754821968" lon="11.320593432542005"><ele>226.66666666666669</ele><time>2026-04-07T10:00:48Z</time></trkpt><trkpt lat="44.343069354730694" lon="11.320595873112989"><ele>226.33333333333331</ele><time>2026-04-07T10:00:49Z</time></trkpt><trkpt lat="44.3432750370299" lon="11.320583017833258"><ele>226.0</ele><time>2026-04-07T10:00:50Z</time></trkpt><trkpt lat="44.34349287330616" lon="11.320556933795647"><ele>226.0</ele><time>2026-04-07T10:00:51Z</time></trkpt><trkpt lat="44.34371573128171" lon="11.320517444152507"><ele>226.0</ele><time>2026-04-07T10:00:52Z</time></trkpt><trkpt lat="44.343929861240525" lon="11.320473816289022"><ele>226.0</ele><time>2026-04-07T10:00:53Z</time></trkpt><trkpt lat="44.344126466257464" lon="11.32044596345525"><ele>227.0</ele><time>2026-04-07T10:00:54Z</time></trkpt><trkpt lat="44.34430954778677" lon="11.320420523340076"><ele>228.0</ele><time>2026-04-07T10:00:55Z</time></trkpt><trkpt lat="44.344479634715995" lon="11.32040677062346"><ele>229.0</ele><time>2026-04-07T10:00:56Z</time></trkpt><trkpt lat="44.34463560919377" lon="11.32045849483976"><ele>228.25</ele><time>2026-04-07T10:00:57Z</time></trkpt><trkpt lat="44.344773115128305" lon="11.32052812087464"><ele>227.5</ele><time>2026-04-07T10:00:58Z</time></trkpt><trkpt lat="44.3448844489632" lon="11.320651242188054"><ele>226.75</ele><time>2026-04-07T10:00:59Z</time></trkpt><trkpt lat="44.34496753713344" lon="11.320800612369288"><ele>226.0</ele><time>2026-04-07T10:01:00Z</time></trkpt><trkpt lat="44.345030437217204" lon="11.320978187894948"><ele>226.0</ele><time>2026-04-07T10:01:01Z</time></trkpt><trkpt lat="44.34510494005462" lon="11.321168049669168"><ele>226.0</ele><time>2026-04-07T10:01:02Z</time></trkpt><trkpt lat="44.34516256725771" lon="11.32138037735556"><ele>226.0</ele><time>2026-04-07T10:01:03Z</time></trkpt><trkpt lat="44.34522245061359" lon="11.321577915112266"><ele>229.66666666666666</ele><time>2026-04-07T10:01:04Z</time></trkpt><trkpt lat="44.34529505079223" lon="11.321767754197147"><ele>233.33333333333331</ele><time>2026-04-07T10:01:05Z</time></trkpt><trkpt lat="44.34538801541005" lon="11.321958855324032"><ele>237.0</ele><time>2026-04-07T10:01:06Z</time></trkpt><trkpt lat="44.34549324586313" lon="11.32214996192573"><ele>236.66666666666669</ele><time>2026-04-07T10:01:07Z</time></trkpt><trkpt lat="44.34560918836674" lon="11.3223399485712"><ele>236.33333333333334</ele><time>2026-04-07T10:01:08Z</time></trkpt><trkpt lat="44.3457392458938" lon="11.32251416693943"><ele>236.0</ele><time>2026-04-07T10:01:09Z</time></trkpt><trkpt lat="44.34589692758223" lon="11.322642736782928"><ele>236.0</ele><time>2026-04-07T10:01:10Z</time></trkpt><trkpt lat="44.3460666925704" lon="11.322751473333383"><ele>236.0</ele><time>2026-04-07T10:01:11Z</time></trkpt><trkpt lat="44.346245291285" lon="11.322816773226702"><ele>236.0</ele><time>2026-04-07T10:01:12Z</time></trkpt><trkpt lat="44.34642734041484" lon="11.322832520992824"><ele>230.66666666666669</ele><time>2026-04-07T10:01:13Z</time></trkpt><trkpt lat="44.346616631747885" lon="11.32281771071535"><ele>225.33333333333331</ele><time>2026-04-07T10:01:14Z</time></trkpt><trkpt lat="44.346815757200815" lon="11.322793831220254"><ele>220.0</ele><time>2026-04-07T10:01:15Z</time></trkpt><trkpt lat="44.34702406386511" lon="11.322783141014186"><ele>219.66666666666666</ele><time>2026-04-07T10:01:16Z</time></trkpt><trkpt lat="44.34723836303542" lon="11.322777162594885"><ele>219.33333333333331</ele><time>2026-04-07T10:01:17Z</time></trkpt><trkpt lat="44.34745856273147" lon="11.322769758484009"><ele>219.0</ele><time>2026-04-07T10:01:18Z</time></trkpt><trkpt lat="44.34768487355611" lon="11.32277340276314"><ele>219.0</ele><time>2026-04-07T10:01:19Z</time></trkpt><trkpt lat="44.34791199946124" lon="11.322788948657632"><ele>219.0</ele><time>2026-04-07T10:01:20Z</time></trkpt><trkpt lat="44.348138685497986" lon="11.32280378745586"><ele>220.0</ele><time>2026-04-07T10:01:21Z</time></trkpt><trkpt lat="44.348364917195966" lon="11.322806149976618"><ele>221.0</ele><time>2026-04-07T10:01:22Z</time></trkpt><trkpt lat="44.34859109440663" lon="11.32279161744923"><ele>221.0</ele><time>2026-04-07T10:01:23Z</time></trkpt><trkpt lat="44.34881409113158" lon="11.322766800475936"><ele>221.0</ele><time>2026-04-07T10:01:24Z</time></trkpt><trkpt lat="44.34903669158815" lon="11.32273122031522"><ele>221.0</ele><time>2026-04-07T10:01:25Z</time></trkpt><trkpt lat="44.349256828283" lon="11.322688299735999"><ele>218.33333333333334</ele><time>2026-04-07T10:01:26Z</time></trkpt><trkpt lat="44.34947624975624" lon="11.32264696553322"><ele>215.66666666666669</ele><time>2026-04-07T10:01:27Z</time></trkpt><trkpt lat="44.349686179085886" lon="11.322581070236168"><ele>213.0</ele><time>2026-04-07T10:01:28Z</time></trkpt><trkpt lat="44.34988439182048" lon="11.322486411823194"><ele>212.66666666666669</ele><time>2026-04-07T10:01:29Z</time></trkpt><trkpt lat="44.350064851823895" lon="11.322388845029998"><ele>212.33333333333334</ele><time>2026-04-07T10:01:30Z</time></trkpt><trkpt lat="44.350235507438086" lon="11.322314515000166"><ele>212.0</ele><time>2026-04-07T10:01:31Z</time></trkpt><trkpt lat="44.350402007004234" lon="11.322293578730552"><ele>211.66666666666669</ele><time>2026-04-07T10:01:32Z</time></trkpt><trkpt lat="44.35056223645026" lon="11.322355778014849"><ele>211.33333333333331</ele><time>2026-04-07T10:01:33Z</time></trkpt><trkpt lat="44.35071363989327" lon="11.322456308737442"><ele>211.0</ele><time>2026-04-07T10:01:34Z</time></trkpt><trkpt lat="44.350867382532996" lon="11.322609293885487"><ele>211.0</ele><time>2026-04-07T10:01:35Z</time></trkpt><trkpt lat="44.35103332753184" lon="11.322769188133448"><ele>211.0</ele><time>2026-04-07T10:01:36Z</time></trkpt><trkpt lat="44.35118938911703" lon="11.322963328354824"><ele>211.0</ele><time>2026-04-07T10:01:37Z</time></trkpt><trkpt lat="44.35134315671761" lon="11.323184315886833"><ele>209.0</ele><time>2026-04-07T10:01:38Z</time></trkpt><trkpt lat="44.35148852105362" lon="11.323434078213596"><ele>207.0</ele><time>2026-04-07T10:01:39Z</time></trkpt><trkpt lat="44.35161935747398" lon="11.323702465717203"><ele>212.0</ele><time>2026-04-07T10:01:40Z</time></trkpt><trkpt lat="44.351726413177175" lon="11.323987746210229"><ele>217.0</ele><time>2026-04-07T10:01:41Z</time></trkpt><trkpt lat="44.35181482014855" lon="11.324297759900288"><ele>217.0</ele><time>2026-04-07T10:01:42Z</time></trkpt><trkpt lat="44.35186388275943" lon="11.324629628359258"><ele>217.0</ele><time>2026-04-07T10:01:43Z</time></trkpt><trkpt lat="44.3519279786027" lon="11.324963092704317"><ele>222.0</ele><time>2026-04-07T10:01:44Z</time></trkpt><trkpt lat="44.35201410361247" lon="11.325295674450574"><ele>227.0</ele><time>2026-04-07T10:01:45Z</time></trkpt><trkpt lat="44.35208989666041" lon="11.325633841133628"><ele>230.5</ele><time>2026-04-07T10:01:46Z</time></trkpt><trkpt lat="44.35216722557988" lon="11.325963399982577"><ele>234.0</ele><time>2026-04-07T10:01:47Z</time></trkpt><trkpt lat="44.35224372315491" lon="11.32627952273847"><ele>221.5</ele><time>2026-04-07T10:01:48Z</time></trkpt><trkpt lat="44.35232071209501" lon="11.326586983243567"><ele>209.0</ele><time>2026-04-07T10:01:49Z</time></trkpt><trkpt lat="44.352407663063296" lon="11.326871538792078"><ele>209.0</ele><time>2026-04-07T10:01:50Z</time></trkpt><trkpt lat="44.3525168401763" lon="11.327123020553406"><ele>209.0</ele><time>2026-04-07T10:01:51Z</time></trkpt><trkpt lat="44.352658368733394" lon="11.327342391677561"><ele>209.0</ele><time>2026-04-07T10:01:52Z</time></trkpt><trkpt lat="44.35282325538196" lon="11.327535539014328"><ele>211.33333333333334</ele><time>2026-04-07T10:01:53Z</time></trkpt><trkpt lat="44.353006115199996" lon="11.32769770907597"><ele>213.66666666666669</ele><time>2026-04-07T10:01:54Z</time></trkpt><trkpt lat="44.35321045063108" lon="11.327839092993308"><ele>216.0</ele><time>2026-04-07T10:01:55Z</time></trkpt><trkpt lat="44.35342843358568" lon="11.327963965057622"><ele>218.5</ele><time>2026-04-07T10:01:56Z</time></trkpt><trkpt lat="44.35365766567442" lon="11.328078276345444"><ele>221.0</ele><time>2026-04-07T10:01:57Z</time></trkpt><trkpt lat="44.35389407784405" lon="11.328187454650703"><ele>213.0</ele><time>2026-04-07T10:01:58Z</time></trkpt><trkpt lat="44.354138963086356" lon="11.328297230905912"><ele>205.0</ele><time>2026-04-07T10:01:59Z</time></trkpt><trkpt lat="44.35439032356528" lon="11.32841200235684"><ele>205.0</ele><time>2026-04-07T10:02:00Z</time></trkpt><trkpt lat="44.35463882022145" lon="11.328529007586127"><ele>205.0</ele><time>2026-04-07T10:02:01Z</time></trkpt><trkpt lat="44.35487588644672" lon="11.328645011224769"><ele>202.5</ele><time>2026-04-07T10:02:02Z</time></trkpt><trkpt lat="44.35509607757967" lon="11.328749689522105"><ele>200.0</ele><time>2026-04-07T10:02:03Z</time></trkpt><trkpt lat="44.3553194296897" lon="11.328852434411456"><ele>204.0</ele><time>2026-04-07T10:02:04Z</time></trkpt><trkpt lat="44.355542866892506" lon="11.328939165774234"><ele>208.0</ele><time>2026-04-07T10:02:05Z</time></trkpt><trkpt lat="44.35577260449418" lon="11.328995348625247"><ele>208.0</ele><time>2026-04-07T10:02:06Z</time></trkpt><trkpt lat="44.35599953690801" lon="11.329014464105482"><ele>208.0</ele><time>2026-04-07T10:02:07Z</time></trkpt><trkpt lat="44.35621710029474" lon="11.328976399319274"><ele>208.0</ele><time>2026-04-07T10:02:08Z</time></trkpt><trkpt lat="44.35642592735915" lon="11.328868351096796"><ele>203.0</ele><time>2026-04-07T10:02:09Z</time></trkpt><trkpt lat="44.35663998833283" lon="11.328748645243213"><ele>198.0</ele><time>2026-04-07T10:02:10Z</time></trkpt><trkpt lat="44.35685790350309" lon="11.328631592470458"><ele>198.0</ele><time>2026-04-07T10:02:11Z</time></trkpt><trkpt lat="44.35707937368845" lon="11.328529636299775"><ele>198.0</ele><time>2026-04-07T10:02:12Z</time></trkpt><trkpt lat="44.35729417339734" lon="11.328459301047896"><ele>197.66666666666669</ele><time>2026-04-07T10:02:13Z</time></trkpt><trkpt lat="44.357501936226114" lon="11.328418296898617"><ele>197.33333333333334</ele><time>2026-04-07T10:02:14Z</time></trkpt><trkpt lat="44.35770088231422" lon="11.328400568374342"><ele>197.0</ele><time>2026-04-07T10:02:15Z</time></trkpt><trkpt lat="44.35789115945659" lon="11.328407597187061"><ele>197.33333333333334</ele><time>2026-04-07T10:02:16Z</time></trkpt><trkpt lat="44.358068641417084" lon="11.32845028109286"><ele>197.66666666666669</ele><time>2026-04-07T10:02:17Z</time></trkpt><trkpt lat="44.35822240383506" lon="11.328543843788013"><ele>198.0</ele><time>2026-04-07T10:02:18Z</time></trkpt><trkpt lat="44.35836828857948" lon="11.3286939004609"><ele>198.0</ele><time>2026-04-07T10:02:19Z</time></trkpt><trkpt lat="44.358509387444904" lon="11.32888643617653"><ele>198.0</ele><time>2026-04-07T10:02:20Z</time></trkpt><trkpt lat="44.358643600421615" lon="11.329101687797408"><ele>198.0</ele><time>2026-04-07T10:02:21Z</time></trkpt><trkpt lat="44.35878596529869" lon="11.329328980550775"><ele>196.33333333333331</ele><time>2026-04-07T10:02:22Z</time></trkpt><trkpt lat="44.358932555909" lon="11.329555315067111"><ele>194.66666666666666</ele><time>2026-04-07T10:02:23Z</time></trkpt><trkpt lat="44.35908662114855" lon="11.329779585068119"><ele>193.0</ele><time>2026-04-07T10:02:24Z</time></trkpt><trkpt lat="44.35925518696344" lon="11.329986525712373"><ele>193.0</ele><time>2026-04-07T10:02:25Z</time></trkpt><trkpt lat="44.359437340609865" lon="11.330169486958477"><ele>193.0</ele><time>2026-04-07T10:02:26Z</time></trkpt><trkpt lat="44.35962837148192" lon="11.330337599518105"><ele>193.0</ele><time>2026-04-07T10:02:27Z</time></trkpt><trkpt lat="44.359822917382274" lon="11.330483609470695"><ele>193.0</ele><time>2026-04-07T10:02:28Z</time></trkpt><trkpt lat="44.36001764934721" lon="11.330593905486552"><ele>193.0</ele><time>2026-04-07T10:02:29Z</time></trkpt><trkpt lat="44.36021468078984" lon="11.330672431315906"><ele>192.66666666666666</ele><time>2026-04-07T10:02:30Z</time></trkpt><trkpt lat="44.36040487648408" lon="11.330729097137526"><ele>192.33333333333331</ele><time>2026-04-07T10:02:31Z</time></trkpt><trkpt lat="44.360591166190886" lon="11.330795757566381"><ele>192.0</ele><time>2026-04-07T10:02:32Z</time></trkpt><trkpt lat="44.36076353941297" lon="11.330887573000034"><ele>192.0</ele><time>2026-04-07T10:02:33Z</time></trkpt><trkpt lat="44.360914333990536" lon="11.331010153607306"><ele>192.0</ele><time>2026-04-07T10:02:34Z</time></trkpt><trkpt lat="44.36104123041173" lon="11.331167055176875"><ele>192.0</ele><time>2026-04-07T10:02:35Z</time></trkpt><trkpt lat="44.36114082277388" lon="11.331360635051487"><ele>193.0</ele><time>2026-04-07T10:02:36Z</time></trkpt><trkpt lat="44.361206267477954" lon="11.331583718975583"><ele>194.0</ele><time>2026-04-07T10:02:37Z</time></trkpt><trkpt lat="44.36123004058089" lon="11.331822518278328"><ele>195.0</ele><time>2026-04-07T10:02:38Z</time></trkpt><trkpt lat="44.36123739547476" lon="11.33208406761026"><ele>194.66666666666669</ele><time>2026-04-07T10:02:39Z</time></trkpt><trkpt lat="44.36125353893391" lon="11.332355147966776"><ele>194.33333333333334</ele><time>2026-04-07T10:02:40Z</time></trkpt><trkpt lat="44.36127803286162" lon="11.33263995936279"><ele>194.0</ele><time>2026-04-07T10:02:41Z</time></trkpt><trkpt lat="44.36130544919519" lon="11.332939626770443"><ele>193.33333333333334</ele><time>2026-04-07T10:02:42Z</time></trkpt><trkpt lat="44.36133305355544" lon="11.333237664393842"><ele>192.66666666666669</ele><time>2026-04-07T10:02:43Z</time></trkpt><trkpt lat="44.36136072071905" lon="11.33352962799887"><ele>192.0</ele><time>2026-04-07T10:02:44Z</time></trkpt><trkpt lat="44.361381135950474" lon="11.333818853604862"><ele>190.66666666666666</ele><time>2026-04-07T10:02:45Z</time></trkpt><trkpt lat="44.36139370452793" lon="11.33408761251536"><ele>189.33333333333331</ele><time>2026-04-07T10:02:46Z</time></trkpt><trkpt lat="44.36140364861808" lon="11.334350473591329"><ele>188.0</ele><time>2026-04-07T10:02:47Z</time></trkpt><trkpt lat="44.361428127579146" lon="11.334601626768128"><ele>188.66666666666666</ele><time>2026-04-07T10:02:48Z</time></trkpt><trkpt lat="44.36148899595893" lon="11.334834953477992"><ele>189.33333333333334</ele><time>2026-04-07T10:02:49Z</time></trkpt><trkpt lat="44.36158813749665" lon="11.33506936552781"><ele>190.0</ele><time>2026-04-07T10:02:50Z</time></trkpt><trkpt lat="44.36171688054902" lon="11.33528704786685"><ele>190.0</ele><time>2026-04-07T10:02:51Z</time></trkpt><trkpt lat="44.361868020025426" lon="11.335489865610006"><ele>190.0</ele><time>2026-04-07T10:02:52Z</time></trkpt><trkpt lat="44.36204370732987" lon="11.335664870005402"><ele>190.0</ele><time>2026-04-07T10:02:53Z</time></trkpt><trkpt lat="44.36223078216101" lon="11.335814210928504"><ele>190.33333333333334</ele><time>2026-04-07T10:02:54Z</time></trkpt><trkpt lat="44.36242049805862" lon="11.335944733779028"><ele>190.66666666666666</ele><time>2026-04-07T10:02:55Z</time></trkpt><trkpt lat="44.36260910404073" lon="11.336072755407391"><ele>191.0</ele><time>2026-04-07T10:02:56Z</time></trkpt><trkpt lat="44.36279753641812" lon="11.336202147595081"><ele>191.0</ele><time>2026-04-07T10:02:57Z</time></trkpt><trkpt lat="44.362986760304786" lon="11.336330214221498"><ele>191.0</ele><time>2026-04-07T10:02:58Z</time></trkpt><trkpt lat="44.36317845911198" lon="11.33646243775123"><ele>191.0</ele><time>2026-04-07T10:02:59Z</time></trkpt><trkpt lat="44.36337645366232" lon="11.33660328815996"><ele>192.33333333333331</ele><time>2026-04-07T10:03:00Z</time></trkpt><trkpt lat="44.363573709664415" lon="11.336745261573562"><ele>193.66666666666666</ele><time>2026-04-07T10:03:01Z</time></trkpt><trkpt lat="44.36377519084089" lon="11.336892482959952"><ele>195.0</ele><time>2026-04-07T10:03:02Z</time></trkpt><trkpt lat="44.36397862409242" lon="11.337041419792945"><ele>190.0</ele><time>2026-04-07T10:03:03Z</time></trkpt><trkpt lat="44.36418338361727" lon="11.33718339163193"><ele>185.0</ele><time>2026-04-07T10:03:04Z</time></trkpt><trkpt lat="44.364380517145314" lon="11.337318698171263"><ele>180.0</ele><time>2026-04-07T10:03:05Z</time></trkpt><trkpt lat="44.3645700596492" lon="11.33744494838827"><ele>180.0</ele><time>2026-04-07T10:03:06Z</time></trkpt><trkpt lat="44.36474498573006" lon="11.337563434355221"><ele>180.0</ele><time>2026-04-07T10:03:07Z</time></trkpt><trkpt lat="44.36490350044097" lon="11.337675848010814"><ele>180.0</ele><time>2026-04-07T10:03:08Z</time></trkpt><trkpt lat="44.365027946548096" lon="11.337796128556173"><ele>180.0</ele><time>2026-04-07T10:03:09Z</time></trkpt><trkpt lat="44.365117960187085" lon="11.337944992114553"><ele>180.0</ele><time>2026-04-07T10:03:10Z</time></trkpt><trkpt lat="44.36515469422847" lon="11.338151803616576"><ele>180.0</ele><time>2026-04-07T10:03:11Z</time></trkpt><trkpt lat="44.36518525913704" lon="11.338381876639982"><ele>179.0</ele><time>2026-04-07T10:03:12Z</time></trkpt><trkpt lat="44.365224166062276" lon="11.338629902265291"><ele>178.0</ele><time>2026-04-07T10:03:13Z</time></trkpt><trkpt lat="44.365246496716324" lon="11.338894047496304"><ele>177.0</ele><time>2026-04-07T10:03:14Z</time></trkpt><trkpt lat="44.36529100693793" lon="11.339159597314891"><ele>177.0</ele><time>2026-04-07T10:03:15Z</time></trkpt><trkpt lat="44.36534522859999" lon="11.339415400472166"><ele>177.0</ele><time>2026-04-07T10:03:16Z</time></trkpt><trkpt lat="44.36541406177236" lon="11.339647871223447"><ele>177.0</ele><time>2026-04-07T10:03:17Z</time></trkpt><trkpt lat="44.36550733927819" lon="11.339867526653292"><ele>176.66666666666666</ele><time>2026-04-07T10:03:18Z</time></trkpt><trkpt lat="44.36563340236183" lon="11.34006616201409"><ele>176.33333333333331</ele><time>2026-04-07T10:03:19Z</time></trkpt><trkpt lat="44.36577536836179" lon="11.340235234601613"><ele>176.0</ele><time>2026-04-07T10:03:20Z</time></trkpt><trkpt lat="44.3659345477959" lon="11.340374140579371"><ele>176.0</ele><time>2026-04-07T10:03:21Z</time></trkpt><trkpt lat="44.366109126450034" lon="11.340474593812605"><ele>176.0</ele><time>2026-04-07T10:03:22Z</time></trkpt><trkpt lat="44.36629266631167" lon="11.34053949014841"><ele>176.0</ele><time>2026-04-07T10:03:23Z</time></trkpt><trkpt lat="44.36648586810979" lon="11.340561807095193"><ele>177.33333333333331</ele><time>2026-04-07T10:03:24Z</time></trkpt><trkpt lat="44.366679512216855" lon="11.340550804374026"><ele>178.66666666666666</ele><time>2026-04-07T10:03:25Z</time></trkpt><trkpt lat="44.366870953854146" lon="11.340496988300234"><ele>180.0</ele><time>2026-04-07T10:03:26Z</time></trkpt><trkpt lat="44.367065015778415" lon="11.340412706233815"><ele>180.33333333333334</ele><time>2026-04-07T10:03:27Z</time></trkpt><trkpt lat="44.36726456420298" lon="11.340324231184937"><ele>180.66666666666669</ele><time>2026-04-07T10:03:28Z</time></trkpt><trkpt lat="44.36746536115229" lon="11.340239150661839"><ele>181.0</ele><time>2026-04-07T10:03:29Z</time></trkpt><trkpt lat="44.36766036480905" lon="11.340155745139562"><ele>181.0</ele><time>2026-04-07T10:03:30Z</time></trkpt><trkpt lat="44.36784077958748" lon="11.340075020460636"><ele>181.0</ele><time>2026-04-07T10:03:31Z</time></trkpt><trkpt lat="44.36801254372745" lon="11.339976463332336"><ele>181.0</ele><time>2026-04-07T10:03:32Z</time></trkpt><trkpt lat="44.36818040657628" lon="11.339846017207606"><ele>179.33333333333334</ele><time>2026-04-07T10:03:33Z</time></trkpt><trkpt lat="44.368337056376426" lon="11.339681061096698"><ele>177.66666666666666</ele><time>2026-04-07T10:03:34Z</time></trkpt><trkpt lat="44.36849101891976" lon="11.339502711217575"><ele>176.0</ele><time>2026-04-07T10:03:35Z</time></trkpt><trkpt lat="44.36864802649949" lon="11.33932464720835"><ele>176.0</ele><time>2026-04-07T10:03:36Z</time></trkpt><trkpt lat="44.368811221830576" lon="11.339152969803584"><ele>176.0</ele><time>2026-04-07T10:03:37Z</time></trkpt><trkpt lat="44.368967231093094" lon="11.33899005773733"><ele>176.0</ele><time>2026-04-07T10:03:38Z</time></trkpt><trkpt lat="44.36911226362303" lon="11.338839120915264"><ele>176.33333333333331</ele><time>2026-04-07T10:03:39Z</time></trkpt><trkpt lat="44.36925026726409" lon="11.338696259896656"><ele>176.66666666666666</ele><time>2026-04-07T10:03:40Z</time></trkpt><trkpt lat="44.36938015572023" lon="11.33856345360627"><ele>177.0</ele><time>2026-04-07T10:03:41Z</time></trkpt><trkpt lat="44.369508687974374" lon="11.338443255647796"><ele>177.0</ele><time>2026-04-07T10:03:42Z</time></trkpt><trkpt lat="44.369631614662275" lon="11.33835780613212"><ele>177.0</ele><time>2026-04-07T10:03:43Z</time></trkpt><trkpt lat="44.369753042691784" lon="11.338324625987717"><ele>177.0</ele><time>2026-04-07T10:03:44Z</time></trkpt><trkpt lat="44.36987824734718" lon="11.338345595739534"><ele>177.0</ele><time>2026-04-07T10:03:45Z</time></trkpt><trkpt lat="44.370001419403074" lon="11.33841491266604"><ele>177.25</ele><time>2026-04-07T10:03:46Z</time></trkpt><trkpt lat="44.37011449450143" lon="11.33852260588767"><ele>177.5</ele><time>2026-04-07T10:03:47Z</time></trkpt><trkpt lat="44.37021691125114" lon="11.338661749240876"><ele>177.75</ele><time>2026-04-07T10:03:48Z</time></trkpt><trkpt lat="44.370306206621514" lon="11.33882499172779"><ele>178.0</ele><time>2026-04-07T10:03:49Z</time></trkpt><trkpt lat="44.370387780166254" lon="11.339004858985373"><ele>177.0</ele><time>2026-04-07T10:03:50Z</time></trkpt><trkpt lat="44.37047516678979" lon="11.339189719156781"><ele>176.0</ele><time>2026-04-07T10:03:51Z</time></trkpt><trkpt lat="44.37057279102225" lon="11.339374893598125"><ele>175.0</ele><time>2026-04-07T10:03:52Z</time></trkpt><trkpt lat="44.370672504541695" lon="11.339556510173177"><ele>175.0</ele><time>2026-04-07T10:03:53Z</time></trkpt><trkpt lat="44.37075704619317" lon="11.339714144107907"><ele>175.0</ele><time>2026-04-07T10:03:54Z</time></trkpt><trkpt lat="44.37083107296138" lon="11.33984909484049"><ele>175.0</ele><time>2026-04-07T10:03:55Z</time></trkpt><trkpt lat="44.37089507864831" lon="11.339955323058142"><ele>175.0</ele><time>2026-04-07T10:03:56Z</time></trkpt><trkpt lat="44.3709520953554" lon="11.340052764585055"><ele>175.0</ele><time>2026-04-07T10:03:57Z</time></trkpt><trkpt lat="44.370992432395376" lon="11.340134309539106"><ele>175.0</ele><time>2026-04-07T10:03:58Z</time></trkpt><trkpt lat="44.37101031284949" lon="11.34022532630804"><ele>175.0</ele><time>2026-04-07T10:03:59Z</time></trkpt><trkpt lat="44.370961725087106" lon="11.340433003687913"><ele>175.0</ele><time>2026-04-07T10:04:01Z</time></trkpt><trkpt lat="44.370917400409965" lon="11.340530393917117"><ele>175.0</ele><time>2026-04-07T10:04:02Z</time></trkpt><trkpt lat="44.370880133617035" lon="11.340609940064764"><ele>175.0</ele><time>2026-04-07T10:04:03Z</time></trkpt><trkpt lat="44.3708389492778" lon="11.340717236672592"><ele>175.0</ele><time>2026-04-07T10:04:05Z</time></trkpt><trkpt lat="44.37083645313276" lon="11.340807063005709"><ele>175.0</ele><time>2026-04-07T10:04:18Z</time></trkpt><trkpt lat="44.37091978849804" lon="11.340882621102589"><ele>175.0</ele><time>2026-04-07T10:04:20Z</time></trkpt><trkpt lat="44.370993417191734" lon="11.340917403274853"><ele>175.0</ele><time>2026-04-07T10:04:21Z</time></trkpt><trkpt lat="44.371051965528615" lon="11.340956322127173"><ele>175.0</ele><time>2026-04-07T10:04:22Z</time></trkpt><trkpt lat="44.371148342837294" lon="11.34103112675032"><ele>175.0</ele><time>2026-04-07T10:04:24Z</time></trkpt><trkpt lat="44.371248977521205" lon="11.341102931204983"><ele>175.0</ele><time>2026-04-07T10:04:26Z</time></trkpt><trkpt lat="44.37135036079669" lon="11.34120160385898"><ele>175.0</ele><time>2026-04-07T10:04:28Z</time></trkpt><trkpt lat="44.37140153735834" lon="11.341254484312419"><ele>175.0</ele><time>2026-04-07T10:04:29Z</time></trkpt><trkpt lat="44.371462005592356" lon="11.341321470892792"><ele>175.0</ele><time>2026-04-07T10:04:30Z</time></trkpt><trkpt lat="44.3715275710813" lon="11.341384142234176"><ele>175.0</ele><time>2026-04-07T10:04:31Z</time></trkpt><trkpt lat="44.37160475712291" lon="11.34145385700762"><ele>175.0</ele><time>2026-04-07T10:04:32Z</time></trkpt><trkpt lat="44.371689946903665" lon="11.341535148386212"><ele>175.0</ele><time>2026-04-07T10:04:33Z</time></trkpt><trkpt lat="44.37177879685188" lon="11.34162368692375"><ele>175.0</ele><time>2026-04-07T10:04:34Z</time></trkpt><trkpt lat="44.37186399109557" lon="11.341716351937967"><ele>175.0</ele><time>2026-04-07T10:04:35Z</time></trkpt><trkpt lat="44.37195218041884" lon="11.341811845354128"><ele>175.0</ele><time>2026-04-07T10:04:36Z</time></trkpt><trkpt lat="44.37204615982228" lon="11.341908480222168"><ele>175.0</ele><time>2026-04-07T10:04:37Z</time></trkpt><trkpt lat="44.3721492808988" lon="11.341986218373371"><ele>175.4</ele><time>2026-04-07T10:04:38Z</time></trkpt><trkpt lat="44.372255295823265" lon="11.342020314776489"><ele>175.8</ele><time>2026-04-07T10:04:39Z</time></trkpt><trkpt lat="44.372349955417164" lon="11.342012538764113"><ele>176.2</ele><time>2026-04-07T10:04:40Z</time></trkpt><trkpt lat="44.37244905073183" lon="11.341971886168583"><ele>176.6</ele><time>2026-04-07T10:04:41Z</time></trkpt><trkpt lat="44.37254149557778" lon="11.341893516808446"><ele>177.0</ele><time>2026-04-07T10:04:42Z</time></trkpt><trkpt lat="44.37262979763474" lon="11.341780976402289"><ele>177.0</ele><time>2026-04-07T10:04:43Z</time></trkpt><trkpt lat="44.37272888822368" lon="11.341666892545184"><ele>177.0</ele><time>2026-04-07T10:04:44Z</time></trkpt><trkpt lat="44.372812944054914" lon="11.341595948618734"><ele>177.0</ele><time>2026-04-07T10:04:45Z</time></trkpt><trkpt lat="44.37292991431927" lon="11.341526178635805"><ele>177.0</ele><time>2026-04-07T10:04:46Z</time></trkpt><trkpt lat="44.37305828294454" lon="11.341448447220078"><ele>177.0</ele><time>2026-04-07T10:04:47Z</time></trkpt><trkpt lat="44.37319140584638" lon="11.341360178230955"><ele>177.0</ele><time>2026-04-07T10:04:48Z</time></trkpt><trkpt lat="44.37330813634188" lon="11.341260927351874"><ele>177.0</ele><time>2026-04-07T10:04:49Z</time></trkpt><trkpt lat="44.37342445717335" lon="11.341145754261417"><ele>177.0</ele><time>2026-04-07T10:04:50Z</time></trkpt><trkpt lat="44.37355855630776" lon="11.341016503738622"><ele>177.0</ele><time>2026-04-07T10:04:51Z</time></trkpt><trkpt lat="44.37370037581137" lon="11.340904032639958"><ele>177.0</ele><time>2026-04-07T10:04:52Z</time></trkpt><trkpt lat="44.37384896699856" lon="11.340815417377328"><ele>177.0</ele><time>2026-04-07T10:04:53Z</time></trkpt><trkpt lat="44.37398881110236" lon="11.340761398449308"><ele>178.0</ele><time>2026-04-07T10:04:54Z</time></trkpt><trkpt lat="44.374120778799636" lon="11.340726773314206"><ele>179.0</ele><time>2026-04-07T10:04:55Z</time></trkpt><trkpt lat="44.374258585977365" lon="11.340683718586877"><ele>180.0</ele><time>2026-04-07T10:04:56Z</time></trkpt><trkpt lat="44.37439847949967" lon="11.340631114854611"><ele>181.0</ele><time>2026-04-07T10:04:57Z</time></trkpt><trkpt lat="44.37453367935063" lon="11.34058111801696"><ele>180.5</ele><time>2026-04-07T10:04:58Z</time></trkpt><trkpt lat="44.3746606963663" lon="11.340531717450725"><ele>180.0</ele><time>2026-04-07T10:04:59Z</time></trkpt><trkpt lat="44.37478657817428" lon="11.340481908503243"><ele>179.5</ele><time>2026-04-07T10:05:00Z</time></trkpt><trkpt lat="44.37490633479629" lon="11.340433827722523"><ele>179.0</ele><time>2026-04-07T10:05:01Z</time></trkpt><trkpt lat="44.37501738725392" lon="11.340388130488947"><ele>179.0</ele><time>2026-04-07T10:05:02Z</time></trkpt><trkpt lat="44.375139016539634" lon="11.340330372092785"><ele>179.0</ele><time>2026-04-07T10:05:03Z</time></trkpt><trkpt lat="44.37528195560726" lon="11.340276628712854"><ele>179.0</ele><time>2026-04-07T10:05:04Z</time></trkpt><trkpt lat="44.37539172024741" lon="11.34023355497034"><ele>179.0</ele><time>2026-04-07T10:05:05Z</time></trkpt><trkpt lat="44.37549712114967" lon="11.34018867910791"><ele>179.2</ele><time>2026-04-07T10:05:06Z</time></trkpt><trkpt lat="44.37560148903719" lon="11.3401423680857"><ele>179.39999999999998</ele><time>2026-04-07T10:05:07Z</time></trkpt><trkpt lat="44.375701114558176" lon="11.340097341456302"><ele>179.6</ele><time>2026-04-07T10:05:08Z</time></trkpt><trkpt lat="44.37579098465486" lon="11.340054380231305"><ele>179.8</ele><time>2026-04-07T10:05:09Z</time></trkpt><trkpt lat="44.37587740154112" lon="11.340018504375706"><ele>180.0</ele><time>2026-04-07T10:05:10Z</time></trkpt><trkpt lat="44.375955418633914" lon="11.33998761607829"><ele>180.0</ele><time>2026-04-07T10:05:11Z</time></trkpt><trkpt lat="44.3760211963843" lon="11.339954003817509"><ele>180.0</ele><time>2026-04-07T10:05:12Z</time></trkpt><trkpt lat="44.37608236521402" lon="11.339927865048155"><ele>180.0</ele><time>2026-04-07T10:05:13Z</time></trkpt><trkpt lat="44.37614400899803" lon="11.339903340979873"><ele>180.0</ele><time>2026-04-07T10:05:14Z</time></trkpt><trkpt lat="44.37624623941397" lon="11.339892718439778"><ele>180.0</ele><time>2026-04-07T10:05:16Z</time></trkpt><trkpt lat="44.37632673589531" lon="11.339934391614163"><ele>180.0</ele><time>2026-04-07T10:05:18Z</time></trkpt><trkpt lat="44.376404784172884" lon="11.34006933337888"><ele>179.4</ele><time>2026-04-07T10:05:20Z</time></trkpt><trkpt lat="44.376425571480205" lon="11.340190432005963"><ele>178.8</ele><time>2026-04-07T10:05:21Z</time></trkpt><trkpt lat="44.37643795028125" lon="11.340330508056647"><ele>178.2</ele><time>2026-04-07T10:05:22Z</time></trkpt><trkpt lat="44.37645239072206" lon="11.340487752087252"><ele>177.6</ele><time>2026-04-07T10:05:23Z</time></trkpt><trkpt lat="44.37647785723993" lon="11.340652316456106"><ele>177.0</ele><time>2026-04-07T10:05:24Z</time></trkpt><trkpt lat="44.37652103473014" lon="11.340797882858578"><ele>177.0</ele><time>2026-04-07T10:05:25Z</time></trkpt><trkpt lat="44.376592064283784" lon="11.340947444293828"><ele>177.0</ele><time>2026-04-07T10:05:26Z</time></trkpt><trkpt lat="44.37667707599092" lon="11.341090508441086"><ele>177.0</ele><time>2026-04-07T10:05:27Z</time></trkpt><trkpt lat="44.37676589829155" lon="11.341208768759364"><ele>177.0</ele><time>2026-04-07T10:05:28Z</time></trkpt><trkpt lat="44.37686780925856" lon="11.341317660838023"><ele>178.25</ele><time>2026-04-07T10:05:29Z</time></trkpt><trkpt lat="44.37697235330255" lon="11.341412151054174"><ele>179.5</ele><time>2026-04-07T10:05:30Z</time></trkpt><trkpt lat="44.37707672423156" lon="11.341505450561717"><ele>180.75</ele><time>2026-04-07T10:05:31Z</time></trkpt><trkpt lat="44.37717394865692" lon="11.341592495621962"><ele>182.0</ele><time>2026-04-07T10:05:32Z</time></trkpt><trkpt lat="44.37726573852137" lon="11.341675607372741"><ele>179.39999999999998</ele><time>2026-04-07T10:05:33Z</time></trkpt><trkpt lat="44.37735544686102" lon="11.341751278555847"><ele>176.79999999999998</ele><time>2026-04-07T10:05:34Z</time></trkpt><trkpt lat="44.377439575020986" lon="11.3418206782382"><ele>174.2</ele><time>2026-04-07T10:05:35Z</time></trkpt><trkpt lat="44.37751943950783" lon="11.341889727134959"><ele>171.6</ele><time>2026-04-07T10:05:36Z</time></trkpt><trkpt lat="44.377594353437956" lon="11.341952843620469"><ele>169.0</ele><time>2026-04-07T10:05:37Z</time></trkpt><trkpt lat="44.37767030502603" lon="11.341998246248721"><ele>169.0</ele><time>2026-04-07T10:05:38Z</time></trkpt><trkpt lat="44.3777440161536" lon="11.342038073866611"><ele>169.0</ele><time>2026-04-07T10:05:39Z</time></trkpt><trkpt lat="44.377801380224966" lon="11.34209438287233"><ele>169.0</ele><time>2026-04-07T10:05:40Z</time></trkpt><trkpt lat="44.377845143226196" lon="11.342168617017064"><ele>169.0</ele><time>2026-04-07T10:05:41Z</time></trkpt><trkpt lat="44.37789715792065" lon="11.342240917105768"><ele>169.0</ele><time>2026-04-07T10:05:42Z</time></trkpt><trkpt lat="44.377969271831724" lon="11.342259305695155"><ele>169.0</ele><time>2026-04-07T10:05:43Z</time></trkpt><trkpt lat="44.37804054291666" lon="11.34222223756767"><ele>169.0</ele><time>2026-04-07T10:05:44Z</time></trkpt><trkpt lat="44.378124941585774" lon="11.342173584893215"><ele>168.83333333333334</ele><time>2026-04-07T10:05:45Z</time></trkpt><trkpt lat="44.37820748470475" lon="11.34215130977414"><ele>168.66666666666669</ele><time>2026-04-07T10:05:46Z</time></trkpt><trkpt lat="44.37828502255506" lon="11.342154398099593"><ele>168.5</ele><time>2026-04-07T10:05:47Z</time></trkpt><trkpt lat="44.37836509082821" lon="11.342167819074184"><ele>168.33333333333334</ele><time>2026-04-07T10:05:48Z</time></trkpt><trkpt lat="44.37845329364322" lon="11.342192201123357"><ele>168.16666666666666</ele><time>2026-04-07T10:05:49Z</time></trkpt><trkpt lat="44.37855625789476" lon="11.342223039108672"><ele>168.0</ele><time>2026-04-07T10:05:50Z</time></trkpt><trkpt lat="44.37867114087707" lon="11.3422564563929"><ele>168.0</ele><time>2026-04-07T10:05:51Z</time></trkpt><trkpt lat="44.37879307755413" lon="11.342292932872052"><ele>168.0</ele><time>2026-04-07T10:05:52Z</time></trkpt><trkpt lat="44.37892246271172" lon="11.342333419814222"><ele>168.0</ele><time>2026-04-07T10:05:53Z</time></trkpt><trkpt lat="44.37905975985295" lon="11.342374575222271"><ele>168.0</ele><time>2026-04-07T10:05:54Z</time></trkpt><trkpt lat="44.37920904125426" lon="11.342412760295796"><ele>168.25</ele><time>2026-04-07T10:05:55Z</time></trkpt><trkpt lat="44.37936291734635" lon="11.342450053002645"><ele>168.5</ele><time>2026-04-07T10:05:56Z</time></trkpt><trkpt lat="44.379506085688995" lon="11.342475079907183"><ele>168.75</ele><time>2026-04-07T10:05:57Z</time></trkpt><trkpt lat="44.379641435426905" lon="11.342489759491377"><ele>169.0</ele><time>2026-04-07T10:05:58Z</time></trkpt><trkpt lat="44.37978324509594" lon="11.34250391146229"><ele>169.0</ele><time>2026-04-07T10:05:59Z</time></trkpt><trkpt lat="44.3799236424442" lon="11.342517575411398"><ele>169.0</ele><time>2026-04-07T10:06:00Z</time></trkpt><trkpt lat="44.38006544923102" lon="11.34253885277752"><ele>169.0</ele><time>2026-04-07T10:06:01Z</time></trkpt><trkpt lat="44.38020764402346" lon="11.34255770072472"><ele>169.0</ele><time>2026-04-07T10:06:02Z</time></trkpt><trkpt lat="44.38035315502974" lon="11.342555709969737"><ele>169.0</ele><time>2026-04-07T10:06:03Z</time></trkpt><trkpt lat="44.38049596163673" lon="11.34254019211766"><ele>169.0</ele><time>2026-04-07T10:06:04Z</time></trkpt><trkpt lat="44.38063839301359" lon="11.34251661540197"><ele>169.0</ele><time>2026-04-07T10:06:05Z</time></trkpt><trkpt lat="44.38091249341021" lon="11.342395397305191"><ele>169.0</ele><time>2026-04-07T10:06:07Z</time></trkpt><trkpt lat="44.38103154816283" lon="11.342285201482253"><ele>169.0</ele><time>2026-04-07T10:06:08Z</time></trkpt><trkpt lat="44.381147535459895" lon="11.342161737139646"><ele>169.0</ele><time>2026-04-07T10:06:09Z</time></trkpt><trkpt lat="44.381254666971785" lon="11.342045401953154"><ele>169.0</ele><time>2026-04-07T10:06:10Z</time></trkpt><trkpt lat="44.38135172460986" lon="11.341943264447288"><ele>170.39999999999998</ele><time>2026-04-07T10:06:11Z</time></trkpt><trkpt lat="44.38143587684771" lon="11.341854810317248"><ele>171.8</ele><time>2026-04-07T10:06:12Z</time></trkpt><trkpt lat="44.38151352197953" lon="11.34177569391971"><ele>173.2</ele><time>2026-04-07T10:06:13Z</time></trkpt><trkpt lat="44.38159552652335" lon="11.341699772547058"><ele>174.60000000000002</ele><time>2026-04-07T10:06:14Z</time></trkpt><trkpt lat="44.38168239815545" lon="11.34164406177302"><ele>176.0</ele><time>2026-04-07T10:06:15Z</time></trkpt><trkpt lat="44.38177171073968" lon="11.341614526796223"><ele>176.0</ele><time>2026-04-07T10:06:16Z</time></trkpt><trkpt lat="44.381863296162734" lon="11.341615720628138"><ele>176.0</ele><time>2026-04-07T10:06:17Z</time></trkpt><trkpt lat="44.38195151919211" lon="11.34163966677767"><ele>176.0</ele><time>2026-04-07T10:06:18Z</time></trkpt><trkpt lat="44.38202276009256" lon="11.341677960663896"><ele>176.0</ele><time>2026-04-07T10:06:19Z</time></trkpt><trkpt lat="44.38209559622424" lon="11.341735866285505"><ele>176.0</ele><time>2026-04-07T10:06:20Z</time></trkpt><trkpt lat="44.38218617644548" lon="11.341807852878702"><ele>176.0</ele><time>2026-04-07T10:06:21Z</time></trkpt><trkpt lat="44.38229471798736" lon="11.341891966192959"><ele>176.0</ele><time>2026-04-07T10:06:22Z</time></trkpt><trkpt lat="44.38241859560461" lon="11.341982613907671"><ele>176.0</ele><time>2026-04-07T10:06:23Z</time></trkpt><trkpt lat="44.38254144792756" lon="11.34205781187491"><ele>176.0</ele><time>2026-04-07T10:06:24Z</time></trkpt><trkpt lat="44.382648416845065" lon="11.342119513577005"><ele>176.0</ele><time>2026-04-07T10:06:25Z</time></trkpt><trkpt lat="44.382738996246594" lon="11.34217159936032"><ele>176.0</ele><time>2026-04-07T10:06:26Z</time></trkpt><trkpt lat="44.38282844061023" lon="11.342204316929733"><ele>176.0</ele><time>2026-04-07T10:06:27Z</time></trkpt><trkpt lat="44.38293188882332" lon="11.342209668741937"><ele>176.0</ele><time>2026-04-07T10:06:28Z</time></trkpt><trkpt lat="44.38303326774286" lon="11.342198673888237"><ele>176.0</ele><time>2026-04-07T10:06:29Z</time></trkpt><trkpt lat="44.3831503112526" lon="11.342143980808224"><ele>176.0</ele><time>2026-04-07T10:06:30Z</time></trkpt><trkpt lat="44.383276829141906" lon="11.342046616797115"><ele>176.66666666666666</ele><time>2026-04-07T10:06:31Z</time></trkpt><trkpt lat="44.383428574838824" lon="11.34194410785772"><ele>177.33333333333334</ele><time>2026-04-07T10:06:32Z</time></trkpt><trkpt lat="44.38358504944383" lon="11.341824933470082"><ele>178.0</ele><time>2026-04-07T10:06:33Z</time></trkpt><trkpt lat="44.383742252428526" lon="11.341706397781921"><ele>181.66666666666669</ele><time>2026-04-07T10:06:34Z</time></trkpt><trkpt lat="44.38388443691632" lon="11.34158990514984"><ele>185.33333333333334</ele><time>2026-04-07T10:06:35Z</time></trkpt><trkpt lat="44.38402542838128" lon="11.341510883984803"><ele>189.0</ele><time>2026-04-07T10:06:36Z</time></trkpt><trkpt lat="44.384168972797454" lon="11.341490408539801"><ele>189.0</ele><time>2026-04-07T10:06:37Z</time></trkpt><trkpt lat="44.38431046084969" lon="11.341476041471047"><ele>189.0</ele><time>2026-04-07T10:06:38Z</time></trkpt><trkpt lat="44.384457363240756" lon="11.341462232540376"><ele>189.0</ele><time>2026-04-07T10:06:39Z</time></trkpt><trkpt lat="44.38460079315227" lon="11.341481038648984"><ele>189.0</ele><time>2026-04-07T10:06:40Z</time></trkpt><trkpt lat="44.384745734507206" lon="11.34148483123187"><ele>190.25</ele><time>2026-04-07T10:06:41Z</time></trkpt><trkpt lat="44.384883156526165" lon="11.341482880103062"><ele>191.5</ele><time>2026-04-07T10:06:42Z</time></trkpt><trkpt lat="44.38502426802477" lon="11.341483810240113"><ele>192.75</ele><time>2026-04-07T10:06:43Z</time></trkpt><trkpt lat="44.38516390212259" lon="11.341492752874872"><ele>194.0</ele><time>2026-04-07T10:06:44Z</time></trkpt><trkpt lat="44.385303913620476" lon="11.341500749424233"><ele>194.0</ele><time>2026-04-07T10:06:45Z</time></trkpt><trkpt lat="44.38544977318025" lon="11.34150745023108"><ele>194.0</ele><time>2026-04-07T10:06:46Z</time></trkpt><trkpt lat="44.38558999716531" lon="11.341513043372709"><ele>194.0</ele><time>2026-04-07T10:06:47Z</time></trkpt><trkpt lat="44.38572796853599" lon="11.341515664146986"><ele>194.0</ele><time>2026-04-07T10:06:48Z</time></trkpt><trkpt lat="44.38586864842892" lon="11.341512936182518"><ele>193.75</ele><time>2026-04-07T10:06:49Z</time></trkpt><trkpt lat="44.38601012858144" lon="11.34149917597079"><ele>193.5</ele><time>2026-04-07T10:06:50Z</time></trkpt><trkpt lat="44.38614238011545" lon="11.341469014082309"><ele>193.25</ele><time>2026-04-07T10:06:51Z</time></trkpt><trkpt lat="44.38627276607705" lon="11.34143255576408"><ele>193.0</ele><time>2026-04-07T10:06:52Z</time></trkpt><trkpt lat="44.38640293443787" lon="11.341388716893075"><ele>190.25</ele><time>2026-04-07T10:06:53Z</time></trkpt><trkpt lat="44.38653285317753" lon="11.341342901483216"><ele>187.5</ele><time>2026-04-07T10:06:54Z</time></trkpt><trkpt lat="44.386666554429" lon="11.341294143217363"><ele>184.75</ele><time>2026-04-07T10:06:55Z</time></trkpt><trkpt lat="44.38679529556337" lon="11.341249303917031"><ele>182.0</ele><time>2026-04-07T10:06:56Z</time></trkpt><trkpt lat="44.38692616503125" lon="11.341192576097804"><ele>182.0</ele><time>2026-04-07T10:06:57Z</time></trkpt><trkpt lat="44.38705836629284" lon="11.341142099320612"><ele>182.0</ele><time>2026-04-07T10:06:58Z</time></trkpt><trkpt lat="44.387185419324084" lon="11.341080745586096"><ele>182.0</ele><time>2026-04-07T10:06:59Z</time></trkpt><trkpt lat="44.38730808997108" lon="11.341026506793902"><ele>182.0</ele><time>2026-04-07T10:07:00Z</time></trkpt><trkpt lat="44.387420043203576" lon="11.340976550842475"><ele>182.8</ele><time>2026-04-07T10:07:01Z</time></trkpt><trkpt lat="44.38752464200019" lon="11.340934424221832"><ele>183.6</ele><time>2026-04-07T10:07:02Z</time></trkpt><trkpt lat="44.38762612409417" lon="11.340902413411792"><ele>184.4</ele><time>2026-04-07T10:07:03Z</time></trkpt><trkpt lat="44.387736801628066" lon="11.340912413750123"><ele>185.20000000000002</ele><time>2026-04-07T10:07:04Z</time></trkpt><trkpt lat="44.3878583360905" lon="11.340907726243104"><ele>186.0</ele><time>2026-04-07T10:07:05Z</time></trkpt><trkpt lat="44.38799294580153" lon="11.34089440624745"><ele>185.33333333333334</ele><time>2026-04-07T10:07:06Z</time></trkpt><trkpt lat="44.38814566389762" lon="11.340904084919437"><ele>184.66666666666669</ele><time>2026-04-07T10:07:07Z</time></trkpt><trkpt lat="44.38829875215206" lon="11.340912230895642"><ele>184.0</ele><time>2026-04-07T10:07:08Z</time></trkpt><trkpt lat="44.38844287020936" lon="11.340919103510144"><ele>184.0</ele><time>2026-04-07T10:07:09Z</time></trkpt><trkpt lat="44.38874427944581" lon="11.340960127686454"><ele>184.0</ele><time>2026-04-07T10:07:11Z</time></trkpt><trkpt lat="44.388904273446336" lon="11.340980609605094"><ele>184.0</ele><time>2026-04-07T10:07:12Z</time></trkpt><trkpt lat="44.38906563098067" lon="11.341008454033187"><ele>184.0</ele><time>2026-04-07T10:07:13Z</time></trkpt><trkpt lat="44.38922850882042" lon="11.341025158915436"><ele>184.0</ele><time>2026-04-07T10:07:14Z</time></trkpt><trkpt lat="44.389395790739826" lon="11.341079473795054"><ele>184.0</ele><time>2026-04-07T10:07:15Z</time></trkpt><trkpt lat="44.38955733784873" lon="11.341136277733328"><ele>184.0</ele><time>2026-04-07T10:07:16Z</time></trkpt><trkpt lat="44.38970602987921" lon="11.341181861196208"><ele>184.0</ele><time>2026-04-07T10:07:17Z</time></trkpt><trkpt lat="44.389851675917406" lon="11.341223512083305"><ele>183.0</ele><time>2026-04-07T10:07:17.999Z</time></trkpt><trkpt lat="44.38998963183489" lon="11.34129011104368"><ele>182.0</ele><time>2026-04-07T10:07:18.999Z</time></trkpt><trkpt lat="44.39012973496911" lon="11.341314897728008"><ele>181.0</ele><time>2026-04-07T10:07:19.999Z</time></trkpt><trkpt lat="44.39026198112972" lon="11.341347539003529"><ele>180.0</ele><time>2026-04-07T10:07:20.999Z</time></trkpt><trkpt lat="44.3903876260095" lon="11.341362656439886"><ele>180.0</ele><time>2026-04-07T10:07:21.999Z</time></trkpt><trkpt lat="44.39050808393293" lon="11.34135215910185"><ele>180.0</ele><time>2026-04-07T10:07:22.999Z</time></trkpt><trkpt lat="44.39062117646616" lon="11.341324041586455"><ele>180.0</ele><time>2026-04-07T10:07:23.999Z</time></trkpt><trkpt lat="44.39071653062321" lon="11.341290995432162"><ele>180.0</ele><time>2026-04-07T10:07:24.999Z</time></trkpt><trkpt lat="44.3908017456953" lon="11.341268267877403"><ele>180.0</ele><time>2026-04-07T10:07:25.999Z</time></trkpt><trkpt lat="44.39087073247143" lon="11.34126822195288"><ele>180.0</ele><time>2026-04-07T10:07:26.999Z</time></trkpt><trkpt lat="44.39096524465428" lon="11.341318983361749"><ele>180.0</ele><time>2026-04-07T10:07:28.999Z</time></trkpt><trkpt lat="44.39103281341431" lon="11.341374238683331"><ele>180.0</ele><time>2026-04-07T10:07:32.999Z</time></trkpt><trkpt lat="44.391125830347924" lon="11.341445176901788"><ele>180.0</ele><time>2026-04-07T10:07:34.999Z</time></trkpt><trkpt lat="44.3912272292875" lon="11.34141491363432"><ele>180.0</ele><time>2026-04-07T10:07:37Z</time></trkpt><trkpt lat="44.39126448601357" lon="11.341337573325616"><ele>180.0</ele><time>2026-04-07T10:07:38Z</time></trkpt><trkpt lat="44.39129820232515" lon="11.341243770529209"><ele>180.0</ele><time>2026-04-07T10:07:39Z</time></trkpt><trkpt lat="44.39136099322189" lon="11.341159786501956"><ele>180.0</ele><time>2026-04-07T10:07:40Z</time></trkpt><trkpt lat="44.3914397382033" lon="11.341100972636868"><ele>180.0</ele><time>2026-04-07T10:07:41Z</time></trkpt><trkpt lat="44.39164624371298" lon="11.34102378521795"><ele>180.25</ele><time>2026-04-07T10:07:43Z</time></trkpt><trkpt lat="44.39176873520426" lon="11.341004398988467"><ele>180.5</ele><time>2026-04-07T10:07:44Z</time></trkpt><trkpt lat="44.391882950516326" lon="11.340999181312647"><ele>180.75</ele><time>2026-04-07T10:07:45Z</time></trkpt><trkpt lat="44.39199287214653" lon="11.340999762114455"><ele>181.0</ele><time>2026-04-07T10:07:46Z</time></trkpt><trkpt lat="44.392105412495034" lon="11.34099721893102"><ele>181.0</ele><time>2026-04-07T10:07:47Z</time></trkpt><trkpt lat="44.39222979064837" lon="11.340992412869635"><ele>181.0</ele><time>2026-04-07T10:07:48Z</time></trkpt><trkpt lat="44.39235911618379" lon="11.340988361632446"><ele>181.0</ele><time>2026-04-07T10:07:49Z</time></trkpt><trkpt lat="44.39248239596801" lon="11.34098670740907"><ele>181.0</ele><time>2026-04-07T10:07:49.999Z</time></trkpt><trkpt lat="44.392610763785385" lon="11.340982814453351"><ele>181.0</ele><time>2026-04-07T10:07:50.999Z</time></trkpt><trkpt lat="44.39274338955108" lon="11.340983844241643"><ele>181.0</ele><time>2026-04-07T10:07:51.999Z</time></trkpt><trkpt lat="44.39287557620679" lon="11.34098403233455"><ele>181.0</ele><time>2026-04-07T10:07:52.999Z</time></trkpt><trkpt lat="44.39300864112277" lon="11.340979093766528"><ele>181.0</ele><time>2026-04-07T10:07:53.999Z</time></trkpt><trkpt lat="44.3931344426759" lon="11.340974624248368"><ele>180.5</ele><time>2026-04-07T10:07:54.999Z</time></trkpt><trkpt lat="44.393262277743204" lon="11.34096633472857"><ele>180.0</ele><time>2026-04-07T10:07:55.999Z</time></trkpt><trkpt lat="44.39339916671674" lon="11.34095433734452"><ele>179.5</ele><time>2026-04-07T10:07:56.999Z</time></trkpt><trkpt lat="44.39353974662854" lon="11.340946577760954"><ele>179.0</ele><time>2026-04-07T10:07:57.999Z</time></trkpt><trkpt lat="44.39367764630996" lon="11.340952404859255"><ele>179.0</ele><time>2026-04-07T10:07:58.999Z</time></trkpt><trkpt lat="44.393813860738796" lon="11.340976668464192"><ele>179.0</ele><time>2026-04-07T10:07:59.999Z</time></trkpt><trkpt lat="44.393945991268" lon="11.34103180717787"><ele>179.0</ele><time>2026-04-07T10:08:00.999Z</time></trkpt><trkpt lat="44.39407247894489" lon="11.341102276176429"><ele>179.0</ele><time>2026-04-07T10:08:01.999Z</time></trkpt><trkpt lat="44.39419488060067" lon="11.341195337143457"><ele>178.0</ele><time>2026-04-07T10:08:02.999Z</time></trkpt><trkpt lat="44.39431980171931" lon="11.341294977102319"><ele>177.0</ele><time>2026-04-07T10:08:03.999Z</time></trkpt><trkpt lat="44.394446998902126" lon="11.341386655850984"><ele>176.0</ele><time>2026-04-07T10:08:04.999Z</time></trkpt><trkpt lat="44.394577337384355" lon="11.341485277462738"><ele>175.0</ele><time>2026-04-07T10:08:05.999Z</time></trkpt><trkpt lat="44.394707811500794" lon="11.341581059993159"><ele>173.66666666666669</ele><time>2026-04-07T10:08:06.999Z</time></trkpt><trkpt lat="44.39484291751861" lon="11.341679443389722"><ele>172.33333333333334</ele><time>2026-04-07T10:08:07.999Z</time></trkpt><trkpt lat="44.39498502395544" lon="11.341784828868873"><ele>171.0</ele><time>2026-04-07T10:08:08.999Z</time></trkpt><trkpt lat="44.39513012835246" lon="11.341898420712798"><ele>171.0</ele><time>2026-04-07T10:08:09.999Z</time></trkpt><trkpt lat="44.395265199430526" lon="11.34199734356261"><ele>171.0</ele><time>2026-04-07T10:08:10.999Z</time></trkpt><trkpt lat="44.39539514167586" lon="11.342095226788981"><ele>171.0</ele><time>2026-04-07T10:08:11.999Z</time></trkpt><trkpt lat="44.395528715448265" lon="11.342196023372948"><ele>171.5</ele><time>2026-04-07T10:08:12.999Z</time></trkpt><trkpt lat="44.395661115535" lon="11.342298557045421"><ele>172.0</ele><time>2026-04-07T10:08:13.999Z</time></trkpt><trkpt lat="44.39578392716269" lon="11.342398713158856"><ele>172.5</ele><time>2026-04-07T10:08:14.999Z</time></trkpt><trkpt lat="44.39590341352206" lon="11.342497147131882"><ele>173.0</ele><time>2026-04-07T10:08:15.999Z</time></trkpt><trkpt lat="44.39602854344441" lon="11.342606689663251"><ele>173.0</ele><time>2026-04-07T10:08:16.999Z</time></trkpt><trkpt lat="44.396151623238545" lon="11.342712912381616"><ele>173.0</ele><time>2026-04-07T10:08:17.999Z</time></trkpt><trkpt lat="44.39627084972759" lon="11.342815023821469"><ele>173.0</ele><time>2026-04-07T10:08:18.999Z</time></trkpt><trkpt lat="44.396388241506436" lon="11.34291906253566"><ele>173.0</ele><time>2026-04-07T10:08:19.999Z</time></trkpt><trkpt lat="44.39650778365091" lon="11.343021110187598"><ele>172.5</ele><time>2026-04-07T10:08:20.999Z</time></trkpt><trkpt lat="44.39662379824264" lon="11.343125158210697"><ele>172.0</ele><time>2026-04-07T10:08:21.999Z</time></trkpt><trkpt lat="44.39674243647939" lon="11.343231379338793"><ele>171.5</ele><time>2026-04-07T10:08:22.999Z</time></trkpt><trkpt lat="44.39685784414136" lon="11.343334652326327"><ele>171.0</ele><time>2026-04-07T10:08:23.999Z</time></trkpt><trkpt lat="44.39697226750544" lon="11.343434464608334"><ele>171.0</ele><time>2026-04-07T10:08:24.999Z</time></trkpt><trkpt lat="44.39707794138086" lon="11.343526555176378"><ele>171.0</ele><time>2026-04-07T10:08:25.999Z</time></trkpt><trkpt lat="44.39718459008389" lon="11.343616810992327"><ele>171.0</ele><time>2026-04-07T10:08:26.999Z</time></trkpt><trkpt lat="44.39729800198137" lon="11.34372119363663"><ele>171.0</ele><time>2026-04-07T10:08:28Z</time></trkpt><trkpt lat="44.39741669624423" lon="11.343823814945615"><ele>170.75</ele><time>2026-04-07T10:08:29Z</time></trkpt><trkpt lat="44.39753579034931" lon="11.34393178839247"><ele>170.5</ele><time>2026-04-07T10:08:30Z</time></trkpt><trkpt lat="44.397657228918426" lon="11.344039958814372"><ele>170.25</ele><time>2026-04-07T10:08:31Z</time></trkpt><trkpt lat="44.397783691959425" lon="11.34415450787838"><ele>170.0</ele><time>2026-04-07T10:08:32Z</time></trkpt><trkpt lat="44.397906403310536" lon="11.34426457556432"><ele>169.5</ele><time>2026-04-07T10:08:33Z</time></trkpt><trkpt lat="44.398028741116555" lon="11.344374295466286"><ele>169.0</ele><time>2026-04-07T10:08:34Z</time></trkpt><trkpt lat="44.39815615954259" lon="11.344482756792091"><ele>168.5</ele><time>2026-04-07T10:08:35Z</time></trkpt><trkpt lat="44.398280598465206" lon="11.344593972843322"><ele>168.0</ele><time>2026-04-07T10:08:36Z</time></trkpt><trkpt lat="44.3984003441194" lon="11.344702290815809"><ele>168.0</ele><time>2026-04-07T10:08:37Z</time></trkpt><trkpt lat="44.39851184091948" lon="11.344803712767925"><ele>168.0</ele><time>2026-04-07T10:08:38Z</time></trkpt><trkpt lat="44.39861753523983" lon="11.344894793359321"><ele>168.0</ele><time>2026-04-07T10:08:39Z</time></trkpt><trkpt lat="44.3987239085259" lon="11.344985407569224"><ele>168.0</ele><time>2026-04-07T10:08:40Z</time></trkpt><trkpt lat="44.39883503676283" lon="11.345082399817173"><ele>168.0</ele><time>2026-04-07T10:08:41Z</time></trkpt><trkpt lat="44.398941269102366" lon="11.345175663282177"><ele>168.0</ele><time>2026-04-07T10:08:42Z</time></trkpt><trkpt lat="44.39904336170956" lon="11.345259654955917"><ele>168.0</ele><time>2026-04-07T10:08:43Z</time></trkpt><trkpt lat="44.399143062115265" lon="11.345335710871963"><ele>168.0</ele><time>2026-04-07T10:08:44Z</time></trkpt><trkpt lat="44.399240352531564" lon="11.345402016756582"><ele>168.0</ele><time>2026-04-07T10:08:45Z</time></trkpt><trkpt lat="44.39933352702993" lon="11.345465520423636"><ele>168.0</ele><time>2026-04-07T10:08:46Z</time></trkpt><trkpt lat="44.39943413270626" lon="11.34553266756544"><ele>168.0</ele><time>2026-04-07T10:08:47Z</time></trkpt><trkpt lat="44.39953749942697" lon="11.345605611098733"><ele>168.0</ele><time>2026-04-07T10:08:48Z</time></trkpt><trkpt lat="44.39963709526149" lon="11.345678346668997"><ele>168.0</ele><time>2026-04-07T10:08:49Z</time></trkpt><trkpt lat="44.39975133451923" lon="11.345759126323586"><ele>167.33333333333334</ele><time>2026-04-07T10:08:50Z</time></trkpt><trkpt lat="44.399890136365315" lon="11.345849977621988"><ele>166.66666666666669</ele><time>2026-04-07T10:08:51Z</time></trkpt><trkpt lat="44.400059289860096" lon="11.345953223700693"><ele>166.0</ele><time>2026-04-07T10:08:52Z</time></trkpt><trkpt lat="44.40025358063741" lon="11.346075130074723"><ele>166.0</ele><time>2026-04-07T10:08:53Z</time></trkpt><trkpt lat="44.4004679259238" lon="11.346222134597188"><ele>166.0</ele><time>2026-04-07T10:08:54Z</time></trkpt><trkpt lat="44.40069307329722" lon="11.346381277450183"><ele>161.0</ele><time>2026-04-07T10:08:55Z</time></trkpt><trkpt lat="44.400926150335586" lon="11.346549777603686"><ele>156.0</ele><time>2026-04-07T10:08:56Z</time></trkpt><trkpt lat="44.40116266575396" lon="11.346715601304235"><ele>157.0</ele><time>2026-04-07T10:08:57Z</time></trkpt><trkpt lat="44.40142205482037" lon="11.346896063693848"><ele>158.0</ele><time>2026-04-07T10:08:58Z</time></trkpt><trkpt lat="44.4016859936998" lon="11.347080809904925"><ele>156.0</ele><time>2026-04-07T10:08:59Z</time></trkpt><trkpt lat="44.40194466451044" lon="11.347259753872116"><ele>154.0</ele><time>2026-04-07T10:09:00Z</time></trkpt><trkpt lat="44.4022052747918" lon="11.347439341603492"><ele>154.0</ele><time>2026-04-07T10:09:01Z</time></trkpt><trkpt lat="44.402440572758906" lon="11.347609373356878"><ele>154.0</ele><time>2026-04-07T10:09:02Z</time></trkpt><trkpt lat="44.40266394635706" lon="11.347764435904617"><ele>154.0</ele><time>2026-04-07T10:09:03Z</time></trkpt><trkpt lat="44.402866330699865" lon="11.347897294333954"><ele>154.0</ele><time>2026-04-07T10:09:04Z</time></trkpt><trkpt lat="44.40305720580362" lon="11.348003621720183"><ele>154.0</ele><time>2026-04-07T10:09:05Z</time></trkpt><trkpt lat="44.40325505978935" lon="11.348079168300035"><ele>151.33333333333334</ele><time>2026-04-07T10:09:06Z</time></trkpt><trkpt lat="44.403455547557236" lon="11.348115956204499"><ele>148.66666666666666</ele><time>2026-04-07T10:09:07Z</time></trkpt><trkpt lat="44.403653403600444" lon="11.348115543100352"><ele>146.0</ele><time>2026-04-07T10:09:08Z</time></trkpt><trkpt lat="44.40382096782885" lon="11.348081429116906"><ele>146.33333333333331</ele><time>2026-04-07T10:09:09Z</time></trkpt><trkpt lat="44.4039757124643" lon="11.348024097894056"><ele>146.66666666666666</ele><time>2026-04-07T10:09:10Z</time></trkpt><trkpt lat="44.404125452907216" lon="11.347957999930943"><ele>147.0</ele><time>2026-04-07T10:09:11Z</time></trkpt><trkpt lat="44.404257295317784" lon="11.347791273328038"><ele>147.0</ele><time>2026-04-07T10:09:12Z</time></trkpt><trkpt lat="44.404385776371086" lon="11.34760789160283"><ele>147.0</ele><time>2026-04-07T10:09:13Z</time></trkpt><trkpt lat="44.40452973146226" lon="11.347462652405525"><ele>147.0</ele><time>2026-04-07T10:09:14Z</time></trkpt><trkpt lat="44.404677073038684" lon="11.347321713265556"><ele>143.33333333333334</ele><time>2026-04-07T10:09:15Z</time></trkpt><trkpt lat="44.40483234051603" lon="11.347182438765673"><ele>139.66666666666669</ele><time>2026-04-07T10:09:16Z</time></trkpt><trkpt lat="44.40498873336289" lon="11.34702312597765"><ele>136.0</ele><time>2026-04-07T10:09:17Z</time></trkpt><trkpt lat="44.40514901495491" lon="11.34688669580225"><ele>136.0</ele><time>2026-04-07T10:09:18Z</time></trkpt><trkpt lat="44.40530602853526" lon="11.346747663355746"><ele>136.0</ele><time>2026-04-07T10:09:19Z</time></trkpt><trkpt lat="44.4054582628226" lon="11.34661715869065"><ele>136.0</ele><time>2026-04-07T10:09:20Z</time></trkpt><trkpt lat="44.405617041989224" lon="11.34647194407172"><ele>135.66666666666669</ele><time>2026-04-07T10:09:21Z</time></trkpt><trkpt lat="44.405773895018406" lon="11.346336262617442"><ele>135.33333333333334</ele><time>2026-04-07T10:09:22Z</time></trkpt><trkpt lat="44.40593606006819" lon="11.346201707940198"><ele>135.0</ele><time>2026-04-07T10:09:23Z</time></trkpt><trkpt lat="44.40608824619404" lon="11.346070435164384"><ele>135.0</ele><time>2026-04-07T10:09:24Z</time></trkpt><trkpt lat="44.40624316567412" lon="11.345940245057529"><ele>135.0</ele><time>2026-04-07T10:09:25Z</time></trkpt><trkpt lat="44.40639676632347" lon="11.345810252388281"><ele>135.0</ele><time>2026-04-07T10:09:26Z</time></trkpt><trkpt lat="44.40653382414269" lon="11.345644364528784"><ele>133.66666666666666</ele><time>2026-04-07T10:09:27Z</time></trkpt><trkpt lat="44.40667317086489" lon="11.34550350156928"><ele>132.33333333333331</ele><time>2026-04-07T10:09:28Z</time></trkpt><trkpt lat="44.40680553920969" lon="11.345377368615493"><ele>131.0</ele><time>2026-04-07T10:09:29Z</time></trkpt><trkpt lat="44.40693421802125" lon="11.345282646881156"><ele>131.0</ele><time>2026-04-07T10:09:30Z</time></trkpt><trkpt lat="44.40707647995445" lon="11.345276473464443"><ele>131.0</ele><time>2026-04-07T10:09:31Z</time></trkpt><trkpt lat="44.40721355854142" lon="11.345294780878866"><ele>131.0</ele><time>2026-04-07T10:09:32Z</time></trkpt><trkpt lat="44.40735639200131" lon="11.34535275407613"><ele>131.0</ele><time>2026-04-07T10:09:33Z</time></trkpt><trkpt lat="44.40750777897652" lon="11.345413976302545"><ele>131.33333333333331</ele><time>2026-04-07T10:09:34Z</time></trkpt><trkpt lat="44.407655151268514" lon="11.345487755814165"><ele>131.66666666666666</ele><time>2026-04-07T10:09:35Z</time></trkpt><trkpt lat="44.40780668501657" lon="11.345562905172875"><ele>132.0</ele><time>2026-04-07T10:09:36Z</time></trkpt><trkpt lat="44.40796245358038" lon="11.345635245898674"><ele>131.33333333333334</ele><time>2026-04-07T10:09:37Z</time></trkpt><trkpt lat="44.40811454404914" lon="11.345715696767458"><ele>130.66666666666669</ele><time>2026-04-07T10:09:38Z</time></trkpt><trkpt lat="44.40826704550796" lon="11.345810790950862"><ele>130.0</ele><time>2026-04-07T10:09:39Z</time></trkpt><trkpt lat="44.40839707765454" lon="11.345926019890687"><ele>130.0</ele><time>2026-04-07T10:09:40Z</time></trkpt><trkpt lat="44.408526204847206" lon="11.345989659979361"><ele>130.0</ele><time>2026-04-07T10:09:41Z</time></trkpt><trkpt lat="44.40861377294682" lon="11.346154334243536"><ele>130.0</ele><time>2026-04-07T10:09:42Z</time></trkpt><trkpt lat="44.40870837077427" lon="11.346245664049242"><ele>130.0</ele><time>2026-04-07T10:09:43Z</time></trkpt><trkpt lat="44.408785769017626" lon="11.346330473900522"><ele>129.83333333333334</ele><time>2026-04-07T10:09:44Z</time></trkpt><trkpt lat="44.40885342476956" lon="11.34638007212735"><ele>129.66666666666669</ele><time>2026-04-07T10:09:45Z</time></trkpt><trkpt lat="44.40891914370511" lon="11.346367426116517"><ele>129.5</ele><time>2026-04-07T10:09:46Z</time></trkpt><trkpt lat="44.40896752452555" lon="11.346301025225195"><ele>129.33333333333334</ele><time>2026-04-07T10:09:47Z</time></trkpt><trkpt lat="44.4090067367606" lon="11.346203331273923"><ele>129.16666666666666</ele><time>2026-04-07T10:09:48Z</time></trkpt><trkpt lat="44.40905882681343" lon="11.34607892618223"><ele>129.0</ele><time>2026-04-07T10:09:49Z</time></trkpt><trkpt lat="44.409139778265484" lon="11.345934096757963"><ele>129.0</ele><time>2026-04-07T10:09:50Z</time></trkpt><trkpt lat="44.4092213483496" lon="11.345776985075103"><ele>129.0</ele><time>2026-04-07T10:09:51Z</time></trkpt><trkpt lat="44.40928716231857" lon="11.345614335806834"><ele>129.0</ele><time>2026-04-07T10:09:52Z</time></trkpt><trkpt lat="44.409352101707775" lon="11.345437301693034"><ele>129.0</ele><time>2026-04-07T10:09:53Z</time></trkpt><trkpt lat="44.409422004725464" lon="11.345249097932241"><ele>129.0</ele><time>2026-04-07T10:09:54Z</time></trkpt><trkpt lat="44.40949469111134" lon="11.345054524432344"><ele>129.0</ele><time>2026-04-07T10:09:55Z</time></trkpt><trkpt lat="44.409560719046965" lon="11.344871429814287"><ele>129.0</ele><time>2026-04-07T10:09:56Z</time></trkpt><trkpt lat="44.409619967244545" lon="11.344709735690506"><ele>129.0</ele><time>2026-04-07T10:09:57Z</time></trkpt><trkpt lat="44.409676623569034" lon="11.344564662790427"><ele>129.0</ele><time>2026-04-07T10:09:58Z</time></trkpt><trkpt lat="44.40972433755764" lon="11.344438243099088"><ele>129.0</ele><time>2026-04-07T10:09:59Z</time></trkpt><trkpt lat="44.409772864556814" lon="11.344310214224768"><ele>129.0</ele><time>2026-04-07T10:10:00Z</time></trkpt><trkpt lat="44.40981567010698" lon="11.344195964630872"><ele>129.0</ele><time>2026-04-07T10:10:01Z</time></trkpt><trkpt lat="44.40985299078991" lon="11.34410986240301"><ele>129.0</ele><time>2026-04-07T10:10:02Z</time></trkpt><trkpt lat="44.40995666664912" lon="11.344033846486576"><ele>129.0</ele><time>2026-04-07T10:10:04Z</time></trkpt><trkpt lat="44.410022513606904" lon="11.344053904332787"><ele>129.0</ele><time>2026-04-07T10:10:05Z</time></trkpt><trkpt lat="44.410100857931404" lon="11.344106650955002"><ele>129.0</ele><time>2026-04-07T10:10:06Z</time></trkpt><trkpt lat="44.41018796367861" lon="11.34417342799903"><ele>129.0</ele><time>2026-04-07T10:10:07Z</time></trkpt><trkpt lat="44.41028445509324" lon="11.344230558414534"><ele>129.0</ele><time>2026-04-07T10:10:08Z</time></trkpt><trkpt lat="44.410377655866846" lon="11.344279081196035"><ele>129.0</ele><time>2026-04-07T10:10:09Z</time></trkpt><trkpt lat="44.41045228079916" lon="11.344321351357452"><ele>129.0</ele><time>2026-04-07T10:10:10Z</time></trkpt><trkpt lat="44.410516656745116" lon="11.344363100704706"><ele>129.0</ele><time>2026-04-07T10:10:11Z</time></trkpt><trkpt lat="44.410586887024024" lon="11.344407195056988"><ele>129.0</ele><time>2026-04-07T10:10:12Z</time></trkpt><trkpt lat="44.41067050017493" lon="11.34446042215552"><ele>129.0</ele><time>2026-04-07T10:10:13Z</time></trkpt><trkpt lat="44.410872815470974" lon="11.34459505372825"><ele>129.0</ele><time>2026-04-07T10:10:15Z</time></trkpt><trkpt lat="44.41098869707621" lon="11.344673812030083"><ele>129.0</ele><time>2026-04-07T10:10:16Z</time></trkpt><trkpt lat="44.41111766096198" lon="11.344759746045778"><ele>129.0</ele><time>2026-04-07T10:10:17Z</time></trkpt><trkpt lat="44.41123898352427" lon="11.344844953071357"><ele>129.0</ele><time>2026-04-07T10:10:18Z</time></trkpt><trkpt lat="44.41135229934589" lon="11.344920673169318"><ele>128.25</ele><time>2026-04-07T10:10:19Z</time></trkpt><trkpt lat="44.41146724799417" lon="11.345002515343515"><ele>127.5</ele><time>2026-04-07T10:10:20Z</time></trkpt><trkpt lat="44.41159847405387" lon="11.345093214352366"><ele>126.75</ele><time>2026-04-07T10:10:21Z</time></trkpt><trkpt lat="44.41173962545775" lon="11.34518997945245"><ele>126.0</ele><time>2026-04-07T10:10:22Z</time></trkpt><trkpt lat="44.41189049960319" lon="11.345294706670925"><ele>126.0</ele><time>2026-04-07T10:10:23Z</time></trkpt><trkpt lat="44.41205141205112" lon="11.34539801927691"><ele>126.0</ele><time>2026-04-07T10:10:24Z</time></trkpt><trkpt lat="44.412210337604556" lon="11.345485595045645"><ele>126.0</ele><time>2026-04-07T10:10:25Z</time></trkpt><trkpt lat="44.41238243366808" lon="11.345565853435799"><ele>126.66666666666666</ele><time>2026-04-07T10:10:26Z</time></trkpt><trkpt lat="44.412564705218045" lon="11.34563779221176"><ele>127.33333333333333</ele><time>2026-04-07T10:10:27Z</time></trkpt><trkpt lat="44.41274622580829" lon="11.345699854387606"><ele>128.0</ele><time>2026-04-07T10:10:28Z</time></trkpt><trkpt lat="44.412935856842644" lon="11.345755664667847"><ele>128.0</ele><time>2026-04-07T10:10:29Z</time></trkpt><trkpt lat="44.4131317276533" lon="11.345799961336914"><ele>128.0</ele><time>2026-04-07T10:10:30Z</time></trkpt><trkpt lat="44.41333594841492" lon="11.345834673260796"><ele>128.0</ele><time>2026-04-07T10:10:31Z</time></trkpt><trkpt lat="44.41354720658434" lon="11.34585563208879"><ele>128.0</ele><time>2026-04-07T10:10:32Z</time></trkpt><trkpt lat="44.413755766748814" lon="11.345856969290761"><ele>128.0</ele><time>2026-04-07T10:10:33Z</time></trkpt><trkpt lat="44.41395091287917" lon="11.345850900345882"><ele>128.0</ele><time>2026-04-07T10:10:34Z</time></trkpt><trkpt lat="44.414140805040525" lon="11.34583772601216"><ele>127.66666666666666</ele><time>2026-04-07T10:10:35Z</time></trkpt><trkpt lat="44.41433861912424" lon="11.345817175161852"><ele>127.33333333333334</ele><time>2026-04-07T10:10:36Z</time></trkpt><trkpt lat="44.41454366505723" lon="11.345792745823678"><ele>127.0</ele><time>2026-04-07T10:10:37Z</time></trkpt><trkpt lat="44.414741459054405" lon="11.345771212492702"><ele>126.33333333333334</ele><time>2026-04-07T10:10:38Z</time></trkpt><trkpt lat="44.41494658678563" lon="11.345750024867607"><ele>125.66666666666666</ele><time>2026-04-07T10:10:39Z</time></trkpt><trkpt lat="44.41515871518576" lon="11.345726166276542"><ele>125.0</ele><time>2026-04-07T10:10:40Z</time></trkpt><trkpt lat="44.415375547560195" lon="11.345698804624943"><ele>123.5</ele><time>2026-04-07T10:10:41Z</time></trkpt><trkpt lat="44.41559875288229" lon="11.345670001088447"><ele>122.0</ele><time>2026-04-07T10:10:42Z</time></trkpt><trkpt lat="44.41582776101566" lon="11.345641706103086"><ele>122.0</ele><time>2026-04-07T10:10:43Z</time></trkpt><trkpt lat="44.41605938302656" lon="11.34561675027067"><ele>122.0</ele><time>2026-04-07T10:10:44Z</time></trkpt><trkpt lat="44.41629136721796" lon="11.34559868092487"><ele>122.0</ele><time>2026-04-07T10:10:45Z</time></trkpt><trkpt lat="44.41652156287355" lon="11.345583306664484"><ele>122.0</ele><time>2026-04-07T10:10:46Z</time></trkpt><trkpt lat="44.416748562603885" lon="11.345575229745364"><ele>122.0</ele><time>2026-04-07T10:10:47Z</time></trkpt><trkpt lat="44.41697252620263" lon="11.345564859037157"><ele>122.0</ele><time>2026-04-07T10:10:48Z</time></trkpt><trkpt lat="44.417183631046534" lon="11.345552266939988"><ele>122.0</ele><time>2026-04-07T10:10:49Z</time></trkpt><trkpt lat="44.41738418398987" lon="11.345542164007103"><ele>122.0</ele><time>2026-04-07T10:10:50Z</time></trkpt><trkpt lat="44.41758445352086" lon="11.345527568114365"><ele>122.0</ele><time>2026-04-07T10:10:51Z</time></trkpt><trkpt lat="44.4177880485932" lon="11.345511893597521"><ele>122.0</ele><time>2026-04-07T10:10:52Z</time></trkpt><trkpt lat="44.41799389381949" lon="11.345494124230347"><ele>122.0</ele><time>2026-04-07T10:10:53Z</time></trkpt><trkpt lat="44.418205610469634" lon="11.34547137680696"><ele>122.0</ele><time>2026-04-07T10:10:54Z</time></trkpt><trkpt lat="44.4184188067816" lon="11.345445229553038"><ele>122.0</ele><time>2026-04-07T10:10:55Z</time></trkpt><trkpt lat="44.418634958097776" lon="11.345416255404128"><ele>123.66666666666666</ele><time>2026-04-07T10:10:56Z</time></trkpt><trkpt lat="44.41885666092305" lon="11.345387647771851"><ele>125.33333333333334</ele><time>2026-04-07T10:10:57Z</time></trkpt><trkpt lat="44.41908001585466" lon="11.34535770967504"><ele>127.0</ele><time>2026-04-07T10:10:58Z</time></trkpt><trkpt lat="44.41930684608523" lon="11.345328269416793"><ele>127.0</ele><time>2026-04-07T10:10:59Z</time></trkpt><trkpt lat="44.41953429395195" lon="11.345297754340274"><ele>127.0</ele><time>2026-04-07T10:11:00Z</time></trkpt><trkpt lat="44.41976350646721" lon="11.345267418355114"><ele>125.5</ele><time>2026-04-07T10:11:01Z</time></trkpt><trkpt lat="44.4199934066225" lon="11.345236954759004"><ele>124.0</ele><time>2026-04-07T10:11:02Z</time></trkpt><trkpt lat="44.420223884163406" lon="11.345206686837466"><ele>124.0</ele><time>2026-04-07T10:11:03Z</time></trkpt><trkpt lat="44.42045665578234" lon="11.345176405192001"><ele>124.0</ele><time>2026-04-07T10:11:04Z</time></trkpt><trkpt lat="44.42069291658819" lon="11.345144024430597"><ele>119.5</ele><time>2026-04-07T10:11:05Z</time></trkpt><trkpt lat="44.42092709382923" lon="11.345113141352225"><ele>115.0</ele><time>2026-04-07T10:11:06Z</time></trkpt><trkpt lat="44.42116029193665" lon="11.34508126220057"><ele>116.5</ele><time>2026-04-07T10:11:07Z</time></trkpt><trkpt lat="44.4213948475361" lon="11.345057887091377"><ele>118.0</ele><time>2026-04-07T10:11:08Z</time></trkpt><trkpt lat="44.42162714516772" lon="11.345036028470789"><ele>118.0</ele><time>2026-04-07T10:11:09Z</time></trkpt><trkpt lat="44.421862422625736" lon="11.34502334964235"><ele>118.0</ele><time>2026-04-07T10:11:10Z</time></trkpt><trkpt lat="44.42209768806983" lon="11.34502574894814"><ele>117.0</ele><time>2026-04-07T10:11:11Z</time></trkpt><trkpt lat="44.42233306285889" lon="11.345045687990638"><ele>116.0</ele><time>2026-04-07T10:11:12Z</time></trkpt><trkpt lat="44.42256832802752" lon="11.345080306801174"><ele>116.0</ele><time>2026-04-07T10:11:13Z</time></trkpt><trkpt lat="44.422807702446875" lon="11.345132246169086"><ele>116.0</ele><time>2026-04-07T10:11:14Z</time></trkpt><trkpt lat="44.42304436307367" lon="11.345199191597297"><ele>119.0</ele><time>2026-04-07T10:11:15Z</time></trkpt><trkpt lat="44.42328281112736" lon="11.345282113058873"><ele>122.0</ele><time>2026-04-07T10:11:16Z</time></trkpt><trkpt lat="44.42352013076655" lon="11.345379291044406"><ele>122.0</ele><time>2026-04-07T10:11:17Z</time></trkpt><trkpt lat="44.42375509026008" lon="11.345490977574945"><ele>122.0</ele><time>2026-04-07T10:11:18Z</time></trkpt><trkpt lat="44.42398944802909" lon="11.345617694465131"><ele>118.0</ele><time>2026-04-07T10:11:19Z</time></trkpt><trkpt lat="44.42421723431474" lon="11.345759962840793"><ele>114.0</ele><time>2026-04-07T10:11:20Z</time></trkpt><trkpt lat="44.424431493321386" lon="11.345914566240872"><ele>114.0</ele><time>2026-04-07T10:11:21Z</time></trkpt><trkpt lat="44.424630244701916" lon="11.346074605411367"><ele>114.0</ele><time>2026-04-07T10:11:22Z</time></trkpt><trkpt lat="44.42481514664823" lon="11.346233624490127"><ele>114.0</ele><time>2026-04-07T10:11:23Z</time></trkpt><trkpt lat="44.42498573695141" lon="11.346393816562031"><ele>113.66666666666666</ele><time>2026-04-07T10:11:24Z</time></trkpt><trkpt lat="44.42514101824255" lon="11.346557693744247"><ele>113.33333333333333</ele><time>2026-04-07T10:11:25Z</time></trkpt><trkpt lat="44.42528852331503" lon="11.346730624292535"><ele>113.0</ele><time>2026-04-07T10:11:26Z</time></trkpt><trkpt lat="44.42543313457405" lon="11.346908216670112"><ele>113.0</ele><time>2026-04-07T10:11:27Z</time></trkpt><trkpt lat="44.42557447258924" lon="11.347091294912644"><ele>113.0</ele><time>2026-04-07T10:11:28Z</time></trkpt><trkpt lat="44.425707890658536" lon="11.347270582523663"><ele>113.0</ele><time>2026-04-07T10:11:29Z</time></trkpt><trkpt lat="44.42582996481945" lon="11.347445758143396"><ele>113.0</ele><time>2026-04-07T10:11:30Z</time></trkpt><trkpt lat="44.425948469551926" lon="11.347615336727017"><ele>113.0</ele><time>2026-04-07T10:11:31Z</time></trkpt><trkpt lat="44.42606579967821" lon="11.347780948527"><ele>113.0</ele><time>2026-04-07T10:11:32Z</time></trkpt><trkpt lat="44.42617769836055" lon="11.347935082408599"><ele>112.66666666666666</ele><time>2026-04-07T10:11:33Z</time></trkpt><trkpt lat="44.426285794505155" lon="11.348081534083247"><ele>112.33333333333334</ele><time>2026-04-07T10:11:34Z</time></trkpt><trkpt lat="44.42640290957742" lon="11.348227806210996"><ele>112.0</ele><time>2026-04-07T10:11:35Z</time></trkpt><trkpt lat="44.426535377307694" lon="11.348374661537441"><ele>112.0</ele><time>2026-04-07T10:11:36Z</time></trkpt><trkpt lat="44.42667994289434" lon="11.34850774476094"><ele>112.0</ele><time>2026-04-07T10:11:37Z</time></trkpt><trkpt lat="44.42683522010916" lon="11.348627222641747"><ele>112.0</ele><time>2026-04-07T10:11:38Z</time></trkpt><trkpt lat="44.427000326506814" lon="11.348738334816757"><ele>112.0</ele><time>2026-04-07T10:11:39Z</time></trkpt><trkpt lat="44.4271775793562" lon="11.348846247658429"><ele>112.0</ele><time>2026-04-07T10:11:40Z</time></trkpt><trkpt lat="44.427373509097905" lon="11.348946981508673"><ele>112.0</ele><time>2026-04-07T10:11:41Z</time></trkpt><trkpt lat="44.427583768023595" lon="11.349041720204903"><ele>111.5</ele><time>2026-04-07T10:11:42Z</time></trkpt><trkpt lat="44.42780192279452" lon="11.349137147274368"><ele>111.0</ele><time>2026-04-07T10:11:43Z</time></trkpt><trkpt lat="44.42802076737619" lon="11.349232581213192"><ele>110.0</ele><time>2026-04-07T10:11:44Z</time></trkpt><trkpt lat="44.428240681556986" lon="11.349330838103416"><ele>109.0</ele><time>2026-04-07T10:11:45Z</time></trkpt><trkpt lat="44.42846193962111" lon="11.349429932712411"><ele>109.0</ele><time>2026-04-07T10:11:46Z</time></trkpt><trkpt lat="44.428673304989076" lon="11.34952662404721"><ele>109.0</ele><time>2026-04-07T10:11:47Z</time></trkpt><trkpt lat="44.42888198626733" lon="11.349621574018048"><ele>109.0</ele><time>2026-04-07T10:11:48Z</time></trkpt><trkpt lat="44.42908398488061" lon="11.349712989429134"><ele>109.0</ele><time>2026-04-07T10:11:49Z</time></trkpt><trkpt lat="44.429283248625616" lon="11.34980612297758"><ele>109.0</ele><time>2026-04-07T10:11:50Z</time></trkpt><trkpt lat="44.429480279382034" lon="11.349899666330433"><ele>109.0</ele><time>2026-04-07T10:11:51Z</time></trkpt><trkpt lat="44.429677879424624" lon="11.34999411943813"><ele>109.0</ele><time>2026-04-07T10:11:52Z</time></trkpt><trkpt lat="44.4298716563771" lon="11.350086222263876"><ele>109.0</ele><time>2026-04-07T10:11:53Z</time></trkpt><trkpt lat="44.43006834622063" lon="11.350178875917855"><ele>109.0</ele><time>2026-04-07T10:11:54Z</time></trkpt><trkpt lat="44.4302674490333" lon="11.35027320018301"><ele>109.0</ele><time>2026-04-07T10:11:55Z</time></trkpt><trkpt lat="44.430467715326444" lon="11.350364619052781"><ele>109.0</ele><time>2026-04-07T10:11:56Z</time></trkpt><trkpt lat="44.430670499705094" lon="11.350453754643842"><ele>109.0</ele><time>2026-04-07T10:11:57Z</time></trkpt><trkpt lat="44.43087388664877" lon="11.350541137766585"><ele>109.0</ele><time>2026-04-07T10:11:58Z</time></trkpt><trkpt lat="44.431076434459285" lon="11.350627468751744"><ele>109.0</ele><time>2026-04-07T10:11:59Z</time></trkpt><trkpt lat="44.43128166653767" lon="11.350715817583481"><ele>109.0</ele><time>2026-04-07T10:12:00Z</time></trkpt><trkpt lat="44.43148471496256" lon="11.350807809603772"><ele>110.0</ele><time>2026-04-07T10:12:01Z</time></trkpt><trkpt lat="44.43168828804649" lon="11.350902467942902"><ele>111.0</ele><time>2026-04-07T10:12:02Z</time></trkpt><trkpt lat="44.43189127317043" lon="11.351000236096045"><ele>112.0</ele><time>2026-04-07T10:12:03Z</time></trkpt><trkpt lat="44.43209709644715" lon="11.35109944129175"><ele>110.33333333333334</ele><time>2026-04-07T10:12:04Z</time></trkpt><trkpt lat="44.432301630104035" lon="11.351198640580778"><ele>108.66666666666666</ele><time>2026-04-07T10:12:05Z</time></trkpt><trkpt lat="44.43250714270537" lon="11.35129767309119"><ele>107.0</ele><time>2026-04-07T10:12:06Z</time></trkpt><trkpt lat="44.43270968513059" lon="11.351394692878502"><ele>107.0</ele><time>2026-04-07T10:12:07Z</time></trkpt><trkpt lat="44.432908471131675" lon="11.351485558558089"><ele>107.0</ele><time>2026-04-07T10:12:08Z</time></trkpt><trkpt lat="44.43310663719168" lon="11.351564900344775"><ele>107.0</ele><time>2026-04-07T10:12:09Z</time></trkpt><trkpt lat="44.43329794487444" lon="11.351618492572639"><ele>107.0</ele><time>2026-04-07T10:12:10Z</time></trkpt><trkpt lat="44.43348555184556" lon="11.351645017538546"><ele>107.0</ele><time>2026-04-07T10:12:11Z</time></trkpt><trkpt lat="44.4336769888508" lon="11.351659195316715"><ele>107.0</ele><time>2026-04-07T10:12:12Z</time></trkpt><trkpt lat="44.433871653745875" lon="11.35167115380748"><ele>106.66666666666666</ele><time>2026-04-07T10:12:13Z</time></trkpt><trkpt lat="44.43405213690051" lon="11.351685190028597"><ele>106.33333333333334</ele><time>2026-04-07T10:12:14Z</time></trkpt><trkpt lat="44.43422984787311" lon="11.351703067273014"><ele>106.0</ele><time>2026-04-07T10:12:15Z</time></trkpt><trkpt lat="44.43439788644021" lon="11.351719724076881"><ele>106.0</ele><time>2026-04-07T10:12:16Z</time></trkpt><trkpt lat="44.43456537455268" lon="11.351734493823177"><ele>106.0</ele><time>2026-04-07T10:12:17Z</time></trkpt><trkpt lat="44.43473887204876" lon="11.35174883374953"><ele>106.0</ele><time>2026-04-07T10:12:18Z</time></trkpt><trkpt lat="44.43492233555515" lon="11.351763671934142"><ele>106.33333333333334</ele><time>2026-04-07T10:12:19Z</time></trkpt><trkpt lat="44.43510674069093" lon="11.351785000657866"><ele>106.66666666666666</ele><time>2026-04-07T10:12:20Z</time></trkpt><trkpt lat="44.43529322697615" lon="11.35180208145531"><ele>107.0</ele><time>2026-04-07T10:12:21Z</time></trkpt><trkpt lat="44.4354695027783" lon="11.351819540091828"><ele>106.66666666666666</ele><time>2026-04-07T10:12:22Z</time></trkpt><trkpt lat="44.43563226571254" lon="11.351840849369152"><ele>106.33333333333334</ele><time>2026-04-07T10:12:23Z</time></trkpt><trkpt lat="44.435788958378915" lon="11.35186043167976"><ele>106.0</ele><time>2026-04-07T10:12:24Z</time></trkpt><trkpt lat="44.435944279310014" lon="11.3518749439908"><ele>106.0</ele><time>2026-04-07T10:12:25Z</time></trkpt><trkpt lat="44.43610656307512" lon="11.35188755811626"><ele>106.0</ele><time>2026-04-07T10:12:26Z</time></trkpt><trkpt lat="44.43625985209372" lon="11.351904398850992"><ele>106.0</ele><time>2026-04-07T10:12:27Z</time></trkpt><trkpt lat="44.436410069660994" lon="11.351919823738179"><ele>105.0</ele><time>2026-04-07T10:12:28Z</time></trkpt><trkpt lat="44.43656079045857" lon="11.351937771736349"><ele>104.0</ele><time>2026-04-07T10:12:29Z</time></trkpt><trkpt lat="44.436711072094425" lon="11.351953147676184"><ele>103.0</ele><time>2026-04-07T10:12:30Z</time></trkpt><trkpt lat="44.436857719790716" lon="11.351965857548233"><ele>102.0</ele><time>2026-04-07T10:12:31Z</time></trkpt><trkpt lat="44.43700097086095" lon="11.351978220112565"><ele>101.25</ele><time>2026-04-07T10:12:32Z</time></trkpt><trkpt lat="44.437144330139056" lon="11.351991046704015"><ele>100.5</ele><time>2026-04-07T10:12:33Z</time></trkpt><trkpt lat="44.43729335982425" lon="11.352004007913315"><ele>99.75</ele><time>2026-04-07T10:12:34Z</time></trkpt><trkpt lat="44.43744844945042" lon="11.352017469627835"><ele>99.0</ele><time>2026-04-07T10:12:35Z</time></trkpt><trkpt lat="44.43760846674977" lon="11.352034813473812"><ele>99.0</ele><time>2026-04-07T10:12:36Z</time></trkpt><trkpt lat="44.43777387241245" lon="11.352050834551886"><ele>99.0</ele><time>2026-04-07T10:12:37Z</time></trkpt><trkpt lat="44.43793092758117" lon="11.352065304867077"><ele>99.0</ele><time>2026-04-07T10:12:38Z</time></trkpt><trkpt lat="44.43808196262528" lon="11.352079731896795"><ele>99.0</ele><time>2026-04-07T10:12:39Z</time></trkpt><trkpt lat="44.43823316181195" lon="11.352088977340202"><ele>99.0</ele><time>2026-04-07T10:12:40Z</time></trkpt><trkpt lat="44.43836980907404" lon="11.35209328249889"><ele>99.0</ele><time>2026-04-07T10:12:41Z</time></trkpt><trkpt lat="44.438499581056845" lon="11.352097504245373"><ele>99.0</ele><time>2026-04-07T10:12:42Z</time></trkpt><trkpt lat="44.43880203125942" lon="11.352118910968013"><ele>99.75</ele><time>2026-04-07T10:12:44Z</time></trkpt><trkpt lat="44.43893757535916" lon="11.352118797957177"><ele>100.5</ele><time>2026-04-07T10:12:45Z</time></trkpt><trkpt lat="44.43906855954775" lon="11.352120999375792"><ele>101.25</ele><time>2026-04-07T10:12:46Z</time></trkpt><trkpt lat="44.43919435463307" lon="11.352126814733959"><ele>102.0</ele><time>2026-04-07T10:12:47Z</time></trkpt><trkpt lat="44.43932156286826" lon="11.352137304668322"><ele>102.0</ele><time>2026-04-07T10:12:48Z</time></trkpt><trkpt lat="44.43942725585833" lon="11.3521410188102"><ele>102.0</ele><time>2026-04-07T10:12:49Z</time></trkpt><trkpt lat="44.43952931678334" lon="11.352148400132519"><ele>102.0</ele><time>2026-04-07T10:12:51Z</time></trkpt><trkpt lat="44.439595648264266" lon="11.352155050668285"><ele>102.0</ele><time>2026-04-07T10:12:54Z</time></trkpt><trkpt lat="44.439676699350734" lon="11.352201175207945"><ele>102.0</ele><time>2026-04-07T10:12:57Z</time></trkpt><trkpt lat="44.43979155423801" lon="11.352311586867293"><ele>101.8</ele><time>2026-04-07T10:12:59Z</time></trkpt><trkpt lat="44.43984498099798" lon="11.352391563855754"><ele>101.6</ele><time>2026-04-07T10:13:00Z</time></trkpt><trkpt lat="44.43992286954683" lon="11.352434217540203"><ele>101.39999999999999</ele><time>2026-04-07T10:13:01Z</time></trkpt><trkpt lat="44.439939552291946" lon="11.352622291943346"><ele>101.19999999999999</ele><time>2026-04-07T10:13:02Z</time></trkpt><trkpt lat="44.43995986023448" lon="11.352786350620184"><ele>101.0</ele><time>2026-04-07T10:13:03Z</time></trkpt><trkpt lat="44.439970721785194" lon="11.352928740757378"><ele>100.6</ele><time>2026-04-07T10:13:04Z</time></trkpt><trkpt lat="44.439975612021726" lon="11.353080417354189"><ele>100.19999999999999</ele><time>2026-04-07T10:13:05Z</time></trkpt><trkpt lat="44.43999044498459" lon="11.353206085548749"><ele>99.80000000000001</ele><time>2026-04-07T10:13:06Z</time></trkpt><trkpt lat="44.44001342179653" lon="11.353339771967084"><ele>99.4</ele><time>2026-04-07T10:13:07Z</time></trkpt><trkpt lat="44.44002689740833" lon="11.353470725392983"><ele>99.0</ele><time>2026-04-07T10:13:08Z</time></trkpt><trkpt lat="44.44004390219582" lon="11.353586894349482"><ele>99.0</ele><time>2026-04-07T10:13:09Z</time></trkpt><trkpt lat="44.44005744151934" lon="11.353689390046634"><ele>99.0</ele><time>2026-04-07T10:13:10Z</time></trkpt><trkpt lat="44.44006824399292" lon="11.353784027418689"><ele>99.0</ele><time>2026-04-07T10:13:11Z</time></trkpt><trkpt lat="44.44005450025449" lon="11.353931137323451"><ele>99.0</ele><time>2026-04-07T10:13:13Z</time></trkpt><trkpt lat="44.43997194751592" lon="11.354053914344979"><ele>99.0</ele><time>2026-04-07T10:13:15Z</time></trkpt><trkpt lat="44.43992231028908" lon="11.354123015186753"><ele>99.0</ele><time>2026-04-07T10:13:16Z</time></trkpt><trkpt lat="44.439891010607006" lon="11.35420373164712"><ele>99.83333333333333</ele><time>2026-04-07T10:13:17Z</time></trkpt><trkpt lat="44.4399269775466" lon="11.354361837215144"><ele>100.66666666666666</ele><time>2026-04-07T10:13:19Z</time></trkpt><trkpt lat="44.43998279095693" lon="11.354407225302083"><ele>101.5</ele><time>2026-04-07T10:13:20Z</time></trkpt><trkpt lat="44.4400460171111" lon="11.354439905014388"><ele>102.33333333333333</ele><time>2026-04-07T10:13:21Z</time></trkpt><trkpt lat="44.440118320924995" lon="11.354375604840826"><ele>103.16666666666666</ele><time>2026-04-07T10:13:22Z</time></trkpt><trkpt lat="44.440183137587695" lon="11.3543098621497"><ele>104.0</ele><time>2026-04-07T10:13:23Z</time></trkpt><trkpt lat="44.44026323359013" lon="11.354241802922889"><ele>104.0</ele><time>2026-04-07T10:13:24Z</time></trkpt><trkpt lat="44.440344870127745" lon="11.354208562816337"><ele>104.0</ele><time>2026-04-07T10:13:25Z</time></trkpt><trkpt lat="44.44043667159232" lon="11.35419610514273"><ele>104.0</ele><time>2026-04-07T10:13:26Z</time></trkpt><trkpt lat="44.440536213214926" lon="11.354189957962191"><ele>104.0</ele><time>2026-04-07T10:13:27Z</time></trkpt><trkpt lat="44.44064344867876" lon="11.354175892349133"><ele>104.0</ele><time>2026-04-07T10:13:28Z</time></trkpt><trkpt lat="44.44075306172941" lon="11.354157514785829"><ele>104.2</ele><time>2026-04-07T10:13:29Z</time></trkpt><trkpt lat="44.44086232352252" lon="11.354140160557192"><ele>104.4</ele><time>2026-04-07T10:13:30Z</time></trkpt><trkpt lat="44.44097543652766" lon="11.354121563615397"><ele>104.6</ele><time>2026-04-07T10:13:31Z</time></trkpt><trkpt lat="44.441090301450245" lon="11.35410375220994"><ele>104.8</ele><time>2026-04-07T10:13:32Z</time></trkpt><trkpt lat="44.441198290863504" lon="11.354083743382974"><ele>105.0</ele><time>2026-04-07T10:13:33Z</time></trkpt><trkpt lat="44.44129991745621" lon="11.354065985347285"><ele>105.0</ele><time>2026-04-07T10:13:34Z</time></trkpt><trkpt lat="44.44140173807306" lon="11.35406450248923"><ele>105.0</ele><time>2026-04-07T10:13:35Z</time></trkpt><trkpt lat="44.44150509650761" lon="11.354091504882174"><ele>105.0</ele><time>2026-04-07T10:13:36Z</time></trkpt><trkpt lat="44.44160830255982" lon="11.354147301458214"><ele>105.0</ele><time>2026-04-07T10:13:37Z</time></trkpt><trkpt lat="44.44171832715846" lon="11.354214442316556"><ele>105.0</ele><time>2026-04-07T10:13:38Z</time></trkpt><trkpt lat="44.44182502496567" lon="11.354291094087293"><ele>105.0</ele><time>2026-04-07T10:13:39Z</time></trkpt><trkpt lat="44.44193087054799" lon="11.35436712538215"><ele>105.0</ele><time>2026-04-07T10:13:40Z</time></trkpt><trkpt lat="44.44204058581518" lon="11.354439894225864"><ele>105.0</ele><time>2026-04-07T10:13:41Z</time></trkpt><trkpt lat="44.44216198916038" lon="11.35451459550477"><ele>105.0</ele><time>2026-04-07T10:13:42Z</time></trkpt><trkpt lat="44.44227758972749" lon="11.354577391634892"><ele>104.8</ele><time>2026-04-07T10:13:43Z</time></trkpt><trkpt lat="44.44238352356105" lon="11.354632745634355"><ele>104.6</ele><time>2026-04-07T10:13:44Z</time></trkpt><trkpt lat="44.4424849885191" lon="11.35468890040469"><ele>104.4</ele><time>2026-04-07T10:13:45Z</time></trkpt><trkpt lat="44.44258559740592" lon="11.354761596941723"><ele>104.2</ele><time>2026-04-07T10:13:46Z</time></trkpt><trkpt lat="44.442682054656714" lon="11.354839548454464"><ele>104.0</ele><time>2026-04-07T10:13:47Z</time></trkpt><trkpt lat="44.44277253889114" lon="11.35492247259654"><ele>103.6</ele><time>2026-04-07T10:13:48Z</time></trkpt><trkpt lat="44.44285692109773" lon="11.35500493950821"><ele>103.2</ele><time>2026-04-07T10:13:49Z</time></trkpt><trkpt lat="44.442932801384224" lon="11.355083473224603"><ele>102.8</ele><time>2026-04-07T10:13:50Z</time></trkpt><trkpt lat="44.44301101673226" lon="11.355163394348903"><ele>102.39999999999999</ele><time>2026-04-07T10:13:51Z</time></trkpt><trkpt lat="44.44308576550654" lon="11.355246886741899"><ele>102.0</ele><time>2026-04-07T10:13:52Z</time></trkpt><trkpt lat="44.44315998440646" lon="11.355340352795478"><ele>102.0</ele><time>2026-04-07T10:13:53Z</time></trkpt><trkpt lat="44.44323049233482" lon="11.355438682991675"><ele>102.0</ele><time>2026-04-07T10:13:54Z</time></trkpt><trkpt lat="44.44329981965846" lon="11.355539270622582"><ele>102.0</ele><time>2026-04-07T10:13:55Z</time></trkpt><trkpt lat="44.443364997904254" lon="11.355642509416162"><ele>102.0</ele><time>2026-04-07T10:13:56Z</time></trkpt><trkpt lat="44.44343054300573" lon="11.355747988115388"><ele>102.0</ele><time>2026-04-07T10:13:57Z</time></trkpt><trkpt lat="44.443493023216256" lon="11.35585309616553"><ele>102.6</ele><time>2026-04-07T10:13:58Z</time></trkpt><trkpt lat="44.44355266267844" lon="11.355959078570585"><ele>103.19999999999999</ele><time>2026-04-07T10:13:59Z</time></trkpt><trkpt lat="44.443618238123754" lon="11.356067088453116"><ele>103.8</ele><time>2026-04-07T10:14:00Z</time></trkpt><trkpt lat="44.443673777206136" lon="11.356188066299406"><ele>104.4</ele><time>2026-04-07T10:14:01Z</time></trkpt><trkpt lat="44.44373289129393" lon="11.356310726693648"><ele>105.0</ele><time>2026-04-07T10:14:02Z</time></trkpt><trkpt lat="44.44378959354857" lon="11.356434510954147"><ele>104.4</ele><time>2026-04-07T10:14:03Z</time></trkpt><trkpt lat="44.44384327249701" lon="11.356555233790832"><ele>103.8</ele><time>2026-04-07T10:14:04Z</time></trkpt><trkpt lat="44.44389392088489" lon="11.356670513643028"><ele>103.19999999999999</ele><time>2026-04-07T10:14:04.999Z</time></trkpt><trkpt lat="44.443940886233484" lon="11.356780518513753"><ele>102.6</ele><time>2026-04-07T10:14:05.999Z</time></trkpt><trkpt lat="44.44398980217872" lon="11.35689206984054"><ele>102.0</ele><time>2026-04-07T10:14:06.999Z</time></trkpt><trkpt lat="44.44403864833823" lon="11.356999473537467"><ele>102.0</ele><time>2026-04-07T10:14:07.999Z</time></trkpt><trkpt lat="44.44408593690222" lon="11.357107135433564"><ele>102.0</ele><time>2026-04-07T10:14:08.999Z</time></trkpt><trkpt lat="44.44413201610493" lon="11.357215494613358"><ele>102.0</ele><time>2026-04-07T10:14:09.999Z</time></trkpt><trkpt lat="44.44417607297239" lon="11.357318735039966"><ele>102.0</ele><time>2026-04-07T10:14:10.999Z</time></trkpt><trkpt lat="44.44422346963015" lon="11.35742755651475"><ele>102.0</ele><time>2026-04-07T10:14:12Z</time></trkpt><trkpt lat="44.44426720308016" lon="11.357535844009133"><ele>102.0</ele><time>2026-04-07T10:14:13Z</time></trkpt><trkpt lat="44.44431194609623" lon="11.357647724004863"><ele>102.0</ele><time>2026-04-07T10:14:14Z</time></trkpt><trkpt lat="44.44435850619574" lon="11.357760088489826"><ele>102.0</ele><time>2026-04-07T10:14:15Z</time></trkpt><trkpt lat="44.444409384829235" lon="11.357870939616175"><ele>102.0</ele><time>2026-04-07T10:14:16Z</time></trkpt><trkpt lat="44.44446937181529" lon="11.357977739322235"><ele>102.0</ele><time>2026-04-07T10:14:17Z</time></trkpt><trkpt lat="44.44453697006745" lon="11.358079723618244"><ele>102.0</ele><time>2026-04-07T10:14:18Z</time></trkpt><trkpt lat="44.44461226692359" lon="11.358172197778481"><ele>101.6</ele><time>2026-04-07T10:14:19Z</time></trkpt><trkpt lat="44.44470257755721" lon="11.358249089250124"><ele>101.19999999999999</ele><time>2026-04-07T10:14:20Z</time></trkpt><trkpt lat="44.44479678474233" lon="11.358308502488695"><ele>100.8</ele><time>2026-04-07T10:14:21Z</time></trkpt><trkpt lat="44.44489270656101" lon="11.358345690765809"><ele>100.4</ele><time>2026-04-07T10:14:22Z</time></trkpt><trkpt lat="44.44498551514231" lon="11.35836583332612"><ele>100.0</ele><time>2026-04-07T10:14:23Z</time></trkpt><trkpt lat="44.445080608139826" lon="11.358374294338326"><ele>100.0</ele><time>2026-04-07T10:14:24Z</time></trkpt><trkpt lat="44.44517083125313" lon="11.358373157661752"><ele>100.0</ele><time>2026-04-07T10:14:25Z</time></trkpt><trkpt lat="44.44526096613702" lon="11.358379479901554"><ele>100.0</ele><time>2026-04-07T10:14:26Z</time></trkpt><trkpt lat="44.4453499833672" lon="11.358377134470414"><ele>100.0</ele><time>2026-04-07T10:14:27Z</time></trkpt><trkpt lat="44.445441516447985" lon="11.358372924753388"><ele>100.0</ele><time>2026-04-07T10:14:28Z</time></trkpt><trkpt lat="44.44554013383956" lon="11.358359426961009"><ele>99.25</ele><time>2026-04-07T10:14:29Z</time></trkpt><trkpt lat="44.44565263803749" lon="11.358335291593987"><ele>98.5</ele><time>2026-04-07T10:14:30Z</time></trkpt><trkpt lat="44.44577005718289" lon="11.35834006177419"><ele>97.75</ele><time>2026-04-07T10:14:31Z</time></trkpt><trkpt lat="44.44588664671348" lon="11.358319964441073"><ele>97.0</ele><time>2026-04-07T10:14:32Z</time></trkpt><trkpt lat="44.44598863572092" lon="11.358280911284812"><ele>97.0</ele><time>2026-04-07T10:14:33Z</time></trkpt><trkpt lat="44.44609115963088" lon="11.358274617841563"><ele>97.0</ele><time>2026-04-07T10:14:34Z</time></trkpt><trkpt lat="44.446182614887846" lon="11.358265278253995"><ele>97.0</ele><time>2026-04-07T10:14:35Z</time></trkpt><trkpt lat="44.44627905180307" lon="11.358247674030022"><ele>97.0</ele><time>2026-04-07T10:14:36Z</time></trkpt><trkpt lat="44.446379822506316" lon="11.35823280881451"><ele>97.0</ele><time>2026-04-07T10:14:37Z</time></trkpt><trkpt lat="44.44649348742723" lon="11.358226800376572"><ele>97.75</ele><time>2026-04-07T10:14:38Z</time></trkpt><trkpt lat="44.446618303793116" lon="11.358235498203731"><ele>98.5</ele><time>2026-04-07T10:14:39Z</time></trkpt><trkpt lat="44.4467429478574" lon="11.35829211381341"><ele>99.25</ele><time>2026-04-07T10:14:40Z</time></trkpt><trkpt lat="44.446873404146366" lon="11.358317630099668"><ele>100.0</ele><time>2026-04-07T10:14:41Z</time></trkpt><trkpt lat="44.44699104584441" lon="11.358388579936145"><ele>100.0</ele><time>2026-04-07T10:14:42Z</time></trkpt><trkpt lat="44.44710441232911" lon="11.358458630192533"><ele>100.0</ele><time>2026-04-07T10:14:43Z</time></trkpt><trkpt lat="44.44721306754528" lon="11.358512634436087"><ele>100.0</ele><time>2026-04-07T10:14:44Z</time></trkpt><trkpt lat="44.44731539299599" lon="11.358563161420696"><ele>100.0</ele><time>2026-04-07T10:14:45Z</time></trkpt><trkpt lat="44.44740191178526" lon="11.358606178459791"><ele>100.0</ele><time>2026-04-07T10:14:46Z</time></trkpt><trkpt lat="44.447489814539935" lon="11.358654605089573"><ele>99.8</ele><time>2026-04-07T10:14:47Z</time></trkpt><trkpt lat="44.4475867879896" lon="11.358706244084301"><ele>99.6</ele><time>2026-04-07T10:14:48Z</time></trkpt><trkpt lat="44.44768011544896" lon="11.358764697232006"><ele>99.4</ele><time>2026-04-07T10:14:49Z</time></trkpt><trkpt lat="44.44777651193763" lon="11.358826160184533"><ele>99.2</ele><time>2026-04-07T10:14:50Z</time></trkpt><trkpt lat="44.447862769220876" lon="11.35891192244846"><ele>99.0</ele><time>2026-04-07T10:14:51Z</time></trkpt><trkpt lat="44.447940240999856" lon="11.358999357140565"><ele>100.2</ele><time>2026-04-07T10:14:52Z</time></trkpt><trkpt lat="44.44801892347648" lon="11.359098920958715"><ele>101.4</ele><time>2026-04-07T10:14:53Z</time></trkpt><trkpt lat="44.44809771397626" lon="11.359200951731259"><ele>102.6</ele><time>2026-04-07T10:14:54Z</time></trkpt><trkpt lat="44.44817648712117" lon="11.359302637621932"><ele>103.8</ele><time>2026-04-07T10:14:55Z</time></trkpt><trkpt lat="44.44825690272769" lon="11.359403861388905"><ele>105.0</ele><time>2026-04-07T10:14:56Z</time></trkpt><trkpt lat="44.44833616870216" lon="11.359505438413393"><ele>105.0</ele><time>2026-04-07T10:14:57Z</time></trkpt><trkpt lat="44.44842382838589" lon="11.359609292528804"><ele>105.0</ele><time>2026-04-07T10:14:58Z</time></trkpt><trkpt lat="44.4484992681506" lon="11.359703588121834"><ele>105.0</ele><time>2026-04-07T10:14:59Z</time></trkpt><trkpt lat="44.448570580503485" lon="11.359786901777186"><ele>105.0</ele><time>2026-04-07T10:15:00Z</time></trkpt><trkpt lat="44.44864579010302" lon="11.359868198252531"><ele>105.0</ele><time>2026-04-07T10:15:01Z</time></trkpt><trkpt lat="44.44873489697036" lon="11.359958547334365"><ele>105.0</ele><time>2026-04-07T10:15:02Z</time></trkpt><trkpt lat="44.448829058648016" lon="11.360047438999281"><ele>105.0</ele><time>2026-04-07T10:15:03Z</time></trkpt><trkpt lat="44.44892395564441" lon="11.360134378814246"><ele>105.0</ele><time>2026-04-07T10:15:04Z</time></trkpt><trkpt lat="44.44902052776385" lon="11.360217945276338"><ele>105.0</ele><time>2026-04-07T10:15:05Z</time></trkpt><trkpt lat="44.44911109863318" lon="11.360301721821465"><ele>105.0</ele><time>2026-04-07T10:15:06Z</time></trkpt><trkpt lat="44.44919668337625" lon="11.360391301024752"><ele>105.0</ele><time>2026-04-07T10:15:07Z</time></trkpt><trkpt lat="44.44927635853514" lon="11.360484488353686"><ele>105.0</ele><time>2026-04-07T10:15:08Z</time></trkpt><trkpt lat="44.44934705538821" lon="11.360568579801784"><ele>105.0</ele><time>2026-04-07T10:15:09Z</time></trkpt><trkpt lat="44.44941789594353" lon="11.360661882314675"><ele>105.0</ele><time>2026-04-07T10:15:10Z</time></trkpt><trkpt lat="44.44949631392167" lon="11.360767578962902"><ele>105.0</ele><time>2026-04-07T10:15:11Z</time></trkpt><trkpt lat="44.449584714980816" lon="11.360876330581158"><ele>104.5</ele><time>2026-04-07T10:15:12Z</time></trkpt><trkpt lat="44.44967706180803" lon="11.360991463211068"><ele>104.0</ele><time>2026-04-07T10:15:13Z</time></trkpt><trkpt lat="44.44977282631901" lon="11.361096708489235"><ele>103.5</ele><time>2026-04-07T10:15:14Z</time></trkpt><trkpt lat="44.44987714640942" lon="11.361198514789184"><ele>103.0</ele><time>2026-04-07T10:15:15Z</time></trkpt><trkpt lat="44.44997959586301" lon="11.361289797000525"><ele>102.80000000000001</ele><time>2026-04-07T10:15:16Z</time></trkpt><trkpt lat="44.45007593591005" lon="11.361372417344674"><ele>102.6</ele><time>2026-04-07T10:15:17Z</time></trkpt><trkpt lat="44.45016623895303" lon="11.361451599948769"><ele>102.4</ele><time>2026-04-07T10:15:18Z</time></trkpt><trkpt lat="44.45026112542025" lon="11.361533617335652"><ele>102.19999999999999</ele><time>2026-04-07T10:15:19Z</time></trkpt><trkpt lat="44.45036117195677" lon="11.36161643233307"><ele>102.0</ele><time>2026-04-07T10:15:20Z</time></trkpt><trkpt lat="44.450459872452846" lon="11.361700126826735"><ele>101.5</ele><time>2026-04-07T10:15:21Z</time></trkpt><trkpt lat="44.45055834052036" lon="11.361789481568449"><ele>101.0</ele><time>2026-04-07T10:15:22Z</time></trkpt><trkpt lat="44.450654975865596" lon="11.361888239767604"><ele>100.5</ele><time>2026-04-07T10:15:23Z</time></trkpt><trkpt lat="44.45074293557437" lon="11.361993148608565"><ele>100.0</ele><time>2026-04-07T10:15:24Z</time></trkpt><trkpt lat="44.45082361861875" lon="11.362103267404908"><ele>100.0</ele><time>2026-04-07T10:15:25Z</time></trkpt><trkpt lat="44.4508911284233" lon="11.362216979851553"><ele>100.0</ele><time>2026-04-07T10:15:26Z</time></trkpt><trkpt lat="44.450964250305034" lon="11.362334235368934"><ele>100.0</ele><time>2026-04-07T10:15:27Z</time></trkpt><trkpt lat="44.45105070978287" lon="11.36245327845114"><ele>100.0</ele><time>2026-04-07T10:15:28Z</time></trkpt><trkpt lat="44.451143665345676" lon="11.362565189310676"><ele>100.0</ele><time>2026-04-07T10:15:29Z</time></trkpt><trkpt lat="44.451246113364824" lon="11.36267267404664"><ele>100.0</ele><time>2026-04-07T10:15:30Z</time></trkpt><trkpt lat="44.451356210948646" lon="11.362775923341133"><ele>100.0</ele><time>2026-04-07T10:15:31Z</time></trkpt><trkpt lat="44.4514683849178" lon="11.362878423220529"><ele>100.0</ele><time>2026-04-07T10:15:32Z</time></trkpt><trkpt lat="44.45157936618192" lon="11.36298645807824"><ele>99.25</ele><time>2026-04-07T10:15:33Z</time></trkpt><trkpt lat="44.45168309909849" lon="11.363099945526157"><ele>98.5</ele><time>2026-04-07T10:15:34Z</time></trkpt><trkpt lat="44.45176639316143" lon="11.363223093135664"><ele>97.75</ele><time>2026-04-07T10:15:35Z</time></trkpt><trkpt lat="44.45183344947472" lon="11.363357221210878"><ele>97.0</ele><time>2026-04-07T10:15:36Z</time></trkpt><trkpt lat="44.45189012154883" lon="11.363501860956896"><ele>97.0</ele><time>2026-04-07T10:15:37Z</time></trkpt><trkpt lat="44.45194502863457" lon="11.363649218662577"><ele>97.0</ele><time>2026-04-07T10:15:38Z</time></trkpt><trkpt lat="44.45200939440813" lon="11.363799014807972"><ele>97.0</ele><time>2026-04-07T10:15:39Z</time></trkpt><trkpt lat="44.45208563834875" lon="11.363937067776696"><ele>97.0</ele><time>2026-04-07T10:15:40Z</time></trkpt><trkpt lat="44.45216944046963" lon="11.364061146340468"><ele>95.75</ele><time>2026-04-07T10:15:41Z</time></trkpt><trkpt lat="44.45225708600343" lon="11.364196686792472"><ele>94.5</ele><time>2026-04-07T10:15:42Z</time></trkpt><trkpt lat="44.45234537742736" lon="11.364336653705823"><ele>93.25</ele><time>2026-04-07T10:15:43Z</time></trkpt><trkpt lat="44.452425880726075" lon="11.36446563956915"><ele>92.0</ele><time>2026-04-07T10:15:44Z</time></trkpt><trkpt lat="44.45250513404409" lon="11.36459115197246"><ele>92.8</ele><time>2026-04-07T10:15:45Z</time></trkpt><trkpt lat="44.452583825656156" lon="11.364717640628855"><ele>93.6</ele><time>2026-04-07T10:15:46Z</time></trkpt><trkpt lat="44.45265412929895" lon="11.364837244371953"><ele>94.39999999999999</ele><time>2026-04-07T10:15:47Z</time></trkpt><trkpt lat="44.452717221626884" lon="11.364954168324763"><ele>95.19999999999999</ele><time>2026-04-07T10:15:48Z</time></trkpt><trkpt lat="44.45277454386407" lon="11.365065957799688"><ele>96.0</ele><time>2026-04-07T10:15:49Z</time></trkpt><trkpt lat="44.4528351052739" lon="11.365167962770697"><ele>96.0</ele><time>2026-04-07T10:15:50Z</time></trkpt><trkpt lat="44.45290443863077" lon="11.36527770818805"><ele>96.0</ele><time>2026-04-07T10:15:51Z</time></trkpt><trkpt lat="44.45298187877417" lon="11.365402209537308"><ele>96.0</ele><time>2026-04-07T10:15:52Z</time></trkpt><trkpt lat="44.453058019990706" lon="11.3655066061414"><ele>96.0</ele><time>2026-04-07T10:15:53Z</time></trkpt><trkpt lat="44.45313110441959" lon="11.365592325576133"><ele>96.0</ele><time>2026-04-07T10:15:54Z</time></trkpt><trkpt lat="44.45319707323678" lon="11.365662780812935"><ele>94.16666666666667</ele><time>2026-04-07T10:15:55Z</time></trkpt><trkpt lat="44.45325335379406" lon="11.3657289576429"><ele>92.33333333333333</ele><time>2026-04-07T10:15:56Z</time></trkpt><trkpt lat="44.45330488863811" lon="11.365790867194242"><ele>90.5</ele><time>2026-04-07T10:15:57Z</time></trkpt><trkpt lat="44.453359226037634" lon="11.365857963164276"><ele>88.66666666666666</ele><time>2026-04-07T10:15:58Z</time></trkpt><trkpt lat="44.45342135665397" lon="11.365929382039976"><ele>86.83333333333333</ele><time>2026-04-07T10:15:59Z</time></trkpt><trkpt lat="44.45348842073339" lon="11.366005117405914"><ele>85.0</ele><time>2026-04-07T10:16:00Z</time></trkpt><trkpt lat="44.45355724333879" lon="11.366080785470073"><ele>85.0</ele><time>2026-04-07T10:16:01Z</time></trkpt><trkpt lat="44.45361613691305" lon="11.36614715919882"><ele>85.0</ele><time>2026-04-07T10:16:02Z</time></trkpt><trkpt lat="44.45366532316047" lon="11.366210957275468"><ele>85.0</ele><time>2026-04-07T10:16:03Z</time></trkpt><trkpt lat="44.45375008547843" lon="11.36632006594507"><ele>85.0</ele><time>2026-04-07T10:16:05Z</time></trkpt><trkpt lat="44.45381512984529" lon="11.366417346509795"><ele>85.0</ele><time>2026-04-07T10:16:07Z</time></trkpt><trkpt lat="44.45387681038327" lon="11.36651652080627"><ele>85.0</ele><time>2026-04-07T10:16:09Z</time></trkpt><trkpt lat="44.45393288244331" lon="11.366582548458508"><ele>86.4</ele><time>2026-04-07T10:16:11Z</time></trkpt><trkpt lat="44.45399757484043" lon="11.366676746008984"><ele>87.8</ele><time>2026-04-07T10:16:15Z</time></trkpt><trkpt lat="44.454046537115026" lon="11.366758212023017"><ele>89.19999999999999</ele><time>2026-04-07T10:16:17Z</time></trkpt><trkpt lat="44.454002210426204" lon="11.36688588376667"><ele>90.6</ele><time>2026-04-07T10:16:18Z</time></trkpt><trkpt lat="44.45394130328167" lon="11.366992794402574"><ele>92.0</ele><time>2026-04-07T10:16:19Z</time></trkpt><trkpt lat="44.453883440114915" lon="11.36708502278985"><ele>92.5</ele><time>2026-04-07T10:16:20Z</time></trkpt><trkpt lat="44.453815066465836" lon="11.367209228674994"><ele>93.0</ele><time>2026-04-07T10:16:21Z</time></trkpt><trkpt lat="44.45372442931513" lon="11.367380413615503"><ele>93.5</ele><time>2026-04-07T10:16:22Z</time></trkpt><trkpt lat="44.453619897081474" lon="11.367569819260222"><ele>94.0</ele><time>2026-04-07T10:16:23Z</time></trkpt><trkpt lat="44.453507268935816" lon="11.367781719124281"><ele>92.0</ele><time>2026-04-07T10:16:24Z</time></trkpt><trkpt lat="44.45338542343787" lon="11.36800026876545"><ele>90.0</ele><time>2026-04-07T10:16:25Z</time></trkpt><trkpt lat="44.45328078658906" lon="11.368197621155995"><ele>88.0</ele><time>2026-04-07T10:16:26Z</time></trkpt><trkpt lat="44.45317433611059" lon="11.368413096734182"><ele>88.0</ele><time>2026-04-07T10:16:27Z</time></trkpt><trkpt lat="44.45311333038142" lon="11.368617011274752"><ele>88.0</ele><time>2026-04-07T10:16:28Z</time></trkpt><trkpt lat="44.453080951951435" lon="11.368847130845452"><ele>88.0</ele><time>2026-04-07T10:16:29Z</time></trkpt><trkpt lat="44.45306489911261" lon="11.369066806389618"><ele>87.25</ele><time>2026-04-07T10:16:30Z</time></trkpt><trkpt lat="44.453059516937074" lon="11.369253976178001"><ele>86.5</ele><time>2026-04-07T10:16:31Z</time></trkpt><trkpt lat="44.45305784443083" lon="11.369410667235407"><ele>85.75</ele><time>2026-04-07T10:16:32Z</time></trkpt><trkpt lat="44.45303598720511" lon="11.369525779545933"><ele>85.0</ele><time>2026-04-07T10:16:33Z</time></trkpt><trkpt lat="44.45290258017205" lon="11.369651188866337"><ele>85.0</ele><time>2026-04-07T10:16:35Z</time></trkpt><trkpt lat="44.45282608453623" lon="11.369732768029706"><ele>85.0</ele><time>2026-04-07T10:16:36Z</time></trkpt><trkpt lat="44.45278294474343" lon="11.369849934507682"><ele>85.0</ele><time>2026-04-07T10:16:37Z</time></trkpt><trkpt lat="44.452786619730766" lon="11.369975001511186"><ele>85.0</ele><time>2026-04-07T10:16:38Z</time></trkpt><trkpt lat="44.45282309874122" lon="11.370081664616515"><ele>85.0</ele><time>2026-04-07T10:16:39Z</time></trkpt><trkpt lat="44.45299295886402" lon="11.370190957838004"><ele>85.0</ele><time>2026-04-07T10:16:41Z</time></trkpt><trkpt lat="44.453098968969826" lon="11.370240868957053"><ele>85.0</ele><time>2026-04-07T10:16:42Z</time></trkpt><trkpt lat="44.45319875788369" lon="11.370330733165273"><ele>85.0</ele><time>2026-04-07T10:16:43Z</time></trkpt><trkpt lat="44.4532813185596" lon="11.370460367561524"><ele>85.0</ele><time>2026-04-07T10:16:44Z</time></trkpt><trkpt lat="44.45336748217405" lon="11.370594609196871"><ele>84.25</ele><time>2026-04-07T10:16:45Z</time></trkpt><trkpt lat="44.45345836339267" lon="11.370739690144445"><ele>83.5</ele><time>2026-04-07T10:16:46Z</time></trkpt><trkpt lat="44.453552983115536" lon="11.370888325809066"><ele>82.75</ele><time>2026-04-07T10:16:47Z</time></trkpt><trkpt lat="44.453648114850864" lon="11.371029832953777"><ele>82.0</ele><time>2026-04-07T10:16:48Z</time></trkpt><trkpt lat="44.453744846935734" lon="11.371169427429942"><ele>82.0</ele><time>2026-04-07T10:16:49Z</time></trkpt><trkpt lat="44.45384008823478" lon="11.371306241959504"><ele>82.0</ele><time>2026-04-07T10:16:50Z</time></trkpt><trkpt lat="44.45394537367985" lon="11.371445849085205"><ele>82.0</ele><time>2026-04-07T10:16:51Z</time></trkpt><trkpt lat="44.45408486790784" lon="11.371615587126357"><ele>82.0</ele><time>2026-04-07T10:16:52Z</time></trkpt><trkpt lat="44.454244315865736" lon="11.371802317737739"><ele>82.0</ele><time>2026-04-07T10:16:53Z</time></trkpt><trkpt lat="44.454396682071774" lon="11.371952481188453"><ele>82.0</ele><time>2026-04-07T10:16:54Z</time></trkpt><trkpt lat="44.45454259860491" lon="11.372070819150554"><ele>81.75</ele><time>2026-04-07T10:16:55Z</time></trkpt><trkpt lat="44.45468161590687" lon="11.372168740203849"><ele>81.5</ele><time>2026-04-07T10:16:56Z</time></trkpt><trkpt lat="44.45480975791582" lon="11.372248242275294"><ele>81.25</ele><time>2026-04-07T10:16:57Z</time></trkpt><trkpt lat="44.454936847408035" lon="11.372322168710497"><ele>81.0</ele><time>2026-04-07T10:16:58Z</time></trkpt><trkpt lat="44.45510755521193" lon="11.37241425570772"><ele>81.0</ele><time>2026-04-07T10:16:59Z</time></trkpt><trkpt lat="44.45529498732806" lon="11.372507718814937"><ele>81.0</ele><time>2026-04-07T10:17:00Z</time></trkpt><trkpt lat="44.45550335721831" lon="11.372634172110105"><ele>81.0</ele><time>2026-04-07T10:17:01Z</time></trkpt><trkpt lat="44.45571889523696" lon="11.372756580639148"><ele>81.0</ele><time>2026-04-07T10:17:02Z</time></trkpt><trkpt lat="44.455921220984315" lon="11.37286974919516"><ele>81.0</ele><time>2026-04-07T10:17:03Z</time></trkpt><trkpt lat="44.456126605587095" lon="11.372981234891592"><ele>81.0</ele><time>2026-04-07T10:17:04Z</time></trkpt><trkpt lat="44.45632755702284" lon="11.373095622475368"><ele>79.66666666666667</ele><time>2026-04-07T10:17:05Z</time></trkpt><trkpt lat="44.456528370913155" lon="11.373197664416782"><ele>78.33333333333334</ele><time>2026-04-07T10:17:06Z</time></trkpt><trkpt lat="44.45672381056777" lon="11.373283436173805"><ele>77.0</ele><time>2026-04-07T10:17:07Z</time></trkpt><trkpt lat="44.45692798637377" lon="11.373355458030733"><ele>77.66666666666667</ele><time>2026-04-07T10:17:08Z</time></trkpt><trkpt lat="44.45712868891151" lon="11.373413728865572"><ele>78.33333333333333</ele><time>2026-04-07T10:17:09Z</time></trkpt><trkpt lat="44.457327329681235" lon="11.373463351971099"><ele>79.0</ele><time>2026-04-07T10:17:10Z</time></trkpt><trkpt lat="44.45752088319724" lon="11.373504247441124"><ele>79.0</ele><time>2026-04-07T10:17:11Z</time></trkpt><trkpt lat="44.45771766210977" lon="11.373549080591967"><ele>79.0</ele><time>2026-04-07T10:17:12Z</time></trkpt><trkpt lat="44.45791156791576" lon="11.373595925602086"><ele>79.0</ele><time>2026-04-07T10:17:13Z</time></trkpt><trkpt lat="44.458114453866294" lon="11.373641369834527"><ele>79.66666666666666</ele><time>2026-04-07T10:17:14Z</time></trkpt><trkpt lat="44.45830501912202" lon="11.373675628121338"><ele>80.33333333333333</ele><time>2026-04-07T10:17:15Z</time></trkpt><trkpt lat="44.458480503863655" lon="11.373726526007006"><ele>81.0</ele><time>2026-04-07T10:17:16Z</time></trkpt><trkpt lat="44.45864409217152" lon="11.373797180728225"><ele>80.0</ele><time>2026-04-07T10:17:17Z</time></trkpt><trkpt lat="44.45880973328842" lon="11.373885940673233"><ele>79.0</ele><time>2026-04-07T10:17:18Z</time></trkpt><trkpt lat="44.45897363100814" lon="11.374000357674866"><ele>78.0</ele><time>2026-04-07T10:17:19Z</time></trkpt><trkpt lat="44.45911923926354" lon="11.37413460775869"><ele>78.0</ele><time>2026-04-07T10:17:20Z</time></trkpt><trkpt lat="44.459231051328224" lon="11.374289396832973"><ele>78.0</ele><time>2026-04-07T10:17:21Z</time></trkpt><trkpt lat="44.45932847073625" lon="11.37441873105492"><ele>78.0</ele><time>2026-04-07T10:17:22Z</time></trkpt><trkpt lat="44.459402751036784" lon="11.37454861885312"><ele>78.0</ele><time>2026-04-07T10:17:23Z</time></trkpt><trkpt lat="44.459443132409874" lon="11.374656204839566"><ele>77.2</ele><time>2026-04-07T10:17:24Z</time></trkpt><trkpt lat="44.459455220851275" lon="11.374751532307538"><ele>76.4</ele><time>2026-04-07T10:17:25Z</time></trkpt><trkpt lat="44.45943222375453" lon="11.37487612673376"><ele>75.60000000000001</ele><time>2026-04-07T10:17:26Z</time></trkpt><trkpt lat="44.45939967762721" lon="11.375012891899337"><ele>74.8</ele><time>2026-04-07T10:17:27Z</time></trkpt><trkpt lat="44.4593790428446" lon="11.375144088683975"><ele>74.0</ele><time>2026-04-07T10:17:28Z</time></trkpt><trkpt lat="44.45949176733188" lon="11.375338405330927"><ele>74.0</ele><time>2026-04-07T10:17:29Z</time></trkpt><trkpt lat="44.45959006782506" lon="11.37544844496696"><ele>74.0</ele><time>2026-04-07T10:17:30Z</time></trkpt><trkpt lat="44.45970701247273" lon="11.375556545932453"><ele>74.0</ele><time>2026-04-07T10:17:31Z</time></trkpt><trkpt lat="44.45980604129058" lon="11.375700248132835"><ele>74.0</ele><time>2026-04-07T10:17:32Z</time></trkpt><trkpt lat="44.45990656239505" lon="11.375831051247467"><ele>74.66666666666667</ele><time>2026-04-07T10:17:33Z</time></trkpt><trkpt lat="44.45992047578333" lon="11.37607631230127"><ele>75.33333333333333</ele><time>2026-04-07T10:17:34Z</time></trkpt><trkpt lat="44.45997658264926" lon="11.376274060974575"><ele>76.0</ele><time>2026-04-07T10:17:35Z</time></trkpt><trkpt lat="44.46006487619255" lon="11.376687080155843"><ele>74.66666666666666</ele><time>2026-04-07T10:17:37Z</time></trkpt><trkpt lat="44.46013800223854" lon="11.376899994092318"><ele>73.33333333333333</ele><time>2026-04-07T10:17:38Z</time></trkpt><trkpt lat="44.460239299966126" lon="11.377119899940674"><ele>72.0</ele><time>2026-04-07T10:17:39Z</time></trkpt><trkpt lat="44.46035218489008" lon="11.377312971197174"><ele>73.0</ele><time>2026-04-07T10:17:40Z</time></trkpt><trkpt lat="44.460483031365605" lon="11.377488619943902"><ele>74.0</ele><time>2026-04-07T10:17:41Z</time></trkpt><trkpt lat="44.460612601918925" lon="11.377671505957462"><ele>75.0</ele><time>2026-04-07T10:17:42Z</time></trkpt><trkpt lat="44.46074758627103" lon="11.377860699272846"><ele>75.0</ele><time>2026-04-07T10:17:43Z</time></trkpt><trkpt lat="44.460884080308574" lon="11.378050663949349"><ele>75.0</ele><time>2026-04-07T10:17:44Z</time></trkpt><trkpt lat="44.46102368685422" lon="11.378242413285653"><ele>75.0</ele><time>2026-04-07T10:17:45Z</time></trkpt><trkpt lat="44.461153712234804" lon="11.378419781898426"><ele>75.0</ele><time>2026-04-07T10:17:46Z</time></trkpt><trkpt lat="44.46126965900713" lon="11.378575623482224"><ele>75.0</ele><time>2026-04-07T10:17:47Z</time></trkpt><trkpt lat="44.46138324329388" lon="11.378727291256627"><ele>75.0</ele><time>2026-04-07T10:17:48Z</time></trkpt><trkpt lat="44.4614824171532" lon="11.37885761391343"><ele>74.66666666666667</ele><time>2026-04-07T10:17:49Z</time></trkpt><trkpt lat="44.46155307631957" lon="11.378972928714576"><ele>74.33333333333333</ele><time>2026-04-07T10:17:50Z</time></trkpt><trkpt lat="44.461600885427416" lon="11.379085121966959"><ele>74.0</ele><time>2026-04-07T10:17:51Z</time></trkpt><trkpt lat="44.46161963480714" lon="11.379204485127156"><ele>73.66666666666666</ele><time>2026-04-07T10:17:52Z</time></trkpt><trkpt lat="44.4616034361403" lon="11.3793068050163"><ele>73.33333333333333</ele><time>2026-04-07T10:17:53Z</time></trkpt><trkpt lat="44.46156884626954" lon="11.379411180994351"><ele>73.0</ele><time>2026-04-07T10:17:54Z</time></trkpt><trkpt lat="44.46153981804844" lon="11.379515583290587"><ele>73.0</ele><time>2026-04-07T10:17:55Z</time></trkpt><trkpt lat="44.46153252867758" lon="11.379628609565446"><ele>73.0</ele><time>2026-04-07T10:17:56Z</time></trkpt><trkpt lat="44.46155480849746" lon="11.379757072207589"><ele>73.0</ele><time>2026-04-07T10:17:57Z</time></trkpt><trkpt lat="44.46159359875245" lon="11.379891849410123"><ele>73.0</ele><time>2026-04-07T10:17:58Z</time></trkpt><trkpt lat="44.461631373640614" lon="11.380009744466246"><ele>73.0</ele><time>2026-04-07T10:17:59Z</time></trkpt><trkpt lat="44.46165303032154" lon="11.380129675474494"><ele>72.75</ele><time>2026-04-07T10:18:00Z</time></trkpt><trkpt lat="44.46167499433001" lon="11.380251838021954"><ele>72.5</ele><time>2026-04-07T10:18:01Z</time></trkpt><trkpt lat="44.461609809563456" lon="11.380392979493044"><ele>72.25</ele><time>2026-04-07T10:18:02Z</time></trkpt><trkpt lat="44.461544950077744" lon="11.38055106226444"><ele>72.0</ele><time>2026-04-07T10:18:03Z</time></trkpt><trkpt lat="44.461480744292295" lon="11.38077015636841"><ele>71.33333333333333</ele><time>2026-04-07T10:18:04Z</time></trkpt><trkpt lat="44.461392409887694" lon="11.381005181015466"><ele>70.66666666666666</ele><time>2026-04-07T10:18:05Z</time></trkpt><trkpt lat="44.46129710823852" lon="11.381251411762442"><ele>70.0</ele><time>2026-04-07T10:18:06Z</time></trkpt><trkpt lat="44.46120547606573" lon="11.381475983267855"><ele>71.66666666666666</ele><time>2026-04-07T10:18:07Z</time></trkpt><trkpt lat="44.46111807576713" lon="11.381686350109675"><ele>73.33333333333333</ele><time>2026-04-07T10:18:08Z</time></trkpt><trkpt lat="44.46104700895157" lon="11.381894042413983"><ele>75.0</ele><time>2026-04-07T10:18:08.999Z</time></trkpt><trkpt lat="44.460995212195975" lon="11.382100261867691"><ele>76.33333333333333</ele><time>2026-04-07T10:18:09.999Z</time></trkpt><trkpt lat="44.46096741467216" lon="11.382323207840233"><ele>77.66666666666666</ele><time>2026-04-07T10:18:10.999Z</time></trkpt><trkpt lat="44.46096302259907" lon="11.382553068211072"><ele>79.0</ele><time>2026-04-07T10:18:11.999Z</time></trkpt><trkpt lat="44.460984660267734" lon="11.382781037542314"><ele>79.0</ele><time>2026-04-07T10:18:12.999Z</time></trkpt><trkpt lat="44.461025781343096" lon="11.383000608206313"><ele>79.0</ele><time>2026-04-07T10:18:13.999Z</time></trkpt><trkpt lat="44.461089964861806" lon="11.383212778730476"><ele>79.0</ele><time>2026-04-07T10:18:14.999Z</time></trkpt><trkpt lat="44.46117253459255" lon="11.383400025485608"><ele>79.0</ele><time>2026-04-07T10:18:15.999Z</time></trkpt><trkpt lat="44.4612663000394" lon="11.383561195879066"><ele>79.0</ele><time>2026-04-07T10:18:16.999Z</time></trkpt><trkpt lat="44.46136465797462" lon="11.383713839982288"><ele>79.0</ele><time>2026-04-07T10:18:18Z</time></trkpt><trkpt lat="44.46148821172146" lon="11.38381984619404"><ele>79.0</ele><time>2026-04-07T10:18:19Z</time></trkpt><trkpt lat="44.46160825163093" lon="11.383937719328609"><ele>79.66666666666666</ele><time>2026-04-07T10:18:20Z</time></trkpt><trkpt lat="44.46172815589852" lon="11.38405214324567"><ele>80.33333333333333</ele><time>2026-04-07T10:18:21Z</time></trkpt><trkpt lat="44.46185823137814" lon="11.384169446654681"><ele>81.0</ele><time>2026-04-07T10:18:22.072Z</time></trkpt><trkpt lat="44.4623209523134" lon="11.384623457838572"><ele>81.5</ele><time>2026-04-07T10:18:24Z</time></trkpt><trkpt lat="44.46255554688414" lon="11.384829619654978"><ele>82.0</ele><time>2026-04-07T10:18:25Z</time></trkpt><trkpt lat="44.462762609358265" lon="11.384987878325223"><ele>82.0</ele><time>2026-04-07T10:18:26Z</time></trkpt><trkpt lat="44.46293012141885" lon="11.38515499366676"><ele>82.0</ele><time>2026-04-07T10:18:27Z</time></trkpt><trkpt lat="44.46309233199128" lon="11.3853095967892"><ele>82.0</ele><time>2026-04-07T10:18:28Z</time></trkpt><trkpt lat="44.46325007837654" lon="11.38545173011814"><ele>79.0</ele><time>2026-04-07T10:18:29Z</time></trkpt><trkpt lat="44.46340522883023" lon="11.385581997797104"><ele>76.0</ele><time>2026-04-07T10:18:30Z</time></trkpt><trkpt lat="44.46355680380145" lon="11.385691697730433"><ele>73.0</ele><time>2026-04-07T10:18:31Z</time></trkpt><trkpt lat="44.46371452593546" lon="11.385776664688372"><ele>72.33333333333333</ele><time>2026-04-07T10:18:32Z</time></trkpt><trkpt lat="44.463883975597334" lon="11.385826914379946"><ele>71.66666666666667</ele><time>2026-04-07T10:18:33Z</time></trkpt><trkpt lat="44.46406348354532" lon="11.385847318994033"><ele>71.0</ele><time>2026-04-07T10:18:34Z</time></trkpt><trkpt lat="44.46424956622549" lon="11.385842446118831"><ele>71.0</ele><time>2026-04-07T10:18:35Z</time></trkpt><trkpt lat="44.46444172753157" lon="11.38583231931636"><ele>71.0</ele><time>2026-04-07T10:18:36Z</time></trkpt><trkpt lat="44.464634878958016" lon="11.385835158077668"><ele>71.0</ele><time>2026-04-07T10:18:37Z</time></trkpt><trkpt lat="44.464816865086426" lon="11.38584406183659"><ele>70.33333333333334</ele><time>2026-04-07T10:18:38Z</time></trkpt><trkpt lat="44.46498339551437" lon="11.385856164459206"><ele>69.66666666666667</ele><time>2026-04-07T10:18:39Z</time></trkpt><trkpt lat="44.465136190147234" lon="11.38589220510057"><ele>69.0</ele><time>2026-04-07T10:18:40Z</time></trkpt><trkpt lat="44.465286554389124" lon="11.385962339048433"><ele>69.0</ele><time>2026-04-07T10:18:41Z</time></trkpt><trkpt lat="44.46543404115712" lon="11.386074577116043"><ele>69.0</ele><time>2026-04-07T10:18:42Z</time></trkpt><trkpt lat="44.46557170036103" lon="11.38622445224168"><ele>69.0</ele><time>2026-04-07T10:18:43Z</time></trkpt><trkpt lat="44.46569215137178" lon="11.386405979693063"><ele>70.0</ele><time>2026-04-07T10:18:44Z</time></trkpt><trkpt lat="44.465806071345895" lon="11.386618847529146"><ele>71.0</ele><time>2026-04-07T10:18:45Z</time></trkpt><trkpt lat="44.465910886907935" lon="11.386833789679045"><ele>72.0</ele><time>2026-04-07T10:18:46Z</time></trkpt><trkpt lat="44.46601854405003" lon="11.387044017019319"><ele>73.0</ele><time>2026-04-07T10:18:47Z</time></trkpt><trkpt lat="44.466123019499754" lon="11.38723222716556"><ele>74.0</ele><time>2026-04-07T10:18:48Z</time></trkpt><trkpt lat="44.46621306984435" lon="11.387425452755554"><ele>75.0</ele><time>2026-04-07T10:18:49Z</time></trkpt><trkpt lat="44.4662847163011" lon="11.387651246477398"><ele>73.66666666666667</ele><time>2026-04-07T10:18:50Z</time></trkpt><trkpt lat="44.46632754780497" lon="11.38790799702229"><ele>72.33333333333334</ele><time>2026-04-07T10:18:51Z</time></trkpt><trkpt lat="44.46634382002784" lon="11.388167293607355"><ele>71.0</ele><time>2026-04-07T10:18:52Z</time></trkpt><trkpt lat="44.466351135431125" lon="11.388428049301867"><ele>71.0</ele><time>2026-04-07T10:18:53Z</time></trkpt><trkpt lat="44.46636794028126" lon="11.38869741368081"><ele>71.0</ele><time>2026-04-07T10:18:54Z</time></trkpt><trkpt lat="44.46639404633236" lon="11.38896674585923"><ele>71.0</ele><time>2026-04-07T10:18:55Z</time></trkpt><trkpt lat="44.466421459524575" lon="11.389220922436923"><ele>71.66666666666667</ele><time>2026-04-07T10:18:56Z</time></trkpt><trkpt lat="44.46644986670548" lon="11.38947321442678"><ele>72.33333333333333</ele><time>2026-04-07T10:18:57Z</time></trkpt><trkpt lat="44.466479415578775" lon="11.389728722289158"><ele>73.0</ele><time>2026-04-07T10:18:58Z</time></trkpt><trkpt lat="44.466530068092354" lon="11.389971784347303"><ele>73.0</ele><time>2026-04-07T10:18:59Z</time></trkpt><trkpt lat="44.466582627990384" lon="11.390210068054142"><ele>73.0</ele><time>2026-04-07T10:19:00Z</time></trkpt><trkpt lat="44.466645349994096" lon="11.390461047760324"><ele>73.0</ele><time>2026-04-07T10:19:01.071Z</time></trkpt><trkpt lat="44.466710463460664" lon="11.390683297114826"><ele>71.5</ele><time>2026-04-07T10:19:02.071Z</time></trkpt><trkpt lat="44.46678574362151" lon="11.390881783912265"><ele>70.0</ele><time>2026-04-07T10:19:03.067Z</time></trkpt><trkpt lat="44.467742805816904" lon="11.392424343628267"><ele>70.66666666666666</ele><time>2026-04-07T10:19:11Z</time></trkpt><trkpt lat="44.467870314623404" lon="11.392552119799433"><ele>71.33333333333333</ele><time>2026-04-07T10:19:12Z</time></trkpt><trkpt lat="44.467997730078174" lon="11.392679001924572"><ele>72.0</ele><time>2026-04-07T10:19:13Z</time></trkpt><trkpt lat="44.468134579552334" lon="11.39280654563974"><ele>72.0</ele><time>2026-04-07T10:19:14Z</time></trkpt><trkpt lat="44.46824683161163" lon="11.392917953005805"><ele>72.0</ele><time>2026-04-07T10:19:15Z</time></trkpt><trkpt lat="44.468340083950885" lon="11.39301310100154"><ele>72.0</ele><time>2026-04-07T10:19:16Z</time></trkpt><trkpt lat="44.468439904178105" lon="11.393125668081153"><ele>72.0</ele><time>2026-04-07T10:19:17Z</time></trkpt><trkpt lat="44.46851865072488" lon="11.393227297304316"><ele>71.66666666666667</ele><time>2026-04-07T10:19:18Z</time></trkpt><trkpt lat="44.46859560706584" lon="11.393310289670692"><ele>71.33333333333333</ele><time>2026-04-07T10:19:19Z</time></trkpt><trkpt lat="44.46861368538822" lon="11.39341440106306"><ele>71.0</ele><time>2026-04-07T10:19:20Z</time></trkpt><trkpt lat="44.46864846456189" lon="11.393531950166974"><ele>70.66666666666666</ele><time>2026-04-07T10:19:21Z</time></trkpt><trkpt lat="44.46868535662022" lon="11.393609451107052"><ele>70.33333333333333</ele><time>2026-04-07T10:19:22Z</time></trkpt><trkpt lat="44.468712758854764" lon="11.393731453805099"><ele>70.0</ele><time>2026-04-07T10:19:23Z</time></trkpt><trkpt lat="44.468737457019266" lon="11.393899793429792"><ele>70.0</ele><time>2026-04-07T10:19:24Z</time></trkpt><trkpt lat="44.468752703476206" lon="11.394085858571257"><ele>70.0</ele><time>2026-04-07T10:19:25Z</time></trkpt><trkpt lat="44.468784751050535" lon="11.394245318498946"><ele>70.0</ele><time>2026-04-07T10:19:26Z</time></trkpt><trkpt lat="44.46881007064634" lon="11.39439199614673"><ele>70.0</ele><time>2026-04-07T10:19:27Z</time></trkpt><trkpt lat="44.468873468576795" lon="11.394532654286166"><ele>70.0</ele><time>2026-04-07T10:19:28Z</time></trkpt><trkpt lat="44.46896660187892" lon="11.394627048283539"><ele>70.0</ele><time>2026-04-07T10:19:29Z</time></trkpt><trkpt lat="44.46918110970853" lon="11.394752885249847"><ele>70.0</ele><time>2026-04-07T10:19:31Z</time></trkpt><trkpt lat="44.46930999009279" lon="11.394772987869286"><ele>69.75</ele><time>2026-04-07T10:19:32Z</time></trkpt><trkpt lat="44.46944231287942" lon="11.394763224285388"><ele>69.5</ele><time>2026-04-07T10:19:33Z</time></trkpt><trkpt lat="44.46957438957151" lon="11.394730295999274"><ele>69.25</ele><time>2026-04-07T10:19:34Z</time></trkpt><trkpt lat="44.46969301633307" lon="11.394651643530915"><ele>69.0</ele><time>2026-04-07T10:19:35Z</time></trkpt><trkpt lat="44.46983583687698" lon="11.394675713541082"><ele>68.25</ele><time>2026-04-07T10:19:36Z</time></trkpt><trkpt lat="44.46997076177179" lon="11.394674687944"><ele>67.5</ele><time>2026-04-07T10:19:37Z</time></trkpt><trkpt lat="44.47009476852776" lon="11.394694203893525"><ele>66.75</ele><time>2026-04-07T10:19:38Z</time></trkpt><trkpt lat="44.47020688225818" lon="11.394728586076688"><ele>66.0</ele><time>2026-04-07T10:19:39Z</time></trkpt><trkpt lat="44.47031298964908" lon="11.394771474397526"><ele>66.0</ele><time>2026-04-07T10:19:40Z</time></trkpt><trkpt lat="44.47043061426196" lon="11.394812236135179"><ele>66.0</ele><time>2026-04-07T10:19:41Z</time></trkpt><trkpt lat="44.47055781449379" lon="11.394853243268583"><ele>66.0</ele><time>2026-04-07T10:19:42Z</time></trkpt><trkpt lat="44.47069070401193" lon="11.394892999752718"><ele>66.0</ele><time>2026-04-07T10:19:43Z</time></trkpt><trkpt lat="44.47082272434803" lon="11.394937021989243"><ele>66.5</ele><time>2026-04-07T10:19:44Z</time></trkpt><trkpt lat="44.47095089658575" lon="11.394985656900271"><ele>67.0</ele><time>2026-04-07T10:19:45Z</time></trkpt><trkpt lat="44.47107321408246" lon="11.395026024355534"><ele>67.5</ele><time>2026-04-07T10:19:46Z</time></trkpt><trkpt lat="44.471205582930104" lon="11.3950732720723"><ele>68.0</ele><time>2026-04-07T10:19:47Z</time></trkpt><trkpt lat="44.47133480366214" lon="11.39512034552823"><ele>68.75</ele><time>2026-04-07T10:19:48Z</time></trkpt><trkpt lat="44.47147119074519" lon="11.395173474788002"><ele>69.5</ele><time>2026-04-07T10:19:49Z</time></trkpt><trkpt lat="44.4716081832998" lon="11.395224274039803"><ele>70.25</ele><time>2026-04-07T10:19:50Z</time></trkpt><trkpt lat="44.471734807004985" lon="11.395272222430076"><ele>71.0</ele><time>2026-04-07T10:19:51Z</time></trkpt><trkpt lat="44.471857506005435" lon="11.395321365550965"><ele>71.0</ele><time>2026-04-07T10:19:52Z</time></trkpt><trkpt lat="44.471980523149035" lon="11.395373957703164"><ele>71.0</ele><time>2026-04-07T10:19:53Z</time></trkpt><trkpt lat="44.47210122450324" lon="11.395428008592495"><ele>71.0</ele><time>2026-04-07T10:19:54Z</time></trkpt><trkpt lat="44.47231823401625" lon="11.395542001167536"><ele>70.39999999999999</ele><time>2026-04-07T10:19:56Z</time></trkpt><trkpt lat="44.4724200142195" lon="11.39559899373751"><ele>69.8</ele><time>2026-04-07T10:19:57Z</time></trkpt><trkpt lat="44.47252017331284" lon="11.39565651029172"><ele>69.19999999999999</ele><time>2026-04-07T10:19:58Z</time></trkpt><trkpt lat="44.47261448117101" lon="11.395714849507875"><ele>68.6</ele><time>2026-04-07T10:19:59Z</time></trkpt><trkpt lat="44.47270399210672" lon="11.395777842731999"><ele>68.0</ele><time>2026-04-07T10:20:00Z</time></trkpt><trkpt lat="44.4727945668047" lon="11.395838725423225"><ele>68.0</ele><time>2026-04-07T10:20:01Z</time></trkpt><trkpt lat="44.47287962619671" lon="11.395899200468476"><ele>68.0</ele><time>2026-04-07T10:20:02Z</time></trkpt><trkpt lat="44.472967497261465" lon="11.395960873327352"><ele>68.0</ele><time>2026-04-07T10:20:03Z</time></trkpt><trkpt lat="44.473053594180904" lon="11.396025299161673"><ele>68.0</ele><time>2026-04-07T10:20:04Z</time></trkpt><trkpt lat="44.47313928308174" lon="11.396091989609788"><ele>68.0</ele><time>2026-04-07T10:20:05Z</time></trkpt><trkpt lat="44.47322485424269" lon="11.396156688885934"><ele>67.6</ele><time>2026-04-07T10:20:06Z</time></trkpt><trkpt lat="44.473308916398096" lon="11.396221901741901"><ele>67.19999999999999</ele><time>2026-04-07T10:20:07Z</time></trkpt><trkpt lat="44.47339526857565" lon="11.396288178465994"><ele>66.8</ele><time>2026-04-07T10:20:08Z</time></trkpt><trkpt lat="44.47348042713505" lon="11.396355030729735"><ele>66.39999999999999</ele><time>2026-04-07T10:20:09Z</time></trkpt><trkpt lat="44.47356536934232" lon="11.396419599453392"><ele>66.0</ele><time>2026-04-07T10:20:10Z</time></trkpt><trkpt lat="44.47365205997631" lon="11.396486767310162"><ele>66.0</ele><time>2026-04-07T10:20:11Z</time></trkpt><trkpt lat="44.473743589456696" lon="11.396555620707792"><ele>66.0</ele><time>2026-04-07T10:20:12Z</time></trkpt><trkpt lat="44.47384162636953" lon="11.396628655934219"><ele>66.0</ele><time>2026-04-07T10:20:13Z</time></trkpt><trkpt lat="44.47394555083611" lon="11.396707892716982"><ele>66.0</ele><time>2026-04-07T10:20:14Z</time></trkpt><trkpt lat="44.47405333854438" lon="11.396794712025878"><ele>66.2</ele><time>2026-04-07T10:20:15Z</time></trkpt><trkpt lat="44.47415804141249" lon="11.396880508069241"><ele>66.39999999999999</ele><time>2026-04-07T10:20:16Z</time></trkpt><trkpt lat="44.47425008211285" lon="11.396969513110523"><ele>66.6</ele><time>2026-04-07T10:20:17Z</time></trkpt><trkpt lat="44.4743250667446" lon="11.39706044010543"><ele>66.8</ele><time>2026-04-07T10:20:18Z</time></trkpt><trkpt lat="44.474380330419216" lon="11.397143725385929"><ele>67.0</ele><time>2026-04-07T10:20:19Z</time></trkpt><trkpt lat="44.47441495380221" lon="11.397226858470702"><ele>67.0</ele><time>2026-04-07T10:20:20Z</time></trkpt><trkpt lat="44.47444589814318" lon="11.397318219754004"><ele>67.0</ele><time>2026-04-07T10:20:21Z</time></trkpt><trkpt lat="44.47447768531238" lon="11.397435100158066"><ele>67.0</ele><time>2026-04-07T10:20:22Z</time></trkpt><trkpt lat="44.47451996201453" lon="11.39756688847771"><ele>67.0</ele><time>2026-04-07T10:20:23Z</time></trkpt><trkpt lat="44.47457985699206" lon="11.397674783717006"><ele>67.0</ele><time>2026-04-07T10:20:24Z</time></trkpt><trkpt lat="44.474653444639934" lon="11.397759638319705"><ele>66.2</ele><time>2026-04-07T10:20:25Z</time></trkpt><trkpt lat="44.47474623164084" lon="11.397818705621606"><ele>65.4</ele><time>2026-04-07T10:20:26Z</time></trkpt><trkpt lat="44.47485104830161" lon="11.397847969395912"><ele>64.6</ele><time>2026-04-07T10:20:27Z</time></trkpt><trkpt lat="44.474968507419796" lon="11.39784811217689"><ele>63.8</ele><time>2026-04-07T10:20:28Z</time></trkpt><trkpt lat="44.47508148908638" lon="11.39778978304983"><ele>63.0</ele><time>2026-04-07T10:20:29Z</time></trkpt><trkpt lat="44.47521948496315" lon="11.397805049285003"><ele>63.0</ele><time>2026-04-07T10:20:30Z</time></trkpt><trkpt lat="44.47534367470387" lon="11.397827300333047"><ele>63.0</ele><time>2026-04-07T10:20:31Z</time></trkpt><trkpt lat="44.475464699593196" lon="11.397885423838657"><ele>63.0</ele><time>2026-04-07T10:20:32Z</time></trkpt><trkpt lat="44.47559272642245" lon="11.397978659246425"><ele>63.0</ele><time>2026-04-07T10:20:33Z</time></trkpt><trkpt lat="44.47572839574822" lon="11.398090947424402"><ele>63.66666666666667</ele><time>2026-04-07T10:20:34Z</time></trkpt><trkpt lat="44.47588089862822" lon="11.39821674997949"><ele>64.33333333333334</ele><time>2026-04-07T10:20:35Z</time></trkpt><trkpt lat="44.47604702739492" lon="11.398345826878176"><ele>65.0</ele><time>2026-04-07T10:20:36Z</time></trkpt><trkpt lat="44.47620683319815" lon="11.398465644964546"><ele>64.66666666666667</ele><time>2026-04-07T10:20:37Z</time></trkpt><trkpt lat="44.4763688597638" lon="11.398588211787644"><ele>64.33333333333333</ele><time>2026-04-07T10:20:38Z</time></trkpt><trkpt lat="44.47653696042141" lon="11.398719426082332"><ele>64.0</ele><time>2026-04-07T10:20:39Z</time></trkpt><trkpt lat="44.47670835995761" lon="11.398854949325607"><ele>63.0</ele><time>2026-04-07T10:20:40Z</time></trkpt><trkpt lat="44.47687985417743" lon="11.39898600941913"><ele>62.0</ele><time>2026-04-07T10:20:41Z</time></trkpt><trkpt lat="44.47704651335086" lon="11.399114045396148"><ele>61.0</ele><time>2026-04-07T10:20:42Z</time></trkpt><trkpt lat="44.477221165131255" lon="11.399246708322746"><ele>60.666666666666664</ele><time>2026-04-07T10:20:43Z</time></trkpt><trkpt lat="44.47739773020605" lon="11.399381758534858"><ele>60.33333333333333</ele><time>2026-04-07T10:20:44Z</time></trkpt><trkpt lat="44.47757724439939" lon="11.399519609086694"><ele>60.0</ele><time>2026-04-07T10:20:45Z</time></trkpt><trkpt lat="44.47776079641258" lon="11.39966040963884"><ele>60.0</ele><time>2026-04-07T10:20:46Z</time></trkpt><trkpt lat="44.47794305963518" lon="11.399800453913757"><ele>60.0</ele><time>2026-04-07T10:20:47Z</time></trkpt><trkpt lat="44.478128569479644" lon="11.399946020741051"><ele>60.0</ele><time>2026-04-07T10:20:48Z</time></trkpt><trkpt lat="44.478310331726114" lon="11.400088134412963"><ele>60.0</ele><time>2026-04-07T10:20:49Z</time></trkpt><trkpt lat="44.47849720893868" lon="11.400238307856906"><ele>60.0</ele><time>2026-04-07T10:20:50Z</time></trkpt><trkpt lat="44.478674359301614" lon="11.400387642046233"><ele>60.0</ele><time>2026-04-07T10:20:51Z</time></trkpt><trkpt lat="44.47885275705732" lon="11.400543310588262"><ele>59.66666666666667</ele><time>2026-04-07T10:20:52Z</time></trkpt><trkpt lat="44.47902353315049" lon="11.400697539762074"><ele>59.333333333333336</ele><time>2026-04-07T10:20:53Z</time></trkpt><trkpt lat="44.47919087234632" lon="11.400849034129509"><ele>59.0</ele><time>2026-04-07T10:20:54Z</time></trkpt><trkpt lat="44.47935478632618" lon="11.400999306836512"><ele>59.0</ele><time>2026-04-07T10:20:55Z</time></trkpt><trkpt lat="44.4795202618508" lon="11.401155794556715"><ele>59.0</ele><time>2026-04-07T10:20:56Z</time></trkpt><trkpt lat="44.47968109050655" lon="11.401312296704468"><ele>59.0</ele><time>2026-04-07T10:20:57Z</time></trkpt><trkpt lat="44.47983837755631" lon="11.401472542279887"><ele>58.66666666666667</ele><time>2026-04-07T10:20:58Z</time></trkpt><trkpt lat="44.47999852043955" lon="11.401633825427462"><ele>58.33333333333333</ele><time>2026-04-07T10:20:59Z</time></trkpt><trkpt lat="44.480160354636986" lon="11.401794490563878"><ele>58.0</ele><time>2026-04-07T10:21:00Z</time></trkpt><trkpt lat="44.48031894604929" lon="11.401960883780085"><ele>57.666666666666664</ele><time>2026-04-07T10:21:01Z</time></trkpt><trkpt lat="44.48047711312345" lon="11.402131690586904"><ele>57.33333333333333</ele><time>2026-04-07T10:21:02Z</time></trkpt><trkpt lat="44.48063365616733" lon="11.40229975508466"><ele>57.0</ele><time>2026-04-07T10:21:03Z</time></trkpt><trkpt lat="44.480786972157574" lon="11.40246465486601"><ele>57.0</ele><time>2026-04-07T10:21:04Z</time></trkpt><trkpt lat="44.48094323011313" lon="11.402631838569778"><ele>57.0</ele><time>2026-04-07T10:21:05Z</time></trkpt><trkpt lat="44.48110469106644" lon="11.402804440619482"><ele>57.0</ele><time>2026-04-07T10:21:06Z</time></trkpt><trkpt lat="44.48126553008265" lon="11.402975630687466"><ele>56.33333333333333</ele><time>2026-04-07T10:21:07Z</time></trkpt><trkpt lat="44.48142806800546" lon="11.403153444652355"><ele>55.666666666666664</ele><time>2026-04-07T10:21:08Z</time></trkpt><trkpt lat="44.48159349732063" lon="11.403335710482526"><ele>55.0</ele><time>2026-04-07T10:21:09Z</time></trkpt><trkpt lat="44.48177046764836" lon="11.403527961205567"><ele>55.0</ele><time>2026-04-07T10:21:10Z</time></trkpt><trkpt lat="44.4819486677977" lon="11.403721664925067"><ele>55.0</ele><time>2026-04-07T10:21:11Z</time></trkpt><trkpt lat="44.48211881818574" lon="11.403901906781936"><ele>55.0</ele><time>2026-04-07T10:21:12Z</time></trkpt><trkpt lat="44.48229190853366" lon="11.404083401587608"><ele>55.0</ele><time>2026-04-07T10:21:13Z</time></trkpt><trkpt lat="44.48246508213246" lon="11.40426716740916"><ele>55.0</ele><time>2026-04-07T10:21:14Z</time></trkpt><trkpt lat="44.4826356259031" lon="11.404448587294773"><ele>55.0</ele><time>2026-04-07T10:21:15Z</time></trkpt><trkpt lat="44.482796991366044" lon="11.404622476115186"><ele>54.5</ele><time>2026-04-07T10:21:16Z</time></trkpt><trkpt lat="44.48295982552113" lon="11.404801827253964"><ele>54.0</ele><time>2026-04-07T10:21:17Z</time></trkpt><trkpt lat="44.48328282998659" lon="11.405149502864159"><ele>54.0</ele><time>2026-04-07T10:21:19Z</time></trkpt><trkpt lat="44.48343417605122" lon="11.405311335359501"><ele>54.0</ele><time>2026-04-07T10:21:20Z</time></trkpt><trkpt lat="44.483582569376765" lon="11.40546936617327"><ele>54.0</ele><time>2026-04-07T10:21:21Z</time></trkpt><trkpt lat="44.48371309769664" lon="11.405610923479273"><ele>51.666666666666664</ele><time>2026-04-07T10:21:22Z</time></trkpt><trkpt lat="44.48383932170714" lon="11.405749514985647"><ele>49.33333333333333</ele><time>2026-04-07T10:21:23Z</time></trkpt><trkpt lat="44.48395490167088" lon="11.405887028970097"><ele>47.0</ele><time>2026-04-07T10:21:24Z</time></trkpt><trkpt lat="44.48405414862089" lon="11.406029518060487"><ele>47.0</ele><time>2026-04-07T10:21:25Z</time></trkpt><trkpt lat="44.484133781137885" lon="11.406188008066017"><ele>47.0</ele><time>2026-04-07T10:21:26Z</time></trkpt><trkpt lat="44.48420526271336" lon="11.406373473808964"><ele>47.0</ele><time>2026-04-07T10:21:27Z</time></trkpt><trkpt lat="44.484268921936845" lon="11.40658688509608"><ele>47.33333333333333</ele><time>2026-04-07T10:21:28Z</time></trkpt><trkpt lat="44.48433074201426" lon="11.40681226878684"><ele>47.666666666666664</ele><time>2026-04-07T10:21:29Z</time></trkpt><trkpt lat="44.4843375314668" lon="11.407080097701675"><ele>48.0</ele><time>2026-04-07T10:21:30Z</time></trkpt><trkpt lat="44.48436132207058" lon="11.40735425895629"><ele>48.0</ele><time>2026-04-07T10:21:31Z</time></trkpt><trkpt lat="44.48439321401066" lon="11.407633794341267"><ele>48.0</ele><time>2026-04-07T10:21:32Z</time></trkpt><trkpt lat="44.484428955773105" lon="11.407887086701825"><ele>48.0</ele><time>2026-04-07T10:21:33Z</time></trkpt><trkpt lat="44.48447705585001" lon="11.408111218318737"><ele>48.0</ele><time>2026-04-07T10:21:34Z</time></trkpt><trkpt lat="44.48455451459556" lon="11.40830817462925"><ele>48.0</ele><time>2026-04-07T10:21:35Z</time></trkpt><trkpt lat="44.484672647410015" lon="11.408445656309087"><ele>48.0</ele><time>2026-04-07T10:21:36Z</time></trkpt><trkpt lat="44.484809439772164" lon="11.40854722210531"><ele>50.0</ele><time>2026-04-07T10:21:37Z</time></trkpt><trkpt lat="44.484954638184576" lon="11.408648604567794"><ele>52.0</ele><time>2026-04-07T10:21:38Z</time></trkpt><trkpt lat="44.485110756505335" lon="11.408764423407607"><ele>54.0</ele><time>2026-04-07T10:21:39Z</time></trkpt><trkpt lat="44.4852647245355" lon="11.408854357214215"><ele>54.25</ele><time>2026-04-07T10:21:40Z</time></trkpt><trkpt lat="44.48539364124403" lon="11.408929027227863"><ele>54.5</ele><time>2026-04-07T10:21:41Z</time></trkpt><trkpt lat="44.48554455132401" lon="11.408984115273645"><ele>54.75</ele><time>2026-04-07T10:21:42Z</time></trkpt><trkpt lat="44.485650468340566" lon="11.409043827759627"><ele>55.0</ele><time>2026-04-07T10:21:43Z</time></trkpt><trkpt lat="44.48579199279943" lon="11.40904870682011"><ele>53.666666666666664</ele><time>2026-04-07T10:21:44Z</time></trkpt><trkpt lat="44.4859419874966" lon="11.409011372596316"><ele>52.33333333333333</ele><time>2026-04-07T10:21:45Z</time></trkpt><trkpt lat="44.48609516770673" lon="11.408943686018777"><ele>51.0</ele><time>2026-04-07T10:21:46Z</time></trkpt><trkpt lat="44.48623562657726" lon="11.408869229101466"><ele>51.0</ele><time>2026-04-07T10:21:47Z</time></trkpt><trkpt lat="44.486373211069775" lon="11.40878883206909"><ele>51.0</ele><time>2026-04-07T10:21:48Z</time></trkpt><trkpt lat="44.48651738504175" lon="11.408703249852989"><ele>51.0</ele><time>2026-04-07T10:21:49Z</time></trkpt><trkpt lat="44.48665258938911" lon="11.408607692151568"><ele>51.0</ele><time>2026-04-07T10:21:50Z</time></trkpt><trkpt lat="44.486757960694106" lon="11.408479732550944"><ele>51.0</ele><time>2026-04-07T10:21:51Z</time></trkpt><trkpt lat="44.48683504642551" lon="11.408314824780811"><ele>51.0</ele><time>2026-04-07T10:21:52Z</time></trkpt><trkpt lat="44.48688384307904" lon="11.408116686409551"><ele>51.0</ele><time>2026-04-07T10:21:53Z</time></trkpt><trkpt lat="44.486898394533334" lon="11.407902855912395"><ele>51.33333333333333</ele><time>2026-04-07T10:21:54Z</time></trkpt><trkpt lat="44.486850567035226" lon="11.40769291578099"><ele>51.666666666666664</ele><time>2026-04-07T10:21:55Z</time></trkpt><trkpt lat="44.48679133896437" lon="11.407477189109539"><ele>52.0</ele><time>2026-04-07T10:21:56Z</time></trkpt><trkpt lat="44.48674640339763" lon="11.407236869245535"><ele>51.666666666666664</ele><time>2026-04-07T10:21:57Z</time></trkpt><trkpt lat="44.48667480334463" lon="11.407005543867182"><ele>51.33333333333333</ele><time>2026-04-07T10:21:58Z</time></trkpt><trkpt lat="44.4865944593009" lon="11.406764644247037"><ele>51.0</ele><time>2026-04-07T10:21:59Z</time></trkpt><trkpt lat="44.48655635216118" lon="11.406501719219905"><ele>51.33333333333333</ele><time>2026-04-07T10:22:00Z</time></trkpt><trkpt lat="44.48653357345923" lon="11.406244876961578"><ele>51.666666666666664</ele><time>2026-04-07T10:22:01Z</time></trkpt><trkpt lat="44.4865255840806" lon="11.40598740261698"><ele>52.0</ele><time>2026-04-07T10:22:02Z</time></trkpt><trkpt lat="44.48654574938446" lon="11.405716428087082"><ele>52.33333333333333</ele><time>2026-04-07T10:22:03Z</time></trkpt><trkpt lat="44.486594785817815" lon="11.405428108054632"><ele>52.66666666666667</ele><time>2026-04-07T10:22:04Z</time></trkpt><trkpt lat="44.48667069930396" lon="11.405122660122766"><ele>53.0</ele><time>2026-04-07T10:22:05Z</time></trkpt><trkpt lat="44.48676083187139" lon="11.404806943125847"><ele>53.0</ele><time>2026-04-07T10:22:06Z</time></trkpt><trkpt lat="44.48684257985208" lon="11.404499713976568"><ele>53.0</ele><time>2026-04-07T10:22:07Z</time></trkpt><trkpt lat="44.48691102854477" lon="11.404218239785974"><ele>53.0</ele><time>2026-04-07T10:22:08Z</time></trkpt><trkpt lat="44.48697118031172" lon="11.403964102932173"><ele>53.333333333333336</ele><time>2026-04-07T10:22:09Z</time></trkpt><trkpt lat="44.48703285972005" lon="11.403706252252318"><ele>53.66666666666667</ele><time>2026-04-07T10:22:10Z</time></trkpt><trkpt lat="44.4871036719788" lon="11.403439294319902"><ele>54.0</ele><time>2026-04-07T10:22:11Z</time></trkpt><trkpt lat="44.48718213844303" lon="11.403163856949934"><ele>53.5</ele><time>2026-04-07T10:22:12Z</time></trkpt><trkpt lat="44.48726554665202" lon="11.402866598452107"><ele>53.0</ele><time>2026-04-07T10:22:13Z</time></trkpt><trkpt lat="44.48735738133074" lon="11.402540976051535"><ele>53.0</ele><time>2026-04-07T10:22:14Z</time></trkpt><trkpt lat="44.48746027154284" lon="11.402197957025136"><ele>53.0</ele><time>2026-04-07T10:22:15Z</time></trkpt><trkpt lat="44.48756766835195" lon="11.401872801980138"><ele>53.0</ele><time>2026-04-07T10:22:16Z</time></trkpt><trkpt lat="44.487678603967716" lon="11.40154513707401"><ele>53.0</ele><time>2026-04-07T10:22:17Z</time></trkpt><trkpt lat="44.487788226023255" lon="11.401214467643229"><ele>52.5</ele><time>2026-04-07T10:22:18Z</time></trkpt><trkpt lat="44.487893128572146" lon="11.40086351668321"><ele>52.0</ele><time>2026-04-07T10:22:19Z</time></trkpt><trkpt lat="44.48800433997278" lon="11.400497386995198"><ele>51.5</ele><time>2026-04-07T10:22:20Z</time></trkpt><trkpt lat="44.488126990503915" lon="11.400122077986046"><ele>51.0</ele><time>2026-04-07T10:22:21Z</time></trkpt><trkpt lat="44.48825328555667" lon="11.399748053661158"><ele>51.5</ele><time>2026-04-07T10:22:22Z</time></trkpt><trkpt lat="44.4883728163747" lon="11.399389515654805"><ele>52.0</ele><time>2026-04-07T10:22:23Z</time></trkpt><trkpt lat="44.48848462114613" lon="11.399052255451684"><ele>52.0</ele><time>2026-04-07T10:22:24Z</time></trkpt><trkpt lat="44.48859086152867" lon="11.398721827713924"><ele>52.0</ele><time>2026-04-07T10:22:25Z</time></trkpt><trkpt lat="44.488700231847034" lon="11.39840915345108"><ele>52.5</ele><time>2026-04-07T10:22:26Z</time></trkpt><trkpt lat="44.488808383888674" lon="11.398092705316056"><ele>53.0</ele><time>2026-04-07T10:22:27Z</time></trkpt><trkpt lat="44.4889174535139" lon="11.397772302919464"><ele>53.0</ele><time>2026-04-07T10:22:28Z</time></trkpt><trkpt lat="44.48902952221883" lon="11.397454879129912"><ele>53.0</ele><time>2026-04-07T10:22:29Z</time></trkpt><trkpt lat="44.489145060498416" lon="11.397140764544554"><ele>52.5</ele><time>2026-04-07T10:22:30Z</time></trkpt><trkpt lat="44.489266573562766" lon="11.396836338231001"><ele>52.0</ele><time>2026-04-07T10:22:31Z</time></trkpt><trkpt lat="44.48939486442013" lon="11.396536604241877"><ele>52.0</ele><time>2026-04-07T10:22:32Z</time></trkpt><trkpt lat="44.4895287566718" lon="11.396240474654244"><ele>52.0</ele><time>2026-04-07T10:22:33Z</time></trkpt><trkpt lat="44.48967268855091" lon="11.395942688585922"><ele>52.0</ele><time>2026-04-07T10:22:34Z</time></trkpt><trkpt lat="44.489818801606845" lon="11.395655337997217"><ele>52.0</ele><time>2026-04-07T10:22:35Z</time></trkpt><trkpt lat="44.48997193157964" lon="11.395366315211783"><ele>52.5</ele><time>2026-04-07T10:22:36Z</time></trkpt><trkpt lat="44.49013150912418" lon="11.395082738404222"><ele>53.0</ele><time>2026-04-07T10:22:37Z</time></trkpt><trkpt lat="44.49029962955617" lon="11.394806199406158"><ele>53.5</ele><time>2026-04-07T10:22:38Z</time></trkpt><trkpt lat="44.490473177196364" lon="11.394538743109464"><ele>54.0</ele><time>2026-04-07T10:22:39Z</time></trkpt><trkpt lat="44.49065550187005" lon="11.394277732741608"><ele>54.0</ele><time>2026-04-07T10:22:40Z</time></trkpt><trkpt lat="44.49083986883525" lon="11.394024822378361"><ele>54.0</ele><time>2026-04-07T10:22:41Z</time></trkpt><trkpt lat="44.491028008354675" lon="11.393778312026662"><ele>54.0</ele><time>2026-04-07T10:22:42Z</time></trkpt><trkpt lat="44.49122098629428" lon="11.393542131528186"><ele>54.0</ele><time>2026-04-07T10:22:43Z</time></trkpt><trkpt lat="44.4914201364968" lon="11.393313415808416"><ele>53.0</ele><time>2026-04-07T10:22:44Z</time></trkpt><trkpt lat="44.49162200930421" lon="11.393093740102744"><ele>52.0</ele><time>2026-04-07T10:22:45Z</time></trkpt><trkpt lat="44.49182502721031" lon="11.392883097693309"><ele>52.0</ele><time>2026-04-07T10:22:46Z</time></trkpt><trkpt lat="44.492036791301274" lon="11.392680665373494"><ele>52.0</ele><time>2026-04-07T10:22:47Z</time></trkpt><trkpt lat="44.49224892481823" lon="11.392486399112524"><ele>52.5</ele><time>2026-04-07T10:22:48Z</time></trkpt><trkpt lat="44.492462669240304" lon="11.39229433733921"><ele>53.0</ele><time>2026-04-07T10:22:49Z</time></trkpt><trkpt lat="44.492676138406324" lon="11.392104803940205"><ele>53.0</ele><time>2026-04-07T10:22:50Z</time></trkpt><trkpt lat="44.49288871598148" lon="11.39191950300964"><ele>53.0</ele><time>2026-04-07T10:22:51Z</time></trkpt><trkpt lat="44.49310303267341" lon="11.39173595662623"><ele>52.0</ele><time>2026-04-07T10:22:52Z</time></trkpt><trkpt lat="44.49331478511151" lon="11.391545265623224"><ele>51.0</ele><time>2026-04-07T10:22:53Z</time></trkpt><trkpt lat="44.493526163144644" lon="11.391353135163705"><ele>51.0</ele><time>2026-04-07T10:22:54Z</time></trkpt><trkpt lat="44.493743890123625" lon="11.391160991003813"><ele>51.0</ele><time>2026-04-07T10:22:55Z</time></trkpt><trkpt lat="44.49395973288444" lon="11.390969442288572"><ele>50.5</ele><time>2026-04-07T10:22:56Z</time></trkpt><trkpt lat="44.49417480407032" lon="11.390783068409917"><ele>50.0</ele><time>2026-04-07T10:22:57Z</time></trkpt><trkpt lat="44.494389130066054" lon="11.390593446625939"><ele>49.0</ele><time>2026-04-07T10:22:58Z</time></trkpt><trkpt lat="44.49460280139067" lon="11.390399744758225"><ele>48.0</ele><time>2026-04-07T10:22:59Z</time></trkpt><trkpt lat="44.49481553893955" lon="11.390210293546664"><ele>48.0</ele><time>2026-04-07T10:23:00Z</time></trkpt><trkpt lat="44.49503096261054" lon="11.390018910212163"><ele>48.0</ele><time>2026-04-07T10:23:01Z</time></trkpt><trkpt lat="44.49524281058345" lon="11.389831384122015"><ele>49.0</ele><time>2026-04-07T10:23:02Z</time></trkpt><trkpt lat="44.4954588035184" lon="11.389642905263038"><ele>50.0</ele><time>2026-04-07T10:23:03Z</time></trkpt><trkpt lat="44.495673304047145" lon="11.389456319486825"><ele>50.0</ele><time>2026-04-07T10:23:04Z</time></trkpt><trkpt lat="44.49588025729538" lon="11.38927933453183"><ele>50.0</ele><time>2026-04-07T10:23:05Z</time></trkpt><trkpt lat="44.49607922065917" lon="11.389102313946308"><ele>49.333333333333336</ele><time>2026-04-07T10:23:06Z</time></trkpt><trkpt lat="44.49626814213587" lon="11.388934217022559"><ele>48.66666666666667</ele><time>2026-04-07T10:23:07Z</time></trkpt><trkpt lat="44.49645495226631" lon="11.388767936120855"><ele>48.0</ele><time>2026-04-07T10:23:08Z</time></trkpt><trkpt lat="44.49664664732272" lon="11.388600324744642"><ele>48.0</ele><time>2026-04-07T10:23:09Z</time></trkpt><trkpt lat="44.496838254772726" lon="11.388433059189142"><ele>48.0</ele><time>2026-04-07T10:23:10Z</time></trkpt><trkpt lat="44.4970365059234" lon="11.388260664115375"><ele>49.0</ele><time>2026-04-07T10:23:11Z</time></trkpt><trkpt lat="44.49723216299301" lon="11.388090530325979"><ele>50.0</ele><time>2026-04-07T10:23:12Z</time></trkpt><trkpt lat="44.49742844502108" lon="11.387916879708943"><ele>50.0</ele><time>2026-04-07T10:23:13Z</time></trkpt><trkpt lat="44.497624099652455" lon="11.387746251127217"><ele>50.0</ele><time>2026-04-07T10:23:14Z</time></trkpt><trkpt lat="44.49782340910613" lon="11.387567741464364"><ele>49.0</ele><time>2026-04-07T10:23:15Z</time></trkpt><trkpt lat="44.49802685975658" lon="11.38739185733221"><ele>48.0</ele><time>2026-04-07T10:23:16Z</time></trkpt><trkpt lat="44.49823034486842" lon="11.387212154013943"><ele>50.5</ele><time>2026-04-07T10:23:17Z</time></trkpt><trkpt lat="44.49843347288095" lon="11.387033370308842"><ele>53.0</ele><time>2026-04-07T10:23:18Z</time></trkpt><trkpt lat="44.49863375454228" lon="11.386855118474713"><ele>51.5</ele><time>2026-04-07T10:23:19Z</time></trkpt><trkpt lat="44.498834557802454" lon="11.386677050613219"><ele>50.0</ele><time>2026-04-07T10:23:20Z</time></trkpt><trkpt lat="44.49903620961588" lon="11.386500423733855"><ele>50.5</ele><time>2026-04-07T10:23:21Z</time></trkpt><trkpt lat="44.49923745219788" lon="11.38632322617198"><ele>51.0</ele><time>2026-04-07T10:23:22Z</time></trkpt><trkpt lat="44.499438015405865" lon="11.386146192093285"><ele>48.5</ele><time>2026-04-07T10:23:23Z</time></trkpt><trkpt lat="44.499637712182135" lon="11.385962256030593"><ele>46.0</ele><time>2026-04-07T10:23:24Z</time></trkpt><trkpt lat="44.49983980861547" lon="11.38578414330991"><ele>46.0</ele><time>2026-04-07T10:23:25Z</time></trkpt><trkpt lat="44.50004091838396" lon="11.385607188528272"><ele>46.0</ele><time>2026-04-07T10:23:26Z</time></trkpt><trkpt lat="44.50024002073035" lon="11.385434303206052"><ele>47.5</ele><time>2026-04-07T10:23:27Z</time></trkpt><trkpt lat="44.50043537569461" lon="11.385267161747405"><ele>49.0</ele><time>2026-04-07T10:23:28Z</time></trkpt><trkpt lat="44.50063560748398" lon="11.385091657326386"><ele>49.0</ele><time>2026-04-07T10:23:29Z</time></trkpt><trkpt lat="44.50083531810201" lon="11.384914849373565"><ele>49.0</ele><time>2026-04-07T10:23:30Z</time></trkpt><trkpt lat="44.5010359531947" lon="11.384734700216624"><ele>50.0</ele><time>2026-04-07T10:23:31Z</time></trkpt><trkpt lat="44.501235033882246" lon="11.384555031304327"><ele>51.0</ele><time>2026-04-07T10:23:32Z</time></trkpt><trkpt lat="44.50143877263073" lon="11.384375696764819"><ele>49.0</ele><time>2026-04-07T10:23:33Z</time></trkpt><trkpt lat="44.50164147569234" lon="11.384198104641033"><ele>47.0</ele><time>2026-04-07T10:23:34Z</time></trkpt><trkpt lat="44.5018458131173" lon="11.384018791596302"><ele>47.5</ele><time>2026-04-07T10:23:35Z</time></trkpt><trkpt lat="44.50205111236447" lon="11.383838620411153"><ele>48.0</ele><time>2026-04-07T10:23:36Z</time></trkpt><trkpt lat="44.502259728065326" lon="11.383657155872951"><ele>48.0</ele><time>2026-04-07T10:23:37Z</time></trkpt><trkpt lat="44.502468000922605" lon="11.383477118266955"><ele>48.0</ele><time>2026-04-07T10:23:38Z</time></trkpt><trkpt lat="44.50267693850027" lon="11.383300885455684"><ele>48.0</ele><time>2026-04-07T10:23:39Z</time></trkpt><trkpt lat="44.502879921814966" lon="11.383125913487202"><ele>48.0</ele><time>2026-04-07T10:23:40Z</time></trkpt><trkpt lat="44.50308114962611" lon="11.382951655337836"><ele>46.0</ele><time>2026-04-07T10:23:41Z</time></trkpt><trkpt lat="44.50328733792009" lon="11.382784580264367"><ele>44.0</ele><time>2026-04-07T10:23:42Z</time></trkpt><trkpt lat="44.50349971309374" lon="11.382627358125367"><ele>44.0</ele><time>2026-04-07T10:23:43Z</time></trkpt><trkpt lat="44.503716129996015" lon="11.382486824294249"><ele>44.0</ele><time>2026-04-07T10:23:44Z</time></trkpt><trkpt lat="44.50393498771987" lon="11.382360665813742"><ele>44.0</ele><time>2026-04-07T10:23:45Z</time></trkpt><trkpt lat="44.50416002720192" lon="11.382245210155512"><ele>44.0</ele><time>2026-04-07T10:23:46Z</time></trkpt><trkpt lat="44.504386189021346" lon="11.382140395516243"><ele>45.0</ele><time>2026-04-07T10:23:47Z</time></trkpt><trkpt lat="44.50461483078607" lon="11.382047929722484"><ele>46.0</ele><time>2026-04-07T10:23:48Z</time></trkpt><trkpt lat="44.504846819421594" lon="11.381966504474537"><ele>46.0</ele><time>2026-04-07T10:23:49Z</time></trkpt><trkpt lat="44.50507652860957" lon="11.381900613848728"><ele>46.0</ele><time>2026-04-07T10:23:50Z</time></trkpt><trkpt lat="44.5053092843561" lon="11.381846311653392"><ele>46.0</ele><time>2026-04-07T10:23:51Z</time></trkpt><trkpt lat="44.50554262343852" lon="11.381804544469793"><ele>46.0</ele><time>2026-04-07T10:23:52Z</time></trkpt><trkpt lat="44.505778877661356" lon="11.38177296862342"><ele>46.0</ele><time>2026-04-07T10:23:53Z</time></trkpt><trkpt lat="44.50600484654425" lon="11.381735268787608"><ele>46.0</ele><time>2026-04-07T10:23:54Z</time></trkpt><trkpt lat="44.506236722594885" lon="11.3817104222175"><ele>45.5</ele><time>2026-04-07T10:23:55Z</time></trkpt><trkpt lat="44.50646843253068" lon="11.381690296574469"><ele>45.0</ele><time>2026-04-07T10:23:56Z</time></trkpt><trkpt lat="44.506701760485775" lon="11.38167415653261"><ele>45.0</ele><time>2026-04-07T10:23:57Z</time></trkpt><trkpt lat="44.506934353736575" lon="11.38166041928964"><ele>45.0</ele><time>2026-04-07T10:23:58Z</time></trkpt><trkpt lat="44.507164597307415" lon="11.381646722044161"><ele>44.5</ele><time>2026-04-07T10:23:59Z</time></trkpt><trkpt lat="44.50739757267043" lon="11.381631980056293"><ele>44.0</ele><time>2026-04-07T10:24:00Z</time></trkpt><trkpt lat="44.507630267100495" lon="11.381616927321714"><ele>44.0</ele><time>2026-04-07T10:24:01Z</time></trkpt><trkpt lat="44.507863483912836" lon="11.381600230334"><ele>44.0</ele><time>2026-04-07T10:24:02Z</time></trkpt><trkpt lat="44.508099568135556" lon="11.381578776721282"><ele>43.5</ele><time>2026-04-07T10:24:03Z</time></trkpt><trkpt lat="44.50833635093578" lon="11.38154833582143"><ele>43.0</ele><time>2026-04-07T10:24:04Z</time></trkpt><trkpt lat="44.50857087195859" lon="11.38151012116119"><ele>44.0</ele><time>2026-04-07T10:24:05Z</time></trkpt><trkpt lat="44.50881014674436" lon="11.381461171299817"><ele>45.0</ele><time>2026-04-07T10:24:06Z</time></trkpt><trkpt lat="44.50904324268937" lon="11.381401795953234"><ele>46.0</ele><time>2026-04-07T10:24:07Z</time></trkpt><trkpt lat="44.50927805184249" lon="11.381328822513542"><ele>47.0</ele><time>2026-04-07T10:24:08Z</time></trkpt><trkpt lat="44.50951357143082" lon="11.381244577153987"><ele>45.0</ele><time>2026-04-07T10:24:09Z</time></trkpt><trkpt lat="44.50974201151712" lon="11.381144668809053"><ele>43.0</ele><time>2026-04-07T10:24:10Z</time></trkpt><trkpt lat="44.5099731813343" lon="11.381033473681104"><ele>43.0</ele><time>2026-04-07T10:24:11Z</time></trkpt><trkpt lat="44.510208451641034" lon="11.380915800505605"><ele>43.0</ele><time>2026-04-07T10:24:12Z</time></trkpt><trkpt lat="44.510420096168865" lon="11.380788945059296"><ele>42.5</ele><time>2026-04-07T10:24:13Z</time></trkpt><trkpt lat="44.51064070710826" lon="11.380648255245617"><ele>42.0</ele><time>2026-04-07T10:24:14Z</time></trkpt><trkpt lat="44.510855327441895" lon="11.380498290449964"><ele>42.0</ele><time>2026-04-07T10:24:15Z</time></trkpt><trkpt lat="44.511064716436174" lon="11.380341396721395"><ele>42.0</ele><time>2026-04-07T10:24:16Z</time></trkpt><trkpt lat="44.511274815889564" lon="11.380177688241291"><ele>42.0</ele><time>2026-04-07T10:24:17Z</time></trkpt><trkpt lat="44.511484756899605" lon="11.380010863126467"><ele>42.0</ele><time>2026-04-07T10:24:18Z</time></trkpt><trkpt lat="44.5116950145701" lon="11.379846798417166"><ele>41.0</ele><time>2026-04-07T10:24:19Z</time></trkpt><trkpt lat="44.5119078059578" lon="11.379681414115744"><ele>40.0</ele><time>2026-04-07T10:24:20Z</time></trkpt><trkpt lat="44.51211917435714" lon="11.379518486625498"><ele>42.0</ele><time>2026-04-07T10:24:21Z</time></trkpt><trkpt lat="44.512331663906956" lon="11.379353399675212"><ele>44.0</ele><time>2026-04-07T10:24:22Z</time></trkpt><trkpt lat="44.512541682443064" lon="11.379188555454595"><ele>44.0</ele><time>2026-04-07T10:24:23Z</time></trkpt><trkpt lat="44.51275013868261" lon="11.379022191922775"><ele>44.0</ele><time>2026-04-07T10:24:23.999Z</time></trkpt><trkpt lat="44.512963471490906" lon="11.378853644184831"><ele>42.5</ele><time>2026-04-07T10:24:24.999Z</time></trkpt><trkpt lat="44.51317460941568" lon="11.37868757334858"><ele>41.0</ele><time>2026-04-07T10:24:25.999Z</time></trkpt><trkpt lat="44.513383725724466" lon="11.378522481441868"><ele>41.0</ele><time>2026-04-07T10:24:26.999Z</time></trkpt><trkpt lat="44.513594466777874" lon="11.378359818603398"><ele>41.0</ele><time>2026-04-07T10:24:27.999Z</time></trkpt><trkpt lat="44.51380392957674" lon="11.378196307330837"><ele>41.0</ele><time>2026-04-07T10:24:28.999Z</time></trkpt><trkpt lat="44.514014426031565" lon="11.378030582902849"><ele>41.0</ele><time>2026-04-07T10:24:29.999Z</time></trkpt><trkpt lat="44.51422749534019" lon="11.377860402182478"><ele>41.0</ele><time>2026-04-07T10:24:30.999Z</time></trkpt><trkpt lat="44.51443646816655" lon="11.377691737101097"><ele>41.0</ele><time>2026-04-07T10:24:31.999Z</time></trkpt><trkpt lat="44.5146401751071" lon="11.37752175725414"><ele>41.5</ele><time>2026-04-07T10:24:32.999Z</time></trkpt><trkpt lat="44.5148374799965" lon="11.377363366561742"><ele>42.0</ele><time>2026-04-07T10:24:33.999Z</time></trkpt><trkpt lat="44.515038597222656" lon="11.377214253928955"><ele>42.0</ele><time>2026-04-07T10:24:34.999Z</time></trkpt><trkpt lat="44.51524723918954" lon="11.377053327863045"><ele>42.0</ele><time>2026-04-07T10:24:36Z</time></trkpt><trkpt lat="44.51545252212555" lon="11.376891171436373"><ele>42.0</ele><time>2026-04-07T10:24:37Z</time></trkpt><trkpt lat="44.515660238644216" lon="11.376729873117409"><ele>42.0</ele><time>2026-04-07T10:24:38Z</time></trkpt><trkpt lat="44.515866452015715" lon="11.376567896325614"><ele>42.0</ele><time>2026-04-07T10:24:39Z</time></trkpt><trkpt lat="44.51607403915195" lon="11.376407093930313"><ele>42.0</ele><time>2026-04-07T10:24:40Z</time></trkpt><trkpt lat="44.51627972685952" lon="11.376247967504174"><ele>40.0</ele><time>2026-04-07T10:24:41Z</time></trkpt><trkpt lat="44.516496014517614" lon="11.376078545408072"><ele>38.0</ele><time>2026-04-07T10:24:42Z</time></trkpt><trkpt lat="44.516712242276014" lon="11.375905065571377"><ele>38.0</ele><time>2026-04-07T10:24:43Z</time></trkpt><trkpt lat="44.51692724708892" lon="11.375730051872067"><ele>38.0</ele><time>2026-04-07T10:24:44Z</time></trkpt><trkpt lat="44.51713942132287" lon="11.375540827963668"><ele>36.5</ele><time>2026-04-07T10:24:45Z</time></trkpt><trkpt lat="44.51734687095303" lon="11.375346776470579"><ele>35.0</ele><time>2026-04-07T10:24:46Z</time></trkpt><trkpt lat="44.51754248295628" lon="11.375151878749515"><ele>35.0</ele><time>2026-04-07T10:24:47Z</time></trkpt><trkpt lat="44.51772855521973" lon="11.374953182923775"><ele>35.0</ele><time>2026-04-07T10:24:48Z</time></trkpt><trkpt lat="44.517915651667124" lon="11.374742075657265"><ele>35.0</ele><time>2026-04-07T10:24:49Z</time></trkpt><trkpt lat="44.51809958326175" lon="11.374517931916763"><ele>35.0</ele><time>2026-04-07T10:24:50Z</time></trkpt><trkpt lat="44.518279420160816" lon="11.374282496559525"><ele>35.0</ele><time>2026-04-07T10:24:51Z</time></trkpt><trkpt lat="44.51845018183106" lon="11.374028036170237"><ele>35.0</ele><time>2026-04-07T10:24:52Z</time></trkpt><trkpt lat="44.51861119447808" lon="11.373754691118826"><ele>35.5</ele><time>2026-04-07T10:24:53Z</time></trkpt><trkpt lat="44.518761315915576" lon="11.373469959099678"><ele>36.0</ele><time>2026-04-07T10:24:54Z</time></trkpt><trkpt lat="44.518908382672905" lon="11.373191867578115"><ele>37.0</ele><time>2026-04-07T10:24:55Z</time></trkpt><trkpt lat="44.51904842725426" lon="11.372925174985618"><ele>38.0</ele><time>2026-04-07T10:24:56Z</time></trkpt><trkpt lat="44.51918785911158" lon="11.372662200410227"><ele>38.0</ele><time>2026-04-07T10:24:57Z</time></trkpt><trkpt lat="44.5194564001779" lon="11.372145869336808"><ele>38.5</ele><time>2026-04-07T10:24:59Z</time></trkpt><trkpt lat="44.51959579705386" lon="11.371883817947987"><ele>39.0</ele><time>2026-04-07T10:25:00Z</time></trkpt><trkpt lat="44.51972744282407" lon="11.371619190011677"><ele>39.5</ele><time>2026-04-07T10:25:01Z</time></trkpt><trkpt lat="44.51985676192747" lon="11.371351943949193"><ele>40.0</ele><time>2026-04-07T10:25:02Z</time></trkpt><trkpt lat="44.5199765731381" lon="11.371076297152525"><ele>40.0</ele><time>2026-04-07T10:25:03Z</time></trkpt><trkpt lat="44.5200867972706" lon="11.370793916936556"><ele>40.0</ele><time>2026-04-07T10:25:04Z</time></trkpt><trkpt lat="44.520189839298965" lon="11.370501575179311"><ele>39.0</ele><time>2026-04-07T10:25:05Z</time></trkpt><trkpt lat="44.5202915415906" lon="11.370202379637018"><ele>38.0</ele><time>2026-04-07T10:25:06Z</time></trkpt><trkpt lat="44.520389530643556" lon="11.36989882179835"><ele>37.5</ele><time>2026-04-07T10:25:07Z</time></trkpt><trkpt lat="44.520485104864086" lon="11.36959320291464"><ele>37.0</ele><time>2026-04-07T10:25:08Z</time></trkpt><trkpt lat="44.520580650609" lon="11.369288638387768"><ele>37.0</ele><time>2026-04-07T10:25:09Z</time></trkpt><trkpt lat="44.520678273179016" lon="11.36898695936094"><ele>37.0</ele><time>2026-04-07T10:25:10Z</time></trkpt><trkpt lat="44.52078316800046" lon="11.368686743395338"><ele>36.5</ele><time>2026-04-07T10:25:11Z</time></trkpt><trkpt lat="44.5208965731721" lon="11.36839763032549"><ele>36.0</ele><time>2026-04-07T10:25:12Z</time></trkpt><trkpt lat="44.52101451975805" lon="11.36811246853087"><ele>36.5</ele><time>2026-04-07T10:25:13Z</time></trkpt><trkpt lat="44.52113950360922" lon="11.367835799045697"><ele>37.0</ele><time>2026-04-07T10:25:14Z</time></trkpt><trkpt lat="44.52126823792039" lon="11.367567608304753"><ele>37.0</ele><time>2026-04-07T10:25:15Z</time></trkpt><trkpt lat="44.52139816664556" lon="11.367300941601153"><ele>37.0</ele><time>2026-04-07T10:25:16Z</time></trkpt><trkpt lat="44.521527174310506" lon="11.367038699263803"><ele>37.0</ele><time>2026-04-07T10:25:17Z</time></trkpt><trkpt lat="44.52165567669796" lon="11.366773284796379"><ele>37.0</ele><time>2026-04-07T10:25:18Z</time></trkpt><trkpt lat="44.52177791030109" lon="11.366513913000224"><ele>37.0</ele><time>2026-04-07T10:25:19Z</time></trkpt><trkpt lat="44.521902978479886" lon="11.366249975734629"><ele>37.0</ele><time>2026-04-07T10:25:20Z</time></trkpt><trkpt lat="44.522025649235175" lon="11.36599174096314"><ele>37.0</ele><time>2026-04-07T10:25:21Z</time></trkpt><trkpt lat="44.52214771169233" lon="11.365733600695604"><ele>37.66666666666667</ele><time>2026-04-07T10:25:22Z</time></trkpt><trkpt lat="44.52226817684483" lon="11.365474935968093"><ele>38.333333333333336</ele><time>2026-04-07T10:25:23Z</time></trkpt><trkpt lat="44.522387093100306" lon="11.365209966103453"><ele>39.0</ele><time>2026-04-07T10:25:24Z</time></trkpt><trkpt lat="44.522504084517735" lon="11.364945981429702"><ele>39.0</ele><time>2026-04-07T10:25:25Z</time></trkpt><trkpt lat="44.52262557029518" lon="11.364684322418844"><ele>39.0</ele><time>2026-04-07T10:25:26Z</time></trkpt><trkpt lat="44.522750151161475" lon="11.364424554020223"><ele>39.0</ele><time>2026-04-07T10:25:27Z</time></trkpt><trkpt lat="44.52287523885908" lon="11.36416398436878"><ele>38.0</ele><time>2026-04-07T10:25:28Z</time></trkpt><trkpt lat="44.52299883464353" lon="11.363906754186022"><ele>37.0</ele><time>2026-04-07T10:25:29Z</time></trkpt><trkpt lat="44.52312063367977" lon="11.36365251643711"><ele>36.0</ele><time>2026-04-07T10:25:30Z</time></trkpt><trkpt lat="44.52324870743631" lon="11.363389634569806"><ele>36.0</ele><time>2026-04-07T10:25:31Z</time></trkpt><trkpt lat="44.523373281599014" lon="11.363125882330724"><ele>36.0</ele><time>2026-04-07T10:25:32Z</time></trkpt><trkpt lat="44.523499081728175" lon="11.362856499386691"><ele>35.5</ele><time>2026-04-07T10:25:33Z</time></trkpt><trkpt lat="44.5236264375104" lon="11.362585931586235"><ele>35.0</ele><time>2026-04-07T10:25:34Z</time></trkpt><trkpt lat="44.523756136643" lon="11.36231570426578"><ele>35.5</ele><time>2026-04-07T10:25:35Z</time></trkpt><trkpt lat="44.523886809476664" lon="11.362045106777012"><ele>36.0</ele><time>2026-04-07T10:25:36Z</time></trkpt><trkpt lat="44.524016987769876" lon="11.361775319818145"><ele>36.0</ele><time>2026-04-07T10:25:37Z</time></trkpt><trkpt lat="44.524141428708596" lon="11.361512899537557"><ele>36.0</ele><time>2026-04-07T10:25:38Z</time></trkpt><trkpt lat="44.52426600481749" lon="11.36125178654063"><ele>36.0</ele><time>2026-04-07T10:25:39Z</time></trkpt><trkpt lat="44.5243921438108" lon="11.36098627129672"><ele>36.5</ele><time>2026-04-07T10:25:40Z</time></trkpt><trkpt lat="44.524518888062836" lon="11.360719280731919"><ele>37.0</ele><time>2026-04-07T10:25:41Z</time></trkpt><trkpt lat="44.52465007202702" lon="11.360448709525912"><ele>38.0</ele><time>2026-04-07T10:25:42Z</time></trkpt><trkpt lat="44.52478522148111" lon="11.360188749393915"><ele>39.0</ele><time>2026-04-07T10:25:43Z</time></trkpt><trkpt lat="44.52493547657623" lon="11.359940566199406"><ele>39.0</ele><time>2026-04-07T10:25:44Z</time></trkpt><trkpt lat="44.52509845864052" lon="11.359709495053083"><ele>39.0</ele><time>2026-04-07T10:25:45Z</time></trkpt><trkpt lat="44.52527538502908" lon="11.359491701384261"><ele>38.0</ele><time>2026-04-07T10:25:46Z</time></trkpt><trkpt lat="44.525455583237694" lon="11.359290311814753"><ele>37.0</ele><time>2026-04-07T10:25:47Z</time></trkpt><trkpt lat="44.52563600812028" lon="11.359108218068865"><ele>37.0</ele><time>2026-04-07T10:25:48Z</time></trkpt><trkpt lat="44.525822287807586" lon="11.358943513286176"><ele>37.0</ele><time>2026-04-07T10:25:49Z</time></trkpt><trkpt lat="44.5260045410566" lon="11.358788036009246"><ele>37.0</ele><time>2026-04-07T10:25:50Z</time></trkpt><trkpt lat="44.52617856807869" lon="11.358632453766923"><ele>37.0</ele><time>2026-04-07T10:25:51Z</time></trkpt><trkpt lat="44.526335569561574" lon="11.358457298889862"><ele>37.0</ele><time>2026-04-07T10:25:52Z</time></trkpt><trkpt lat="44.52647540894798" lon="11.358262108351353"><ele>37.0</ele><time>2026-04-07T10:25:53Z</time></trkpt><trkpt lat="44.52660376258796" lon="11.358043076322227"><ele>37.333333333333336</ele><time>2026-04-07T10:25:54Z</time></trkpt><trkpt lat="44.52672042661143" lon="11.357808341914371"><ele>37.666666666666664</ele><time>2026-04-07T10:25:55Z</time></trkpt><trkpt lat="44.52682166599722" lon="11.357551788553428"><ele>38.0</ele><time>2026-04-07T10:25:56Z</time></trkpt><trkpt lat="44.52691292659666" lon="11.357273951087722"><ele>37.0</ele><time>2026-04-07T10:25:57Z</time></trkpt><trkpt lat="44.526992024079256" lon="11.356978016678216"><ele>36.0</ele><time>2026-04-07T10:25:58Z</time></trkpt><trkpt lat="44.52704917389839" lon="11.356661989161037"><ele>36.0</ele><time>2026-04-07T10:25:59Z</time></trkpt><trkpt lat="44.52708653969687" lon="11.356334956498166"><ele>36.0</ele><time>2026-04-07T10:26:00Z</time></trkpt><trkpt lat="44.52711452837821" lon="11.355998344021057"><ele>36.0</ele><time>2026-04-07T10:26:01Z</time></trkpt><trkpt lat="44.52715106523622" lon="11.355670677176272"><ele>36.0</ele><time>2026-04-07T10:26:02Z</time></trkpt><trkpt lat="44.527196087162594" lon="11.355354716792668"><ele>35.666666666666664</ele><time>2026-04-07T10:26:03Z</time></trkpt><trkpt lat="44.52724424265647" lon="11.35505025547617"><ele>35.33333333333333</ele><time>2026-04-07T10:26:04Z</time></trkpt><trkpt lat="44.52729486774459" lon="11.354750641279526"><ele>35.0</ele><time>2026-04-07T10:26:05Z</time></trkpt><trkpt lat="44.527353510642705" lon="11.354457782640594"><ele>34.666666666666664</ele><time>2026-04-07T10:26:06Z</time></trkpt><trkpt lat="44.52742778750513" lon="11.354169513893448"><ele>34.333333333333336</ele><time>2026-04-07T10:26:07Z</time></trkpt><trkpt lat="44.527514227545176" lon="11.353885031018962"><ele>34.0</ele><time>2026-04-07T10:26:08Z</time></trkpt><trkpt lat="44.52760359932912" lon="11.353606093935621"><ele>34.0</ele><time>2026-04-07T10:26:09Z</time></trkpt><trkpt lat="44.52769111573135" lon="11.353326461613818"><ele>34.0</ele><time>2026-04-07T10:26:10Z</time></trkpt><trkpt lat="44.52777960620849" lon="11.353048028644121"><ele>34.0</ele><time>2026-04-07T10:26:11Z</time></trkpt><trkpt lat="44.52787004010218" lon="11.352771446424784"><ele>34.0</ele><time>2026-04-07T10:26:12Z</time></trkpt><trkpt lat="44.52795833730574" lon="11.352497190308657"><ele>34.0</ele><time>2026-04-07T10:26:13Z</time></trkpt><trkpt lat="44.52804647973062" lon="11.352221116742431"><ele>34.0</ele><time>2026-04-07T10:26:14Z</time></trkpt><trkpt lat="44.5281320307116" lon="11.35194719937188"><ele>34.333333333333336</ele><time>2026-04-07T10:26:15Z</time></trkpt><trkpt lat="44.52822211190251" lon="11.351672198283616"><ele>34.666666666666664</ele><time>2026-04-07T10:26:16Z</time></trkpt><trkpt lat="44.52831160706721" lon="11.351394785761755"><ele>35.0</ele><time>2026-04-07T10:26:17Z</time></trkpt><trkpt lat="44.528402087433555" lon="11.35111196701087"><ele>35.0</ele><time>2026-04-07T10:26:18Z</time></trkpt><trkpt lat="44.52849322650016" lon="11.350832898822253"><ele>35.0</ele><time>2026-04-07T10:26:19Z</time></trkpt><trkpt lat="44.528583776549354" lon="11.35055146115139"><ele>35.0</ele><time>2026-04-07T10:26:20Z</time></trkpt><trkpt lat="44.52867389499564" lon="11.350270033552368"><ele>34.666666666666664</ele><time>2026-04-07T10:26:21Z</time></trkpt><trkpt lat="44.52876401207214" lon="11.349992575824439"><ele>34.333333333333336</ele><time>2026-04-07T10:26:22Z</time></trkpt><trkpt lat="44.52885376989829" lon="11.349710911386369"><ele>34.0</ele><time>2026-04-07T10:26:23Z</time></trkpt><trkpt lat="44.52894444170978" lon="11.349432650764498"><ele>35.333333333333336</ele><time>2026-04-07T10:26:24Z</time></trkpt><trkpt lat="44.5290370941083" lon="11.34914745850798"><ele>36.666666666666664</ele><time>2026-04-07T10:26:25Z</time></trkpt><trkpt lat="44.52912994875063" lon="11.348863177349527"><ele>38.0</ele><time>2026-04-07T10:26:26Z</time></trkpt><trkpt lat="44.52921922763695" lon="11.348583382312976"><ele>38.0</ele><time>2026-04-07T10:26:27Z</time></trkpt><trkpt lat="44.52930693294015" lon="11.348294931088951"><ele>38.0</ele><time>2026-04-07T10:26:28Z</time></trkpt><trkpt lat="44.5293937432795" lon="11.347993665488225"><ele>37.5</ele><time>2026-04-07T10:26:29Z</time></trkpt><trkpt lat="44.5294786440604" lon="11.347683749332814"><ele>37.0</ele><time>2026-04-07T10:26:30Z</time></trkpt><trkpt lat="44.529561689957426" lon="11.347373040184019"><ele>36.5</ele><time>2026-04-07T10:26:31Z</time></trkpt><trkpt lat="44.529640248769894" lon="11.34706718127828"><ele>36.0</ele><time>2026-04-07T10:26:32Z</time></trkpt><trkpt lat="44.529723148328934" lon="11.346749705905758"><ele>36.0</ele><time>2026-04-07T10:26:33Z</time></trkpt><trkpt lat="44.52980392836946" lon="11.346431968494624"><ele>36.0</ele><time>2026-04-07T10:26:34Z</time></trkpt><trkpt lat="44.52987854624676" lon="11.346123605838738"><ele>35.666666666666664</ele><time>2026-04-07T10:26:35Z</time></trkpt><trkpt lat="44.52994784724065" lon="11.3458241746587"><ele>35.33333333333333</ele><time>2026-04-07T10:26:36Z</time></trkpt><trkpt lat="44.53001397922324" lon="11.34553728580739"><ele>35.0</ele><time>2026-04-07T10:26:37Z</time></trkpt><trkpt lat="44.530077306020495" lon="11.345253973682759"><ele>35.0</ele><time>2026-04-07T10:26:38Z</time></trkpt><trkpt lat="44.53013638318864" lon="11.344974167806223"><ele>35.0</ele><time>2026-04-07T10:26:39Z</time></trkpt><trkpt lat="44.530188893384846" lon="11.34470627113537"><ele>35.0</ele><time>2026-04-07T10:26:40Z</time></trkpt><trkpt lat="44.53023671699452" lon="11.344450835152909"><ele>34.0</ele><time>2026-04-07T10:26:40.999Z</time></trkpt><trkpt lat="44.53028096041632" lon="11.344207518186064"><ele>33.0</ele><time>2026-04-07T10:26:41.999Z</time></trkpt><trkpt lat="44.53032532460215" lon="11.343974503958238"><ele>32.0</ele><time>2026-04-07T10:26:42.999Z</time></trkpt><trkpt lat="44.53036700905457" lon="11.34374688282454"><ele>31.0</ele><time>2026-04-07T10:26:43.999Z</time></trkpt><trkpt lat="44.53040800614125" lon="11.343527398626103"><ele>30.0</ele><time>2026-04-07T10:26:44.999Z</time></trkpt><trkpt lat="44.530451536627716" lon="11.343295267767068"><ele>29.0</ele><time>2026-04-07T10:26:45.999Z</time></trkpt><trkpt lat="44.53049607373285" lon="11.343059389636869"><ele>28.666666666666664</ele><time>2026-04-07T10:26:46.999Z</time></trkpt><trkpt lat="44.5305391866628" lon="11.34282334657985"><ele>28.333333333333336</ele><time>2026-04-07T10:26:47.999Z</time></trkpt><trkpt lat="44.530583973244894" lon="11.34257736399207"><ele>28.0</ele><time>2026-04-07T10:26:48.999Z</time></trkpt><trkpt lat="44.53062946264316" lon="11.34232466852109"><ele>27.333333333333336</ele><time>2026-04-07T10:26:49.999Z</time></trkpt><trkpt lat="44.530674760863285" lon="11.342078550156666"><ele>26.666666666666664</ele><time>2026-04-07T10:26:50.999Z</time></trkpt><trkpt lat="44.53072024878253" lon="11.341828921883682"><ele>26.0</ele><time>2026-04-07T10:26:52Z</time></trkpt><trkpt lat="44.53076553117376" lon="11.34159429153913"><ele>25.333333333333332</ele><time>2026-04-07T10:26:53Z</time></trkpt><trkpt lat="44.530807375589355" lon="11.341380501942341"><ele>24.666666666666664</ele><time>2026-04-07T10:26:54Z</time></trkpt><trkpt lat="44.530846202118866" lon="11.341179763400657"><ele>24.0</ele><time>2026-04-07T10:26:55Z</time></trkpt><trkpt lat="44.53088341844992" lon="11.340980497060391"><ele>24.0</ele><time>2026-04-07T10:26:56Z</time></trkpt><trkpt lat="44.530922940349136" lon="11.340775747842994"><ele>24.0</ele><time>2026-04-07T10:26:57Z</time></trkpt><trkpt lat="44.53095966241883" lon="11.340588302091044"><ele>24.0</ele><time>2026-04-07T10:26:58Z</time></trkpt><trkpt lat="44.531021121565416" lon="11.340259408254575"><ele>24.6</ele><time>2026-04-07T10:27:00Z</time></trkpt><trkpt lat="44.53104687850086" lon="11.340120720697364"><ele>25.2</ele><time>2026-04-07T10:27:01Z</time></trkpt><trkpt lat="44.53106912498212" lon="11.340017197609013"><ele>25.800000000000004</ele><time>2026-04-07T10:27:02Z</time></trkpt><trkpt lat="44.53109004067519" lon="11.339925716662684"><ele>26.400000000000002</ele><time>2026-04-07T10:27:03Z</time></trkpt><trkpt lat="44.53113784482385" lon="11.33978508344766"><ele>27.0</ele><time>2026-04-07T10:27:05Z</time></trkpt><trkpt lat="44.53118995179843" lon="11.33967637327165"><ele>27.200000000000003</ele><time>2026-04-07T10:27:07Z</time></trkpt><trkpt lat="44.53123646576547" lon="11.339580821086074"><ele>27.400000000000002</ele><time>2026-04-07T10:27:09Z</time></trkpt><trkpt lat="44.53121069807343" lon="11.339461607009747"><ele>27.599999999999998</ele><time>2026-04-07T10:27:11Z</time></trkpt><trkpt lat="44.53123651347203" lon="11.339322380049545"><ele>27.799999999999997</ele><time>2026-04-07T10:27:13Z</time></trkpt><trkpt lat="44.53128224300583" lon="11.339223183144666"><ele>28.0</ele><time>2026-04-07T10:27:15Z</time></trkpt><trkpt lat="44.53168552998766" lon="11.339280042718793"><ele>28.000000000000004</ele><time>2026-04-07T10:27:18Z</time></trkpt><trkpt lat="44.53176911590263" lon="11.339273079935756"><ele>28.0</ele><time>2026-04-07T10:27:20Z</time></trkpt><trkpt lat="44.53183461114297" lon="11.339267081529407"><ele>28.0</ele><time>2026-04-07T10:27:22Z</time></trkpt><trkpt lat="44.531921253000455" lon="11.339273920274186"><ele>28.0</ele><time>2026-04-07T10:27:24Z</time></trkpt><trkpt lat="44.53198655957506" lon="11.339279173006165"><ele>28.000000000000004</ele><time>2026-04-07T10:27:25Z</time></trkpt><trkpt lat="44.53207259163723" lon="11.339301728061727"><ele>28.0</ele><time>2026-04-07T10:27:26Z</time></trkpt><trkpt lat="44.53215429430183" lon="11.339330155940942"><ele>27.833333333333336</ele><time>2026-04-07T10:27:27Z</time></trkpt><trkpt lat="44.53223865791072" lon="11.339359487035852"><ele>27.666666666666668</ele><time>2026-04-07T10:27:28Z</time></trkpt><trkpt lat="44.53231391939466" lon="11.339384873228672"><ele>27.5</ele><time>2026-04-07T10:27:29Z</time></trkpt><trkpt lat="44.53239567817968" lon="11.33940997418543"><ele>27.333333333333336</ele><time>2026-04-07T10:27:30Z</time></trkpt><trkpt lat="44.53247872096799" lon="11.339432983014698"><ele>27.166666666666668</ele><time>2026-04-07T10:27:31Z</time></trkpt><trkpt lat="44.53256051437651" lon="11.33946138863186"><ele>27.0</ele><time>2026-04-07T10:27:32Z</time></trkpt><trkpt lat="44.53263704113516" lon="11.339489265851583"><ele>27.0</ele><time>2026-04-07T10:27:33Z</time></trkpt><trkpt lat="44.53270718472253" lon="11.339500509966944"><ele>27.0</ele><time>2026-04-07T10:27:34Z</time></trkpt><trkpt lat="44.53278104975171" lon="11.339499479225031"><ele>27.0</ele><time>2026-04-07T10:27:35Z</time></trkpt><trkpt lat="44.532847616265855" lon="11.339478724616134"><ele>27.0</ele><time>2026-04-07T10:27:36Z</time></trkpt><trkpt lat="44.53290715074764" lon="11.339435656246478"><ele>27.0</ele><time>2026-04-07T10:27:37Z</time></trkpt><trkpt lat="44.5329646030369" lon="11.33937695881406"><ele>27.0</ele><time>2026-04-07T10:27:38Z</time></trkpt><trkpt lat="44.533054704275564" lon="11.339286115633804"><ele>27.25</ele><time>2026-04-07T10:27:40Z</time></trkpt><trkpt lat="44.53320448807272" lon="11.339259570335374"><ele>27.5</ele><time>2026-04-07T10:27:42Z</time></trkpt><trkpt lat="44.53331645156915" lon="11.339275632122483"><ele>27.75</ele><time>2026-04-07T10:27:43Z</time></trkpt><trkpt lat="44.5334273465309" lon="11.339308418839229"><ele>28.0</ele><time>2026-04-07T10:27:44Z</time></trkpt><trkpt lat="44.53362962264995" lon="11.339469167225259"><ele>28.0</ele><time>2026-04-07T10:27:46Z</time></trkpt><trkpt lat="44.53371544272555" lon="11.339613621912711"><ele>28.0</ele><time>2026-04-07T10:27:47Z</time></trkpt><trkpt lat="44.53380921925499" lon="11.339770642716196"><ele>28.0</ele><time>2026-04-07T10:27:48Z</time></trkpt><trkpt lat="44.53390711726419" lon="11.33992035245686"><ele>28.0</ele><time>2026-04-07T10:27:49Z</time></trkpt><trkpt lat="44.53399838237844" lon="11.340058544204796"><ele>28.75</ele><time>2026-04-07T10:27:50Z</time></trkpt><trkpt lat="44.534089004800244" lon="11.340188620131569"><ele>29.5</ele><time>2026-04-07T10:27:51Z</time></trkpt><trkpt lat="44.534181365041455" lon="11.340328354265932"><ele>30.25</ele><time>2026-04-07T10:27:52Z</time></trkpt><trkpt lat="44.534273421800826" lon="11.34046873723102"><ele>31.0</ele><time>2026-04-07T10:27:53Z</time></trkpt><trkpt lat="44.53437136394666" lon="11.340612392594837"><ele>31.666666666666668</ele><time>2026-04-07T10:27:54Z</time></trkpt><trkpt lat="44.534473877293316" lon="11.34075326134558"><ele>32.333333333333336</ele><time>2026-04-07T10:27:55Z</time></trkpt><trkpt lat="44.53458438885632" lon="11.340892721581696"><ele>33.0</ele><time>2026-04-07T10:27:56Z</time></trkpt><trkpt lat="44.53470965507802" lon="11.34103687354093"><ele>33.0</ele><time>2026-04-07T10:27:57Z</time></trkpt><trkpt lat="44.534836726359636" lon="11.341163596268157"><ele>33.0</ele><time>2026-04-07T10:27:58Z</time></trkpt><trkpt lat="44.53497447665561" lon="11.341279593940289"><ele>33.0</ele><time>2026-04-07T10:27:59Z</time></trkpt><trkpt lat="44.535118903614006" lon="11.341395511230592"><ele>32.333333333333336</ele><time>2026-04-07T10:28:00Z</time></trkpt><trkpt lat="44.535264352401654" lon="11.341521338195722"><ele>31.666666666666668</ele><time>2026-04-07T10:28:01Z</time></trkpt><trkpt lat="44.535407740822144" lon="11.341658737686908"><ele>31.0</ele><time>2026-04-07T10:28:02Z</time></trkpt><trkpt lat="44.53555530391972" lon="11.341796467191116"><ele>30.333333333333336</ele><time>2026-04-07T10:28:03Z</time></trkpt><trkpt lat="44.535700011472414" lon="11.341919832787866"><ele>29.666666666666664</ele><time>2026-04-07T10:28:04Z</time></trkpt><trkpt lat="44.53584514094767" lon="11.342029236256248"><ele>29.0</ele><time>2026-04-07T10:28:05Z</time></trkpt><trkpt lat="44.53598527016483" lon="11.342137971981463"><ele>28.666666666666664</ele><time>2026-04-07T10:28:06Z</time></trkpt><trkpt lat="44.536127843469814" lon="11.342249664089094"><ele>28.333333333333336</ele><time>2026-04-07T10:28:07Z</time></trkpt><trkpt lat="44.536272716973045" lon="11.342359579175069"><ele>28.0</ele><time>2026-04-07T10:28:08Z</time></trkpt><trkpt lat="44.536419532060364" lon="11.342468679524375"><ele>29.0</ele><time>2026-04-07T10:28:09Z</time></trkpt><trkpt lat="44.53657228875488" lon="11.342581584839241"><ele>30.0</ele><time>2026-04-07T10:28:10Z</time></trkpt><trkpt lat="44.53672978639269" lon="11.34269938817336"><ele>31.0</ele><time>2026-04-07T10:28:11Z</time></trkpt><trkpt lat="44.536888244399904" lon="11.342811695655723"><ele>31.0</ele><time>2026-04-07T10:28:12Z</time></trkpt><trkpt lat="44.53705289410381" lon="11.342921594669207"><ele>31.0</ele><time>2026-04-07T10:28:13Z</time></trkpt><trkpt lat="44.53721432528088" lon="11.343028874464252"><ele>31.0</ele><time>2026-04-07T10:28:14Z</time></trkpt><trkpt lat="44.53737893357723" lon="11.34314094009799"><ele>31.0</ele><time>2026-04-07T10:28:15Z</time></trkpt><trkpt lat="44.53753453206079" lon="11.343247959786677"><ele>31.0</ele><time>2026-04-07T10:28:16Z</time></trkpt><trkpt lat="44.5376806881619" lon="11.343344797554922"><ele>31.0</ele><time>2026-04-07T10:28:17Z</time></trkpt><trkpt lat="44.537820331068446" lon="11.343436061659677"><ele>31.5</ele><time>2026-04-07T10:28:18Z</time></trkpt><trkpt lat="44.537956741601214" lon="11.343523304089382"><ele>32.0</ele><time>2026-04-07T10:28:19Z</time></trkpt><trkpt lat="44.53808563188241" lon="11.343602711605316"><ele>32.5</ele><time>2026-04-07T10:28:20Z</time></trkpt><trkpt lat="44.53821464818223" lon="11.343675342235372"><ele>33.0</ele><time>2026-04-07T10:28:21Z</time></trkpt><trkpt lat="44.538357919987156" lon="11.343743965537422"><ele>33.0</ele><time>2026-04-07T10:28:22Z</time></trkpt><trkpt lat="44.53850298660784" lon="11.343796181818446"><ele>33.0</ele><time>2026-04-07T10:28:23Z</time></trkpt><trkpt lat="44.53863346770283" lon="11.343830671525385"><ele>33.0</ele><time>2026-04-07T10:28:24Z</time></trkpt><trkpt lat="44.538741495173376" lon="11.343855540421044"><ele>33.0</ele><time>2026-04-07T10:28:25Z</time></trkpt><trkpt lat="44.53882358453675" lon="11.343872069538511"><ele>32.6</ele><time>2026-04-07T10:28:26Z</time></trkpt><trkpt lat="44.53889994778704" lon="11.343879838603693"><ele>32.199999999999996</ele><time>2026-04-07T10:28:28Z</time></trkpt><trkpt lat="44.53899205202938" lon="11.34388691582296"><ele>31.8</ele><time>2026-04-07T10:29:36Z</time></trkpt><trkpt lat="44.539090788855276" lon="11.343893215883364"><ele>31.4</ele><time>2026-04-07T10:29:37Z</time></trkpt><trkpt lat="44.53919778089532" lon="11.34388733236458"><ele>31.0</ele><time>2026-04-07T10:29:38Z</time></trkpt><trkpt lat="44.53933869345894" lon="11.34386988649604"><ele>31.0</ele><time>2026-04-07T10:29:39Z</time></trkpt><trkpt lat="44.53949921088895" lon="11.343839364821946"><ele>31.0</ele><time>2026-04-07T10:29:40Z</time></trkpt><trkpt lat="44.53967179589333" lon="11.343803312600008"><ele>31.0</ele><time>2026-04-07T10:29:41Z</time></trkpt><trkpt lat="44.539854099988396" lon="11.343765253325786"><ele>30.666666666666668</ele><time>2026-04-07T10:29:42Z</time></trkpt><trkpt lat="44.54005608650189" lon="11.34372227292618"><ele>30.333333333333336</ele><time>2026-04-07T10:29:43Z</time></trkpt><trkpt lat="44.540261054578075" lon="11.343677313494982"><ele>30.0</ele><time>2026-04-07T10:29:44Z</time></trkpt><trkpt lat="44.54047005237302" lon="11.343633584526597"><ele>28.333333333333336</ele><time>2026-04-07T10:29:45Z</time></trkpt><trkpt lat="44.54066914559533" lon="11.343594837253425"><ele>26.666666666666668</ele><time>2026-04-07T10:29:46Z</time></trkpt><trkpt lat="44.54087567950471" lon="11.343576370919674"><ele>25.0</ele><time>2026-04-07T10:29:47Z</time></trkpt><trkpt lat="44.54108388192587" lon="11.343585396610916"><ele>24.666666666666668</ele><time>2026-04-07T10:29:48Z</time></trkpt><trkpt lat="44.541292396805126" lon="11.343627301352845"><ele>24.333333333333336</ele><time>2026-04-07T10:29:49Z</time></trkpt><trkpt lat="44.541502157586606" lon="11.34369873914531"><ele>24.0</ele><time>2026-04-07T10:29:50Z</time></trkpt><trkpt lat="44.541712012514296" lon="11.343790180916193"><ele>23.333333333333332</ele><time>2026-04-07T10:29:51Z</time></trkpt><trkpt lat="44.541916349619484" lon="11.34391367315981"><ele>22.666666666666664</ele><time>2026-04-07T10:29:52Z</time></trkpt><trkpt lat="44.542113396338806" lon="11.344058284764237"><ele>22.0</ele><time>2026-04-07T10:29:53Z</time></trkpt><trkpt lat="44.54231625458593" lon="11.344211649771346"><ele>22.0</ele><time>2026-04-07T10:29:54Z</time></trkpt><trkpt lat="44.542522201037414" lon="11.344358656272208"><ele>22.0</ele><time>2026-04-07T10:29:55Z</time></trkpt><trkpt lat="44.54272328683515" lon="11.344498564695755"><ele>22.666666666666664</ele><time>2026-04-07T10:29:56Z</time></trkpt><trkpt lat="44.542913747375344" lon="11.344636424488678"><ele>23.333333333333332</ele><time>2026-04-07T10:29:57Z</time></trkpt><trkpt lat="44.54311085367996" lon="11.34477833548087"><ele>24.0</ele><time>2026-04-07T10:29:58Z</time></trkpt><trkpt lat="44.54331300356883" lon="11.344918739762281"><ele>24.0</ele><time>2026-04-07T10:29:59Z</time></trkpt><trkpt lat="44.54352197976783" lon="11.345062514697855"><ele>24.0</ele><time>2026-04-07T10:30:00Z</time></trkpt><trkpt lat="44.54373251455808" lon="11.345208449600962"><ele>24.5</ele><time>2026-04-07T10:30:01Z</time></trkpt><trkpt lat="44.54394372479488" lon="11.345357147768166"><ele>25.0</ele><time>2026-04-07T10:30:02Z</time></trkpt><trkpt lat="44.54415828611074" lon="11.345506809545318"><ele>25.5</ele><time>2026-04-07T10:30:03Z</time></trkpt><trkpt lat="44.54437890943457" lon="11.345651895394496"><ele>26.0</ele><time>2026-04-07T10:30:04Z</time></trkpt><trkpt lat="44.544595883303586" lon="11.345817398986576"><ele>25.0</ele><time>2026-04-07T10:30:05Z</time></trkpt><trkpt lat="44.54481916249895" lon="11.345959802617534"><ele>24.0</ele><time>2026-04-07T10:30:06Z</time></trkpt><trkpt lat="44.54503814343706" lon="11.34611285759014"><ele>24.0</ele><time>2026-04-07T10:30:07Z</time></trkpt><trkpt lat="44.54525453740063" lon="11.346265136513823"><ele>24.0</ele><time>2026-04-07T10:30:08Z</time></trkpt><trkpt lat="44.54546979887824" lon="11.346413664517819"><ele>25.5</ele><time>2026-04-07T10:30:09Z</time></trkpt><trkpt lat="44.545680184576064" lon="11.346564108902458"><ele>27.0</ele><time>2026-04-07T10:30:10Z</time></trkpt><trkpt lat="44.5458707889019" lon="11.34670047259991"><ele>27.0</ele><time>2026-04-07T10:30:11Z</time></trkpt><trkpt lat="44.546052744346305" lon="11.346833213875497"><ele>27.0</ele><time>2026-04-07T10:30:12Z</time></trkpt><trkpt lat="44.54623745346272" lon="11.346964323281655"><ele>27.0</ele><time>2026-04-07T10:30:13Z</time></trkpt><trkpt lat="44.54642545947174" lon="11.347095754263457"><ele>27.666666666666664</ele><time>2026-04-07T10:30:14Z</time></trkpt><trkpt lat="44.54661864449035" lon="11.347222366533673"><ele>28.333333333333332</ele><time>2026-04-07T10:30:15Z</time></trkpt><trkpt lat="44.54681441573131" lon="11.34734012710132"><ele>29.0</ele><time>2026-04-07T10:30:16Z</time></trkpt><trkpt lat="44.547011423338176" lon="11.347443629038278"><ele>28.666666666666664</ele><time>2026-04-07T10:30:17Z</time></trkpt><trkpt lat="44.5472119225145" lon="11.347536508868654"><ele>28.333333333333336</ele><time>2026-04-07T10:30:18Z</time></trkpt><trkpt lat="44.54741076691414" lon="11.347613758076168"><ele>28.0</ele><time>2026-04-07T10:30:19Z</time></trkpt><trkpt lat="44.547618563553115" lon="11.347678208147673"><ele>28.0</ele><time>2026-04-07T10:30:20Z</time></trkpt><trkpt lat="44.54782115886161" lon="11.347723345224768"><ele>28.0</ele><time>2026-04-07T10:30:21Z</time></trkpt><trkpt lat="44.548035738224065" lon="11.347757376368156"><ele>28.0</ele><time>2026-04-07T10:30:22Z</time></trkpt><trkpt lat="44.54824474383558" lon="11.347777542931361"><ele>28.0</ele><time>2026-04-07T10:30:23Z</time></trkpt><trkpt lat="44.54845597265784" lon="11.347792621321483"><ele>28.0</ele><time>2026-04-07T10:30:24Z</time></trkpt><trkpt lat="44.54865983868286" lon="11.34780175547334"><ele>28.0</ele><time>2026-04-07T10:30:25Z</time></trkpt><trkpt lat="44.54886607634409" lon="11.347808887382529"><ele>28.0</ele><time>2026-04-07T10:30:26Z</time></trkpt><trkpt lat="44.54906581019628" lon="11.347816752587141"><ele>28.0</ele><time>2026-04-07T10:30:27Z</time></trkpt><trkpt lat="44.549269098439844" lon="11.347828478866948"><ele>28.0</ele><time>2026-04-07T10:30:28Z</time></trkpt><trkpt lat="44.54946528918933" lon="11.347838592026056"><ele>26.0</ele><time>2026-04-07T10:30:29Z</time></trkpt><trkpt lat="44.54966854122054" lon="11.347850824849418"><ele>24.0</ele><time>2026-04-07T10:30:30Z</time></trkpt><trkpt lat="44.550081180071246" lon="11.347869250325218"><ele>24.0</ele><time>2026-04-07T10:30:32Z</time></trkpt><trkpt lat="44.550288635616425" lon="11.347875990983262"><ele>24.0</ele><time>2026-04-07T10:30:33Z</time></trkpt><trkpt lat="44.55049583131052" lon="11.34788065486484"><ele>24.0</ele><time>2026-04-07T10:30:34Z</time></trkpt><trkpt lat="44.55070318888924" lon="11.347884970622722"><ele>25.0</ele><time>2026-04-07T10:30:35Z</time></trkpt><trkpt lat="44.55091101978614" lon="11.347893432945545"><ele>26.0</ele><time>2026-04-07T10:30:36Z</time></trkpt><trkpt lat="44.5511023936031" lon="11.34790161303495"><ele>27.0</ele><time>2026-04-07T10:30:37Z</time></trkpt><trkpt lat="44.551277641411666" lon="11.347906021084704"><ele>27.0</ele><time>2026-04-07T10:30:38Z</time></trkpt><trkpt lat="44.55144481255808" lon="11.347914232489403"><ele>27.0</ele><time>2026-04-07T10:30:39Z</time></trkpt><trkpt lat="44.55159081398995" lon="11.347915894898174"><ele>27.0</ele><time>2026-04-07T10:30:40Z</time></trkpt><trkpt lat="44.55172407639181" lon="11.347943026922632"><ele>27.0</ele><time>2026-04-07T10:30:40.999Z</time></trkpt><trkpt lat="44.55184207924751" lon="11.347927406427742"><ele>27.0</ele><time>2026-04-07T10:30:41.999Z</time></trkpt><trkpt lat="44.55193377930829" lon="11.347958041194207"><ele>27.0</ele><time>2026-04-07T10:30:42.999Z</time></trkpt><trkpt lat="44.55200460267484" lon="11.348031674183202"><ele>27.0</ele><time>2026-04-07T10:30:43.999Z</time></trkpt><trkpt lat="44.55207685624021" lon="11.34811273671395"><ele>27.0</ele><time>2026-04-07T10:30:44.999Z</time></trkpt><trkpt lat="44.552158157074274" lon="11.348133245233871"><ele>27.0</ele><time>2026-04-07T10:30:45.999Z</time></trkpt><trkpt lat="44.55222490814245" lon="11.348075028650394"><ele>27.0</ele><time>2026-04-07T10:30:46.999Z</time></trkpt><trkpt lat="44.552263786443035" lon="11.347974592707693"><ele>28.333333333333336</ele><time>2026-04-07T10:30:47.999Z</time></trkpt><trkpt lat="44.55227480268665" lon="11.347843633853358"><ele>29.666666666666668</ele><time>2026-04-07T10:30:48.999Z</time></trkpt><trkpt lat="44.55225853217955" lon="11.347687712272235"><ele>31.0</ele><time>2026-04-07T10:30:49.999Z</time></trkpt><trkpt lat="44.5523113005639" lon="11.347325273539026"><ele>30.333333333333336</ele><time>2026-04-07T10:30:51.999Z</time></trkpt><trkpt lat="44.55237340515726" lon="11.347114629082524"><ele>29.666666666666664</ele><time>2026-04-07T10:30:52.999Z</time></trkpt><trkpt lat="44.55244341627344" lon="11.346888552067167"><ele>29.0</ele><time>2026-04-07T10:30:53.999Z</time></trkpt><trkpt lat="44.55250081810429" lon="11.346662198294302"><ele>29.0</ele><time>2026-04-07T10:30:54.999Z</time></trkpt><trkpt lat="44.55256611304806" lon="11.34643604307945"><ele>29.0</ele><time>2026-04-07T10:30:55.999Z</time></trkpt><trkpt lat="44.55263204740888" lon="11.346202750278898"><ele>29.0</ele><time>2026-04-07T10:30:56.999Z</time></trkpt><trkpt lat="44.552699799127836" lon="11.345967616639447"><ele>29.0</ele><time>2026-04-07T10:30:57.999Z</time></trkpt><trkpt lat="44.55276545762165" lon="11.34574394583587"><ele>29.0</ele><time>2026-04-07T10:30:58.999Z</time></trkpt><trkpt lat="44.55283072476547" lon="11.345513772241759"><ele>29.0</ele><time>2026-04-07T10:30:59.999Z</time></trkpt><trkpt lat="44.55289451133663" lon="11.345292582672556"><ele>28.0</ele><time>2026-04-07T10:31:00.999Z</time></trkpt><trkpt lat="44.552958693773206" lon="11.345074493628923"><ele>27.0</ele><time>2026-04-07T10:31:01.999Z</time></trkpt><trkpt lat="44.5530199917918" lon="11.344864474438273"><ele>26.0</ele><time>2026-04-07T10:31:02.999Z</time></trkpt><trkpt lat="44.553081424969456" lon="11.344655161391138"><ele>26.0</ele><time>2026-04-07T10:31:03.999Z</time></trkpt><trkpt lat="44.55314047587528" lon="11.344462593927394"><ele>26.0</ele><time>2026-04-07T10:31:04.999Z</time></trkpt><trkpt lat="44.55319599350306" lon="11.344285808131096"><ele>26.0</ele><time>2026-04-07T10:31:05.999Z</time></trkpt><trkpt lat="44.553269014888244" lon="11.34413861194687"><ele>26.0</ele><time>2026-04-07T10:31:06.999Z</time></trkpt><trkpt lat="44.5533700059941" lon="11.344044005987685"><ele>26.0</ele><time>2026-04-07T10:31:08Z</time></trkpt><trkpt lat="44.55348981137365" lon="11.343993106882285"><ele>26.0</ele><time>2026-04-07T10:31:09Z</time></trkpt><trkpt lat="44.55362824759082" lon="11.34397717193078"><ele>26.0</ele><time>2026-04-07T10:31:10Z</time></trkpt><trkpt lat="44.55377760714018" lon="11.344013011612157"><ele>26.0</ele><time>2026-04-07T10:31:11Z</time></trkpt><trkpt lat="44.55394174916802" lon="11.344075143909556"><ele>26.333333333333332</ele><time>2026-04-07T10:31:12Z</time></trkpt><trkpt lat="44.55412010932394" lon="11.344155883523966"><ele>26.666666666666664</ele><time>2026-04-07T10:31:13Z</time></trkpt><trkpt lat="44.55431591638244" lon="11.344242454457621"><ele>27.0</ele><time>2026-04-07T10:31:14Z</time></trkpt><trkpt lat="44.55452545705674" lon="11.344332934976917"><ele>26.5</ele><time>2026-04-07T10:31:15Z</time></trkpt><trkpt lat="44.55474840375642" lon="11.344429985278252"><ele>26.0</ele><time>2026-04-07T10:31:16Z</time></trkpt><trkpt lat="44.55498603351005" lon="11.344533210845382"><ele>26.0</ele><time>2026-04-07T10:31:17Z</time></trkpt><trkpt lat="44.55524405099863" lon="11.344638310866658"><ele>26.0</ele><time>2026-04-07T10:31:18Z</time></trkpt><trkpt lat="44.55551638751646" lon="11.344730208735244"><ele>27.0</ele><time>2026-04-07T10:31:19Z</time></trkpt><trkpt lat="44.555783082956374" lon="11.34478632266837"><ele>28.0</ele><time>2026-04-07T10:31:20Z</time></trkpt><trkpt lat="44.556063238368" lon="11.344825634630425"><ele>26.5</ele><time>2026-04-07T10:31:21Z</time></trkpt><trkpt lat="44.5563478953258" lon="11.344842892174938"><ele>25.0</ele><time>2026-04-07T10:31:22Z</time></trkpt><trkpt lat="44.55663485322838" lon="11.344841927194985"><ele>25.0</ele><time>2026-04-07T10:31:23Z</time></trkpt><trkpt lat="44.55691225740359" lon="11.344813988991238"><ele>25.0</ele><time>2026-04-07T10:31:24Z</time></trkpt><trkpt lat="44.55717380424738" lon="11.344778022629601"><ele>25.0</ele><time>2026-04-07T10:31:25Z</time></trkpt><trkpt lat="44.5574358567853" lon="11.344738408139849"><ele>25.0</ele><time>2026-04-07T10:31:26Z</time></trkpt><trkpt lat="44.557695700384635" lon="11.344698623296365"><ele>23.0</ele><time>2026-04-07T10:31:27Z</time></trkpt><trkpt lat="44.55795954331782" lon="11.344660202097392"><ele>21.0</ele><time>2026-04-07T10:31:28Z</time></trkpt><trkpt lat="44.55822371822403" lon="11.344621765216464"><ele>21.0</ele><time>2026-04-07T10:31:29Z</time></trkpt><trkpt lat="44.55848062793361" lon="11.34458641719627"><ele>21.0</ele><time>2026-04-07T10:31:30Z</time></trkpt><trkpt lat="44.55874500210091" lon="11.344551595908056"><ele>22.333333333333336</ele><time>2026-04-07T10:31:31Z</time></trkpt><trkpt lat="44.55891925985729" lon="11.344499585907341"><ele>23.666666666666668</ele><time>2026-04-07T10:31:32Z</time></trkpt><trkpt lat="44.55916095582446" lon="11.34445514225199"><ele>25.0</ele><time>2026-04-07T10:31:33Z</time></trkpt><trkpt lat="44.55940786114778" lon="11.34441164533082"><ele>25.5</ele><time>2026-04-07T10:31:34Z</time></trkpt><trkpt lat="44.55965856708832" lon="11.344367783586142"><ele>26.0</ele><time>2026-04-07T10:31:35Z</time></trkpt><trkpt lat="44.559905871575644" lon="11.344329823824289"><ele>26.0</ele><time>2026-04-07T10:31:36Z</time></trkpt><trkpt lat="44.56013455989192" lon="11.344298847575669"><ele>26.0</ele><time>2026-04-07T10:31:37Z</time></trkpt><trkpt lat="44.56036380794764" lon="11.344263667655419"><ele>26.0</ele><time>2026-04-07T10:31:38Z</time></trkpt><trkpt lat="44.5605944160962" lon="11.344227546941937"><ele>26.0</ele><time>2026-04-07T10:31:39Z</time></trkpt><trkpt lat="44.560821448342594" lon="11.34419508076515"><ele>26.0</ele><time>2026-04-07T10:31:40Z</time></trkpt><trkpt lat="44.56104886864315" lon="11.344160077546563"><ele>26.0</ele><time>2026-04-07T10:31:41Z</time></trkpt><trkpt lat="44.56127189099391" lon="11.344128026642904"><ele>25.0</ele><time>2026-04-07T10:31:42Z</time></trkpt><trkpt lat="44.561499831499994" lon="11.344095631215016"><ele>24.0</ele><time>2026-04-07T10:31:43Z</time></trkpt><trkpt lat="44.561725767455926" lon="11.344075469614614"><ele>24.0</ele><time>2026-04-07T10:31:44Z</time></trkpt><trkpt lat="44.56195132049477" lon="11.344066515436852"><ele>24.0</ele><time>2026-04-07T10:31:45Z</time></trkpt><trkpt lat="44.562170971501196" lon="11.34409466524236"><ele>24.0</ele><time>2026-04-07T10:31:46Z</time></trkpt><trkpt lat="44.56239574764371" lon="11.344137203289652"><ele>24.0</ele><time>2026-04-07T10:31:47Z</time></trkpt><trkpt lat="44.56261861336242" lon="11.344194705845442"><ele>24.0</ele><time>2026-04-07T10:31:48Z</time></trkpt><trkpt lat="44.56284688826046" lon="11.344268296928341"><ele>24.0</ele><time>2026-04-07T10:31:49Z</time></trkpt><trkpt lat="44.56307028976681" lon="11.344354578176935"><ele>24.0</ele><time>2026-04-07T10:31:50Z</time></trkpt><trkpt lat="44.563290180541216" lon="11.344452831769395"><ele>24.0</ele><time>2026-04-07T10:31:51Z</time></trkpt><trkpt lat="44.56350401090584" lon="11.344593936690334"><ele>24.0</ele><time>2026-04-07T10:31:52Z</time></trkpt><trkpt lat="44.56373210680106" lon="11.34470249336142"><ele>24.0</ele><time>2026-04-07T10:31:53Z</time></trkpt><trkpt lat="44.56394663330823" lon="11.344838773644172"><ele>24.0</ele><time>2026-04-07T10:31:54Z</time></trkpt><trkpt lat="44.5641676890109" lon="11.344968800281647"><ele>24.0</ele><time>2026-04-07T10:31:55Z</time></trkpt><trkpt lat="44.564385740772764" lon="11.345097236418066"><ele>24.0</ele><time>2026-04-07T10:31:56Z</time></trkpt><trkpt lat="44.564600949681136" lon="11.345226074524014"><ele>24.0</ele><time>2026-04-07T10:31:57Z</time></trkpt><trkpt lat="44.56481598372506" lon="11.34535599617682"><ele>24.0</ele><time>2026-04-07T10:31:58Z</time></trkpt><trkpt lat="44.565024965493954" lon="11.34548107358809"><ele>24.0</ele><time>2026-04-07T10:31:59Z</time></trkpt><trkpt lat="44.565228890976" lon="11.345591922148689"><ele>24.0</ele><time>2026-04-07T10:32:00Z</time></trkpt><trkpt lat="44.56543669387516" lon="11.34569907458564"><ele>24.0</ele><time>2026-04-07T10:32:01Z</time></trkpt><trkpt lat="44.56564809554128" lon="11.34578793223046"><ele>24.0</ele><time>2026-04-07T10:32:02Z</time></trkpt><trkpt lat="44.56586519361736" lon="11.34586120012525"><ele>24.0</ele><time>2026-04-07T10:32:03Z</time></trkpt><trkpt lat="44.5660867753539" lon="11.345922671015899"><ele>24.0</ele><time>2026-04-07T10:32:04Z</time></trkpt><trkpt lat="44.566308453722755" lon="11.345963682759871"><ele>24.5</ele><time>2026-04-07T10:32:05Z</time></trkpt><trkpt lat="44.5665334479881" lon="11.345992196831928"><ele>25.0</ele><time>2026-04-07T10:32:06Z</time></trkpt><trkpt lat="44.56675761951405" lon="11.346001514690267"><ele>25.0</ele><time>2026-04-07T10:32:07Z</time></trkpt><trkpt lat="44.566983937748084" lon="11.345997751325665"><ele>25.0</ele><time>2026-04-07T10:32:08Z</time></trkpt><trkpt lat="44.56721152442816" lon="11.34597739747874"><ele>24.5</ele><time>2026-04-07T10:32:09Z</time></trkpt><trkpt lat="44.567436865215015" lon="11.345943318506206"><ele>24.0</ele><time>2026-04-07T10:32:10Z</time></trkpt><trkpt lat="44.56766290708039" lon="11.34590074832957"><ele>24.333333333333336</ele><time>2026-04-07T10:32:11Z</time></trkpt><trkpt lat="44.567885809308336" lon="11.345858548881527"><ele>24.666666666666668</ele><time>2026-04-07T10:32:12Z</time></trkpt><trkpt lat="44.56809494375176" lon="11.345823279417289"><ele>25.0</ele><time>2026-04-07T10:32:13Z</time></trkpt><trkpt lat="44.56828823684817" lon="11.345798650963022"><ele>25.0</ele><time>2026-04-07T10:32:14Z</time></trkpt><trkpt lat="44.56847060242842" lon="11.345780375424177"><ele>25.0</ele><time>2026-04-07T10:32:15Z</time></trkpt><trkpt lat="44.56864820582925" lon="11.345764984162248"><ele>25.0</ele><time>2026-04-07T10:32:16Z</time></trkpt><trkpt lat="44.56882700168083" lon="11.345752033109513"><ele>24.666666666666668</ele><time>2026-04-07T10:32:17Z</time></trkpt><trkpt lat="44.569009396417094" lon="11.345744986823968"><ele>24.333333333333336</ele><time>2026-04-07T10:32:18Z</time></trkpt><trkpt lat="44.56918500387634" lon="11.345768523809806"><ele>24.0</ele><time>2026-04-07T10:32:19Z</time></trkpt><trkpt lat="44.56934850378789" lon="11.345749136243217"><ele>24.0</ele><time>2026-04-07T10:32:20Z</time></trkpt><trkpt lat="44.56950738881564" lon="11.345757933709802"><ele>24.0</ele><time>2026-04-07T10:32:21Z</time></trkpt><trkpt lat="44.56965895550993" lon="11.345768226806332"><ele>24.0</ele><time>2026-04-07T10:32:22Z</time></trkpt><trkpt lat="44.56982291937586" lon="11.345780926323553"><ele>23.666666666666668</ele><time>2026-04-07T10:32:23Z</time></trkpt><trkpt lat="44.56999154770367" lon="11.34579335050737"><ele>23.333333333333336</ele><time>2026-04-07T10:32:24Z</time></trkpt><trkpt lat="44.57017587551886" lon="11.345801893975123"><ele>23.0</ele><time>2026-04-07T10:32:25Z</time></trkpt><trkpt lat="44.57035227716847" lon="11.345837442751415"><ele>23.0</ele><time>2026-04-07T10:32:26Z</time></trkpt><trkpt lat="44.57053508999553" lon="11.345850801448814"><ele>23.0</ele><time>2026-04-07T10:32:27Z</time></trkpt><trkpt lat="44.57071354944912" lon="11.345840683419969"><ele>23.0</ele><time>2026-04-07T10:32:28.001Z</time></trkpt><trkpt lat="44.570888285359786" lon="11.345854201905729"><ele>23.0</ele><time>2026-04-07T10:32:29.001Z</time></trkpt><trkpt lat="44.571062483312026" lon="11.34586913653384"><ele>23.0</ele><time>2026-04-07T10:32:30.001Z</time></trkpt><trkpt lat="44.5712397953321" lon="11.345882893740843"><ele>23.0</ele><time>2026-04-07T10:32:31.001Z</time></trkpt><trkpt lat="44.571414437041064" lon="11.345895255507768"><ele>23.333333333333336</ele><time>2026-04-07T10:32:32.001Z</time></trkpt><trkpt lat="44.571592740505444" lon="11.345931199137432"><ele>23.666666666666668</ele><time>2026-04-07T10:32:33.001Z</time></trkpt><trkpt lat="44.57177122618769" lon="11.345944019601568"><ele>24.0</ele><time>2026-04-07T10:32:34.001Z</time></trkpt><trkpt lat="44.571947741289144" lon="11.345956563541597"><ele>24.0</ele><time>2026-04-07T10:32:35.001Z</time></trkpt><trkpt lat="44.57211574083556" lon="11.345968405810664"><ele>24.0</ele><time>2026-04-07T10:32:36.001Z</time></trkpt><trkpt lat="44.57227699008698" lon="11.345979772243506"><ele>24.0</ele><time>2026-04-07T10:32:37.001Z</time></trkpt><trkpt lat="44.57242324431358" lon="11.345990081679158"><ele>24.0</ele><time>2026-04-07T10:32:38.001Z</time></trkpt><trkpt lat="44.57257540000689" lon="11.346000807115118"><ele>24.0</ele><time>2026-04-07T10:32:39.001Z</time></trkpt><trkpt lat="44.572731158868514" lon="11.346011995361348"><ele>24.0</ele><time>2026-04-07T10:32:40.001Z</time></trkpt><trkpt lat="44.57289009263528" lon="11.34600565200648"><ele>23.666666666666668</ele><time>2026-04-07T10:32:41.001Z</time></trkpt><trkpt lat="44.57305012186758" lon="11.34601589562669"><ele>23.333333333333336</ele><time>2026-04-07T10:32:42.001Z</time></trkpt><trkpt lat="44.57321601326426" lon="11.346025649470459"><ele>23.0</ele><time>2026-04-07T10:32:43.001Z</time></trkpt><trkpt lat="44.57338421096633" lon="11.346060916864458"><ele>23.0</ele><time>2026-04-07T10:32:44.001Z</time></trkpt><trkpt lat="44.573542401228146" lon="11.34607276917823"><ele>23.0</ele><time>2026-04-07T10:32:45.001Z</time></trkpt><trkpt lat="44.57369362657067" lon="11.346084097788006"><ele>23.0</ele><time>2026-04-07T10:32:46Z</time></trkpt><trkpt lat="44.57383987439701" lon="11.346095354918475"><ele>23.333333333333336</ele><time>2026-04-07T10:32:47Z</time></trkpt><trkpt lat="44.57398728912866" lon="11.346107349419022"><ele>23.666666666666668</ele><time>2026-04-07T10:32:48Z</time></trkpt><trkpt lat="44.574139753981314" lon="11.346120164544041"><ele>24.0</ele><time>2026-04-07T10:32:49Z</time></trkpt><trkpt lat="44.57429454108871" lon="11.346113691933335"><ele>24.0</ele><time>2026-04-07T10:32:50Z</time></trkpt><trkpt lat="44.57445383448033" lon="11.346130775527588"><ele>24.0</ele><time>2026-04-07T10:32:51Z</time></trkpt><trkpt lat="44.57461177665679" lon="11.34615147210044"><ele>24.0</ele><time>2026-04-07T10:32:52Z</time></trkpt><trkpt lat="44.574773228382966" lon="11.346178193216437"><ele>24.0</ele><time>2026-04-07T10:32:53Z</time></trkpt><trkpt lat="44.574935949975604" lon="11.346210554609241"><ele>24.0</ele><time>2026-04-07T10:32:54Z</time></trkpt><trkpt lat="44.575100723183574" lon="11.346247778867003"><ele>24.0</ele><time>2026-04-07T10:32:55Z</time></trkpt><trkpt lat="44.57525251822696" lon="11.346285749247572"><ele>24.0</ele><time>2026-04-07T10:32:56Z</time></trkpt><trkpt lat="44.57540496433276" lon="11.34632659551903"><ele>24.0</ele><time>2026-04-07T10:32:57Z</time></trkpt><trkpt lat="44.575551837791366" lon="11.34636303527542"><ele>24.0</ele><time>2026-04-07T10:32:58Z</time></trkpt><trkpt lat="44.57570403204801" lon="11.346403855172289"><ele>23.666666666666668</ele><time>2026-04-07T10:32:59Z</time></trkpt><trkpt lat="44.57586717017091" lon="11.346445814032045"><ele>23.333333333333336</ele><time>2026-04-07T10:33:00Z</time></trkpt><trkpt lat="44.57602527527483" lon="11.346484349614721"><ele>23.0</ele><time>2026-04-07T10:33:01Z</time></trkpt><trkpt lat="44.57618358557905" lon="11.346523525242981"><ele>23.333333333333336</ele><time>2026-04-07T10:33:02Z</time></trkpt><trkpt lat="44.57634938546301" lon="11.34656406262872"><ele>23.666666666666668</ele><time>2026-04-07T10:33:03Z</time></trkpt><trkpt lat="44.57651305334106" lon="11.346603612736008"><ele>24.0</ele><time>2026-04-07T10:33:04Z</time></trkpt><trkpt lat="44.57667297315257" lon="11.34664131208522"><ele>24.0</ele><time>2026-04-07T10:33:05Z</time></trkpt><trkpt lat="44.576817429974135" lon="11.346670373788244"><ele>24.0</ele><time>2026-04-07T10:33:06Z</time></trkpt><trkpt lat="44.57695477756333" lon="11.346691743492913"><ele>24.0</ele><time>2026-04-07T10:33:07Z</time></trkpt><trkpt lat="44.57710054662077" lon="11.346710100762591"><ele>24.0</ele><time>2026-04-07T10:33:08Z</time></trkpt><trkpt lat="44.57724621422313" lon="11.346722233015957"><ele>23.666666666666668</ele><time>2026-04-07T10:33:09Z</time></trkpt><trkpt lat="44.577399432196934" lon="11.346757316468665"><ele>23.333333333333336</ele><time>2026-04-07T10:33:10Z</time></trkpt><trkpt lat="44.577549656249936" lon="11.346764894956982"><ele>23.0</ele><time>2026-04-07T10:33:11Z</time></trkpt><trkpt lat="44.57769560700521" lon="11.346750548980992"><ele>23.0</ele><time>2026-04-07T10:33:12Z</time></trkpt><trkpt lat="44.57784713056837" lon="11.346763886745357"><ele>23.0</ele><time>2026-04-07T10:33:13Z</time></trkpt><trkpt lat="44.578001251773664" lon="11.346771051902618"><ele>23.0</ele><time>2026-04-07T10:33:14Z</time></trkpt><trkpt lat="44.57815914120816" lon="11.34678180637585"><ele>23.0</ele><time>2026-04-07T10:33:15Z</time></trkpt><trkpt lat="44.5783234320535" lon="11.346790138661394"><ele>23.0</ele><time>2026-04-07T10:33:16Z</time></trkpt><trkpt lat="44.578486659183376" lon="11.346797486403004"><ele>23.0</ele><time>2026-04-07T10:33:17Z</time></trkpt><trkpt lat="44.57864732696526" lon="11.346809008356589"><ele>23.333333333333336</ele><time>2026-04-07T10:33:18Z</time></trkpt><trkpt lat="44.57880874913782" lon="11.346812514393234"><ele>23.666666666666668</ele><time>2026-04-07T10:33:19Z</time></trkpt><trkpt lat="44.57897030398715" lon="11.346821051619717"><ele>24.0</ele><time>2026-04-07T10:33:20Z</time></trkpt><trkpt lat="44.57913953700011" lon="11.346829478929095"><ele>24.0</ele><time>2026-04-07T10:33:21Z</time></trkpt><trkpt lat="44.5793056110989" lon="11.346836191874624"><ele>24.0</ele><time>2026-04-07T10:33:22Z</time></trkpt><trkpt lat="44.57946181904246" lon="11.346842054821874"><ele>24.0</ele><time>2026-04-07T10:33:23Z</time></trkpt><trkpt lat="44.57962388893453" lon="11.346843558277108"><ele>23.666666666666668</ele><time>2026-04-07T10:33:24Z</time></trkpt><trkpt lat="44.57979544854532" lon="11.346844318458123"><ele>23.333333333333336</ele><time>2026-04-07T10:33:25Z</time></trkpt><trkpt lat="44.57997232293816" lon="11.346835169725864"><ele>23.0</ele><time>2026-04-07T10:33:26Z</time></trkpt><trkpt lat="44.58015386749373" lon="11.34683706135303"><ele>23.0</ele><time>2026-04-07T10:33:27Z</time></trkpt><trkpt lat="44.58034141400232" lon="11.346804905620433"><ele>23.0</ele><time>2026-04-07T10:33:28Z</time></trkpt><trkpt lat="44.580531253012744" lon="11.346758144676983"><ele>23.0</ele><time>2026-04-07T10:33:29Z</time></trkpt><trkpt lat="44.58073322644275" lon="11.346694983911663"><ele>23.0</ele><time>2026-04-07T10:33:30Z</time></trkpt><trkpt lat="44.58095972651499" lon="11.346609982607731"><ele>23.0</ele><time>2026-04-07T10:33:31Z</time></trkpt><trkpt lat="44.58117062239987" lon="11.346516943738472"><ele>22.333333333333336</ele><time>2026-04-07T10:33:32Z</time></trkpt><trkpt lat="44.58135777831362" lon="11.346430513125886"><ele>21.666666666666668</ele><time>2026-04-07T10:33:33Z</time></trkpt><trkpt lat="44.58152125115905" lon="11.346335831258044"><ele>21.0</ele><time>2026-04-07T10:33:34Z</time></trkpt><trkpt lat="44.58168257453858" lon="11.346270055311399"><ele>21.0</ele><time>2026-04-07T10:33:35Z</time></trkpt><trkpt lat="44.581848339485305" lon="11.346213548728892"><ele>21.0</ele><time>2026-04-07T10:33:36Z</time></trkpt><trkpt lat="44.58202067161313" lon="11.346160601023179"><ele>21.0</ele><time>2026-04-07T10:33:37.001Z</time></trkpt><trkpt lat="44.582188697877484" lon="11.346116999701623"><ele>22.0</ele><time>2026-04-07T10:33:38.001Z</time></trkpt><trkpt lat="44.58236173542187" lon="11.34608222276507"><ele>23.0</ele><time>2026-04-07T10:33:39.001Z</time></trkpt><trkpt lat="44.58253814127128" lon="11.346054907351492"><ele>24.0</ele><time>2026-04-07T10:33:40.001Z</time></trkpt><trkpt lat="44.58270778889195" lon="11.346043743613302"><ele>23.333333333333332</ele><time>2026-04-07T10:33:41.001Z</time></trkpt><trkpt lat="44.58287343712349" lon="11.346037233693695"><ele>22.666666666666664</ele><time>2026-04-07T10:33:42.001Z</time></trkpt><trkpt lat="44.58304542434858" lon="11.346041205211415"><ele>22.0</ele><time>2026-04-07T10:33:43.001Z</time></trkpt><trkpt lat="44.58322203333211" lon="11.346056699674907"><ele>22.0</ele><time>2026-04-07T10:33:44.001Z</time></trkpt><trkpt lat="44.583404561480066" lon="11.346083416518976"><ele>22.0</ele><time>2026-04-07T10:33:45.001Z</time></trkpt><trkpt lat="44.58358221395606" lon="11.34611733702211"><ele>22.0</ele><time>2026-04-07T10:33:46.001Z</time></trkpt><trkpt lat="44.583759632612804" lon="11.34615785558043"><ele>22.333333333333332</ele><time>2026-04-07T10:33:47.001Z</time></trkpt><trkpt lat="44.58394208078881" lon="11.346197387421164"><ele>22.666666666666668</ele><time>2026-04-07T10:33:48.001Z</time></trkpt><trkpt lat="44.58412149169271" lon="11.346238203728694"><ele>23.0</ele><time>2026-04-07T10:33:49.001Z</time></trkpt><trkpt lat="44.584293215024864" lon="11.346280656139902"><ele>23.0</ele><time>2026-04-07T10:33:50.001Z</time></trkpt><trkpt lat="44.58446614806937" lon="11.346320805357193"><ele>23.0</ele><time>2026-04-07T10:33:51.001Z</time></trkpt><trkpt lat="44.58463708065276" lon="11.346358531569274"><ele>23.0</ele><time>2026-04-07T10:33:52.001Z</time></trkpt><trkpt lat="44.58479565481515" lon="11.346395461684864"><ele>23.0</ele><time>2026-04-07T10:33:53.001Z</time></trkpt><trkpt lat="44.58494337890262" lon="11.346430248770357"><ele>23.0</ele><time>2026-04-07T10:33:54.001Z</time></trkpt><trkpt lat="44.585083544026034" lon="11.34646363830155"><ele>23.0</ele><time>2026-04-07T10:33:55.001Z</time></trkpt><trkpt lat="44.585233158732144" lon="11.346500430833581"><ele>23.0</ele><time>2026-04-07T10:33:56.001Z</time></trkpt><trkpt lat="44.58539232363802" lon="11.346540058574885"><ele>23.0</ele><time>2026-04-07T10:33:57.001Z</time></trkpt><trkpt lat="44.58554945779793" lon="11.346578966307899"><ele>23.0</ele><time>2026-04-07T10:33:58.001Z</time></trkpt><trkpt lat="44.5857019655039" lon="11.346619975296754"><ele>23.0</ele><time>2026-04-07T10:33:59.001Z</time></trkpt><trkpt lat="44.58587029465585" lon="11.346660319362252"><ele>23.0</ele><time>2026-04-07T10:34:00.001Z</time></trkpt><trkpt lat="44.586039474877744" lon="11.346696226711307"><ele>23.0</ele><time>2026-04-07T10:34:01.001Z</time></trkpt><trkpt lat="44.58619771864201" lon="11.346722608032152"><ele>23.0</ele><time>2026-04-07T10:34:02.001Z</time></trkpt><trkpt lat="44.58634542932625" lon="11.346779474837462"><ele>22.333333333333336</ele><time>2026-04-07T10:34:03.001Z</time></trkpt><trkpt lat="44.586500676845866" lon="11.346814798506918"><ele>21.666666666666668</ele><time>2026-04-07T10:34:04.001Z</time></trkpt><trkpt lat="44.58666423858513" lon="11.34685264166229"><ele>21.0</ele><time>2026-04-07T10:34:05.001Z</time></trkpt><trkpt lat="44.58683724409286" lon="11.346892669873656"><ele>21.0</ele><time>2026-04-07T10:34:06.001Z</time></trkpt><trkpt lat="44.587004622544654" lon="11.346928732274888"><ele>21.0</ele><time>2026-04-07T10:34:07.001Z</time></trkpt><trkpt lat="44.5871630425732" lon="11.346956398537532"><ele>21.0</ele><time>2026-04-07T10:34:08.001Z</time></trkpt><trkpt lat="44.587317162908846" lon="11.34697450770169"><ele>21.333333333333332</ele><time>2026-04-07T10:34:09.001Z</time></trkpt><trkpt lat="44.58747527277238" lon="11.3469867528378"><ele>21.666666666666664</ele><time>2026-04-07T10:34:10.001Z</time></trkpt><trkpt lat="44.587634129998094" lon="11.346995316874143"><ele>22.0</ele><time>2026-04-07T10:34:11.001Z</time></trkpt><trkpt lat="44.58779011117107" lon="11.347002549863177"><ele>22.0</ele><time>2026-04-07T10:34:12.001Z</time></trkpt><trkpt lat="44.58793545921753" lon="11.347008626542387"><ele>22.0</ele><time>2026-04-07T10:34:13.001Z</time></trkpt><trkpt lat="44.588094154773486" lon="11.346991245109804"><ele>22.0</ele><time>2026-04-07T10:34:14.001Z</time></trkpt><trkpt lat="44.58824825026529" lon="11.346999411848913"><ele>22.0</ele><time>2026-04-07T10:34:15.001Z</time></trkpt><trkpt lat="44.588399461806624" lon="11.347008461813738"><ele>22.0</ele><time>2026-04-07T10:34:16.001Z</time></trkpt><trkpt lat="44.58855558645134" lon="11.347012284592672"><ele>22.0</ele><time>2026-04-07T10:34:17.001Z</time></trkpt><trkpt lat="44.588734725547326" lon="11.347018430937426"><ele>21.333333333333332</ele><time>2026-04-07T10:34:18.001Z</time></trkpt><trkpt lat="44.58890084003947" lon="11.347048057292572"><ele>20.666666666666668</ele><time>2026-04-07T10:34:19.001Z</time></trkpt><trkpt lat="44.589083097140225" lon="11.347056041425393"><ele>20.0</ele><time>2026-04-07T10:34:20.001Z</time></trkpt><trkpt lat="44.589274372803004" lon="11.347064420663978"><ele>20.0</ele><time>2026-04-07T10:34:21.001Z</time></trkpt><trkpt lat="44.589475816532364" lon="11.34707324532618"><ele>20.0</ele><time>2026-04-07T10:34:22.001Z</time></trkpt><trkpt lat="44.58969769633455" lon="11.347082553434504"><ele>20.0</ele><time>2026-04-07T10:34:23.001Z</time></trkpt><trkpt lat="44.589942514536425" lon="11.347070030889995"><ele>20.666666666666668</ele><time>2026-04-07T10:34:25.001Z</time></trkpt><trkpt lat="44.59013053585031" lon="11.347076325275244"><ele>21.333333333333332</ele><time>2026-04-07T10:34:26.001Z</time></trkpt><trkpt lat="44.59032292487699" lon="11.347069499327205"><ele>22.0</ele><time>2026-04-07T10:34:27.001Z</time></trkpt><trkpt lat="44.59051116585807" lon="11.347055632082265"><ele>22.0</ele><time>2026-04-07T10:34:28.001Z</time></trkpt><trkpt lat="44.59069979330887" lon="11.347018747474937"><ele>22.0</ele><time>2026-04-07T10:34:29.001Z</time></trkpt><trkpt lat="44.59091032518717" lon="11.34696137110633"><ele>22.0</ele><time>2026-04-07T10:34:30.001Z</time></trkpt><trkpt lat="44.59114557934822" lon="11.346894523681089"><ele>22.5</ele><time>2026-04-07T10:34:31.001Z</time></trkpt><trkpt lat="44.59138621066475" lon="11.34679134649522"><ele>23.0</ele><time>2026-04-07T10:34:32.001Z</time></trkpt><trkpt lat="44.59163163014554" lon="11.34664235409421"><ele>23.0</ele><time>2026-04-07T10:34:33.001Z</time></trkpt><trkpt lat="44.591892211213406" lon="11.346494207913059"><ele>23.0</ele><time>2026-04-07T10:34:34.001Z</time></trkpt><trkpt lat="44.59215044420047" lon="11.34631459313592"><ele>22.0</ele><time>2026-04-07T10:34:35.001Z</time></trkpt><trkpt lat="44.592397894026966" lon="11.346091044617436"><ele>21.0</ele><time>2026-04-07T10:34:36.001Z</time></trkpt><trkpt lat="44.59261906618455" lon="11.345870645592932"><ele>21.0</ele><time>2026-04-07T10:34:37.001Z</time></trkpt><trkpt lat="44.59283877891087" lon="11.34563582451101"><ele>21.0</ele><time>2026-04-07T10:34:38.001Z</time></trkpt><trkpt lat="44.59305728668416" lon="11.345413383017528"><ele>21.5</ele><time>2026-04-07T10:34:39.001Z</time></trkpt><trkpt lat="44.593276564645585" lon="11.345215225990913"><ele>22.0</ele><time>2026-04-07T10:34:40.001Z</time></trkpt><trkpt lat="44.59349852322599" lon="11.345027852272018"><ele>21.5</ele><time>2026-04-07T10:34:41.001Z</time></trkpt><trkpt lat="44.593725242725505" lon="11.344854723391403"><ele>21.0</ele><time>2026-04-07T10:34:42.001Z</time></trkpt><trkpt lat="44.59395492461824" lon="11.344697725302128"><ele>21.0</ele><time>2026-04-07T10:34:43.001Z</time></trkpt><trkpt lat="44.59418923443444" lon="11.344565998723922"><ele>21.0</ele><time>2026-04-07T10:34:44.001Z</time></trkpt><trkpt lat="44.59442399054816" lon="11.344454127892044"><ele>20.5</ele><time>2026-04-07T10:34:45.001Z</time></trkpt><trkpt lat="44.59466036655141" lon="11.344382465951716"><ele>20.0</ele><time>2026-04-07T10:34:46.001Z</time></trkpt><trkpt lat="44.594895309263286" lon="11.344320794380478"><ele>20.0</ele><time>2026-04-07T10:34:47.001Z</time></trkpt><trkpt lat="44.59513181091856" lon="11.344282376143132"><ele>20.0</ele><time>2026-04-07T10:34:48.001Z</time></trkpt><trkpt lat="44.595371067166404" lon="11.344268837863439"><ele>19.5</ele><time>2026-04-07T10:34:49.001Z</time></trkpt><trkpt lat="44.59561129954903" lon="11.344261817880666"><ele>19.0</ele><time>2026-04-07T10:34:50.001Z</time></trkpt><trkpt lat="44.595850632762875" lon="11.344269093761838"><ele>19.0</ele><time>2026-04-07T10:34:51.001Z</time></trkpt><trkpt lat="44.59608965911441" lon="11.34428576684709"><ele>19.0</ele><time>2026-04-07T10:34:52Z</time></trkpt><trkpt lat="44.596328784742944" lon="11.344312292856905"><ele>19.5</ele><time>2026-04-07T10:34:53Z</time></trkpt><trkpt lat="44.59656699885386" lon="11.34435021146566"><ele>20.0</ele><time>2026-04-07T10:34:54Z</time></trkpt><trkpt lat="44.59680384101081" lon="11.344399462876979"><ele>19.5</ele><time>2026-04-07T10:34:55Z</time></trkpt><trkpt lat="44.597036543772624" lon="11.344463892636124"><ele>19.0</ele><time>2026-04-07T10:34:56Z</time></trkpt><trkpt lat="44.597257649503646" lon="11.344533858545095"><ele>19.0</ele><time>2026-04-07T10:34:57Z</time></trkpt><trkpt lat="44.597476117111164" lon="11.344627798214253"><ele>19.0</ele><time>2026-04-07T10:34:58Z</time></trkpt><trkpt lat="44.59769170582975" lon="11.344735613085655"><ele>18.5</ele><time>2026-04-07T10:34:59Z</time></trkpt><trkpt lat="44.59790637653331" lon="11.344855059167765"><ele>18.0</ele><time>2026-04-07T10:35:00Z</time></trkpt><trkpt lat="44.598121000819916" lon="11.344982922488363"><ele>18.0</ele><time>2026-04-07T10:35:01Z</time></trkpt><trkpt lat="44.59833066784861" lon="11.345121991101065"><ele>18.0</ele><time>2026-04-07T10:35:02Z</time></trkpt><trkpt lat="44.598535169620554" lon="11.345273530600059"><ele>18.0</ele><time>2026-04-07T10:35:03Z</time></trkpt><trkpt lat="44.59874148832618" lon="11.34543588580601"><ele>18.0</ele><time>2026-04-07T10:35:04Z</time></trkpt><trkpt lat="44.59894659967698" lon="11.345608185717811"><ele>18.0</ele><time>2026-04-07T10:35:05Z</time></trkpt><trkpt lat="44.59916313292341" lon="11.345792715289491"><ele>18.0</ele><time>2026-04-07T10:35:06Z</time></trkpt><trkpt lat="44.59938790658732" lon="11.345986293209222"><ele>20.0</ele><time>2026-04-07T10:35:07Z</time></trkpt><trkpt lat="44.5996096262932" lon="11.346174526011728"><ele>22.0</ele><time>2026-04-07T10:35:08Z</time></trkpt><trkpt lat="44.59983567609609" lon="11.346360285979577"><ele>20.5</ele><time>2026-04-07T10:35:09Z</time></trkpt><trkpt lat="44.60005482004052" lon="11.346530813367583"><ele>19.0</ele><time>2026-04-07T10:35:10Z</time></trkpt><trkpt lat="44.60025963545816" lon="11.346696362996422"><ele>20.0</ele><time>2026-04-07T10:35:11Z</time></trkpt><trkpt lat="44.60044999436067" lon="11.346851280518935"><ele>21.0</ele><time>2026-04-07T10:35:12Z</time></trkpt><trkpt lat="44.60061800196452" lon="11.347002452215568"><ele>22.0</ele><time>2026-04-07T10:35:13Z</time></trkpt><trkpt lat="44.60076619672113" lon="11.34714625526092"><ele>22.0</ele><time>2026-04-07T10:35:14Z</time></trkpt><trkpt lat="44.600892145666215" lon="11.347287237119918"><ele>22.0</ele><time>2026-04-07T10:35:15Z</time></trkpt><trkpt lat="44.6009961309774" lon="11.347442356573042"><ele>22.0</ele><time>2026-04-07T10:35:16Z</time></trkpt><trkpt lat="44.60106775061806" lon="11.347623849090013"><ele>22.0</ele><time>2026-04-07T10:35:17Z</time></trkpt><trkpt lat="44.60110238953914" lon="11.34782685968049"><ele>22.0</ele><time>2026-04-07T10:35:18Z</time></trkpt><trkpt lat="44.601093300476876" lon="11.348020106717412"><ele>22.0</ele><time>2026-04-07T10:35:19Z</time></trkpt><trkpt lat="44.60103874504905" lon="11.34819793645758"><ele>22.0</ele><time>2026-04-07T10:35:20Z</time></trkpt><trkpt lat="44.600948197275656" lon="11.348355050203654"><ele>21.5</ele><time>2026-04-07T10:35:21Z</time></trkpt><trkpt lat="44.60082540900502" lon="11.348474208848277"><ele>21.0</ele><time>2026-04-07T10:35:22Z</time></trkpt><trkpt lat="44.60068370492464" lon="11.34854320013531"><ele>20.5</ele><time>2026-04-07T10:35:23Z</time></trkpt><trkpt lat="44.60053919280776" lon="11.348533144181179"><ele>20.0</ele><time>2026-04-07T10:35:24Z</time></trkpt><trkpt lat="44.60039903478176" lon="11.348445800600025"><ele>20.333333333333336</ele><time>2026-04-07T10:35:25Z</time></trkpt><trkpt lat="44.600275129891955" lon="11.348312227179377"><ele>20.666666666666668</ele><time>2026-04-07T10:35:26Z</time></trkpt><trkpt lat="44.600156036463545" lon="11.348139563923322"><ele>21.0</ele><time>2026-04-07T10:35:27Z</time></trkpt><trkpt lat="44.600037243864676" lon="11.347956769166153"><ele>21.0</ele><time>2026-04-07T10:35:28Z</time></trkpt><trkpt lat="44.59992615296154" lon="11.347799673757946"><ele>21.0</ele><time>2026-04-07T10:35:29Z</time></trkpt><trkpt lat="44.599830663811844" lon="11.347675796678097"><ele>21.0</ele><time>2026-04-07T10:35:30Z</time></trkpt><trkpt lat="44.59976343824403" lon="11.347575463383391"><ele>21.0</ele><time>2026-04-07T10:35:31Z</time></trkpt><trkpt lat="44.59973625318072" lon="11.347486054471315"><ele>21.0</ele><time>2026-04-07T10:35:32Z</time></trkpt><trkpt lat="44.59973948952973" lon="11.347390102382334"><ele>21.0</ele><time>2026-04-07T10:35:33Z</time></trkpt><trkpt lat="44.59978272679906" lon="11.347294047657076"><ele>21.0</ele><time>2026-04-07T10:35:34Z</time></trkpt><trkpt lat="44.599848649967875" lon="11.347185520105576"><ele>21.0</ele><time>2026-04-07T10:35:35Z</time></trkpt><trkpt lat="44.59992346329512" lon="11.347039243473748"><ele>21.0</ele><time>2026-04-07T10:35:36Z</time></trkpt><trkpt lat="44.6000051312361" lon="11.346855620565343"><ele>21.333333333333332</ele><time>2026-04-07T10:35:37Z</time></trkpt><trkpt lat="44.600081317328076" lon="11.346676333129919"><ele>21.666666666666664</ele><time>2026-04-07T10:35:38Z</time></trkpt><trkpt lat="44.600158131777604" lon="11.34649921715808"><ele>22.0</ele><time>2026-04-07T10:35:39Z</time></trkpt><trkpt lat="44.60023945278786" lon="11.346308575578016"><ele>22.0</ele><time>2026-04-07T10:35:40Z</time></trkpt><trkpt lat="44.60033279589254" lon="11.346088956643426"><ele>22.0</ele><time>2026-04-07T10:35:41Z</time></trkpt><trkpt lat="44.600430208045175" lon="11.345862784203787"><ele>22.0</ele><time>2026-04-07T10:35:42Z</time></trkpt><trkpt lat="44.60053574813942" lon="11.34561591844176"><ele>21.666666666666664</ele><time>2026-04-07T10:35:43Z</time></trkpt><trkpt lat="44.6006364364286" lon="11.345378729863219"><ele>21.333333333333332</ele><time>2026-04-07T10:35:44Z</time></trkpt><trkpt lat="44.600736614741514" lon="11.345149316354016"><ele>21.0</ele><time>2026-04-07T10:35:45Z</time></trkpt><trkpt lat="44.60084624183442" lon="11.344898787534737"><ele>20.5</ele><time>2026-04-07T10:35:46Z</time></trkpt><trkpt lat="44.60096678536621" lon="11.344624612055974"><ele>20.0</ele><time>2026-04-07T10:35:47Z</time></trkpt><trkpt lat="44.6010956221188" lon="11.344327660388206"><ele>20.0</ele><time>2026-04-07T10:35:48Z</time></trkpt><trkpt lat="44.60121741755699" lon="11.344045817871573"><ele>20.0</ele><time>2026-04-07T10:35:49Z</time></trkpt><trkpt lat="44.60133833248248" lon="11.343771787748619"><ele>19.5</ele><time>2026-04-07T10:35:50.001Z</time></trkpt><trkpt lat="44.601471423397165" lon="11.343474352559943"><ele>19.0</ele><time>2026-04-07T10:35:51.001Z</time></trkpt><trkpt lat="44.60161147841754" lon="11.343161212631337"><ele>18.5</ele><time>2026-04-07T10:35:52.001Z</time></trkpt><trkpt lat="44.60174709803516" lon="11.34284900642059"><ele>18.0</ele><time>2026-04-07T10:35:53.001Z</time></trkpt><trkpt lat="44.60187895427346" lon="11.34254210552957"><ele>18.0</ele><time>2026-04-07T10:35:54.001Z</time></trkpt><trkpt lat="44.60201311928318" lon="11.342229222172902"><ele>18.0</ele><time>2026-04-07T10:35:55.001Z</time></trkpt><trkpt lat="44.60214770290756" lon="11.341918885220894"><ele>18.5</ele><time>2026-04-07T10:35:56.001Z</time></trkpt><trkpt lat="44.60227416732694" lon="11.34160289298001"><ele>19.0</ele><time>2026-04-07T10:35:57.001Z</time></trkpt><trkpt lat="44.602385679239134" lon="11.341279202880736"><ele>19.0</ele><time>2026-04-07T10:35:58.001Z</time></trkpt><trkpt lat="44.60249064596624" lon="11.340946567669638"><ele>19.0</ele><time>2026-04-07T10:35:59.001Z</time></trkpt><trkpt lat="44.60259098461859" lon="11.340616018908666"><ele>20.5</ele><time>2026-04-07T10:36:00.001Z</time></trkpt><trkpt lat="44.602685985031705" lon="11.340286367667462"><ele>22.0</ele><time>2026-04-07T10:36:01.001Z</time></trkpt><trkpt lat="44.60278006876376" lon="11.339953761437501"><ele>21.5</ele><time>2026-04-07T10:36:02.001Z</time></trkpt><trkpt lat="44.602878830841306" lon="11.33962664965157"><ele>21.0</ele><time>2026-04-07T10:36:03.001Z</time></trkpt><trkpt lat="44.60297908040478" lon="11.339305299030853"><ele>21.0</ele><time>2026-04-07T10:36:04.001Z</time></trkpt><trkpt lat="44.603077473991995" lon="11.338981890481525"><ele>21.0</ele><time>2026-04-07T10:36:05.001Z</time></trkpt><trkpt lat="44.60317143681853" lon="11.33866011682063"><ele>21.0</ele><time>2026-04-07T10:36:06.001Z</time></trkpt><trkpt lat="44.60326818195846" lon="11.33834270287072"><ele>21.0</ele><time>2026-04-07T10:36:07.001Z</time></trkpt><trkpt lat="44.60337685237066" lon="11.338026310897945"><ele>21.0</ele><time>2026-04-07T10:36:08.001Z</time></trkpt><trkpt lat="44.60349943123219" lon="11.337721292348345"><ele>21.0</ele><time>2026-04-07T10:36:09.001Z</time></trkpt><trkpt lat="44.60363524685664" lon="11.337420894917603"><ele>21.0</ele><time>2026-04-07T10:36:10.001Z</time></trkpt><trkpt lat="44.603784087979" lon="11.337136213980163"><ele>21.0</ele><time>2026-04-07T10:36:11.001Z</time></trkpt><trkpt lat="44.60394765020648" lon="11.336858791773343"><ele>21.0</ele><time>2026-04-07T10:36:12.001Z</time></trkpt><trkpt lat="44.60411747184343" lon="11.33658865168852"><ele>21.0</ele><time>2026-04-07T10:36:13.001Z</time></trkpt><trkpt lat="44.60428776820683" lon="11.336328427937362"><ele>20.5</ele><time>2026-04-07T10:36:14.001Z</time></trkpt><trkpt lat="44.60446041096168" lon="11.336069997817567"><ele>20.0</ele><time>2026-04-07T10:36:15.001Z</time></trkpt><trkpt lat="44.6046278980006" lon="11.335812202030443"><ele>20.0</ele><time>2026-04-07T10:36:16.001Z</time></trkpt><trkpt lat="44.60478129312629" lon="11.335570667339834"><ele>20.0</ele><time>2026-04-07T10:36:17.001Z</time></trkpt><trkpt lat="44.60493232082336" lon="11.335338326386715"><ele>21.0</ele><time>2026-04-07T10:36:18.001Z</time></trkpt><trkpt lat="44.605086682816726" lon="11.335101949205965"><ele>22.0</ele><time>2026-04-07T10:36:19.001Z</time></trkpt><trkpt lat="44.605236778119014" lon="11.3348736590488"><ele>20.666666666666664</ele><time>2026-04-07T10:36:20.001Z</time></trkpt><trkpt lat="44.605381589180354" lon="11.334657737695261"><ele>19.333333333333332</ele><time>2026-04-07T10:36:21.001Z</time></trkpt><trkpt lat="44.605512564050215" lon="11.334465727052914"><ele>18.0</ele><time>2026-04-07T10:36:22.001Z</time></trkpt><trkpt lat="44.60562829617969" lon="11.334287228868524"><ele>18.0</ele><time>2026-04-07T10:36:23.001Z</time></trkpt><trkpt lat="44.60582009203133" lon="11.333957227747655"><ele>18.0</ele><time>2026-04-07T10:36:25.001Z</time></trkpt><trkpt lat="44.60592065855869" lon="11.333832962748811"><ele>18.0</ele><time>2026-04-07T10:36:26.001Z</time></trkpt><trkpt lat="44.606043554531475" lon="11.333741745445822"><ele>19.0</ele><time>2026-04-07T10:36:27.001Z</time></trkpt><trkpt lat="44.6061838647109" lon="11.33369640820707"><ele>20.0</ele><time>2026-04-07T10:36:28.001Z</time></trkpt><trkpt lat="44.60634706093532" lon="11.333695232325518"><ele>21.0</ele><time>2026-04-07T10:36:29.001Z</time></trkpt><trkpt lat="44.60652340732971" lon="11.333721857224239"><ele>21.0</ele><time>2026-04-07T10:36:30.001Z</time></trkpt><trkpt lat="44.606715331352206" lon="11.333710572747506"><ele>21.0</ele><time>2026-04-07T10:36:31.001Z</time></trkpt><trkpt lat="44.606911981618914" lon="11.33365996270764"><ele>21.0</ele><time>2026-04-07T10:36:32.001Z</time></trkpt><trkpt lat="44.607119886836536" lon="11.333623738688843"><ele>21.0</ele><time>2026-04-07T10:36:33.001Z</time></trkpt><trkpt lat="44.60731797086441" lon="11.333657918139728"><ele>21.0</ele><time>2026-04-07T10:36:34.001Z</time></trkpt><trkpt lat="44.607519712738615" lon="11.333702307853667"><ele>21.0</ele><time>2026-04-07T10:36:35.001Z</time></trkpt><trkpt lat="44.60772108215135" lon="11.33373091425991"><ele>21.0</ele><time>2026-04-07T10:36:36.001Z</time></trkpt><trkpt lat="44.607898984567974" lon="11.333798247811092"><ele>21.0</ele><time>2026-04-07T10:36:37.001Z</time></trkpt><trkpt lat="44.60808163772883" lon="11.333893500493764"><ele>21.0</ele><time>2026-04-07T10:36:38.001Z</time></trkpt><trkpt lat="44.6082493442086" lon="11.334052989404077"><ele>21.0</ele><time>2026-04-07T10:36:39.001Z</time></trkpt><trkpt lat="44.60841905800216" lon="11.33423146100313"><ele>21.0</ele><time>2026-04-07T10:36:40.001Z</time></trkpt><trkpt lat="44.6086041696347" lon="11.334401853455017"><ele>21.0</ele><time>2026-04-07T10:36:41.001Z</time></trkpt><trkpt lat="44.60879416371992" lon="11.334558747834203"><ele>21.0</ele><time>2026-04-07T10:36:42.001Z</time></trkpt><trkpt lat="44.608998336291535" lon="11.33466759099058"><ele>21.0</ele><time>2026-04-07T10:36:43.001Z</time></trkpt><trkpt lat="44.60920241435949" lon="11.334738521597707"><ele>21.0</ele><time>2026-04-07T10:36:44.001Z</time></trkpt><trkpt lat="44.60940131849711" lon="11.33477317362553"><ele>21.0</ele><time>2026-04-07T10:36:45.001Z</time></trkpt><trkpt lat="44.609606836329554" lon="11.334803976035582"><ele>21.0</ele><time>2026-04-07T10:36:46.001Z</time></trkpt><trkpt lat="44.60981586039902" lon="11.334844999888487"><ele>21.0</ele><time>2026-04-07T10:36:47.001Z</time></trkpt><trkpt lat="44.61002835670635" lon="11.33489341580781"><ele>21.0</ele><time>2026-04-07T10:36:48.001Z</time></trkpt><trkpt lat="44.61024267283658" lon="11.334945686623483"><ele>21.0</ele><time>2026-04-07T10:36:49.001Z</time></trkpt><trkpt lat="44.610453070078954" lon="11.334995593520786"><ele>21.0</ele><time>2026-04-07T10:36:50.001Z</time></trkpt><trkpt lat="44.61067043310509" lon="11.335052178064755"><ele>21.5</ele><time>2026-04-07T10:36:51.001Z</time></trkpt><trkpt lat="44.610893447082546" lon="11.335117608782694"><ele>22.0</ele><time>2026-04-07T10:36:52.001Z</time></trkpt><trkpt lat="44.611125772914704" lon="11.335192208661706"><ele>21.5</ele><time>2026-04-07T10:36:53.001Z</time></trkpt><trkpt lat="44.61136008137336" lon="11.335267870479"><ele>21.0</ele><time>2026-04-07T10:36:54.001Z</time></trkpt><trkpt lat="44.61159485427673" lon="11.335341303679089"><ele>21.0</ele><time>2026-04-07T10:36:55.001Z</time></trkpt><trkpt lat="44.61183066334205" lon="11.335411814275169"><ele>21.0</ele><time>2026-04-07T10:36:56.001Z</time></trkpt><trkpt lat="44.61206600614696" lon="11.335482839295183"><ele>20.5</ele><time>2026-04-07T10:36:57.001Z</time></trkpt><trkpt lat="44.612300639138304" lon="11.335557026247487"><ele>20.0</ele><time>2026-04-07T10:36:58Z</time></trkpt><trkpt lat="44.61253204903284" lon="11.335632396364932"><ele>20.0</ele><time>2026-04-07T10:36:59Z</time></trkpt><trkpt lat="44.61276422609005" lon="11.33571097742022"><ele>20.0</ele><time>2026-04-07T10:37:00Z</time></trkpt><trkpt lat="44.61298662065143" lon="11.335793494183047"><ele>20.0</ele><time>2026-04-07T10:37:01Z</time></trkpt><trkpt lat="44.613216447657955" lon="11.335889563305567"><ele>20.0</ele><time>2026-04-07T10:37:02Z</time></trkpt><trkpt lat="44.61344425750684" lon="11.335993518719844"><ele>20.0</ele><time>2026-04-07T10:37:03Z</time></trkpt><trkpt lat="44.61367479356013" lon="11.336100110127822"><ele>20.0</ele><time>2026-04-07T10:37:04Z</time></trkpt><trkpt lat="44.61391155337275" lon="11.336201578459361"><ele>20.0</ele><time>2026-04-07T10:37:05Z</time></trkpt><trkpt lat="44.61414970888285" lon="11.33630019905999"><ele>20.0</ele><time>2026-04-07T10:37:06Z</time></trkpt><trkpt lat="44.61438577395093" lon="11.336398249050019"><ele>19.5</ele><time>2026-04-07T10:37:07Z</time></trkpt><trkpt lat="44.61462088349085" lon="11.336499046927122"><ele>19.0</ele><time>2026-04-07T10:37:08Z</time></trkpt><trkpt lat="44.614853700518616" lon="11.336599396657165"><ele>19.0</ele><time>2026-04-07T10:37:09Z</time></trkpt><trkpt lat="44.61508663646157" lon="11.33669923378514"><ele>19.0</ele><time>2026-04-07T10:37:10Z</time></trkpt><trkpt lat="44.61532186240998" lon="11.336796652655707"><ele>19.5</ele><time>2026-04-07T10:37:11Z</time></trkpt><trkpt lat="44.61555280812405" lon="11.336889974220764"><ele>20.0</ele><time>2026-04-07T10:37:12Z</time></trkpt><trkpt lat="44.615786129740684" lon="11.336982763053442"><ele>20.0</ele><time>2026-04-07T10:37:13Z</time></trkpt><trkpt lat="44.61601652522918" lon="11.337074462059835"><ele>20.0</ele><time>2026-04-07T10:37:14Z</time></trkpt><trkpt lat="44.616246735537025" lon="11.337163092052673"><ele>20.0</ele><time>2026-04-07T10:37:15Z</time></trkpt><trkpt lat="44.61648143310613" lon="11.337248931977305"><ele>20.0</ele><time>2026-04-07T10:37:16Z</time></trkpt><trkpt lat="44.616714270927105" lon="11.337335037293562"><ele>20.0</ele><time>2026-04-07T10:37:17Z</time></trkpt><trkpt lat="44.61694468848148" lon="11.33741883518802"><ele>20.0</ele><time>2026-04-07T10:37:18Z</time></trkpt><trkpt lat="44.617176971470904" lon="11.337504380264203"><ele>19.0</ele><time>2026-04-07T10:37:19Z</time></trkpt><trkpt lat="44.617408758860236" lon="11.337590373848538"><ele>18.0</ele><time>2026-04-07T10:37:20Z</time></trkpt><trkpt lat="44.617625035391946" lon="11.337668356083563"><ele>18.333333333333332</ele><time>2026-04-07T10:37:21Z</time></trkpt><trkpt lat="44.61782585277155" lon="11.337744473672103"><ele>18.666666666666664</ele><time>2026-04-07T10:37:22Z</time></trkpt><trkpt lat="44.61801705991144" lon="11.337816623809436"><ele>19.0</ele><time>2026-04-07T10:37:23Z</time></trkpt><trkpt lat="44.61819635382028" lon="11.337884357375486"><ele>19.0</ele><time>2026-04-07T10:37:24Z</time></trkpt><trkpt lat="44.61838558755576" lon="11.337932637249281"><ele>19.0</ele><time>2026-04-07T10:37:25Z</time></trkpt><trkpt lat="44.618581654768086" lon="11.337933056046225"><ele>19.0</ele><time>2026-04-07T10:37:26Z</time></trkpt><trkpt lat="44.61877732377539" lon="11.337869537801293"><ele>19.0</ele><time>2026-04-07T10:37:27Z</time></trkpt><trkpt lat="44.61896294391841" lon="11.337749935899877"><ele>19.0</ele><time>2026-04-07T10:37:28Z</time></trkpt><trkpt lat="44.619137188140165" lon="11.337592860322495"><ele>19.0</ele><time>2026-04-07T10:37:29Z</time></trkpt><trkpt lat="44.61930786496262" lon="11.337411470469252"><ele>18.666666666666664</ele><time>2026-04-07T10:37:30Z</time></trkpt><trkpt lat="44.61948391902526" lon="11.337232957550594"><ele>18.333333333333332</ele><time>2026-04-07T10:37:31Z</time></trkpt><trkpt lat="44.61967066136499" lon="11.337070127732463"><ele>18.0</ele><time>2026-04-07T10:37:32Z</time></trkpt><trkpt lat="44.61986784346633" lon="11.336908541716555"><ele>19.0</ele><time>2026-04-07T10:37:33Z</time></trkpt><trkpt lat="44.620060625561564" lon="11.3367388453448"><ele>20.0</ele><time>2026-04-07T10:37:34Z</time></trkpt><trkpt lat="44.62025103188349" lon="11.336565583135117"><ele>20.0</ele><time>2026-04-07T10:37:35Z</time></trkpt><trkpt lat="44.62042719680779" lon="11.336407251321852"><ele>20.0</ele><time>2026-04-07T10:37:36Z</time></trkpt><trkpt lat="44.62059174606964" lon="11.336267461744109"><ele>20.0</ele><time>2026-04-07T10:37:37Z</time></trkpt><trkpt lat="44.62076077762204" lon="11.336148103049096"><ele>20.333333333333336</ele><time>2026-04-07T10:37:38Z</time></trkpt><trkpt lat="44.62093842613398" lon="11.336077664359134"><ele>20.666666666666668</ele><time>2026-04-07T10:37:39Z</time></trkpt><trkpt lat="44.62112405937929" lon="11.336070844181773"><ele>21.0</ele><time>2026-04-07T10:37:40Z</time></trkpt><trkpt lat="44.6213097689384" lon="11.336104885131903"><ele>20.333333333333332</ele><time>2026-04-07T10:37:41.001Z</time></trkpt><trkpt lat="44.621500644766954" lon="11.336190045909875"><ele>19.666666666666664</ele><time>2026-04-07T10:37:42.001Z</time></trkpt><trkpt lat="44.62169333515334" lon="11.336312563459671"><ele>19.0</ele><time>2026-04-07T10:37:43.001Z</time></trkpt><trkpt lat="44.62189241888339" lon="11.33644366552716"><ele>20.0</ele><time>2026-04-07T10:37:44.001Z</time></trkpt><trkpt lat="44.622112361325286" lon="11.336562524709159"><ele>21.0</ele><time>2026-04-07T10:37:45.001Z</time></trkpt><trkpt lat="44.62234110292567" lon="11.33667712710079"><ele>21.0</ele><time>2026-04-07T10:37:46.001Z</time></trkpt><trkpt lat="44.622574416663866" lon="11.336800430315732"><ele>21.0</ele><time>2026-04-07T10:37:47.001Z</time></trkpt><trkpt lat="44.62279931234816" lon="11.336921970365083"><ele>20.5</ele><time>2026-04-07T10:37:48.001Z</time></trkpt><trkpt lat="44.62302134921805" lon="11.337050015156546"><ele>20.0</ele><time>2026-04-07T10:37:49.001Z</time></trkpt><trkpt lat="44.62324724673257" lon="11.337175773380183"><ele>19.5</ele><time>2026-04-07T10:37:50.001Z</time></trkpt><trkpt lat="44.623482720177314" lon="11.337303008628885"><ele>19.0</ele><time>2026-04-07T10:37:51.001Z</time></trkpt><trkpt lat="44.62372490870487" lon="11.337426169073842"><ele>19.0</ele><time>2026-04-07T10:37:52.001Z</time></trkpt><trkpt lat="44.6239701575881" lon="11.337545676234749"><ele>19.0</ele><time>2026-04-07T10:37:53.001Z</time></trkpt><trkpt lat="44.62422744260076" lon="11.337663528402414"><ele>19.0</ele><time>2026-04-07T10:37:54.001Z</time></trkpt><trkpt lat="44.624479080797116" lon="11.33777284785959"><ele>19.0</ele><time>2026-04-07T10:37:55.001Z</time></trkpt><trkpt lat="44.62473702585736" lon="11.337882391400054"><ele>18.5</ele><time>2026-04-07T10:37:56.001Z</time></trkpt><trkpt lat="44.624996826438064" lon="11.337998924196617"><ele>18.0</ele><time>2026-04-07T10:37:57.001Z</time></trkpt><trkpt lat="44.62525586031294" lon="11.33812345274804"><ele>18.5</ele><time>2026-04-07T10:37:58.001Z</time></trkpt><trkpt lat="44.62551230946354" lon="11.338262865090698"><ele>19.0</ele><time>2026-04-07T10:37:59.001Z</time></trkpt><trkpt lat="44.625762528483406" lon="11.338420059044068"><ele>19.0</ele><time>2026-04-07T10:38:00.001Z</time></trkpt><trkpt lat="44.62600687244632" lon="11.338594022974613"><ele>19.0</ele><time>2026-04-07T10:38:01.001Z</time></trkpt><trkpt lat="44.626252307267336" lon="11.338770547261271"><ele>19.0</ele><time>2026-04-07T10:38:02.001Z</time></trkpt><trkpt lat="44.62649707709072" lon="11.338941381079422"><ele>19.0</ele><time>2026-04-07T10:38:03.001Z</time></trkpt><trkpt lat="44.626748593362" lon="11.339112841361471"><ele>19.5</ele><time>2026-04-07T10:38:04.001Z</time></trkpt><trkpt lat="44.62699155006827" lon="11.339283368081476"><ele>20.0</ele><time>2026-04-07T10:38:05.001Z</time></trkpt><trkpt lat="44.62721897592592" lon="11.339440083789455"><ele>20.0</ele><time>2026-04-07T10:38:06.001Z</time></trkpt><trkpt lat="44.62742862540165" lon="11.339583747772242"><ele>20.0</ele><time>2026-04-07T10:38:07.001Z</time></trkpt><trkpt lat="44.62762366070108" lon="11.339724496366703"><ele>19.5</ele><time>2026-04-07T10:38:08.001Z</time></trkpt><trkpt lat="44.62781915456304" lon="11.339877481183455"><ele>19.0</ele><time>2026-04-07T10:38:09.001Z</time></trkpt><trkpt lat="44.628014421971656" lon="11.3400542181032"><ele>19.0</ele><time>2026-04-07T10:38:10.001Z</time></trkpt><trkpt lat="44.628205266998556" lon="11.340234124981311"><ele>19.0</ele><time>2026-04-07T10:38:11.001Z</time></trkpt><trkpt lat="44.628404030215236" lon="11.3404136792578"><ele>19.0</ele><time>2026-04-07T10:38:12.001Z</time></trkpt><trkpt lat="44.62860022165536" lon="11.34058930222745"><ele>19.0</ele><time>2026-04-07T10:38:13.001Z</time></trkpt><trkpt lat="44.6288050168531" lon="11.34077025186328"><ele>18.0</ele><time>2026-04-07T10:38:14.001Z</time></trkpt><trkpt lat="44.62901199831821" lon="11.340944381956696"><ele>17.0</ele><time>2026-04-07T10:38:15.001Z</time></trkpt><trkpt lat="44.62922397269508" lon="11.341109625751672"><ele>17.0</ele><time>2026-04-07T10:38:16.001Z</time></trkpt><trkpt lat="44.62943825887082" lon="11.341267238790484"><ele>17.0</ele><time>2026-04-07T10:38:17.001Z</time></trkpt><trkpt lat="44.62965743869411" lon="11.341424620631688"><ele>19.0</ele><time>2026-04-07T10:38:18.001Z</time></trkpt><trkpt lat="44.629871908510204" lon="11.341582141482709"><ele>21.0</ele><time>2026-04-07T10:38:19.001Z</time></trkpt><trkpt lat="44.63008331439988" lon="11.341743622155061"><ele>21.0</ele><time>2026-04-07T10:38:20.001Z</time></trkpt><trkpt lat="44.630290572230365" lon="11.34190463821"><ele>21.0</ele><time>2026-04-07T10:38:21.001Z</time></trkpt><trkpt lat="44.63050051940004" lon="11.342064961554486"><ele>20.0</ele><time>2026-04-07T10:38:22.001Z</time></trkpt><trkpt lat="44.63070583226374" lon="11.342222984358902"><ele>19.0</ele><time>2026-04-07T10:38:23.001Z</time></trkpt><trkpt lat="44.630915831359225" lon="11.342383508194807"><ele>19.0</ele><time>2026-04-07T10:38:24.001Z</time></trkpt><trkpt lat="44.63112125848085" lon="11.342544070207447"><ele>19.0</ele><time>2026-04-07T10:38:25.001Z</time></trkpt><trkpt lat="44.6313342295133" lon="11.342707220776893"><ele>19.0</ele><time>2026-04-07T10:38:26.001Z</time></trkpt><trkpt lat="44.63154621397644" lon="11.34287265749813"><ele>19.0</ele><time>2026-04-07T10:38:27.001Z</time></trkpt><trkpt lat="44.63175615251137" lon="11.343039623244971"><ele>19.0</ele><time>2026-04-07T10:38:28.001Z</time></trkpt><trkpt lat="44.63195502035315" lon="11.343196108714844"><ele>19.0</ele><time>2026-04-07T10:38:29.001Z</time></trkpt><trkpt lat="44.63215311365964" lon="11.343347673755908"><ele>19.333333333333332</ele><time>2026-04-07T10:38:30.001Z</time></trkpt><trkpt lat="44.63234888332415" lon="11.343498468076337"><ele>19.666666666666668</ele><time>2026-04-07T10:38:31.001Z</time></trkpt><trkpt lat="44.632534593432254" lon="11.343639136174911"><ele>20.0</ele><time>2026-04-07T10:38:32.001Z</time></trkpt><trkpt lat="44.63273078799169" lon="11.343768634999709"><ele>19.333333333333336</ele><time>2026-04-07T10:38:33.001Z</time></trkpt><trkpt lat="44.63293525752753" lon="11.343877307329755"><ele>18.666666666666668</ele><time>2026-04-07T10:38:34.001Z</time></trkpt><trkpt lat="44.63315521227386" lon="11.343958240974619"><ele>18.0</ele><time>2026-04-07T10:38:35.001Z</time></trkpt><trkpt lat="44.633392970926046" lon="11.344022024349082"><ele>18.0</ele><time>2026-04-07T10:38:36.001Z</time></trkpt><trkpt lat="44.63362481557564" lon="11.344091651235807"><ele>18.0</ele><time>2026-04-07T10:38:37.001Z</time></trkpt><trkpt lat="44.63386167263435" lon="11.344168246269723"><ele>17.5</ele><time>2026-04-07T10:38:38.001Z</time></trkpt><trkpt lat="44.63410226485357" lon="11.34424831618008"><ele>17.0</ele><time>2026-04-07T10:38:39.001Z</time></trkpt><trkpt lat="44.63432481097626" lon="11.344322594091516"><ele>17.666666666666668</ele><time>2026-04-07T10:38:40.001Z</time></trkpt><trkpt lat="44.63452721491589" lon="11.344390557722058"><ele>18.333333333333332</ele><time>2026-04-07T10:38:41.001Z</time></trkpt><trkpt lat="44.634719809112966" lon="11.344453941763431"><ele>19.0</ele><time>2026-04-07T10:38:42.001Z</time></trkpt><trkpt lat="44.634898136704436" lon="11.34451469799654"><ele>19.0</ele><time>2026-04-07T10:38:43.001Z</time></trkpt><trkpt lat="44.635059776775556" lon="11.344576830865458"><ele>19.0</ele><time>2026-04-07T10:38:44.001Z</time></trkpt><trkpt lat="44.6351958450903" lon="11.344636157312582"><ele>19.0</ele><time>2026-04-07T10:38:45.001Z</time></trkpt><trkpt lat="44.63531084629742" lon="11.34468462783754"><ele>19.0</ele><time>2026-04-07T10:38:46.001Z</time></trkpt><trkpt lat="44.635408317094274" lon="11.34471461190997"><ele>19.25</ele><time>2026-04-07T10:38:47.001Z</time></trkpt><trkpt lat="44.635483335122196" lon="11.34474313782814"><ele>19.5</ele><time>2026-04-07T10:38:48.001Z</time></trkpt><trkpt lat="44.63562635967876" lon="11.344498936440658"><ele>19.75</ele><time>2026-04-07T10:38:50.001Z</time></trkpt><trkpt lat="44.63565325012089" lon="11.344322746845377"><ele>20.0</ele><time>2026-04-07T10:38:51.001Z</time></trkpt><trkpt lat="44.63567846658581" lon="11.344123006175774"><ele>20.0</ele><time>2026-04-07T10:38:52.001Z</time></trkpt><trkpt lat="44.63572165976911" lon="11.343892253908367"><ele>20.0</ele><time>2026-04-07T10:38:53.001Z</time></trkpt><trkpt lat="44.63579187201707" lon="11.3436433346515"><ele>20.0</ele><time>2026-04-07T10:38:54.001Z</time></trkpt><trkpt lat="44.6358748460689" lon="11.34337419426929"><ele>20.0</ele><time>2026-04-07T10:38:55.001Z</time></trkpt><trkpt lat="44.63596699383032" lon="11.343082236819463"><ele>20.0</ele><time>2026-04-07T10:38:56.001Z</time></trkpt><trkpt lat="44.636052261636515" lon="11.342802105054082"><ele>20.0</ele><time>2026-04-07T10:38:57.001Z</time></trkpt><trkpt lat="44.63613731542275" lon="11.342518730602604"><ele>20.0</ele><time>2026-04-07T10:38:58.001Z</time></trkpt><trkpt lat="44.636228960210616" lon="11.342211822551102"><ele>20.0</ele><time>2026-04-07T10:38:59.001Z</time></trkpt><trkpt lat="44.63632215681534" lon="11.341894089619823"><ele>20.0</ele><time>2026-04-07T10:39:00.001Z</time></trkpt><trkpt lat="44.6364152722333" lon="11.341585067557073"><ele>20.0</ele><time>2026-04-07T10:39:01.001Z</time></trkpt><trkpt lat="44.63651237789104" lon="11.34127509498142"><ele>21.0</ele><time>2026-04-07T10:39:02.001Z</time></trkpt><trkpt lat="44.636610602175324" lon="11.340958072320603"><ele>22.0</ele><time>2026-04-07T10:39:03.001Z</time></trkpt><trkpt lat="44.63669856115939" lon="11.340666290337964"><ele>21.333333333333332</ele><time>2026-04-07T10:39:04.001Z</time></trkpt><trkpt lat="44.63676927716113" lon="11.340415828437377"><ele>20.666666666666668</ele><time>2026-04-07T10:39:05.001Z</time></trkpt><trkpt lat="44.63683773614214" lon="11.34016430851941"><ele>20.0</ele><time>2026-04-07T10:39:06.001Z</time></trkpt><trkpt lat="44.63692420626558" lon="11.339895724985189"><ele>19.0</ele><time>2026-04-07T10:39:07.001Z</time></trkpt><trkpt lat="44.63703156285828" lon="11.339616850635636"><ele>18.0</ele><time>2026-04-07T10:39:08.001Z</time></trkpt><trkpt lat="44.63714938677654" lon="11.339336684278964"><ele>18.0</ele><time>2026-04-07T10:39:09.001Z</time></trkpt><trkpt lat="44.637289377990086" lon="11.339065928380997"><ele>18.0</ele><time>2026-04-07T10:39:10Z</time></trkpt><trkpt lat="44.637445161341084" lon="11.33882302596496"><ele>18.333333333333332</ele><time>2026-04-07T10:39:11Z</time></trkpt><trkpt lat="44.63760058172577" lon="11.338586689930402"><ele>18.666666666666664</ele><time>2026-04-07T10:39:12Z</time></trkpt><trkpt lat="44.637740464295085" lon="11.338364495219187"><ele>19.0</ele><time>2026-04-07T10:39:13Z</time></trkpt><trkpt lat="44.637868340607675" lon="11.338150634259895"><ele>20.0</ele><time>2026-04-07T10:39:14Z</time></trkpt><trkpt lat="44.637995921726166" lon="11.33793921218289"><ele>21.0</ele><time>2026-04-07T10:39:15Z</time></trkpt><trkpt lat="44.63810954582666" lon="11.337748969371825"><ele>22.0</ele><time>2026-04-07T10:39:16Z</time></trkpt><trkpt lat="44.63821809116596" lon="11.33755307458465"><ele>22.0</ele><time>2026-04-07T10:39:17Z</time></trkpt><trkpt lat="44.63831309112154" lon="11.337345620328078"><ele>22.0</ele><time>2026-04-07T10:39:18Z</time></trkpt><trkpt lat="44.63840405846586" lon="11.337118924295755"><ele>22.0</ele><time>2026-04-07T10:39:19Z</time></trkpt><trkpt lat="44.638490954038" lon="11.336886290734455"><ele>21.666666666666664</ele><time>2026-04-07T10:39:20Z</time></trkpt><trkpt lat="44.638580925758724" lon="11.336643758421934"><ele>21.333333333333332</ele><time>2026-04-07T10:39:21Z</time></trkpt><trkpt lat="44.63867247104827" lon="11.336406500989884"><ele>21.0</ele><time>2026-04-07T10:39:22Z</time></trkpt><trkpt lat="44.63876307460397" lon="11.336205267271017"><ele>21.0</ele><time>2026-04-07T10:39:23Z</time></trkpt><trkpt lat="44.638877971990674" lon="11.336025473143934"><ele>21.0</ele><time>2026-04-07T10:39:24Z</time></trkpt><trkpt lat="44.639027726300526" lon="11.335871651692035"><ele>21.0</ele><time>2026-04-07T10:39:25Z</time></trkpt><trkpt lat="44.63920687718406" lon="11.3357235309606"><ele>21.0</ele><time>2026-04-07T10:39:26Z</time></trkpt><trkpt lat="44.63940105470364" lon="11.335561941092816"><ele>21.0</ele><time>2026-04-07T10:39:27Z</time></trkpt><trkpt lat="44.63959210657437" lon="11.33539070381682"><ele>19.0</ele><time>2026-04-07T10:39:28Z</time></trkpt><trkpt lat="44.63977982571531" lon="11.335210265897107"><ele>17.0</ele><time>2026-04-07T10:39:29Z</time></trkpt><trkpt lat="44.639971819794134" lon="11.33505038124976"><ele>17.0</ele><time>2026-04-07T10:39:30Z</time></trkpt><trkpt lat="44.640179386876234" lon="11.334927984458922"><ele>17.0</ele><time>2026-04-07T10:39:31Z</time></trkpt><trkpt lat="44.640417282174575" lon="11.33483619101955"><ele>16.5</ele><time>2026-04-07T10:39:32Z</time></trkpt><trkpt lat="44.64067733979285" lon="11.334775534485262"><ele>16.0</ele><time>2026-04-07T10:39:33Z</time></trkpt><trkpt lat="44.64095454698844" lon="11.334725413744584"><ele>16.0</ele><time>2026-04-07T10:39:34Z</time></trkpt><trkpt lat="44.641240006398704" lon="11.334669674729218"><ele>16.0</ele><time>2026-04-07T10:39:35Z</time></trkpt><trkpt lat="44.64153428655203" lon="11.334608460729378"><ele>16.0</ele><time>2026-04-07T10:39:36Z</time></trkpt><trkpt lat="44.64183974370504" lon="11.334544759717097"><ele>16.0</ele><time>2026-04-07T10:39:37Z</time></trkpt><trkpt lat="44.64212886307914" lon="11.334483991069172"><ele>16.5</ele><time>2026-04-07T10:39:38Z</time></trkpt><trkpt lat="44.64242279431089" lon="11.334422421024748"><ele>17.0</ele><time>2026-04-07T10:39:39Z</time></trkpt><trkpt lat="44.642719288907216" lon="11.33436036611872"><ele>17.0</ele><time>2026-04-07T10:39:40Z</time></trkpt><trkpt lat="44.64302190111276" lon="11.334297384231338"><ele>17.0</ele><time>2026-04-07T10:39:41Z</time></trkpt><trkpt lat="44.6433266627443" lon="11.334234844589412"><ele>17.0</ele><time>2026-04-07T10:39:42Z</time></trkpt><trkpt lat="44.643606294354626" lon="11.334178539800904"><ele>17.0</ele><time>2026-04-07T10:39:43Z</time></trkpt><trkpt lat="44.643862500917926" lon="11.33412535834161"><ele>17.0</ele><time>2026-04-07T10:39:44Z</time></trkpt><trkpt lat="44.644102573148785" lon="11.33407805583889"><ele>17.0</ele><time>2026-04-07T10:39:45Z</time></trkpt><trkpt lat="44.64432666156448" lon="11.334025907105355"><ele>17.0</ele><time>2026-04-07T10:39:46Z</time></trkpt><trkpt lat="44.64453554914453" lon="11.333938007481686"><ele>17.0</ele><time>2026-04-07T10:39:47Z</time></trkpt><trkpt lat="44.644724532979545" lon="11.333792988818741"><ele>17.0</ele><time>2026-04-07T10:39:48.001Z</time></trkpt><trkpt lat="44.64489731222003" lon="11.33359633577916"><ele>17.0</ele><time>2026-04-07T10:39:49.001Z</time></trkpt><trkpt lat="44.64506317279043" lon="11.33337295887857"><ele>17.0</ele><time>2026-04-07T10:39:50.001Z</time></trkpt><trkpt lat="44.64524268348552" lon="11.333142656327178"><ele>17.5</ele><time>2026-04-07T10:39:51.001Z</time></trkpt><trkpt lat="44.64542161716628" lon="11.332916648577937"><ele>18.0</ele><time>2026-04-07T10:39:52.001Z</time></trkpt><trkpt lat="44.645587564767894" lon="11.332687549952313"><ele>18.0</ele><time>2026-04-07T10:39:53.001Z</time></trkpt><trkpt lat="44.64572931850353" lon="11.332428337619625"><ele>18.0</ele><time>2026-04-07T10:39:54.001Z</time></trkpt><trkpt lat="44.645841079498936" lon="11.332129085693083"><ele>18.5</ele><time>2026-04-07T10:39:55.001Z</time></trkpt><trkpt lat="44.64593258517449" lon="11.331804975371437"><ele>19.0</ele><time>2026-04-07T10:39:56.001Z</time></trkpt><trkpt lat="44.64602003557241" lon="11.331458997907372"><ele>19.0</ele><time>2026-04-07T10:39:57.001Z</time></trkpt><trkpt lat="44.6461136834735" lon="11.331103688359285"><ele>19.0</ele><time>2026-04-07T10:39:58.001Z</time></trkpt><trkpt lat="44.64621524672337" lon="11.33074320094101"><ele>18.5</ele><time>2026-04-07T10:39:59.001Z</time></trkpt><trkpt lat="44.646321687893476" lon="11.330375433270767"><ele>18.0</ele><time>2026-04-07T10:40:00.001Z</time></trkpt><trkpt lat="44.64642792964712" lon="11.330003729345508"><ele>17.5</ele><time>2026-04-07T10:40:01.001Z</time></trkpt><trkpt lat="44.64653460712818" lon="11.329628178795568"><ele>17.0</ele><time>2026-04-07T10:40:02.001Z</time></trkpt><trkpt lat="44.646641734420164" lon="11.329252779393467"><ele>17.0</ele><time>2026-04-07T10:40:03.001Z</time></trkpt><trkpt lat="44.646744426820305" lon="11.328896478730037"><ele>17.0</ele><time>2026-04-07T10:40:04.001Z</time></trkpt><trkpt lat="44.64684396858119" lon="11.328553557765378"><ele>17.0</ele><time>2026-04-07T10:40:05.001Z</time></trkpt><trkpt lat="44.64693825731053" lon="11.328215353965886"><ele>17.0</ele><time>2026-04-07T10:40:06.001Z</time></trkpt><trkpt lat="44.64701608053873" lon="11.327873869300392"><ele>17.5</ele><time>2026-04-07T10:40:07.001Z</time></trkpt><trkpt lat="44.647060344536115" lon="11.327526304015066"><ele>18.0</ele><time>2026-04-07T10:40:08.001Z</time></trkpt><trkpt lat="44.64707092258127" lon="11.327152746401072"><ele>18.0</ele><time>2026-04-07T10:40:09.001Z</time></trkpt><trkpt lat="44.6470678276653" lon="11.326770567945442"><ele>18.0</ele><time>2026-04-07T10:40:10.001Z</time></trkpt><trkpt lat="44.64706972178509" lon="11.326377910631905"><ele>18.0</ele><time>2026-04-07T10:40:11.001Z</time></trkpt><trkpt lat="44.647077288122794" lon="11.325993837872588"><ele>18.0</ele><time>2026-04-07T10:40:12.001Z</time></trkpt><trkpt lat="44.64708552873851" lon="11.325624707509002"><ele>18.0</ele><time>2026-04-07T10:40:13.001Z</time></trkpt><trkpt lat="44.64709251322508" lon="11.32528219260247"><ele>18.0</ele><time>2026-04-07T10:40:14.001Z</time></trkpt><trkpt lat="44.647099257434014" lon="11.324961136793004"><ele>18.666666666666668</ele><time>2026-04-07T10:40:15.001Z</time></trkpt><trkpt lat="44.64710516940195" lon="11.324656969095656"><ele>19.333333333333336</ele><time>2026-04-07T10:40:16.001Z</time></trkpt><trkpt lat="44.64711507891363" lon="11.324365674938393"><ele>20.0</ele><time>2026-04-07T10:40:17.001Z</time></trkpt><trkpt lat="44.6471383191449" lon="11.324079156446146"><ele>20.333333333333336</ele><time>2026-04-07T10:40:18.001Z</time></trkpt><trkpt lat="44.647174460051204" lon="11.323789047020128"><ele>20.666666666666668</ele><time>2026-04-07T10:40:19.001Z</time></trkpt><trkpt lat="44.64721400702452" lon="11.323506634037992"><ele>21.0</ele><time>2026-04-07T10:40:20.001Z</time></trkpt><trkpt lat="44.64727178155029" lon="11.32325104454851"><ele>20.666666666666668</ele><time>2026-04-07T10:40:21.001Z</time></trkpt><trkpt lat="44.64729783825531" lon="11.323003324059107"><ele>20.333333333333336</ele><time>2026-04-07T10:40:22.001Z</time></trkpt><trkpt lat="44.64734259455318" lon="11.322761401387718"><ele>20.0</ele><time>2026-04-07T10:40:23.001Z</time></trkpt><trkpt lat="44.64739250093044" lon="11.322519602056937"><ele>20.0</ele><time>2026-04-07T10:40:24.001Z</time></trkpt><trkpt lat="44.647448565760236" lon="11.32229391780489"><ele>20.0</ele><time>2026-04-07T10:40:25.001Z</time></trkpt><trkpt lat="44.64752798034906" lon="11.322083979391927"><ele>20.0</ele><time>2026-04-07T10:40:26.001Z</time></trkpt><trkpt lat="44.64763862517578" lon="11.32187849625361"><ele>19.666666666666668</ele><time>2026-04-07T10:40:27.001Z</time></trkpt><trkpt lat="44.64777273064871" lon="11.32169407268483"><ele>19.333333333333332</ele><time>2026-04-07T10:40:28.001Z</time></trkpt><trkpt lat="44.647928684443045" lon="11.321529338576449"><ele>19.0</ele><time>2026-04-07T10:40:29.001Z</time></trkpt><trkpt lat="44.648103419104665" lon="11.321387321190539"><ele>19.0</ele><time>2026-04-07T10:40:30.001Z</time></trkpt><trkpt lat="44.648291079266016" lon="11.32128606017632"><ele>19.0</ele><time>2026-04-07T10:40:31.001Z</time></trkpt><trkpt lat="44.64849256110726" lon="11.321223871814773"><ele>19.0</ele><time>2026-04-07T10:40:32.001Z</time></trkpt><trkpt lat="44.64870983021843" lon="11.321201530458627"><ele>19.0</ele><time>2026-04-07T10:40:33.001Z</time></trkpt><trkpt lat="44.64892722210534" lon="11.321226491674391"><ele>19.0</ele><time>2026-04-07T10:40:34.001Z</time></trkpt><trkpt lat="44.649161478939924" lon="11.32129240533578"><ele>19.0</ele><time>2026-04-07T10:40:35.001Z</time></trkpt><trkpt lat="44.64940664208722" lon="11.32137920639794"><ele>19.0</ele><time>2026-04-07T10:40:36.001Z</time></trkpt><trkpt lat="44.649660871011015" lon="11.32145856868442"><ele>18.5</ele><time>2026-04-07T10:40:37.001Z</time></trkpt><trkpt lat="44.6499013119068" lon="11.321518672900114"><ele>18.0</ele><time>2026-04-07T10:40:38.001Z</time></trkpt><trkpt lat="44.65012187945528" lon="11.321577882455752"><ele>18.333333333333332</ele><time>2026-04-07T10:40:39.001Z</time></trkpt><trkpt lat="44.65031816948203" lon="11.321642509651028"><ele>18.666666666666664</ele><time>2026-04-07T10:40:40.001Z</time></trkpt><trkpt lat="44.65050399066394" lon="11.321715870401535"><ele>19.0</ele><time>2026-04-07T10:40:41.001Z</time></trkpt><trkpt lat="44.650680695982864" lon="11.321790635885009"><ele>19.0</ele><time>2026-04-07T10:40:42.001Z</time></trkpt><trkpt lat="44.65086073885425" lon="11.321871936882609"><ele>19.0</ele><time>2026-04-07T10:40:43.001Z</time></trkpt><trkpt lat="44.65104691189338" lon="11.321963322292312"><ele>19.0</ele><time>2026-04-07T10:40:44.001Z</time></trkpt><trkpt lat="44.65123292084347" lon="11.322057183340174"><ele>18.333333333333332</ele><time>2026-04-07T10:40:45.001Z</time></trkpt><trkpt lat="44.65141959049201" lon="11.32214817794053"><ele>17.666666666666668</ele><time>2026-04-07T10:40:46.001Z</time></trkpt><trkpt lat="44.651579911410536" lon="11.322229638824377"><ele>17.0</ele><time>2026-04-07T10:40:47.001Z</time></trkpt><trkpt lat="44.65171551498367" lon="11.322295513357474"><ele>17.0</ele><time>2026-04-07T10:40:48.001Z</time></trkpt><trkpt lat="44.65183800130569" lon="11.32235721659586"><ele>17.0</ele><time>2026-04-07T10:40:49.001Z</time></trkpt><trkpt lat="44.65195124440791" lon="11.32241165597548"><ele>17.0</ele><time>2026-04-07T10:40:50.001Z</time></trkpt><trkpt lat="44.65204982686106" lon="11.322460415682874"><ele>17.0</ele><time>2026-04-07T10:40:51.001Z</time></trkpt><trkpt lat="44.65214021278298" lon="11.322506290269407"><ele>18.0</ele><time>2026-04-07T10:40:52.001Z</time></trkpt><trkpt lat="44.65222517806521" lon="11.32254672276576"><ele>19.0</ele><time>2026-04-07T10:40:53.001Z</time></trkpt><trkpt lat="44.65239761111625" lon="11.322634597449339"><ele>20.0</ele><time>2026-04-07T10:40:55.001Z</time></trkpt><trkpt lat="44.652499015186784" lon="11.32268586189125"><ele>21.0</ele><time>2026-04-07T10:40:56.001Z</time></trkpt><trkpt lat="44.6526045795642" lon="11.32273861065544"><ele>21.0</ele><time>2026-04-07T10:40:57.001Z</time></trkpt><trkpt lat="44.652705114677715" lon="11.322787919475774"><ele>21.0</ele><time>2026-04-07T10:40:58.001Z</time></trkpt><trkpt lat="44.652811997939445" lon="11.322836672262683"><ele>21.0</ele><time>2026-04-07T10:40:59.001Z</time></trkpt><trkpt lat="44.65292792895816" lon="11.322891318511715"><ele>21.0</ele><time>2026-04-07T10:41:00.001Z</time></trkpt><trkpt lat="44.653043281066836" lon="11.322950875385283"><ele>20.0</ele><time>2026-04-07T10:41:01.001Z</time></trkpt><trkpt lat="44.653174607706106" lon="11.323014815830629"><ele>19.0</ele><time>2026-04-07T10:41:02.001Z</time></trkpt><trkpt lat="44.65332633222104" lon="11.323085341693723"><ele>18.0</ele><time>2026-04-07T10:41:03.001Z</time></trkpt><trkpt lat="44.653502734739526" lon="11.323164758912883"><ele>18.0</ele><time>2026-04-07T10:41:04.001Z</time></trkpt><trkpt lat="44.653710241387856" lon="11.323266362930955"><ele>18.0</ele><time>2026-04-07T10:41:05.001Z</time></trkpt><trkpt lat="44.653932695813666" lon="11.323381141889833"><ele>18.0</ele><time>2026-04-07T10:41:06.001Z</time></trkpt><trkpt lat="44.65415254087508" lon="11.323495892981764"><ele>18.0</ele><time>2026-04-07T10:41:07.001Z</time></trkpt><trkpt lat="44.65438170602034" lon="11.323614527317469"><ele>17.5</ele><time>2026-04-07T10:41:08.001Z</time></trkpt><trkpt lat="44.65461115431402" lon="11.323743877464832"><ele>17.0</ele><time>2026-04-07T10:41:09.001Z</time></trkpt><trkpt lat="44.65481658485048" lon="11.323868634434698"><ele>17.333333333333336</ele><time>2026-04-07T10:41:10.001Z</time></trkpt><trkpt lat="44.65500163579966" lon="11.32398725679393"><ele>17.666666666666668</ele><time>2026-04-07T10:41:11.001Z</time></trkpt><trkpt lat="44.65517090304423" lon="11.324103673721549"><ele>18.0</ele><time>2026-04-07T10:41:12.001Z</time></trkpt><trkpt lat="44.65532343696284" lon="11.324216033691432"><ele>18.25</ele><time>2026-04-07T10:41:13.001Z</time></trkpt><trkpt lat="44.65544917383088" lon="11.324314536213146"><ele>18.5</ele><time>2026-04-07T10:41:14.001Z</time></trkpt><trkpt lat="44.65555063243753" lon="11.324397462497371"><ele>18.75</ele><time>2026-04-07T10:41:15.001Z</time></trkpt><trkpt lat="44.65568576098101" lon="11.324518977738535"><ele>19.0</ele><time>2026-04-07T10:41:17.001Z</time></trkpt><trkpt lat="44.65578627738419" lon="11.324482258809839"><ele>19.0</ele><time>2026-04-07T10:41:23.001Z</time></trkpt><trkpt lat="44.6558404226402" lon="11.324420501596387"><ele>19.0</ele><time>2026-04-07T10:41:24.001Z</time></trkpt><trkpt lat="44.6558980845737" lon="11.324315727718421"><ele>19.0</ele><time>2026-04-07T10:41:25.001Z</time></trkpt><trkpt lat="44.65596832840079" lon="11.324177835878304"><ele>19.0</ele><time>2026-04-07T10:41:26.001Z</time></trkpt><trkpt lat="44.65603194845455" lon="11.324035157319702"><ele>19.0</ele><time>2026-04-07T10:41:27.001Z</time></trkpt><trkpt lat="44.656091666973" lon="11.32392695059422"><ele>19.25</ele><time>2026-04-07T10:41:28.001Z</time></trkpt><trkpt lat="44.65614074462683" lon="11.323828331075692"><ele>19.5</ele><time>2026-04-07T10:41:29.001Z</time></trkpt><trkpt lat="44.656199862111535" lon="11.323715220336572"><ele>19.75</ele><time>2026-04-07T10:41:30.001Z</time></trkpt><trkpt lat="44.65627395575848" lon="11.323570036602465"><ele>20.0</ele><time>2026-04-07T10:41:31.001Z</time></trkpt><trkpt lat="44.65635910382828" lon="11.323414123189268"><ele>20.0</ele><time>2026-04-07T10:41:32.001Z</time></trkpt><trkpt lat="44.65644227665277" lon="11.323260955585324"><ele>20.0</ele><time>2026-04-07T10:41:33.001Z</time></trkpt><trkpt lat="44.65652996529512" lon="11.323089620763012"><ele>20.0</ele><time>2026-04-07T10:41:34.001Z</time></trkpt><trkpt lat="44.6566105395474" lon="11.322894623138147"><ele>20.0</ele><time>2026-04-07T10:41:35.001Z</time></trkpt><trkpt lat="44.65667651396922" lon="11.322678626806606"><ele>20.0</ele><time>2026-04-07T10:41:36.001Z</time></trkpt><trkpt lat="44.65672180637232" lon="11.322460224502738"><ele>20.0</ele><time>2026-04-07T10:41:37.001Z</time></trkpt><trkpt lat="44.656749699620235" lon="11.322226550981036"><ele>20.0</ele><time>2026-04-07T10:41:38.001Z</time></trkpt><trkpt lat="44.65676685880073" lon="11.321978500412422"><ele>19.333333333333336</ele><time>2026-04-07T10:41:39.001Z</time></trkpt><trkpt lat="44.656779682658346" lon="11.321727336006223"><ele>18.666666666666668</ele><time>2026-04-07T10:41:40.001Z</time></trkpt><trkpt lat="44.656792246653666" lon="11.321476742447762"><ele>18.0</ele><time>2026-04-07T10:41:41.001Z</time></trkpt><trkpt lat="44.65680914546413" lon="11.321217249579956"><ele>18.0</ele><time>2026-04-07T10:41:42.001Z</time></trkpt><trkpt lat="44.65684345210916" lon="11.320954862544795"><ele>18.0</ele><time>2026-04-07T10:41:43.001Z</time></trkpt><trkpt lat="44.65689285709781" lon="11.320698555127626"><ele>18.0</ele><time>2026-04-07T10:41:44.001Z</time></trkpt><trkpt lat="44.65695486936337" lon="11.320443072554436"><ele>18.0</ele><time>2026-04-07T10:41:45.001Z</time></trkpt><trkpt lat="44.65702886180939" lon="11.320186494326448"><ele>18.0</ele><time>2026-04-07T10:41:46.001Z</time></trkpt><trkpt lat="44.65711019951204" lon="11.319918504470609"><ele>18.0</ele><time>2026-04-07T10:41:47.001Z</time></trkpt><trkpt lat="44.657186315364264" lon="11.319664026819913"><ele>18.0</ele><time>2026-04-07T10:41:48.001Z</time></trkpt><trkpt lat="44.6572575409405" lon="11.31940281865885"><ele>18.0</ele><time>2026-04-07T10:41:49.001Z</time></trkpt><trkpt lat="44.6573256599089" lon="11.319134829388723"><ele>18.0</ele><time>2026-04-07T10:41:50.001Z</time></trkpt><trkpt lat="44.65739708818082" lon="11.318858717827752"><ele>18.0</ele><time>2026-04-07T10:41:51.001Z</time></trkpt><trkpt lat="44.65747732942791" lon="11.31857843867719"><ele>18.0</ele><time>2026-04-07T10:41:52.001Z</time></trkpt><trkpt lat="44.65756651665607" lon="11.318297314236974"><ele>18.0</ele><time>2026-04-07T10:41:53.001Z</time></trkpt><trkpt lat="44.657665345886485" lon="11.318019422618008"><ele>18.0</ele><time>2026-04-07T10:41:54.001Z</time></trkpt><trkpt lat="44.65776360837221" lon="11.31776122819581"><ele>18.0</ele><time>2026-04-07T10:41:55.001Z</time></trkpt><trkpt lat="44.65785707040802" lon="11.317511545053803"><ele>18.0</ele><time>2026-04-07T10:41:56.001Z</time></trkpt><trkpt lat="44.65795060873211" lon="11.317257172051907"><ele>18.0</ele><time>2026-04-07T10:41:57.001Z</time></trkpt><trkpt lat="44.65804525653389" lon="11.317003017031313"><ele>18.0</ele><time>2026-04-07T10:41:58.001Z</time></trkpt><trkpt lat="44.658141414613176" lon="11.316749873478628"><ele>18.0</ele><time>2026-04-07T10:41:59.001Z</time></trkpt><trkpt lat="44.65824295199296" lon="11.316497197083168"><ele>18.0</ele><time>2026-04-07T10:42:00.001Z</time></trkpt><trkpt lat="44.6583544967827" lon="11.316258421826179"><ele>18.0</ele><time>2026-04-07T10:42:01.001Z</time></trkpt><trkpt lat="44.65848386220918" lon="11.316035098293899"><ele>18.0</ele><time>2026-04-07T10:42:02.001Z</time></trkpt><trkpt lat="44.658633014243534" lon="11.31584262883389"><ele>18.333333333333332</ele><time>2026-04-07T10:42:03.001Z</time></trkpt><trkpt lat="44.65879318954723" lon="11.31566834537512"><ele>18.666666666666664</ele><time>2026-04-07T10:42:04.001Z</time></trkpt><trkpt lat="44.65897135396001" lon="11.315517090118085"><ele>19.0</ele><time>2026-04-07T10:42:05.001Z</time></trkpt><trkpt lat="44.659152928599966" lon="11.315377956510018"><ele>19.0</ele><time>2026-04-07T10:42:06.001Z</time></trkpt><trkpt lat="44.659334848777256" lon="11.315244409992236"><ele>19.0</ele><time>2026-04-07T10:42:07.001Z</time></trkpt><trkpt lat="44.65951032024745" lon="11.315111197850582"><ele>19.0</ele><time>2026-04-07T10:42:08.001Z</time></trkpt><trkpt lat="44.65968238647106" lon="11.314974815132407"><ele>19.0</ele><time>2026-04-07T10:42:09.001Z</time></trkpt><trkpt lat="44.65985578727326" lon="11.314834403394265"><ele>19.0</ele><time>2026-04-07T10:42:10.001Z</time></trkpt><trkpt lat="44.66002777307599" lon="11.314693470506635"><ele>19.0</ele><time>2026-04-07T10:42:11.001Z</time></trkpt><trkpt lat="44.66019865392257" lon="11.314545509803466"><ele>19.333333333333332</ele><time>2026-04-07T10:42:12.001Z</time></trkpt><trkpt lat="44.66036864547983" lon="11.314393519419648"><ele>19.666666666666668</ele><time>2026-04-07T10:42:13.001Z</time></trkpt><trkpt lat="44.66053376201728" lon="11.314234689244785"><ele>20.0</ele><time>2026-04-07T10:42:14.001Z</time></trkpt><trkpt lat="44.66069123763039" lon="11.314065932173406"><ele>19.666666666666668</ele><time>2026-04-07T10:42:15.001Z</time></trkpt><trkpt lat="44.66084344118083" lon="11.3138841616447"><ele>19.333333333333332</ele><time>2026-04-07T10:42:16.001Z</time></trkpt><trkpt lat="44.660994185764935" lon="11.313702677740578"><ele>19.0</ele><time>2026-04-07T10:42:17.001Z</time></trkpt><trkpt lat="44.661148019053876" lon="11.313526095647843"><ele>19.666666666666664</ele><time>2026-04-07T10:42:18.001Z</time></trkpt><trkpt lat="44.66131394569347" lon="11.313368263287497"><ele>20.333333333333332</ele><time>2026-04-07T10:42:19.001Z</time></trkpt><trkpt lat="44.661493988179856" lon="11.313244190563191"><ele>21.0</ele><time>2026-04-07T10:42:20.001Z</time></trkpt><trkpt lat="44.661688356152744" lon="11.313141867478137"><ele>20.666666666666668</ele><time>2026-04-07T10:42:21.001Z</time></trkpt><trkpt lat="44.66188492633237" lon="11.313048114933958"><ele>20.333333333333336</ele><time>2026-04-07T10:42:22.001Z</time></trkpt><trkpt lat="44.662077059025115" lon="11.31294906886621"><ele>20.0</ele><time>2026-04-07T10:42:23.001Z</time></trkpt><trkpt lat="44.662248972296645" lon="11.312852470442209"><ele>19.666666666666668</ele><time>2026-04-07T10:42:24.001Z</time></trkpt><trkpt lat="44.66241048767601" lon="11.31275866013425"><ele>19.333333333333332</ele><time>2026-04-07T10:42:25.001Z</time></trkpt><trkpt lat="44.66256780672949" lon="11.312655386379378"><ele>19.0</ele><time>2026-04-07T10:42:26.001Z</time></trkpt><trkpt lat="44.66271067369592" lon="11.312526737625506"><ele>18.666666666666664</ele><time>2026-04-07T10:42:27.001Z</time></trkpt><trkpt lat="44.662836582390824" lon="11.312374240145997"><ele>18.333333333333332</ele><time>2026-04-07T10:42:28.001Z</time></trkpt><trkpt lat="44.662944418591636" lon="11.312201139819617"><ele>18.0</ele><time>2026-04-07T10:42:29.001Z</time></trkpt><trkpt lat="44.663035255273584" lon="11.312012995360778"><ele>18.0</ele><time>2026-04-07T10:42:30.001Z</time></trkpt><trkpt lat="44.6631125595582" lon="11.31183083336857"><ele>18.0</ele><time>2026-04-07T10:42:31.001Z</time></trkpt><trkpt lat="44.66317857889676" lon="11.311656457758938"><ele>18.0</ele><time>2026-04-07T10:42:32.001Z</time></trkpt><trkpt lat="44.663235975287684" lon="11.311495927469112"><ele>18.0</ele><time>2026-04-07T10:42:33.001Z</time></trkpt><trkpt lat="44.66328976224056" lon="11.311351191012594"><ele>18.4</ele><time>2026-04-07T10:42:34.001Z</time></trkpt><trkpt lat="44.663342871370546" lon="11.311217295967756"><ele>18.8</ele><time>2026-04-07T10:42:35.001Z</time></trkpt><trkpt lat="44.663394898447144" lon="11.311096579444648"><ele>19.2</ele><time>2026-04-07T10:42:36.001Z</time></trkpt><trkpt lat="44.663446186310544" lon="11.310979880931729"><ele>19.6</ele><time>2026-04-07T10:42:37.001Z</time></trkpt><trkpt lat="44.663500251247235" lon="11.310852380218117"><ele>20.0</ele><time>2026-04-07T10:42:38.001Z</time></trkpt><trkpt lat="44.663558541769085" lon="11.310721410532363"><ele>19.75</ele><time>2026-04-07T10:42:39.001Z</time></trkpt><trkpt lat="44.66362481606086" lon="11.3105852934164"><ele>19.5</ele><time>2026-04-07T10:42:40.001Z</time></trkpt><trkpt lat="44.663695264308046" lon="11.310443966727936"><ele>19.25</ele><time>2026-04-07T10:42:41.001Z</time></trkpt><trkpt lat="44.663767654422124" lon="11.310302413687467"><ele>19.0</ele><time>2026-04-07T10:42:42.001Z</time></trkpt><trkpt lat="44.66384447624097" lon="11.310153134384182"><ele>19.0</ele><time>2026-04-07T10:42:43.001Z</time></trkpt><trkpt lat="44.66392604040039" lon="11.31000144793528"><ele>19.0</ele><time>2026-04-07T10:42:44.001Z</time></trkpt><trkpt lat="44.664010890632596" lon="11.309843646531888"><ele>19.0</ele><time>2026-04-07T10:42:45.001Z</time></trkpt><trkpt lat="44.66409654931165" lon="11.309681997284768"><ele>19.0</ele><time>2026-04-07T10:42:46.001Z</time></trkpt><trkpt lat="44.66418665675171" lon="11.309522159993747"><ele>19.0</ele><time>2026-04-07T10:42:47.001Z</time></trkpt><trkpt lat="44.66428924031689" lon="11.30937018682578"><ele>19.0</ele><time>2026-04-07T10:42:48.001Z</time></trkpt><trkpt lat="44.66440301524084" lon="11.309232518700176"><ele>19.0</ele><time>2026-04-07T10:42:49.001Z</time></trkpt><trkpt lat="44.66452199287021" lon="11.309094117939543"><ele>19.0</ele><time>2026-04-07T10:42:50.001Z</time></trkpt><trkpt lat="44.664638683247965" lon="11.30895885450892"><ele>19.0</ele><time>2026-04-07T10:42:51.001Z</time></trkpt><trkpt lat="44.66474937934837" lon="11.308823511214037"><ele>19.0</ele><time>2026-04-07T10:42:52.001Z</time></trkpt><trkpt lat="44.6648557336061" lon="11.308681614024165"><ele>19.0</ele><time>2026-04-07T10:42:53.001Z</time></trkpt><trkpt lat="44.66495922758656" lon="11.308527806355816"><ele>19.0</ele><time>2026-04-07T10:42:54.001Z</time></trkpt><trkpt lat="44.66506442013241" lon="11.308364336547092"><ele>19.0</ele><time>2026-04-07T10:42:55.001Z</time></trkpt><trkpt lat="44.665166331916325" lon="11.308201619353952"><ele>19.0</ele><time>2026-04-07T10:42:56.001Z</time></trkpt><trkpt lat="44.665269403150006" lon="11.308033137988069"><ele>20.333333333333332</ele><time>2026-04-07T10:42:57.001Z</time></trkpt><trkpt lat="44.66537373996777" lon="11.307866376195703"><ele>21.666666666666668</ele><time>2026-04-07T10:42:58.001Z</time></trkpt><trkpt lat="44.66547686074727" lon="11.307703177291252"><ele>23.0</ele><time>2026-04-07T10:42:59.001Z</time></trkpt><trkpt lat="44.665578404417566" lon="11.307542734834298"><ele>23.0</ele><time>2026-04-07T10:43:00.001Z</time></trkpt><trkpt lat="44.66567962535258" lon="11.307384329925098"><ele>23.0</ele><time>2026-04-07T10:43:01.001Z</time></trkpt><trkpt lat="44.66578457894364" lon="11.307228831450708"><ele>23.0</ele><time>2026-04-07T10:43:02.001Z</time></trkpt><trkpt lat="44.66588786482636" lon="11.307072050329191"><ele>22.666666666666668</ele><time>2026-04-07T10:43:03.001Z</time></trkpt><trkpt lat="44.66599145707991" lon="11.306912175530233"><ele>22.333333333333332</ele><time>2026-04-07T10:43:04.001Z</time></trkpt><trkpt lat="44.666092471699514" lon="11.306748794086069"><ele>22.0</ele><time>2026-04-07T10:43:05.001Z</time></trkpt><trkpt lat="44.66618815684732" lon="11.30658640724974"><ele>22.0</ele><time>2026-04-07T10:43:06.001Z</time></trkpt><trkpt lat="44.666284025375425" lon="11.306424557835669"><ele>22.0</ele><time>2026-04-07T10:43:07.001Z</time></trkpt><trkpt lat="44.66637667203023" lon="11.30626577060479"><ele>22.0</ele><time>2026-04-07T10:43:08.001Z</time></trkpt><trkpt lat="44.666476201964784" lon="11.306108091440963"><ele>22.0</ele><time>2026-04-07T10:43:09.001Z</time></trkpt><trkpt lat="44.66657943521378" lon="11.305946611544188"><ele>21.666666666666664</ele><time>2026-04-07T10:43:10.001Z</time></trkpt><trkpt lat="44.66669324794168" lon="11.305792612924336"><ele>21.333333333333332</ele><time>2026-04-07T10:43:11.001Z</time></trkpt><trkpt lat="44.666810128753916" lon="11.3056491142151"><ele>21.0</ele><time>2026-04-07T10:43:12.001Z</time></trkpt><trkpt lat="44.6669335964597" lon="11.305518980612922"><ele>20.333333333333332</ele><time>2026-04-07T10:43:13.001Z</time></trkpt><trkpt lat="44.66706793497401" lon="11.305405742810963"><ele>19.666666666666664</ele><time>2026-04-07T10:43:14.001Z</time></trkpt><trkpt lat="44.66720699673469" lon="11.305300077498778"><ele>19.0</ele><time>2026-04-07T10:43:15.001Z</time></trkpt><trkpt lat="44.66735861959294" lon="11.305193423229696"><ele>19.0</ele><time>2026-04-07T10:43:16.001Z</time></trkpt><trkpt lat="44.66751448739535" lon="11.305084938432111"><ele>19.0</ele><time>2026-04-07T10:43:17.001Z</time></trkpt><trkpt lat="44.66767261666755" lon="11.30496910032389"><ele>19.0</ele><time>2026-04-07T10:43:18.001Z</time></trkpt><trkpt lat="44.66783229551469" lon="11.304847898118481"><ele>18.666666666666664</ele><time>2026-04-07T10:43:19.001Z</time></trkpt><trkpt lat="44.667994073566845" lon="11.304725866338652"><ele>18.333333333333332</ele><time>2026-04-07T10:43:20.001Z</time></trkpt><trkpt lat="44.668154479685796" lon="11.30460130868055"><ele>18.0</ele><time>2026-04-07T10:43:21.001Z</time></trkpt><trkpt lat="44.66831147849832" lon="11.30447544788988"><ele>18.0</ele><time>2026-04-07T10:43:22.001Z</time></trkpt><trkpt lat="44.66846901540685" lon="11.304346662592465"><ele>18.0</ele><time>2026-04-07T10:43:23.001Z</time></trkpt><trkpt lat="44.66862382791743" lon="11.304221709725267"><ele>18.0</ele><time>2026-04-07T10:43:24.001Z</time></trkpt><trkpt lat="44.66878720756937" lon="11.304087859354013"><ele>17.666666666666668</ele><time>2026-04-07T10:43:25.001Z</time></trkpt><trkpt lat="44.668952466368914" lon="11.303952006067098"><ele>17.333333333333336</ele><time>2026-04-07T10:43:26.001Z</time></trkpt><trkpt lat="44.66912869472023" lon="11.303812004123973"><ele>17.0</ele><time>2026-04-07T10:43:27Z</time></trkpt><trkpt lat="44.66931499921959" lon="11.303668086019094"><ele>17.333333333333336</ele><time>2026-04-07T10:43:28Z</time></trkpt><trkpt lat="44.66950890483873" lon="11.303524279648213"><ele>17.666666666666668</ele><time>2026-04-07T10:43:29Z</time></trkpt><trkpt lat="44.66970680927145" lon="11.303375709194047"><ele>18.0</ele><time>2026-04-07T10:43:30Z</time></trkpt><trkpt lat="44.66989558234198" lon="11.303231097940388"><ele>18.0</ele><time>2026-04-07T10:43:31Z</time></trkpt><trkpt lat="44.67008462156154" lon="11.303084741564346"><ele>18.0</ele><time>2026-04-07T10:43:32Z</time></trkpt><trkpt lat="44.67027869335564" lon="11.302935642316656"><ele>18.0</ele><time>2026-04-07T10:43:33Z</time></trkpt><trkpt lat="44.670471575633144" lon="11.302787709227658"><ele>18.333333333333332</ele><time>2026-04-07T10:43:34Z</time></trkpt><trkpt lat="44.670650996388154" lon="11.302652481524019"><ele>18.666666666666664</ele><time>2026-04-07T10:43:35Z</time></trkpt><trkpt lat="44.67081930782492" lon="11.302527687260586"><ele>19.0</ele><time>2026-04-07T10:43:36Z</time></trkpt><trkpt lat="44.67097944454788" lon="11.302407556739475"><ele>20.333333333333332</ele><time>2026-04-07T10:43:37Z</time></trkpt><trkpt lat="44.67113809341547" lon="11.302288164487969"><ele>21.666666666666668</ele><time>2026-04-07T10:43:38Z</time></trkpt><trkpt lat="44.67130123850321" lon="11.30216246072919"><ele>23.0</ele><time>2026-04-07T10:43:39Z</time></trkpt><trkpt lat="44.67146311531729" lon="11.302033829045431"><ele>23.0</ele><time>2026-04-07T10:43:40Z</time></trkpt><trkpt lat="44.671619268016016" lon="11.30190904450825"><ele>23.0</ele><time>2026-04-07T10:43:41Z</time></trkpt><trkpt lat="44.67177566446922" lon="11.301785092090567"><ele>23.0</ele><time>2026-04-07T10:43:42Z</time></trkpt><trkpt lat="44.67193440679769" lon="11.30166463058918"><ele>22.666666666666668</ele><time>2026-04-07T10:43:43Z</time></trkpt><trkpt lat="44.67209577574633" lon="11.301543349711496"><ele>22.333333333333332</ele><time>2026-04-07T10:43:44Z</time></trkpt><trkpt lat="44.67226658358953" lon="11.30141919934749"><ele>22.0</ele><time>2026-04-07T10:43:45Z</time></trkpt><trkpt lat="44.672431171524934" lon="11.301286040191998"><ele>21.333333333333332</ele><time>2026-04-07T10:43:46Z</time></trkpt><trkpt lat="44.67259806633069" lon="11.301163593985486"><ele>20.666666666666668</ele><time>2026-04-07T10:43:47Z</time></trkpt><trkpt lat="44.67274731165067" lon="11.301046671083279"><ele>20.0</ele><time>2026-04-07T10:43:48Z</time></trkpt><trkpt lat="44.67289548214859" lon="11.300933630228363"><ele>20.0</ele><time>2026-04-07T10:43:49Z</time></trkpt><trkpt lat="44.673035492001034" lon="11.300826212942285"><ele>20.0</ele><time>2026-04-07T10:43:50Z</time></trkpt><trkpt lat="44.673174975337936" lon="11.300717847249556"><ele>20.0</ele><time>2026-04-07T10:43:51Z</time></trkpt><trkpt lat="44.67331307481884" lon="11.300610197880744"><ele>20.0</ele><time>2026-04-07T10:43:52Z</time></trkpt><trkpt lat="44.673456947546555" lon="11.300500006782611"><ele>20.0</ele><time>2026-04-07T10:43:53Z</time></trkpt><trkpt lat="44.67359282407285" lon="11.300396983999105"><ele>20.0</ele><time>2026-04-07T10:43:54Z</time></trkpt><trkpt lat="44.673721318418465" lon="11.300299114554445"><ele>20.0</ele><time>2026-04-07T10:43:55Z</time></trkpt><trkpt lat="44.67384725085901" lon="11.300203104580667"><ele>20.0</ele><time>2026-04-07T10:43:56Z</time></trkpt><trkpt lat="44.67397351889628" lon="11.300103591256896"><ele>20.0</ele><time>2026-04-07T10:43:57Z</time></trkpt><trkpt lat="44.67409422756349" lon="11.300007570269567"><ele>20.0</ele><time>2026-04-07T10:43:58Z</time></trkpt><trkpt lat="44.67420570640357" lon="11.299920366386647"><ele>20.0</ele><time>2026-04-07T10:43:59Z</time></trkpt><trkpt lat="44.67431426518838" lon="11.299837958514496"><ele>20.0</ele><time>2026-04-07T10:44:00Z</time></trkpt><trkpt lat="44.67442376289992" lon="11.2997550907233"><ele>20.0</ele><time>2026-04-07T10:44:01Z</time></trkpt><trkpt lat="44.67453467081029" lon="11.299671432560322"><ele>20.0</ele><time>2026-04-07T10:44:02Z</time></trkpt><trkpt lat="44.674648174109336" lon="11.299583861187177"><ele>19.75</ele><time>2026-04-07T10:44:03Z</time></trkpt><trkpt lat="44.67476224232835" lon="11.299494565230466"><ele>19.5</ele><time>2026-04-07T10:44:04Z</time></trkpt><trkpt lat="44.67487087831429" lon="11.299410646439632"><ele>19.25</ele><time>2026-04-07T10:44:05Z</time></trkpt><trkpt lat="44.67497289675362" lon="11.299333283274088"><ele>19.0</ele><time>2026-04-07T10:44:06Z</time></trkpt><trkpt lat="44.67506429142498" lon="11.299262837776167"><ele>19.0</ele><time>2026-04-07T10:44:07Z</time></trkpt><trkpt lat="44.675152259332016" lon="11.299197927317099"><ele>19.0</ele><time>2026-04-07T10:44:08Z</time></trkpt><trkpt lat="44.67523493501383" lon="11.299138684846522"><ele>19.0</ele><time>2026-04-07T10:44:09Z</time></trkpt><trkpt lat="44.6753105064191" lon="11.299088668998982"><ele>19.0</ele><time>2026-04-07T10:44:10Z</time></trkpt><trkpt lat="44.67538036389636" lon="11.299046619563436"><ele>19.0</ele><time>2026-04-07T10:44:11Z</time></trkpt><trkpt lat="44.675452962241124" lon="11.299007421741049"><ele>19.0</ele><time>2026-04-07T10:44:12Z</time></trkpt><trkpt lat="44.67552530076421" lon="11.298974381851263"><ele>19.0</ele><time>2026-04-07T10:44:13Z</time></trkpt><trkpt lat="44.6756035419971" lon="11.298955135979"><ele>19.0</ele><time>2026-04-07T10:44:14Z</time></trkpt><trkpt lat="44.67569005888805" lon="11.29894979432571"><ele>19.0</ele><time>2026-04-07T10:44:15Z</time></trkpt><trkpt lat="44.67577239629108" lon="11.298980348087392"><ele>19.0</ele><time>2026-04-07T10:44:16Z</time></trkpt><trkpt lat="44.675838103324885" lon="11.299028605022565"><ele>19.0</ele><time>2026-04-07T10:44:17Z</time></trkpt><trkpt lat="44.675907029852176" lon="11.29910277395052"><ele>19.0</ele><time>2026-04-07T10:44:18Z</time></trkpt><trkpt lat="44.675984900648245" lon="11.299182097559363"><ele>19.0</ele><time>2026-04-07T10:44:19Z</time></trkpt><trkpt lat="44.67608202863353" lon="11.299234277567024"><ele>19.0</ele><time>2026-04-07T10:44:20Z</time></trkpt><trkpt lat="44.676189405998166" lon="11.299239127385075"><ele>19.0</ele><time>2026-04-07T10:44:21Z</time></trkpt><trkpt lat="44.676290031942976" lon="11.299204086758019"><ele>19.0</ele><time>2026-04-07T10:44:22Z</time></trkpt><trkpt lat="44.67638952941435" lon="11.299169889615202"><ele>19.0</ele><time>2026-04-07T10:44:23Z</time></trkpt><trkpt lat="44.6764837390084" lon="11.29916935740821"><ele>19.0</ele><time>2026-04-07T10:44:24Z</time></trkpt><trkpt lat="44.67657433344432" lon="11.299199302743851"><ele>19.0</ele><time>2026-04-07T10:44:25Z</time></trkpt><trkpt lat="44.676671422350196" lon="11.299256686193207"><ele>19.0</ele><time>2026-04-07T10:44:26Z</time></trkpt><trkpt lat="44.676774386253456" lon="11.299336141174198"><ele>19.0</ele><time>2026-04-07T10:44:27Z</time></trkpt><trkpt lat="44.67687275178631" lon="11.299412461689087"><ele>19.0</ele><time>2026-04-07T10:44:28Z</time></trkpt><trkpt lat="44.67697018732879" lon="11.299485187429742"><ele>19.0</ele><time>2026-04-07T10:44:29Z</time></trkpt><trkpt lat="44.6770695533583" lon="11.299561133215168"><ele>19.0</ele><time>2026-04-07T10:44:30Z</time></trkpt><trkpt lat="44.67716907902308" lon="11.299639352093475"><ele>19.0</ele><time>2026-04-07T10:44:31Z</time></trkpt><trkpt lat="44.67727463439379" lon="11.29972216535511"><ele>19.0</ele><time>2026-04-07T10:44:32Z</time></trkpt><trkpt lat="44.67738644640185" lon="11.299812064892667"><ele>19.0</ele><time>2026-04-07T10:44:33Z</time></trkpt><trkpt lat="44.67751343450968" lon="11.299913224778685"><ele>19.0</ele><time>2026-04-07T10:44:34Z</time></trkpt><trkpt lat="44.677641423343296" lon="11.300012836535192"><ele>19.0</ele><time>2026-04-07T10:44:35Z</time></trkpt><trkpt lat="44.67776362214594" lon="11.300101802509896"><ele>19.0</ele><time>2026-04-07T10:44:36Z</time></trkpt><trkpt lat="44.677877479961396" lon="11.30017192175507"><ele>19.25</ele><time>2026-04-07T10:44:37Z</time></trkpt><trkpt lat="44.67799285746173" lon="11.300243105052676"><ele>19.5</ele><time>2026-04-07T10:44:38Z</time></trkpt><trkpt lat="44.67810531178485" lon="11.300314452605686"><ele>19.75</ele><time>2026-04-07T10:44:39Z</time></trkpt><trkpt lat="44.678217477378666" lon="11.300388118579983"><ele>20.0</ele><time>2026-04-07T10:44:40Z</time></trkpt><trkpt lat="44.67831798303882" lon="11.300450954735725"><ele>20.0</ele><time>2026-04-07T10:44:41Z</time></trkpt><trkpt lat="44.67840982954599" lon="11.30050978638438"><ele>20.0</ele><time>2026-04-07T10:44:42Z</time></trkpt><trkpt lat="44.6784928775174" lon="11.300563096821316"><ele>20.0</ele><time>2026-04-07T10:44:43Z</time></trkpt><trkpt lat="44.67858030063798" lon="11.300618843299008"><ele>20.0</ele><time>2026-04-07T10:44:44Z</time></trkpt><trkpt lat="44.67866916325623" lon="11.3006739064601"><ele>20.0</ele><time>2026-04-07T10:44:45Z</time></trkpt><trkpt lat="44.678747660680926" lon="11.300719324126328"><ele>20.166666666666668</ele><time>2026-04-07T10:44:46Z</time></trkpt><trkpt lat="44.67881302173808" lon="11.30075922323646"><ele>20.333333333333336</ele><time>2026-04-07T10:44:47Z</time></trkpt><trkpt lat="44.67890378632013" lon="11.300817408948722"><ele>20.5</ele><time>2026-04-07T10:44:49Z</time></trkpt><trkpt lat="44.67897545647194" lon="11.300863950492253"><ele>20.666666666666668</ele><time>2026-04-07T10:44:51Z</time></trkpt><trkpt lat="44.67905474771536" lon="11.30091946688811"><ele>20.833333333333332</ele><time>2026-04-07T10:44:53Z</time></trkpt><trkpt lat="44.67912975943481" lon="11.300987001568478"><ele>21.0</ele><time>2026-04-07T10:44:55.001Z</time></trkpt><trkpt lat="44.67922088409728" lon="11.301096207973142"><ele>21.0</ele><time>2026-04-07T10:44:57.001Z</time></trkpt><trkpt lat="44.679329429857106" lon="11.301138723921303"><ele>21.0</ele><time>2026-04-07T10:44:59.001Z</time></trkpt><trkpt lat="44.67941860439969" lon="11.300947228510235"><ele>21.0</ele><time>2026-04-07T10:45:02.001Z</time></trkpt><trkpt lat="44.679418329698976" lon="11.300839950452561"><ele>21.0</ele><time>2026-04-07T10:45:03.001Z</time></trkpt><trkpt lat="44.67943461961266" lon="11.30071702439021"><ele>21.0</ele><time>2026-04-07T10:45:04.001Z</time></trkpt><trkpt lat="44.67947428730675" lon="11.300584942805344"><ele>21.5</ele><time>2026-04-07T10:45:05.001Z</time></trkpt><trkpt lat="44.679524036365486" lon="11.300452907257004"><ele>22.0</ele><time>2026-04-07T10:45:06.001Z</time></trkpt><trkpt lat="44.67958244028503" lon="11.300316699668707"><ele>22.5</ele><time>2026-04-07T10:45:07.001Z</time></trkpt><trkpt lat="44.679655070195615" lon="11.300164018491376"><ele>23.0</ele><time>2026-04-07T10:45:08.001Z</time></trkpt><trkpt lat="44.679736751555474" lon="11.29999576344761"><ele>23.0</ele><time>2026-04-07T10:45:09.001Z</time></trkpt><trkpt lat="44.67982276259087" lon="11.29981771153518"><ele>23.0</ele><time>2026-04-07T10:45:10.001Z</time></trkpt><trkpt lat="44.679904364693016" lon="11.299652570569787"><ele>23.0</ele><time>2026-04-07T10:45:11.001Z</time></trkpt><trkpt lat="44.6799890211235" lon="11.299478123101547"><ele>23.0</ele><time>2026-04-07T10:45:12.001Z</time></trkpt><trkpt lat="44.68007521727175" lon="11.299298669256292"><ele>22.75</ele><time>2026-04-07T10:45:13.001Z</time></trkpt><trkpt lat="44.68015413920081" lon="11.299140889472202"><ele>22.5</ele><time>2026-04-07T10:45:14.001Z</time></trkpt><trkpt lat="44.68022959985047" lon="11.298993301942398"><ele>22.25</ele><time>2026-04-07T10:45:15.001Z</time></trkpt><trkpt lat="44.680300454809114" lon="11.298851426306683"><ele>22.0</ele><time>2026-04-07T10:45:16.001Z</time></trkpt><trkpt lat="44.680370036476965" lon="11.298700668074341"><ele>21.75</ele><time>2026-04-07T10:45:17.001Z</time></trkpt><trkpt lat="44.68044304200732" lon="11.298542058307115"><ele>21.5</ele><time>2026-04-07T10:45:18.001Z</time></trkpt><trkpt lat="44.68050978699333" lon="11.29839712090017"><ele>21.25</ele><time>2026-04-07T10:45:19.001Z</time></trkpt><trkpt lat="44.68057028225868" lon="11.29827451276357"><ele>21.0</ele><time>2026-04-07T10:45:20.001Z</time></trkpt><trkpt lat="44.68063355834077" lon="11.29814553901796"><ele>20.8</ele><time>2026-04-07T10:45:21.001Z</time></trkpt><trkpt lat="44.68069605816239" lon="11.298015147373741"><ele>20.6</ele><time>2026-04-07T10:45:22Z</time></trkpt><trkpt lat="44.68075978638903" lon="11.297881390609565"><ele>20.4</ele><time>2026-04-07T10:45:23Z</time></trkpt><trkpt lat="44.68082312911818" lon="11.297755693197058"><ele>20.2</ele><time>2026-04-07T10:45:24Z</time></trkpt><trkpt lat="44.68086882453305" lon="11.29765765627988"><ele>20.0</ele><time>2026-04-07T10:45:25Z</time></trkpt><trkpt lat="44.6809314586814" lon="11.297542607790978"><ele>20.0</ele><time>2026-04-07T10:45:27Z</time></trkpt><trkpt lat="44.68110463420314" lon="11.297677939676321"><ele>20.0</ele><time>2026-04-07T10:45:31Z</time></trkpt><trkpt lat="44.681185459043654" lon="11.297763591293844"><ele>20.0</ele><time>2026-04-07T10:45:32Z</time></trkpt><trkpt lat="44.681266669967705" lon="11.29784264182855"><ele>20.0</ele><time>2026-04-07T10:45:33Z</time></trkpt><trkpt lat="44.68135698814194" lon="11.297933006989945"><ele>20.0</ele><time>2026-04-07T10:45:34Z</time></trkpt><trkpt lat="44.681464849395205" lon="11.298040085239517"><ele>20.0</ele><time>2026-04-07T10:45:35Z</time></trkpt><trkpt lat="44.681573791718264" lon="11.29813644184161"><ele>20.0</ele><time>2026-04-07T10:45:36Z</time></trkpt><trkpt lat="44.68170045170441" lon="11.298227628648846"><ele>20.0</ele><time>2026-04-07T10:45:37Z</time></trkpt><trkpt lat="44.68184277440441" lon="11.29828661472837"><ele>20.0</ele><time>2026-04-07T10:45:38Z</time></trkpt><trkpt lat="44.68201075076867" lon="11.298306738961083"><ele>20.0</ele><time>2026-04-07T10:45:39Z</time></trkpt><trkpt lat="44.682171547544996" lon="11.29830324813655"><ele>20.0</ele><time>2026-04-07T10:45:40Z</time></trkpt><trkpt lat="44.68233439723874" lon="11.298292481613208"><ele>20.0</ele><time>2026-04-07T10:45:41Z</time></trkpt><trkpt lat="44.68249319459808" lon="11.29829631739137"><ele>20.0</ele><time>2026-04-07T10:45:42Z</time></trkpt><trkpt lat="44.682636836441844" lon="11.298303778073835"><ele>20.0</ele><time>2026-04-07T10:45:43Z</time></trkpt><trkpt lat="44.6827572954036" lon="11.298302592079835"><ele>20.0</ele><time>2026-04-07T10:45:44Z</time></trkpt><trkpt lat="44.682842861104106" lon="11.298297126678145"><ele>19.8</ele><time>2026-04-07T10:45:45Z</time></trkpt><trkpt lat="44.682916132330114" lon="11.298305359927916"><ele>19.6</ele><time>2026-04-07T10:45:47Z</time></trkpt><trkpt lat="44.683000067709116" lon="11.298346264131418"><ele>19.4</ele><time>2026-04-07T10:45:57Z</time></trkpt><trkpt lat="44.68307998082753" lon="11.298376537258216"><ele>19.2</ele><time>2026-04-07T10:45:58Z</time></trkpt><trkpt lat="44.68318553905181" lon="11.298333266318378"><ele>19.0</ele><time>2026-04-07T10:45:59Z</time></trkpt><trkpt lat="44.68329861580586" lon="11.298329743422554"><ele>19.0</ele><time>2026-04-07T10:46:00Z</time></trkpt><trkpt lat="44.68343223596056" lon="11.29833350379764"><ele>19.0</ele><time>2026-04-07T10:46:01Z</time></trkpt><trkpt lat="44.683599079202345" lon="11.298352015735917"><ele>19.0</ele><time>2026-04-07T10:46:02Z</time></trkpt><trkpt lat="44.683731383138465" lon="11.298379706666044"><ele>19.0</ele><time>2026-04-07T10:46:03Z</time></trkpt><trkpt lat="44.683904297606965" lon="11.298414986386272"><ele>19.0</ele><time>2026-04-07T10:46:04Z</time></trkpt><trkpt lat="44.68408093782353" lon="11.298458303480743"><ele>19.0</ele><time>2026-04-07T10:46:05Z</time></trkpt><trkpt lat="44.68425283089059" lon="11.298521811670021"><ele>19.0</ele><time>2026-04-07T10:46:06Z</time></trkpt><trkpt lat="44.68443978208728" lon="11.29861149574438"><ele>19.0</ele><time>2026-04-07T10:46:07Z</time></trkpt><trkpt lat="44.68463995126431" lon="11.298730639257721"><ele>19.0</ele><time>2026-04-07T10:46:08Z</time></trkpt><trkpt lat="44.68485494413922" lon="11.29886733505464"><ele>19.0</ele><time>2026-04-07T10:46:09Z</time></trkpt><trkpt lat="44.685066072684215" lon="11.299002489396033"><ele>19.0</ele><time>2026-04-07T10:46:10Z</time></trkpt><trkpt lat="44.6852721836489" lon="11.299138505623544"><ele>19.0</ele><time>2026-04-07T10:46:11Z</time></trkpt><trkpt lat="44.685460901001825" lon="11.299265979032054"><ele>19.0</ele><time>2026-04-07T10:46:12Z</time></trkpt><trkpt lat="44.68563817866524" lon="11.29938422937598"><ele>19.0</ele><time>2026-04-07T10:46:13Z</time></trkpt><trkpt lat="44.685813153233006" lon="11.299498407448105"><ele>19.0</ele><time>2026-04-07T10:46:14Z</time></trkpt><trkpt lat="44.685987304649124" lon="11.29963306106209"><ele>19.0</ele><time>2026-04-07T10:46:15Z</time></trkpt><trkpt lat="44.68615683403276" lon="11.299812837109403"><ele>19.0</ele><time>2026-04-07T10:46:16Z</time></trkpt><trkpt lat="44.686318155850934" lon="11.300025979435855"><ele>18.666666666666664</ele><time>2026-04-07T10:46:17Z</time></trkpt><trkpt lat="44.68644942400642" lon="11.300234496510376"><ele>18.333333333333332</ele><time>2026-04-07T10:46:18Z</time></trkpt><trkpt lat="44.68658065199433" lon="11.300433310603289"><ele>18.0</ele><time>2026-04-07T10:46:19Z</time></trkpt><trkpt lat="44.686733248906116" lon="11.30063477857485"><ele>18.0</ele><time>2026-04-07T10:46:20Z</time></trkpt><trkpt lat="44.6868886525096" lon="11.300882692499778"><ele>18.0</ele><time>2026-04-07T10:46:21Z</time></trkpt><trkpt lat="44.68706232797076" lon="11.3011361843527"><ele>18.0</ele><time>2026-04-07T10:46:22Z</time></trkpt><trkpt lat="44.68725185319548" lon="11.301400809733193"><ele>18.0</ele><time>2026-04-07T10:46:23Z</time></trkpt><trkpt lat="44.68743212237892" lon="11.30166774186963"><ele>18.0</ele><time>2026-04-07T10:46:24Z</time></trkpt><trkpt lat="44.687605937140496" lon="11.301912716316675"><ele>18.0</ele><time>2026-04-07T10:46:25Z</time></trkpt><trkpt lat="44.68777352670244" lon="11.302144832710487"><ele>18.5</ele><time>2026-04-07T10:46:26Z</time></trkpt><trkpt lat="44.687945348078735" lon="11.302373237692386"><ele>19.0</ele><time>2026-04-07T10:46:27Z</time></trkpt><trkpt lat="44.688123603665574" lon="11.302586162901957"><ele>19.0</ele><time>2026-04-07T10:46:28Z</time></trkpt><trkpt lat="44.6883080507182" lon="11.302780704421428"><ele>19.0</ele><time>2026-04-07T10:46:29Z</time></trkpt><trkpt lat="44.68850156970248" lon="11.302957875529678"><ele>18.0</ele><time>2026-04-07T10:46:30Z</time></trkpt><trkpt lat="44.68870160793724" lon="11.30312167644557"><ele>17.0</ele><time>2026-04-07T10:46:31Z</time></trkpt><trkpt lat="44.68890733876071" lon="11.303279110540965"><ele>17.0</ele><time>2026-04-07T10:46:32Z</time></trkpt><trkpt lat="44.68911441302877" lon="11.303436790334343"><ele>17.0</ele><time>2026-04-07T10:46:33Z</time></trkpt><trkpt lat="44.68932275709698" lon="11.303597655299768"><ele>18.5</ele><time>2026-04-07T10:46:34Z</time></trkpt><trkpt lat="44.6895327160508" lon="11.3037639399541"><ele>20.0</ele><time>2026-04-07T10:46:35Z</time></trkpt><trkpt lat="44.689748133825304" lon="11.303934541319705"><ele>20.5</ele><time>2026-04-07T10:46:36Z</time></trkpt><trkpt lat="44.68996129977899" lon="11.30410023622472"><ele>21.0</ele><time>2026-04-07T10:46:37Z</time></trkpt><trkpt lat="44.69017647497973" lon="11.304269169006124"><ele>19.5</ele><time>2026-04-07T10:46:38Z</time></trkpt><trkpt lat="44.69039025422461" lon="11.304439733535276"><ele>18.0</ele><time>2026-04-07T10:46:39Z</time></trkpt><trkpt lat="44.69060769446253" lon="11.304606983262389"><ele>19.0</ele><time>2026-04-07T10:46:40Z</time></trkpt><trkpt lat="44.69081474717768" lon="11.304768438391559"><ele>20.0</ele><time>2026-04-07T10:46:41Z</time></trkpt><trkpt lat="44.69101364137711" lon="11.304921779243854"><ele>19.0</ele><time>2026-04-07T10:46:42Z</time></trkpt><trkpt lat="44.69121446816971" lon="11.30506682604657"><ele>18.0</ele><time>2026-04-07T10:46:43Z</time></trkpt><trkpt lat="44.691407844398405" lon="11.30522733459672"><ele>18.0</ele><time>2026-04-07T10:46:44Z</time></trkpt><trkpt lat="44.69160729325959" lon="11.30537587242586"><ele>18.0</ele><time>2026-04-07T10:46:45Z</time></trkpt><trkpt lat="44.69185982898936" lon="11.30539094809744"><ele>18.0</ele><time>2026-04-07T10:46:46Z</time></trkpt><trkpt lat="44.69209098628874" lon="11.305461235625101"><ele>18.0</ele><time>2026-04-07T10:46:47Z</time></trkpt><trkpt lat="44.69233037710762" lon="11.305509591321277"><ele>18.0</ele><time>2026-04-07T10:46:48Z</time></trkpt><trkpt lat="44.692582839588376" lon="11.305536678780326"><ele>18.0</ele><time>2026-04-07T10:46:49Z</time></trkpt><trkpt lat="44.692839197278396" lon="11.305544484401704"><ele>19.5</ele><time>2026-04-07T10:46:50Z</time></trkpt><trkpt lat="44.693105551262356" lon="11.305544444325125"><ele>21.0</ele><time>2026-04-07T10:46:51Z</time></trkpt><trkpt lat="44.69337053187602" lon="11.30554253622164"><ele>21.0</ele><time>2026-04-07T10:46:52Z</time></trkpt><trkpt lat="44.69362116265973" lon="11.305540849040447"><ele>21.0</ele><time>2026-04-07T10:46:53Z</time></trkpt><trkpt lat="44.69385042846586" lon="11.305551339671"><ele>21.0</ele><time>2026-04-07T10:46:54Z</time></trkpt><trkpt lat="44.694062866885425" lon="11.3055689564898"><ele>21.0</ele><time>2026-04-07T10:46:55Z</time></trkpt><trkpt lat="44.69427328966965" lon="11.305589311961208"><ele>21.0</ele><time>2026-04-07T10:46:56Z</time></trkpt><trkpt lat="44.694487229331806" lon="11.305607657711947"><ele>20.333333333333332</ele><time>2026-04-07T10:46:57Z</time></trkpt><trkpt lat="44.694703055743176" lon="11.305621728276265"><ele>19.666666666666664</ele><time>2026-04-07T10:46:58Z</time></trkpt><trkpt lat="44.69491802864046" lon="11.30563605696706"><ele>19.0</ele><time>2026-04-07T10:46:59Z</time></trkpt><trkpt lat="44.69513187675311" lon="11.305651608537715"><ele>19.0</ele><time>2026-04-07T10:47:00Z</time></trkpt><trkpt lat="44.69534449318362" lon="11.305664820721338"><ele>19.0</ele><time>2026-04-07T10:47:01Z</time></trkpt><trkpt lat="44.69555628945558" lon="11.305678888176962"><ele>19.0</ele><time>2026-04-07T10:47:02Z</time></trkpt><trkpt lat="44.695768654534156" lon="11.305693285300627"><ele>19.0</ele><time>2026-04-07T10:47:03Z</time></trkpt><trkpt lat="44.695981077604074" lon="11.305707618197394"><ele>19.0</ele><time>2026-04-07T10:47:04Z</time></trkpt><trkpt lat="44.696190804346124" lon="11.305723317602155"><ele>19.0</ele><time>2026-04-07T10:47:05Z</time></trkpt><trkpt lat="44.696402679841114" lon="11.3057442294472"><ele>18.666666666666664</ele><time>2026-04-07T10:47:06Z</time></trkpt><trkpt lat="44.69661132540875" lon="11.305771289585302"><ele>18.333333333333332</ele><time>2026-04-07T10:47:07Z</time></trkpt><trkpt lat="44.6968214865223" lon="11.305798805139485"><ele>18.0</ele><time>2026-04-07T10:47:08Z</time></trkpt><trkpt lat="44.69703357655664" lon="11.305823227510418"><ele>18.0</ele><time>2026-04-07T10:47:09Z</time></trkpt><trkpt lat="44.69724175510186" lon="11.305841250799178"><ele>18.0</ele><time>2026-04-07T10:47:10Z</time></trkpt><trkpt lat="44.69745171306269" lon="11.30585429117251"><ele>18.0</ele><time>2026-04-07T10:47:11Z</time></trkpt><trkpt lat="44.69766397769689" lon="11.305862309511244"><ele>18.333333333333332</ele><time>2026-04-07T10:47:12Z</time></trkpt><trkpt lat="44.69787576796955" lon="11.305859147757321"><ele>18.666666666666664</ele><time>2026-04-07T10:47:13Z</time></trkpt><trkpt lat="44.69808850440384" lon="11.305847026936352"><ele>19.0</ele><time>2026-04-07T10:47:14Z</time></trkpt><trkpt lat="44.69830693213889" lon="11.305824420994936"><ele>19.0</ele><time>2026-04-07T10:47:15Z</time></trkpt><trkpt lat="44.69852032110918" lon="11.305801583160703"><ele>19.0</ele><time>2026-04-07T10:47:16Z</time></trkpt><trkpt lat="44.69873650561735" lon="11.305766667483226"><ele>19.0</ele><time>2026-04-07T10:47:17Z</time></trkpt><trkpt lat="44.698953652352074" lon="11.305718214259045"><ele>19.0</ele><time>2026-04-07T10:47:18Z</time></trkpt><trkpt lat="44.699169648370784" lon="11.305658336618857"><ele>19.0</ele><time>2026-04-07T10:47:19Z</time></trkpt><trkpt lat="44.69938316128659" lon="11.305594443669568"><ele>19.0</ele><time>2026-04-07T10:47:20Z</time></trkpt><trkpt lat="44.69959914034783" lon="11.305527788588657"><ele>18.666666666666664</ele><time>2026-04-07T10:47:21Z</time></trkpt><trkpt lat="44.69981936631378" lon="11.305462208475229"><ele>18.333333333333332</ele><time>2026-04-07T10:47:22Z</time></trkpt><trkpt lat="44.70003883046898" lon="11.305398533731067"><ele>18.0</ele><time>2026-04-07T10:47:23Z</time></trkpt><trkpt lat="44.700256202755405" lon="11.30533703726711"><ele>18.0</ele><time>2026-04-07T10:47:24Z</time></trkpt><trkpt lat="44.70047506392749" lon="11.305277460726906"><ele>18.0</ele><time>2026-04-07T10:47:25Z</time></trkpt><trkpt lat="44.70068857906867" lon="11.305219275332389"><ele>18.0</ele><time>2026-04-07T10:47:26Z</time></trkpt><trkpt lat="44.70089360905084" lon="11.305169125971382"><ele>18.333333333333332</ele><time>2026-04-07T10:47:27Z</time></trkpt><trkpt lat="44.701102117890954" lon="11.305133337448888"><ele>18.666666666666664</ele><time>2026-04-07T10:47:28Z</time></trkpt><trkpt lat="44.70131193106886" lon="11.305123272143536"><ele>19.0</ele><time>2026-04-07T10:47:29Z</time></trkpt><trkpt lat="44.7015269854574" lon="11.30513657836622"><ele>19.0</ele><time>2026-04-07T10:47:30Z</time></trkpt><trkpt lat="44.70174215500678" lon="11.30516207554969"><ele>19.0</ele><time>2026-04-07T10:47:31Z</time></trkpt><trkpt lat="44.70195728039378" lon="11.305191598311723"><ele>19.0</ele><time>2026-04-07T10:47:32Z</time></trkpt><trkpt lat="44.70216171419934" lon="11.305220059944551"><ele>18.333333333333332</ele><time>2026-04-07T10:47:33Z</time></trkpt><trkpt lat="44.702356284251984" lon="11.30524187685548"><ele>17.666666666666668</ele><time>2026-04-07T10:47:34Z</time></trkpt><trkpt lat="44.70255130543312" lon="11.30526036930168"><ele>17.0</ele><time>2026-04-07T10:47:35Z</time></trkpt><trkpt lat="44.70274583867823" lon="11.305280930779887"><ele>17.333333333333336</ele><time>2026-04-07T10:47:36Z</time></trkpt><trkpt lat="44.702942366115096" lon="11.305302578161008"><ele>17.666666666666668</ele><time>2026-04-07T10:47:37Z</time></trkpt><trkpt lat="44.703140982213085" lon="11.305326530161253"><ele>18.0</ele><time>2026-04-07T10:47:38Z</time></trkpt><trkpt lat="44.70334376221553" lon="11.305350044991432"><ele>18.0</ele><time>2026-04-07T10:47:39Z</time></trkpt><trkpt lat="44.70355481113183" lon="11.305373083279289"><ele>18.0</ele><time>2026-04-07T10:47:40Z</time></trkpt><trkpt lat="44.703772494952425" lon="11.305395154088686"><ele>18.0</ele><time>2026-04-07T10:47:41Z</time></trkpt><trkpt lat="44.703993310095214" lon="11.305416346639687"><ele>18.333333333333332</ele><time>2026-04-07T10:47:42Z</time></trkpt><trkpt lat="44.70421691698835" lon="11.305437823893033"><ele>18.666666666666664</ele><time>2026-04-07T10:47:43Z</time></trkpt><trkpt lat="44.70444015457701" lon="11.305461915002752"><ele>19.0</ele><time>2026-04-07T10:47:44Z</time></trkpt><trkpt lat="44.70466361670629" lon="11.305485633342139"><ele>19.0</ele><time>2026-04-07T10:47:45Z</time></trkpt><trkpt lat="44.70488177032088" lon="11.305507197382674"><ele>19.0</ele><time>2026-04-07T10:47:46Z</time></trkpt><trkpt lat="44.705092891003346" lon="11.305529555462256"><ele>19.0</ele><time>2026-04-07T10:47:47Z</time></trkpt><trkpt lat="44.705302342184574" lon="11.305551555261246"><ele>19.0</ele><time>2026-04-07T10:47:48Z</time></trkpt><trkpt lat="44.70551499495302" lon="11.305573524524037"><ele>19.0</ele><time>2026-04-07T10:47:49Z</time></trkpt><trkpt lat="44.70572734801172" lon="11.305595252469368"><ele>19.0</ele><time>2026-04-07T10:47:50Z</time></trkpt><trkpt lat="44.70595729136741" lon="11.305619515731191"><ele>18.0</ele><time>2026-04-07T10:47:51Z</time></trkpt><trkpt lat="44.70619903148168" lon="11.305649463872184"><ele>17.0</ele><time>2026-04-07T10:47:52Z</time></trkpt><trkpt lat="44.70644143704808" lon="11.305674375738045"><ele>17.0</ele><time>2026-04-07T10:47:53Z</time></trkpt><trkpt lat="44.706688646817" lon="11.305697126111143"><ele>17.0</ele><time>2026-04-07T10:47:54Z</time></trkpt><trkpt lat="44.706916431520945" lon="11.305718235306836"><ele>17.0</ele><time>2026-04-07T10:47:55Z</time></trkpt><trkpt lat="44.70712582057077" lon="11.305741322307906"><ele>17.0</ele><time>2026-04-07T10:47:56Z</time></trkpt><trkpt lat="44.707323360151754" lon="11.305765556671581"><ele>17.0</ele><time>2026-04-07T10:47:57Z</time></trkpt><trkpt lat="44.70752030158622" lon="11.305785573795102"><ele>17.0</ele><time>2026-04-07T10:47:58Z</time></trkpt><trkpt lat="44.70772169937091" lon="11.30580936668604"><ele>17.0</ele><time>2026-04-07T10:47:59Z</time></trkpt><trkpt lat="44.70792281036339" lon="11.30583437120119"><ele>17.0</ele><time>2026-04-07T10:48:00Z</time></trkpt><trkpt lat="44.70812618684331" lon="11.305861261481091"><ele>17.0</ele><time>2026-04-07T10:48:01Z</time></trkpt><trkpt lat="44.70832498937362" lon="11.305888614265754"><ele>17.0</ele><time>2026-04-07T10:48:02Z</time></trkpt><trkpt lat="44.70851953421879" lon="11.305912258693438"><ele>17.0</ele><time>2026-04-07T10:48:03Z</time></trkpt><trkpt lat="44.70871124852384" lon="11.305935417544807"><ele>17.0</ele><time>2026-04-07T10:48:04Z</time></trkpt><trkpt lat="44.70890548163317" lon="11.305958855327404"><ele>17.0</ele><time>2026-04-07T10:48:05Z</time></trkpt><trkpt lat="44.70928014998649" lon="11.306011150989617"><ele>17.5</ele><time>2026-04-07T10:48:07Z</time></trkpt><trkpt lat="44.70944556634665" lon="11.306032435743516"><ele>18.0</ele><time>2026-04-07T10:48:08Z</time></trkpt><trkpt lat="44.709589459268656" lon="11.306050440376529"><ele>18.5</ele><time>2026-04-07T10:48:09Z</time></trkpt><trkpt lat="44.7097221436921" lon="11.306068514778058"><ele>19.0</ele><time>2026-04-07T10:48:10Z</time></trkpt><trkpt lat="44.709843953981306" lon="11.306082781117544"><ele>19.0</ele><time>2026-04-07T10:48:11Z</time></trkpt><trkpt lat="44.7099433049967" lon="11.306090238082918"><ele>19.0</ele><time>2026-04-07T10:48:12Z</time></trkpt><trkpt lat="44.71001323656225" lon="11.306099026947415"><ele>19.0</ele><time>2026-04-07T10:48:13Z</time></trkpt><trkpt lat="44.710074019544116" lon="11.306193903489023"><ele>19.0</ele><time>2026-04-07T10:48:15Z</time></trkpt><trkpt lat="44.71015324162274" lon="11.306178921217251"><ele>19.0</ele><time>2026-04-07T10:48:18Z</time></trkpt><trkpt lat="44.710200064274304" lon="11.306350151085176"><ele>18.599999999999998</ele><time>2026-04-07T10:48:35Z</time></trkpt><trkpt lat="44.71027123693016" lon="11.306358216219738"><ele>18.2</ele><time>2026-04-07T10:48:37Z</time></trkpt><trkpt lat="44.7103876308335" lon="11.306361453805653"><ele>17.799999999999997</ele><time>2026-04-07T10:48:39Z</time></trkpt><trkpt lat="44.71049015687928" lon="11.306356618160674"><ele>17.4</ele><time>2026-04-07T10:48:41Z</time></trkpt><trkpt lat="44.71058631467478" lon="11.306350553701783"><ele>17.0</ele><time>2026-04-07T10:48:43Z</time></trkpt><trkpt lat="44.71069384273027" lon="11.306341613972299"><ele>17.0</ele><time>2026-04-07T10:48:45Z</time></trkpt><trkpt lat="44.71080872925383" lon="11.306318108464172"><ele>17.0</ele><time>2026-04-07T10:48:47Z</time></trkpt><trkpt lat="44.71089466109924" lon="11.306377311476695"><ele>17.0</ele><time>2026-04-07T10:48:49Z</time></trkpt><trkpt lat="44.710916574422264" lon="11.306495218100622"><ele>17.0</ele><time>2026-04-07T10:48:51Z</time></trkpt><trkpt lat="44.710908860968594" lon="11.306640937229501"><ele>17.0</ele><time>2026-04-07T10:48:53Z</time></trkpt><trkpt lat="44.7108991427413" lon="11.306769898987572"><ele>17.333333333333336</ele><time>2026-04-07T10:48:55Z</time></trkpt><trkpt lat="44.710901960409025" lon="11.306882400379346"><ele>17.666666666666668</ele><time>2026-04-07T10:48:57Z</time></trkpt><trkpt lat="44.710906543919954" lon="11.307043835194571"><ele>18.0</ele><time>2026-04-07T10:48:59Z</time></trkpt><trkpt lat="44.71093859232026" lon="11.307154133342664"><ele>18.333333333333332</ele><time>2026-04-07T10:49:01Z</time></trkpt><trkpt lat="44.71099492540153" lon="11.307215683529162"><ele>18.666666666666664</ele><time>2026-04-07T10:49:03Z</time></trkpt><trkpt lat="44.71105561275615" lon="11.307244974823519"><ele>19.0</ele><time>2026-04-07T10:49:06Z</time></trkpt><trkpt lat="44.71104407489528" lon="11.307446527501499"><ele>18.8</ele><time>2026-04-07T10:49:07Z</time></trkpt><trkpt lat="44.711040614335275" lon="11.307571870394389"><ele>18.599999999999998</ele><time>2026-04-07T10:49:08Z</time></trkpt><trkpt lat="44.71104206666224" lon="11.307685738821439"><ele>18.4</ele><time>2026-04-07T10:49:09Z</time></trkpt><trkpt lat="44.71104126585538" lon="11.307824808331473"><ele>18.2</ele><time>2026-04-07T10:49:10Z</time></trkpt><trkpt lat="44.711037765285944" lon="11.307973688063925"><ele>18.0</ele><time>2026-04-07T10:49:11Z</time></trkpt><trkpt lat="44.71102957658499" lon="11.308137804357573"><ele>18.0</ele><time>2026-04-07T10:49:12Z</time></trkpt><trkpt lat="44.71100877671338" lon="11.308309204583844"><ele>18.0</ele><time>2026-04-07T10:49:13Z</time></trkpt><trkpt lat="44.710982228356954" lon="11.308465078465627"><ele>18.0</ele><time>2026-04-07T10:49:14Z</time></trkpt><trkpt lat="44.71095162068801" lon="11.308630266216298"><ele>18.0</ele><time>2026-04-07T10:49:15Z</time></trkpt><trkpt lat="44.710917440883" lon="11.3087959650779"><ele>17.75</ele><time>2026-04-07T10:49:16Z</time></trkpt><trkpt lat="44.71088365342856" lon="11.308960395109825"><ele>17.5</ele><time>2026-04-07T10:49:17Z</time></trkpt><trkpt lat="44.71084944140238" lon="11.309132517014234"><ele>17.25</ele><time>2026-04-07T10:49:18Z</time></trkpt><trkpt lat="44.71081762645671" lon="11.309288280804953"><ele>17.0</ele><time>2026-04-07T10:49:19Z</time></trkpt><trkpt lat="44.71078820806697" lon="11.309444665046614"><ele>17.0</ele><time>2026-04-07T10:49:20Z</time></trkpt><trkpt lat="44.710759582913354" lon="11.309596987135633"><ele>17.0</ele><time>2026-04-07T10:49:21Z</time></trkpt><trkpt lat="44.71072950617119" lon="11.309744926715654"><ele>17.0</ele><time>2026-04-07T10:49:22Z</time></trkpt><trkpt lat="44.710696874157335" lon="11.30988760022019"><ele>17.0</ele><time>2026-04-07T10:49:23Z</time></trkpt><trkpt lat="44.710665088900925" lon="11.310032770607586"><ele>17.0</ele><time>2026-04-07T10:49:24Z</time></trkpt><trkpt lat="44.71063861897206" lon="11.310174258563404"><ele>17.0</ele><time>2026-04-07T10:49:25Z</time></trkpt><trkpt lat="44.710627602352275" lon="11.310306675007562"><ele>17.0</ele><time>2026-04-07T10:49:26Z</time></trkpt><trkpt lat="44.71065918159991" lon="11.310419480822006"><ele>17.0</ele><time>2026-04-07T10:49:27Z</time></trkpt><trkpt lat="44.710727895982906" lon="11.31051819911044"><ele>17.0</ele><time>2026-04-07T10:49:28Z</time></trkpt><trkpt lat="44.710820865097226" lon="11.310592475692655"><ele>17.0</ele><time>2026-04-07T10:49:29Z</time></trkpt><trkpt lat="44.71092981817496" lon="11.310639592449434"><ele>16.666666666666668</ele><time>2026-04-07T10:49:30Z</time></trkpt><trkpt lat="44.71105467468886" lon="11.310667936090399"><ele>16.333333333333332</ele><time>2026-04-07T10:49:31Z</time></trkpt><trkpt lat="44.71119159977336" lon="11.31070153338315"><ele>16.0</ele><time>2026-04-07T10:49:32Z</time></trkpt><trkpt lat="44.711491379443984" lon="11.31077685143775"><ele>16.0</ele><time>2026-04-07T10:49:34Z</time></trkpt><trkpt lat="44.71165052231447" lon="11.310815097346792"><ele>16.0</ele><time>2026-04-07T10:49:35Z</time></trkpt><trkpt lat="44.71179762538729" lon="11.310851637273187"><ele>16.0</ele><time>2026-04-07T10:49:36Z</time></trkpt><trkpt lat="44.71193238061752" lon="11.310887128797082"><ele>16.0</ele><time>2026-04-07T10:49:37Z</time></trkpt><trkpt lat="44.71204730701669" lon="11.310920761462818"><ele>16.166666666666664</ele><time>2026-04-07T10:49:38Z</time></trkpt><trkpt lat="44.712151190227836" lon="11.310955349162253"><ele>16.333333333333332</ele><time>2026-04-07T10:49:39Z</time></trkpt><trkpt lat="44.71224141108747" lon="11.311006549209106"><ele>16.5</ele><time>2026-04-07T10:49:40Z</time></trkpt><trkpt lat="44.71230290504248" lon="11.311088215586521"><ele>16.666666666666668</ele><time>2026-04-07T10:49:41Z</time></trkpt><trkpt lat="44.712332181034576" lon="11.311190695730096"><ele>16.833333333333336</ele><time>2026-04-07T10:49:42Z</time></trkpt><trkpt lat="44.71232934108125" lon="11.311298431351174"><ele>17.0</ele><time>2026-04-07T10:49:43Z</time></trkpt><trkpt lat="44.71230427131413" lon="11.31141162125905"><ele>17.0</ele><time>2026-04-07T10:49:44Z</time></trkpt><trkpt lat="44.71227232644723" lon="11.31152720322064"><ele>17.0</ele><time>2026-04-07T10:49:45Z</time></trkpt><trkpt lat="44.71223461492346" lon="11.311654616297822"><ele>17.0</ele><time>2026-04-07T10:49:46Z</time></trkpt><trkpt lat="44.71219511119694" lon="11.311799754527058"><ele>17.0</ele><time>2026-04-07T10:49:47Z</time></trkpt><trkpt lat="44.71215429085543" lon="11.311952956981857"><ele>17.0</ele><time>2026-04-07T10:49:48Z</time></trkpt><trkpt lat="44.71211176477108" lon="11.312108492608889"><ele>16.75</ele><time>2026-04-07T10:49:49Z</time></trkpt><trkpt lat="44.712068890902486" lon="11.312255976443156"><ele>16.5</ele><time>2026-04-07T10:49:50Z</time></trkpt><trkpt lat="44.712026168902746" lon="11.312397547824359"><ele>16.25</ele><time>2026-04-07T10:49:51Z</time></trkpt><trkpt lat="44.711971315307444" lon="11.312586566805235"><ele>16.0</ele><time>2026-04-07T10:49:52Z</time></trkpt><trkpt lat="44.7119253726829" lon="11.312756068784568"><ele>16.25</ele><time>2026-04-07T10:49:53Z</time></trkpt><trkpt lat="44.71187525568134" lon="11.312922316684825"><ele>16.5</ele><time>2026-04-07T10:49:54Z</time></trkpt><trkpt lat="44.71182415328637" lon="11.313098455936041"><ele>16.75</ele><time>2026-04-07T10:49:55Z</time></trkpt><trkpt lat="44.71177664427896" lon="11.313270818351826"><ele>17.0</ele><time>2026-04-07T10:49:56Z</time></trkpt><trkpt lat="44.711731885874215" lon="11.31343235479646"><ele>17.0</ele><time>2026-04-07T10:49:57Z</time></trkpt><trkpt lat="44.71168309480911" lon="11.313611782232647"><ele>17.0</ele><time>2026-04-07T10:49:58Z</time></trkpt><trkpt lat="44.71163048601711" lon="11.313794381033741"><ele>17.0</ele><time>2026-04-07T10:49:59Z</time></trkpt><trkpt lat="44.71157163920215" lon="11.313987737643474"><ele>17.0</ele><time>2026-04-07T10:50:00Z</time></trkpt><trkpt lat="44.71151071598486" lon="11.314196571797446"><ele>17.25</ele><time>2026-04-07T10:50:01Z</time></trkpt><trkpt lat="44.71145382725027" lon="11.314406932426436"><ele>17.5</ele><time>2026-04-07T10:50:02Z</time></trkpt><trkpt lat="44.71140097747161" lon="11.31459519695185"><ele>17.75</ele><time>2026-04-07T10:50:03Z</time></trkpt><trkpt lat="44.71135153864084" lon="11.314768166249419"><ele>18.0</ele><time>2026-04-07T10:50:04Z</time></trkpt><trkpt lat="44.711304176888774" lon="11.314936939076278"><ele>18.666666666666668</ele><time>2026-04-07T10:50:05Z</time></trkpt><trkpt lat="44.711255901952384" lon="11.315106664244215"><ele>19.333333333333336</ele><time>2026-04-07T10:50:06Z</time></trkpt><trkpt lat="44.71116869895606" lon="11.31542046768078"><ele>20.0</ele><time>2026-04-07T10:50:08Z</time></trkpt><trkpt lat="44.71113546763606" lon="11.315538587437642"><ele>20.0</ele><time>2026-04-07T10:50:09Z</time></trkpt><trkpt lat="44.711105797782835" lon="11.315642476493634"><ele>20.0</ele><time>2026-04-07T10:50:10Z</time></trkpt><trkpt lat="44.71106360180216" lon="11.315749713038574"><ele>20.0</ele><time>2026-04-07T10:50:12Z</time></trkpt><trkpt lat="44.7111973156599" lon="11.31583612280089"><ele>20.0</ele><time>2026-04-07T10:50:14Z</time></trkpt><trkpt lat="44.71132109603502" lon="11.315854129150736"><ele>20.0</ele><time>2026-04-07T10:50:16Z</time></trkpt><trkpt lat="44.71139073337569" lon="11.315883958205703"><ele>20.0</ele><time>2026-04-07T10:50:17Z</time></trkpt><trkpt lat="44.711461287504484" lon="11.315908834535335"><ele>20.0</ele><time>2026-04-07T10:50:18Z</time></trkpt><trkpt lat="44.71152637080238" lon="11.315961051031586"><ele>20.0</ele><time>2026-04-07T10:50:19Z</time></trkpt><trkpt lat="44.711597927197865" lon="11.315992984079642"><ele>20.0</ele><time>2026-04-07T10:50:20Z</time></trkpt><trkpt lat="44.71170491948882" lon="11.31604073092621"><ele>20.0</ele><time>2026-04-07T10:50:22Z</time></trkpt><trkpt lat="44.71177133376613" lon="11.31606889632567"><ele>20.0</ele><time>2026-04-07T10:50:24Z</time></trkpt></trkseg></trk></gpx>